<?xml version="1.0" encoding="UTF-8" standalone="no" ?>
<gpx xmlns="http://www.topografix.com/GPX/1/1" xmlns:xsi="http://www.w3.org/2001/XMLSchema-instance" xsi:schemaLocation="http://www.topografix.com/GPX/1/1 http://www.topografix.com/GPX/1/1/gpx.xsd" version="1.1" creator="VisuGPX - https://www.visugpx.com">
  <metadata>
    <name>Puy de Dôme (1.443 m) - Chemin des Muletiers</name>
    <desc><![CDATA[Départ de Clermont-Ferrand (Puy-de-Dôme)]]></desc>
  </metadata>
  <trk>
    <name><![CDATA[Puy de Dôme (1.443 m) - Chemin des Muletiers_1]]></name>
    <trkseg>
      <trkpt lat="45.7766" lon="3.07516">
        <ele>393</ele>
        <time>2020-07-11T12:56:50.000Z</time>
      </trkpt>
      <trkpt lat="45.77661" lon="3.07513">
        <ele>392</ele>
        <time>2020-07-11T12:56:51.000Z</time>
      </trkpt>
      <trkpt lat="45.77661" lon="3.0751">
        <ele>392</ele>
        <time>2020-07-11T12:56:52.000Z</time>
      </trkpt>
      <trkpt lat="45.77661" lon="3.07506">
        <ele>391</ele>
        <time>2020-07-11T12:56:53.000Z</time>
      </trkpt>
      <trkpt lat="45.77662" lon="3.07503">
        <ele>390</ele>
        <time>2020-07-11T12:56:54.000Z</time>
      </trkpt>
      <trkpt lat="45.77662" lon="3.075">
        <ele>389</ele>
        <time>2020-07-11T12:56:55.000Z</time>
      </trkpt>
      <trkpt lat="45.77663" lon="3.07497">
        <ele>388</ele>
        <time>2020-07-11T12:56:56.000Z</time>
      </trkpt>
      <trkpt lat="45.77664" lon="3.07494">
        <ele>388</ele>
        <time>2020-07-11T12:56:57.000Z</time>
      </trkpt>
      <trkpt lat="45.77664" lon="3.07491">
        <ele>387</ele>
        <time>2020-07-11T12:56:58.000Z</time>
      </trkpt>
      <trkpt lat="45.77665" lon="3.07488">
        <ele>387</ele>
        <time>2020-07-11T12:56:59.000Z</time>
      </trkpt>
      <trkpt lat="45.77666" lon="3.07485">
        <ele>385</ele>
        <time>2020-07-11T12:57:00.000Z</time>
      </trkpt>
      <trkpt lat="45.77667" lon="3.07482">
        <ele>384</ele>
        <time>2020-07-11T12:57:01.000Z</time>
      </trkpt>
      <trkpt lat="45.77668" lon="3.07479">
        <ele>383</ele>
        <time>2020-07-11T12:57:02.000Z</time>
      </trkpt>
      <trkpt lat="45.77668" lon="3.07475">
        <ele>383</ele>
        <time>2020-07-11T12:57:03.000Z</time>
      </trkpt>
      <trkpt lat="45.77668" lon="3.07472">
        <ele>383</ele>
        <time>2020-07-11T12:57:04.000Z</time>
      </trkpt>
      <trkpt lat="45.77667" lon="3.07468">
        <ele>382</ele>
        <time>2020-07-11T12:57:05.000Z</time>
      </trkpt>
      <trkpt lat="45.77666" lon="3.07465">
        <ele>381</ele>
        <time>2020-07-11T12:57:06.000Z</time>
      </trkpt>
      <trkpt lat="45.77666" lon="3.07461">
        <ele>380</ele>
        <time>2020-07-11T12:57:07.000Z</time>
      </trkpt>
      <trkpt lat="45.77665" lon="3.07457">
        <ele>380</ele>
        <time>2020-07-11T12:57:08.000Z</time>
      </trkpt>
      <trkpt lat="45.77665" lon="3.07454">
        <ele>379</ele>
        <time>2020-07-11T12:57:09.000Z</time>
      </trkpt>
      <trkpt lat="45.77664" lon="3.0745">
        <ele>378</ele>
        <time>2020-07-11T12:57:10.000Z</time>
      </trkpt>
      <trkpt lat="45.77664" lon="3.07447">
        <ele>378</ele>
        <time>2020-07-11T12:57:11.000Z</time>
      </trkpt>
      <trkpt lat="45.77664" lon="3.07443">
        <ele>378</ele>
        <time>2020-07-11T12:57:12.000Z</time>
      </trkpt>
      <trkpt lat="45.77664" lon="3.0744">
        <ele>378</ele>
        <time>2020-07-11T12:57:13.000Z</time>
      </trkpt>
      <trkpt lat="45.77663" lon="3.07437">
        <ele>377</ele>
        <time>2020-07-11T12:57:14.000Z</time>
      </trkpt>
      <trkpt lat="45.77663" lon="3.07434">
        <ele>376</ele>
        <time>2020-07-11T12:57:15.000Z</time>
      </trkpt>
      <trkpt lat="45.77662" lon="3.07431">
        <ele>375</ele>
        <time>2020-07-11T12:57:16.000Z</time>
      </trkpt>
      <trkpt lat="45.77662" lon="3.07427">
        <ele>375</ele>
        <time>2020-07-11T12:57:17.000Z</time>
      </trkpt>
      <trkpt lat="45.77661" lon="3.07423">
        <ele>374</ele>
        <time>2020-07-11T12:57:18.000Z</time>
      </trkpt>
      <trkpt lat="45.77661" lon="3.07419">
        <ele>373</ele>
        <time>2020-07-11T12:57:19.000Z</time>
      </trkpt>
      <trkpt lat="45.7766" lon="3.07415">
        <ele>373</ele>
        <time>2020-07-11T12:57:20.000Z</time>
      </trkpt>
      <trkpt lat="45.7766" lon="3.07411">
        <ele>372</ele>
        <time>2020-07-11T12:57:21.000Z</time>
      </trkpt>
      <trkpt lat="45.77661" lon="3.07407">
        <ele>372</ele>
        <time>2020-07-11T12:57:22.000Z</time>
      </trkpt>
      <trkpt lat="45.77661" lon="3.07403">
        <ele>370</ele>
        <time>2020-07-11T12:57:23.000Z</time>
      </trkpt>
      <trkpt lat="45.77662" lon="3.07398">
        <ele>371</ele>
        <time>2020-07-11T12:57:24.000Z</time>
      </trkpt>
      <trkpt lat="45.77662" lon="3.07395">
        <ele>370</ele>
        <time>2020-07-11T12:57:25.000Z</time>
      </trkpt>
      <trkpt lat="45.77662" lon="3.07391">
        <ele>369</ele>
        <time>2020-07-11T12:57:26.000Z</time>
      </trkpt>
      <trkpt lat="45.77662" lon="3.07388">
        <ele>367</ele>
        <time>2020-07-11T12:57:27.000Z</time>
      </trkpt>
      <trkpt lat="45.77662" lon="3.07384">
        <ele>366</ele>
        <time>2020-07-11T12:57:28.000Z</time>
      </trkpt>
      <trkpt lat="45.77661" lon="3.07381">
        <ele>364</ele>
        <time>2020-07-11T12:57:29.000Z</time>
      </trkpt>
      <trkpt lat="45.77661" lon="3.07377">
        <ele>362</ele>
        <time>2020-07-11T12:57:30.000Z</time>
      </trkpt>
      <trkpt lat="45.77661" lon="3.07374">
        <ele>362</ele>
        <time>2020-07-11T12:57:31.000Z</time>
      </trkpt>
      <trkpt lat="45.77661" lon="3.07371">
        <ele>362</ele>
        <time>2020-07-11T12:57:32.000Z</time>
      </trkpt>
      <trkpt lat="45.77662" lon="3.07368">
        <ele>361</ele>
        <time>2020-07-11T12:57:33.000Z</time>
      </trkpt>
      <trkpt lat="45.77662" lon="3.07364">
        <ele>360</ele>
        <time>2020-07-11T12:57:34.000Z</time>
      </trkpt>
      <trkpt lat="45.77662" lon="3.07361">
        <ele>359</ele>
        <time>2020-07-11T12:57:35.000Z</time>
      </trkpt>
      <trkpt lat="45.77662" lon="3.07357">
        <ele>357</ele>
        <time>2020-07-11T12:57:36.000Z</time>
      </trkpt>
      <trkpt lat="45.77663" lon="3.07354">
        <ele>356</ele>
        <time>2020-07-11T12:57:37.000Z</time>
      </trkpt>
      <trkpt lat="45.77663" lon="3.07351">
        <ele>356</ele>
        <time>2020-07-11T12:57:38.000Z</time>
      </trkpt>
      <trkpt lat="45.77663" lon="3.07348">
        <ele>357</ele>
        <time>2020-07-11T12:57:39.000Z</time>
      </trkpt>
      <trkpt lat="45.77663" lon="3.07345">
        <ele>359</ele>
        <time>2020-07-11T12:57:40.000Z</time>
      </trkpt>
      <trkpt lat="45.77662" lon="3.07342">
        <ele>362</ele>
        <time>2020-07-11T12:57:41.000Z</time>
      </trkpt>
      <trkpt lat="45.77655" lon="3.07326">
        <ele>374</ele>
        <time>2020-07-11T12:57:42.000Z</time>
      </trkpt>
      <trkpt lat="45.77654" lon="3.07325">
        <ele>376</ele>
        <time>2020-07-11T12:57:43.000Z</time>
      </trkpt>
      <trkpt lat="45.77653" lon="3.07323">
        <ele>376</ele>
        <time>2020-07-11T12:57:44.000Z</time>
      </trkpt>
      <trkpt lat="45.77652" lon="3.07321">
        <ele>377</ele>
        <time>2020-07-11T12:57:45.000Z</time>
      </trkpt>
      <trkpt lat="45.77651" lon="3.07318">
        <ele>377</ele>
        <time>2020-07-11T12:57:46.000Z</time>
      </trkpt>
      <trkpt lat="45.7765" lon="3.07315">
        <ele>377</ele>
        <time>2020-07-11T12:57:47.000Z</time>
      </trkpt>
      <trkpt lat="45.7765" lon="3.07313">
        <ele>377</ele>
        <time>2020-07-11T12:57:48.000Z</time>
      </trkpt>
      <trkpt lat="45.7765" lon="3.0731">
        <ele>377</ele>
        <time>2020-07-11T12:57:49.000Z</time>
      </trkpt>
      <trkpt lat="45.77649" lon="3.07306">
        <ele>377</ele>
        <time>2020-07-11T12:57:50.000Z</time>
      </trkpt>
      <trkpt lat="45.77649" lon="3.07303">
        <ele>378</ele>
        <time>2020-07-11T12:57:51.000Z</time>
      </trkpt>
      <trkpt lat="45.77648" lon="3.07298">
        <ele>379</ele>
        <time>2020-07-11T12:57:52.000Z</time>
      </trkpt>
      <trkpt lat="45.77648" lon="3.07294">
        <ele>380</ele>
        <time>2020-07-11T12:57:53.000Z</time>
      </trkpt>
      <trkpt lat="45.77648" lon="3.07289">
        <ele>380</ele>
        <time>2020-07-11T12:57:54.000Z</time>
      </trkpt>
      <trkpt lat="45.77648" lon="3.07284">
        <ele>381</ele>
        <time>2020-07-11T12:57:55.000Z</time>
      </trkpt>
      <trkpt lat="45.77648" lon="3.0728">
        <ele>382</ele>
        <time>2020-07-11T12:57:56.000Z</time>
      </trkpt>
      <trkpt lat="45.77648" lon="3.07275">
        <ele>382</ele>
        <time>2020-07-11T12:57:57.000Z</time>
      </trkpt>
      <trkpt lat="45.77648" lon="3.07271">
        <ele>381</ele>
        <time>2020-07-11T12:57:58.000Z</time>
      </trkpt>
      <trkpt lat="45.77648" lon="3.07267">
        <ele>380</ele>
        <time>2020-07-11T12:57:59.000Z</time>
      </trkpt>
      <trkpt lat="45.77648" lon="3.07263">
        <ele>379</ele>
        <time>2020-07-11T12:58:00.000Z</time>
      </trkpt>
      <trkpt lat="45.77648" lon="3.07259">
        <ele>379</ele>
        <time>2020-07-11T12:58:01.000Z</time>
      </trkpt>
      <trkpt lat="45.77649" lon="3.07254">
        <ele>378</ele>
        <time>2020-07-11T12:58:02.000Z</time>
      </trkpt>
      <trkpt lat="45.77649" lon="3.0725">
        <ele>377</ele>
        <time>2020-07-11T12:58:03.000Z</time>
      </trkpt>
      <trkpt lat="45.7765" lon="3.07246">
        <ele>377</ele>
        <time>2020-07-11T12:58:04.000Z</time>
      </trkpt>
      <trkpt lat="45.7765" lon="3.07242">
        <ele>377</ele>
        <time>2020-07-11T12:58:05.000Z</time>
      </trkpt>
      <trkpt lat="45.77651" lon="3.07238">
        <ele>377</ele>
        <time>2020-07-11T12:58:06.000Z</time>
      </trkpt>
      <trkpt lat="45.77651" lon="3.07234">
        <ele>377</ele>
        <time>2020-07-11T12:58:07.000Z</time>
      </trkpt>
      <trkpt lat="45.77651" lon="3.0723">
        <ele>377</ele>
        <time>2020-07-11T12:58:08.000Z</time>
      </trkpt>
      <trkpt lat="45.77651" lon="3.07225">
        <ele>376</ele>
        <time>2020-07-11T12:58:09.000Z</time>
      </trkpt>
      <trkpt lat="45.77651" lon="3.07221">
        <ele>376</ele>
        <time>2020-07-11T12:58:10.000Z</time>
      </trkpt>
      <trkpt lat="45.77651" lon="3.07217">
        <ele>375</ele>
        <time>2020-07-11T12:58:11.000Z</time>
      </trkpt>
      <trkpt lat="45.77651" lon="3.07214">
        <ele>375</ele>
        <time>2020-07-11T12:58:12.000Z</time>
      </trkpt>
      <trkpt lat="45.77651" lon="3.0721">
        <ele>374</ele>
        <time>2020-07-11T12:58:13.000Z</time>
      </trkpt>
      <trkpt lat="45.77651" lon="3.07206">
        <ele>373</ele>
        <time>2020-07-11T12:58:14.000Z</time>
      </trkpt>
      <trkpt lat="45.77651" lon="3.07202">
        <ele>372</ele>
        <time>2020-07-11T12:58:15.000Z</time>
      </trkpt>
      <trkpt lat="45.7765" lon="3.07197">
        <ele>372</ele>
        <time>2020-07-11T12:58:16.000Z</time>
      </trkpt>
      <trkpt lat="45.77649" lon="3.07193">
        <ele>374</ele>
        <time>2020-07-11T12:58:17.000Z</time>
      </trkpt>
      <trkpt lat="45.77649" lon="3.07189">
        <ele>374</ele>
        <time>2020-07-11T12:58:18.000Z</time>
      </trkpt>
      <trkpt lat="45.77648" lon="3.07185">
        <ele>374</ele>
        <time>2020-07-11T12:58:19.000Z</time>
      </trkpt>
      <trkpt lat="45.77648" lon="3.07181">
        <ele>373</ele>
        <time>2020-07-11T12:58:20.000Z</time>
      </trkpt>
      <trkpt lat="45.77647" lon="3.07177">
        <ele>373</ele>
        <time>2020-07-11T12:58:21.000Z</time>
      </trkpt>
      <trkpt lat="45.77647" lon="3.07174">
        <ele>372</ele>
        <time>2020-07-11T12:58:22.000Z</time>
      </trkpt>
      <trkpt lat="45.77647" lon="3.0717">
        <ele>371</ele>
        <time>2020-07-11T12:58:23.000Z</time>
      </trkpt>
      <trkpt lat="45.77647" lon="3.07166">
        <ele>371</ele>
        <time>2020-07-11T12:58:24.000Z</time>
      </trkpt>
      <trkpt lat="45.77646" lon="3.07163">
        <ele>373</ele>
        <time>2020-07-11T12:58:25.000Z</time>
      </trkpt>
      <trkpt lat="45.77645" lon="3.07159">
        <ele>373</ele>
        <time>2020-07-11T12:58:26.000Z</time>
      </trkpt>
      <trkpt lat="45.77643" lon="3.07155">
        <ele>374</ele>
        <time>2020-07-11T12:58:27.000Z</time>
      </trkpt>
      <trkpt lat="45.77642" lon="3.07151">
        <ele>373</ele>
        <time>2020-07-11T12:58:28.000Z</time>
      </trkpt>
      <trkpt lat="45.77641" lon="3.07148">
        <ele>372</ele>
        <time>2020-07-11T12:58:29.000Z</time>
      </trkpt>
      <trkpt lat="45.7764" lon="3.07145">
        <ele>372</ele>
        <time>2020-07-11T12:58:30.000Z</time>
      </trkpt>
      <trkpt lat="45.77639" lon="3.07142">
        <ele>373</ele>
        <time>2020-07-11T12:58:31.000Z</time>
      </trkpt>
      <trkpt lat="45.77637" lon="3.07139">
        <ele>373</ele>
        <time>2020-07-11T12:58:32.000Z</time>
      </trkpt>
      <trkpt lat="45.77636" lon="3.07136">
        <ele>374</ele>
        <time>2020-07-11T12:58:33.000Z</time>
      </trkpt>
      <trkpt lat="45.77635" lon="3.07132">
        <ele>375</ele>
        <time>2020-07-11T12:58:34.000Z</time>
      </trkpt>
      <trkpt lat="45.77634" lon="3.07129">
        <ele>376</ele>
        <time>2020-07-11T12:58:35.000Z</time>
      </trkpt>
      <trkpt lat="45.77633" lon="3.07126">
        <ele>375</ele>
        <time>2020-07-11T12:58:36.000Z</time>
      </trkpt>
      <trkpt lat="45.77632" lon="3.07122">
        <ele>374</ele>
        <time>2020-07-11T12:58:37.000Z</time>
      </trkpt>
      <trkpt lat="45.77632" lon="3.07118">
        <ele>375</ele>
        <time>2020-07-11T12:58:38.000Z</time>
      </trkpt>
      <trkpt lat="45.77631" lon="3.07114">
        <ele>374</ele>
        <time>2020-07-11T12:58:39.000Z</time>
      </trkpt>
      <trkpt lat="45.77631" lon="3.0711">
        <ele>373</ele>
        <time>2020-07-11T12:58:40.000Z</time>
      </trkpt>
      <trkpt lat="45.77632" lon="3.07105">
        <ele>374</ele>
        <time>2020-07-11T12:58:41.000Z</time>
      </trkpt>
      <trkpt lat="45.77632" lon="3.071">
        <ele>376</ele>
        <time>2020-07-11T12:58:42.000Z</time>
      </trkpt>
      <trkpt lat="45.77632" lon="3.07095">
        <ele>376</ele>
        <time>2020-07-11T12:58:43.000Z</time>
      </trkpt>
      <trkpt lat="45.77632" lon="3.07091">
        <ele>376</ele>
        <time>2020-07-11T12:58:44.000Z</time>
      </trkpt>
      <trkpt lat="45.77631" lon="3.07087">
        <ele>375</ele>
        <time>2020-07-11T12:58:45.000Z</time>
      </trkpt>
      <trkpt lat="45.77631" lon="3.07083">
        <ele>376</ele>
        <time>2020-07-11T12:58:46.000Z</time>
      </trkpt>
      <trkpt lat="45.77631" lon="3.07079">
        <ele>377</ele>
        <time>2020-07-11T12:58:47.000Z</time>
      </trkpt>
      <trkpt lat="45.7763" lon="3.07075">
        <ele>376</ele>
        <time>2020-07-11T12:58:48.000Z</time>
      </trkpt>
      <trkpt lat="45.7763" lon="3.07072">
        <ele>377</ele>
        <time>2020-07-11T12:58:49.000Z</time>
      </trkpt>
      <trkpt lat="45.7763" lon="3.07068">
        <ele>377</ele>
        <time>2020-07-11T12:58:50.000Z</time>
      </trkpt>
      <trkpt lat="45.77631" lon="3.07063">
        <ele>378</ele>
        <time>2020-07-11T12:58:51.000Z</time>
      </trkpt>
      <trkpt lat="45.77631" lon="3.07059">
        <ele>378</ele>
        <time>2020-07-11T12:58:52.000Z</time>
      </trkpt>
      <trkpt lat="45.77632" lon="3.07054">
        <ele>377</ele>
        <time>2020-07-11T12:58:53.000Z</time>
      </trkpt>
      <trkpt lat="45.77632" lon="3.0705">
        <ele>377</ele>
        <time>2020-07-11T12:58:54.000Z</time>
      </trkpt>
      <trkpt lat="45.77632" lon="3.07046">
        <ele>378</ele>
        <time>2020-07-11T12:58:55.000Z</time>
      </trkpt>
      <trkpt lat="45.77632" lon="3.07042">
        <ele>378</ele>
        <time>2020-07-11T12:58:56.000Z</time>
      </trkpt>
      <trkpt lat="45.77633" lon="3.07038">
        <ele>377</ele>
        <time>2020-07-11T12:58:57.000Z</time>
      </trkpt>
      <trkpt lat="45.77633" lon="3.07034">
        <ele>376</ele>
        <time>2020-07-11T12:58:58.000Z</time>
      </trkpt>
      <trkpt lat="45.77633" lon="3.0703">
        <ele>376</ele>
        <time>2020-07-11T12:58:59.000Z</time>
      </trkpt>
      <trkpt lat="45.77634" lon="3.07026">
        <ele>376</ele>
        <time>2020-07-11T12:59:00.000Z</time>
      </trkpt>
      <trkpt lat="45.77634" lon="3.07023">
        <ele>375</ele>
        <time>2020-07-11T12:59:01.000Z</time>
      </trkpt>
      <trkpt lat="45.77635" lon="3.07019">
        <ele>375</ele>
        <time>2020-07-11T12:59:02.000Z</time>
      </trkpt>
      <trkpt lat="45.77634" lon="3.07016">
        <ele>375</ele>
        <time>2020-07-11T12:59:03.000Z</time>
      </trkpt>
      <trkpt lat="45.77634" lon="3.07013">
        <ele>376</ele>
        <time>2020-07-11T12:59:04.000Z</time>
      </trkpt>
      <trkpt lat="45.77634" lon="3.07009">
        <ele>376</ele>
        <time>2020-07-11T12:59:05.000Z</time>
      </trkpt>
      <trkpt lat="45.77633" lon="3.07006">
        <ele>375</ele>
        <time>2020-07-11T12:59:06.000Z</time>
      </trkpt>
      <trkpt lat="45.77633" lon="3.07002">
        <ele>374</ele>
        <time>2020-07-11T12:59:07.000Z</time>
      </trkpt>
      <trkpt lat="45.77633" lon="3.06998">
        <ele>375</ele>
        <time>2020-07-11T12:59:08.000Z</time>
      </trkpt>
      <trkpt lat="45.77632" lon="3.06995">
        <ele>375</ele>
        <time>2020-07-11T12:59:09.000Z</time>
      </trkpt>
      <trkpt lat="45.77632" lon="3.06991">
        <ele>375</ele>
        <time>2020-07-11T12:59:10.000Z</time>
      </trkpt>
      <trkpt lat="45.77631" lon="3.06988">
        <ele>376</ele>
        <time>2020-07-11T12:59:11.000Z</time>
      </trkpt>
      <trkpt lat="45.7763" lon="3.06984">
        <ele>376</ele>
        <time>2020-07-11T12:59:12.000Z</time>
      </trkpt>
      <trkpt lat="45.77629" lon="3.06979">
        <ele>376</ele>
        <time>2020-07-11T12:59:13.000Z</time>
      </trkpt>
      <trkpt lat="45.77628" lon="3.06975">
        <ele>377</ele>
        <time>2020-07-11T12:59:14.000Z</time>
      </trkpt>
      <trkpt lat="45.77627" lon="3.06971">
        <ele>377</ele>
        <time>2020-07-11T12:59:15.000Z</time>
      </trkpt>
      <trkpt lat="45.77626" lon="3.06967">
        <ele>378</ele>
        <time>2020-07-11T12:59:16.000Z</time>
      </trkpt>
      <trkpt lat="45.77625" lon="3.06964">
        <ele>377</ele>
        <time>2020-07-11T12:59:17.000Z</time>
      </trkpt>
      <trkpt lat="45.77624" lon="3.0696">
        <ele>377</ele>
        <time>2020-07-11T12:59:18.000Z</time>
      </trkpt>
      <trkpt lat="45.77624" lon="3.06955">
        <ele>376</ele>
        <time>2020-07-11T12:59:19.000Z</time>
      </trkpt>
      <trkpt lat="45.77624" lon="3.0695">
        <ele>375</ele>
        <time>2020-07-11T12:59:20.000Z</time>
      </trkpt>
      <trkpt lat="45.77624" lon="3.06946">
        <ele>375</ele>
        <time>2020-07-11T12:59:21.000Z</time>
      </trkpt>
      <trkpt lat="45.77624" lon="3.06941">
        <ele>375</ele>
        <time>2020-07-11T12:59:22.000Z</time>
      </trkpt>
      <trkpt lat="45.77623" lon="3.06937">
        <ele>375</ele>
        <time>2020-07-11T12:59:23.000Z</time>
      </trkpt>
      <trkpt lat="45.77622" lon="3.06932">
        <ele>375</ele>
        <time>2020-07-11T12:59:24.000Z</time>
      </trkpt>
      <trkpt lat="45.77621" lon="3.06927">
        <ele>376</ele>
        <time>2020-07-11T12:59:25.000Z</time>
      </trkpt>
      <trkpt lat="45.7762" lon="3.06923">
        <ele>377</ele>
        <time>2020-07-11T12:59:26.000Z</time>
      </trkpt>
      <trkpt lat="45.7762" lon="3.06919">
        <ele>377</ele>
        <time>2020-07-11T12:59:27.000Z</time>
      </trkpt>
      <trkpt lat="45.77619" lon="3.06915">
        <ele>377</ele>
        <time>2020-07-11T12:59:28.000Z</time>
      </trkpt>
      <trkpt lat="45.77619" lon="3.06911">
        <ele>377</ele>
        <time>2020-07-11T12:59:29.000Z</time>
      </trkpt>
      <trkpt lat="45.77619" lon="3.06907">
        <ele>378</ele>
        <time>2020-07-11T12:59:30.000Z</time>
      </trkpt>
      <trkpt lat="45.77618" lon="3.06903">
        <ele>378</ele>
        <time>2020-07-11T12:59:31.000Z</time>
      </trkpt>
      <trkpt lat="45.77618" lon="3.06899">
        <ele>377</ele>
        <time>2020-07-11T12:59:32.000Z</time>
      </trkpt>
      <trkpt lat="45.77617" lon="3.06896">
        <ele>377</ele>
        <time>2020-07-11T12:59:33.000Z</time>
      </trkpt>
      <trkpt lat="45.77616" lon="3.06892">
        <ele>378</ele>
        <time>2020-07-11T12:59:34.000Z</time>
      </trkpt>
      <trkpt lat="45.77616" lon="3.06889">
        <ele>378</ele>
        <time>2020-07-11T12:59:35.000Z</time>
      </trkpt>
      <trkpt lat="45.77616" lon="3.06886">
        <ele>378</ele>
        <time>2020-07-11T12:59:36.000Z</time>
      </trkpt>
      <trkpt lat="45.77617" lon="3.06882">
        <ele>379</ele>
        <time>2020-07-11T12:59:37.000Z</time>
      </trkpt>
      <trkpt lat="45.77616" lon="3.06879">
        <ele>379</ele>
        <time>2020-07-11T12:59:38.000Z</time>
      </trkpt>
      <trkpt lat="45.77616" lon="3.06876">
        <ele>379</ele>
        <time>2020-07-11T12:59:39.000Z</time>
      </trkpt>
      <trkpt lat="45.77614" lon="3.06872">
        <ele>379</ele>
        <time>2020-07-11T12:59:40.000Z</time>
      </trkpt>
      <trkpt lat="45.77613" lon="3.06869">
        <ele>379</ele>
        <time>2020-07-11T12:59:41.000Z</time>
      </trkpt>
      <trkpt lat="45.77612" lon="3.06866">
        <ele>379</ele>
        <time>2020-07-11T12:59:42.000Z</time>
      </trkpt>
      <trkpt lat="45.77612" lon="3.06862">
        <ele>380</ele>
        <time>2020-07-11T12:59:43.000Z</time>
      </trkpt>
      <trkpt lat="45.77612" lon="3.06858">
        <ele>379</ele>
        <time>2020-07-11T12:59:44.000Z</time>
      </trkpt>
      <trkpt lat="45.77612" lon="3.06854">
        <ele>379</ele>
        <time>2020-07-11T12:59:45.000Z</time>
      </trkpt>
      <trkpt lat="45.77612" lon="3.06851">
        <ele>378</ele>
        <time>2020-07-11T12:59:46.000Z</time>
      </trkpt>
      <trkpt lat="45.77611" lon="3.06847">
        <ele>378</ele>
        <time>2020-07-11T12:59:47.000Z</time>
      </trkpt>
      <trkpt lat="45.77611" lon="3.06843">
        <ele>378</ele>
        <time>2020-07-11T12:59:48.000Z</time>
      </trkpt>
      <trkpt lat="45.7761" lon="3.06839">
        <ele>377</ele>
        <time>2020-07-11T12:59:49.000Z</time>
      </trkpt>
      <trkpt lat="45.77609" lon="3.06836">
        <ele>377</ele>
        <time>2020-07-11T12:59:50.000Z</time>
      </trkpt>
      <trkpt lat="45.77609" lon="3.06832">
        <ele>377</ele>
        <time>2020-07-11T12:59:51.000Z</time>
      </trkpt>
      <trkpt lat="45.77608" lon="3.06829">
        <ele>377</ele>
        <time>2020-07-11T12:59:52.000Z</time>
      </trkpt>
      <trkpt lat="45.77608" lon="3.06825">
        <ele>377</ele>
        <time>2020-07-11T12:59:53.000Z</time>
      </trkpt>
      <trkpt lat="45.77609" lon="3.06822">
        <ele>376</ele>
        <time>2020-07-11T12:59:54.000Z</time>
      </trkpt>
      <trkpt lat="45.77609" lon="3.06818">
        <ele>376</ele>
        <time>2020-07-11T12:59:55.000Z</time>
      </trkpt>
      <trkpt lat="45.77608" lon="3.06815">
        <ele>376</ele>
        <time>2020-07-11T12:59:56.000Z</time>
      </trkpt>
      <trkpt lat="45.77607" lon="3.06811">
        <ele>376</ele>
        <time>2020-07-11T12:59:57.000Z</time>
      </trkpt>
      <trkpt lat="45.77605" lon="3.06808">
        <ele>376</ele>
        <time>2020-07-11T12:59:58.000Z</time>
      </trkpt>
      <trkpt lat="45.77604" lon="3.06804">
        <ele>377</ele>
        <time>2020-07-11T12:59:59.000Z</time>
      </trkpt>
      <trkpt lat="45.77603" lon="3.068">
        <ele>377</ele>
        <time>2020-07-11T13:00:00.000Z</time>
      </trkpt>
      <trkpt lat="45.77602" lon="3.06797">
        <ele>377</ele>
        <time>2020-07-11T13:00:01.000Z</time>
      </trkpt>
      <trkpt lat="45.776" lon="3.06793">
        <ele>377</ele>
        <time>2020-07-11T13:00:02.000Z</time>
      </trkpt>
      <trkpt lat="45.776" lon="3.06789">
        <ele>377</ele>
        <time>2020-07-11T13:00:03.000Z</time>
      </trkpt>
      <trkpt lat="45.776" lon="3.06785">
        <ele>376</ele>
        <time>2020-07-11T13:00:04.000Z</time>
      </trkpt>
      <trkpt lat="45.776" lon="3.06781">
        <ele>375</ele>
        <time>2020-07-11T13:00:05.000Z</time>
      </trkpt>
      <trkpt lat="45.77601" lon="3.06777">
        <ele>376</ele>
        <time>2020-07-11T13:00:06.000Z</time>
      </trkpt>
      <trkpt lat="45.77601" lon="3.06773">
        <ele>376</ele>
        <time>2020-07-11T13:00:07.000Z</time>
      </trkpt>
      <trkpt lat="45.776" lon="3.06769">
        <ele>376</ele>
        <time>2020-07-11T13:00:08.000Z</time>
      </trkpt>
      <trkpt lat="45.776" lon="3.06764">
        <ele>376</ele>
        <time>2020-07-11T13:00:09.000Z</time>
      </trkpt>
      <trkpt lat="45.77599" lon="3.0676">
        <ele>376</ele>
        <time>2020-07-11T13:00:10.000Z</time>
      </trkpt>
      <trkpt lat="45.77599" lon="3.06755">
        <ele>376</ele>
        <time>2020-07-11T13:00:11.000Z</time>
      </trkpt>
      <trkpt lat="45.77599" lon="3.0675">
        <ele>378</ele>
        <time>2020-07-11T13:00:12.000Z</time>
      </trkpt>
      <trkpt lat="45.776" lon="3.06746">
        <ele>379</ele>
        <time>2020-07-11T13:00:13.000Z</time>
      </trkpt>
      <trkpt lat="45.77601" lon="3.0674">
        <ele>380</ele>
        <time>2020-07-11T13:00:14.000Z</time>
      </trkpt>
      <trkpt lat="45.77602" lon="3.06736">
        <ele>380</ele>
        <time>2020-07-11T13:00:15.000Z</time>
      </trkpt>
      <trkpt lat="45.77603" lon="3.06731">
        <ele>381</ele>
        <time>2020-07-11T13:00:16.000Z</time>
      </trkpt>
      <trkpt lat="45.77604" lon="3.06727">
        <ele>382</ele>
        <time>2020-07-11T13:00:17.000Z</time>
      </trkpt>
      <trkpt lat="45.77604" lon="3.06724">
        <ele>382</ele>
        <time>2020-07-11T13:00:18.000Z</time>
      </trkpt>
      <trkpt lat="45.77603" lon="3.0672">
        <ele>383</ele>
        <time>2020-07-11T13:00:19.000Z</time>
      </trkpt>
      <trkpt lat="45.77603" lon="3.06717">
        <ele>383</ele>
        <time>2020-07-11T13:00:20.000Z</time>
      </trkpt>
      <trkpt lat="45.77603" lon="3.06713">
        <ele>384</ele>
        <time>2020-07-11T13:00:21.000Z</time>
      </trkpt>
      <trkpt lat="45.77603" lon="3.06709">
        <ele>384</ele>
        <time>2020-07-11T13:00:22.000Z</time>
      </trkpt>
      <trkpt lat="45.77604" lon="3.06705">
        <ele>384</ele>
        <time>2020-07-11T13:00:23.000Z</time>
      </trkpt>
      <trkpt lat="45.77605" lon="3.06701">
        <ele>385</ele>
        <time>2020-07-11T13:00:24.000Z</time>
      </trkpt>
      <trkpt lat="45.77605" lon="3.06698">
        <ele>385</ele>
        <time>2020-07-11T13:00:25.000Z</time>
      </trkpt>
      <trkpt lat="45.77605" lon="3.06695">
        <ele>385</ele>
        <time>2020-07-11T13:00:26.000Z</time>
      </trkpt>
      <trkpt lat="45.77605" lon="3.06692">
        <ele>385</ele>
        <time>2020-07-11T13:00:27.000Z</time>
      </trkpt>
      <trkpt lat="45.77605" lon="3.0669">
        <ele>385</ele>
        <time>2020-07-11T13:00:28.000Z</time>
      </trkpt>
      <trkpt lat="45.77605" lon="3.06687">
        <ele>385</ele>
        <time>2020-07-11T13:00:29.000Z</time>
      </trkpt>
      <trkpt lat="45.77604" lon="3.06683">
        <ele>385</ele>
        <time>2020-07-11T13:00:30.000Z</time>
      </trkpt>
      <trkpt lat="45.77603" lon="3.06679">
        <ele>385</ele>
        <time>2020-07-11T13:00:31.000Z</time>
      </trkpt>
      <trkpt lat="45.77601" lon="3.06676">
        <ele>385</ele>
        <time>2020-07-11T13:00:32.000Z</time>
      </trkpt>
      <trkpt lat="45.77599" lon="3.06673">
        <ele>386</ele>
        <time>2020-07-11T13:00:33.000Z</time>
      </trkpt>
      <trkpt lat="45.77598" lon="3.0667">
        <ele>386</ele>
        <time>2020-07-11T13:00:34.000Z</time>
      </trkpt>
      <trkpt lat="45.77596" lon="3.06666">
        <ele>386</ele>
        <time>2020-07-11T13:00:35.000Z</time>
      </trkpt>
      <trkpt lat="45.77595" lon="3.06662">
        <ele>387</ele>
        <time>2020-07-11T13:00:36.000Z</time>
      </trkpt>
      <trkpt lat="45.77592" lon="3.06658">
        <ele>387</ele>
        <time>2020-07-11T13:00:37.000Z</time>
      </trkpt>
      <trkpt lat="45.7759" lon="3.06655">
        <ele>386</ele>
        <time>2020-07-11T13:00:38.000Z</time>
      </trkpt>
      <trkpt lat="45.77587" lon="3.06653">
        <ele>386</ele>
        <time>2020-07-11T13:00:39.000Z</time>
      </trkpt>
      <trkpt lat="45.77584" lon="3.0665">
        <ele>387</ele>
        <time>2020-07-11T13:00:40.000Z</time>
      </trkpt>
      <trkpt lat="45.77582" lon="3.06647">
        <ele>387</ele>
        <time>2020-07-11T13:00:41.000Z</time>
      </trkpt>
      <trkpt lat="45.7758" lon="3.06644">
        <ele>388</ele>
        <time>2020-07-11T13:00:42.000Z</time>
      </trkpt>
      <trkpt lat="45.77578" lon="3.06642">
        <ele>388</ele>
        <time>2020-07-11T13:00:43.000Z</time>
      </trkpt>
      <trkpt lat="45.77576" lon="3.06639">
        <ele>388</ele>
        <time>2020-07-11T13:00:44.000Z</time>
      </trkpt>
      <trkpt lat="45.77575" lon="3.06637">
        <ele>387</ele>
        <time>2020-07-11T13:00:45.000Z</time>
      </trkpt>
      <trkpt lat="45.77574" lon="3.06635">
        <ele>387</ele>
        <time>2020-07-11T13:00:46.000Z</time>
      </trkpt>
      <trkpt lat="45.77572" lon="3.06633">
        <ele>388</ele>
        <time>2020-07-11T13:00:47.000Z</time>
      </trkpt>
      <trkpt lat="45.7757" lon="3.06631">
        <ele>388</ele>
        <time>2020-07-11T13:00:48.000Z</time>
      </trkpt>
      <trkpt lat="45.77569" lon="3.06628">
        <ele>389</ele>
        <time>2020-07-11T13:00:49.000Z</time>
      </trkpt>
      <trkpt lat="45.77568" lon="3.06625">
        <ele>389</ele>
        <time>2020-07-11T13:00:50.000Z</time>
      </trkpt>
      <trkpt lat="45.77567" lon="3.06621">
        <ele>389</ele>
        <time>2020-07-11T13:00:51.000Z</time>
      </trkpt>
      <trkpt lat="45.77566" lon="3.06618">
        <ele>389</ele>
        <time>2020-07-11T13:00:52.000Z</time>
      </trkpt>
      <trkpt lat="45.77565" lon="3.06614">
        <ele>390</ele>
        <time>2020-07-11T13:00:53.000Z</time>
      </trkpt>
      <trkpt lat="45.77564" lon="3.06611">
        <ele>390</ele>
        <time>2020-07-11T13:00:54.000Z</time>
      </trkpt>
      <trkpt lat="45.77564" lon="3.06608">
        <ele>391</ele>
        <time>2020-07-11T13:00:55.000Z</time>
      </trkpt>
      <trkpt lat="45.77564" lon="3.06604">
        <ele>392</ele>
        <time>2020-07-11T13:00:56.000Z</time>
      </trkpt>
      <trkpt lat="45.77564" lon="3.06601">
        <ele>393</ele>
        <time>2020-07-11T13:00:57.000Z</time>
      </trkpt>
      <trkpt lat="45.77563" lon="3.06597">
        <ele>394</ele>
        <time>2020-07-11T13:00:58.000Z</time>
      </trkpt>
      <trkpt lat="45.77561" lon="3.06593">
        <ele>395</ele>
        <time>2020-07-11T13:00:59.000Z</time>
      </trkpt>
      <trkpt lat="45.77558" lon="3.0659">
        <ele>395</ele>
        <time>2020-07-11T13:01:00.000Z</time>
      </trkpt>
      <trkpt lat="45.77556" lon="3.06587">
        <ele>396</ele>
        <time>2020-07-11T13:01:01.000Z</time>
      </trkpt>
      <trkpt lat="45.77553" lon="3.06584">
        <ele>396</ele>
        <time>2020-07-11T13:01:02.000Z</time>
      </trkpt>
      <trkpt lat="45.77551" lon="3.06581">
        <ele>397</ele>
        <time>2020-07-11T13:01:03.000Z</time>
      </trkpt>
      <trkpt lat="45.77549" lon="3.06578">
        <ele>397</ele>
        <time>2020-07-11T13:01:04.000Z</time>
      </trkpt>
      <trkpt lat="45.77546" lon="3.06575">
        <ele>397</ele>
        <time>2020-07-11T13:01:05.000Z</time>
      </trkpt>
      <trkpt lat="45.77544" lon="3.06571">
        <ele>398</ele>
        <time>2020-07-11T13:01:06.000Z</time>
      </trkpt>
      <trkpt lat="45.77542" lon="3.06567">
        <ele>397</ele>
        <time>2020-07-11T13:01:07.000Z</time>
      </trkpt>
      <trkpt lat="45.77541" lon="3.06563">
        <ele>396</ele>
        <time>2020-07-11T13:01:08.000Z</time>
      </trkpt>
      <trkpt lat="45.7754" lon="3.06558">
        <ele>396</ele>
        <time>2020-07-11T13:01:09.000Z</time>
      </trkpt>
      <trkpt lat="45.7754" lon="3.06553">
        <ele>394</ele>
        <time>2020-07-11T13:01:10.000Z</time>
      </trkpt>
      <trkpt lat="45.77541" lon="3.06546">
        <ele>393</ele>
        <time>2020-07-11T13:01:11.000Z</time>
      </trkpt>
      <trkpt lat="45.77542" lon="3.06539">
        <ele>392</ele>
        <time>2020-07-11T13:01:12.000Z</time>
      </trkpt>
      <trkpt lat="45.77543" lon="3.06533">
        <ele>392</ele>
        <time>2020-07-11T13:01:13.000Z</time>
      </trkpt>
      <trkpt lat="45.77544" lon="3.06527">
        <ele>393</ele>
        <time>2020-07-11T13:01:14.000Z</time>
      </trkpt>
      <trkpt lat="45.77543" lon="3.06523">
        <ele>394</ele>
        <time>2020-07-11T13:01:15.000Z</time>
      </trkpt>
      <trkpt lat="45.77541" lon="3.06518">
        <ele>395</ele>
        <time>2020-07-11T13:01:16.000Z</time>
      </trkpt>
      <trkpt lat="45.7754" lon="3.06513">
        <ele>396</ele>
        <time>2020-07-11T13:01:17.000Z</time>
      </trkpt>
      <trkpt lat="45.77539" lon="3.0651">
        <ele>396</ele>
        <time>2020-07-11T13:01:18.000Z</time>
      </trkpt>
      <trkpt lat="45.77537" lon="3.06506">
        <ele>398</ele>
        <time>2020-07-11T13:01:19.000Z</time>
      </trkpt>
      <trkpt lat="45.77535" lon="3.06502">
        <ele>398</ele>
        <time>2020-07-11T13:01:20.000Z</time>
      </trkpt>
      <trkpt lat="45.77533" lon="3.06499">
        <ele>398</ele>
        <time>2020-07-11T13:01:21.000Z</time>
      </trkpt>
      <trkpt lat="45.77531" lon="3.06496">
        <ele>399</ele>
        <time>2020-07-11T13:01:22.000Z</time>
      </trkpt>
      <trkpt lat="45.77529" lon="3.06493">
        <ele>399</ele>
        <time>2020-07-11T13:01:23.000Z</time>
      </trkpt>
      <trkpt lat="45.77527" lon="3.0649">
        <ele>400</ele>
        <time>2020-07-11T13:01:24.000Z</time>
      </trkpt>
      <trkpt lat="45.77524" lon="3.06487">
        <ele>400</ele>
        <time>2020-07-11T13:01:25.000Z</time>
      </trkpt>
      <trkpt lat="45.77522" lon="3.06485">
        <ele>400</ele>
        <time>2020-07-11T13:01:26.000Z</time>
      </trkpt>
      <trkpt lat="45.77519" lon="3.06484">
        <ele>402</ele>
        <time>2020-07-11T13:01:27.000Z</time>
      </trkpt>
      <trkpt lat="45.77517" lon="3.06481">
        <ele>402</ele>
        <time>2020-07-11T13:01:28.000Z</time>
      </trkpt>
      <trkpt lat="45.77514" lon="3.06479">
        <ele>402</ele>
        <time>2020-07-11T13:01:29.000Z</time>
      </trkpt>
      <trkpt lat="45.77513" lon="3.06476">
        <ele>403</ele>
        <time>2020-07-11T13:01:30.000Z</time>
      </trkpt>
      <trkpt lat="45.77511" lon="3.06473">
        <ele>403</ele>
        <time>2020-07-11T13:01:31.000Z</time>
      </trkpt>
      <trkpt lat="45.7751" lon="3.06471">
        <ele>404</ele>
        <time>2020-07-11T13:01:32.000Z</time>
      </trkpt>
      <trkpt lat="45.77508" lon="3.06468">
        <ele>404</ele>
        <time>2020-07-11T13:01:33.000Z</time>
      </trkpt>
      <trkpt lat="45.77507" lon="3.06466">
        <ele>404</ele>
        <time>2020-07-11T13:01:34.000Z</time>
      </trkpt>
      <trkpt lat="45.77505" lon="3.06462">
        <ele>405</ele>
        <time>2020-07-11T13:01:35.000Z</time>
      </trkpt>
      <trkpt lat="45.77504" lon="3.06458">
        <ele>405</ele>
        <time>2020-07-11T13:01:36.000Z</time>
      </trkpt>
      <trkpt lat="45.77503" lon="3.06454">
        <ele>404</ele>
        <time>2020-07-11T13:01:37.000Z</time>
      </trkpt>
      <trkpt lat="45.77502" lon="3.0645">
        <ele>405</ele>
        <time>2020-07-11T13:01:38.000Z</time>
      </trkpt>
      <trkpt lat="45.77501" lon="3.06445">
        <ele>404</ele>
        <time>2020-07-11T13:01:39.000Z</time>
      </trkpt>
      <trkpt lat="45.77501" lon="3.0644">
        <ele>403</ele>
        <time>2020-07-11T13:01:40.000Z</time>
      </trkpt>
      <trkpt lat="45.77501" lon="3.06435">
        <ele>402</ele>
        <time>2020-07-11T13:01:41.000Z</time>
      </trkpt>
      <trkpt lat="45.775" lon="3.0643">
        <ele>402</ele>
        <time>2020-07-11T13:01:42.000Z</time>
      </trkpt>
      <trkpt lat="45.77499" lon="3.06425">
        <ele>401</ele>
        <time>2020-07-11T13:01:43.000Z</time>
      </trkpt>
      <trkpt lat="45.77497" lon="3.0642">
        <ele>401</ele>
        <time>2020-07-11T13:01:44.000Z</time>
      </trkpt>
      <trkpt lat="45.77496" lon="3.06415">
        <ele>401</ele>
        <time>2020-07-11T13:01:45.000Z</time>
      </trkpt>
      <trkpt lat="45.77494" lon="3.0641">
        <ele>401</ele>
        <time>2020-07-11T13:01:46.000Z</time>
      </trkpt>
      <trkpt lat="45.77493" lon="3.06406">
        <ele>400</ele>
        <time>2020-07-11T13:01:47.000Z</time>
      </trkpt>
      <trkpt lat="45.77491" lon="3.06401">
        <ele>400</ele>
        <time>2020-07-11T13:01:48.000Z</time>
      </trkpt>
      <trkpt lat="45.7749" lon="3.06397">
        <ele>400</ele>
        <time>2020-07-11T13:01:49.000Z</time>
      </trkpt>
      <trkpt lat="45.77489" lon="3.06393">
        <ele>401</ele>
        <time>2020-07-11T13:01:50.000Z</time>
      </trkpt>
      <trkpt lat="45.77488" lon="3.06388">
        <ele>400</ele>
        <time>2020-07-11T13:01:51.000Z</time>
      </trkpt>
      <trkpt lat="45.77487" lon="3.06384">
        <ele>400</ele>
        <time>2020-07-11T13:01:52.000Z</time>
      </trkpt>
      <trkpt lat="45.77487" lon="3.0638">
        <ele>399</ele>
        <time>2020-07-11T13:01:53.000Z</time>
      </trkpt>
      <trkpt lat="45.77487" lon="3.06376">
        <ele>399</ele>
        <time>2020-07-11T13:01:54.000Z</time>
      </trkpt>
      <trkpt lat="45.77487" lon="3.06372">
        <ele>400</ele>
        <time>2020-07-11T13:01:55.000Z</time>
      </trkpt>
      <trkpt lat="45.77487" lon="3.06368">
        <ele>400</ele>
        <time>2020-07-11T13:01:56.000Z</time>
      </trkpt>
      <trkpt lat="45.77486" lon="3.06364">
        <ele>401</ele>
        <time>2020-07-11T13:01:57.000Z</time>
      </trkpt>
      <trkpt lat="45.77484" lon="3.0636">
        <ele>402</ele>
        <time>2020-07-11T13:01:58.000Z</time>
      </trkpt>
      <trkpt lat="45.77482" lon="3.06355">
        <ele>402</ele>
        <time>2020-07-11T13:01:59.000Z</time>
      </trkpt>
      <trkpt lat="45.77481" lon="3.06351">
        <ele>401</ele>
        <time>2020-07-11T13:02:00.000Z</time>
      </trkpt>
      <trkpt lat="45.7748" lon="3.06348">
        <ele>402</ele>
        <time>2020-07-11T13:02:01.000Z</time>
      </trkpt>
      <trkpt lat="45.77478" lon="3.06344">
        <ele>402</ele>
        <time>2020-07-11T13:02:02.000Z</time>
      </trkpt>
      <trkpt lat="45.77476" lon="3.06341">
        <ele>402</ele>
        <time>2020-07-11T13:02:03.000Z</time>
      </trkpt>
      <trkpt lat="45.77475" lon="3.06337">
        <ele>402</ele>
        <time>2020-07-11T13:02:04.000Z</time>
      </trkpt>
      <trkpt lat="45.77473" lon="3.06334">
        <ele>403</ele>
        <time>2020-07-11T13:02:05.000Z</time>
      </trkpt>
      <trkpt lat="45.77471" lon="3.06331">
        <ele>403</ele>
        <time>2020-07-11T13:02:06.000Z</time>
      </trkpt>
      <trkpt lat="45.77469" lon="3.06328">
        <ele>403</ele>
        <time>2020-07-11T13:02:07.000Z</time>
      </trkpt>
      <trkpt lat="45.77467" lon="3.06325">
        <ele>403</ele>
        <time>2020-07-11T13:02:08.000Z</time>
      </trkpt>
      <trkpt lat="45.77466" lon="3.06322">
        <ele>403</ele>
        <time>2020-07-11T13:02:09.000Z</time>
      </trkpt>
      <trkpt lat="45.77464" lon="3.06319">
        <ele>403</ele>
        <time>2020-07-11T13:02:10.000Z</time>
      </trkpt>
      <trkpt lat="45.77462" lon="3.06316">
        <ele>403</ele>
        <time>2020-07-11T13:02:11.000Z</time>
      </trkpt>
      <trkpt lat="45.7746" lon="3.06313">
        <ele>403</ele>
        <time>2020-07-11T13:02:12.000Z</time>
      </trkpt>
      <trkpt lat="45.77459" lon="3.0631">
        <ele>403</ele>
        <time>2020-07-11T13:02:13.000Z</time>
      </trkpt>
      <trkpt lat="45.77458" lon="3.06306">
        <ele>404</ele>
        <time>2020-07-11T13:02:14.000Z</time>
      </trkpt>
      <trkpt lat="45.77458" lon="3.06303">
        <ele>404</ele>
        <time>2020-07-11T13:02:15.000Z</time>
      </trkpt>
      <trkpt lat="45.77456" lon="3.063">
        <ele>404</ele>
        <time>2020-07-11T13:02:16.000Z</time>
      </trkpt>
      <trkpt lat="45.77455" lon="3.06298">
        <ele>404</ele>
        <time>2020-07-11T13:02:17.000Z</time>
      </trkpt>
      <trkpt lat="45.77452" lon="3.06296">
        <ele>405</ele>
        <time>2020-07-11T13:02:18.000Z</time>
      </trkpt>
      <trkpt lat="45.7745" lon="3.06294">
        <ele>405</ele>
        <time>2020-07-11T13:02:19.000Z</time>
      </trkpt>
      <trkpt lat="45.77448" lon="3.06292">
        <ele>405</ele>
        <time>2020-07-11T13:02:20.000Z</time>
      </trkpt>
      <trkpt lat="45.77446" lon="3.0629">
        <ele>406</ele>
        <time>2020-07-11T13:02:21.000Z</time>
      </trkpt>
      <trkpt lat="45.77443" lon="3.06288">
        <ele>406</ele>
        <time>2020-07-11T13:02:22.000Z</time>
      </trkpt>
      <trkpt lat="45.77441" lon="3.06286">
        <ele>407</ele>
        <time>2020-07-11T13:02:23.000Z</time>
      </trkpt>
      <trkpt lat="45.7744" lon="3.06284">
        <ele>407</ele>
        <time>2020-07-11T13:02:24.000Z</time>
      </trkpt>
      <trkpt lat="45.77438" lon="3.06282">
        <ele>407</ele>
        <time>2020-07-11T13:02:25.000Z</time>
      </trkpt>
      <trkpt lat="45.77436" lon="3.06279">
        <ele>407</ele>
        <time>2020-07-11T13:02:26.000Z</time>
      </trkpt>
      <trkpt lat="45.77435" lon="3.06277">
        <ele>407</ele>
        <time>2020-07-11T13:02:27.000Z</time>
      </trkpt>
      <trkpt lat="45.77433" lon="3.06274">
        <ele>408</ele>
        <time>2020-07-11T13:02:28.000Z</time>
      </trkpt>
      <trkpt lat="45.77431" lon="3.06272">
        <ele>408</ele>
        <time>2020-07-11T13:02:29.000Z</time>
      </trkpt>
      <trkpt lat="45.7743" lon="3.06269">
        <ele>409</ele>
        <time>2020-07-11T13:02:30.000Z</time>
      </trkpt>
      <trkpt lat="45.77428" lon="3.06266">
        <ele>409</ele>
        <time>2020-07-11T13:02:31.000Z</time>
      </trkpt>
      <trkpt lat="45.77427" lon="3.06262">
        <ele>408</ele>
        <time>2020-07-11T13:02:32.000Z</time>
      </trkpt>
      <trkpt lat="45.77425" lon="3.06258">
        <ele>408</ele>
        <time>2020-07-11T13:02:33.000Z</time>
      </trkpt>
      <trkpt lat="45.77424" lon="3.06254">
        <ele>408</ele>
        <time>2020-07-11T13:02:34.000Z</time>
      </trkpt>
      <trkpt lat="45.77422" lon="3.0625">
        <ele>409</ele>
        <time>2020-07-11T13:02:35.000Z</time>
      </trkpt>
      <trkpt lat="45.7742" lon="3.06247">
        <ele>409</ele>
        <time>2020-07-11T13:02:36.000Z</time>
      </trkpt>
      <trkpt lat="45.77418" lon="3.06243">
        <ele>409</ele>
        <time>2020-07-11T13:02:37.000Z</time>
      </trkpt>
      <trkpt lat="45.77417" lon="3.0624">
        <ele>409</ele>
        <time>2020-07-11T13:02:38.000Z</time>
      </trkpt>
      <trkpt lat="45.77416" lon="3.06236">
        <ele>408</ele>
        <time>2020-07-11T13:02:39.000Z</time>
      </trkpt>
      <trkpt lat="45.77415" lon="3.06232">
        <ele>408</ele>
        <time>2020-07-11T13:02:40.000Z</time>
      </trkpt>
      <trkpt lat="45.77414" lon="3.06228">
        <ele>408</ele>
        <time>2020-07-11T13:02:41.000Z</time>
      </trkpt>
      <trkpt lat="45.77413" lon="3.06224">
        <ele>408</ele>
        <time>2020-07-11T13:02:42.000Z</time>
      </trkpt>
      <trkpt lat="45.77411" lon="3.06221">
        <ele>408</ele>
        <time>2020-07-11T13:02:43.000Z</time>
      </trkpt>
      <trkpt lat="45.7741" lon="3.06218">
        <ele>409</ele>
        <time>2020-07-11T13:02:44.000Z</time>
      </trkpt>
      <trkpt lat="45.77408" lon="3.06214">
        <ele>411</ele>
        <time>2020-07-11T13:02:45.000Z</time>
      </trkpt>
      <trkpt lat="45.77407" lon="3.06211">
        <ele>411</ele>
        <time>2020-07-11T13:02:46.000Z</time>
      </trkpt>
      <trkpt lat="45.77406" lon="3.06208">
        <ele>411</ele>
        <time>2020-07-11T13:02:47.000Z</time>
      </trkpt>
      <trkpt lat="45.77405" lon="3.06205">
        <ele>411</ele>
        <time>2020-07-11T13:02:48.000Z</time>
      </trkpt>
      <trkpt lat="45.77404" lon="3.06201">
        <ele>412</ele>
        <time>2020-07-11T13:02:49.000Z</time>
      </trkpt>
      <trkpt lat="45.77402" lon="3.06198">
        <ele>412</ele>
        <time>2020-07-11T13:02:50.000Z</time>
      </trkpt>
      <trkpt lat="45.77401" lon="3.06195">
        <ele>412</ele>
        <time>2020-07-11T13:02:51.000Z</time>
      </trkpt>
      <trkpt lat="45.77399" lon="3.06191">
        <ele>411</ele>
        <time>2020-07-11T13:02:52.000Z</time>
      </trkpt>
      <trkpt lat="45.77398" lon="3.06188">
        <ele>411</ele>
        <time>2020-07-11T13:02:53.000Z</time>
      </trkpt>
      <trkpt lat="45.77396" lon="3.06185">
        <ele>412</ele>
        <time>2020-07-11T13:02:54.000Z</time>
      </trkpt>
      <trkpt lat="45.77394" lon="3.06183">
        <ele>412</ele>
        <time>2020-07-11T13:02:55.000Z</time>
      </trkpt>
      <trkpt lat="45.77391" lon="3.0618">
        <ele>413</ele>
        <time>2020-07-11T13:02:56.000Z</time>
      </trkpt>
      <trkpt lat="45.77389" lon="3.06177">
        <ele>413</ele>
        <time>2020-07-11T13:02:57.000Z</time>
      </trkpt>
      <trkpt lat="45.77387" lon="3.06175">
        <ele>413</ele>
        <time>2020-07-11T13:02:58.000Z</time>
      </trkpt>
      <trkpt lat="45.77386" lon="3.06172">
        <ele>413</ele>
        <time>2020-07-11T13:02:59.000Z</time>
      </trkpt>
      <trkpt lat="45.77384" lon="3.0617">
        <ele>413</ele>
        <time>2020-07-11T13:03:00.000Z</time>
      </trkpt>
      <trkpt lat="45.77381" lon="3.06166">
        <ele>412</ele>
        <time>2020-07-11T13:03:01.000Z</time>
      </trkpt>
      <trkpt lat="45.77379" lon="3.06163">
        <ele>411</ele>
        <time>2020-07-11T13:03:02.000Z</time>
      </trkpt>
      <trkpt lat="45.77377" lon="3.0616">
        <ele>412</ele>
        <time>2020-07-11T13:03:03.000Z</time>
      </trkpt>
      <trkpt lat="45.77375" lon="3.06157">
        <ele>412</ele>
        <time>2020-07-11T13:03:04.000Z</time>
      </trkpt>
      <trkpt lat="45.77372" lon="3.06155">
        <ele>412</ele>
        <time>2020-07-11T13:03:05.000Z</time>
      </trkpt>
      <trkpt lat="45.7737" lon="3.06152">
        <ele>412</ele>
        <time>2020-07-11T13:03:06.000Z</time>
      </trkpt>
      <trkpt lat="45.77369" lon="3.06149">
        <ele>410</ele>
        <time>2020-07-11T13:03:07.000Z</time>
      </trkpt>
      <trkpt lat="45.77368" lon="3.06145">
        <ele>410</ele>
        <time>2020-07-11T13:03:08.000Z</time>
      </trkpt>
      <trkpt lat="45.77367" lon="3.06142">
        <ele>409</ele>
        <time>2020-07-11T13:03:09.000Z</time>
      </trkpt>
      <trkpt lat="45.77366" lon="3.06139">
        <ele>410</ele>
        <time>2020-07-11T13:03:10.000Z</time>
      </trkpt>
      <trkpt lat="45.77364" lon="3.06136">
        <ele>410</ele>
        <time>2020-07-11T13:03:11.000Z</time>
      </trkpt>
      <trkpt lat="45.77363" lon="3.06133">
        <ele>410</ele>
        <time>2020-07-11T13:03:12.000Z</time>
      </trkpt>
      <trkpt lat="45.77361" lon="3.0613">
        <ele>411</ele>
        <time>2020-07-11T13:03:13.000Z</time>
      </trkpt>
      <trkpt lat="45.77359" lon="3.06127">
        <ele>410</ele>
        <time>2020-07-11T13:03:14.000Z</time>
      </trkpt>
      <trkpt lat="45.77357" lon="3.06124">
        <ele>411</ele>
        <time>2020-07-11T13:03:15.000Z</time>
      </trkpt>
      <trkpt lat="45.77356" lon="3.06122">
        <ele>412</ele>
        <time>2020-07-11T13:03:16.000Z</time>
      </trkpt>
      <trkpt lat="45.77354" lon="3.06119">
        <ele>412</ele>
        <time>2020-07-11T13:03:17.000Z</time>
      </trkpt>
      <trkpt lat="45.77352" lon="3.06116">
        <ele>411</ele>
        <time>2020-07-11T13:03:18.000Z</time>
      </trkpt>
      <trkpt lat="45.7735" lon="3.06114">
        <ele>411</ele>
        <time>2020-07-11T13:03:19.000Z</time>
      </trkpt>
      <trkpt lat="45.77348" lon="3.06111">
        <ele>413</ele>
        <time>2020-07-11T13:03:20.000Z</time>
      </trkpt>
      <trkpt lat="45.77346" lon="3.06108">
        <ele>413</ele>
        <time>2020-07-11T13:03:21.000Z</time>
      </trkpt>
      <trkpt lat="45.77344" lon="3.06105">
        <ele>413</ele>
        <time>2020-07-11T13:03:22.000Z</time>
      </trkpt>
      <trkpt lat="45.77342" lon="3.06103">
        <ele>413</ele>
        <time>2020-07-11T13:03:23.000Z</time>
      </trkpt>
      <trkpt lat="45.7734" lon="3.06101">
        <ele>413</ele>
        <time>2020-07-11T13:03:24.000Z</time>
      </trkpt>
      <trkpt lat="45.77338" lon="3.06098">
        <ele>414</ele>
        <time>2020-07-11T13:03:25.000Z</time>
      </trkpt>
      <trkpt lat="45.77336" lon="3.06096">
        <ele>414</ele>
        <time>2020-07-11T13:03:26.000Z</time>
      </trkpt>
      <trkpt lat="45.77334" lon="3.06094">
        <ele>415</ele>
        <time>2020-07-11T13:03:27.000Z</time>
      </trkpt>
      <trkpt lat="45.77332" lon="3.06093">
        <ele>415</ele>
        <time>2020-07-11T13:03:28.000Z</time>
      </trkpt>
      <trkpt lat="45.7733" lon="3.06091">
        <ele>416</ele>
        <time>2020-07-11T13:03:29.000Z</time>
      </trkpt>
      <trkpt lat="45.77327" lon="3.06089">
        <ele>418</ele>
        <time>2020-07-11T13:03:30.000Z</time>
      </trkpt>
      <trkpt lat="45.77325" lon="3.06087">
        <ele>418</ele>
        <time>2020-07-11T13:03:31.000Z</time>
      </trkpt>
      <trkpt lat="45.77322" lon="3.06085">
        <ele>418</ele>
        <time>2020-07-11T13:03:32.000Z</time>
      </trkpt>
      <trkpt lat="45.7732" lon="3.06083">
        <ele>419</ele>
        <time>2020-07-11T13:03:33.000Z</time>
      </trkpt>
      <trkpt lat="45.77318" lon="3.06082">
        <ele>420</ele>
        <time>2020-07-11T13:03:34.000Z</time>
      </trkpt>
      <trkpt lat="45.77316" lon="3.06081">
        <ele>420</ele>
        <time>2020-07-11T13:03:35.000Z</time>
      </trkpt>
      <trkpt lat="45.77313" lon="3.06079">
        <ele>422</ele>
        <time>2020-07-11T13:03:36.000Z</time>
      </trkpt>
      <trkpt lat="45.77311" lon="3.06077">
        <ele>422</ele>
        <time>2020-07-11T13:03:37.000Z</time>
      </trkpt>
      <trkpt lat="45.77307" lon="3.06075">
        <ele>424</ele>
        <time>2020-07-11T13:03:38.000Z</time>
      </trkpt>
      <trkpt lat="45.77304" lon="3.06073">
        <ele>425</ele>
        <time>2020-07-11T13:03:39.000Z</time>
      </trkpt>
      <trkpt lat="45.77301" lon="3.06071">
        <ele>426</ele>
        <time>2020-07-11T13:03:40.000Z</time>
      </trkpt>
      <trkpt lat="45.77299" lon="3.0607">
        <ele>425</ele>
        <time>2020-07-11T13:03:41.000Z</time>
      </trkpt>
      <trkpt lat="45.77297" lon="3.06069">
        <ele>425</ele>
        <time>2020-07-11T13:03:42.000Z</time>
      </trkpt>
      <trkpt lat="45.77295" lon="3.06068">
        <ele>425</ele>
        <time>2020-07-11T13:03:43.000Z</time>
      </trkpt>
      <trkpt lat="45.77293" lon="3.06066">
        <ele>425</ele>
        <time>2020-07-11T13:03:44.000Z</time>
      </trkpt>
      <trkpt lat="45.7729" lon="3.06064">
        <ele>426</ele>
        <time>2020-07-11T13:03:45.000Z</time>
      </trkpt>
      <trkpt lat="45.77288" lon="3.06061">
        <ele>426</ele>
        <time>2020-07-11T13:03:46.000Z</time>
      </trkpt>
      <trkpt lat="45.77285" lon="3.06059">
        <ele>427</ele>
        <time>2020-07-11T13:03:47.000Z</time>
      </trkpt>
      <trkpt lat="45.77283" lon="3.06056">
        <ele>428</ele>
        <time>2020-07-11T13:03:48.000Z</time>
      </trkpt>
      <trkpt lat="45.7728" lon="3.06053">
        <ele>429</ele>
        <time>2020-07-11T13:03:49.000Z</time>
      </trkpt>
      <trkpt lat="45.77278" lon="3.06051">
        <ele>429</ele>
        <time>2020-07-11T13:03:50.000Z</time>
      </trkpt>
      <trkpt lat="45.77276" lon="3.06048">
        <ele>430</ele>
        <time>2020-07-11T13:03:51.000Z</time>
      </trkpt>
      <trkpt lat="45.77274" lon="3.06045">
        <ele>430</ele>
        <time>2020-07-11T13:03:52.000Z</time>
      </trkpt>
      <trkpt lat="45.77273" lon="3.06042">
        <ele>430</ele>
        <time>2020-07-11T13:03:53.000Z</time>
      </trkpt>
      <trkpt lat="45.77271" lon="3.06039">
        <ele>430</ele>
        <time>2020-07-11T13:03:54.000Z</time>
      </trkpt>
      <trkpt lat="45.77269" lon="3.06037">
        <ele>429</ele>
        <time>2020-07-11T13:03:55.000Z</time>
      </trkpt>
      <trkpt lat="45.77267" lon="3.06035">
        <ele>429</ele>
        <time>2020-07-11T13:03:56.000Z</time>
      </trkpt>
      <trkpt lat="45.77265" lon="3.06033">
        <ele>428</ele>
        <time>2020-07-11T13:03:57.000Z</time>
      </trkpt>
      <trkpt lat="45.77262" lon="3.06031">
        <ele>427</ele>
        <time>2020-07-11T13:03:58.000Z</time>
      </trkpt>
      <trkpt lat="45.7726" lon="3.06028">
        <ele>427</ele>
        <time>2020-07-11T13:03:59.000Z</time>
      </trkpt>
      <trkpt lat="45.77258" lon="3.06025">
        <ele>426</ele>
        <time>2020-07-11T13:04:00.000Z</time>
      </trkpt>
      <trkpt lat="45.77256" lon="3.06023">
        <ele>426</ele>
        <time>2020-07-11T13:04:01.000Z</time>
      </trkpt>
      <trkpt lat="45.77255" lon="3.0602">
        <ele>426</ele>
        <time>2020-07-11T13:04:02.000Z</time>
      </trkpt>
      <trkpt lat="45.77253" lon="3.06017">
        <ele>427</ele>
        <time>2020-07-11T13:04:03.000Z</time>
      </trkpt>
      <trkpt lat="45.7725" lon="3.06015">
        <ele>427</ele>
        <time>2020-07-11T13:04:04.000Z</time>
      </trkpt>
      <trkpt lat="45.77248" lon="3.06013">
        <ele>428</ele>
        <time>2020-07-11T13:04:05.000Z</time>
      </trkpt>
      <trkpt lat="45.77245" lon="3.06011">
        <ele>428</ele>
        <time>2020-07-11T13:04:06.000Z</time>
      </trkpt>
      <trkpt lat="45.77243" lon="3.0601">
        <ele>428</ele>
        <time>2020-07-11T13:04:07.000Z</time>
      </trkpt>
      <trkpt lat="45.7724" lon="3.06007">
        <ele>428</ele>
        <time>2020-07-11T13:04:08.000Z</time>
      </trkpt>
      <trkpt lat="45.77238" lon="3.06005">
        <ele>428</ele>
        <time>2020-07-11T13:04:09.000Z</time>
      </trkpt>
      <trkpt lat="45.77236" lon="3.06003">
        <ele>429</ele>
        <time>2020-07-11T13:04:10.000Z</time>
      </trkpt>
      <trkpt lat="45.77233" lon="3.06001">
        <ele>429</ele>
        <time>2020-07-11T13:04:11.000Z</time>
      </trkpt>
      <trkpt lat="45.7723" lon="3.05999">
        <ele>428</ele>
        <time>2020-07-11T13:04:12.000Z</time>
      </trkpt>
      <trkpt lat="45.77228" lon="3.05997">
        <ele>428</ele>
        <time>2020-07-11T13:04:13.000Z</time>
      </trkpt>
      <trkpt lat="45.77225" lon="3.05996">
        <ele>429</ele>
        <time>2020-07-11T13:04:14.000Z</time>
      </trkpt>
      <trkpt lat="45.77223" lon="3.05994">
        <ele>430</ele>
        <time>2020-07-11T13:04:15.000Z</time>
      </trkpt>
      <trkpt lat="45.77221" lon="3.05992">
        <ele>430</ele>
        <time>2020-07-11T13:04:16.000Z</time>
      </trkpt>
      <trkpt lat="45.77219" lon="3.0599">
        <ele>430</ele>
        <time>2020-07-11T13:04:17.000Z</time>
      </trkpt>
      <trkpt lat="45.77216" lon="3.05988">
        <ele>432</ele>
        <time>2020-07-11T13:04:18.000Z</time>
      </trkpt>
      <trkpt lat="45.77214" lon="3.05986">
        <ele>432</ele>
        <time>2020-07-11T13:04:19.000Z</time>
      </trkpt>
      <trkpt lat="45.77212" lon="3.05984">
        <ele>433</ele>
        <time>2020-07-11T13:04:20.000Z</time>
      </trkpt>
      <trkpt lat="45.7721" lon="3.05983">
        <ele>433</ele>
        <time>2020-07-11T13:04:21.000Z</time>
      </trkpt>
      <trkpt lat="45.77208" lon="3.05981">
        <ele>433</ele>
        <time>2020-07-11T13:04:22.000Z</time>
      </trkpt>
      <trkpt lat="45.77206" lon="3.05979">
        <ele>434</ele>
        <time>2020-07-11T13:04:23.000Z</time>
      </trkpt>
      <trkpt lat="45.77203" lon="3.05978">
        <ele>434</ele>
        <time>2020-07-11T13:04:24.000Z</time>
      </trkpt>
      <trkpt lat="45.77201" lon="3.05976">
        <ele>434</ele>
        <time>2020-07-11T13:04:25.000Z</time>
      </trkpt>
      <trkpt lat="45.77198" lon="3.05975">
        <ele>435</ele>
        <time>2020-07-11T13:04:26.000Z</time>
      </trkpt>
      <trkpt lat="45.77195" lon="3.05973">
        <ele>435</ele>
        <time>2020-07-11T13:04:27.000Z</time>
      </trkpt>
      <trkpt lat="45.77192" lon="3.05971">
        <ele>435</ele>
        <time>2020-07-11T13:04:28.000Z</time>
      </trkpt>
      <trkpt lat="45.7719" lon="3.0597">
        <ele>435</ele>
        <time>2020-07-11T13:04:29.000Z</time>
      </trkpt>
      <trkpt lat="45.77187" lon="3.05968">
        <ele>435</ele>
        <time>2020-07-11T13:04:30.000Z</time>
      </trkpt>
      <trkpt lat="45.77185" lon="3.05966">
        <ele>436</ele>
        <time>2020-07-11T13:04:31.000Z</time>
      </trkpt>
      <trkpt lat="45.77182" lon="3.05964">
        <ele>436</ele>
        <time>2020-07-11T13:04:32.000Z</time>
      </trkpt>
      <trkpt lat="45.77179" lon="3.05963">
        <ele>436</ele>
        <time>2020-07-11T13:04:33.000Z</time>
      </trkpt>
      <trkpt lat="45.77176" lon="3.05961">
        <ele>437</ele>
        <time>2020-07-11T13:04:34.000Z</time>
      </trkpt>
      <trkpt lat="45.77174" lon="3.0596">
        <ele>437</ele>
        <time>2020-07-11T13:04:35.000Z</time>
      </trkpt>
      <trkpt lat="45.77171" lon="3.05958">
        <ele>438</ele>
        <time>2020-07-11T13:04:36.000Z</time>
      </trkpt>
      <trkpt lat="45.77169" lon="3.05957">
        <ele>439</ele>
        <time>2020-07-11T13:04:37.000Z</time>
      </trkpt>
      <trkpt lat="45.77167" lon="3.05955">
        <ele>438</ele>
        <time>2020-07-11T13:04:38.000Z</time>
      </trkpt>
      <trkpt lat="45.77166" lon="3.05954">
        <ele>438</ele>
        <time>2020-07-11T13:04:39.000Z</time>
      </trkpt>
      <trkpt lat="45.77164" lon="3.05953">
        <ele>438</ele>
        <time>2020-07-11T13:04:40.000Z</time>
      </trkpt>
      <trkpt lat="45.77161" lon="3.05952">
        <ele>439</ele>
        <time>2020-07-11T13:04:41.000Z</time>
      </trkpt>
      <trkpt lat="45.77159" lon="3.05949">
        <ele>439</ele>
        <time>2020-07-11T13:04:42.000Z</time>
      </trkpt>
      <trkpt lat="45.77156" lon="3.05947">
        <ele>439</ele>
        <time>2020-07-11T13:04:43.000Z</time>
      </trkpt>
      <trkpt lat="45.77153" lon="3.05945">
        <ele>438</ele>
        <time>2020-07-11T13:04:44.000Z</time>
      </trkpt>
      <trkpt lat="45.77151" lon="3.05942">
        <ele>437</ele>
        <time>2020-07-11T13:04:45.000Z</time>
      </trkpt>
      <trkpt lat="45.77148" lon="3.0594">
        <ele>438</ele>
        <time>2020-07-11T13:04:46.000Z</time>
      </trkpt>
      <trkpt lat="45.77145" lon="3.05938">
        <ele>437</ele>
        <time>2020-07-11T13:04:47.000Z</time>
      </trkpt>
      <trkpt lat="45.77143" lon="3.05936">
        <ele>437</ele>
        <time>2020-07-11T13:04:48.000Z</time>
      </trkpt>
      <trkpt lat="45.7714" lon="3.05934">
        <ele>437</ele>
        <time>2020-07-11T13:04:49.000Z</time>
      </trkpt>
      <trkpt lat="45.77138" lon="3.05933">
        <ele>438</ele>
        <time>2020-07-11T13:04:50.000Z</time>
      </trkpt>
      <trkpt lat="45.77135" lon="3.05931">
        <ele>438</ele>
        <time>2020-07-11T13:04:51.000Z</time>
      </trkpt>
      <trkpt lat="45.77132" lon="3.05929">
        <ele>438</ele>
        <time>2020-07-11T13:04:52.000Z</time>
      </trkpt>
      <trkpt lat="45.77129" lon="3.05927">
        <ele>438</ele>
        <time>2020-07-11T13:04:53.000Z</time>
      </trkpt>
      <trkpt lat="45.77127" lon="3.05925">
        <ele>438</ele>
        <time>2020-07-11T13:04:54.000Z</time>
      </trkpt>
      <trkpt lat="45.77125" lon="3.05923">
        <ele>438</ele>
        <time>2020-07-11T13:04:55.000Z</time>
      </trkpt>
      <trkpt lat="45.77123" lon="3.05921">
        <ele>437</ele>
        <time>2020-07-11T13:04:56.000Z</time>
      </trkpt>
      <trkpt lat="45.7712" lon="3.05919">
        <ele>436</ele>
        <time>2020-07-11T13:04:57.000Z</time>
      </trkpt>
      <trkpt lat="45.77118" lon="3.05916">
        <ele>435</ele>
        <time>2020-07-11T13:04:58.000Z</time>
      </trkpt>
      <trkpt lat="45.77117" lon="3.05912">
        <ele>436</ele>
        <time>2020-07-11T13:04:59.000Z</time>
      </trkpt>
      <trkpt lat="45.77118" lon="3.05906">
        <ele>435</ele>
        <time>2020-07-11T13:05:00.000Z</time>
      </trkpt>
      <trkpt lat="45.77119" lon="3.05901">
        <ele>435</ele>
        <time>2020-07-11T13:05:01.000Z</time>
      </trkpt>
      <trkpt lat="45.7712" lon="3.05895">
        <ele>435</ele>
        <time>2020-07-11T13:05:02.000Z</time>
      </trkpt>
      <trkpt lat="45.77121" lon="3.05891">
        <ele>435</ele>
        <time>2020-07-11T13:05:03.000Z</time>
      </trkpt>
      <trkpt lat="45.77121" lon="3.05887">
        <ele>434</ele>
        <time>2020-07-11T13:05:04.000Z</time>
      </trkpt>
      <trkpt lat="45.77122" lon="3.05883">
        <ele>433</ele>
        <time>2020-07-11T13:05:05.000Z</time>
      </trkpt>
      <trkpt lat="45.77122" lon="3.0588">
        <ele>433</ele>
        <time>2020-07-11T13:05:06.000Z</time>
      </trkpt>
      <trkpt lat="45.77123" lon="3.05876">
        <ele>431</ele>
        <time>2020-07-11T13:05:07.000Z</time>
      </trkpt>
      <trkpt lat="45.77125" lon="3.05871">
        <ele>430</ele>
        <time>2020-07-11T13:05:08.000Z</time>
      </trkpt>
      <trkpt lat="45.77126" lon="3.05867">
        <ele>431</ele>
        <time>2020-07-11T13:05:09.000Z</time>
      </trkpt>
      <trkpt lat="45.77128" lon="3.05862">
        <ele>430</ele>
        <time>2020-07-11T13:05:10.000Z</time>
      </trkpt>
      <trkpt lat="45.77129" lon="3.05859">
        <ele>431</ele>
        <time>2020-07-11T13:05:11.000Z</time>
      </trkpt>
      <trkpt lat="45.7713" lon="3.05856">
        <ele>430</ele>
        <time>2020-07-11T13:05:12.000Z</time>
      </trkpt>
      <trkpt lat="45.77132" lon="3.05853">
        <ele>429</ele>
        <time>2020-07-11T13:05:13.000Z</time>
      </trkpt>
      <trkpt lat="45.77133" lon="3.0585">
        <ele>428</ele>
        <time>2020-07-11T13:05:14.000Z</time>
      </trkpt>
      <trkpt lat="45.77135" lon="3.05847">
        <ele>426</ele>
        <time>2020-07-11T13:05:15.000Z</time>
      </trkpt>
      <trkpt lat="45.77137" lon="3.05844">
        <ele>425</ele>
        <time>2020-07-11T13:05:16.000Z</time>
      </trkpt>
      <trkpt lat="45.7714" lon="3.05841">
        <ele>425</ele>
        <time>2020-07-11T13:05:17.000Z</time>
      </trkpt>
      <trkpt lat="45.77141" lon="3.05838">
        <ele>425</ele>
        <time>2020-07-11T13:05:18.000Z</time>
      </trkpt>
      <trkpt lat="45.77142" lon="3.05834">
        <ele>425</ele>
        <time>2020-07-11T13:05:19.000Z</time>
      </trkpt>
      <trkpt lat="45.77143" lon="3.05831">
        <ele>425</ele>
        <time>2020-07-11T13:05:20.000Z</time>
      </trkpt>
      <trkpt lat="45.77144" lon="3.05828">
        <ele>426</ele>
        <time>2020-07-11T13:05:21.000Z</time>
      </trkpt>
      <trkpt lat="45.77144" lon="3.05824">
        <ele>426</ele>
        <time>2020-07-11T13:05:22.000Z</time>
      </trkpt>
      <trkpt lat="45.77144" lon="3.0582">
        <ele>426</ele>
        <time>2020-07-11T13:05:23.000Z</time>
      </trkpt>
      <trkpt lat="45.77144" lon="3.05816">
        <ele>426</ele>
        <time>2020-07-11T13:05:24.000Z</time>
      </trkpt>
      <trkpt lat="45.77144" lon="3.05813">
        <ele>426</ele>
        <time>2020-07-11T13:05:25.000Z</time>
      </trkpt>
      <trkpt lat="45.77145" lon="3.05809">
        <ele>426</ele>
        <time>2020-07-11T13:05:26.000Z</time>
      </trkpt>
      <trkpt lat="45.77146" lon="3.05806">
        <ele>426</ele>
        <time>2020-07-11T13:05:27.000Z</time>
      </trkpt>
      <trkpt lat="45.77147" lon="3.05802">
        <ele>426</ele>
        <time>2020-07-11T13:05:28.000Z</time>
      </trkpt>
      <trkpt lat="45.77147" lon="3.05797">
        <ele>426</ele>
        <time>2020-07-11T13:05:29.000Z</time>
      </trkpt>
      <trkpt lat="45.77147" lon="3.05793">
        <ele>427</ele>
        <time>2020-07-11T13:05:30.000Z</time>
      </trkpt>
      <trkpt lat="45.77147" lon="3.05789">
        <ele>426</ele>
        <time>2020-07-11T13:05:31.000Z</time>
      </trkpt>
      <trkpt lat="45.77147" lon="3.05784">
        <ele>427</ele>
        <time>2020-07-11T13:05:32.000Z</time>
      </trkpt>
      <trkpt lat="45.77147" lon="3.0578">
        <ele>427</ele>
        <time>2020-07-11T13:05:33.000Z</time>
      </trkpt>
      <trkpt lat="45.77147" lon="3.05776">
        <ele>427</ele>
        <time>2020-07-11T13:05:34.000Z</time>
      </trkpt>
      <trkpt lat="45.77146" lon="3.05772">
        <ele>428</ele>
        <time>2020-07-11T13:05:35.000Z</time>
      </trkpt>
      <trkpt lat="45.77146" lon="3.05769">
        <ele>428</ele>
        <time>2020-07-11T13:05:36.000Z</time>
      </trkpt>
      <trkpt lat="45.77146" lon="3.05765">
        <ele>429</ele>
        <time>2020-07-11T13:05:37.000Z</time>
      </trkpt>
      <trkpt lat="45.77145" lon="3.05762">
        <ele>429</ele>
        <time>2020-07-11T13:05:38.000Z</time>
      </trkpt>
      <trkpt lat="45.77146" lon="3.05758">
        <ele>429</ele>
        <time>2020-07-11T13:05:39.000Z</time>
      </trkpt>
      <trkpt lat="45.77146" lon="3.05755">
        <ele>429</ele>
        <time>2020-07-11T13:05:40.000Z</time>
      </trkpt>
      <trkpt lat="45.77147" lon="3.05751">
        <ele>431</ele>
        <time>2020-07-11T13:05:41.000Z</time>
      </trkpt>
      <trkpt lat="45.77147" lon="3.05748">
        <ele>432</ele>
        <time>2020-07-11T13:05:42.000Z</time>
      </trkpt>
      <trkpt lat="45.77148" lon="3.05743">
        <ele>433</ele>
        <time>2020-07-11T13:05:43.000Z</time>
      </trkpt>
      <trkpt lat="45.77148" lon="3.05739">
        <ele>435</ele>
        <time>2020-07-11T13:05:44.000Z</time>
      </trkpt>
      <trkpt lat="45.77148" lon="3.05735">
        <ele>436</ele>
        <time>2020-07-11T13:05:45.000Z</time>
      </trkpt>
      <trkpt lat="45.77149" lon="3.05731">
        <ele>435</ele>
        <time>2020-07-11T13:05:46.000Z</time>
      </trkpt>
      <trkpt lat="45.7715" lon="3.05727">
        <ele>434</ele>
        <time>2020-07-11T13:05:47.000Z</time>
      </trkpt>
      <trkpt lat="45.7715" lon="3.05723">
        <ele>434</ele>
        <time>2020-07-11T13:05:48.000Z</time>
      </trkpt>
      <trkpt lat="45.77151" lon="3.05719">
        <ele>434</ele>
        <time>2020-07-11T13:05:49.000Z</time>
      </trkpt>
      <trkpt lat="45.77152" lon="3.05715">
        <ele>433</ele>
        <time>2020-07-11T13:05:50.000Z</time>
      </trkpt>
      <trkpt lat="45.77153" lon="3.05712">
        <ele>433</ele>
        <time>2020-07-11T13:05:51.000Z</time>
      </trkpt>
      <trkpt lat="45.77154" lon="3.05709">
        <ele>433</ele>
        <time>2020-07-11T13:05:52.000Z</time>
      </trkpt>
      <trkpt lat="45.77155" lon="3.05705">
        <ele>433</ele>
        <time>2020-07-11T13:05:53.000Z</time>
      </trkpt>
      <trkpt lat="45.77156" lon="3.05702">
        <ele>432</ele>
        <time>2020-07-11T13:05:54.000Z</time>
      </trkpt>
      <trkpt lat="45.77157" lon="3.05699">
        <ele>432</ele>
        <time>2020-07-11T13:05:55.000Z</time>
      </trkpt>
      <trkpt lat="45.77157" lon="3.05696">
        <ele>431</ele>
        <time>2020-07-11T13:05:56.000Z</time>
      </trkpt>
      <trkpt lat="45.77158" lon="3.05693">
        <ele>431</ele>
        <time>2020-07-11T13:05:57.000Z</time>
      </trkpt>
      <trkpt lat="45.77159" lon="3.05689">
        <ele>430</ele>
        <time>2020-07-11T13:05:58.000Z</time>
      </trkpt>
      <trkpt lat="45.7716" lon="3.05686">
        <ele>430</ele>
        <time>2020-07-11T13:05:59.000Z</time>
      </trkpt>
      <trkpt lat="45.77161" lon="3.05682">
        <ele>429</ele>
        <time>2020-07-11T13:06:00.000Z</time>
      </trkpt>
      <trkpt lat="45.77162" lon="3.05679">
        <ele>428</ele>
        <time>2020-07-11T13:06:01.000Z</time>
      </trkpt>
      <trkpt lat="45.77163" lon="3.05676">
        <ele>428</ele>
        <time>2020-07-11T13:06:02.000Z</time>
      </trkpt>
      <trkpt lat="45.77164" lon="3.05672">
        <ele>428</ele>
        <time>2020-07-11T13:06:03.000Z</time>
      </trkpt>
      <trkpt lat="45.77165" lon="3.05669">
        <ele>427</ele>
        <time>2020-07-11T13:06:04.000Z</time>
      </trkpt>
      <trkpt lat="45.77166" lon="3.05665">
        <ele>427</ele>
        <time>2020-07-11T13:06:05.000Z</time>
      </trkpt>
      <trkpt lat="45.77166" lon="3.05662">
        <ele>428</ele>
        <time>2020-07-11T13:06:06.000Z</time>
      </trkpt>
      <trkpt lat="45.77167" lon="3.05658">
        <ele>428</ele>
        <time>2020-07-11T13:06:07.000Z</time>
      </trkpt>
      <trkpt lat="45.77167" lon="3.05654">
        <ele>429</ele>
        <time>2020-07-11T13:06:08.000Z</time>
      </trkpt>
      <trkpt lat="45.77167" lon="3.0565">
        <ele>429</ele>
        <time>2020-07-11T13:06:09.000Z</time>
      </trkpt>
      <trkpt lat="45.77168" lon="3.05646">
        <ele>430</ele>
        <time>2020-07-11T13:06:10.000Z</time>
      </trkpt>
      <trkpt lat="45.77169" lon="3.05642">
        <ele>431</ele>
        <time>2020-07-11T13:06:11.000Z</time>
      </trkpt>
      <trkpt lat="45.7717" lon="3.05638">
        <ele>432</ele>
        <time>2020-07-11T13:06:12.000Z</time>
      </trkpt>
      <trkpt lat="45.77171" lon="3.05634">
        <ele>432</ele>
        <time>2020-07-11T13:06:13.000Z</time>
      </trkpt>
      <trkpt lat="45.77172" lon="3.0563">
        <ele>433</ele>
        <time>2020-07-11T13:06:14.000Z</time>
      </trkpt>
      <trkpt lat="45.77172" lon="3.05626">
        <ele>433</ele>
        <time>2020-07-11T13:06:15.000Z</time>
      </trkpt>
      <trkpt lat="45.77172" lon="3.05623">
        <ele>435</ele>
        <time>2020-07-11T13:06:16.000Z</time>
      </trkpt>
      <trkpt lat="45.77173" lon="3.05619">
        <ele>436</ele>
        <time>2020-07-11T13:06:17.000Z</time>
      </trkpt>
      <trkpt lat="45.77173" lon="3.05615">
        <ele>436</ele>
        <time>2020-07-11T13:06:18.000Z</time>
      </trkpt>
      <trkpt lat="45.77173" lon="3.05611">
        <ele>436</ele>
        <time>2020-07-11T13:06:19.000Z</time>
      </trkpt>
      <trkpt lat="45.77173" lon="3.05608">
        <ele>437</ele>
        <time>2020-07-11T13:06:20.000Z</time>
      </trkpt>
      <trkpt lat="45.77173" lon="3.05604">
        <ele>438</ele>
        <time>2020-07-11T13:06:21.000Z</time>
      </trkpt>
      <trkpt lat="45.77173" lon="3.056">
        <ele>439</ele>
        <time>2020-07-11T13:06:22.000Z</time>
      </trkpt>
      <trkpt lat="45.77174" lon="3.05596">
        <ele>439</ele>
        <time>2020-07-11T13:06:23.000Z</time>
      </trkpt>
      <trkpt lat="45.77175" lon="3.05592">
        <ele>439</ele>
        <time>2020-07-11T13:06:24.000Z</time>
      </trkpt>
      <trkpt lat="45.77175" lon="3.05589">
        <ele>439</ele>
        <time>2020-07-11T13:06:25.000Z</time>
      </trkpt>
      <trkpt lat="45.77177" lon="3.05586">
        <ele>439</ele>
        <time>2020-07-11T13:06:26.000Z</time>
      </trkpt>
      <trkpt lat="45.77178" lon="3.05583">
        <ele>439</ele>
        <time>2020-07-11T13:06:27.000Z</time>
      </trkpt>
      <trkpt lat="45.7718" lon="3.0558">
        <ele>440</ele>
        <time>2020-07-11T13:06:28.000Z</time>
      </trkpt>
      <trkpt lat="45.77181" lon="3.05578">
        <ele>441</ele>
        <time>2020-07-11T13:06:29.000Z</time>
      </trkpt>
      <trkpt lat="45.77182" lon="3.05576">
        <ele>440</ele>
        <time>2020-07-11T13:06:30.000Z</time>
      </trkpt>
      <trkpt lat="45.77183" lon="3.05574">
        <ele>441</ele>
        <time>2020-07-11T13:06:31.000Z</time>
      </trkpt>
      <trkpt lat="45.77185" lon="3.05571">
        <ele>442</ele>
        <time>2020-07-11T13:06:32.000Z</time>
      </trkpt>
      <trkpt lat="45.77186" lon="3.05569">
        <ele>443</ele>
        <time>2020-07-11T13:06:33.000Z</time>
      </trkpt>
      <trkpt lat="45.77187" lon="3.05567">
        <ele>444</ele>
        <time>2020-07-11T13:06:34.000Z</time>
      </trkpt>
      <trkpt lat="45.77189" lon="3.05565">
        <ele>445</ele>
        <time>2020-07-11T13:06:35.000Z</time>
      </trkpt>
      <trkpt lat="45.77191" lon="3.05564">
        <ele>445</ele>
        <time>2020-07-11T13:06:36.000Z</time>
      </trkpt>
      <trkpt lat="45.77194" lon="3.05562">
        <ele>446</ele>
        <time>2020-07-11T13:06:37.000Z</time>
      </trkpt>
      <trkpt lat="45.77196" lon="3.05561">
        <ele>447</ele>
        <time>2020-07-11T13:06:38.000Z</time>
      </trkpt>
      <trkpt lat="45.77198" lon="3.05559">
        <ele>448</ele>
        <time>2020-07-11T13:06:39.000Z</time>
      </trkpt>
      <trkpt lat="45.77199" lon="3.05558">
        <ele>449</ele>
        <time>2020-07-11T13:06:40.000Z</time>
      </trkpt>
      <trkpt lat="45.77201" lon="3.05556">
        <ele>449</ele>
        <time>2020-07-11T13:06:41.000Z</time>
      </trkpt>
      <trkpt lat="45.77203" lon="3.05555">
        <ele>450</ele>
        <time>2020-07-11T13:06:42.000Z</time>
      </trkpt>
      <trkpt lat="45.77205" lon="3.05554">
        <ele>450</ele>
        <time>2020-07-11T13:06:43.000Z</time>
      </trkpt>
      <trkpt lat="45.77207" lon="3.05553">
        <ele>452</ele>
        <time>2020-07-11T13:06:44.000Z</time>
      </trkpt>
      <trkpt lat="45.77209" lon="3.05552">
        <ele>451</ele>
        <time>2020-07-11T13:06:45.000Z</time>
      </trkpt>
      <trkpt lat="45.77211" lon="3.05552">
        <ele>452</ele>
        <time>2020-07-11T13:06:46.000Z</time>
      </trkpt>
      <trkpt lat="45.77213" lon="3.05551">
        <ele>452</ele>
        <time>2020-07-11T13:06:47.000Z</time>
      </trkpt>
      <trkpt lat="45.77214" lon="3.0555">
        <ele>453</ele>
        <time>2020-07-11T13:06:48.000Z</time>
      </trkpt>
      <trkpt lat="45.77216" lon="3.0555">
        <ele>453</ele>
        <time>2020-07-11T13:06:49.000Z</time>
      </trkpt>
      <trkpt lat="45.77218" lon="3.05549">
        <ele>452</ele>
        <time>2020-07-11T13:06:50.000Z</time>
      </trkpt>
      <trkpt lat="45.77221" lon="3.05549">
        <ele>453</ele>
        <time>2020-07-11T13:06:51.000Z</time>
      </trkpt>
      <trkpt lat="45.77223" lon="3.05548">
        <ele>453</ele>
        <time>2020-07-11T13:06:52.000Z</time>
      </trkpt>
      <trkpt lat="45.77225" lon="3.05548">
        <ele>453</ele>
        <time>2020-07-11T13:06:53.000Z</time>
      </trkpt>
      <trkpt lat="45.77226" lon="3.05548">
        <ele>454</ele>
        <time>2020-07-11T13:06:54.000Z</time>
      </trkpt>
      <trkpt lat="45.77228" lon="3.05548">
        <ele>454</ele>
        <time>2020-07-11T13:06:55.000Z</time>
      </trkpt>
      <trkpt lat="45.7723" lon="3.05548">
        <ele>455</ele>
        <time>2020-07-11T13:06:56.000Z</time>
      </trkpt>
      <trkpt lat="45.77232" lon="3.05549">
        <ele>456</ele>
        <time>2020-07-11T13:06:57.000Z</time>
      </trkpt>
      <trkpt lat="45.77234" lon="3.05549">
        <ele>457</ele>
        <time>2020-07-11T13:06:58.000Z</time>
      </trkpt>
      <trkpt lat="45.77235" lon="3.05549">
        <ele>458</ele>
        <time>2020-07-11T13:06:59.000Z</time>
      </trkpt>
      <trkpt lat="45.77237" lon="3.05549">
        <ele>458</ele>
        <time>2020-07-11T13:07:00.000Z</time>
      </trkpt>
      <trkpt lat="45.77239" lon="3.05549">
        <ele>459</ele>
        <time>2020-07-11T13:07:01.000Z</time>
      </trkpt>
      <trkpt lat="45.77241" lon="3.05549">
        <ele>460</ele>
        <time>2020-07-11T13:07:02.000Z</time>
      </trkpt>
      <trkpt lat="45.77244" lon="3.05549">
        <ele>460</ele>
        <time>2020-07-11T13:07:03.000Z</time>
      </trkpt>
      <trkpt lat="45.77247" lon="3.05549">
        <ele>461</ele>
        <time>2020-07-11T13:07:04.000Z</time>
      </trkpt>
      <trkpt lat="45.77249" lon="3.0555">
        <ele>462</ele>
        <time>2020-07-11T13:07:05.000Z</time>
      </trkpt>
      <trkpt lat="45.77251" lon="3.0555">
        <ele>463</ele>
        <time>2020-07-11T13:07:06.000Z</time>
      </trkpt>
      <trkpt lat="45.77253" lon="3.0555">
        <ele>462</ele>
        <time>2020-07-11T13:07:07.000Z</time>
      </trkpt>
      <trkpt lat="45.77256" lon="3.0555">
        <ele>463</ele>
        <time>2020-07-11T13:07:08.000Z</time>
      </trkpt>
      <trkpt lat="45.77258" lon="3.0555">
        <ele>462</ele>
        <time>2020-07-11T13:07:09.000Z</time>
      </trkpt>
      <trkpt lat="45.77261" lon="3.0555">
        <ele>462</ele>
        <time>2020-07-11T13:07:10.000Z</time>
      </trkpt>
      <trkpt lat="45.77264" lon="3.0555">
        <ele>462</ele>
        <time>2020-07-11T13:07:11.000Z</time>
      </trkpt>
      <trkpt lat="45.77267" lon="3.05549">
        <ele>462</ele>
        <time>2020-07-11T13:07:12.000Z</time>
      </trkpt>
      <trkpt lat="45.7727" lon="3.05548">
        <ele>461</ele>
        <time>2020-07-11T13:07:13.000Z</time>
      </trkpt>
      <trkpt lat="45.77273" lon="3.05547">
        <ele>461</ele>
        <time>2020-07-11T13:07:14.000Z</time>
      </trkpt>
      <trkpt lat="45.77276" lon="3.05546">
        <ele>462</ele>
        <time>2020-07-11T13:07:15.000Z</time>
      </trkpt>
      <trkpt lat="45.77279" lon="3.05544">
        <ele>461</ele>
        <time>2020-07-11T13:07:16.000Z</time>
      </trkpt>
      <trkpt lat="45.77282" lon="3.05542">
        <ele>460</ele>
        <time>2020-07-11T13:07:17.000Z</time>
      </trkpt>
      <trkpt lat="45.77286" lon="3.0554">
        <ele>460</ele>
        <time>2020-07-11T13:07:18.000Z</time>
      </trkpt>
      <trkpt lat="45.77288" lon="3.05538">
        <ele>460</ele>
        <time>2020-07-11T13:07:19.000Z</time>
      </trkpt>
      <trkpt lat="45.77291" lon="3.05536">
        <ele>460</ele>
        <time>2020-07-11T13:07:20.000Z</time>
      </trkpt>
      <trkpt lat="45.77293" lon="3.05533">
        <ele>460</ele>
        <time>2020-07-11T13:07:21.000Z</time>
      </trkpt>
      <trkpt lat="45.77295" lon="3.05531">
        <ele>459</ele>
        <time>2020-07-11T13:07:22.000Z</time>
      </trkpt>
      <trkpt lat="45.77297" lon="3.05528">
        <ele>459</ele>
        <time>2020-07-11T13:07:23.000Z</time>
      </trkpt>
      <trkpt lat="45.77299" lon="3.05526">
        <ele>458</ele>
        <time>2020-07-11T13:07:24.000Z</time>
      </trkpt>
      <trkpt lat="45.77301" lon="3.05523">
        <ele>458</ele>
        <time>2020-07-11T13:07:25.000Z</time>
      </trkpt>
      <trkpt lat="45.77303" lon="3.0552">
        <ele>458</ele>
        <time>2020-07-11T13:07:26.000Z</time>
      </trkpt>
      <trkpt lat="45.77304" lon="3.05517">
        <ele>458</ele>
        <time>2020-07-11T13:07:27.000Z</time>
      </trkpt>
      <trkpt lat="45.77306" lon="3.05514">
        <ele>458</ele>
        <time>2020-07-11T13:07:28.000Z</time>
      </trkpt>
      <trkpt lat="45.77308" lon="3.05511">
        <ele>457</ele>
        <time>2020-07-11T13:07:29.000Z</time>
      </trkpt>
      <trkpt lat="45.77309" lon="3.05509">
        <ele>456</ele>
        <time>2020-07-11T13:07:30.000Z</time>
      </trkpt>
      <trkpt lat="45.77311" lon="3.05506">
        <ele>456</ele>
        <time>2020-07-11T13:07:31.000Z</time>
      </trkpt>
      <trkpt lat="45.77313" lon="3.05502">
        <ele>455</ele>
        <time>2020-07-11T13:07:32.000Z</time>
      </trkpt>
      <trkpt lat="45.77314" lon="3.05499">
        <ele>455</ele>
        <time>2020-07-11T13:07:33.000Z</time>
      </trkpt>
      <trkpt lat="45.77316" lon="3.05496">
        <ele>455</ele>
        <time>2020-07-11T13:07:34.000Z</time>
      </trkpt>
      <trkpt lat="45.77317" lon="3.05493">
        <ele>455</ele>
        <time>2020-07-11T13:07:35.000Z</time>
      </trkpt>
      <trkpt lat="45.77318" lon="3.05489">
        <ele>454</ele>
        <time>2020-07-11T13:07:36.000Z</time>
      </trkpt>
      <trkpt lat="45.7732" lon="3.05486">
        <ele>453</ele>
        <time>2020-07-11T13:07:37.000Z</time>
      </trkpt>
      <trkpt lat="45.77321" lon="3.05482">
        <ele>453</ele>
        <time>2020-07-11T13:07:38.000Z</time>
      </trkpt>
      <trkpt lat="45.77322" lon="3.05478">
        <ele>454</ele>
        <time>2020-07-11T13:07:39.000Z</time>
      </trkpt>
      <trkpt lat="45.77324" lon="3.05474">
        <ele>454</ele>
        <time>2020-07-11T13:07:40.000Z</time>
      </trkpt>
      <trkpt lat="45.77325" lon="3.0547">
        <ele>454</ele>
        <time>2020-07-11T13:07:41.000Z</time>
      </trkpt>
      <trkpt lat="45.77327" lon="3.05467">
        <ele>453</ele>
        <time>2020-07-11T13:07:42.000Z</time>
      </trkpt>
      <trkpt lat="45.77329" lon="3.05463">
        <ele>452</ele>
        <time>2020-07-11T13:07:43.000Z</time>
      </trkpt>
      <trkpt lat="45.77331" lon="3.05459">
        <ele>452</ele>
        <time>2020-07-11T13:07:44.000Z</time>
      </trkpt>
      <trkpt lat="45.77332" lon="3.05456">
        <ele>451</ele>
        <time>2020-07-11T13:07:45.000Z</time>
      </trkpt>
      <trkpt lat="45.77334" lon="3.05452">
        <ele>451</ele>
        <time>2020-07-11T13:07:46.000Z</time>
      </trkpt>
      <trkpt lat="45.77336" lon="3.05449">
        <ele>451</ele>
        <time>2020-07-11T13:07:47.000Z</time>
      </trkpt>
      <trkpt lat="45.77337" lon="3.05445">
        <ele>451</ele>
        <time>2020-07-11T13:07:48.000Z</time>
      </trkpt>
      <trkpt lat="45.77338" lon="3.05441">
        <ele>452</ele>
        <time>2020-07-11T13:07:49.000Z</time>
      </trkpt>
      <trkpt lat="45.77339" lon="3.05438">
        <ele>451</ele>
        <time>2020-07-11T13:07:50.000Z</time>
      </trkpt>
      <trkpt lat="45.7734" lon="3.05434">
        <ele>452</ele>
        <time>2020-07-11T13:07:51.000Z</time>
      </trkpt>
      <trkpt lat="45.77341" lon="3.05431">
        <ele>452</ele>
        <time>2020-07-11T13:07:52.000Z</time>
      </trkpt>
      <trkpt lat="45.77342" lon="3.05427">
        <ele>452</ele>
        <time>2020-07-11T13:07:53.000Z</time>
      </trkpt>
      <trkpt lat="45.77343" lon="3.05424">
        <ele>452</ele>
        <time>2020-07-11T13:07:54.000Z</time>
      </trkpt>
      <trkpt lat="45.77345" lon="3.0542">
        <ele>453</ele>
        <time>2020-07-11T13:07:55.000Z</time>
      </trkpt>
      <trkpt lat="45.77346" lon="3.05417">
        <ele>454</ele>
        <time>2020-07-11T13:07:56.000Z</time>
      </trkpt>
      <trkpt lat="45.77348" lon="3.05414">
        <ele>454</ele>
        <time>2020-07-11T13:07:57.000Z</time>
      </trkpt>
      <trkpt lat="45.7735" lon="3.05411">
        <ele>455</ele>
        <time>2020-07-11T13:07:58.000Z</time>
      </trkpt>
      <trkpt lat="45.77351" lon="3.05407">
        <ele>456</ele>
        <time>2020-07-11T13:07:59.000Z</time>
      </trkpt>
      <trkpt lat="45.77353" lon="3.05404">
        <ele>457</ele>
        <time>2020-07-11T13:08:00.000Z</time>
      </trkpt>
      <trkpt lat="45.77355" lon="3.05401">
        <ele>457</ele>
        <time>2020-07-11T13:08:01.000Z</time>
      </trkpt>
      <trkpt lat="45.77358" lon="3.05398">
        <ele>458</ele>
        <time>2020-07-11T13:08:02.000Z</time>
      </trkpt>
      <trkpt lat="45.7736" lon="3.05395">
        <ele>457</ele>
        <time>2020-07-11T13:08:03.000Z</time>
      </trkpt>
      <trkpt lat="45.77362" lon="3.05393">
        <ele>457</ele>
        <time>2020-07-11T13:08:04.000Z</time>
      </trkpt>
      <trkpt lat="45.77364" lon="3.05391">
        <ele>457</ele>
        <time>2020-07-11T13:08:05.000Z</time>
      </trkpt>
      <trkpt lat="45.77366" lon="3.05389">
        <ele>457</ele>
        <time>2020-07-11T13:08:06.000Z</time>
      </trkpt>
      <trkpt lat="45.77368" lon="3.05387">
        <ele>457</ele>
        <time>2020-07-11T13:08:07.000Z</time>
      </trkpt>
      <trkpt lat="45.7737" lon="3.05384">
        <ele>457</ele>
        <time>2020-07-11T13:08:08.000Z</time>
      </trkpt>
      <trkpt lat="45.77373" lon="3.05382">
        <ele>457</ele>
        <time>2020-07-11T13:08:09.000Z</time>
      </trkpt>
      <trkpt lat="45.77375" lon="3.05381">
        <ele>457</ele>
        <time>2020-07-11T13:08:10.000Z</time>
      </trkpt>
      <trkpt lat="45.77378" lon="3.05379">
        <ele>458</ele>
        <time>2020-07-11T13:08:11.000Z</time>
      </trkpt>
      <trkpt lat="45.7738" lon="3.05378">
        <ele>457</ele>
        <time>2020-07-11T13:08:12.000Z</time>
      </trkpt>
      <trkpt lat="45.77383" lon="3.05376">
        <ele>457</ele>
        <time>2020-07-11T13:08:13.000Z</time>
      </trkpt>
      <trkpt lat="45.77386" lon="3.05375">
        <ele>458</ele>
        <time>2020-07-11T13:08:14.000Z</time>
      </trkpt>
      <trkpt lat="45.77389" lon="3.05374">
        <ele>458</ele>
        <time>2020-07-11T13:08:15.000Z</time>
      </trkpt>
      <trkpt lat="45.77392" lon="3.05373">
        <ele>458</ele>
        <time>2020-07-11T13:08:16.000Z</time>
      </trkpt>
      <trkpt lat="45.77395" lon="3.05372">
        <ele>458</ele>
        <time>2020-07-11T13:08:17.000Z</time>
      </trkpt>
      <trkpt lat="45.77397" lon="3.05371">
        <ele>458</ele>
        <time>2020-07-11T13:08:18.000Z</time>
      </trkpt>
      <trkpt lat="45.774" lon="3.0537">
        <ele>458</ele>
        <time>2020-07-11T13:08:19.000Z</time>
      </trkpt>
      <trkpt lat="45.77403" lon="3.05369">
        <ele>458</ele>
        <time>2020-07-11T13:08:20.000Z</time>
      </trkpt>
      <trkpt lat="45.77406" lon="3.05369">
        <ele>457</ele>
        <time>2020-07-11T13:08:21.000Z</time>
      </trkpt>
      <trkpt lat="45.77409" lon="3.05369">
        <ele>456</ele>
        <time>2020-07-11T13:08:22.000Z</time>
      </trkpt>
      <trkpt lat="45.77412" lon="3.05369">
        <ele>457</ele>
        <time>2020-07-11T13:08:23.000Z</time>
      </trkpt>
      <trkpt lat="45.77415" lon="3.05369">
        <ele>457</ele>
        <time>2020-07-11T13:08:24.000Z</time>
      </trkpt>
      <trkpt lat="45.77418" lon="3.0537">
        <ele>458</ele>
        <time>2020-07-11T13:08:25.000Z</time>
      </trkpt>
      <trkpt lat="45.77421" lon="3.0537">
        <ele>458</ele>
        <time>2020-07-11T13:08:26.000Z</time>
      </trkpt>
      <trkpt lat="45.77424" lon="3.0537">
        <ele>457</ele>
        <time>2020-07-11T13:08:27.000Z</time>
      </trkpt>
      <trkpt lat="45.77426" lon="3.0537">
        <ele>458</ele>
        <time>2020-07-11T13:08:28.000Z</time>
      </trkpt>
      <trkpt lat="45.77429" lon="3.0537">
        <ele>459</ele>
        <time>2020-07-11T13:08:29.000Z</time>
      </trkpt>
      <trkpt lat="45.77432" lon="3.05369">
        <ele>460</ele>
        <time>2020-07-11T13:08:30.000Z</time>
      </trkpt>
      <trkpt lat="45.77435" lon="3.05369">
        <ele>461</ele>
        <time>2020-07-11T13:08:31.000Z</time>
      </trkpt>
      <trkpt lat="45.77437" lon="3.05368">
        <ele>460</ele>
        <time>2020-07-11T13:08:32.000Z</time>
      </trkpt>
      <trkpt lat="45.7744" lon="3.05367">
        <ele>460</ele>
        <time>2020-07-11T13:08:33.000Z</time>
      </trkpt>
      <trkpt lat="45.77443" lon="3.05366">
        <ele>459</ele>
        <time>2020-07-11T13:08:34.000Z</time>
      </trkpt>
      <trkpt lat="45.77446" lon="3.05365">
        <ele>460</ele>
        <time>2020-07-11T13:08:35.000Z</time>
      </trkpt>
      <trkpt lat="45.77448" lon="3.05364">
        <ele>460</ele>
        <time>2020-07-11T13:08:36.000Z</time>
      </trkpt>
      <trkpt lat="45.77451" lon="3.05363">
        <ele>460</ele>
        <time>2020-07-11T13:08:37.000Z</time>
      </trkpt>
      <trkpt lat="45.77454" lon="3.05362">
        <ele>460</ele>
        <time>2020-07-11T13:08:38.000Z</time>
      </trkpt>
      <trkpt lat="45.77456" lon="3.05361">
        <ele>458</ele>
        <time>2020-07-11T13:08:39.000Z</time>
      </trkpt>
      <trkpt lat="45.77459" lon="3.0536">
        <ele>458</ele>
        <time>2020-07-11T13:08:40.000Z</time>
      </trkpt>
      <trkpt lat="45.77462" lon="3.05359">
        <ele>457</ele>
        <time>2020-07-11T13:08:41.000Z</time>
      </trkpt>
      <trkpt lat="45.77464" lon="3.05358">
        <ele>457</ele>
        <time>2020-07-11T13:08:42.000Z</time>
      </trkpt>
      <trkpt lat="45.77467" lon="3.05357">
        <ele>458</ele>
        <time>2020-07-11T13:08:43.000Z</time>
      </trkpt>
      <trkpt lat="45.7747" lon="3.05356">
        <ele>458</ele>
        <time>2020-07-11T13:08:44.000Z</time>
      </trkpt>
      <trkpt lat="45.77472" lon="3.05355">
        <ele>458</ele>
        <time>2020-07-11T13:08:45.000Z</time>
      </trkpt>
      <trkpt lat="45.77475" lon="3.05354">
        <ele>458</ele>
        <time>2020-07-11T13:08:46.000Z</time>
      </trkpt>
      <trkpt lat="45.77478" lon="3.05353">
        <ele>457</ele>
        <time>2020-07-11T13:08:47.000Z</time>
      </trkpt>
      <trkpt lat="45.77481" lon="3.05352">
        <ele>457</ele>
        <time>2020-07-11T13:08:48.000Z</time>
      </trkpt>
      <trkpt lat="45.77484" lon="3.05352">
        <ele>457</ele>
        <time>2020-07-11T13:08:49.000Z</time>
      </trkpt>
      <trkpt lat="45.77487" lon="3.05351">
        <ele>457</ele>
        <time>2020-07-11T13:08:50.000Z</time>
      </trkpt>
      <trkpt lat="45.77489" lon="3.05351">
        <ele>457</ele>
        <time>2020-07-11T13:08:51.000Z</time>
      </trkpt>
      <trkpt lat="45.77492" lon="3.05351">
        <ele>456</ele>
        <time>2020-07-11T13:08:52.000Z</time>
      </trkpt>
      <trkpt lat="45.77495" lon="3.05351">
        <ele>455</ele>
        <time>2020-07-11T13:08:53.000Z</time>
      </trkpt>
      <trkpt lat="45.77499" lon="3.05351">
        <ele>454</ele>
        <time>2020-07-11T13:08:54.000Z</time>
      </trkpt>
      <trkpt lat="45.77502" lon="3.05352">
        <ele>454</ele>
        <time>2020-07-11T13:08:55.000Z</time>
      </trkpt>
      <trkpt lat="45.77505" lon="3.05352">
        <ele>454</ele>
        <time>2020-07-11T13:08:56.000Z</time>
      </trkpt>
      <trkpt lat="45.77509" lon="3.05353">
        <ele>454</ele>
        <time>2020-07-11T13:08:57.000Z</time>
      </trkpt>
      <trkpt lat="45.77512" lon="3.05353">
        <ele>454</ele>
        <time>2020-07-11T13:08:58.000Z</time>
      </trkpt>
      <trkpt lat="45.77515" lon="3.05354">
        <ele>454</ele>
        <time>2020-07-11T13:08:59.000Z</time>
      </trkpt>
      <trkpt lat="45.77518" lon="3.05354">
        <ele>455</ele>
        <time>2020-07-11T13:09:00.000Z</time>
      </trkpt>
      <trkpt lat="45.77521" lon="3.05354">
        <ele>454</ele>
        <time>2020-07-11T13:09:01.000Z</time>
      </trkpt>
      <trkpt lat="45.77523" lon="3.05355">
        <ele>455</ele>
        <time>2020-07-11T13:09:02.000Z</time>
      </trkpt>
      <trkpt lat="45.77526" lon="3.05356">
        <ele>455</ele>
        <time>2020-07-11T13:09:03.000Z</time>
      </trkpt>
      <trkpt lat="45.77528" lon="3.05358">
        <ele>455</ele>
        <time>2020-07-11T13:09:04.000Z</time>
      </trkpt>
      <trkpt lat="45.77531" lon="3.05359">
        <ele>456</ele>
        <time>2020-07-11T13:09:05.000Z</time>
      </trkpt>
      <trkpt lat="45.77533" lon="3.0536">
        <ele>457</ele>
        <time>2020-07-11T13:09:06.000Z</time>
      </trkpt>
      <trkpt lat="45.77535" lon="3.05362">
        <ele>456</ele>
        <time>2020-07-11T13:09:07.000Z</time>
      </trkpt>
      <trkpt lat="45.77537" lon="3.05363">
        <ele>457</ele>
        <time>2020-07-11T13:09:08.000Z</time>
      </trkpt>
      <trkpt lat="45.77538" lon="3.05365">
        <ele>457</ele>
        <time>2020-07-11T13:09:09.000Z</time>
      </trkpt>
      <trkpt lat="45.77541" lon="3.05366">
        <ele>457</ele>
        <time>2020-07-11T13:09:10.000Z</time>
      </trkpt>
      <trkpt lat="45.77543" lon="3.05366">
        <ele>457</ele>
        <time>2020-07-11T13:09:11.000Z</time>
      </trkpt>
      <trkpt lat="45.77545" lon="3.05366">
        <ele>457</ele>
        <time>2020-07-11T13:09:12.000Z</time>
      </trkpt>
      <trkpt lat="45.77547" lon="3.05365">
        <ele>457</ele>
        <time>2020-07-11T13:09:13.000Z</time>
      </trkpt>
      <trkpt lat="45.77549" lon="3.05363">
        <ele>457</ele>
        <time>2020-07-11T13:09:14.000Z</time>
      </trkpt>
      <trkpt lat="45.77551" lon="3.05361">
        <ele>456</ele>
        <time>2020-07-11T13:09:15.000Z</time>
      </trkpt>
      <trkpt lat="45.77553" lon="3.05358">
        <ele>456</ele>
        <time>2020-07-11T13:09:16.000Z</time>
      </trkpt>
      <trkpt lat="45.77554" lon="3.05356">
        <ele>456</ele>
        <time>2020-07-11T13:09:17.000Z</time>
      </trkpt>
      <trkpt lat="45.77556" lon="3.05354">
        <ele>457</ele>
        <time>2020-07-11T13:09:18.000Z</time>
      </trkpt>
      <trkpt lat="45.77558" lon="3.05352">
        <ele>457</ele>
        <time>2020-07-11T13:09:19.000Z</time>
      </trkpt>
      <trkpt lat="45.77559" lon="3.0535">
        <ele>457</ele>
        <time>2020-07-11T13:09:20.000Z</time>
      </trkpt>
      <trkpt lat="45.77561" lon="3.05348">
        <ele>457</ele>
        <time>2020-07-11T13:09:21.000Z</time>
      </trkpt>
      <trkpt lat="45.77562" lon="3.05345">
        <ele>457</ele>
        <time>2020-07-11T13:09:22.000Z</time>
      </trkpt>
      <trkpt lat="45.77564" lon="3.05343">
        <ele>457</ele>
        <time>2020-07-11T13:09:23.000Z</time>
      </trkpt>
      <trkpt lat="45.77565" lon="3.05341">
        <ele>457</ele>
        <time>2020-07-11T13:09:24.000Z</time>
      </trkpt>
      <trkpt lat="45.77566" lon="3.05339">
        <ele>458</ele>
        <time>2020-07-11T13:09:25.000Z</time>
      </trkpt>
      <trkpt lat="45.77568" lon="3.05337">
        <ele>458</ele>
        <time>2020-07-11T13:09:26.000Z</time>
      </trkpt>
      <trkpt lat="45.77569" lon="3.05335">
        <ele>459</ele>
        <time>2020-07-11T13:09:27.000Z</time>
      </trkpt>
      <trkpt lat="45.77571" lon="3.05332">
        <ele>459</ele>
        <time>2020-07-11T13:09:28.000Z</time>
      </trkpt>
      <trkpt lat="45.77572" lon="3.0533">
        <ele>460</ele>
        <time>2020-07-11T13:09:29.000Z</time>
      </trkpt>
      <trkpt lat="45.77574" lon="3.05327">
        <ele>460</ele>
        <time>2020-07-11T13:09:30.000Z</time>
      </trkpt>
      <trkpt lat="45.77575" lon="3.05325">
        <ele>459</ele>
        <time>2020-07-11T13:09:31.000Z</time>
      </trkpt>
      <trkpt lat="45.77577" lon="3.05323">
        <ele>459</ele>
        <time>2020-07-11T13:09:32.000Z</time>
      </trkpt>
      <trkpt lat="45.77578" lon="3.0532">
        <ele>459</ele>
        <time>2020-07-11T13:09:33.000Z</time>
      </trkpt>
      <trkpt lat="45.7758" lon="3.05318">
        <ele>459</ele>
        <time>2020-07-11T13:09:34.000Z</time>
      </trkpt>
      <trkpt lat="45.77581" lon="3.05315">
        <ele>459</ele>
        <time>2020-07-11T13:09:35.000Z</time>
      </trkpt>
      <trkpt lat="45.77582" lon="3.05313">
        <ele>459</ele>
        <time>2020-07-11T13:09:36.000Z</time>
      </trkpt>
      <trkpt lat="45.77584" lon="3.05311">
        <ele>460</ele>
        <time>2020-07-11T13:09:37.000Z</time>
      </trkpt>
      <trkpt lat="45.77585" lon="3.05308">
        <ele>460</ele>
        <time>2020-07-11T13:09:38.000Z</time>
      </trkpt>
      <trkpt lat="45.77586" lon="3.05305">
        <ele>461</ele>
        <time>2020-07-11T13:09:39.000Z</time>
      </trkpt>
      <trkpt lat="45.77587" lon="3.05303">
        <ele>461</ele>
        <time>2020-07-11T13:09:40.000Z</time>
      </trkpt>
      <trkpt lat="45.77589" lon="3.053">
        <ele>461</ele>
        <time>2020-07-11T13:09:41.000Z</time>
      </trkpt>
      <trkpt lat="45.7759" lon="3.05298">
        <ele>461</ele>
        <time>2020-07-11T13:09:42.000Z</time>
      </trkpt>
      <trkpt lat="45.77592" lon="3.05295">
        <ele>461</ele>
        <time>2020-07-11T13:09:43.000Z</time>
      </trkpt>
      <trkpt lat="45.77594" lon="3.05293">
        <ele>461</ele>
        <time>2020-07-11T13:09:44.000Z</time>
      </trkpt>
      <trkpt lat="45.77596" lon="3.0529">
        <ele>461</ele>
        <time>2020-07-11T13:09:45.000Z</time>
      </trkpt>
      <trkpt lat="45.77597" lon="3.05288">
        <ele>461</ele>
        <time>2020-07-11T13:09:46.000Z</time>
      </trkpt>
      <trkpt lat="45.77599" lon="3.05285">
        <ele>460</ele>
        <time>2020-07-11T13:09:47.000Z</time>
      </trkpt>
      <trkpt lat="45.77601" lon="3.05283">
        <ele>460</ele>
        <time>2020-07-11T13:09:48.000Z</time>
      </trkpt>
      <trkpt lat="45.77602" lon="3.05281">
        <ele>460</ele>
        <time>2020-07-11T13:09:49.000Z</time>
      </trkpt>
      <trkpt lat="45.77603" lon="3.05279">
        <ele>460</ele>
        <time>2020-07-11T13:09:50.000Z</time>
      </trkpt>
      <trkpt lat="45.77603" lon="3.05276">
        <ele>462</ele>
        <time>2020-07-11T13:09:51.000Z</time>
      </trkpt>
      <trkpt lat="45.77604" lon="3.05273">
        <ele>462</ele>
        <time>2020-07-11T13:09:52.000Z</time>
      </trkpt>
      <trkpt lat="45.77605" lon="3.0527">
        <ele>463</ele>
        <time>2020-07-11T13:09:53.000Z</time>
      </trkpt>
      <trkpt lat="45.77606" lon="3.05267">
        <ele>464</ele>
        <time>2020-07-11T13:09:54.000Z</time>
      </trkpt>
      <trkpt lat="45.77607" lon="3.05264">
        <ele>464</ele>
        <time>2020-07-11T13:09:55.000Z</time>
      </trkpt>
      <trkpt lat="45.77609" lon="3.05261">
        <ele>464</ele>
        <time>2020-07-11T13:09:56.000Z</time>
      </trkpt>
      <trkpt lat="45.7761" lon="3.05258">
        <ele>464</ele>
        <time>2020-07-11T13:09:57.000Z</time>
      </trkpt>
      <trkpt lat="45.77611" lon="3.05256">
        <ele>465</ele>
        <time>2020-07-11T13:09:58.000Z</time>
      </trkpt>
      <trkpt lat="45.77613" lon="3.05253">
        <ele>465</ele>
        <time>2020-07-11T13:09:59.000Z</time>
      </trkpt>
      <trkpt lat="45.77614" lon="3.0525">
        <ele>466</ele>
        <time>2020-07-11T13:10:00.000Z</time>
      </trkpt>
      <trkpt lat="45.77615" lon="3.05248">
        <ele>468</ele>
        <time>2020-07-11T13:10:01.000Z</time>
      </trkpt>
      <trkpt lat="45.77616" lon="3.05245">
        <ele>468</ele>
        <time>2020-07-11T13:10:02.000Z</time>
      </trkpt>
      <trkpt lat="45.77617" lon="3.05243">
        <ele>468</ele>
        <time>2020-07-11T13:10:03.000Z</time>
      </trkpt>
      <trkpt lat="45.77617" lon="3.0524">
        <ele>468</ele>
        <time>2020-07-11T13:10:04.000Z</time>
      </trkpt>
      <trkpt lat="45.77618" lon="3.05237">
        <ele>468</ele>
        <time>2020-07-11T13:10:05.000Z</time>
      </trkpt>
      <trkpt lat="45.77619" lon="3.05233">
        <ele>469</ele>
        <time>2020-07-11T13:10:06.000Z</time>
      </trkpt>
      <trkpt lat="45.7762" lon="3.0523">
        <ele>469</ele>
        <time>2020-07-11T13:10:07.000Z</time>
      </trkpt>
      <trkpt lat="45.77621" lon="3.05227">
        <ele>470</ele>
        <time>2020-07-11T13:10:08.000Z</time>
      </trkpt>
      <trkpt lat="45.77622" lon="3.05224">
        <ele>470</ele>
        <time>2020-07-11T13:10:09.000Z</time>
      </trkpt>
      <trkpt lat="45.77623" lon="3.05221">
        <ele>470</ele>
        <time>2020-07-11T13:10:10.000Z</time>
      </trkpt>
      <trkpt lat="45.77624" lon="3.05218">
        <ele>470</ele>
        <time>2020-07-11T13:10:11.000Z</time>
      </trkpt>
      <trkpt lat="45.77625" lon="3.05214">
        <ele>471</ele>
        <time>2020-07-11T13:10:12.000Z</time>
      </trkpt>
      <trkpt lat="45.77626" lon="3.05211">
        <ele>471</ele>
        <time>2020-07-11T13:10:13.000Z</time>
      </trkpt>
      <trkpt lat="45.77627" lon="3.05208">
        <ele>472</ele>
        <time>2020-07-11T13:10:14.000Z</time>
      </trkpt>
      <trkpt lat="45.77628" lon="3.05205">
        <ele>473</ele>
        <time>2020-07-11T13:10:15.000Z</time>
      </trkpt>
      <trkpt lat="45.77629" lon="3.05202">
        <ele>474</ele>
        <time>2020-07-11T13:10:16.000Z</time>
      </trkpt>
      <trkpt lat="45.7763" lon="3.05199">
        <ele>474</ele>
        <time>2020-07-11T13:10:17.000Z</time>
      </trkpt>
      <trkpt lat="45.77632" lon="3.05196">
        <ele>473</ele>
        <time>2020-07-11T13:10:18.000Z</time>
      </trkpt>
      <trkpt lat="45.77633" lon="3.05193">
        <ele>473</ele>
        <time>2020-07-11T13:10:19.000Z</time>
      </trkpt>
      <trkpt lat="45.77634" lon="3.0519">
        <ele>473</ele>
        <time>2020-07-11T13:10:20.000Z</time>
      </trkpt>
      <trkpt lat="45.77635" lon="3.05186">
        <ele>471</ele>
        <time>2020-07-11T13:10:21.000Z</time>
      </trkpt>
      <trkpt lat="45.77636" lon="3.05183">
        <ele>471</ele>
        <time>2020-07-11T13:10:22.000Z</time>
      </trkpt>
      <trkpt lat="45.77637" lon="3.05179">
        <ele>470</ele>
        <time>2020-07-11T13:10:23.000Z</time>
      </trkpt>
      <trkpt lat="45.77638" lon="3.05176">
        <ele>471</ele>
        <time>2020-07-11T13:10:24.000Z</time>
      </trkpt>
      <trkpt lat="45.7764" lon="3.05173">
        <ele>470</ele>
        <time>2020-07-11T13:10:25.000Z</time>
      </trkpt>
      <trkpt lat="45.77641" lon="3.0517">
        <ele>471</ele>
        <time>2020-07-11T13:10:26.000Z</time>
      </trkpt>
      <trkpt lat="45.77642" lon="3.05167">
        <ele>472</ele>
        <time>2020-07-11T13:10:27.000Z</time>
      </trkpt>
      <trkpt lat="45.77643" lon="3.05164">
        <ele>472</ele>
        <time>2020-07-11T13:10:28.000Z</time>
      </trkpt>
      <trkpt lat="45.77644" lon="3.0516">
        <ele>472</ele>
        <time>2020-07-11T13:10:29.000Z</time>
      </trkpt>
      <trkpt lat="45.77645" lon="3.05157">
        <ele>471</ele>
        <time>2020-07-11T13:10:30.000Z</time>
      </trkpt>
      <trkpt lat="45.77646" lon="3.05154">
        <ele>471</ele>
        <time>2020-07-11T13:10:31.000Z</time>
      </trkpt>
      <trkpt lat="45.77647" lon="3.05151">
        <ele>471</ele>
        <time>2020-07-11T13:10:32.000Z</time>
      </trkpt>
      <trkpt lat="45.77649" lon="3.05148">
        <ele>472</ele>
        <time>2020-07-11T13:10:33.000Z</time>
      </trkpt>
      <trkpt lat="45.77652" lon="3.05145">
        <ele>472</ele>
        <time>2020-07-11T13:10:34.000Z</time>
      </trkpt>
      <trkpt lat="45.77654" lon="3.05142">
        <ele>472</ele>
        <time>2020-07-11T13:10:35.000Z</time>
      </trkpt>
      <trkpt lat="45.77656" lon="3.05138">
        <ele>472</ele>
        <time>2020-07-11T13:10:36.000Z</time>
      </trkpt>
      <trkpt lat="45.77658" lon="3.05135">
        <ele>472</ele>
        <time>2020-07-11T13:10:37.000Z</time>
      </trkpt>
      <trkpt lat="45.7766" lon="3.05132">
        <ele>472</ele>
        <time>2020-07-11T13:10:38.000Z</time>
      </trkpt>
      <trkpt lat="45.77661" lon="3.05129">
        <ele>472</ele>
        <time>2020-07-11T13:10:39.000Z</time>
      </trkpt>
      <trkpt lat="45.77663" lon="3.05126">
        <ele>472</ele>
        <time>2020-07-11T13:10:40.000Z</time>
      </trkpt>
      <trkpt lat="45.77665" lon="3.05123">
        <ele>472</ele>
        <time>2020-07-11T13:10:41.000Z</time>
      </trkpt>
      <trkpt lat="45.77666" lon="3.0512">
        <ele>472</ele>
        <time>2020-07-11T13:10:42.000Z</time>
      </trkpt>
      <trkpt lat="45.77667" lon="3.05117">
        <ele>473</ele>
        <time>2020-07-11T13:10:43.000Z</time>
      </trkpt>
      <trkpt lat="45.77669" lon="3.05114">
        <ele>473</ele>
        <time>2020-07-11T13:10:44.000Z</time>
      </trkpt>
      <trkpt lat="45.7767" lon="3.05111">
        <ele>473</ele>
        <time>2020-07-11T13:10:45.000Z</time>
      </trkpt>
      <trkpt lat="45.77672" lon="3.05109">
        <ele>472</ele>
        <time>2020-07-11T13:10:46.000Z</time>
      </trkpt>
      <trkpt lat="45.77674" lon="3.05106">
        <ele>472</ele>
        <time>2020-07-11T13:10:47.000Z</time>
      </trkpt>
      <trkpt lat="45.77676" lon="3.05104">
        <ele>473</ele>
        <time>2020-07-11T13:10:48.000Z</time>
      </trkpt>
      <trkpt lat="45.77677" lon="3.05101">
        <ele>474</ele>
        <time>2020-07-11T13:10:49.000Z</time>
      </trkpt>
      <trkpt lat="45.77679" lon="3.05098">
        <ele>474</ele>
        <time>2020-07-11T13:10:50.000Z</time>
      </trkpt>
      <trkpt lat="45.7768" lon="3.05095">
        <ele>474</ele>
        <time>2020-07-11T13:10:51.000Z</time>
      </trkpt>
      <trkpt lat="45.77682" lon="3.05092">
        <ele>474</ele>
        <time>2020-07-11T13:10:52.000Z</time>
      </trkpt>
      <trkpt lat="45.77683" lon="3.0509">
        <ele>474</ele>
        <time>2020-07-11T13:10:53.000Z</time>
      </trkpt>
      <trkpt lat="45.77685" lon="3.05087">
        <ele>474</ele>
        <time>2020-07-11T13:10:54.000Z</time>
      </trkpt>
      <trkpt lat="45.77686" lon="3.05084">
        <ele>474</ele>
        <time>2020-07-11T13:10:55.000Z</time>
      </trkpt>
      <trkpt lat="45.77687" lon="3.0508">
        <ele>474</ele>
        <time>2020-07-11T13:10:56.000Z</time>
      </trkpt>
      <trkpt lat="45.77689" lon="3.05077">
        <ele>474</ele>
        <time>2020-07-11T13:10:57.000Z</time>
      </trkpt>
      <trkpt lat="45.7769" lon="3.05074">
        <ele>475</ele>
        <time>2020-07-11T13:10:58.000Z</time>
      </trkpt>
      <trkpt lat="45.77692" lon="3.0507">
        <ele>476</ele>
        <time>2020-07-11T13:10:59.000Z</time>
      </trkpt>
      <trkpt lat="45.77694" lon="3.05067">
        <ele>477</ele>
        <time>2020-07-11T13:11:00.000Z</time>
      </trkpt>
      <trkpt lat="45.77696" lon="3.05064">
        <ele>476</ele>
        <time>2020-07-11T13:11:01.000Z</time>
      </trkpt>
      <trkpt lat="45.77698" lon="3.05061">
        <ele>476</ele>
        <time>2020-07-11T13:11:02.000Z</time>
      </trkpt>
      <trkpt lat="45.777" lon="3.05058">
        <ele>476</ele>
        <time>2020-07-11T13:11:03.000Z</time>
      </trkpt>
      <trkpt lat="45.77702" lon="3.05055">
        <ele>477</ele>
        <time>2020-07-11T13:11:04.000Z</time>
      </trkpt>
      <trkpt lat="45.77703" lon="3.05052">
        <ele>477</ele>
        <time>2020-07-11T13:11:05.000Z</time>
      </trkpt>
      <trkpt lat="45.77704" lon="3.05049">
        <ele>477</ele>
        <time>2020-07-11T13:11:06.000Z</time>
      </trkpt>
      <trkpt lat="45.77704" lon="3.05045">
        <ele>477</ele>
        <time>2020-07-11T13:11:07.000Z</time>
      </trkpt>
      <trkpt lat="45.77705" lon="3.05041">
        <ele>477</ele>
        <time>2020-07-11T13:11:08.000Z</time>
      </trkpt>
      <trkpt lat="45.77705" lon="3.05038">
        <ele>477</ele>
        <time>2020-07-11T13:11:09.000Z</time>
      </trkpt>
      <trkpt lat="45.77706" lon="3.05034">
        <ele>477</ele>
        <time>2020-07-11T13:11:10.000Z</time>
      </trkpt>
      <trkpt lat="45.77707" lon="3.05031">
        <ele>478</ele>
        <time>2020-07-11T13:11:11.000Z</time>
      </trkpt>
      <trkpt lat="45.77708" lon="3.05028">
        <ele>478</ele>
        <time>2020-07-11T13:11:12.000Z</time>
      </trkpt>
      <trkpt lat="45.7771" lon="3.05025">
        <ele>479</ele>
        <time>2020-07-11T13:11:13.000Z</time>
      </trkpt>
      <trkpt lat="45.77712" lon="3.05021">
        <ele>478</ele>
        <time>2020-07-11T13:11:14.000Z</time>
      </trkpt>
      <trkpt lat="45.77714" lon="3.05019">
        <ele>479</ele>
        <time>2020-07-11T13:11:15.000Z</time>
      </trkpt>
      <trkpt lat="45.77717" lon="3.05016">
        <ele>479</ele>
        <time>2020-07-11T13:11:16.000Z</time>
      </trkpt>
      <trkpt lat="45.77719" lon="3.05014">
        <ele>479</ele>
        <time>2020-07-11T13:11:17.000Z</time>
      </trkpt>
      <trkpt lat="45.77722" lon="3.05013">
        <ele>479</ele>
        <time>2020-07-11T13:11:18.000Z</time>
      </trkpt>
      <trkpt lat="45.77724" lon="3.05011">
        <ele>480</ele>
        <time>2020-07-11T13:11:19.000Z</time>
      </trkpt>
      <trkpt lat="45.77727" lon="3.0501">
        <ele>480</ele>
        <time>2020-07-11T13:11:20.000Z</time>
      </trkpt>
      <trkpt lat="45.77729" lon="3.05009">
        <ele>480</ele>
        <time>2020-07-11T13:11:21.000Z</time>
      </trkpt>
      <trkpt lat="45.77731" lon="3.05008">
        <ele>481</ele>
        <time>2020-07-11T13:11:22.000Z</time>
      </trkpt>
      <trkpt lat="45.77734" lon="3.05007">
        <ele>483</ele>
        <time>2020-07-11T13:11:23.000Z</time>
      </trkpt>
      <trkpt lat="45.77736" lon="3.05006">
        <ele>483</ele>
        <time>2020-07-11T13:11:24.000Z</time>
      </trkpt>
      <trkpt lat="45.77738" lon="3.05004">
        <ele>484</ele>
        <time>2020-07-11T13:11:25.000Z</time>
      </trkpt>
      <trkpt lat="45.77739" lon="3.05002">
        <ele>484</ele>
        <time>2020-07-11T13:11:26.000Z</time>
      </trkpt>
      <trkpt lat="45.77741" lon="3.05">
        <ele>485</ele>
        <time>2020-07-11T13:11:27.000Z</time>
      </trkpt>
      <trkpt lat="45.77743" lon="3.04998">
        <ele>485</ele>
        <time>2020-07-11T13:11:28.000Z</time>
      </trkpt>
      <trkpt lat="45.77745" lon="3.04996">
        <ele>485</ele>
        <time>2020-07-11T13:11:29.000Z</time>
      </trkpt>
      <trkpt lat="45.77746" lon="3.04994">
        <ele>485</ele>
        <time>2020-07-11T13:11:30.000Z</time>
      </trkpt>
      <trkpt lat="45.77748" lon="3.04992">
        <ele>484</ele>
        <time>2020-07-11T13:11:31.000Z</time>
      </trkpt>
      <trkpt lat="45.7775" lon="3.04991">
        <ele>484</ele>
        <time>2020-07-11T13:11:32.000Z</time>
      </trkpt>
      <trkpt lat="45.77753" lon="3.0499">
        <ele>485</ele>
        <time>2020-07-11T13:11:33.000Z</time>
      </trkpt>
      <trkpt lat="45.77755" lon="3.04988">
        <ele>485</ele>
        <time>2020-07-11T13:11:34.000Z</time>
      </trkpt>
      <trkpt lat="45.77758" lon="3.04987">
        <ele>486</ele>
        <time>2020-07-11T13:11:35.000Z</time>
      </trkpt>
      <trkpt lat="45.7776" lon="3.04985">
        <ele>486</ele>
        <time>2020-07-11T13:11:36.000Z</time>
      </trkpt>
      <trkpt lat="45.77762" lon="3.04983">
        <ele>486</ele>
        <time>2020-07-11T13:11:37.000Z</time>
      </trkpt>
      <trkpt lat="45.77764" lon="3.04981">
        <ele>487</ele>
        <time>2020-07-11T13:11:38.000Z</time>
      </trkpt>
      <trkpt lat="45.77767" lon="3.04979">
        <ele>487</ele>
        <time>2020-07-11T13:11:39.000Z</time>
      </trkpt>
      <trkpt lat="45.77769" lon="3.04978">
        <ele>487</ele>
        <time>2020-07-11T13:11:40.000Z</time>
      </trkpt>
      <trkpt lat="45.77771" lon="3.04976">
        <ele>487</ele>
        <time>2020-07-11T13:11:41.000Z</time>
      </trkpt>
      <trkpt lat="45.77773" lon="3.04974">
        <ele>488</ele>
        <time>2020-07-11T13:11:42.000Z</time>
      </trkpt>
      <trkpt lat="45.77775" lon="3.04973">
        <ele>488</ele>
        <time>2020-07-11T13:11:43.000Z</time>
      </trkpt>
      <trkpt lat="45.77777" lon="3.04971">
        <ele>488</ele>
        <time>2020-07-11T13:11:44.000Z</time>
      </trkpt>
      <trkpt lat="45.77779" lon="3.04969">
        <ele>488</ele>
        <time>2020-07-11T13:11:45.000Z</time>
      </trkpt>
      <trkpt lat="45.77781" lon="3.04968">
        <ele>490</ele>
        <time>2020-07-11T13:11:46.000Z</time>
      </trkpt>
      <trkpt lat="45.77783" lon="3.04967">
        <ele>490</ele>
        <time>2020-07-11T13:11:47.000Z</time>
      </trkpt>
      <trkpt lat="45.77785" lon="3.04966">
        <ele>490</ele>
        <time>2020-07-11T13:11:48.000Z</time>
      </trkpt>
      <trkpt lat="45.77787" lon="3.04965">
        <ele>490</ele>
        <time>2020-07-11T13:11:49.000Z</time>
      </trkpt>
      <trkpt lat="45.77789" lon="3.04963">
        <ele>490</ele>
        <time>2020-07-11T13:11:50.000Z</time>
      </trkpt>
      <trkpt lat="45.77791" lon="3.04962">
        <ele>490</ele>
        <time>2020-07-11T13:11:51.000Z</time>
      </trkpt>
      <trkpt lat="45.77793" lon="3.04961">
        <ele>491</ele>
        <time>2020-07-11T13:11:52.000Z</time>
      </trkpt>
      <trkpt lat="45.77795" lon="3.0496">
        <ele>490</ele>
        <time>2020-07-11T13:11:53.000Z</time>
      </trkpt>
      <trkpt lat="45.77796" lon="3.04958">
        <ele>490</ele>
        <time>2020-07-11T13:11:54.000Z</time>
      </trkpt>
      <trkpt lat="45.77798" lon="3.04957">
        <ele>489</ele>
        <time>2020-07-11T13:11:55.000Z</time>
      </trkpt>
      <trkpt lat="45.77801" lon="3.04955">
        <ele>490</ele>
        <time>2020-07-11T13:11:56.000Z</time>
      </trkpt>
      <trkpt lat="45.77804" lon="3.04954">
        <ele>490</ele>
        <time>2020-07-11T13:11:57.000Z</time>
      </trkpt>
      <trkpt lat="45.77806" lon="3.04952">
        <ele>490</ele>
        <time>2020-07-11T13:11:58.000Z</time>
      </trkpt>
      <trkpt lat="45.77808" lon="3.04951">
        <ele>490</ele>
        <time>2020-07-11T13:11:59.000Z</time>
      </trkpt>
      <trkpt lat="45.7781" lon="3.0495">
        <ele>491</ele>
        <time>2020-07-11T13:12:00.000Z</time>
      </trkpt>
      <trkpt lat="45.77812" lon="3.0495">
        <ele>491</ele>
        <time>2020-07-11T13:12:01.000Z</time>
      </trkpt>
      <trkpt lat="45.77814" lon="3.04949">
        <ele>492</ele>
        <time>2020-07-11T13:12:02.000Z</time>
      </trkpt>
      <trkpt lat="45.77816" lon="3.04948">
        <ele>492</ele>
        <time>2020-07-11T13:12:03.000Z</time>
      </trkpt>
      <trkpt lat="45.77818" lon="3.04946">
        <ele>491</ele>
        <time>2020-07-11T13:12:04.000Z</time>
      </trkpt>
      <trkpt lat="45.77819" lon="3.04945">
        <ele>491</ele>
        <time>2020-07-11T13:12:05.000Z</time>
      </trkpt>
      <trkpt lat="45.7782" lon="3.04944">
        <ele>491</ele>
        <time>2020-07-11T13:12:06.000Z</time>
      </trkpt>
      <trkpt lat="45.77822" lon="3.04943">
        <ele>491</ele>
        <time>2020-07-11T13:12:07.000Z</time>
      </trkpt>
      <trkpt lat="45.77824" lon="3.04941">
        <ele>491</ele>
        <time>2020-07-11T13:12:08.000Z</time>
      </trkpt>
      <trkpt lat="45.77826" lon="3.0494">
        <ele>492</ele>
        <time>2020-07-11T13:12:09.000Z</time>
      </trkpt>
      <trkpt lat="45.77829" lon="3.04939">
        <ele>492</ele>
        <time>2020-07-11T13:12:10.000Z</time>
      </trkpt>
      <trkpt lat="45.77831" lon="3.04937">
        <ele>493</ele>
        <time>2020-07-11T13:12:11.000Z</time>
      </trkpt>
      <trkpt lat="45.77833" lon="3.04936">
        <ele>493</ele>
        <time>2020-07-11T13:12:12.000Z</time>
      </trkpt>
      <trkpt lat="45.77836" lon="3.04935">
        <ele>493</ele>
        <time>2020-07-11T13:12:13.000Z</time>
      </trkpt>
      <trkpt lat="45.77838" lon="3.04934">
        <ele>494</ele>
        <time>2020-07-11T13:12:14.000Z</time>
      </trkpt>
      <trkpt lat="45.77841" lon="3.04933">
        <ele>493</ele>
        <time>2020-07-11T13:12:15.000Z</time>
      </trkpt>
      <trkpt lat="45.77843" lon="3.04931">
        <ele>493</ele>
        <time>2020-07-11T13:12:16.000Z</time>
      </trkpt>
      <trkpt lat="45.77845" lon="3.0493">
        <ele>493</ele>
        <time>2020-07-11T13:12:17.000Z</time>
      </trkpt>
      <trkpt lat="45.77847" lon="3.04929">
        <ele>493</ele>
        <time>2020-07-11T13:12:18.000Z</time>
      </trkpt>
      <trkpt lat="45.77849" lon="3.04927">
        <ele>494</ele>
        <time>2020-07-11T13:12:19.000Z</time>
      </trkpt>
      <trkpt lat="45.77852" lon="3.04926">
        <ele>495</ele>
        <time>2020-07-11T13:12:20.000Z</time>
      </trkpt>
      <trkpt lat="45.77854" lon="3.04924">
        <ele>495</ele>
        <time>2020-07-11T13:12:21.000Z</time>
      </trkpt>
      <trkpt lat="45.77856" lon="3.04923">
        <ele>496</ele>
        <time>2020-07-11T13:12:22.000Z</time>
      </trkpt>
      <trkpt lat="45.77858" lon="3.04921">
        <ele>496</ele>
        <time>2020-07-11T13:12:23.000Z</time>
      </trkpt>
      <trkpt lat="45.7786" lon="3.04919">
        <ele>496</ele>
        <time>2020-07-11T13:12:24.000Z</time>
      </trkpt>
      <trkpt lat="45.77861" lon="3.04917">
        <ele>496</ele>
        <time>2020-07-11T13:12:25.000Z</time>
      </trkpt>
      <trkpt lat="45.77863" lon="3.04914">
        <ele>497</ele>
        <time>2020-07-11T13:12:26.000Z</time>
      </trkpt>
      <trkpt lat="45.77865" lon="3.04912">
        <ele>497</ele>
        <time>2020-07-11T13:12:27.000Z</time>
      </trkpt>
      <trkpt lat="45.77867" lon="3.0491">
        <ele>497</ele>
        <time>2020-07-11T13:12:28.000Z</time>
      </trkpt>
      <trkpt lat="45.77868" lon="3.04908">
        <ele>497</ele>
        <time>2020-07-11T13:12:29.000Z</time>
      </trkpt>
      <trkpt lat="45.7787" lon="3.04906">
        <ele>497</ele>
        <time>2020-07-11T13:12:30.000Z</time>
      </trkpt>
      <trkpt lat="45.77871" lon="3.04903">
        <ele>498</ele>
        <time>2020-07-11T13:12:31.000Z</time>
      </trkpt>
      <trkpt lat="45.77873" lon="3.04901">
        <ele>498</ele>
        <time>2020-07-11T13:12:32.000Z</time>
      </trkpt>
      <trkpt lat="45.77874" lon="3.04899">
        <ele>499</ele>
        <time>2020-07-11T13:12:33.000Z</time>
      </trkpt>
      <trkpt lat="45.77876" lon="3.04897">
        <ele>498</ele>
        <time>2020-07-11T13:12:34.000Z</time>
      </trkpt>
      <trkpt lat="45.77877" lon="3.04895">
        <ele>499</ele>
        <time>2020-07-11T13:12:35.000Z</time>
      </trkpt>
      <trkpt lat="45.77878" lon="3.04894">
        <ele>499</ele>
        <time>2020-07-11T13:12:36.000Z</time>
      </trkpt>
      <trkpt lat="45.7788" lon="3.04892">
        <ele>499</ele>
        <time>2020-07-11T13:12:37.000Z</time>
      </trkpt>
      <trkpt lat="45.77882" lon="3.0489">
        <ele>499</ele>
        <time>2020-07-11T13:12:38.000Z</time>
      </trkpt>
      <trkpt lat="45.77883" lon="3.04888">
        <ele>499</ele>
        <time>2020-07-11T13:12:39.000Z</time>
      </trkpt>
      <trkpt lat="45.77885" lon="3.04886">
        <ele>499</ele>
        <time>2020-07-11T13:12:40.000Z</time>
      </trkpt>
      <trkpt lat="45.77887" lon="3.04885">
        <ele>499</ele>
        <time>2020-07-11T13:12:41.000Z</time>
      </trkpt>
      <trkpt lat="45.77888" lon="3.04883">
        <ele>499</ele>
        <time>2020-07-11T13:12:42.000Z</time>
      </trkpt>
      <trkpt lat="45.7789" lon="3.04882">
        <ele>499</ele>
        <time>2020-07-11T13:12:43.000Z</time>
      </trkpt>
      <trkpt lat="45.77892" lon="3.0488">
        <ele>499</ele>
        <time>2020-07-11T13:12:44.000Z</time>
      </trkpt>
      <trkpt lat="45.77895" lon="3.04879">
        <ele>500</ele>
        <time>2020-07-11T13:12:45.000Z</time>
      </trkpt>
      <trkpt lat="45.77897" lon="3.04877">
        <ele>501</ele>
        <time>2020-07-11T13:12:46.000Z</time>
      </trkpt>
      <trkpt lat="45.77899" lon="3.04875">
        <ele>500</ele>
        <time>2020-07-11T13:12:47.000Z</time>
      </trkpt>
      <trkpt lat="45.77901" lon="3.04873">
        <ele>501</ele>
        <time>2020-07-11T13:12:48.000Z</time>
      </trkpt>
      <trkpt lat="45.77903" lon="3.04871">
        <ele>501</ele>
        <time>2020-07-11T13:12:49.000Z</time>
      </trkpt>
      <trkpt lat="45.77905" lon="3.04869">
        <ele>501</ele>
        <time>2020-07-11T13:12:50.000Z</time>
      </trkpt>
      <trkpt lat="45.77907" lon="3.04867">
        <ele>500</ele>
        <time>2020-07-11T13:12:51.000Z</time>
      </trkpt>
      <trkpt lat="45.77909" lon="3.04865">
        <ele>500</ele>
        <time>2020-07-11T13:12:52.000Z</time>
      </trkpt>
      <trkpt lat="45.77912" lon="3.04864">
        <ele>500</ele>
        <time>2020-07-11T13:12:53.000Z</time>
      </trkpt>
      <trkpt lat="45.77914" lon="3.04862">
        <ele>500</ele>
        <time>2020-07-11T13:12:54.000Z</time>
      </trkpt>
      <trkpt lat="45.77916" lon="3.04861">
        <ele>500</ele>
        <time>2020-07-11T13:12:55.000Z</time>
      </trkpt>
      <trkpt lat="45.77919" lon="3.04859">
        <ele>500</ele>
        <time>2020-07-11T13:12:56.000Z</time>
      </trkpt>
      <trkpt lat="45.77921" lon="3.04857">
        <ele>500</ele>
        <time>2020-07-11T13:12:57.000Z</time>
      </trkpt>
      <trkpt lat="45.77923" lon="3.04855">
        <ele>500</ele>
        <time>2020-07-11T13:12:58.000Z</time>
      </trkpt>
      <trkpt lat="45.77925" lon="3.04854">
        <ele>500</ele>
        <time>2020-07-11T13:12:59.000Z</time>
      </trkpt>
      <trkpt lat="45.77927" lon="3.04853">
        <ele>500</ele>
        <time>2020-07-11T13:13:00.000Z</time>
      </trkpt>
      <trkpt lat="45.7793" lon="3.04851">
        <ele>500</ele>
        <time>2020-07-11T13:13:01.000Z</time>
      </trkpt>
      <trkpt lat="45.77932" lon="3.0485">
        <ele>501</ele>
        <time>2020-07-11T13:13:02.000Z</time>
      </trkpt>
      <trkpt lat="45.77934" lon="3.04848">
        <ele>502</ele>
        <time>2020-07-11T13:13:03.000Z</time>
      </trkpt>
      <trkpt lat="45.77936" lon="3.04846">
        <ele>503</ele>
        <time>2020-07-11T13:13:04.000Z</time>
      </trkpt>
      <trkpt lat="45.77939" lon="3.04844">
        <ele>503</ele>
        <time>2020-07-11T13:13:05.000Z</time>
      </trkpt>
      <trkpt lat="45.77941" lon="3.04843">
        <ele>504</ele>
        <time>2020-07-11T13:13:06.000Z</time>
      </trkpt>
      <trkpt lat="45.77942" lon="3.04841">
        <ele>506</ele>
        <time>2020-07-11T13:13:07.000Z</time>
      </trkpt>
      <trkpt lat="45.77944" lon="3.04839">
        <ele>505</ele>
        <time>2020-07-11T13:13:08.000Z</time>
      </trkpt>
      <trkpt lat="45.77945" lon="3.04838">
        <ele>505</ele>
        <time>2020-07-11T13:13:09.000Z</time>
      </trkpt>
      <trkpt lat="45.77947" lon="3.04836">
        <ele>506</ele>
        <time>2020-07-11T13:13:10.000Z</time>
      </trkpt>
      <trkpt lat="45.77948" lon="3.04834">
        <ele>506</ele>
        <time>2020-07-11T13:13:11.000Z</time>
      </trkpt>
      <trkpt lat="45.7795" lon="3.04832">
        <ele>506</ele>
        <time>2020-07-11T13:13:12.000Z</time>
      </trkpt>
      <trkpt lat="45.77951" lon="3.04831">
        <ele>506</ele>
        <time>2020-07-11T13:13:13.000Z</time>
      </trkpt>
      <trkpt lat="45.77953" lon="3.0483">
        <ele>506</ele>
        <time>2020-07-11T13:13:14.000Z</time>
      </trkpt>
      <trkpt lat="45.77954" lon="3.04829">
        <ele>507</ele>
        <time>2020-07-11T13:13:15.000Z</time>
      </trkpt>
      <trkpt lat="45.77956" lon="3.04828">
        <ele>507</ele>
        <time>2020-07-11T13:13:16.000Z</time>
      </trkpt>
      <trkpt lat="45.77957" lon="3.04827">
        <ele>507</ele>
        <time>2020-07-11T13:13:17.000Z</time>
      </trkpt>
      <trkpt lat="45.77959" lon="3.04825">
        <ele>507</ele>
        <time>2020-07-11T13:13:18.000Z</time>
      </trkpt>
      <trkpt lat="45.7796" lon="3.04824">
        <ele>507</ele>
        <time>2020-07-11T13:13:19.000Z</time>
      </trkpt>
      <trkpt lat="45.77961" lon="3.04821">
        <ele>506</ele>
        <time>2020-07-11T13:13:20.000Z</time>
      </trkpt>
      <trkpt lat="45.77962" lon="3.04818">
        <ele>506</ele>
        <time>2020-07-11T13:13:21.000Z</time>
      </trkpt>
      <trkpt lat="45.77963" lon="3.04816">
        <ele>506</ele>
        <time>2020-07-11T13:13:22.000Z</time>
      </trkpt>
      <trkpt lat="45.77964" lon="3.04814">
        <ele>505</ele>
        <time>2020-07-11T13:13:23.000Z</time>
      </trkpt>
      <trkpt lat="45.77965" lon="3.04812">
        <ele>505</ele>
        <time>2020-07-11T13:13:24.000Z</time>
      </trkpt>
      <trkpt lat="45.77967" lon="3.0481">
        <ele>505</ele>
        <time>2020-07-11T13:13:25.000Z</time>
      </trkpt>
      <trkpt lat="45.77968" lon="3.04808">
        <ele>505</ele>
        <time>2020-07-11T13:13:26.000Z</time>
      </trkpt>
      <trkpt lat="45.7797" lon="3.04806">
        <ele>506</ele>
        <time>2020-07-11T13:13:27.000Z</time>
      </trkpt>
      <trkpt lat="45.77972" lon="3.04804">
        <ele>506</ele>
        <time>2020-07-11T13:13:28.000Z</time>
      </trkpt>
      <trkpt lat="45.77974" lon="3.04801">
        <ele>506</ele>
        <time>2020-07-11T13:13:29.000Z</time>
      </trkpt>
      <trkpt lat="45.77977" lon="3.04798">
        <ele>506</ele>
        <time>2020-07-11T13:13:30.000Z</time>
      </trkpt>
      <trkpt lat="45.77978" lon="3.04796">
        <ele>508</ele>
        <time>2020-07-11T13:13:31.000Z</time>
      </trkpt>
      <trkpt lat="45.7798" lon="3.04793">
        <ele>509</ele>
        <time>2020-07-11T13:13:32.000Z</time>
      </trkpt>
      <trkpt lat="45.77981" lon="3.04791">
        <ele>510</ele>
        <time>2020-07-11T13:13:33.000Z</time>
      </trkpt>
      <trkpt lat="45.77982" lon="3.04788">
        <ele>510</ele>
        <time>2020-07-11T13:13:34.000Z</time>
      </trkpt>
      <trkpt lat="45.77984" lon="3.04785">
        <ele>510</ele>
        <time>2020-07-11T13:13:35.000Z</time>
      </trkpt>
      <trkpt lat="45.77985" lon="3.04782">
        <ele>510</ele>
        <time>2020-07-11T13:13:36.000Z</time>
      </trkpt>
      <trkpt lat="45.77986" lon="3.04779">
        <ele>512</ele>
        <time>2020-07-11T13:13:37.000Z</time>
      </trkpt>
      <trkpt lat="45.77988" lon="3.04776">
        <ele>513</ele>
        <time>2020-07-11T13:13:38.000Z</time>
      </trkpt>
      <trkpt lat="45.77989" lon="3.04774">
        <ele>514</ele>
        <time>2020-07-11T13:13:39.000Z</time>
      </trkpt>
      <trkpt lat="45.7799" lon="3.04771">
        <ele>514</ele>
        <time>2020-07-11T13:13:40.000Z</time>
      </trkpt>
      <trkpt lat="45.77992" lon="3.04769">
        <ele>514</ele>
        <time>2020-07-11T13:13:41.000Z</time>
      </trkpt>
      <trkpt lat="45.77994" lon="3.04767">
        <ele>514</ele>
        <time>2020-07-11T13:13:42.000Z</time>
      </trkpt>
      <trkpt lat="45.77995" lon="3.04765">
        <ele>514</ele>
        <time>2020-07-11T13:13:43.000Z</time>
      </trkpt>
      <trkpt lat="45.77997" lon="3.04763">
        <ele>514</ele>
        <time>2020-07-11T13:13:44.000Z</time>
      </trkpt>
      <trkpt lat="45.77999" lon="3.04761">
        <ele>514</ele>
        <time>2020-07-11T13:13:45.000Z</time>
      </trkpt>
      <trkpt lat="45.78001" lon="3.04759">
        <ele>514</ele>
        <time>2020-07-11T13:13:46.000Z</time>
      </trkpt>
      <trkpt lat="45.78003" lon="3.04756">
        <ele>513</ele>
        <time>2020-07-11T13:13:47.000Z</time>
      </trkpt>
      <trkpt lat="45.78004" lon="3.04754">
        <ele>514</ele>
        <time>2020-07-11T13:13:48.000Z</time>
      </trkpt>
      <trkpt lat="45.78006" lon="3.04752">
        <ele>515</ele>
        <time>2020-07-11T13:13:49.000Z</time>
      </trkpt>
      <trkpt lat="45.78007" lon="3.04749">
        <ele>515</ele>
        <time>2020-07-11T13:13:50.000Z</time>
      </trkpt>
      <trkpt lat="45.78007" lon="3.04749">
        <ele>515</ele>
        <time>2020-07-11T13:13:51.000Z</time>
      </trkpt>
      <trkpt lat="45.78009" lon="3.04746">
        <ele>515</ele>
        <time>2020-07-11T13:13:52.000Z</time>
      </trkpt>
      <trkpt lat="45.7801" lon="3.04743">
        <ele>517</ele>
        <time>2020-07-11T13:13:53.000Z</time>
      </trkpt>
      <trkpt lat="45.78011" lon="3.04739">
        <ele>518</ele>
        <time>2020-07-11T13:13:54.000Z</time>
      </trkpt>
      <trkpt lat="45.78011" lon="3.04737">
        <ele>518</ele>
        <time>2020-07-11T13:13:55.000Z</time>
      </trkpt>
      <trkpt lat="45.78013" lon="3.04734">
        <ele>518</ele>
        <time>2020-07-11T13:13:56.000Z</time>
      </trkpt>
      <trkpt lat="45.78015" lon="3.04731">
        <ele>518</ele>
        <time>2020-07-11T13:13:57.000Z</time>
      </trkpt>
      <trkpt lat="45.78016" lon="3.04728">
        <ele>518</ele>
        <time>2020-07-11T13:13:58.000Z</time>
      </trkpt>
      <trkpt lat="45.78018" lon="3.04725">
        <ele>519</ele>
        <time>2020-07-11T13:13:59.000Z</time>
      </trkpt>
      <trkpt lat="45.78019" lon="3.04722">
        <ele>519</ele>
        <time>2020-07-11T13:14:00.000Z</time>
      </trkpt>
      <trkpt lat="45.7802" lon="3.0472">
        <ele>520</ele>
        <time>2020-07-11T13:14:01.000Z</time>
      </trkpt>
      <trkpt lat="45.78021" lon="3.04717">
        <ele>521</ele>
        <time>2020-07-11T13:14:02.000Z</time>
      </trkpt>
      <trkpt lat="45.78022" lon="3.04714">
        <ele>521</ele>
        <time>2020-07-11T13:14:03.000Z</time>
      </trkpt>
      <trkpt lat="45.78024" lon="3.04712">
        <ele>521</ele>
        <time>2020-07-11T13:14:04.000Z</time>
      </trkpt>
      <trkpt lat="45.78025" lon="3.04709">
        <ele>520</ele>
        <time>2020-07-11T13:14:05.000Z</time>
      </trkpt>
      <trkpt lat="45.78026" lon="3.04707">
        <ele>521</ele>
        <time>2020-07-11T13:14:06.000Z</time>
      </trkpt>
      <trkpt lat="45.78028" lon="3.04704">
        <ele>521</ele>
        <time>2020-07-11T13:14:07.000Z</time>
      </trkpt>
      <trkpt lat="45.7803" lon="3.04702">
        <ele>522</ele>
        <time>2020-07-11T13:14:08.000Z</time>
      </trkpt>
      <trkpt lat="45.78032" lon="3.04699">
        <ele>521</ele>
        <time>2020-07-11T13:14:09.000Z</time>
      </trkpt>
      <trkpt lat="45.78033" lon="3.04696">
        <ele>523</ele>
        <time>2020-07-11T13:14:10.000Z</time>
      </trkpt>
      <trkpt lat="45.78034" lon="3.04693">
        <ele>522</ele>
        <time>2020-07-11T13:14:11.000Z</time>
      </trkpt>
      <trkpt lat="45.78034" lon="3.04691">
        <ele>522</ele>
        <time>2020-07-11T13:14:12.000Z</time>
      </trkpt>
      <trkpt lat="45.78034" lon="3.04688">
        <ele>521</ele>
        <time>2020-07-11T13:14:13.000Z</time>
      </trkpt>
      <trkpt lat="45.78035" lon="3.04685">
        <ele>521</ele>
        <time>2020-07-11T13:14:14.000Z</time>
      </trkpt>
      <trkpt lat="45.78036" lon="3.04682">
        <ele>522</ele>
        <time>2020-07-11T13:14:15.000Z</time>
      </trkpt>
      <trkpt lat="45.78037" lon="3.04679">
        <ele>522</ele>
        <time>2020-07-11T13:14:16.000Z</time>
      </trkpt>
      <trkpt lat="45.78038" lon="3.04676">
        <ele>523</ele>
        <time>2020-07-11T13:14:17.000Z</time>
      </trkpt>
      <trkpt lat="45.78039" lon="3.04673">
        <ele>523</ele>
        <time>2020-07-11T13:14:18.000Z</time>
      </trkpt>
      <trkpt lat="45.78041" lon="3.04669">
        <ele>524</ele>
        <time>2020-07-11T13:14:19.000Z</time>
      </trkpt>
      <trkpt lat="45.78042" lon="3.04666">
        <ele>524</ele>
        <time>2020-07-11T13:14:20.000Z</time>
      </trkpt>
      <trkpt lat="45.78043" lon="3.04663">
        <ele>524</ele>
        <time>2020-07-11T13:14:21.000Z</time>
      </trkpt>
      <trkpt lat="45.78044" lon="3.04659">
        <ele>525</ele>
        <time>2020-07-11T13:14:22.000Z</time>
      </trkpt>
      <trkpt lat="45.78045" lon="3.04656">
        <ele>524</ele>
        <time>2020-07-11T13:14:23.000Z</time>
      </trkpt>
      <trkpt lat="45.78046" lon="3.04653">
        <ele>524</ele>
        <time>2020-07-11T13:14:24.000Z</time>
      </trkpt>
      <trkpt lat="45.78046" lon="3.0465">
        <ele>524</ele>
        <time>2020-07-11T13:14:25.000Z</time>
      </trkpt>
      <trkpt lat="45.78047" lon="3.04647">
        <ele>525</ele>
        <time>2020-07-11T13:14:26.000Z</time>
      </trkpt>
      <trkpt lat="45.78048" lon="3.04644">
        <ele>525</ele>
        <time>2020-07-11T13:14:27.000Z</time>
      </trkpt>
      <trkpt lat="45.78049" lon="3.04641">
        <ele>525</ele>
        <time>2020-07-11T13:14:28.000Z</time>
      </trkpt>
      <trkpt lat="45.7805" lon="3.04638">
        <ele>526</ele>
        <time>2020-07-11T13:14:29.000Z</time>
      </trkpt>
      <trkpt lat="45.78052" lon="3.04635">
        <ele>527</ele>
        <time>2020-07-11T13:14:30.000Z</time>
      </trkpt>
      <trkpt lat="45.78053" lon="3.04633">
        <ele>527</ele>
        <time>2020-07-11T13:14:31.000Z</time>
      </trkpt>
      <trkpt lat="45.78055" lon="3.0463">
        <ele>527</ele>
        <time>2020-07-11T13:14:32.000Z</time>
      </trkpt>
      <trkpt lat="45.78056" lon="3.04627">
        <ele>527</ele>
        <time>2020-07-11T13:14:33.000Z</time>
      </trkpt>
      <trkpt lat="45.78057" lon="3.04624">
        <ele>527</ele>
        <time>2020-07-11T13:14:34.000Z</time>
      </trkpt>
      <trkpt lat="45.78058" lon="3.04621">
        <ele>526</ele>
        <time>2020-07-11T13:14:35.000Z</time>
      </trkpt>
      <trkpt lat="45.78059" lon="3.04618">
        <ele>526</ele>
        <time>2020-07-11T13:14:36.000Z</time>
      </trkpt>
      <trkpt lat="45.7806" lon="3.04615">
        <ele>527</ele>
        <time>2020-07-11T13:14:37.000Z</time>
      </trkpt>
      <trkpt lat="45.78061" lon="3.04612">
        <ele>527</ele>
        <time>2020-07-11T13:14:38.000Z</time>
      </trkpt>
      <trkpt lat="45.78063" lon="3.04609">
        <ele>527</ele>
        <time>2020-07-11T13:14:39.000Z</time>
      </trkpt>
      <trkpt lat="45.78064" lon="3.04606">
        <ele>528</ele>
        <time>2020-07-11T13:14:40.000Z</time>
      </trkpt>
      <trkpt lat="45.78065" lon="3.04603">
        <ele>528</ele>
        <time>2020-07-11T13:14:41.000Z</time>
      </trkpt>
      <trkpt lat="45.78067" lon="3.046">
        <ele>528</ele>
        <time>2020-07-11T13:14:42.000Z</time>
      </trkpt>
      <trkpt lat="45.78068" lon="3.04598">
        <ele>529</ele>
        <time>2020-07-11T13:14:43.000Z</time>
      </trkpt>
      <trkpt lat="45.78069" lon="3.04595">
        <ele>529</ele>
        <time>2020-07-11T13:14:44.000Z</time>
      </trkpt>
      <trkpt lat="45.7807" lon="3.04593">
        <ele>529</ele>
        <time>2020-07-11T13:14:45.000Z</time>
      </trkpt>
      <trkpt lat="45.78071" lon="3.0459">
        <ele>529</ele>
        <time>2020-07-11T13:14:46.000Z</time>
      </trkpt>
      <trkpt lat="45.78073" lon="3.04587">
        <ele>530</ele>
        <time>2020-07-11T13:14:47.000Z</time>
      </trkpt>
      <trkpt lat="45.78074" lon="3.04585">
        <ele>531</ele>
        <time>2020-07-11T13:14:48.000Z</time>
      </trkpt>
      <trkpt lat="45.78075" lon="3.04582">
        <ele>532</ele>
        <time>2020-07-11T13:14:49.000Z</time>
      </trkpt>
      <trkpt lat="45.78077" lon="3.0458">
        <ele>533</ele>
        <time>2020-07-11T13:14:50.000Z</time>
      </trkpt>
      <trkpt lat="45.78079" lon="3.04578">
        <ele>534</ele>
        <time>2020-07-11T13:14:51.000Z</time>
      </trkpt>
      <trkpt lat="45.7808" lon="3.04576">
        <ele>535</ele>
        <time>2020-07-11T13:14:52.000Z</time>
      </trkpt>
      <trkpt lat="45.78082" lon="3.04574">
        <ele>536</ele>
        <time>2020-07-11T13:14:53.000Z</time>
      </trkpt>
      <trkpt lat="45.78084" lon="3.04571">
        <ele>537</ele>
        <time>2020-07-11T13:14:54.000Z</time>
      </trkpt>
      <trkpt lat="45.78085" lon="3.04568">
        <ele>538</ele>
        <time>2020-07-11T13:14:55.000Z</time>
      </trkpt>
      <trkpt lat="45.78087" lon="3.04566">
        <ele>539</ele>
        <time>2020-07-11T13:14:56.000Z</time>
      </trkpt>
      <trkpt lat="45.78088" lon="3.04563">
        <ele>539</ele>
        <time>2020-07-11T13:14:57.000Z</time>
      </trkpt>
      <trkpt lat="45.7809" lon="3.04561">
        <ele>540</ele>
        <time>2020-07-11T13:14:58.000Z</time>
      </trkpt>
      <trkpt lat="45.78091" lon="3.04558">
        <ele>541</ele>
        <time>2020-07-11T13:14:59.000Z</time>
      </trkpt>
      <trkpt lat="45.78093" lon="3.04556">
        <ele>541</ele>
        <time>2020-07-11T13:15:00.000Z</time>
      </trkpt>
      <trkpt lat="45.78094" lon="3.04553">
        <ele>541</ele>
        <time>2020-07-11T13:15:01.000Z</time>
      </trkpt>
      <trkpt lat="45.78095" lon="3.04551">
        <ele>542</ele>
        <time>2020-07-11T13:15:02.000Z</time>
      </trkpt>
      <trkpt lat="45.78097" lon="3.04549">
        <ele>541</ele>
        <time>2020-07-11T13:15:03.000Z</time>
      </trkpt>
      <trkpt lat="45.78098" lon="3.04547">
        <ele>541</ele>
        <time>2020-07-11T13:15:04.000Z</time>
      </trkpt>
      <trkpt lat="45.781" lon="3.04545">
        <ele>542</ele>
        <time>2020-07-11T13:15:05.000Z</time>
      </trkpt>
      <trkpt lat="45.78102" lon="3.04543">
        <ele>542</ele>
        <time>2020-07-11T13:15:06.000Z</time>
      </trkpt>
      <trkpt lat="45.78104" lon="3.04541">
        <ele>543</ele>
        <time>2020-07-11T13:15:07.000Z</time>
      </trkpt>
      <trkpt lat="45.78106" lon="3.04539">
        <ele>542</ele>
        <time>2020-07-11T13:15:08.000Z</time>
      </trkpt>
      <trkpt lat="45.78108" lon="3.04537">
        <ele>543</ele>
        <time>2020-07-11T13:15:09.000Z</time>
      </trkpt>
      <trkpt lat="45.7811" lon="3.04535">
        <ele>543</ele>
        <time>2020-07-11T13:15:10.000Z</time>
      </trkpt>
      <trkpt lat="45.78112" lon="3.04532">
        <ele>542</ele>
        <time>2020-07-11T13:15:11.000Z</time>
      </trkpt>
      <trkpt lat="45.78113" lon="3.0453">
        <ele>543</ele>
        <time>2020-07-11T13:15:12.000Z</time>
      </trkpt>
      <trkpt lat="45.78115" lon="3.04528">
        <ele>544</ele>
        <time>2020-07-11T13:15:13.000Z</time>
      </trkpt>
      <trkpt lat="45.78116" lon="3.04525">
        <ele>544</ele>
        <time>2020-07-11T13:15:14.000Z</time>
      </trkpt>
      <trkpt lat="45.78117" lon="3.04522">
        <ele>543</ele>
        <time>2020-07-11T13:15:15.000Z</time>
      </trkpt>
      <trkpt lat="45.78118" lon="3.04519">
        <ele>544</ele>
        <time>2020-07-11T13:15:16.000Z</time>
      </trkpt>
      <trkpt lat="45.78119" lon="3.04517">
        <ele>544</ele>
        <time>2020-07-11T13:15:17.000Z</time>
      </trkpt>
      <trkpt lat="45.7812" lon="3.04514">
        <ele>544</ele>
        <time>2020-07-11T13:15:18.000Z</time>
      </trkpt>
      <trkpt lat="45.78121" lon="3.04511">
        <ele>544</ele>
        <time>2020-07-11T13:15:19.000Z</time>
      </trkpt>
      <trkpt lat="45.78122" lon="3.04508">
        <ele>543</ele>
        <time>2020-07-11T13:15:20.000Z</time>
      </trkpt>
      <trkpt lat="45.78123" lon="3.04505">
        <ele>542</ele>
        <time>2020-07-11T13:15:21.000Z</time>
      </trkpt>
      <trkpt lat="45.78123" lon="3.04503">
        <ele>543</ele>
        <time>2020-07-11T13:15:22.000Z</time>
      </trkpt>
      <trkpt lat="45.78124" lon="3.045">
        <ele>543</ele>
        <time>2020-07-11T13:15:23.000Z</time>
      </trkpt>
      <trkpt lat="45.78124" lon="3.04497">
        <ele>543</ele>
        <time>2020-07-11T13:15:24.000Z</time>
      </trkpt>
      <trkpt lat="45.78124" lon="3.04495">
        <ele>542</ele>
        <time>2020-07-11T13:15:25.000Z</time>
      </trkpt>
      <trkpt lat="45.78124" lon="3.04492">
        <ele>543</ele>
        <time>2020-07-11T13:15:26.000Z</time>
      </trkpt>
      <trkpt lat="45.78123" lon="3.04489">
        <ele>543</ele>
        <time>2020-07-11T13:15:27.000Z</time>
      </trkpt>
      <trkpt lat="45.78123" lon="3.04486">
        <ele>542</ele>
        <time>2020-07-11T13:15:28.000Z</time>
      </trkpt>
      <trkpt lat="45.78122" lon="3.04484">
        <ele>543</ele>
        <time>2020-07-11T13:15:29.000Z</time>
      </trkpt>
      <trkpt lat="45.78121" lon="3.04481">
        <ele>543</ele>
        <time>2020-07-11T13:15:30.000Z</time>
      </trkpt>
      <trkpt lat="45.7812" lon="3.04478">
        <ele>545</ele>
        <time>2020-07-11T13:15:31.000Z</time>
      </trkpt>
      <trkpt lat="45.78118" lon="3.04476">
        <ele>546</ele>
        <time>2020-07-11T13:15:32.000Z</time>
      </trkpt>
      <trkpt lat="45.78117" lon="3.04474">
        <ele>547</ele>
        <time>2020-07-11T13:15:33.000Z</time>
      </trkpt>
      <trkpt lat="45.78116" lon="3.04472">
        <ele>547</ele>
        <time>2020-07-11T13:15:34.000Z</time>
      </trkpt>
      <trkpt lat="45.78116" lon="3.04471">
        <ele>548</ele>
        <time>2020-07-11T13:15:35.000Z</time>
      </trkpt>
      <trkpt lat="45.78115" lon="3.04469">
        <ele>548</ele>
        <time>2020-07-11T13:15:36.000Z</time>
      </trkpt>
      <trkpt lat="45.78115" lon="3.04468">
        <ele>549</ele>
        <time>2020-07-11T13:15:37.000Z</time>
      </trkpt>
      <trkpt lat="45.78114" lon="3.04467">
        <ele>549</ele>
        <time>2020-07-11T13:15:38.000Z</time>
      </trkpt>
      <trkpt lat="45.78114" lon="3.04465">
        <ele>550</ele>
        <time>2020-07-11T13:15:39.000Z</time>
      </trkpt>
      <trkpt lat="45.78113" lon="3.04464">
        <ele>550</ele>
        <time>2020-07-11T13:15:40.000Z</time>
      </trkpt>
      <trkpt lat="45.78113" lon="3.04462">
        <ele>550</ele>
        <time>2020-07-11T13:15:41.000Z</time>
      </trkpt>
      <trkpt lat="45.78113" lon="3.0446">
        <ele>550</ele>
        <time>2020-07-11T13:15:42.000Z</time>
      </trkpt>
      <trkpt lat="45.78113" lon="3.04458">
        <ele>551</ele>
        <time>2020-07-11T13:15:43.000Z</time>
      </trkpt>
      <trkpt lat="45.78112" lon="3.04457">
        <ele>552</ele>
        <time>2020-07-11T13:15:44.000Z</time>
      </trkpt>
      <trkpt lat="45.78112" lon="3.04455">
        <ele>552</ele>
        <time>2020-07-11T13:15:45.000Z</time>
      </trkpt>
      <trkpt lat="45.78111" lon="3.04453">
        <ele>552</ele>
        <time>2020-07-11T13:15:46.000Z</time>
      </trkpt>
      <trkpt lat="45.78111" lon="3.04451">
        <ele>553</ele>
        <time>2020-07-11T13:15:47.000Z</time>
      </trkpt>
      <trkpt lat="45.7811" lon="3.04449">
        <ele>553</ele>
        <time>2020-07-11T13:15:48.000Z</time>
      </trkpt>
      <trkpt lat="45.7811" lon="3.04447">
        <ele>553</ele>
        <time>2020-07-11T13:15:49.000Z</time>
      </trkpt>
      <trkpt lat="45.7811" lon="3.04444">
        <ele>553</ele>
        <time>2020-07-11T13:15:50.000Z</time>
      </trkpt>
      <trkpt lat="45.7811" lon="3.04442">
        <ele>553</ele>
        <time>2020-07-11T13:15:51.000Z</time>
      </trkpt>
      <trkpt lat="45.78109" lon="3.04439">
        <ele>553</ele>
        <time>2020-07-11T13:15:52.000Z</time>
      </trkpt>
      <trkpt lat="45.78109" lon="3.04437">
        <ele>553</ele>
        <time>2020-07-11T13:15:53.000Z</time>
      </trkpt>
      <trkpt lat="45.78107" lon="3.04434">
        <ele>554</ele>
        <time>2020-07-11T13:15:54.000Z</time>
      </trkpt>
      <trkpt lat="45.78106" lon="3.04432">
        <ele>554</ele>
        <time>2020-07-11T13:15:55.000Z</time>
      </trkpt>
      <trkpt lat="45.78106" lon="3.0443">
        <ele>554</ele>
        <time>2020-07-11T13:15:56.000Z</time>
      </trkpt>
      <trkpt lat="45.78106" lon="3.04428">
        <ele>555</ele>
        <time>2020-07-11T13:15:57.000Z</time>
      </trkpt>
      <trkpt lat="45.78105" lon="3.04426">
        <ele>555</ele>
        <time>2020-07-11T13:15:58.000Z</time>
      </trkpt>
      <trkpt lat="45.78105" lon="3.04423">
        <ele>556</ele>
        <time>2020-07-11T13:15:59.000Z</time>
      </trkpt>
      <trkpt lat="45.78105" lon="3.04421">
        <ele>557</ele>
        <time>2020-07-11T13:16:00.000Z</time>
      </trkpt>
      <trkpt lat="45.78105" lon="3.04418">
        <ele>557</ele>
        <time>2020-07-11T13:16:01.000Z</time>
      </trkpt>
      <trkpt lat="45.78105" lon="3.04415">
        <ele>558</ele>
        <time>2020-07-11T13:16:02.000Z</time>
      </trkpt>
      <trkpt lat="45.78105" lon="3.04413">
        <ele>559</ele>
        <time>2020-07-11T13:16:03.000Z</time>
      </trkpt>
      <trkpt lat="45.78105" lon="3.0441">
        <ele>559</ele>
        <time>2020-07-11T13:16:04.000Z</time>
      </trkpt>
      <trkpt lat="45.78105" lon="3.04408">
        <ele>559</ele>
        <time>2020-07-11T13:16:05.000Z</time>
      </trkpt>
      <trkpt lat="45.78105" lon="3.04406">
        <ele>559</ele>
        <time>2020-07-11T13:16:06.000Z</time>
      </trkpt>
      <trkpt lat="45.78105" lon="3.04404">
        <ele>559</ele>
        <time>2020-07-11T13:16:07.000Z</time>
      </trkpt>
      <trkpt lat="45.78104" lon="3.04401">
        <ele>559</ele>
        <time>2020-07-11T13:16:08.000Z</time>
      </trkpt>
      <trkpt lat="45.78103" lon="3.04399">
        <ele>558</ele>
        <time>2020-07-11T13:16:09.000Z</time>
      </trkpt>
      <trkpt lat="45.78103" lon="3.04396">
        <ele>557</ele>
        <time>2020-07-11T13:16:10.000Z</time>
      </trkpt>
      <trkpt lat="45.78102" lon="3.04394">
        <ele>558</ele>
        <time>2020-07-11T13:16:11.000Z</time>
      </trkpt>
      <trkpt lat="45.78102" lon="3.04391">
        <ele>558</ele>
        <time>2020-07-11T13:16:12.000Z</time>
      </trkpt>
      <trkpt lat="45.78102" lon="3.04389">
        <ele>558</ele>
        <time>2020-07-11T13:16:13.000Z</time>
      </trkpt>
      <trkpt lat="45.78102" lon="3.04387">
        <ele>559</ele>
        <time>2020-07-11T13:16:14.000Z</time>
      </trkpt>
      <trkpt lat="45.78102" lon="3.04385">
        <ele>559</ele>
        <time>2020-07-11T13:16:15.000Z</time>
      </trkpt>
      <trkpt lat="45.78102" lon="3.04382">
        <ele>559</ele>
        <time>2020-07-11T13:16:16.000Z</time>
      </trkpt>
      <trkpt lat="45.78102" lon="3.0438">
        <ele>559</ele>
        <time>2020-07-11T13:16:17.000Z</time>
      </trkpt>
      <trkpt lat="45.78102" lon="3.04378">
        <ele>560</ele>
        <time>2020-07-11T13:16:18.000Z</time>
      </trkpt>
      <trkpt lat="45.78102" lon="3.04375">
        <ele>559</ele>
        <time>2020-07-11T13:16:19.000Z</time>
      </trkpt>
      <trkpt lat="45.78102" lon="3.04373">
        <ele>560</ele>
        <time>2020-07-11T13:16:20.000Z</time>
      </trkpt>
      <trkpt lat="45.78103" lon="3.04371">
        <ele>560</ele>
        <time>2020-07-11T13:16:21.000Z</time>
      </trkpt>
      <trkpt lat="45.78102" lon="3.0437">
        <ele>561</ele>
        <time>2020-07-11T13:16:22.000Z</time>
      </trkpt>
      <trkpt lat="45.78102" lon="3.04367">
        <ele>561</ele>
        <time>2020-07-11T13:16:23.000Z</time>
      </trkpt>
      <trkpt lat="45.78102" lon="3.04366">
        <ele>561</ele>
        <time>2020-07-11T13:16:24.000Z</time>
      </trkpt>
      <trkpt lat="45.78102" lon="3.04364">
        <ele>562</ele>
        <time>2020-07-11T13:16:25.000Z</time>
      </trkpt>
      <trkpt lat="45.78102" lon="3.04362">
        <ele>562</ele>
        <time>2020-07-11T13:16:26.000Z</time>
      </trkpt>
      <trkpt lat="45.78102" lon="3.0436">
        <ele>563</ele>
        <time>2020-07-11T13:16:27.000Z</time>
      </trkpt>
      <trkpt lat="45.78102" lon="3.04358">
        <ele>564</ele>
        <time>2020-07-11T13:16:28.000Z</time>
      </trkpt>
      <trkpt lat="45.78102" lon="3.04355">
        <ele>564</ele>
        <time>2020-07-11T13:16:29.000Z</time>
      </trkpt>
      <trkpt lat="45.78101" lon="3.04352">
        <ele>564</ele>
        <time>2020-07-11T13:16:30.000Z</time>
      </trkpt>
      <trkpt lat="45.78101" lon="3.0435">
        <ele>564</ele>
        <time>2020-07-11T13:16:31.000Z</time>
      </trkpt>
      <trkpt lat="45.781" lon="3.04348">
        <ele>565</ele>
        <time>2020-07-11T13:16:32.000Z</time>
      </trkpt>
      <trkpt lat="45.781" lon="3.04345">
        <ele>566</ele>
        <time>2020-07-11T13:16:33.000Z</time>
      </trkpt>
      <trkpt lat="45.78098" lon="3.04343">
        <ele>566</ele>
        <time>2020-07-11T13:16:34.000Z</time>
      </trkpt>
      <trkpt lat="45.78097" lon="3.04341">
        <ele>567</ele>
        <time>2020-07-11T13:16:35.000Z</time>
      </trkpt>
      <trkpt lat="45.78096" lon="3.04339">
        <ele>567</ele>
        <time>2020-07-11T13:16:36.000Z</time>
      </trkpt>
      <trkpt lat="45.78095" lon="3.04337">
        <ele>568</ele>
        <time>2020-07-11T13:16:37.000Z</time>
      </trkpt>
      <trkpt lat="45.78094" lon="3.04335">
        <ele>568</ele>
        <time>2020-07-11T13:16:38.000Z</time>
      </trkpt>
      <trkpt lat="45.78094" lon="3.04333">
        <ele>568</ele>
        <time>2020-07-11T13:16:39.000Z</time>
      </trkpt>
      <trkpt lat="45.78093" lon="3.0433">
        <ele>568</ele>
        <time>2020-07-11T13:16:40.000Z</time>
      </trkpt>
      <trkpt lat="45.78093" lon="3.04328">
        <ele>568</ele>
        <time>2020-07-11T13:16:41.000Z</time>
      </trkpt>
      <trkpt lat="45.78093" lon="3.04326">
        <ele>569</ele>
        <time>2020-07-11T13:16:42.000Z</time>
      </trkpt>
      <trkpt lat="45.78092" lon="3.04323">
        <ele>569</ele>
        <time>2020-07-11T13:16:43.000Z</time>
      </trkpt>
      <trkpt lat="45.78092" lon="3.04321">
        <ele>570</ele>
        <time>2020-07-11T13:16:44.000Z</time>
      </trkpt>
      <trkpt lat="45.78092" lon="3.04318">
        <ele>570</ele>
        <time>2020-07-11T13:16:45.000Z</time>
      </trkpt>
      <trkpt lat="45.78091" lon="3.04316">
        <ele>571</ele>
        <time>2020-07-11T13:16:46.000Z</time>
      </trkpt>
      <trkpt lat="45.78091" lon="3.04314">
        <ele>571</ele>
        <time>2020-07-11T13:16:47.000Z</time>
      </trkpt>
      <trkpt lat="45.7809" lon="3.04312">
        <ele>571</ele>
        <time>2020-07-11T13:16:48.000Z</time>
      </trkpt>
      <trkpt lat="45.7809" lon="3.0431">
        <ele>572</ele>
        <time>2020-07-11T13:16:49.000Z</time>
      </trkpt>
      <trkpt lat="45.78089" lon="3.04308">
        <ele>573</ele>
        <time>2020-07-11T13:16:50.000Z</time>
      </trkpt>
      <trkpt lat="45.78089" lon="3.04306">
        <ele>574</ele>
        <time>2020-07-11T13:16:51.000Z</time>
      </trkpt>
      <trkpt lat="45.78088" lon="3.04304">
        <ele>574</ele>
        <time>2020-07-11T13:16:52.000Z</time>
      </trkpt>
      <trkpt lat="45.78088" lon="3.04302">
        <ele>574</ele>
        <time>2020-07-11T13:16:53.000Z</time>
      </trkpt>
      <trkpt lat="45.78088" lon="3.043">
        <ele>575</ele>
        <time>2020-07-11T13:16:54.000Z</time>
      </trkpt>
      <trkpt lat="45.78088" lon="3.04298">
        <ele>575</ele>
        <time>2020-07-11T13:16:55.000Z</time>
      </trkpt>
      <trkpt lat="45.78087" lon="3.04296">
        <ele>575</ele>
        <time>2020-07-11T13:16:56.000Z</time>
      </trkpt>
      <trkpt lat="45.78086" lon="3.04294">
        <ele>575</ele>
        <time>2020-07-11T13:16:57.000Z</time>
      </trkpt>
      <trkpt lat="45.78086" lon="3.04292">
        <ele>575</ele>
        <time>2020-07-11T13:16:58.000Z</time>
      </trkpt>
      <trkpt lat="45.78086" lon="3.04289">
        <ele>576</ele>
        <time>2020-07-11T13:16:59.000Z</time>
      </trkpt>
      <trkpt lat="45.78085" lon="3.04287">
        <ele>575</ele>
        <time>2020-07-11T13:17:00.000Z</time>
      </trkpt>
      <trkpt lat="45.78085" lon="3.04285">
        <ele>575</ele>
        <time>2020-07-11T13:17:01.000Z</time>
      </trkpt>
      <trkpt lat="45.78084" lon="3.04283">
        <ele>576</ele>
        <time>2020-07-11T13:17:02.000Z</time>
      </trkpt>
      <trkpt lat="45.78083" lon="3.04281">
        <ele>576</ele>
        <time>2020-07-11T13:17:03.000Z</time>
      </trkpt>
      <trkpt lat="45.78083" lon="3.04279">
        <ele>576</ele>
        <time>2020-07-11T13:17:04.000Z</time>
      </trkpt>
      <trkpt lat="45.78083" lon="3.04278">
        <ele>575</ele>
        <time>2020-07-11T13:17:05.000Z</time>
      </trkpt>
      <trkpt lat="45.78082" lon="3.04276">
        <ele>575</ele>
        <time>2020-07-11T13:17:06.000Z</time>
      </trkpt>
      <trkpt lat="45.78082" lon="3.04273">
        <ele>575</ele>
        <time>2020-07-11T13:17:07.000Z</time>
      </trkpt>
      <trkpt lat="45.78082" lon="3.04271">
        <ele>575</ele>
        <time>2020-07-11T13:17:08.000Z</time>
      </trkpt>
      <trkpt lat="45.78081" lon="3.04269">
        <ele>576</ele>
        <time>2020-07-11T13:17:09.000Z</time>
      </trkpt>
      <trkpt lat="45.7808" lon="3.04267">
        <ele>577</ele>
        <time>2020-07-11T13:17:10.000Z</time>
      </trkpt>
      <trkpt lat="45.78079" lon="3.04265">
        <ele>577</ele>
        <time>2020-07-11T13:17:11.000Z</time>
      </trkpt>
      <trkpt lat="45.78077" lon="3.04263">
        <ele>576</ele>
        <time>2020-07-11T13:17:12.000Z</time>
      </trkpt>
      <trkpt lat="45.78076" lon="3.04261">
        <ele>575</ele>
        <time>2020-07-11T13:17:13.000Z</time>
      </trkpt>
      <trkpt lat="45.78075" lon="3.0426">
        <ele>575</ele>
        <time>2020-07-11T13:17:14.000Z</time>
      </trkpt>
      <trkpt lat="45.78073" lon="3.04258">
        <ele>576</ele>
        <time>2020-07-11T13:17:15.000Z</time>
      </trkpt>
      <trkpt lat="45.78072" lon="3.04256">
        <ele>576</ele>
        <time>2020-07-11T13:17:16.000Z</time>
      </trkpt>
      <trkpt lat="45.7807" lon="3.04254">
        <ele>576</ele>
        <time>2020-07-11T13:17:17.000Z</time>
      </trkpt>
      <trkpt lat="45.78069" lon="3.04252">
        <ele>575</ele>
        <time>2020-07-11T13:17:18.000Z</time>
      </trkpt>
      <trkpt lat="45.78068" lon="3.0425">
        <ele>576</ele>
        <time>2020-07-11T13:17:19.000Z</time>
      </trkpt>
      <trkpt lat="45.78067" lon="3.04248">
        <ele>577</ele>
        <time>2020-07-11T13:17:20.000Z</time>
      </trkpt>
      <trkpt lat="45.78065" lon="3.04246">
        <ele>577</ele>
        <time>2020-07-11T13:17:21.000Z</time>
      </trkpt>
      <trkpt lat="45.78064" lon="3.04245">
        <ele>578</ele>
        <time>2020-07-11T13:17:22.000Z</time>
      </trkpt>
      <trkpt lat="45.78063" lon="3.04243">
        <ele>578</ele>
        <time>2020-07-11T13:17:23.000Z</time>
      </trkpt>
      <trkpt lat="45.78062" lon="3.04241">
        <ele>578</ele>
        <time>2020-07-11T13:17:24.000Z</time>
      </trkpt>
      <trkpt lat="45.7806" lon="3.04239">
        <ele>580</ele>
        <time>2020-07-11T13:17:25.000Z</time>
      </trkpt>
      <trkpt lat="45.78059" lon="3.04237">
        <ele>581</ele>
        <time>2020-07-11T13:17:26.000Z</time>
      </trkpt>
      <trkpt lat="45.78058" lon="3.04235">
        <ele>581</ele>
        <time>2020-07-11T13:17:27.000Z</time>
      </trkpt>
      <trkpt lat="45.78057" lon="3.04232">
        <ele>582</ele>
        <time>2020-07-11T13:17:28.000Z</time>
      </trkpt>
      <trkpt lat="45.78056" lon="3.0423">
        <ele>583</ele>
        <time>2020-07-11T13:17:29.000Z</time>
      </trkpt>
      <trkpt lat="45.78055" lon="3.04228">
        <ele>583</ele>
        <time>2020-07-11T13:17:30.000Z</time>
      </trkpt>
      <trkpt lat="45.78054" lon="3.04226">
        <ele>583</ele>
        <time>2020-07-11T13:17:31.000Z</time>
      </trkpt>
      <trkpt lat="45.78052" lon="3.04224">
        <ele>583</ele>
        <time>2020-07-11T13:17:32.000Z</time>
      </trkpt>
      <trkpt lat="45.78051" lon="3.04221">
        <ele>583</ele>
        <time>2020-07-11T13:17:33.000Z</time>
      </trkpt>
      <trkpt lat="45.78049" lon="3.04219">
        <ele>583</ele>
        <time>2020-07-11T13:17:34.000Z</time>
      </trkpt>
      <trkpt lat="45.78048" lon="3.04217">
        <ele>583</ele>
        <time>2020-07-11T13:17:35.000Z</time>
      </trkpt>
      <trkpt lat="45.78046" lon="3.04215">
        <ele>584</ele>
        <time>2020-07-11T13:17:36.000Z</time>
      </trkpt>
      <trkpt lat="45.78044" lon="3.04213">
        <ele>584</ele>
        <time>2020-07-11T13:17:37.000Z</time>
      </trkpt>
      <trkpt lat="45.78043" lon="3.04212">
        <ele>584</ele>
        <time>2020-07-11T13:17:38.000Z</time>
      </trkpt>
      <trkpt lat="45.78041" lon="3.0421">
        <ele>585</ele>
        <time>2020-07-11T13:17:39.000Z</time>
      </trkpt>
      <trkpt lat="45.7804" lon="3.04208">
        <ele>585</ele>
        <time>2020-07-11T13:17:40.000Z</time>
      </trkpt>
      <trkpt lat="45.78038" lon="3.04207">
        <ele>586</ele>
        <time>2020-07-11T13:17:41.000Z</time>
      </trkpt>
      <trkpt lat="45.78037" lon="3.04205">
        <ele>587</ele>
        <time>2020-07-11T13:17:42.000Z</time>
      </trkpt>
      <trkpt lat="45.78035" lon="3.04204">
        <ele>587</ele>
        <time>2020-07-11T13:17:43.000Z</time>
      </trkpt>
      <trkpt lat="45.78033" lon="3.04202">
        <ele>589</ele>
        <time>2020-07-11T13:17:44.000Z</time>
      </trkpt>
      <trkpt lat="45.78031" lon="3.042">
        <ele>589</ele>
        <time>2020-07-11T13:17:45.000Z</time>
      </trkpt>
      <trkpt lat="45.7803" lon="3.04198">
        <ele>590</ele>
        <time>2020-07-11T13:17:46.000Z</time>
      </trkpt>
      <trkpt lat="45.78028" lon="3.04197">
        <ele>591</ele>
        <time>2020-07-11T13:17:47.000Z</time>
      </trkpt>
      <trkpt lat="45.78027" lon="3.04195">
        <ele>591</ele>
        <time>2020-07-11T13:17:48.000Z</time>
      </trkpt>
      <trkpt lat="45.78025" lon="3.04194">
        <ele>591</ele>
        <time>2020-07-11T13:17:49.000Z</time>
      </trkpt>
      <trkpt lat="45.78024" lon="3.04193">
        <ele>592</ele>
        <time>2020-07-11T13:17:50.000Z</time>
      </trkpt>
      <trkpt lat="45.78023" lon="3.04192">
        <ele>592</ele>
        <time>2020-07-11T13:17:51.000Z</time>
      </trkpt>
      <trkpt lat="45.78022" lon="3.0419">
        <ele>592</ele>
        <time>2020-07-11T13:17:52.000Z</time>
      </trkpt>
      <trkpt lat="45.78021" lon="3.04189">
        <ele>592</ele>
        <time>2020-07-11T13:17:53.000Z</time>
      </trkpt>
      <trkpt lat="45.7802" lon="3.04187">
        <ele>593</ele>
        <time>2020-07-11T13:17:54.000Z</time>
      </trkpt>
      <trkpt lat="45.78019" lon="3.04184">
        <ele>593</ele>
        <time>2020-07-11T13:17:55.000Z</time>
      </trkpt>
      <trkpt lat="45.78018" lon="3.04182">
        <ele>593</ele>
        <time>2020-07-11T13:17:56.000Z</time>
      </trkpt>
      <trkpt lat="45.78017" lon="3.0418">
        <ele>593</ele>
        <time>2020-07-11T13:17:57.000Z</time>
      </trkpt>
      <trkpt lat="45.78016" lon="3.04178">
        <ele>592</ele>
        <time>2020-07-11T13:17:58.000Z</time>
      </trkpt>
      <trkpt lat="45.78015" lon="3.04175">
        <ele>592</ele>
        <time>2020-07-11T13:17:59.000Z</time>
      </trkpt>
      <trkpt lat="45.78014" lon="3.04173">
        <ele>592</ele>
        <time>2020-07-11T13:18:00.000Z</time>
      </trkpt>
      <trkpt lat="45.78012" lon="3.04171">
        <ele>593</ele>
        <time>2020-07-11T13:18:01.000Z</time>
      </trkpt>
      <trkpt lat="45.78011" lon="3.04169">
        <ele>593</ele>
        <time>2020-07-11T13:18:02.000Z</time>
      </trkpt>
      <trkpt lat="45.78009" lon="3.04168">
        <ele>593</ele>
        <time>2020-07-11T13:18:03.000Z</time>
      </trkpt>
      <trkpt lat="45.78007" lon="3.04166">
        <ele>593</ele>
        <time>2020-07-11T13:18:04.000Z</time>
      </trkpt>
      <trkpt lat="45.78006" lon="3.04164">
        <ele>593</ele>
        <time>2020-07-11T13:18:05.000Z</time>
      </trkpt>
      <trkpt lat="45.78004" lon="3.04162">
        <ele>593</ele>
        <time>2020-07-11T13:18:06.000Z</time>
      </trkpt>
      <trkpt lat="45.78003" lon="3.04161">
        <ele>592</ele>
        <time>2020-07-11T13:18:07.000Z</time>
      </trkpt>
      <trkpt lat="45.78001" lon="3.0416">
        <ele>593</ele>
        <time>2020-07-11T13:18:08.000Z</time>
      </trkpt>
      <trkpt lat="45.78" lon="3.04158">
        <ele>594</ele>
        <time>2020-07-11T13:18:09.000Z</time>
      </trkpt>
      <trkpt lat="45.77998" lon="3.04156">
        <ele>594</ele>
        <time>2020-07-11T13:18:10.000Z</time>
      </trkpt>
      <trkpt lat="45.77996" lon="3.04155">
        <ele>594</ele>
        <time>2020-07-11T13:18:11.000Z</time>
      </trkpt>
      <trkpt lat="45.77994" lon="3.04153">
        <ele>595</ele>
        <time>2020-07-11T13:18:12.000Z</time>
      </trkpt>
      <trkpt lat="45.77992" lon="3.04151">
        <ele>594</ele>
        <time>2020-07-11T13:18:13.000Z</time>
      </trkpt>
      <trkpt lat="45.7799" lon="3.0415">
        <ele>594</ele>
        <time>2020-07-11T13:18:14.000Z</time>
      </trkpt>
      <trkpt lat="45.77989" lon="3.04148">
        <ele>594</ele>
        <time>2020-07-11T13:18:15.000Z</time>
      </trkpt>
      <trkpt lat="45.77987" lon="3.04146">
        <ele>594</ele>
        <time>2020-07-11T13:18:16.000Z</time>
      </trkpt>
      <trkpt lat="45.77985" lon="3.04145">
        <ele>593</ele>
        <time>2020-07-11T13:18:17.000Z</time>
      </trkpt>
      <trkpt lat="45.77984" lon="3.04143">
        <ele>593</ele>
        <time>2020-07-11T13:18:18.000Z</time>
      </trkpt>
      <trkpt lat="45.77982" lon="3.04142">
        <ele>593</ele>
        <time>2020-07-11T13:18:19.000Z</time>
      </trkpt>
      <trkpt lat="45.77981" lon="3.04141">
        <ele>593</ele>
        <time>2020-07-11T13:18:20.000Z</time>
      </trkpt>
      <trkpt lat="45.77979" lon="3.04139">
        <ele>593</ele>
        <time>2020-07-11T13:18:21.000Z</time>
      </trkpt>
      <trkpt lat="45.77977" lon="3.04138">
        <ele>593</ele>
        <time>2020-07-11T13:18:22.000Z</time>
      </trkpt>
      <trkpt lat="45.77976" lon="3.04137">
        <ele>593</ele>
        <time>2020-07-11T13:18:23.000Z</time>
      </trkpt>
      <trkpt lat="45.77974" lon="3.04136">
        <ele>593</ele>
        <time>2020-07-11T13:18:24.000Z</time>
      </trkpt>
      <trkpt lat="45.77973" lon="3.04135">
        <ele>593</ele>
        <time>2020-07-11T13:18:25.000Z</time>
      </trkpt>
      <trkpt lat="45.77971" lon="3.04133">
        <ele>593</ele>
        <time>2020-07-11T13:18:26.000Z</time>
      </trkpt>
      <trkpt lat="45.7797" lon="3.04131">
        <ele>593</ele>
        <time>2020-07-11T13:18:27.000Z</time>
      </trkpt>
      <trkpt lat="45.77969" lon="3.0413">
        <ele>593</ele>
        <time>2020-07-11T13:18:28.000Z</time>
      </trkpt>
      <trkpt lat="45.77968" lon="3.04128">
        <ele>593</ele>
        <time>2020-07-11T13:18:29.000Z</time>
      </trkpt>
      <trkpt lat="45.77967" lon="3.04127">
        <ele>592</ele>
        <time>2020-07-11T13:18:30.000Z</time>
      </trkpt>
      <trkpt lat="45.77966" lon="3.04125">
        <ele>591</ele>
        <time>2020-07-11T13:18:31.000Z</time>
      </trkpt>
      <trkpt lat="45.77964" lon="3.04122">
        <ele>591</ele>
        <time>2020-07-11T13:18:32.000Z</time>
      </trkpt>
      <trkpt lat="45.77963" lon="3.0412">
        <ele>592</ele>
        <time>2020-07-11T13:18:33.000Z</time>
      </trkpt>
      <trkpt lat="45.77962" lon="3.04117">
        <ele>592</ele>
        <time>2020-07-11T13:18:34.000Z</time>
      </trkpt>
      <trkpt lat="45.77962" lon="3.04114">
        <ele>592</ele>
        <time>2020-07-11T13:18:35.000Z</time>
      </trkpt>
      <trkpt lat="45.77961" lon="3.04111">
        <ele>592</ele>
        <time>2020-07-11T13:18:36.000Z</time>
      </trkpt>
      <trkpt lat="45.7796" lon="3.04109">
        <ele>592</ele>
        <time>2020-07-11T13:18:37.000Z</time>
      </trkpt>
      <trkpt lat="45.77959" lon="3.04106">
        <ele>593</ele>
        <time>2020-07-11T13:18:38.000Z</time>
      </trkpt>
      <trkpt lat="45.77958" lon="3.04103">
        <ele>593</ele>
        <time>2020-07-11T13:18:39.000Z</time>
      </trkpt>
      <trkpt lat="45.77958" lon="3.041">
        <ele>593</ele>
        <time>2020-07-11T13:18:40.000Z</time>
      </trkpt>
      <trkpt lat="45.77957" lon="3.04097">
        <ele>593</ele>
        <time>2020-07-11T13:18:41.000Z</time>
      </trkpt>
      <trkpt lat="45.77956" lon="3.04094">
        <ele>594</ele>
        <time>2020-07-11T13:18:42.000Z</time>
      </trkpt>
      <trkpt lat="45.77955" lon="3.04092">
        <ele>594</ele>
        <time>2020-07-11T13:18:43.000Z</time>
      </trkpt>
      <trkpt lat="45.77954" lon="3.04089">
        <ele>595</ele>
        <time>2020-07-11T13:18:44.000Z</time>
      </trkpt>
      <trkpt lat="45.77954" lon="3.04086">
        <ele>597</ele>
        <time>2020-07-11T13:18:45.000Z</time>
      </trkpt>
      <trkpt lat="45.77953" lon="3.04083">
        <ele>597</ele>
        <time>2020-07-11T13:18:46.000Z</time>
      </trkpt>
      <trkpt lat="45.77952" lon="3.04081">
        <ele>597</ele>
        <time>2020-07-11T13:18:47.000Z</time>
      </trkpt>
      <trkpt lat="45.77951" lon="3.04078">
        <ele>597</ele>
        <time>2020-07-11T13:18:48.000Z</time>
      </trkpt>
      <trkpt lat="45.77951" lon="3.04075">
        <ele>596</ele>
        <time>2020-07-11T13:18:49.000Z</time>
      </trkpt>
      <trkpt lat="45.7795" lon="3.04072">
        <ele>595</ele>
        <time>2020-07-11T13:18:50.000Z</time>
      </trkpt>
      <trkpt lat="45.77949" lon="3.04069">
        <ele>595</ele>
        <time>2020-07-11T13:18:51.000Z</time>
      </trkpt>
      <trkpt lat="45.77949" lon="3.04066">
        <ele>595</ele>
        <time>2020-07-11T13:18:52.000Z</time>
      </trkpt>
      <trkpt lat="45.77949" lon="3.04063">
        <ele>595</ele>
        <time>2020-07-11T13:18:53.000Z</time>
      </trkpt>
      <trkpt lat="45.77948" lon="3.0406">
        <ele>595</ele>
        <time>2020-07-11T13:18:54.000Z</time>
      </trkpt>
      <trkpt lat="45.77949" lon="3.04058">
        <ele>595</ele>
        <time>2020-07-11T13:18:55.000Z</time>
      </trkpt>
      <trkpt lat="45.77949" lon="3.04055">
        <ele>595</ele>
        <time>2020-07-11T13:18:56.000Z</time>
      </trkpt>
      <trkpt lat="45.77949" lon="3.04053">
        <ele>595</ele>
        <time>2020-07-11T13:18:57.000Z</time>
      </trkpt>
      <trkpt lat="45.7795" lon="3.04051">
        <ele>595</ele>
        <time>2020-07-11T13:18:58.000Z</time>
      </trkpt>
      <trkpt lat="45.7795" lon="3.04049">
        <ele>595</ele>
        <time>2020-07-11T13:18:59.000Z</time>
      </trkpt>
      <trkpt lat="45.77951" lon="3.04047">
        <ele>594</ele>
        <time>2020-07-11T13:19:00.000Z</time>
      </trkpt>
      <trkpt lat="45.77952" lon="3.04045">
        <ele>593</ele>
        <time>2020-07-11T13:19:01.000Z</time>
      </trkpt>
      <trkpt lat="45.77953" lon="3.04042">
        <ele>593</ele>
        <time>2020-07-11T13:19:02.000Z</time>
      </trkpt>
      <trkpt lat="45.77955" lon="3.0404">
        <ele>593</ele>
        <time>2020-07-11T13:19:03.000Z</time>
      </trkpt>
      <trkpt lat="45.77956" lon="3.04038">
        <ele>593</ele>
        <time>2020-07-11T13:19:04.000Z</time>
      </trkpt>
      <trkpt lat="45.77956" lon="3.04036">
        <ele>593</ele>
        <time>2020-07-11T13:19:05.000Z</time>
      </trkpt>
      <trkpt lat="45.77957" lon="3.04033">
        <ele>593</ele>
        <time>2020-07-11T13:19:06.000Z</time>
      </trkpt>
      <trkpt lat="45.77957" lon="3.04031">
        <ele>594</ele>
        <time>2020-07-11T13:19:07.000Z</time>
      </trkpt>
      <trkpt lat="45.77957" lon="3.04028">
        <ele>594</ele>
        <time>2020-07-11T13:19:08.000Z</time>
      </trkpt>
      <trkpt lat="45.77958" lon="3.04026">
        <ele>594</ele>
        <time>2020-07-11T13:19:09.000Z</time>
      </trkpt>
      <trkpt lat="45.77959" lon="3.04023">
        <ele>594</ele>
        <time>2020-07-11T13:19:10.000Z</time>
      </trkpt>
      <trkpt lat="45.7796" lon="3.04021">
        <ele>595</ele>
        <time>2020-07-11T13:19:11.000Z</time>
      </trkpt>
      <trkpt lat="45.77961" lon="3.04019">
        <ele>596</ele>
        <time>2020-07-11T13:19:12.000Z</time>
      </trkpt>
      <trkpt lat="45.77962" lon="3.04016">
        <ele>596</ele>
        <time>2020-07-11T13:19:13.000Z</time>
      </trkpt>
      <trkpt lat="45.77963" lon="3.04014">
        <ele>595</ele>
        <time>2020-07-11T13:19:14.000Z</time>
      </trkpt>
      <trkpt lat="45.77964" lon="3.04012">
        <ele>596</ele>
        <time>2020-07-11T13:19:15.000Z</time>
      </trkpt>
      <trkpt lat="45.77965" lon="3.04009">
        <ele>597</ele>
        <time>2020-07-11T13:19:16.000Z</time>
      </trkpt>
      <trkpt lat="45.77966" lon="3.04007">
        <ele>595</ele>
        <time>2020-07-11T13:19:17.000Z</time>
      </trkpt>
      <trkpt lat="45.77967" lon="3.04005">
        <ele>595</ele>
        <time>2020-07-11T13:19:18.000Z</time>
      </trkpt>
      <trkpt lat="45.77968" lon="3.04002">
        <ele>595</ele>
        <time>2020-07-11T13:19:19.000Z</time>
      </trkpt>
      <trkpt lat="45.77969" lon="3.04">
        <ele>595</ele>
        <time>2020-07-11T13:19:20.000Z</time>
      </trkpt>
      <trkpt lat="45.7797" lon="3.03998">
        <ele>596</ele>
        <time>2020-07-11T13:19:21.000Z</time>
      </trkpt>
      <trkpt lat="45.7797" lon="3.03996">
        <ele>596</ele>
        <time>2020-07-11T13:19:22.000Z</time>
      </trkpt>
      <trkpt lat="45.77971" lon="3.03994">
        <ele>597</ele>
        <time>2020-07-11T13:19:23.000Z</time>
      </trkpt>
      <trkpt lat="45.77972" lon="3.03992">
        <ele>596</ele>
        <time>2020-07-11T13:19:24.000Z</time>
      </trkpt>
      <trkpt lat="45.77973" lon="3.0399">
        <ele>597</ele>
        <time>2020-07-11T13:19:25.000Z</time>
      </trkpt>
      <trkpt lat="45.77973" lon="3.03988">
        <ele>597</ele>
        <time>2020-07-11T13:19:26.000Z</time>
      </trkpt>
      <trkpt lat="45.77974" lon="3.03986">
        <ele>599</ele>
        <time>2020-07-11T13:19:27.000Z</time>
      </trkpt>
      <trkpt lat="45.77975" lon="3.03984">
        <ele>599</ele>
        <time>2020-07-11T13:19:28.000Z</time>
      </trkpt>
      <trkpt lat="45.77976" lon="3.03981">
        <ele>600</ele>
        <time>2020-07-11T13:19:29.000Z</time>
      </trkpt>
      <trkpt lat="45.77976" lon="3.03979">
        <ele>601</ele>
        <time>2020-07-11T13:19:30.000Z</time>
      </trkpt>
      <trkpt lat="45.77977" lon="3.03976">
        <ele>601</ele>
        <time>2020-07-11T13:19:31.000Z</time>
      </trkpt>
      <trkpt lat="45.77977" lon="3.03974">
        <ele>601</ele>
        <time>2020-07-11T13:19:32.000Z</time>
      </trkpt>
      <trkpt lat="45.77978" lon="3.03972">
        <ele>602</ele>
        <time>2020-07-11T13:19:33.000Z</time>
      </trkpt>
      <trkpt lat="45.77978" lon="3.0397">
        <ele>602</ele>
        <time>2020-07-11T13:19:34.000Z</time>
      </trkpt>
      <trkpt lat="45.77979" lon="3.03968">
        <ele>602</ele>
        <time>2020-07-11T13:19:35.000Z</time>
      </trkpt>
      <trkpt lat="45.77979" lon="3.03966">
        <ele>602</ele>
        <time>2020-07-11T13:19:36.000Z</time>
      </trkpt>
      <trkpt lat="45.7798" lon="3.03964">
        <ele>603</ele>
        <time>2020-07-11T13:19:37.000Z</time>
      </trkpt>
      <trkpt lat="45.7798" lon="3.03962">
        <ele>603</ele>
        <time>2020-07-11T13:19:38.000Z</time>
      </trkpt>
      <trkpt lat="45.77981" lon="3.03959">
        <ele>603</ele>
        <time>2020-07-11T13:19:39.000Z</time>
      </trkpt>
      <trkpt lat="45.77982" lon="3.03957">
        <ele>603</ele>
        <time>2020-07-11T13:19:40.000Z</time>
      </trkpt>
      <trkpt lat="45.77982" lon="3.03954">
        <ele>605</ele>
        <time>2020-07-11T13:19:41.000Z</time>
      </trkpt>
      <trkpt lat="45.77982" lon="3.03951">
        <ele>606</ele>
        <time>2020-07-11T13:19:42.000Z</time>
      </trkpt>
      <trkpt lat="45.77983" lon="3.03948">
        <ele>606</ele>
        <time>2020-07-11T13:19:43.000Z</time>
      </trkpt>
      <trkpt lat="45.77984" lon="3.03946">
        <ele>606</ele>
        <time>2020-07-11T13:19:44.000Z</time>
      </trkpt>
      <trkpt lat="45.77985" lon="3.03943">
        <ele>605</ele>
        <time>2020-07-11T13:19:45.000Z</time>
      </trkpt>
      <trkpt lat="45.77986" lon="3.03941">
        <ele>605</ele>
        <time>2020-07-11T13:19:46.000Z</time>
      </trkpt>
      <trkpt lat="45.77987" lon="3.03938">
        <ele>605</ele>
        <time>2020-07-11T13:19:47.000Z</time>
      </trkpt>
      <trkpt lat="45.77988" lon="3.03936">
        <ele>605</ele>
        <time>2020-07-11T13:19:48.000Z</time>
      </trkpt>
      <trkpt lat="45.77989" lon="3.03934">
        <ele>605</ele>
        <time>2020-07-11T13:19:49.000Z</time>
      </trkpt>
      <trkpt lat="45.7799" lon="3.03931">
        <ele>605</ele>
        <time>2020-07-11T13:19:50.000Z</time>
      </trkpt>
      <trkpt lat="45.77991" lon="3.03929">
        <ele>606</ele>
        <time>2020-07-11T13:19:51.000Z</time>
      </trkpt>
      <trkpt lat="45.77992" lon="3.03927">
        <ele>605</ele>
        <time>2020-07-11T13:19:52.000Z</time>
      </trkpt>
      <trkpt lat="45.77993" lon="3.03924">
        <ele>606</ele>
        <time>2020-07-11T13:19:53.000Z</time>
      </trkpt>
      <trkpt lat="45.77993" lon="3.03922">
        <ele>607</ele>
        <time>2020-07-11T13:19:54.000Z</time>
      </trkpt>
      <trkpt lat="45.77993" lon="3.03919">
        <ele>607</ele>
        <time>2020-07-11T13:19:55.000Z</time>
      </trkpt>
      <trkpt lat="45.77994" lon="3.03917">
        <ele>609</ele>
        <time>2020-07-11T13:19:56.000Z</time>
      </trkpt>
      <trkpt lat="45.77994" lon="3.03914">
        <ele>609</ele>
        <time>2020-07-11T13:19:57.000Z</time>
      </trkpt>
      <trkpt lat="45.77994" lon="3.03912">
        <ele>608</ele>
        <time>2020-07-11T13:19:58.000Z</time>
      </trkpt>
      <trkpt lat="45.77995" lon="3.03909">
        <ele>607</ele>
        <time>2020-07-11T13:19:59.000Z</time>
      </trkpt>
      <trkpt lat="45.77996" lon="3.03906">
        <ele>606</ele>
        <time>2020-07-11T13:20:00.000Z</time>
      </trkpt>
      <trkpt lat="45.77997" lon="3.03903">
        <ele>606</ele>
        <time>2020-07-11T13:20:01.000Z</time>
      </trkpt>
      <trkpt lat="45.77997" lon="3.03901">
        <ele>606</ele>
        <time>2020-07-11T13:20:02.000Z</time>
      </trkpt>
      <trkpt lat="45.77998" lon="3.03898">
        <ele>605</ele>
        <time>2020-07-11T13:20:03.000Z</time>
      </trkpt>
      <trkpt lat="45.77998" lon="3.03896">
        <ele>605</ele>
        <time>2020-07-11T13:20:04.000Z</time>
      </trkpt>
      <trkpt lat="45.77998" lon="3.03893">
        <ele>605</ele>
        <time>2020-07-11T13:20:05.000Z</time>
      </trkpt>
      <trkpt lat="45.77998" lon="3.03891">
        <ele>606</ele>
        <time>2020-07-11T13:20:06.000Z</time>
      </trkpt>
      <trkpt lat="45.77999" lon="3.03888">
        <ele>607</ele>
        <time>2020-07-11T13:20:07.000Z</time>
      </trkpt>
      <trkpt lat="45.77999" lon="3.03887">
        <ele>607</ele>
        <time>2020-07-11T13:20:08.000Z</time>
      </trkpt>
      <trkpt lat="45.77999" lon="3.03885">
        <ele>608</ele>
        <time>2020-07-11T13:20:09.000Z</time>
      </trkpt>
      <trkpt lat="45.77999" lon="3.03883">
        <ele>609</ele>
        <time>2020-07-11T13:20:10.000Z</time>
      </trkpt>
      <trkpt lat="45.77999" lon="3.03881">
        <ele>609</ele>
        <time>2020-07-11T13:20:11.000Z</time>
      </trkpt>
      <trkpt lat="45.77999" lon="3.03879">
        <ele>611</ele>
        <time>2020-07-11T13:20:12.000Z</time>
      </trkpt>
      <trkpt lat="45.77998" lon="3.03877">
        <ele>611</ele>
        <time>2020-07-11T13:20:13.000Z</time>
      </trkpt>
      <trkpt lat="45.77998" lon="3.03874">
        <ele>613</ele>
        <time>2020-07-11T13:20:14.000Z</time>
      </trkpt>
      <trkpt lat="45.77997" lon="3.03871">
        <ele>615</ele>
        <time>2020-07-11T13:20:15.000Z</time>
      </trkpt>
      <trkpt lat="45.77996" lon="3.03868">
        <ele>616</ele>
        <time>2020-07-11T13:20:16.000Z</time>
      </trkpt>
      <trkpt lat="45.77995" lon="3.03865">
        <ele>617</ele>
        <time>2020-07-11T13:20:17.000Z</time>
      </trkpt>
      <trkpt lat="45.77995" lon="3.03863">
        <ele>617</ele>
        <time>2020-07-11T13:20:18.000Z</time>
      </trkpt>
      <trkpt lat="45.77994" lon="3.0386">
        <ele>617</ele>
        <time>2020-07-11T13:20:19.000Z</time>
      </trkpt>
      <trkpt lat="45.77993" lon="3.03858">
        <ele>618</ele>
        <time>2020-07-11T13:20:20.000Z</time>
      </trkpt>
      <trkpt lat="45.77993" lon="3.03856">
        <ele>618</ele>
        <time>2020-07-11T13:20:21.000Z</time>
      </trkpt>
      <trkpt lat="45.77992" lon="3.03853">
        <ele>619</ele>
        <time>2020-07-11T13:20:22.000Z</time>
      </trkpt>
      <trkpt lat="45.77992" lon="3.03851">
        <ele>619</ele>
        <time>2020-07-11T13:20:23.000Z</time>
      </trkpt>
      <trkpt lat="45.77991" lon="3.03849">
        <ele>620</ele>
        <time>2020-07-11T13:20:24.000Z</time>
      </trkpt>
      <trkpt lat="45.77991" lon="3.03847">
        <ele>620</ele>
        <time>2020-07-11T13:20:25.000Z</time>
      </trkpt>
      <trkpt lat="45.7799" lon="3.03845">
        <ele>621</ele>
        <time>2020-07-11T13:20:26.000Z</time>
      </trkpt>
      <trkpt lat="45.7799" lon="3.03843">
        <ele>623</ele>
        <time>2020-07-11T13:20:27.000Z</time>
      </trkpt>
      <trkpt lat="45.77989" lon="3.03841">
        <ele>624</ele>
        <time>2020-07-11T13:20:28.000Z</time>
      </trkpt>
      <trkpt lat="45.77988" lon="3.0384">
        <ele>625</ele>
        <time>2020-07-11T13:20:29.000Z</time>
      </trkpt>
      <trkpt lat="45.77987" lon="3.03838">
        <ele>626</ele>
        <time>2020-07-11T13:20:30.000Z</time>
      </trkpt>
      <trkpt lat="45.77986" lon="3.03837">
        <ele>626</ele>
        <time>2020-07-11T13:20:31.000Z</time>
      </trkpt>
      <trkpt lat="45.77985" lon="3.03836">
        <ele>626</ele>
        <time>2020-07-11T13:20:32.000Z</time>
      </trkpt>
      <trkpt lat="45.77984" lon="3.03835">
        <ele>627</ele>
        <time>2020-07-11T13:20:33.000Z</time>
      </trkpt>
      <trkpt lat="45.77983" lon="3.03834">
        <ele>628</ele>
        <time>2020-07-11T13:20:34.000Z</time>
      </trkpt>
      <trkpt lat="45.77981" lon="3.03833">
        <ele>629</ele>
        <time>2020-07-11T13:20:35.000Z</time>
      </trkpt>
      <trkpt lat="45.7798" lon="3.03832">
        <ele>630</ele>
        <time>2020-07-11T13:20:36.000Z</time>
      </trkpt>
      <trkpt lat="45.77979" lon="3.03831">
        <ele>630</ele>
        <time>2020-07-11T13:20:37.000Z</time>
      </trkpt>
      <trkpt lat="45.77978" lon="3.03831">
        <ele>630</ele>
        <time>2020-07-11T13:20:38.000Z</time>
      </trkpt>
      <trkpt lat="45.77977" lon="3.0383">
        <ele>631</ele>
        <time>2020-07-11T13:20:39.000Z</time>
      </trkpt>
      <trkpt lat="45.77976" lon="3.03829">
        <ele>631</ele>
        <time>2020-07-11T13:20:40.000Z</time>
      </trkpt>
      <trkpt lat="45.77975" lon="3.03829">
        <ele>632</ele>
        <time>2020-07-11T13:20:41.000Z</time>
      </trkpt>
      <trkpt lat="45.77974" lon="3.03828">
        <ele>634</ele>
        <time>2020-07-11T13:20:42.000Z</time>
      </trkpt>
      <trkpt lat="45.77972" lon="3.03826">
        <ele>634</ele>
        <time>2020-07-11T13:20:43.000Z</time>
      </trkpt>
      <trkpt lat="45.77971" lon="3.03825">
        <ele>635</ele>
        <time>2020-07-11T13:20:44.000Z</time>
      </trkpt>
      <trkpt lat="45.77969" lon="3.03824">
        <ele>638</ele>
        <time>2020-07-11T13:20:45.000Z</time>
      </trkpt>
      <trkpt lat="45.77967" lon="3.03822">
        <ele>639</ele>
        <time>2020-07-11T13:20:46.000Z</time>
      </trkpt>
      <trkpt lat="45.77964" lon="3.03821">
        <ele>640</ele>
        <time>2020-07-11T13:20:47.000Z</time>
      </trkpt>
      <trkpt lat="45.77962" lon="3.0382">
        <ele>640</ele>
        <time>2020-07-11T13:20:48.000Z</time>
      </trkpt>
      <trkpt lat="45.7796" lon="3.03818">
        <ele>641</ele>
        <time>2020-07-11T13:20:49.000Z</time>
      </trkpt>
      <trkpt lat="45.77958" lon="3.03817">
        <ele>642</ele>
        <time>2020-07-11T13:20:50.000Z</time>
      </trkpt>
      <trkpt lat="45.77956" lon="3.03816">
        <ele>643</ele>
        <time>2020-07-11T13:20:51.000Z</time>
      </trkpt>
      <trkpt lat="45.77955" lon="3.03815">
        <ele>644</ele>
        <time>2020-07-11T13:20:52.000Z</time>
      </trkpt>
      <trkpt lat="45.77954" lon="3.03814">
        <ele>645</ele>
        <time>2020-07-11T13:20:53.000Z</time>
      </trkpt>
      <trkpt lat="45.77954" lon="3.03812">
        <ele>645</ele>
        <time>2020-07-11T13:20:54.000Z</time>
      </trkpt>
      <trkpt lat="45.77953" lon="3.03809">
        <ele>645</ele>
        <time>2020-07-11T13:20:55.000Z</time>
      </trkpt>
      <trkpt lat="45.77952" lon="3.03807">
        <ele>646</ele>
        <time>2020-07-11T13:20:56.000Z</time>
      </trkpt>
      <trkpt lat="45.77951" lon="3.03805">
        <ele>646</ele>
        <time>2020-07-11T13:20:57.000Z</time>
      </trkpt>
      <trkpt lat="45.7795" lon="3.03803">
        <ele>646</ele>
        <time>2020-07-11T13:20:58.000Z</time>
      </trkpt>
      <trkpt lat="45.7795" lon="3.038">
        <ele>646</ele>
        <time>2020-07-11T13:20:59.000Z</time>
      </trkpt>
      <trkpt lat="45.7795" lon="3.03798">
        <ele>646</ele>
        <time>2020-07-11T13:21:00.000Z</time>
      </trkpt>
      <trkpt lat="45.7795" lon="3.03795">
        <ele>647</ele>
        <time>2020-07-11T13:21:01.000Z</time>
      </trkpt>
      <trkpt lat="45.77949" lon="3.03793">
        <ele>647</ele>
        <time>2020-07-11T13:21:02.000Z</time>
      </trkpt>
      <trkpt lat="45.77949" lon="3.0379">
        <ele>648</ele>
        <time>2020-07-11T13:21:03.000Z</time>
      </trkpt>
      <trkpt lat="45.77949" lon="3.03787">
        <ele>649</ele>
        <time>2020-07-11T13:21:04.000Z</time>
      </trkpt>
      <trkpt lat="45.77949" lon="3.03785">
        <ele>649</ele>
        <time>2020-07-11T13:21:05.000Z</time>
      </trkpt>
      <trkpt lat="45.7795" lon="3.03782">
        <ele>650</ele>
        <time>2020-07-11T13:21:06.000Z</time>
      </trkpt>
      <trkpt lat="45.7795" lon="3.0378">
        <ele>650</ele>
        <time>2020-07-11T13:21:07.000Z</time>
      </trkpt>
      <trkpt lat="45.7795" lon="3.03779">
        <ele>650</ele>
        <time>2020-07-11T13:21:08.000Z</time>
      </trkpt>
      <trkpt lat="45.7795" lon="3.03777">
        <ele>650</ele>
        <time>2020-07-11T13:21:09.000Z</time>
      </trkpt>
      <trkpt lat="45.77951" lon="3.03775">
        <ele>651</ele>
        <time>2020-07-11T13:21:10.000Z</time>
      </trkpt>
      <trkpt lat="45.77951" lon="3.03774">
        <ele>652</ele>
        <time>2020-07-11T13:21:11.000Z</time>
      </trkpt>
      <trkpt lat="45.77952" lon="3.03772">
        <ele>652</ele>
        <time>2020-07-11T13:21:12.000Z</time>
      </trkpt>
      <trkpt lat="45.77953" lon="3.0377">
        <ele>653</ele>
        <time>2020-07-11T13:21:13.000Z</time>
      </trkpt>
      <trkpt lat="45.77955" lon="3.03769">
        <ele>653</ele>
        <time>2020-07-11T13:21:14.000Z</time>
      </trkpt>
      <trkpt lat="45.77956" lon="3.03767">
        <ele>653</ele>
        <time>2020-07-11T13:21:15.000Z</time>
      </trkpt>
      <trkpt lat="45.77956" lon="3.03766">
        <ele>652</ele>
        <time>2020-07-11T13:21:16.000Z</time>
      </trkpt>
      <trkpt lat="45.77958" lon="3.03765">
        <ele>652</ele>
        <time>2020-07-11T13:21:17.000Z</time>
      </trkpt>
      <trkpt lat="45.77959" lon="3.03764">
        <ele>652</ele>
        <time>2020-07-11T13:21:18.000Z</time>
      </trkpt>
      <trkpt lat="45.7796" lon="3.03762">
        <ele>652</ele>
        <time>2020-07-11T13:21:19.000Z</time>
      </trkpt>
      <trkpt lat="45.77961" lon="3.03761">
        <ele>651</ele>
        <time>2020-07-11T13:21:20.000Z</time>
      </trkpt>
      <trkpt lat="45.77962" lon="3.03759">
        <ele>652</ele>
        <time>2020-07-11T13:21:21.000Z</time>
      </trkpt>
      <trkpt lat="45.77963" lon="3.03758">
        <ele>652</ele>
        <time>2020-07-11T13:21:22.000Z</time>
      </trkpt>
      <trkpt lat="45.77964" lon="3.03756">
        <ele>652</ele>
        <time>2020-07-11T13:21:23.000Z</time>
      </trkpt>
      <trkpt lat="45.77965" lon="3.03754">
        <ele>654</ele>
        <time>2020-07-11T13:21:24.000Z</time>
      </trkpt>
      <trkpt lat="45.77966" lon="3.03752">
        <ele>654</ele>
        <time>2020-07-11T13:21:25.000Z</time>
      </trkpt>
      <trkpt lat="45.77967" lon="3.0375">
        <ele>654</ele>
        <time>2020-07-11T13:21:26.000Z</time>
      </trkpt>
      <trkpt lat="45.77968" lon="3.03748">
        <ele>654</ele>
        <time>2020-07-11T13:21:27.000Z</time>
      </trkpt>
      <trkpt lat="45.7797" lon="3.03746">
        <ele>654</ele>
        <time>2020-07-11T13:21:28.000Z</time>
      </trkpt>
      <trkpt lat="45.77971" lon="3.03744">
        <ele>653</ele>
        <time>2020-07-11T13:21:29.000Z</time>
      </trkpt>
      <trkpt lat="45.77972" lon="3.03743">
        <ele>653</ele>
        <time>2020-07-11T13:21:30.000Z</time>
      </trkpt>
      <trkpt lat="45.77973" lon="3.0374">
        <ele>653</ele>
        <time>2020-07-11T13:21:31.000Z</time>
      </trkpt>
      <trkpt lat="45.77974" lon="3.03738">
        <ele>653</ele>
        <time>2020-07-11T13:21:32.000Z</time>
      </trkpt>
      <trkpt lat="45.77976" lon="3.03736">
        <ele>652</ele>
        <time>2020-07-11T13:21:33.000Z</time>
      </trkpt>
      <trkpt lat="45.77977" lon="3.03734">
        <ele>652</ele>
        <time>2020-07-11T13:21:34.000Z</time>
      </trkpt>
      <trkpt lat="45.77979" lon="3.03731">
        <ele>651</ele>
        <time>2020-07-11T13:21:35.000Z</time>
      </trkpt>
      <trkpt lat="45.7798" lon="3.03728">
        <ele>650</ele>
        <time>2020-07-11T13:21:36.000Z</time>
      </trkpt>
      <trkpt lat="45.77982" lon="3.03726">
        <ele>650</ele>
        <time>2020-07-11T13:21:37.000Z</time>
      </trkpt>
      <trkpt lat="45.77984" lon="3.03723">
        <ele>649</ele>
        <time>2020-07-11T13:21:38.000Z</time>
      </trkpt>
      <trkpt lat="45.77986" lon="3.03721">
        <ele>649</ele>
        <time>2020-07-11T13:21:39.000Z</time>
      </trkpt>
      <trkpt lat="45.77987" lon="3.03718">
        <ele>650</ele>
        <time>2020-07-11T13:21:40.000Z</time>
      </trkpt>
      <trkpt lat="45.77988" lon="3.03716">
        <ele>650</ele>
        <time>2020-07-11T13:21:41.000Z</time>
      </trkpt>
      <trkpt lat="45.7799" lon="3.03714">
        <ele>649</ele>
        <time>2020-07-11T13:21:42.000Z</time>
      </trkpt>
      <trkpt lat="45.77991" lon="3.03711">
        <ele>650</ele>
        <time>2020-07-11T13:21:43.000Z</time>
      </trkpt>
      <trkpt lat="45.77993" lon="3.03709">
        <ele>650</ele>
        <time>2020-07-11T13:21:44.000Z</time>
      </trkpt>
      <trkpt lat="45.77994" lon="3.03707">
        <ele>650</ele>
        <time>2020-07-11T13:21:45.000Z</time>
      </trkpt>
      <trkpt lat="45.77995" lon="3.03706">
        <ele>651</ele>
        <time>2020-07-11T13:21:46.000Z</time>
      </trkpt>
      <trkpt lat="45.77997" lon="3.03704">
        <ele>651</ele>
        <time>2020-07-11T13:21:47.000Z</time>
      </trkpt>
      <trkpt lat="45.77998" lon="3.03702">
        <ele>652</ele>
        <time>2020-07-11T13:21:48.000Z</time>
      </trkpt>
      <trkpt lat="45.77998" lon="3.037">
        <ele>652</ele>
        <time>2020-07-11T13:21:49.000Z</time>
      </trkpt>
      <trkpt lat="45.77999" lon="3.03698">
        <ele>653</ele>
        <time>2020-07-11T13:21:50.000Z</time>
      </trkpt>
      <trkpt lat="45.78" lon="3.03696">
        <ele>654</ele>
        <time>2020-07-11T13:21:51.000Z</time>
      </trkpt>
      <trkpt lat="45.78001" lon="3.03693">
        <ele>654</ele>
        <time>2020-07-11T13:21:52.000Z</time>
      </trkpt>
      <trkpt lat="45.78002" lon="3.03691">
        <ele>654</ele>
        <time>2020-07-11T13:21:53.000Z</time>
      </trkpt>
      <trkpt lat="45.78003" lon="3.03688">
        <ele>654</ele>
        <time>2020-07-11T13:21:54.000Z</time>
      </trkpt>
      <trkpt lat="45.78004" lon="3.03686">
        <ele>655</ele>
        <time>2020-07-11T13:21:55.000Z</time>
      </trkpt>
      <trkpt lat="45.78005" lon="3.03683">
        <ele>655</ele>
        <time>2020-07-11T13:21:56.000Z</time>
      </trkpt>
      <trkpt lat="45.78006" lon="3.03681">
        <ele>655</ele>
        <time>2020-07-11T13:21:57.000Z</time>
      </trkpt>
      <trkpt lat="45.78006" lon="3.03679">
        <ele>654</ele>
        <time>2020-07-11T13:21:58.000Z</time>
      </trkpt>
      <trkpt lat="45.78007" lon="3.03676">
        <ele>654</ele>
        <time>2020-07-11T13:21:59.000Z</time>
      </trkpt>
      <trkpt lat="45.78008" lon="3.03674">
        <ele>654</ele>
        <time>2020-07-11T13:22:00.000Z</time>
      </trkpt>
      <trkpt lat="45.78007" lon="3.03671">
        <ele>655</ele>
        <time>2020-07-11T13:22:01.000Z</time>
      </trkpt>
      <trkpt lat="45.78007" lon="3.03668">
        <ele>654</ele>
        <time>2020-07-11T13:22:02.000Z</time>
      </trkpt>
      <trkpt lat="45.78006" lon="3.03665">
        <ele>654</ele>
        <time>2020-07-11T13:22:03.000Z</time>
      </trkpt>
      <trkpt lat="45.78005" lon="3.03663">
        <ele>655</ele>
        <time>2020-07-11T13:22:04.000Z</time>
      </trkpt>
      <trkpt lat="45.78004" lon="3.0366">
        <ele>655</ele>
        <time>2020-07-11T13:22:05.000Z</time>
      </trkpt>
      <trkpt lat="45.78003" lon="3.03658">
        <ele>655</ele>
        <time>2020-07-11T13:22:06.000Z</time>
      </trkpt>
      <trkpt lat="45.78003" lon="3.03656">
        <ele>655</ele>
        <time>2020-07-11T13:22:07.000Z</time>
      </trkpt>
      <trkpt lat="45.78002" lon="3.03654">
        <ele>655</ele>
        <time>2020-07-11T13:22:08.000Z</time>
      </trkpt>
      <trkpt lat="45.78002" lon="3.03653">
        <ele>655</ele>
        <time>2020-07-11T13:22:09.000Z</time>
      </trkpt>
      <trkpt lat="45.78003" lon="3.03651">
        <ele>655</ele>
        <time>2020-07-11T13:22:10.000Z</time>
      </trkpt>
      <trkpt lat="45.78003" lon="3.03649">
        <ele>656</ele>
        <time>2020-07-11T13:22:11.000Z</time>
      </trkpt>
      <trkpt lat="45.78002" lon="3.03648">
        <ele>656</ele>
        <time>2020-07-11T13:22:12.000Z</time>
      </trkpt>
      <trkpt lat="45.78002" lon="3.03646">
        <ele>657</ele>
        <time>2020-07-11T13:22:13.000Z</time>
      </trkpt>
      <trkpt lat="45.78001" lon="3.03645">
        <ele>657</ele>
        <time>2020-07-11T13:22:14.000Z</time>
      </trkpt>
      <trkpt lat="45.78001" lon="3.03643">
        <ele>657</ele>
        <time>2020-07-11T13:22:15.000Z</time>
      </trkpt>
      <trkpt lat="45.78001" lon="3.03642">
        <ele>656</ele>
        <time>2020-07-11T13:22:16.000Z</time>
      </trkpt>
      <trkpt lat="45.78001" lon="3.0364">
        <ele>657</ele>
        <time>2020-07-11T13:22:17.000Z</time>
      </trkpt>
      <trkpt lat="45.78001" lon="3.03638">
        <ele>657</ele>
        <time>2020-07-11T13:22:18.000Z</time>
      </trkpt>
      <trkpt lat="45.78001" lon="3.03636">
        <ele>658</ele>
        <time>2020-07-11T13:22:19.000Z</time>
      </trkpt>
      <trkpt lat="45.78001" lon="3.03634">
        <ele>657</ele>
        <time>2020-07-11T13:22:20.000Z</time>
      </trkpt>
      <trkpt lat="45.78001" lon="3.03632">
        <ele>657</ele>
        <time>2020-07-11T13:22:21.000Z</time>
      </trkpt>
      <trkpt lat="45.78001" lon="3.03631">
        <ele>658</ele>
        <time>2020-07-11T13:22:22.000Z</time>
      </trkpt>
      <trkpt lat="45.78002" lon="3.03629">
        <ele>659</ele>
        <time>2020-07-11T13:22:23.000Z</time>
      </trkpt>
      <trkpt lat="45.78002" lon="3.03628">
        <ele>659</ele>
        <time>2020-07-11T13:22:24.000Z</time>
      </trkpt>
      <trkpt lat="45.78002" lon="3.03626">
        <ele>660</ele>
        <time>2020-07-11T13:22:25.000Z</time>
      </trkpt>
      <trkpt lat="45.78002" lon="3.03624">
        <ele>659</ele>
        <time>2020-07-11T13:22:26.000Z</time>
      </trkpt>
      <trkpt lat="45.78002" lon="3.03622">
        <ele>660</ele>
        <time>2020-07-11T13:22:27.000Z</time>
      </trkpt>
      <trkpt lat="45.78003" lon="3.03621">
        <ele>659</ele>
        <time>2020-07-11T13:22:28.000Z</time>
      </trkpt>
      <trkpt lat="45.78004" lon="3.03619">
        <ele>659</ele>
        <time>2020-07-11T13:22:29.000Z</time>
      </trkpt>
      <trkpt lat="45.78005" lon="3.03617">
        <ele>659</ele>
        <time>2020-07-11T13:22:30.000Z</time>
      </trkpt>
      <trkpt lat="45.78005" lon="3.03616">
        <ele>659</ele>
        <time>2020-07-11T13:22:31.000Z</time>
      </trkpt>
      <trkpt lat="45.78005" lon="3.03614">
        <ele>659</ele>
        <time>2020-07-11T13:22:32.000Z</time>
      </trkpt>
      <trkpt lat="45.78006" lon="3.03612">
        <ele>659</ele>
        <time>2020-07-11T13:22:33.000Z</time>
      </trkpt>
      <trkpt lat="45.78006" lon="3.03611">
        <ele>659</ele>
        <time>2020-07-11T13:22:34.000Z</time>
      </trkpt>
      <trkpt lat="45.78006" lon="3.03609">
        <ele>659</ele>
        <time>2020-07-11T13:22:35.000Z</time>
      </trkpt>
      <trkpt lat="45.78006" lon="3.03608">
        <ele>659</ele>
        <time>2020-07-11T13:22:36.000Z</time>
      </trkpt>
      <trkpt lat="45.78006" lon="3.03606">
        <ele>660</ele>
        <time>2020-07-11T13:22:37.000Z</time>
      </trkpt>
      <trkpt lat="45.78007" lon="3.03604">
        <ele>661</ele>
        <time>2020-07-11T13:22:38.000Z</time>
      </trkpt>
      <trkpt lat="45.78007" lon="3.03602">
        <ele>661</ele>
        <time>2020-07-11T13:22:39.000Z</time>
      </trkpt>
      <trkpt lat="45.78008" lon="3.036">
        <ele>661</ele>
        <time>2020-07-11T13:22:40.000Z</time>
      </trkpt>
      <trkpt lat="45.78008" lon="3.03598">
        <ele>661</ele>
        <time>2020-07-11T13:22:41.000Z</time>
      </trkpt>
      <trkpt lat="45.78007" lon="3.03595">
        <ele>662</ele>
        <time>2020-07-11T13:22:42.000Z</time>
      </trkpt>
      <trkpt lat="45.78007" lon="3.03593">
        <ele>663</ele>
        <time>2020-07-11T13:22:43.000Z</time>
      </trkpt>
      <trkpt lat="45.78006" lon="3.0359">
        <ele>664</ele>
        <time>2020-07-11T13:22:44.000Z</time>
      </trkpt>
      <trkpt lat="45.78006" lon="3.03588">
        <ele>664</ele>
        <time>2020-07-11T13:22:45.000Z</time>
      </trkpt>
      <trkpt lat="45.78006" lon="3.03586">
        <ele>665</ele>
        <time>2020-07-11T13:22:46.000Z</time>
      </trkpt>
      <trkpt lat="45.78007" lon="3.03583">
        <ele>666</ele>
        <time>2020-07-11T13:22:47.000Z</time>
      </trkpt>
      <trkpt lat="45.78007" lon="3.03581">
        <ele>667</ele>
        <time>2020-07-11T13:22:48.000Z</time>
      </trkpt>
      <trkpt lat="45.78007" lon="3.03579">
        <ele>667</ele>
        <time>2020-07-11T13:22:49.000Z</time>
      </trkpt>
      <trkpt lat="45.78006" lon="3.03576">
        <ele>667</ele>
        <time>2020-07-11T13:22:50.000Z</time>
      </trkpt>
      <trkpt lat="45.78006" lon="3.03574">
        <ele>668</ele>
        <time>2020-07-11T13:22:51.000Z</time>
      </trkpt>
      <trkpt lat="45.78006" lon="3.03572">
        <ele>668</ele>
        <time>2020-07-11T13:22:52.000Z</time>
      </trkpt>
      <trkpt lat="45.78005" lon="3.03569">
        <ele>667</ele>
        <time>2020-07-11T13:22:53.000Z</time>
      </trkpt>
      <trkpt lat="45.78005" lon="3.03567">
        <ele>667</ele>
        <time>2020-07-11T13:22:54.000Z</time>
      </trkpt>
      <trkpt lat="45.78005" lon="3.03565">
        <ele>668</ele>
        <time>2020-07-11T13:22:55.000Z</time>
      </trkpt>
      <trkpt lat="45.78005" lon="3.03563">
        <ele>668</ele>
        <time>2020-07-11T13:22:56.000Z</time>
      </trkpt>
      <trkpt lat="45.78006" lon="3.03561">
        <ele>668</ele>
        <time>2020-07-11T13:22:57.000Z</time>
      </trkpt>
      <trkpt lat="45.78006" lon="3.03559">
        <ele>668</ele>
        <time>2020-07-11T13:22:58.000Z</time>
      </trkpt>
      <trkpt lat="45.78007" lon="3.03557">
        <ele>668</ele>
        <time>2020-07-11T13:22:59.000Z</time>
      </trkpt>
      <trkpt lat="45.78007" lon="3.03555">
        <ele>669</ele>
        <time>2020-07-11T13:23:00.000Z</time>
      </trkpt>
      <trkpt lat="45.78007" lon="3.03553">
        <ele>669</ele>
        <time>2020-07-11T13:23:01.000Z</time>
      </trkpt>
      <trkpt lat="45.78008" lon="3.03551">
        <ele>669</ele>
        <time>2020-07-11T13:23:02.000Z</time>
      </trkpt>
      <trkpt lat="45.78008" lon="3.03548">
        <ele>670</ele>
        <time>2020-07-11T13:23:03.000Z</time>
      </trkpt>
      <trkpt lat="45.78009" lon="3.03546">
        <ele>670</ele>
        <time>2020-07-11T13:23:04.000Z</time>
      </trkpt>
      <trkpt lat="45.78009" lon="3.03544">
        <ele>670</ele>
        <time>2020-07-11T13:23:05.000Z</time>
      </trkpt>
      <trkpt lat="45.7801" lon="3.03542">
        <ele>671</ele>
        <time>2020-07-11T13:23:06.000Z</time>
      </trkpt>
      <trkpt lat="45.78011" lon="3.0354">
        <ele>671</ele>
        <time>2020-07-11T13:23:07.000Z</time>
      </trkpt>
      <trkpt lat="45.78011" lon="3.03538">
        <ele>671</ele>
        <time>2020-07-11T13:23:08.000Z</time>
      </trkpt>
      <trkpt lat="45.78012" lon="3.03536">
        <ele>671</ele>
        <time>2020-07-11T13:23:09.000Z</time>
      </trkpt>
      <trkpt lat="45.78012" lon="3.03534">
        <ele>671</ele>
        <time>2020-07-11T13:23:10.000Z</time>
      </trkpt>
      <trkpt lat="45.78012" lon="3.03532">
        <ele>671</ele>
        <time>2020-07-11T13:23:11.000Z</time>
      </trkpt>
      <trkpt lat="45.78012" lon="3.0353">
        <ele>672</ele>
        <time>2020-07-11T13:23:12.000Z</time>
      </trkpt>
      <trkpt lat="45.78013" lon="3.03528">
        <ele>672</ele>
        <time>2020-07-11T13:23:13.000Z</time>
      </trkpt>
      <trkpt lat="45.78014" lon="3.03527">
        <ele>672</ele>
        <time>2020-07-11T13:23:14.000Z</time>
      </trkpt>
      <trkpt lat="45.78015" lon="3.03525">
        <ele>672</ele>
        <time>2020-07-11T13:23:15.000Z</time>
      </trkpt>
      <trkpt lat="45.78016" lon="3.03523">
        <ele>672</ele>
        <time>2020-07-11T13:23:16.000Z</time>
      </trkpt>
      <trkpt lat="45.78016" lon="3.03522">
        <ele>673</ele>
        <time>2020-07-11T13:23:17.000Z</time>
      </trkpt>
      <trkpt lat="45.78017" lon="3.0352">
        <ele>672</ele>
        <time>2020-07-11T13:23:18.000Z</time>
      </trkpt>
      <trkpt lat="45.78017" lon="3.03518">
        <ele>673</ele>
        <time>2020-07-11T13:23:19.000Z</time>
      </trkpt>
      <trkpt lat="45.78017" lon="3.03516">
        <ele>674</ele>
        <time>2020-07-11T13:23:20.000Z</time>
      </trkpt>
      <trkpt lat="45.78016" lon="3.03514">
        <ele>675</ele>
        <time>2020-07-11T13:23:21.000Z</time>
      </trkpt>
      <trkpt lat="45.78015" lon="3.03512">
        <ele>675</ele>
        <time>2020-07-11T13:23:22.000Z</time>
      </trkpt>
      <trkpt lat="45.78014" lon="3.0351">
        <ele>675</ele>
        <time>2020-07-11T13:23:23.000Z</time>
      </trkpt>
      <trkpt lat="45.78014" lon="3.03509">
        <ele>676</ele>
        <time>2020-07-11T13:23:24.000Z</time>
      </trkpt>
      <trkpt lat="45.78014" lon="3.03507">
        <ele>676</ele>
        <time>2020-07-11T13:23:25.000Z</time>
      </trkpt>
      <trkpt lat="45.78013" lon="3.03506">
        <ele>677</ele>
        <time>2020-07-11T13:23:26.000Z</time>
      </trkpt>
      <trkpt lat="45.78012" lon="3.03504">
        <ele>676</ele>
        <time>2020-07-11T13:23:27.000Z</time>
      </trkpt>
      <trkpt lat="45.78012" lon="3.03503">
        <ele>677</ele>
        <time>2020-07-11T13:23:28.000Z</time>
      </trkpt>
      <trkpt lat="45.78011" lon="3.03501">
        <ele>677</ele>
        <time>2020-07-11T13:23:29.000Z</time>
      </trkpt>
      <trkpt lat="45.78011" lon="3.03499">
        <ele>677</ele>
        <time>2020-07-11T13:23:30.000Z</time>
      </trkpt>
      <trkpt lat="45.7801" lon="3.03497">
        <ele>677</ele>
        <time>2020-07-11T13:23:31.000Z</time>
      </trkpt>
      <trkpt lat="45.78009" lon="3.03495">
        <ele>678</ele>
        <time>2020-07-11T13:23:32.000Z</time>
      </trkpt>
      <trkpt lat="45.78007" lon="3.03494">
        <ele>678</ele>
        <time>2020-07-11T13:23:33.000Z</time>
      </trkpt>
      <trkpt lat="45.78006" lon="3.03492">
        <ele>678</ele>
        <time>2020-07-11T13:23:34.000Z</time>
      </trkpt>
      <trkpt lat="45.78005" lon="3.0349">
        <ele>679</ele>
        <time>2020-07-11T13:23:35.000Z</time>
      </trkpt>
      <trkpt lat="45.78004" lon="3.03488">
        <ele>680</ele>
        <time>2020-07-11T13:23:36.000Z</time>
      </trkpt>
      <trkpt lat="45.78002" lon="3.03486">
        <ele>680</ele>
        <time>2020-07-11T13:23:37.000Z</time>
      </trkpt>
      <trkpt lat="45.78" lon="3.03484">
        <ele>681</ele>
        <time>2020-07-11T13:23:38.000Z</time>
      </trkpt>
      <trkpt lat="45.77998" lon="3.03482">
        <ele>680</ele>
        <time>2020-07-11T13:23:39.000Z</time>
      </trkpt>
      <trkpt lat="45.77996" lon="3.0348">
        <ele>681</ele>
        <time>2020-07-11T13:23:40.000Z</time>
      </trkpt>
      <trkpt lat="45.77995" lon="3.03479">
        <ele>681</ele>
        <time>2020-07-11T13:23:41.000Z</time>
      </trkpt>
      <trkpt lat="45.77993" lon="3.03477">
        <ele>682</ele>
        <time>2020-07-11T13:23:42.000Z</time>
      </trkpt>
      <trkpt lat="45.77992" lon="3.03476">
        <ele>682</ele>
        <time>2020-07-11T13:23:43.000Z</time>
      </trkpt>
      <trkpt lat="45.7799" lon="3.03475">
        <ele>682</ele>
        <time>2020-07-11T13:23:44.000Z</time>
      </trkpt>
      <trkpt lat="45.77989" lon="3.03474">
        <ele>683</ele>
        <time>2020-07-11T13:23:45.000Z</time>
      </trkpt>
      <trkpt lat="45.77988" lon="3.03473">
        <ele>683</ele>
        <time>2020-07-11T13:23:46.000Z</time>
      </trkpt>
      <trkpt lat="45.77987" lon="3.03472">
        <ele>683</ele>
        <time>2020-07-11T13:23:47.000Z</time>
      </trkpt>
      <trkpt lat="45.77985" lon="3.03471">
        <ele>684</ele>
        <time>2020-07-11T13:23:48.000Z</time>
      </trkpt>
      <trkpt lat="45.77984" lon="3.0347">
        <ele>684</ele>
        <time>2020-07-11T13:23:49.000Z</time>
      </trkpt>
      <trkpt lat="45.77983" lon="3.03469">
        <ele>685</ele>
        <time>2020-07-11T13:23:50.000Z</time>
      </trkpt>
      <trkpt lat="45.77982" lon="3.03469">
        <ele>685</ele>
        <time>2020-07-11T13:23:51.000Z</time>
      </trkpt>
      <trkpt lat="45.77982" lon="3.03468">
        <ele>685</ele>
        <time>2020-07-11T13:23:52.000Z</time>
      </trkpt>
      <trkpt lat="45.77981" lon="3.03467">
        <ele>685</ele>
        <time>2020-07-11T13:23:53.000Z</time>
      </trkpt>
      <trkpt lat="45.7798" lon="3.03465">
        <ele>685</ele>
        <time>2020-07-11T13:23:54.000Z</time>
      </trkpt>
      <trkpt lat="45.77979" lon="3.03464">
        <ele>686</ele>
        <time>2020-07-11T13:23:55.000Z</time>
      </trkpt>
      <trkpt lat="45.77978" lon="3.03463">
        <ele>686</ele>
        <time>2020-07-11T13:23:56.000Z</time>
      </trkpt>
      <trkpt lat="45.77977" lon="3.03461">
        <ele>686</ele>
        <time>2020-07-11T13:23:57.000Z</time>
      </trkpt>
      <trkpt lat="45.77977" lon="3.0346">
        <ele>687</ele>
        <time>2020-07-11T13:23:58.000Z</time>
      </trkpt>
      <trkpt lat="45.77976" lon="3.03459">
        <ele>687</ele>
        <time>2020-07-11T13:23:59.000Z</time>
      </trkpt>
      <trkpt lat="45.77975" lon="3.03457">
        <ele>687</ele>
        <time>2020-07-11T13:24:00.000Z</time>
      </trkpt>
      <trkpt lat="45.77974" lon="3.03456">
        <ele>688</ele>
        <time>2020-07-11T13:24:01.000Z</time>
      </trkpt>
      <trkpt lat="45.77973" lon="3.03454">
        <ele>689</ele>
        <time>2020-07-11T13:24:02.000Z</time>
      </trkpt>
      <trkpt lat="45.77971" lon="3.03452">
        <ele>689</ele>
        <time>2020-07-11T13:24:03.000Z</time>
      </trkpt>
      <trkpt lat="45.77969" lon="3.0345">
        <ele>687</ele>
        <time>2020-07-11T13:24:04.000Z</time>
      </trkpt>
      <trkpt lat="45.77968" lon="3.03448">
        <ele>688</ele>
        <time>2020-07-11T13:24:05.000Z</time>
      </trkpt>
      <trkpt lat="45.77966" lon="3.03447">
        <ele>688</ele>
        <time>2020-07-11T13:24:06.000Z</time>
      </trkpt>
      <trkpt lat="45.77965" lon="3.03445">
        <ele>688</ele>
        <time>2020-07-11T13:24:07.000Z</time>
      </trkpt>
      <trkpt lat="45.77963" lon="3.03444">
        <ele>688</ele>
        <time>2020-07-11T13:24:08.000Z</time>
      </trkpt>
      <trkpt lat="45.77962" lon="3.03442">
        <ele>689</ele>
        <time>2020-07-11T13:24:09.000Z</time>
      </trkpt>
      <trkpt lat="45.77961" lon="3.03441">
        <ele>689</ele>
        <time>2020-07-11T13:24:10.000Z</time>
      </trkpt>
      <trkpt lat="45.7796" lon="3.03439">
        <ele>689</ele>
        <time>2020-07-11T13:24:11.000Z</time>
      </trkpt>
      <trkpt lat="45.77959" lon="3.03437">
        <ele>688</ele>
        <time>2020-07-11T13:24:12.000Z</time>
      </trkpt>
      <trkpt lat="45.77958" lon="3.03434">
        <ele>688</ele>
        <time>2020-07-11T13:24:13.000Z</time>
      </trkpt>
      <trkpt lat="45.77957" lon="3.03431">
        <ele>689</ele>
        <time>2020-07-11T13:24:14.000Z</time>
      </trkpt>
      <trkpt lat="45.77955" lon="3.03429">
        <ele>689</ele>
        <time>2020-07-11T13:24:15.000Z</time>
      </trkpt>
      <trkpt lat="45.77955" lon="3.03426">
        <ele>689</ele>
        <time>2020-07-11T13:24:16.000Z</time>
      </trkpt>
      <trkpt lat="45.77954" lon="3.03424">
        <ele>688</ele>
        <time>2020-07-11T13:24:17.000Z</time>
      </trkpt>
      <trkpt lat="45.77953" lon="3.03421">
        <ele>688</ele>
        <time>2020-07-11T13:24:18.000Z</time>
      </trkpt>
      <trkpt lat="45.77953" lon="3.03419">
        <ele>689</ele>
        <time>2020-07-11T13:24:19.000Z</time>
      </trkpt>
      <trkpt lat="45.77953" lon="3.03417">
        <ele>689</ele>
        <time>2020-07-11T13:24:20.000Z</time>
      </trkpt>
      <trkpt lat="45.77952" lon="3.03416">
        <ele>690</ele>
        <time>2020-07-11T13:24:21.000Z</time>
      </trkpt>
      <trkpt lat="45.77953" lon="3.03415">
        <ele>691</ele>
        <time>2020-07-11T13:24:22.000Z</time>
      </trkpt>
      <trkpt lat="45.77953" lon="3.03413">
        <ele>690</ele>
        <time>2020-07-11T13:24:23.000Z</time>
      </trkpt>
      <trkpt lat="45.77953" lon="3.03411">
        <ele>690</ele>
        <time>2020-07-11T13:24:24.000Z</time>
      </trkpt>
      <trkpt lat="45.77953" lon="3.03409">
        <ele>690</ele>
        <time>2020-07-11T13:24:25.000Z</time>
      </trkpt>
      <trkpt lat="45.77952" lon="3.03406">
        <ele>688</ele>
        <time>2020-07-11T13:24:26.000Z</time>
      </trkpt>
      <trkpt lat="45.7795" lon="3.03403">
        <ele>689</ele>
        <time>2020-07-11T13:24:27.000Z</time>
      </trkpt>
      <trkpt lat="45.77948" lon="3.034">
        <ele>688</ele>
        <time>2020-07-11T13:24:28.000Z</time>
      </trkpt>
      <trkpt lat="45.77946" lon="3.03397">
        <ele>688</ele>
        <time>2020-07-11T13:24:29.000Z</time>
      </trkpt>
      <trkpt lat="45.77944" lon="3.03394">
        <ele>689</ele>
        <time>2020-07-11T13:24:30.000Z</time>
      </trkpt>
      <trkpt lat="45.77942" lon="3.03391">
        <ele>689</ele>
        <time>2020-07-11T13:24:31.000Z</time>
      </trkpt>
      <trkpt lat="45.77941" lon="3.03387">
        <ele>688</ele>
        <time>2020-07-11T13:24:32.000Z</time>
      </trkpt>
      <trkpt lat="45.7794" lon="3.03384">
        <ele>688</ele>
        <time>2020-07-11T13:24:33.000Z</time>
      </trkpt>
      <trkpt lat="45.77938" lon="3.03381">
        <ele>689</ele>
        <time>2020-07-11T13:24:34.000Z</time>
      </trkpt>
      <trkpt lat="45.77937" lon="3.03378">
        <ele>688</ele>
        <time>2020-07-11T13:24:35.000Z</time>
      </trkpt>
      <trkpt lat="45.77935" lon="3.03375">
        <ele>688</ele>
        <time>2020-07-11T13:24:36.000Z</time>
      </trkpt>
      <trkpt lat="45.77933" lon="3.03372">
        <ele>688</ele>
        <time>2020-07-11T13:24:37.000Z</time>
      </trkpt>
      <trkpt lat="45.77932" lon="3.0337">
        <ele>688</ele>
        <time>2020-07-11T13:24:38.000Z</time>
      </trkpt>
      <trkpt lat="45.7793" lon="3.03367">
        <ele>688</ele>
        <time>2020-07-11T13:24:39.000Z</time>
      </trkpt>
      <trkpt lat="45.77929" lon="3.03365">
        <ele>689</ele>
        <time>2020-07-11T13:24:40.000Z</time>
      </trkpt>
      <trkpt lat="45.77928" lon="3.03362">
        <ele>689</ele>
        <time>2020-07-11T13:24:41.000Z</time>
      </trkpt>
      <trkpt lat="45.77926" lon="3.03359">
        <ele>688</ele>
        <time>2020-07-11T13:24:42.000Z</time>
      </trkpt>
      <trkpt lat="45.77924" lon="3.03357">
        <ele>687</ele>
        <time>2020-07-11T13:24:43.000Z</time>
      </trkpt>
      <trkpt lat="45.77922" lon="3.03353">
        <ele>688</ele>
        <time>2020-07-11T13:24:44.000Z</time>
      </trkpt>
      <trkpt lat="45.7792" lon="3.0335">
        <ele>688</ele>
        <time>2020-07-11T13:24:45.000Z</time>
      </trkpt>
      <trkpt lat="45.77919" lon="3.03347">
        <ele>689</ele>
        <time>2020-07-11T13:24:46.000Z</time>
      </trkpt>
      <trkpt lat="45.77917" lon="3.03344">
        <ele>689</ele>
        <time>2020-07-11T13:24:47.000Z</time>
      </trkpt>
      <trkpt lat="45.77916" lon="3.03342">
        <ele>689</ele>
        <time>2020-07-11T13:24:48.000Z</time>
      </trkpt>
      <trkpt lat="45.77914" lon="3.03339">
        <ele>689</ele>
        <time>2020-07-11T13:24:49.000Z</time>
      </trkpt>
      <trkpt lat="45.77912" lon="3.03336">
        <ele>688</ele>
        <time>2020-07-11T13:24:50.000Z</time>
      </trkpt>
      <trkpt lat="45.7791" lon="3.03334">
        <ele>689</ele>
        <time>2020-07-11T13:24:51.000Z</time>
      </trkpt>
      <trkpt lat="45.77907" lon="3.03331">
        <ele>688</ele>
        <time>2020-07-11T13:24:52.000Z</time>
      </trkpt>
      <trkpt lat="45.77905" lon="3.03329">
        <ele>688</ele>
        <time>2020-07-11T13:24:53.000Z</time>
      </trkpt>
      <trkpt lat="45.77904" lon="3.03326">
        <ele>686</ele>
        <time>2020-07-11T13:24:54.000Z</time>
      </trkpt>
      <trkpt lat="45.77903" lon="3.03324">
        <ele>686</ele>
        <time>2020-07-11T13:24:55.000Z</time>
      </trkpt>
      <trkpt lat="45.77902" lon="3.03322">
        <ele>687</ele>
        <time>2020-07-11T13:24:56.000Z</time>
      </trkpt>
      <trkpt lat="45.77901" lon="3.03319">
        <ele>687</ele>
        <time>2020-07-11T13:24:57.000Z</time>
      </trkpt>
      <trkpt lat="45.77901" lon="3.03317">
        <ele>687</ele>
        <time>2020-07-11T13:24:58.000Z</time>
      </trkpt>
      <trkpt lat="45.779" lon="3.03314">
        <ele>688</ele>
        <time>2020-07-11T13:24:59.000Z</time>
      </trkpt>
      <trkpt lat="45.779" lon="3.03312">
        <ele>689</ele>
        <time>2020-07-11T13:25:00.000Z</time>
      </trkpt>
      <trkpt lat="45.77899" lon="3.0331">
        <ele>690</ele>
        <time>2020-07-11T13:25:01.000Z</time>
      </trkpt>
      <trkpt lat="45.77899" lon="3.03308">
        <ele>691</ele>
        <time>2020-07-11T13:25:02.000Z</time>
      </trkpt>
      <trkpt lat="45.77899" lon="3.03305">
        <ele>691</ele>
        <time>2020-07-11T13:25:03.000Z</time>
      </trkpt>
      <trkpt lat="45.77899" lon="3.03303">
        <ele>691</ele>
        <time>2020-07-11T13:25:04.000Z</time>
      </trkpt>
      <trkpt lat="45.779" lon="3.03301">
        <ele>691</ele>
        <time>2020-07-11T13:25:05.000Z</time>
      </trkpt>
      <trkpt lat="45.779" lon="3.03298">
        <ele>692</ele>
        <time>2020-07-11T13:25:06.000Z</time>
      </trkpt>
      <trkpt lat="45.779" lon="3.03296">
        <ele>693</ele>
        <time>2020-07-11T13:25:07.000Z</time>
      </trkpt>
      <trkpt lat="45.77901" lon="3.03294">
        <ele>693</ele>
        <time>2020-07-11T13:25:08.000Z</time>
      </trkpt>
      <trkpt lat="45.779" lon="3.03292">
        <ele>693</ele>
        <time>2020-07-11T13:25:09.000Z</time>
      </trkpt>
      <trkpt lat="45.779" lon="3.0329">
        <ele>694</ele>
        <time>2020-07-11T13:25:10.000Z</time>
      </trkpt>
      <trkpt lat="45.779" lon="3.03288">
        <ele>694</ele>
        <time>2020-07-11T13:25:11.000Z</time>
      </trkpt>
      <trkpt lat="45.77899" lon="3.03285">
        <ele>695</ele>
        <time>2020-07-11T13:25:12.000Z</time>
      </trkpt>
      <trkpt lat="45.779" lon="3.03282">
        <ele>695</ele>
        <time>2020-07-11T13:25:13.000Z</time>
      </trkpt>
      <trkpt lat="45.779" lon="3.03279">
        <ele>695</ele>
        <time>2020-07-11T13:25:14.000Z</time>
      </trkpt>
      <trkpt lat="45.779" lon="3.03276">
        <ele>695</ele>
        <time>2020-07-11T13:25:15.000Z</time>
      </trkpt>
      <trkpt lat="45.779" lon="3.03272">
        <ele>695</ele>
        <time>2020-07-11T13:25:16.000Z</time>
      </trkpt>
      <trkpt lat="45.77899" lon="3.03269">
        <ele>696</ele>
        <time>2020-07-11T13:25:17.000Z</time>
      </trkpt>
      <trkpt lat="45.77898" lon="3.03266">
        <ele>696</ele>
        <time>2020-07-11T13:25:18.000Z</time>
      </trkpt>
      <trkpt lat="45.77898" lon="3.03262">
        <ele>696</ele>
        <time>2020-07-11T13:25:19.000Z</time>
      </trkpt>
      <trkpt lat="45.77897" lon="3.03259">
        <ele>697</ele>
        <time>2020-07-11T13:25:20.000Z</time>
      </trkpt>
      <trkpt lat="45.77896" lon="3.03256">
        <ele>697</ele>
        <time>2020-07-11T13:25:21.000Z</time>
      </trkpt>
      <trkpt lat="45.77895" lon="3.03253">
        <ele>697</ele>
        <time>2020-07-11T13:25:22.000Z</time>
      </trkpt>
      <trkpt lat="45.77895" lon="3.0325">
        <ele>697</ele>
        <time>2020-07-11T13:25:23.000Z</time>
      </trkpt>
      <trkpt lat="45.77894" lon="3.03247">
        <ele>697</ele>
        <time>2020-07-11T13:25:24.000Z</time>
      </trkpt>
      <trkpt lat="45.77894" lon="3.03244">
        <ele>697</ele>
        <time>2020-07-11T13:25:25.000Z</time>
      </trkpt>
      <trkpt lat="45.77893" lon="3.03241">
        <ele>698</ele>
        <time>2020-07-11T13:25:26.000Z</time>
      </trkpt>
      <trkpt lat="45.77893" lon="3.03238">
        <ele>698</ele>
        <time>2020-07-11T13:25:27.000Z</time>
      </trkpt>
      <trkpt lat="45.77892" lon="3.03235">
        <ele>699</ele>
        <time>2020-07-11T13:25:28.000Z</time>
      </trkpt>
      <trkpt lat="45.77892" lon="3.03232">
        <ele>698</ele>
        <time>2020-07-11T13:25:29.000Z</time>
      </trkpt>
      <trkpt lat="45.77891" lon="3.03229">
        <ele>699</ele>
        <time>2020-07-11T13:25:30.000Z</time>
      </trkpt>
      <trkpt lat="45.7789" lon="3.03225">
        <ele>699</ele>
        <time>2020-07-11T13:25:31.000Z</time>
      </trkpt>
      <trkpt lat="45.77888" lon="3.03222">
        <ele>699</ele>
        <time>2020-07-11T13:25:32.000Z</time>
      </trkpt>
      <trkpt lat="45.77887" lon="3.03219">
        <ele>699</ele>
        <time>2020-07-11T13:25:33.000Z</time>
      </trkpt>
      <trkpt lat="45.77886" lon="3.03216">
        <ele>698</ele>
        <time>2020-07-11T13:25:34.000Z</time>
      </trkpt>
      <trkpt lat="45.77886" lon="3.03214">
        <ele>698</ele>
        <time>2020-07-11T13:25:35.000Z</time>
      </trkpt>
      <trkpt lat="45.77885" lon="3.03211">
        <ele>697</ele>
        <time>2020-07-11T13:25:36.000Z</time>
      </trkpt>
      <trkpt lat="45.77884" lon="3.03208">
        <ele>697</ele>
        <time>2020-07-11T13:25:37.000Z</time>
      </trkpt>
      <trkpt lat="45.77883" lon="3.03205">
        <ele>696</ele>
        <time>2020-07-11T13:25:38.000Z</time>
      </trkpt>
      <trkpt lat="45.77882" lon="3.03202">
        <ele>697</ele>
        <time>2020-07-11T13:25:39.000Z</time>
      </trkpt>
      <trkpt lat="45.77881" lon="3.03199">
        <ele>698</ele>
        <time>2020-07-11T13:25:40.000Z</time>
      </trkpt>
      <trkpt lat="45.7788" lon="3.03196">
        <ele>697</ele>
        <time>2020-07-11T13:25:41.000Z</time>
      </trkpt>
      <trkpt lat="45.77878" lon="3.03193">
        <ele>697</ele>
        <time>2020-07-11T13:25:42.000Z</time>
      </trkpt>
      <trkpt lat="45.77877" lon="3.0319">
        <ele>697</ele>
        <time>2020-07-11T13:25:43.000Z</time>
      </trkpt>
      <trkpt lat="45.77876" lon="3.03187">
        <ele>698</ele>
        <time>2020-07-11T13:25:44.000Z</time>
      </trkpt>
      <trkpt lat="45.77874" lon="3.03185">
        <ele>698</ele>
        <time>2020-07-11T13:25:45.000Z</time>
      </trkpt>
      <trkpt lat="45.77873" lon="3.03182">
        <ele>699</ele>
        <time>2020-07-11T13:25:46.000Z</time>
      </trkpt>
      <trkpt lat="45.77871" lon="3.0318">
        <ele>700</ele>
        <time>2020-07-11T13:25:47.000Z</time>
      </trkpt>
      <trkpt lat="45.7787" lon="3.03178">
        <ele>700</ele>
        <time>2020-07-11T13:25:48.000Z</time>
      </trkpt>
      <trkpt lat="45.77868" lon="3.03175">
        <ele>700</ele>
        <time>2020-07-11T13:25:49.000Z</time>
      </trkpt>
      <trkpt lat="45.77867" lon="3.03173">
        <ele>700</ele>
        <time>2020-07-11T13:25:50.000Z</time>
      </trkpt>
      <trkpt lat="45.77865" lon="3.0317">
        <ele>701</ele>
        <time>2020-07-11T13:25:51.000Z</time>
      </trkpt>
      <trkpt lat="45.77863" lon="3.03168">
        <ele>701</ele>
        <time>2020-07-11T13:25:52.000Z</time>
      </trkpt>
      <trkpt lat="45.77862" lon="3.03165">
        <ele>701</ele>
        <time>2020-07-11T13:25:53.000Z</time>
      </trkpt>
      <trkpt lat="45.77861" lon="3.03162">
        <ele>701</ele>
        <time>2020-07-11T13:25:54.000Z</time>
      </trkpt>
      <trkpt lat="45.7786" lon="3.03159">
        <ele>701</ele>
        <time>2020-07-11T13:25:55.000Z</time>
      </trkpt>
      <trkpt lat="45.77858" lon="3.03156">
        <ele>701</ele>
        <time>2020-07-11T13:25:56.000Z</time>
      </trkpt>
      <trkpt lat="45.77857" lon="3.03153">
        <ele>701</ele>
        <time>2020-07-11T13:25:57.000Z</time>
      </trkpt>
      <trkpt lat="45.77856" lon="3.03151">
        <ele>701</ele>
        <time>2020-07-11T13:25:58.000Z</time>
      </trkpt>
      <trkpt lat="45.77854" lon="3.03148">
        <ele>701</ele>
        <time>2020-07-11T13:25:59.000Z</time>
      </trkpt>
      <trkpt lat="45.77853" lon="3.03146">
        <ele>701</ele>
        <time>2020-07-11T13:26:00.000Z</time>
      </trkpt>
      <trkpt lat="45.77851" lon="3.03143">
        <ele>703</ele>
        <time>2020-07-11T13:26:01.000Z</time>
      </trkpt>
      <trkpt lat="45.7785" lon="3.0314">
        <ele>703</ele>
        <time>2020-07-11T13:26:02.000Z</time>
      </trkpt>
      <trkpt lat="45.77848" lon="3.03138">
        <ele>703</ele>
        <time>2020-07-11T13:26:03.000Z</time>
      </trkpt>
      <trkpt lat="45.77847" lon="3.03135">
        <ele>704</ele>
        <time>2020-07-11T13:26:04.000Z</time>
      </trkpt>
      <trkpt lat="45.77845" lon="3.03133">
        <ele>704</ele>
        <time>2020-07-11T13:26:05.000Z</time>
      </trkpt>
      <trkpt lat="45.77844" lon="3.03131">
        <ele>704</ele>
        <time>2020-07-11T13:26:06.000Z</time>
      </trkpt>
      <trkpt lat="45.77842" lon="3.03128">
        <ele>704</ele>
        <time>2020-07-11T13:26:07.000Z</time>
      </trkpt>
      <trkpt lat="45.77841" lon="3.03126">
        <ele>704</ele>
        <time>2020-07-11T13:26:08.000Z</time>
      </trkpt>
      <trkpt lat="45.77839" lon="3.03123">
        <ele>704</ele>
        <time>2020-07-11T13:26:09.000Z</time>
      </trkpt>
      <trkpt lat="45.77838" lon="3.03121">
        <ele>704</ele>
        <time>2020-07-11T13:26:10.000Z</time>
      </trkpt>
      <trkpt lat="45.77836" lon="3.03118">
        <ele>704</ele>
        <time>2020-07-11T13:26:11.000Z</time>
      </trkpt>
      <trkpt lat="45.77835" lon="3.03116">
        <ele>704</ele>
        <time>2020-07-11T13:26:12.000Z</time>
      </trkpt>
      <trkpt lat="45.77833" lon="3.03114">
        <ele>704</ele>
        <time>2020-07-11T13:26:13.000Z</time>
      </trkpt>
      <trkpt lat="45.77832" lon="3.03111">
        <ele>705</ele>
        <time>2020-07-11T13:26:14.000Z</time>
      </trkpt>
      <trkpt lat="45.7783" lon="3.03109">
        <ele>705</ele>
        <time>2020-07-11T13:26:15.000Z</time>
      </trkpt>
      <trkpt lat="45.77829" lon="3.03107">
        <ele>706</ele>
        <time>2020-07-11T13:26:16.000Z</time>
      </trkpt>
      <trkpt lat="45.77827" lon="3.03104">
        <ele>706</ele>
        <time>2020-07-11T13:26:17.000Z</time>
      </trkpt>
      <trkpt lat="45.77826" lon="3.03102">
        <ele>706</ele>
        <time>2020-07-11T13:26:18.000Z</time>
      </trkpt>
      <trkpt lat="45.77825" lon="3.03099">
        <ele>706</ele>
        <time>2020-07-11T13:26:19.000Z</time>
      </trkpt>
      <trkpt lat="45.77824" lon="3.03096">
        <ele>706</ele>
        <time>2020-07-11T13:26:20.000Z</time>
      </trkpt>
      <trkpt lat="45.77822" lon="3.03093">
        <ele>706</ele>
        <time>2020-07-11T13:26:21.000Z</time>
      </trkpt>
      <trkpt lat="45.77821" lon="3.03091">
        <ele>706</ele>
        <time>2020-07-11T13:26:22.000Z</time>
      </trkpt>
      <trkpt lat="45.7782" lon="3.03088">
        <ele>707</ele>
        <time>2020-07-11T13:26:23.000Z</time>
      </trkpt>
      <trkpt lat="45.77818" lon="3.03086">
        <ele>707</ele>
        <time>2020-07-11T13:26:24.000Z</time>
      </trkpt>
      <trkpt lat="45.77817" lon="3.03084">
        <ele>707</ele>
        <time>2020-07-11T13:26:25.000Z</time>
      </trkpt>
      <trkpt lat="45.77815" lon="3.03082">
        <ele>707</ele>
        <time>2020-07-11T13:26:26.000Z</time>
      </trkpt>
      <trkpt lat="45.77813" lon="3.0308">
        <ele>707</ele>
        <time>2020-07-11T13:26:27.000Z</time>
      </trkpt>
      <trkpt lat="45.77811" lon="3.03078">
        <ele>707</ele>
        <time>2020-07-11T13:26:28.000Z</time>
      </trkpt>
      <trkpt lat="45.7781" lon="3.03076">
        <ele>708</ele>
        <time>2020-07-11T13:26:29.000Z</time>
      </trkpt>
      <trkpt lat="45.77808" lon="3.03074">
        <ele>707</ele>
        <time>2020-07-11T13:26:30.000Z</time>
      </trkpt>
      <trkpt lat="45.77806" lon="3.03072">
        <ele>708</ele>
        <time>2020-07-11T13:26:31.000Z</time>
      </trkpt>
      <trkpt lat="45.77804" lon="3.03071">
        <ele>708</ele>
        <time>2020-07-11T13:26:32.000Z</time>
      </trkpt>
      <trkpt lat="45.77802" lon="3.03069">
        <ele>708</ele>
        <time>2020-07-11T13:26:33.000Z</time>
      </trkpt>
      <trkpt lat="45.77801" lon="3.03068">
        <ele>708</ele>
        <time>2020-07-11T13:26:34.000Z</time>
      </trkpt>
      <trkpt lat="45.77799" lon="3.03066">
        <ele>709</ele>
        <time>2020-07-11T13:26:35.000Z</time>
      </trkpt>
      <trkpt lat="45.77797" lon="3.03065">
        <ele>709</ele>
        <time>2020-07-11T13:26:36.000Z</time>
      </trkpt>
      <trkpt lat="45.77796" lon="3.03063">
        <ele>709</ele>
        <time>2020-07-11T13:26:37.000Z</time>
      </trkpt>
      <trkpt lat="45.77794" lon="3.03062">
        <ele>710</ele>
        <time>2020-07-11T13:26:38.000Z</time>
      </trkpt>
      <trkpt lat="45.77792" lon="3.0306">
        <ele>710</ele>
        <time>2020-07-11T13:26:39.000Z</time>
      </trkpt>
      <trkpt lat="45.77791" lon="3.03058">
        <ele>710</ele>
        <time>2020-07-11T13:26:40.000Z</time>
      </trkpt>
      <trkpt lat="45.77789" lon="3.03056">
        <ele>710</ele>
        <time>2020-07-11T13:26:41.000Z</time>
      </trkpt>
      <trkpt lat="45.77787" lon="3.03054">
        <ele>710</ele>
        <time>2020-07-11T13:26:42.000Z</time>
      </trkpt>
      <trkpt lat="45.77786" lon="3.03052">
        <ele>710</ele>
        <time>2020-07-11T13:26:43.000Z</time>
      </trkpt>
      <trkpt lat="45.77784" lon="3.0305">
        <ele>710</ele>
        <time>2020-07-11T13:26:44.000Z</time>
      </trkpt>
      <trkpt lat="45.77782" lon="3.03049">
        <ele>710</ele>
        <time>2020-07-11T13:26:45.000Z</time>
      </trkpt>
      <trkpt lat="45.77781" lon="3.03048">
        <ele>710</ele>
        <time>2020-07-11T13:26:46.000Z</time>
      </trkpt>
      <trkpt lat="45.77779" lon="3.03047">
        <ele>711</ele>
        <time>2020-07-11T13:26:47.000Z</time>
      </trkpt>
      <trkpt lat="45.77777" lon="3.03045">
        <ele>712</ele>
        <time>2020-07-11T13:26:48.000Z</time>
      </trkpt>
      <trkpt lat="45.77775" lon="3.03044">
        <ele>712</ele>
        <time>2020-07-11T13:26:49.000Z</time>
      </trkpt>
      <trkpt lat="45.77774" lon="3.03043">
        <ele>712</ele>
        <time>2020-07-11T13:26:50.000Z</time>
      </trkpt>
      <trkpt lat="45.77772" lon="3.03041">
        <ele>712</ele>
        <time>2020-07-11T13:26:51.000Z</time>
      </trkpt>
      <trkpt lat="45.77771" lon="3.03039">
        <ele>713</ele>
        <time>2020-07-11T13:26:52.000Z</time>
      </trkpt>
      <trkpt lat="45.77769" lon="3.03038">
        <ele>713</ele>
        <time>2020-07-11T13:26:53.000Z</time>
      </trkpt>
      <trkpt lat="45.77768" lon="3.03036">
        <ele>714</ele>
        <time>2020-07-11T13:26:54.000Z</time>
      </trkpt>
      <trkpt lat="45.77766" lon="3.03035">
        <ele>715</ele>
        <time>2020-07-11T13:26:55.000Z</time>
      </trkpt>
      <trkpt lat="45.77765" lon="3.03033">
        <ele>716</ele>
        <time>2020-07-11T13:26:56.000Z</time>
      </trkpt>
      <trkpt lat="45.77763" lon="3.03031">
        <ele>717</ele>
        <time>2020-07-11T13:26:57.000Z</time>
      </trkpt>
      <trkpt lat="45.77762" lon="3.03029">
        <ele>718</ele>
        <time>2020-07-11T13:26:58.000Z</time>
      </trkpt>
      <trkpt lat="45.7776" lon="3.03027">
        <ele>719</ele>
        <time>2020-07-11T13:26:59.000Z</time>
      </trkpt>
      <trkpt lat="45.77759" lon="3.03025">
        <ele>719</ele>
        <time>2020-07-11T13:27:00.000Z</time>
      </trkpt>
      <trkpt lat="45.77757" lon="3.03024">
        <ele>719</ele>
        <time>2020-07-11T13:27:01.000Z</time>
      </trkpt>
      <trkpt lat="45.77756" lon="3.03022">
        <ele>719</ele>
        <time>2020-07-11T13:27:02.000Z</time>
      </trkpt>
      <trkpt lat="45.77754" lon="3.03021">
        <ele>720</ele>
        <time>2020-07-11T13:27:03.000Z</time>
      </trkpt>
      <trkpt lat="45.77752" lon="3.03019">
        <ele>720</ele>
        <time>2020-07-11T13:27:04.000Z</time>
      </trkpt>
      <trkpt lat="45.77751" lon="3.03018">
        <ele>720</ele>
        <time>2020-07-11T13:27:05.000Z</time>
      </trkpt>
      <trkpt lat="45.77749" lon="3.03016">
        <ele>721</ele>
        <time>2020-07-11T13:27:06.000Z</time>
      </trkpt>
      <trkpt lat="45.77748" lon="3.03014">
        <ele>721</ele>
        <time>2020-07-11T13:27:07.000Z</time>
      </trkpt>
      <trkpt lat="45.77746" lon="3.03012">
        <ele>721</ele>
        <time>2020-07-11T13:27:08.000Z</time>
      </trkpt>
      <trkpt lat="45.77745" lon="3.03011">
        <ele>721</ele>
        <time>2020-07-11T13:27:09.000Z</time>
      </trkpt>
      <trkpt lat="45.77744" lon="3.03009">
        <ele>721</ele>
        <time>2020-07-11T13:27:10.000Z</time>
      </trkpt>
      <trkpt lat="45.77743" lon="3.03008">
        <ele>721</ele>
        <time>2020-07-11T13:27:11.000Z</time>
      </trkpt>
      <trkpt lat="45.77742" lon="3.03006">
        <ele>721</ele>
        <time>2020-07-11T13:27:12.000Z</time>
      </trkpt>
      <trkpt lat="45.77741" lon="3.03005">
        <ele>720</ele>
        <time>2020-07-11T13:27:13.000Z</time>
      </trkpt>
      <trkpt lat="45.7774" lon="3.03003">
        <ele>720</ele>
        <time>2020-07-11T13:27:14.000Z</time>
      </trkpt>
      <trkpt lat="45.77738" lon="3.03002">
        <ele>720</ele>
        <time>2020-07-11T13:27:15.000Z</time>
      </trkpt>
      <trkpt lat="45.77736" lon="3.03001">
        <ele>720</ele>
        <time>2020-07-11T13:27:16.000Z</time>
      </trkpt>
      <trkpt lat="45.77734" lon="3.02999">
        <ele>719</ele>
        <time>2020-07-11T13:27:17.000Z</time>
      </trkpt>
      <trkpt lat="45.77733" lon="3.02997">
        <ele>720</ele>
        <time>2020-07-11T13:27:18.000Z</time>
      </trkpt>
      <trkpt lat="45.77731" lon="3.02995">
        <ele>720</ele>
        <time>2020-07-11T13:27:19.000Z</time>
      </trkpt>
      <trkpt lat="45.7773" lon="3.02993">
        <ele>720</ele>
        <time>2020-07-11T13:27:20.000Z</time>
      </trkpt>
      <trkpt lat="45.77729" lon="3.02991">
        <ele>720</ele>
        <time>2020-07-11T13:27:21.000Z</time>
      </trkpt>
      <trkpt lat="45.77728" lon="3.02989">
        <ele>719</ele>
        <time>2020-07-11T13:27:22.000Z</time>
      </trkpt>
      <trkpt lat="45.77727" lon="3.02986">
        <ele>719</ele>
        <time>2020-07-11T13:27:23.000Z</time>
      </trkpt>
      <trkpt lat="45.77727" lon="3.02984">
        <ele>719</ele>
        <time>2020-07-11T13:27:24.000Z</time>
      </trkpt>
      <trkpt lat="45.77726" lon="3.02982">
        <ele>720</ele>
        <time>2020-07-11T13:27:25.000Z</time>
      </trkpt>
      <trkpt lat="45.77725" lon="3.0298">
        <ele>720</ele>
        <time>2020-07-11T13:27:26.000Z</time>
      </trkpt>
      <trkpt lat="45.77724" lon="3.02978">
        <ele>720</ele>
        <time>2020-07-11T13:27:27.000Z</time>
      </trkpt>
      <trkpt lat="45.77723" lon="3.02975">
        <ele>721</ele>
        <time>2020-07-11T13:27:28.000Z</time>
      </trkpt>
      <trkpt lat="45.77722" lon="3.02973">
        <ele>721</ele>
        <time>2020-07-11T13:27:29.000Z</time>
      </trkpt>
      <trkpt lat="45.77721" lon="3.02971">
        <ele>722</ele>
        <time>2020-07-11T13:27:30.000Z</time>
      </trkpt>
      <trkpt lat="45.7772" lon="3.02968">
        <ele>722</ele>
        <time>2020-07-11T13:27:31.000Z</time>
      </trkpt>
      <trkpt lat="45.77719" lon="3.02966">
        <ele>722</ele>
        <time>2020-07-11T13:27:32.000Z</time>
      </trkpt>
      <trkpt lat="45.77717" lon="3.02964">
        <ele>723</ele>
        <time>2020-07-11T13:27:33.000Z</time>
      </trkpt>
      <trkpt lat="45.77715" lon="3.02961">
        <ele>723</ele>
        <time>2020-07-11T13:27:34.000Z</time>
      </trkpt>
      <trkpt lat="45.77714" lon="3.02958">
        <ele>723</ele>
        <time>2020-07-11T13:27:35.000Z</time>
      </trkpt>
      <trkpt lat="45.77713" lon="3.02955">
        <ele>722</ele>
        <time>2020-07-11T13:27:36.000Z</time>
      </trkpt>
      <trkpt lat="45.77711" lon="3.02951">
        <ele>722</ele>
        <time>2020-07-11T13:27:37.000Z</time>
      </trkpt>
      <trkpt lat="45.77709" lon="3.02948">
        <ele>723</ele>
        <time>2020-07-11T13:27:38.000Z</time>
      </trkpt>
      <trkpt lat="45.77708" lon="3.02945">
        <ele>723</ele>
        <time>2020-07-11T13:27:39.000Z</time>
      </trkpt>
      <trkpt lat="45.77706" lon="3.02942">
        <ele>723</ele>
        <time>2020-07-11T13:27:40.000Z</time>
      </trkpt>
      <trkpt lat="45.77705" lon="3.02939">
        <ele>723</ele>
        <time>2020-07-11T13:27:41.000Z</time>
      </trkpt>
      <trkpt lat="45.77704" lon="3.02936">
        <ele>723</ele>
        <time>2020-07-11T13:27:42.000Z</time>
      </trkpt>
      <trkpt lat="45.77703" lon="3.02933">
        <ele>724</ele>
        <time>2020-07-11T13:27:43.000Z</time>
      </trkpt>
      <trkpt lat="45.77702" lon="3.02931">
        <ele>724</ele>
        <time>2020-07-11T13:27:44.000Z</time>
      </trkpt>
      <trkpt lat="45.77702" lon="3.02927">
        <ele>723</ele>
        <time>2020-07-11T13:27:45.000Z</time>
      </trkpt>
      <trkpt lat="45.77702" lon="3.02923">
        <ele>723</ele>
        <time>2020-07-11T13:27:46.000Z</time>
      </trkpt>
      <trkpt lat="45.77702" lon="3.0292">
        <ele>723</ele>
        <time>2020-07-11T13:27:47.000Z</time>
      </trkpt>
      <trkpt lat="45.77703" lon="3.02915">
        <ele>722</ele>
        <time>2020-07-11T13:27:48.000Z</time>
      </trkpt>
      <trkpt lat="45.77703" lon="3.02912">
        <ele>722</ele>
        <time>2020-07-11T13:27:49.000Z</time>
      </trkpt>
      <trkpt lat="45.77703" lon="3.02908">
        <ele>722</ele>
        <time>2020-07-11T13:27:50.000Z</time>
      </trkpt>
      <trkpt lat="45.77703" lon="3.02904">
        <ele>722</ele>
        <time>2020-07-11T13:27:51.000Z</time>
      </trkpt>
      <trkpt lat="45.77703" lon="3.02901">
        <ele>722</ele>
        <time>2020-07-11T13:27:52.000Z</time>
      </trkpt>
      <trkpt lat="45.77703" lon="3.02897">
        <ele>722</ele>
        <time>2020-07-11T13:27:53.000Z</time>
      </trkpt>
      <trkpt lat="45.77703" lon="3.02894">
        <ele>721</ele>
        <time>2020-07-11T13:27:54.000Z</time>
      </trkpt>
      <trkpt lat="45.77703" lon="3.02891">
        <ele>721</ele>
        <time>2020-07-11T13:27:55.000Z</time>
      </trkpt>
      <trkpt lat="45.77703" lon="3.02888">
        <ele>720</ele>
        <time>2020-07-11T13:27:56.000Z</time>
      </trkpt>
      <trkpt lat="45.77704" lon="3.02884">
        <ele>719</ele>
        <time>2020-07-11T13:27:57.000Z</time>
      </trkpt>
      <trkpt lat="45.77704" lon="3.02881">
        <ele>718</ele>
        <time>2020-07-11T13:27:58.000Z</time>
      </trkpt>
      <trkpt lat="45.77704" lon="3.02878">
        <ele>717</ele>
        <time>2020-07-11T13:27:59.000Z</time>
      </trkpt>
      <trkpt lat="45.77704" lon="3.02875">
        <ele>717</ele>
        <time>2020-07-11T13:28:00.000Z</time>
      </trkpt>
      <trkpt lat="45.77704" lon="3.02872">
        <ele>717</ele>
        <time>2020-07-11T13:28:01.000Z</time>
      </trkpt>
      <trkpt lat="45.77704" lon="3.02869">
        <ele>717</ele>
        <time>2020-07-11T13:28:02.000Z</time>
      </trkpt>
      <trkpt lat="45.77704" lon="3.02866">
        <ele>716</ele>
        <time>2020-07-11T13:28:03.000Z</time>
      </trkpt>
      <trkpt lat="45.77704" lon="3.02862">
        <ele>716</ele>
        <time>2020-07-11T13:28:04.000Z</time>
      </trkpt>
      <trkpt lat="45.77704" lon="3.02859">
        <ele>719</ele>
        <time>2020-07-11T13:28:05.000Z</time>
      </trkpt>
      <trkpt lat="45.77704" lon="3.02855">
        <ele>719</ele>
        <time>2020-07-11T13:28:06.000Z</time>
      </trkpt>
      <trkpt lat="45.77703" lon="3.02851">
        <ele>719</ele>
        <time>2020-07-11T13:28:07.000Z</time>
      </trkpt>
      <trkpt lat="45.77703" lon="3.02848">
        <ele>718</ele>
        <time>2020-07-11T13:28:08.000Z</time>
      </trkpt>
      <trkpt lat="45.77703" lon="3.02845">
        <ele>718</ele>
        <time>2020-07-11T13:28:09.000Z</time>
      </trkpt>
      <trkpt lat="45.77703" lon="3.02841">
        <ele>718</ele>
        <time>2020-07-11T13:28:10.000Z</time>
      </trkpt>
      <trkpt lat="45.77703" lon="3.02838">
        <ele>718</ele>
        <time>2020-07-11T13:28:11.000Z</time>
      </trkpt>
      <trkpt lat="45.77703" lon="3.02835">
        <ele>718</ele>
        <time>2020-07-11T13:28:12.000Z</time>
      </trkpt>
      <trkpt lat="45.77703" lon="3.02832">
        <ele>718</ele>
        <time>2020-07-11T13:28:13.000Z</time>
      </trkpt>
      <trkpt lat="45.77703" lon="3.02829">
        <ele>718</ele>
        <time>2020-07-11T13:28:14.000Z</time>
      </trkpt>
      <trkpt lat="45.77703" lon="3.02826">
        <ele>717</ele>
        <time>2020-07-11T13:28:15.000Z</time>
      </trkpt>
      <trkpt lat="45.77703" lon="3.02823">
        <ele>718</ele>
        <time>2020-07-11T13:28:16.000Z</time>
      </trkpt>
      <trkpt lat="45.77702" lon="3.02819">
        <ele>718</ele>
        <time>2020-07-11T13:28:17.000Z</time>
      </trkpt>
      <trkpt lat="45.77701" lon="3.02816">
        <ele>718</ele>
        <time>2020-07-11T13:28:18.000Z</time>
      </trkpt>
      <trkpt lat="45.777" lon="3.02812">
        <ele>717</ele>
        <time>2020-07-11T13:28:19.000Z</time>
      </trkpt>
      <trkpt lat="45.777" lon="3.02809">
        <ele>718</ele>
        <time>2020-07-11T13:28:20.000Z</time>
      </trkpt>
      <trkpt lat="45.777" lon="3.02805">
        <ele>718</ele>
        <time>2020-07-11T13:28:21.000Z</time>
      </trkpt>
      <trkpt lat="45.777" lon="3.02802">
        <ele>717</ele>
        <time>2020-07-11T13:28:22.000Z</time>
      </trkpt>
      <trkpt lat="45.77699" lon="3.02799">
        <ele>717</ele>
        <time>2020-07-11T13:28:23.000Z</time>
      </trkpt>
      <trkpt lat="45.77699" lon="3.02796">
        <ele>718</ele>
        <time>2020-07-11T13:28:24.000Z</time>
      </trkpt>
      <trkpt lat="45.77699" lon="3.02793">
        <ele>718</ele>
        <time>2020-07-11T13:28:25.000Z</time>
      </trkpt>
      <trkpt lat="45.77698" lon="3.0279">
        <ele>719</ele>
        <time>2020-07-11T13:28:26.000Z</time>
      </trkpt>
      <trkpt lat="45.77697" lon="3.02787">
        <ele>720</ele>
        <time>2020-07-11T13:28:27.000Z</time>
      </trkpt>
      <trkpt lat="45.77697" lon="3.02784">
        <ele>721</ele>
        <time>2020-07-11T13:28:28.000Z</time>
      </trkpt>
      <trkpt lat="45.77696" lon="3.02781">
        <ele>721</ele>
        <time>2020-07-11T13:28:29.000Z</time>
      </trkpt>
      <trkpt lat="45.77695" lon="3.02777">
        <ele>721</ele>
        <time>2020-07-11T13:28:30.000Z</time>
      </trkpt>
      <trkpt lat="45.77694" lon="3.02774">
        <ele>721</ele>
        <time>2020-07-11T13:28:31.000Z</time>
      </trkpt>
      <trkpt lat="45.77694" lon="3.0277">
        <ele>722</ele>
        <time>2020-07-11T13:28:32.000Z</time>
      </trkpt>
      <trkpt lat="45.77693" lon="3.02767">
        <ele>723</ele>
        <time>2020-07-11T13:28:33.000Z</time>
      </trkpt>
      <trkpt lat="45.77692" lon="3.02763">
        <ele>723</ele>
        <time>2020-07-11T13:28:34.000Z</time>
      </trkpt>
      <trkpt lat="45.77691" lon="3.02759">
        <ele>722</ele>
        <time>2020-07-11T13:28:35.000Z</time>
      </trkpt>
      <trkpt lat="45.7769" lon="3.02755">
        <ele>723</ele>
        <time>2020-07-11T13:28:36.000Z</time>
      </trkpt>
      <trkpt lat="45.7769" lon="3.02751">
        <ele>724</ele>
        <time>2020-07-11T13:28:37.000Z</time>
      </trkpt>
      <trkpt lat="45.77689" lon="3.02747">
        <ele>723</ele>
        <time>2020-07-11T13:28:38.000Z</time>
      </trkpt>
      <trkpt lat="45.77689" lon="3.02743">
        <ele>723</ele>
        <time>2020-07-11T13:28:39.000Z</time>
      </trkpt>
      <trkpt lat="45.77689" lon="3.02739">
        <ele>722</ele>
        <time>2020-07-11T13:28:40.000Z</time>
      </trkpt>
      <trkpt lat="45.77688" lon="3.02735">
        <ele>721</ele>
        <time>2020-07-11T13:28:41.000Z</time>
      </trkpt>
      <trkpt lat="45.77687" lon="3.02732">
        <ele>721</ele>
        <time>2020-07-11T13:28:42.000Z</time>
      </trkpt>
      <trkpt lat="45.77686" lon="3.02728">
        <ele>722</ele>
        <time>2020-07-11T13:28:43.000Z</time>
      </trkpt>
      <trkpt lat="45.77686" lon="3.02725">
        <ele>722</ele>
        <time>2020-07-11T13:28:44.000Z</time>
      </trkpt>
      <trkpt lat="45.77685" lon="3.02721">
        <ele>722</ele>
        <time>2020-07-11T13:28:45.000Z</time>
      </trkpt>
      <trkpt lat="45.77684" lon="3.02718">
        <ele>722</ele>
        <time>2020-07-11T13:28:46.000Z</time>
      </trkpt>
      <trkpt lat="45.77684" lon="3.02715">
        <ele>722</ele>
        <time>2020-07-11T13:28:47.000Z</time>
      </trkpt>
      <trkpt lat="45.77683" lon="3.02711">
        <ele>721</ele>
        <time>2020-07-11T13:28:48.000Z</time>
      </trkpt>
      <trkpt lat="45.77683" lon="3.02707">
        <ele>721</ele>
        <time>2020-07-11T13:28:49.000Z</time>
      </trkpt>
      <trkpt lat="45.77682" lon="3.02702">
        <ele>721</ele>
        <time>2020-07-11T13:28:50.000Z</time>
      </trkpt>
      <trkpt lat="45.77681" lon="3.02699">
        <ele>721</ele>
        <time>2020-07-11T13:28:51.000Z</time>
      </trkpt>
      <trkpt lat="45.7768" lon="3.02695">
        <ele>723</ele>
        <time>2020-07-11T13:28:52.000Z</time>
      </trkpt>
      <trkpt lat="45.77679" lon="3.02692">
        <ele>724</ele>
        <time>2020-07-11T13:28:53.000Z</time>
      </trkpt>
      <trkpt lat="45.77678" lon="3.02688">
        <ele>724</ele>
        <time>2020-07-11T13:28:54.000Z</time>
      </trkpt>
      <trkpt lat="45.77677" lon="3.02684">
        <ele>725</ele>
        <time>2020-07-11T13:28:55.000Z</time>
      </trkpt>
      <trkpt lat="45.77677" lon="3.02681">
        <ele>724</ele>
        <time>2020-07-11T13:28:56.000Z</time>
      </trkpt>
      <trkpt lat="45.77676" lon="3.02677">
        <ele>724</ele>
        <time>2020-07-11T13:28:57.000Z</time>
      </trkpt>
      <trkpt lat="45.77675" lon="3.02673">
        <ele>724</ele>
        <time>2020-07-11T13:28:58.000Z</time>
      </trkpt>
      <trkpt lat="45.77674" lon="3.0267">
        <ele>724</ele>
        <time>2020-07-11T13:28:59.000Z</time>
      </trkpt>
      <trkpt lat="45.77673" lon="3.02666">
        <ele>724</ele>
        <time>2020-07-11T13:29:00.000Z</time>
      </trkpt>
      <trkpt lat="45.77672" lon="3.02662">
        <ele>725</ele>
        <time>2020-07-11T13:29:01.000Z</time>
      </trkpt>
      <trkpt lat="45.77671" lon="3.02659">
        <ele>726</ele>
        <time>2020-07-11T13:29:02.000Z</time>
      </trkpt>
      <trkpt lat="45.7767" lon="3.02655">
        <ele>726</ele>
        <time>2020-07-11T13:29:03.000Z</time>
      </trkpt>
      <trkpt lat="45.77668" lon="3.02652">
        <ele>727</ele>
        <time>2020-07-11T13:29:04.000Z</time>
      </trkpt>
      <trkpt lat="45.77667" lon="3.02648">
        <ele>727</ele>
        <time>2020-07-11T13:29:05.000Z</time>
      </trkpt>
      <trkpt lat="45.77666" lon="3.02645">
        <ele>726</ele>
        <time>2020-07-11T13:29:06.000Z</time>
      </trkpt>
      <trkpt lat="45.77665" lon="3.02641">
        <ele>727</ele>
        <time>2020-07-11T13:29:07.000Z</time>
      </trkpt>
      <trkpt lat="45.77664" lon="3.02638">
        <ele>727</ele>
        <time>2020-07-11T13:29:08.000Z</time>
      </trkpt>
      <trkpt lat="45.77663" lon="3.02634">
        <ele>726</ele>
        <time>2020-07-11T13:29:09.000Z</time>
      </trkpt>
      <trkpt lat="45.77663" lon="3.02631">
        <ele>727</ele>
        <time>2020-07-11T13:29:10.000Z</time>
      </trkpt>
      <trkpt lat="45.77662" lon="3.02627">
        <ele>727</ele>
        <time>2020-07-11T13:29:11.000Z</time>
      </trkpt>
      <trkpt lat="45.77661" lon="3.02624">
        <ele>728</ele>
        <time>2020-07-11T13:29:12.000Z</time>
      </trkpt>
      <trkpt lat="45.7766" lon="3.0262">
        <ele>728</ele>
        <time>2020-07-11T13:29:13.000Z</time>
      </trkpt>
      <trkpt lat="45.7766" lon="3.02617">
        <ele>728</ele>
        <time>2020-07-11T13:29:14.000Z</time>
      </trkpt>
      <trkpt lat="45.77659" lon="3.02613">
        <ele>728</ele>
        <time>2020-07-11T13:29:15.000Z</time>
      </trkpt>
      <trkpt lat="45.77658" lon="3.02609">
        <ele>728</ele>
        <time>2020-07-11T13:29:16.000Z</time>
      </trkpt>
      <trkpt lat="45.77658" lon="3.02606">
        <ele>728</ele>
        <time>2020-07-11T13:29:17.000Z</time>
      </trkpt>
      <trkpt lat="45.77658" lon="3.02602">
        <ele>728</ele>
        <time>2020-07-11T13:29:18.000Z</time>
      </trkpt>
      <trkpt lat="45.77658" lon="3.02599">
        <ele>728</ele>
        <time>2020-07-11T13:29:19.000Z</time>
      </trkpt>
      <trkpt lat="45.77657" lon="3.02595">
        <ele>728</ele>
        <time>2020-07-11T13:29:20.000Z</time>
      </trkpt>
      <trkpt lat="45.77657" lon="3.02592">
        <ele>729</ele>
        <time>2020-07-11T13:29:21.000Z</time>
      </trkpt>
      <trkpt lat="45.77656" lon="3.02589">
        <ele>729</ele>
        <time>2020-07-11T13:29:22.000Z</time>
      </trkpt>
      <trkpt lat="45.77656" lon="3.02585">
        <ele>729</ele>
        <time>2020-07-11T13:29:23.000Z</time>
      </trkpt>
      <trkpt lat="45.77655" lon="3.02582">
        <ele>730</ele>
        <time>2020-07-11T13:29:24.000Z</time>
      </trkpt>
      <trkpt lat="45.77654" lon="3.02579">
        <ele>729</ele>
        <time>2020-07-11T13:29:25.000Z</time>
      </trkpt>
      <trkpt lat="45.77653" lon="3.02576">
        <ele>730</ele>
        <time>2020-07-11T13:29:26.000Z</time>
      </trkpt>
      <trkpt lat="45.77652" lon="3.02573">
        <ele>729</ele>
        <time>2020-07-11T13:29:27.000Z</time>
      </trkpt>
      <trkpt lat="45.77651" lon="3.0257">
        <ele>730</ele>
        <time>2020-07-11T13:29:28.000Z</time>
      </trkpt>
      <trkpt lat="45.7765" lon="3.02567">
        <ele>731</ele>
        <time>2020-07-11T13:29:29.000Z</time>
      </trkpt>
      <trkpt lat="45.77648" lon="3.02564">
        <ele>731</ele>
        <time>2020-07-11T13:29:30.000Z</time>
      </trkpt>
      <trkpt lat="45.77647" lon="3.02561">
        <ele>731</ele>
        <time>2020-07-11T13:29:31.000Z</time>
      </trkpt>
      <trkpt lat="45.77646" lon="3.02557">
        <ele>732</ele>
        <time>2020-07-11T13:29:32.000Z</time>
      </trkpt>
      <trkpt lat="45.77645" lon="3.02554">
        <ele>732</ele>
        <time>2020-07-11T13:29:33.000Z</time>
      </trkpt>
      <trkpt lat="45.77644" lon="3.02551">
        <ele>732</ele>
        <time>2020-07-11T13:29:34.000Z</time>
      </trkpt>
      <trkpt lat="45.77643" lon="3.02547">
        <ele>732</ele>
        <time>2020-07-11T13:29:35.000Z</time>
      </trkpt>
      <trkpt lat="45.77643" lon="3.02544">
        <ele>732</ele>
        <time>2020-07-11T13:29:36.000Z</time>
      </trkpt>
      <trkpt lat="45.77642" lon="3.02541">
        <ele>732</ele>
        <time>2020-07-11T13:29:37.000Z</time>
      </trkpt>
      <trkpt lat="45.7764" lon="3.02538">
        <ele>733</ele>
        <time>2020-07-11T13:29:38.000Z</time>
      </trkpt>
      <trkpt lat="45.7764" lon="3.02535">
        <ele>733</ele>
        <time>2020-07-11T13:29:39.000Z</time>
      </trkpt>
      <trkpt lat="45.77639" lon="3.02533">
        <ele>732</ele>
        <time>2020-07-11T13:29:40.000Z</time>
      </trkpt>
      <trkpt lat="45.77638" lon="3.0253">
        <ele>733</ele>
        <time>2020-07-11T13:29:41.000Z</time>
      </trkpt>
      <trkpt lat="45.77637" lon="3.02528">
        <ele>733</ele>
        <time>2020-07-11T13:29:42.000Z</time>
      </trkpt>
      <trkpt lat="45.77636" lon="3.02525">
        <ele>733</ele>
        <time>2020-07-11T13:29:43.000Z</time>
      </trkpt>
      <trkpt lat="45.77635" lon="3.02522">
        <ele>733</ele>
        <time>2020-07-11T13:29:44.000Z</time>
      </trkpt>
      <trkpt lat="45.77633" lon="3.02519">
        <ele>733</ele>
        <time>2020-07-11T13:29:45.000Z</time>
      </trkpt>
      <trkpt lat="45.77632" lon="3.02516">
        <ele>733</ele>
        <time>2020-07-11T13:29:46.000Z</time>
      </trkpt>
      <trkpt lat="45.77631" lon="3.02512">
        <ele>732</ele>
        <time>2020-07-11T13:29:47.000Z</time>
      </trkpt>
      <trkpt lat="45.7763" lon="3.02509">
        <ele>732</ele>
        <time>2020-07-11T13:29:48.000Z</time>
      </trkpt>
      <trkpt lat="45.77629" lon="3.02506">
        <ele>732</ele>
        <time>2020-07-11T13:29:49.000Z</time>
      </trkpt>
      <trkpt lat="45.77628" lon="3.02504">
        <ele>732</ele>
        <time>2020-07-11T13:29:50.000Z</time>
      </trkpt>
      <trkpt lat="45.77627" lon="3.02501">
        <ele>731</ele>
        <time>2020-07-11T13:29:51.000Z</time>
      </trkpt>
      <trkpt lat="45.77627" lon="3.02498">
        <ele>731</ele>
        <time>2020-07-11T13:29:52.000Z</time>
      </trkpt>
      <trkpt lat="45.77626" lon="3.02495">
        <ele>731</ele>
        <time>2020-07-11T13:29:53.000Z</time>
      </trkpt>
      <trkpt lat="45.77625" lon="3.02491">
        <ele>731</ele>
        <time>2020-07-11T13:29:54.000Z</time>
      </trkpt>
      <trkpt lat="45.77624" lon="3.02488">
        <ele>731</ele>
        <time>2020-07-11T13:29:55.000Z</time>
      </trkpt>
      <trkpt lat="45.77623" lon="3.02485">
        <ele>732</ele>
        <time>2020-07-11T13:29:56.000Z</time>
      </trkpt>
      <trkpt lat="45.77622" lon="3.02482">
        <ele>732</ele>
        <time>2020-07-11T13:29:57.000Z</time>
      </trkpt>
      <trkpt lat="45.77621" lon="3.02478">
        <ele>733</ele>
        <time>2020-07-11T13:29:58.000Z</time>
      </trkpt>
      <trkpt lat="45.77619" lon="3.02474">
        <ele>733</ele>
        <time>2020-07-11T13:29:59.000Z</time>
      </trkpt>
      <trkpt lat="45.77618" lon="3.02471">
        <ele>733</ele>
        <time>2020-07-11T13:30:00.000Z</time>
      </trkpt>
      <trkpt lat="45.77616" lon="3.02468">
        <ele>733</ele>
        <time>2020-07-11T13:30:01.000Z</time>
      </trkpt>
      <trkpt lat="45.77615" lon="3.02465">
        <ele>733</ele>
        <time>2020-07-11T13:30:02.000Z</time>
      </trkpt>
      <trkpt lat="45.77613" lon="3.02462">
        <ele>733</ele>
        <time>2020-07-11T13:30:03.000Z</time>
      </trkpt>
      <trkpt lat="45.7761" lon="3.02459">
        <ele>732</ele>
        <time>2020-07-11T13:30:04.000Z</time>
      </trkpt>
      <trkpt lat="45.77608" lon="3.02455">
        <ele>730</ele>
        <time>2020-07-11T13:30:05.000Z</time>
      </trkpt>
      <trkpt lat="45.77607" lon="3.02451">
        <ele>730</ele>
        <time>2020-07-11T13:30:06.000Z</time>
      </trkpt>
      <trkpt lat="45.77606" lon="3.02448">
        <ele>730</ele>
        <time>2020-07-11T13:30:07.000Z</time>
      </trkpt>
      <trkpt lat="45.77605" lon="3.02444">
        <ele>730</ele>
        <time>2020-07-11T13:30:08.000Z</time>
      </trkpt>
      <trkpt lat="45.77603" lon="3.02441">
        <ele>730</ele>
        <time>2020-07-11T13:30:09.000Z</time>
      </trkpt>
      <trkpt lat="45.77602" lon="3.02438">
        <ele>730</ele>
        <time>2020-07-11T13:30:10.000Z</time>
      </trkpt>
      <trkpt lat="45.776" lon="3.02434">
        <ele>731</ele>
        <time>2020-07-11T13:30:11.000Z</time>
      </trkpt>
      <trkpt lat="45.77599" lon="3.02431">
        <ele>731</ele>
        <time>2020-07-11T13:30:12.000Z</time>
      </trkpt>
      <trkpt lat="45.77598" lon="3.02428">
        <ele>731</ele>
        <time>2020-07-11T13:30:13.000Z</time>
      </trkpt>
      <trkpt lat="45.77597" lon="3.02425">
        <ele>731</ele>
        <time>2020-07-11T13:30:14.000Z</time>
      </trkpt>
      <trkpt lat="45.77596" lon="3.02421">
        <ele>731</ele>
        <time>2020-07-11T13:30:15.000Z</time>
      </trkpt>
      <trkpt lat="45.77594" lon="3.02418">
        <ele>730</ele>
        <time>2020-07-11T13:30:16.000Z</time>
      </trkpt>
      <trkpt lat="45.77593" lon="3.02415">
        <ele>730</ele>
        <time>2020-07-11T13:30:17.000Z</time>
      </trkpt>
      <trkpt lat="45.77591" lon="3.02411">
        <ele>731</ele>
        <time>2020-07-11T13:30:18.000Z</time>
      </trkpt>
      <trkpt lat="45.7759" lon="3.02407">
        <ele>731</ele>
        <time>2020-07-11T13:30:19.000Z</time>
      </trkpt>
      <trkpt lat="45.77589" lon="3.02403">
        <ele>731</ele>
        <time>2020-07-11T13:30:20.000Z</time>
      </trkpt>
      <trkpt lat="45.77589" lon="3.02399">
        <ele>731</ele>
        <time>2020-07-11T13:30:21.000Z</time>
      </trkpt>
      <trkpt lat="45.77587" lon="3.02395">
        <ele>731</ele>
        <time>2020-07-11T13:30:22.000Z</time>
      </trkpt>
      <trkpt lat="45.77586" lon="3.02391">
        <ele>731</ele>
        <time>2020-07-11T13:30:23.000Z</time>
      </trkpt>
      <trkpt lat="45.77585" lon="3.02387">
        <ele>733</ele>
        <time>2020-07-11T13:30:24.000Z</time>
      </trkpt>
      <trkpt lat="45.77584" lon="3.02383">
        <ele>733</ele>
        <time>2020-07-11T13:30:25.000Z</time>
      </trkpt>
      <trkpt lat="45.77584" lon="3.02379">
        <ele>733</ele>
        <time>2020-07-11T13:30:26.000Z</time>
      </trkpt>
      <trkpt lat="45.77583" lon="3.02375">
        <ele>733</ele>
        <time>2020-07-11T13:30:27.000Z</time>
      </trkpt>
      <trkpt lat="45.77582" lon="3.02371">
        <ele>733</ele>
        <time>2020-07-11T13:30:28.000Z</time>
      </trkpt>
      <trkpt lat="45.77581" lon="3.02367">
        <ele>733</ele>
        <time>2020-07-11T13:30:29.000Z</time>
      </trkpt>
      <trkpt lat="45.77581" lon="3.02363">
        <ele>734</ele>
        <time>2020-07-11T13:30:30.000Z</time>
      </trkpt>
      <trkpt lat="45.7758" lon="3.02359">
        <ele>734</ele>
        <time>2020-07-11T13:30:31.000Z</time>
      </trkpt>
      <trkpt lat="45.77579" lon="3.02355">
        <ele>735</ele>
        <time>2020-07-11T13:30:32.000Z</time>
      </trkpt>
      <trkpt lat="45.77578" lon="3.02351">
        <ele>735</ele>
        <time>2020-07-11T13:30:33.000Z</time>
      </trkpt>
      <trkpt lat="45.77577" lon="3.02348">
        <ele>735</ele>
        <time>2020-07-11T13:30:34.000Z</time>
      </trkpt>
      <trkpt lat="45.77576" lon="3.02344">
        <ele>736</ele>
        <time>2020-07-11T13:30:35.000Z</time>
      </trkpt>
      <trkpt lat="45.77575" lon="3.0234">
        <ele>736</ele>
        <time>2020-07-11T13:30:36.000Z</time>
      </trkpt>
      <trkpt lat="45.77574" lon="3.02337">
        <ele>736</ele>
        <time>2020-07-11T13:30:37.000Z</time>
      </trkpt>
      <trkpt lat="45.77573" lon="3.02333">
        <ele>736</ele>
        <time>2020-07-11T13:30:38.000Z</time>
      </trkpt>
      <trkpt lat="45.77572" lon="3.0233">
        <ele>736</ele>
        <time>2020-07-11T13:30:39.000Z</time>
      </trkpt>
      <trkpt lat="45.77572" lon="3.02326">
        <ele>735</ele>
        <time>2020-07-11T13:30:40.000Z</time>
      </trkpt>
      <trkpt lat="45.77572" lon="3.0232">
        <ele>737</ele>
        <time>2020-07-11T13:30:41.000Z</time>
      </trkpt>
      <trkpt lat="45.77571" lon="3.02315">
        <ele>736</ele>
        <time>2020-07-11T13:30:42.000Z</time>
      </trkpt>
      <trkpt lat="45.7757" lon="3.0231">
        <ele>737</ele>
        <time>2020-07-11T13:30:43.000Z</time>
      </trkpt>
      <trkpt lat="45.77569" lon="3.02305">
        <ele>737</ele>
        <time>2020-07-11T13:30:44.000Z</time>
      </trkpt>
      <trkpt lat="45.77568" lon="3.02301">
        <ele>738</ele>
        <time>2020-07-11T13:30:45.000Z</time>
      </trkpt>
      <trkpt lat="45.77567" lon="3.02296">
        <ele>738</ele>
        <time>2020-07-11T13:30:46.000Z</time>
      </trkpt>
      <trkpt lat="45.77567" lon="3.02291">
        <ele>737</ele>
        <time>2020-07-11T13:30:47.000Z</time>
      </trkpt>
      <trkpt lat="45.77566" lon="3.02287">
        <ele>737</ele>
        <time>2020-07-11T13:30:48.000Z</time>
      </trkpt>
      <trkpt lat="45.77566" lon="3.02283">
        <ele>737</ele>
        <time>2020-07-11T13:30:49.000Z</time>
      </trkpt>
      <trkpt lat="45.77565" lon="3.02278">
        <ele>737</ele>
        <time>2020-07-11T13:30:50.000Z</time>
      </trkpt>
      <trkpt lat="45.77564" lon="3.02274">
        <ele>737</ele>
        <time>2020-07-11T13:30:51.000Z</time>
      </trkpt>
      <trkpt lat="45.77564" lon="3.02269">
        <ele>737</ele>
        <time>2020-07-11T13:30:52.000Z</time>
      </trkpt>
      <trkpt lat="45.77563" lon="3.02265">
        <ele>738</ele>
        <time>2020-07-11T13:30:53.000Z</time>
      </trkpt>
      <trkpt lat="45.77563" lon="3.02261">
        <ele>738</ele>
        <time>2020-07-11T13:30:54.000Z</time>
      </trkpt>
      <trkpt lat="45.77562" lon="3.02257">
        <ele>738</ele>
        <time>2020-07-11T13:30:55.000Z</time>
      </trkpt>
      <trkpt lat="45.77562" lon="3.02253">
        <ele>738</ele>
        <time>2020-07-11T13:30:56.000Z</time>
      </trkpt>
      <trkpt lat="45.77561" lon="3.02249">
        <ele>738</ele>
        <time>2020-07-11T13:30:57.000Z</time>
      </trkpt>
      <trkpt lat="45.7756" lon="3.02245">
        <ele>738</ele>
        <time>2020-07-11T13:30:58.000Z</time>
      </trkpt>
      <trkpt lat="45.7756" lon="3.02241">
        <ele>738</ele>
        <time>2020-07-11T13:30:59.000Z</time>
      </trkpt>
      <trkpt lat="45.7756" lon="3.02236">
        <ele>738</ele>
        <time>2020-07-11T13:31:00.000Z</time>
      </trkpt>
      <trkpt lat="45.7756" lon="3.02232">
        <ele>736</ele>
        <time>2020-07-11T13:31:01.000Z</time>
      </trkpt>
      <trkpt lat="45.77561" lon="3.02229">
        <ele>735</ele>
        <time>2020-07-11T13:31:02.000Z</time>
      </trkpt>
      <trkpt lat="45.77563" lon="3.02225">
        <ele>735</ele>
        <time>2020-07-11T13:31:03.000Z</time>
      </trkpt>
      <trkpt lat="45.77563" lon="3.02222">
        <ele>735</ele>
        <time>2020-07-11T13:31:04.000Z</time>
      </trkpt>
      <trkpt lat="45.77563" lon="3.02218">
        <ele>735</ele>
        <time>2020-07-11T13:31:05.000Z</time>
      </trkpt>
      <trkpt lat="45.77561" lon="3.02214">
        <ele>735</ele>
        <time>2020-07-11T13:31:06.000Z</time>
      </trkpt>
      <trkpt lat="45.7756" lon="3.0221">
        <ele>734</ele>
        <time>2020-07-11T13:31:07.000Z</time>
      </trkpt>
      <trkpt lat="45.77558" lon="3.02206">
        <ele>732</ele>
        <time>2020-07-11T13:31:08.000Z</time>
      </trkpt>
      <trkpt lat="45.77556" lon="3.02202">
        <ele>732</ele>
        <time>2020-07-11T13:31:09.000Z</time>
      </trkpt>
      <trkpt lat="45.77554" lon="3.02198">
        <ele>732</ele>
        <time>2020-07-11T13:31:10.000Z</time>
      </trkpt>
      <trkpt lat="45.77553" lon="3.02195">
        <ele>732</ele>
        <time>2020-07-11T13:31:11.000Z</time>
      </trkpt>
      <trkpt lat="45.77552" lon="3.02191">
        <ele>732</ele>
        <time>2020-07-11T13:31:12.000Z</time>
      </trkpt>
      <trkpt lat="45.77551" lon="3.02187">
        <ele>732</ele>
        <time>2020-07-11T13:31:13.000Z</time>
      </trkpt>
      <trkpt lat="45.7755" lon="3.02183">
        <ele>732</ele>
        <time>2020-07-11T13:31:14.000Z</time>
      </trkpt>
      <trkpt lat="45.7755" lon="3.02179">
        <ele>732</ele>
        <time>2020-07-11T13:31:15.000Z</time>
      </trkpt>
      <trkpt lat="45.77549" lon="3.02175">
        <ele>732</ele>
        <time>2020-07-11T13:31:16.000Z</time>
      </trkpt>
      <trkpt lat="45.77548" lon="3.02171">
        <ele>733</ele>
        <time>2020-07-11T13:31:17.000Z</time>
      </trkpt>
      <trkpt lat="45.77548" lon="3.02167">
        <ele>733</ele>
        <time>2020-07-11T13:31:18.000Z</time>
      </trkpt>
      <trkpt lat="45.77547" lon="3.02163">
        <ele>734</ele>
        <time>2020-07-11T13:31:19.000Z</time>
      </trkpt>
      <trkpt lat="45.77547" lon="3.0216">
        <ele>734</ele>
        <time>2020-07-11T13:31:20.000Z</time>
      </trkpt>
      <trkpt lat="45.77547" lon="3.02156">
        <ele>734</ele>
        <time>2020-07-11T13:31:21.000Z</time>
      </trkpt>
      <trkpt lat="45.77547" lon="3.02153">
        <ele>734</ele>
        <time>2020-07-11T13:31:22.000Z</time>
      </trkpt>
      <trkpt lat="45.77547" lon="3.0215">
        <ele>735</ele>
        <time>2020-07-11T13:31:23.000Z</time>
      </trkpt>
      <trkpt lat="45.77546" lon="3.02147">
        <ele>735</ele>
        <time>2020-07-11T13:31:24.000Z</time>
      </trkpt>
      <trkpt lat="45.77546" lon="3.02144">
        <ele>735</ele>
        <time>2020-07-11T13:31:25.000Z</time>
      </trkpt>
      <trkpt lat="45.77545" lon="3.02141">
        <ele>735</ele>
        <time>2020-07-11T13:31:26.000Z</time>
      </trkpt>
      <trkpt lat="45.77544" lon="3.02138">
        <ele>735</ele>
        <time>2020-07-11T13:31:27.000Z</time>
      </trkpt>
      <trkpt lat="45.77543" lon="3.02135">
        <ele>735</ele>
        <time>2020-07-11T13:31:28.000Z</time>
      </trkpt>
      <trkpt lat="45.77541" lon="3.02133">
        <ele>735</ele>
        <time>2020-07-11T13:31:29.000Z</time>
      </trkpt>
      <trkpt lat="45.7754" lon="3.02129">
        <ele>735</ele>
        <time>2020-07-11T13:31:30.000Z</time>
      </trkpt>
      <trkpt lat="45.77539" lon="3.02126">
        <ele>734</ele>
        <time>2020-07-11T13:31:31.000Z</time>
      </trkpt>
      <trkpt lat="45.77539" lon="3.02123">
        <ele>735</ele>
        <time>2020-07-11T13:31:32.000Z</time>
      </trkpt>
      <trkpt lat="45.77538" lon="3.0212">
        <ele>736</ele>
        <time>2020-07-11T13:31:33.000Z</time>
      </trkpt>
      <trkpt lat="45.77537" lon="3.02117">
        <ele>736</ele>
        <time>2020-07-11T13:31:34.000Z</time>
      </trkpt>
      <trkpt lat="45.77536" lon="3.02114">
        <ele>736</ele>
        <time>2020-07-11T13:31:35.000Z</time>
      </trkpt>
      <trkpt lat="45.77535" lon="3.02111">
        <ele>736</ele>
        <time>2020-07-11T13:31:36.000Z</time>
      </trkpt>
      <trkpt lat="45.77534" lon="3.02108">
        <ele>737</ele>
        <time>2020-07-11T13:31:37.000Z</time>
      </trkpt>
      <trkpt lat="45.77533" lon="3.02105">
        <ele>738</ele>
        <time>2020-07-11T13:31:38.000Z</time>
      </trkpt>
      <trkpt lat="45.77532" lon="3.02102">
        <ele>738</ele>
        <time>2020-07-11T13:31:39.000Z</time>
      </trkpt>
      <trkpt lat="45.77531" lon="3.02099">
        <ele>739</ele>
        <time>2020-07-11T13:31:40.000Z</time>
      </trkpt>
      <trkpt lat="45.7753" lon="3.02096">
        <ele>739</ele>
        <time>2020-07-11T13:31:41.000Z</time>
      </trkpt>
      <trkpt lat="45.77528" lon="3.02094">
        <ele>739</ele>
        <time>2020-07-11T13:31:42.000Z</time>
      </trkpt>
      <trkpt lat="45.77527" lon="3.02091">
        <ele>739</ele>
        <time>2020-07-11T13:31:43.000Z</time>
      </trkpt>
      <trkpt lat="45.77526" lon="3.02089">
        <ele>740</ele>
        <time>2020-07-11T13:31:44.000Z</time>
      </trkpt>
      <trkpt lat="45.77524" lon="3.02086">
        <ele>740</ele>
        <time>2020-07-11T13:31:45.000Z</time>
      </trkpt>
      <trkpt lat="45.77523" lon="3.02083">
        <ele>740</ele>
        <time>2020-07-11T13:31:46.000Z</time>
      </trkpt>
      <trkpt lat="45.77522" lon="3.02081">
        <ele>740</ele>
        <time>2020-07-11T13:31:47.000Z</time>
      </trkpt>
      <trkpt lat="45.77521" lon="3.02078">
        <ele>739</ele>
        <time>2020-07-11T13:31:48.000Z</time>
      </trkpt>
      <trkpt lat="45.77521" lon="3.02074">
        <ele>739</ele>
        <time>2020-07-11T13:31:49.000Z</time>
      </trkpt>
      <trkpt lat="45.7752" lon="3.02071">
        <ele>740</ele>
        <time>2020-07-11T13:31:50.000Z</time>
      </trkpt>
      <trkpt lat="45.77519" lon="3.02068">
        <ele>740</ele>
        <time>2020-07-11T13:31:51.000Z</time>
      </trkpt>
      <trkpt lat="45.77518" lon="3.02065">
        <ele>740</ele>
        <time>2020-07-11T13:31:52.000Z</time>
      </trkpt>
      <trkpt lat="45.77517" lon="3.02063">
        <ele>741</ele>
        <time>2020-07-11T13:31:53.000Z</time>
      </trkpt>
      <trkpt lat="45.77516" lon="3.0206">
        <ele>741</ele>
        <time>2020-07-11T13:31:54.000Z</time>
      </trkpt>
      <trkpt lat="45.77515" lon="3.02057">
        <ele>741</ele>
        <time>2020-07-11T13:31:55.000Z</time>
      </trkpt>
      <trkpt lat="45.77514" lon="3.02055">
        <ele>741</ele>
        <time>2020-07-11T13:31:56.000Z</time>
      </trkpt>
      <trkpt lat="45.77513" lon="3.02052">
        <ele>741</ele>
        <time>2020-07-11T13:31:57.000Z</time>
      </trkpt>
      <trkpt lat="45.77512" lon="3.02049">
        <ele>741</ele>
        <time>2020-07-11T13:31:58.000Z</time>
      </trkpt>
      <trkpt lat="45.7751" lon="3.02047">
        <ele>741</ele>
        <time>2020-07-11T13:31:59.000Z</time>
      </trkpt>
      <trkpt lat="45.77509" lon="3.02044">
        <ele>743</ele>
        <time>2020-07-11T13:32:00.000Z</time>
      </trkpt>
      <trkpt lat="45.77508" lon="3.02042">
        <ele>743</ele>
        <time>2020-07-11T13:32:01.000Z</time>
      </trkpt>
      <trkpt lat="45.77506" lon="3.02039">
        <ele>744</ele>
        <time>2020-07-11T13:32:02.000Z</time>
      </trkpt>
      <trkpt lat="45.77505" lon="3.02036">
        <ele>744</ele>
        <time>2020-07-11T13:32:03.000Z</time>
      </trkpt>
      <trkpt lat="45.77505" lon="3.02034">
        <ele>744</ele>
        <time>2020-07-11T13:32:04.000Z</time>
      </trkpt>
      <trkpt lat="45.77504" lon="3.02031">
        <ele>745</ele>
        <time>2020-07-11T13:32:05.000Z</time>
      </trkpt>
      <trkpt lat="45.77502" lon="3.02028">
        <ele>746</ele>
        <time>2020-07-11T13:32:06.000Z</time>
      </trkpt>
      <trkpt lat="45.77501" lon="3.02026">
        <ele>746</ele>
        <time>2020-07-11T13:32:07.000Z</time>
      </trkpt>
      <trkpt lat="45.775" lon="3.02024">
        <ele>747</ele>
        <time>2020-07-11T13:32:08.000Z</time>
      </trkpt>
      <trkpt lat="45.77499" lon="3.02021">
        <ele>747</ele>
        <time>2020-07-11T13:32:09.000Z</time>
      </trkpt>
      <trkpt lat="45.77498" lon="3.02019">
        <ele>747</ele>
        <time>2020-07-11T13:32:10.000Z</time>
      </trkpt>
      <trkpt lat="45.77496" lon="3.02016">
        <ele>748</ele>
        <time>2020-07-11T13:32:11.000Z</time>
      </trkpt>
      <trkpt lat="45.77495" lon="3.02014">
        <ele>748</ele>
        <time>2020-07-11T13:32:12.000Z</time>
      </trkpt>
      <trkpt lat="45.77494" lon="3.02011">
        <ele>749</ele>
        <time>2020-07-11T13:32:13.000Z</time>
      </trkpt>
      <trkpt lat="45.77493" lon="3.02009">
        <ele>749</ele>
        <time>2020-07-11T13:32:14.000Z</time>
      </trkpt>
      <trkpt lat="45.77491" lon="3.02006">
        <ele>749</ele>
        <time>2020-07-11T13:32:15.000Z</time>
      </trkpt>
      <trkpt lat="45.7749" lon="3.02004">
        <ele>750</ele>
        <time>2020-07-11T13:32:16.000Z</time>
      </trkpt>
      <trkpt lat="45.77489" lon="3.02002">
        <ele>751</ele>
        <time>2020-07-11T13:32:17.000Z</time>
      </trkpt>
      <trkpt lat="45.77488" lon="3.01999">
        <ele>751</ele>
        <time>2020-07-11T13:32:18.000Z</time>
      </trkpt>
      <trkpt lat="45.77487" lon="3.01996">
        <ele>751</ele>
        <time>2020-07-11T13:32:19.000Z</time>
      </trkpt>
      <trkpt lat="45.77486" lon="3.01994">
        <ele>751</ele>
        <time>2020-07-11T13:32:20.000Z</time>
      </trkpt>
      <trkpt lat="45.77485" lon="3.01992">
        <ele>751</ele>
        <time>2020-07-11T13:32:21.000Z</time>
      </trkpt>
      <trkpt lat="45.77484" lon="3.01989">
        <ele>752</ele>
        <time>2020-07-11T13:32:22.000Z</time>
      </trkpt>
      <trkpt lat="45.77482" lon="3.01986">
        <ele>752</ele>
        <time>2020-07-11T13:32:23.000Z</time>
      </trkpt>
      <trkpt lat="45.77481" lon="3.01984">
        <ele>752</ele>
        <time>2020-07-11T13:32:24.000Z</time>
      </trkpt>
      <trkpt lat="45.7748" lon="3.01981">
        <ele>752</ele>
        <time>2020-07-11T13:32:25.000Z</time>
      </trkpt>
      <trkpt lat="45.77479" lon="3.01978">
        <ele>752</ele>
        <time>2020-07-11T13:32:26.000Z</time>
      </trkpt>
      <trkpt lat="45.77478" lon="3.01975">
        <ele>751</ele>
        <time>2020-07-11T13:32:27.000Z</time>
      </trkpt>
      <trkpt lat="45.77478" lon="3.01971">
        <ele>751</ele>
        <time>2020-07-11T13:32:28.000Z</time>
      </trkpt>
      <trkpt lat="45.77475" lon="3.01961">
        <ele>752</ele>
        <time>2020-07-11T13:32:29.062Z</time>
      </trkpt>
      <trkpt lat="45.77473" lon="3.0196">
        <ele>752</ele>
        <time>2020-07-11T13:32:30.062Z</time>
      </trkpt>
      <trkpt lat="45.77472" lon="3.01958">
        <ele>752</ele>
        <time>2020-07-11T13:32:31.062Z</time>
      </trkpt>
      <trkpt lat="45.7747" lon="3.01957">
        <ele>752</ele>
        <time>2020-07-11T13:32:32.062Z</time>
      </trkpt>
      <trkpt lat="45.77468" lon="3.01955">
        <ele>752</ele>
        <time>2020-07-11T13:32:33.062Z</time>
      </trkpt>
      <trkpt lat="45.77465" lon="3.01953">
        <ele>752</ele>
        <time>2020-07-11T13:32:34.062Z</time>
      </trkpt>
      <trkpt lat="45.77463" lon="3.0195">
        <ele>752</ele>
        <time>2020-07-11T13:32:35.062Z</time>
      </trkpt>
      <trkpt lat="45.77461" lon="3.01947">
        <ele>752</ele>
        <time>2020-07-11T13:32:36.062Z</time>
      </trkpt>
      <trkpt lat="45.77459" lon="3.01945">
        <ele>753</ele>
        <time>2020-07-11T13:32:37.062Z</time>
      </trkpt>
      <trkpt lat="45.77456" lon="3.01943">
        <ele>753</ele>
        <time>2020-07-11T13:32:38.062Z</time>
      </trkpt>
      <trkpt lat="45.77454" lon="3.01941">
        <ele>753</ele>
        <time>2020-07-11T13:32:39.062Z</time>
      </trkpt>
      <trkpt lat="45.77451" lon="3.01939">
        <ele>753</ele>
        <time>2020-07-11T13:32:40.062Z</time>
      </trkpt>
      <trkpt lat="45.77449" lon="3.01937">
        <ele>753</ele>
        <time>2020-07-11T13:32:41.062Z</time>
      </trkpt>
      <trkpt lat="45.77446" lon="3.01936">
        <ele>753</ele>
        <time>2020-07-11T13:32:42.062Z</time>
      </trkpt>
      <trkpt lat="45.77443" lon="3.01934">
        <ele>753</ele>
        <time>2020-07-11T13:32:43.062Z</time>
      </trkpt>
      <trkpt lat="45.77441" lon="3.01933">
        <ele>753</ele>
        <time>2020-07-11T13:32:44.062Z</time>
      </trkpt>
      <trkpt lat="45.77438" lon="3.01931">
        <ele>753</ele>
        <time>2020-07-11T13:32:45.062Z</time>
      </trkpt>
      <trkpt lat="45.77436" lon="3.0193">
        <ele>752</ele>
        <time>2020-07-11T13:32:46.062Z</time>
      </trkpt>
      <trkpt lat="45.77433" lon="3.0193">
        <ele>752</ele>
        <time>2020-07-11T13:32:47.062Z</time>
      </trkpt>
      <trkpt lat="45.77431" lon="3.01929">
        <ele>752</ele>
        <time>2020-07-11T13:32:48.062Z</time>
      </trkpt>
      <trkpt lat="45.77428" lon="3.0193">
        <ele>752</ele>
        <time>2020-07-11T13:32:49.062Z</time>
      </trkpt>
      <trkpt lat="45.77425" lon="3.0193">
        <ele>751</ele>
        <time>2020-07-11T13:32:50.062Z</time>
      </trkpt>
      <trkpt lat="45.77423" lon="3.0193">
        <ele>751</ele>
        <time>2020-07-11T13:32:51.062Z</time>
      </trkpt>
      <trkpt lat="45.7742" lon="3.0193">
        <ele>751</ele>
        <time>2020-07-11T13:32:52.062Z</time>
      </trkpt>
      <trkpt lat="45.77417" lon="3.0193">
        <ele>751</ele>
        <time>2020-07-11T13:32:53.062Z</time>
      </trkpt>
      <trkpt lat="45.77415" lon="3.0193">
        <ele>750</ele>
        <time>2020-07-11T13:32:54.062Z</time>
      </trkpt>
      <trkpt lat="45.77412" lon="3.0193">
        <ele>751</ele>
        <time>2020-07-11T13:32:55.062Z</time>
      </trkpt>
      <trkpt lat="45.7741" lon="3.01928">
        <ele>751</ele>
        <time>2020-07-11T13:32:56.062Z</time>
      </trkpt>
      <trkpt lat="45.77407" lon="3.01927">
        <ele>750</ele>
        <time>2020-07-11T13:32:57.062Z</time>
      </trkpt>
      <trkpt lat="45.77405" lon="3.01925">
        <ele>751</ele>
        <time>2020-07-11T13:32:58.062Z</time>
      </trkpt>
      <trkpt lat="45.77403" lon="3.01923">
        <ele>751</ele>
        <time>2020-07-11T13:32:59.062Z</time>
      </trkpt>
      <trkpt lat="45.77402" lon="3.01921">
        <ele>751</ele>
        <time>2020-07-11T13:33:00.062Z</time>
      </trkpt>
      <trkpt lat="45.774" lon="3.01919">
        <ele>751</ele>
        <time>2020-07-11T13:33:01.062Z</time>
      </trkpt>
      <trkpt lat="45.77398" lon="3.01917">
        <ele>751</ele>
        <time>2020-07-11T13:33:02.062Z</time>
      </trkpt>
      <trkpt lat="45.77396" lon="3.01915">
        <ele>751</ele>
        <time>2020-07-11T13:33:03.062Z</time>
      </trkpt>
      <trkpt lat="45.77394" lon="3.01913">
        <ele>751</ele>
        <time>2020-07-11T13:33:04.062Z</time>
      </trkpt>
      <trkpt lat="45.77392" lon="3.01911">
        <ele>751</ele>
        <time>2020-07-11T13:33:05.062Z</time>
      </trkpt>
      <trkpt lat="45.7739" lon="3.01909">
        <ele>752</ele>
        <time>2020-07-11T13:33:06.062Z</time>
      </trkpt>
      <trkpt lat="45.77389" lon="3.01906">
        <ele>752</ele>
        <time>2020-07-11T13:33:07.062Z</time>
      </trkpt>
      <trkpt lat="45.77387" lon="3.01904">
        <ele>752</ele>
        <time>2020-07-11T13:33:08.062Z</time>
      </trkpt>
      <trkpt lat="45.77385" lon="3.01902">
        <ele>752</ele>
        <time>2020-07-11T13:33:09.062Z</time>
      </trkpt>
      <trkpt lat="45.77383" lon="3.01901">
        <ele>753</ele>
        <time>2020-07-11T13:33:10.062Z</time>
      </trkpt>
      <trkpt lat="45.77381" lon="3.01899">
        <ele>753</ele>
        <time>2020-07-11T13:33:11.062Z</time>
      </trkpt>
      <trkpt lat="45.7738" lon="3.01897">
        <ele>754</ele>
        <time>2020-07-11T13:33:12.062Z</time>
      </trkpt>
      <trkpt lat="45.77378" lon="3.01895">
        <ele>754</ele>
        <time>2020-07-11T13:33:13.062Z</time>
      </trkpt>
      <trkpt lat="45.77377" lon="3.01893">
        <ele>755</ele>
        <time>2020-07-11T13:33:14.062Z</time>
      </trkpt>
      <trkpt lat="45.77375" lon="3.01892">
        <ele>755</ele>
        <time>2020-07-11T13:33:15.062Z</time>
      </trkpt>
      <trkpt lat="45.77373" lon="3.0189">
        <ele>756</ele>
        <time>2020-07-11T13:33:16.062Z</time>
      </trkpt>
      <trkpt lat="45.77371" lon="3.01889">
        <ele>756</ele>
        <time>2020-07-11T13:33:17.062Z</time>
      </trkpt>
      <trkpt lat="45.77369" lon="3.01887">
        <ele>756</ele>
        <time>2020-07-11T13:33:18.062Z</time>
      </trkpt>
      <trkpt lat="45.77367" lon="3.01885">
        <ele>756</ele>
        <time>2020-07-11T13:33:19.062Z</time>
      </trkpt>
      <trkpt lat="45.77366" lon="3.01884">
        <ele>757</ele>
        <time>2020-07-11T13:33:20.062Z</time>
      </trkpt>
      <trkpt lat="45.77364" lon="3.01883">
        <ele>756</ele>
        <time>2020-07-11T13:33:21.062Z</time>
      </trkpt>
      <trkpt lat="45.77362" lon="3.01882">
        <ele>756</ele>
        <time>2020-07-11T13:33:22.062Z</time>
      </trkpt>
      <trkpt lat="45.77359" lon="3.01881">
        <ele>756</ele>
        <time>2020-07-11T13:33:23.062Z</time>
      </trkpt>
      <trkpt lat="45.77357" lon="3.01881">
        <ele>757</ele>
        <time>2020-07-11T13:33:24.062Z</time>
      </trkpt>
      <trkpt lat="45.77355" lon="3.01881">
        <ele>757</ele>
        <time>2020-07-11T13:33:25.062Z</time>
      </trkpt>
      <trkpt lat="45.77353" lon="3.01881">
        <ele>757</ele>
        <time>2020-07-11T13:33:26.062Z</time>
      </trkpt>
      <trkpt lat="45.77351" lon="3.0188">
        <ele>757</ele>
        <time>2020-07-11T13:33:27.062Z</time>
      </trkpt>
      <trkpt lat="45.77349" lon="3.0188">
        <ele>756</ele>
        <time>2020-07-11T13:33:28.062Z</time>
      </trkpt>
      <trkpt lat="45.77347" lon="3.01879">
        <ele>757</ele>
        <time>2020-07-11T13:33:29.062Z</time>
      </trkpt>
      <trkpt lat="45.77345" lon="3.01879">
        <ele>757</ele>
        <time>2020-07-11T13:33:30.062Z</time>
      </trkpt>
      <trkpt lat="45.77344" lon="3.01879">
        <ele>756</ele>
        <time>2020-07-11T13:33:31.062Z</time>
      </trkpt>
      <trkpt lat="45.77344" lon="3.01878">
        <ele>756</ele>
        <time>2020-07-11T13:33:32.062Z</time>
      </trkpt>
      <trkpt lat="45.77343" lon="3.01878">
        <ele>756</ele>
        <time>2020-07-11T13:33:33.062Z</time>
      </trkpt>
      <trkpt lat="45.77342" lon="3.01877">
        <ele>756</ele>
        <time>2020-07-11T13:33:34.062Z</time>
      </trkpt>
      <trkpt lat="45.77341" lon="3.01876">
        <ele>757</ele>
        <time>2020-07-11T13:33:35.062Z</time>
      </trkpt>
      <trkpt lat="45.7734" lon="3.01875">
        <ele>757</ele>
        <time>2020-07-11T13:33:36.062Z</time>
      </trkpt>
      <trkpt lat="45.77339" lon="3.01874">
        <ele>756</ele>
        <time>2020-07-11T13:33:37.062Z</time>
      </trkpt>
      <trkpt lat="45.77338" lon="3.01873">
        <ele>758</ele>
        <time>2020-07-11T13:33:38.062Z</time>
      </trkpt>
      <trkpt lat="45.77337" lon="3.01872">
        <ele>758</ele>
        <time>2020-07-11T13:33:39.062Z</time>
      </trkpt>
      <trkpt lat="45.77336" lon="3.0187">
        <ele>758</ele>
        <time>2020-07-11T13:33:40.062Z</time>
      </trkpt>
      <trkpt lat="45.77336" lon="3.01868">
        <ele>758</ele>
        <time>2020-07-11T13:33:41.062Z</time>
      </trkpt>
      <trkpt lat="45.77335" lon="3.01867">
        <ele>759</ele>
        <time>2020-07-11T13:33:42.062Z</time>
      </trkpt>
      <trkpt lat="45.77334" lon="3.01865">
        <ele>759</ele>
        <time>2020-07-11T13:33:43.062Z</time>
      </trkpt>
      <trkpt lat="45.77333" lon="3.01863">
        <ele>760</ele>
        <time>2020-07-11T13:33:44.062Z</time>
      </trkpt>
      <trkpt lat="45.77332" lon="3.01861">
        <ele>760</ele>
        <time>2020-07-11T13:33:45.062Z</time>
      </trkpt>
      <trkpt lat="45.77331" lon="3.01859">
        <ele>760</ele>
        <time>2020-07-11T13:33:46.062Z</time>
      </trkpt>
      <trkpt lat="45.7733" lon="3.01857">
        <ele>761</ele>
        <time>2020-07-11T13:33:47.062Z</time>
      </trkpt>
      <trkpt lat="45.77328" lon="3.01855">
        <ele>761</ele>
        <time>2020-07-11T13:33:48.062Z</time>
      </trkpt>
      <trkpt lat="45.77327" lon="3.01854">
        <ele>762</ele>
        <time>2020-07-11T13:33:49.062Z</time>
      </trkpt>
      <trkpt lat="45.77326" lon="3.01852">
        <ele>762</ele>
        <time>2020-07-11T13:33:50.062Z</time>
      </trkpt>
      <trkpt lat="45.77325" lon="3.0185">
        <ele>762</ele>
        <time>2020-07-11T13:33:51.062Z</time>
      </trkpt>
      <trkpt lat="45.77324" lon="3.01848">
        <ele>762</ele>
        <time>2020-07-11T13:33:52.062Z</time>
      </trkpt>
      <trkpt lat="45.77324" lon="3.01846">
        <ele>763</ele>
        <time>2020-07-11T13:33:53.062Z</time>
      </trkpt>
      <trkpt lat="45.77323" lon="3.01844">
        <ele>763</ele>
        <time>2020-07-11T13:33:54.062Z</time>
      </trkpt>
      <trkpt lat="45.77323" lon="3.01843">
        <ele>763</ele>
        <time>2020-07-11T13:33:55.062Z</time>
      </trkpt>
      <trkpt lat="45.77322" lon="3.01841">
        <ele>764</ele>
        <time>2020-07-11T13:33:56.062Z</time>
      </trkpt>
      <trkpt lat="45.77321" lon="3.0184">
        <ele>765</ele>
        <time>2020-07-11T13:33:57.062Z</time>
      </trkpt>
      <trkpt lat="45.7732" lon="3.01839">
        <ele>766</ele>
        <time>2020-07-11T13:33:58.062Z</time>
      </trkpt>
      <trkpt lat="45.7732" lon="3.01837">
        <ele>767</ele>
        <time>2020-07-11T13:33:59.062Z</time>
      </trkpt>
      <trkpt lat="45.77319" lon="3.01835">
        <ele>767</ele>
        <time>2020-07-11T13:34:00.062Z</time>
      </trkpt>
      <trkpt lat="45.77318" lon="3.01834">
        <ele>767</ele>
        <time>2020-07-11T13:34:01.062Z</time>
      </trkpt>
      <trkpt lat="45.77317" lon="3.01832">
        <ele>767</ele>
        <time>2020-07-11T13:34:02.062Z</time>
      </trkpt>
      <trkpt lat="45.77315" lon="3.0183">
        <ele>767</ele>
        <time>2020-07-11T13:34:03.062Z</time>
      </trkpt>
      <trkpt lat="45.77314" lon="3.01828">
        <ele>766</ele>
        <time>2020-07-11T13:34:04.062Z</time>
      </trkpt>
      <trkpt lat="45.77313" lon="3.01826">
        <ele>766</ele>
        <time>2020-07-11T13:34:05.062Z</time>
      </trkpt>
      <trkpt lat="45.77311" lon="3.01823">
        <ele>767</ele>
        <time>2020-07-11T13:34:06.062Z</time>
      </trkpt>
      <trkpt lat="45.7731" lon="3.0182">
        <ele>768</ele>
        <time>2020-07-11T13:34:07.062Z</time>
      </trkpt>
      <trkpt lat="45.77309" lon="3.01816">
        <ele>768</ele>
        <time>2020-07-11T13:34:08.062Z</time>
      </trkpt>
      <trkpt lat="45.77308" lon="3.01813">
        <ele>767</ele>
        <time>2020-07-11T13:34:09.062Z</time>
      </trkpt>
      <trkpt lat="45.77308" lon="3.0181">
        <ele>768</ele>
        <time>2020-07-11T13:34:10.062Z</time>
      </trkpt>
      <trkpt lat="45.77308" lon="3.01808">
        <ele>769</ele>
        <time>2020-07-11T13:34:11.062Z</time>
      </trkpt>
      <trkpt lat="45.77308" lon="3.01806">
        <ele>769</ele>
        <time>2020-07-11T13:34:12.062Z</time>
      </trkpt>
      <trkpt lat="45.77307" lon="3.01805">
        <ele>769</ele>
        <time>2020-07-11T13:34:13.062Z</time>
      </trkpt>
      <trkpt lat="45.77306" lon="3.01803">
        <ele>769</ele>
        <time>2020-07-11T13:34:14.062Z</time>
      </trkpt>
      <trkpt lat="45.77304" lon="3.018">
        <ele>770</ele>
        <time>2020-07-11T13:34:15.062Z</time>
      </trkpt>
      <trkpt lat="45.77304" lon="3.01798">
        <ele>770</ele>
        <time>2020-07-11T13:34:16.062Z</time>
      </trkpt>
      <trkpt lat="45.77303" lon="3.01795">
        <ele>770</ele>
        <time>2020-07-11T13:34:17.062Z</time>
      </trkpt>
      <trkpt lat="45.77303" lon="3.01792">
        <ele>770</ele>
        <time>2020-07-11T13:34:18.062Z</time>
      </trkpt>
      <trkpt lat="45.77303" lon="3.0179">
        <ele>770</ele>
        <time>2020-07-11T13:34:19.062Z</time>
      </trkpt>
      <trkpt lat="45.77302" lon="3.01787">
        <ele>771</ele>
        <time>2020-07-11T13:34:20.062Z</time>
      </trkpt>
      <trkpt lat="45.77302" lon="3.01784">
        <ele>772</ele>
        <time>2020-07-11T13:34:21.062Z</time>
      </trkpt>
      <trkpt lat="45.77301" lon="3.01781">
        <ele>772</ele>
        <time>2020-07-11T13:34:22.062Z</time>
      </trkpt>
      <trkpt lat="45.773" lon="3.01779">
        <ele>772</ele>
        <time>2020-07-11T13:34:23.062Z</time>
      </trkpt>
      <trkpt lat="45.773" lon="3.01775">
        <ele>772</ele>
        <time>2020-07-11T13:34:24.062Z</time>
      </trkpt>
      <trkpt lat="45.773" lon="3.01772">
        <ele>771</ele>
        <time>2020-07-11T13:34:25.062Z</time>
      </trkpt>
      <trkpt lat="45.773" lon="3.01769">
        <ele>772</ele>
        <time>2020-07-11T13:34:26.062Z</time>
      </trkpt>
      <trkpt lat="45.77301" lon="3.01766">
        <ele>772</ele>
        <time>2020-07-11T13:34:27.062Z</time>
      </trkpt>
      <trkpt lat="45.77302" lon="3.01763">
        <ele>773</ele>
        <time>2020-07-11T13:34:28.062Z</time>
      </trkpt>
      <trkpt lat="45.77303" lon="3.01761">
        <ele>773</ele>
        <time>2020-07-11T13:34:29.062Z</time>
      </trkpt>
      <trkpt lat="45.77304" lon="3.01758">
        <ele>773</ele>
        <time>2020-07-11T13:34:30.062Z</time>
      </trkpt>
      <trkpt lat="45.77305" lon="3.01755">
        <ele>774</ele>
        <time>2020-07-11T13:34:31.062Z</time>
      </trkpt>
      <trkpt lat="45.77306" lon="3.01752">
        <ele>773</ele>
        <time>2020-07-11T13:34:32.062Z</time>
      </trkpt>
      <trkpt lat="45.77307" lon="3.01749">
        <ele>773</ele>
        <time>2020-07-11T13:34:33.062Z</time>
      </trkpt>
      <trkpt lat="45.77308" lon="3.01746">
        <ele>772</ele>
        <time>2020-07-11T13:34:34.062Z</time>
      </trkpt>
      <trkpt lat="45.77308" lon="3.01742">
        <ele>772</ele>
        <time>2020-07-11T13:34:35.062Z</time>
      </trkpt>
      <trkpt lat="45.77307" lon="3.01739">
        <ele>772</ele>
        <time>2020-07-11T13:34:36.062Z</time>
      </trkpt>
      <trkpt lat="45.77307" lon="3.01736">
        <ele>772</ele>
        <time>2020-07-11T13:34:37.062Z</time>
      </trkpt>
      <trkpt lat="45.77307" lon="3.01732">
        <ele>773</ele>
        <time>2020-07-11T13:34:38.062Z</time>
      </trkpt>
      <trkpt lat="45.77307" lon="3.01729">
        <ele>773</ele>
        <time>2020-07-11T13:34:39.062Z</time>
      </trkpt>
      <trkpt lat="45.77306" lon="3.01726">
        <ele>775</ele>
        <time>2020-07-11T13:34:40.062Z</time>
      </trkpt>
      <trkpt lat="45.77306" lon="3.01723">
        <ele>775</ele>
        <time>2020-07-11T13:34:41.062Z</time>
      </trkpt>
      <trkpt lat="45.77305" lon="3.0172">
        <ele>775</ele>
        <time>2020-07-11T13:34:42.062Z</time>
      </trkpt>
      <trkpt lat="45.77304" lon="3.01717">
        <ele>777</ele>
        <time>2020-07-11T13:34:43.062Z</time>
      </trkpt>
      <trkpt lat="45.77303" lon="3.01714">
        <ele>778</ele>
        <time>2020-07-11T13:34:44.062Z</time>
      </trkpt>
      <trkpt lat="45.77302" lon="3.0171">
        <ele>779</ele>
        <time>2020-07-11T13:34:45.062Z</time>
      </trkpt>
      <trkpt lat="45.77301" lon="3.01707">
        <ele>779</ele>
        <time>2020-07-11T13:34:46.062Z</time>
      </trkpt>
      <trkpt lat="45.773" lon="3.01704">
        <ele>779</ele>
        <time>2020-07-11T13:34:47.062Z</time>
      </trkpt>
      <trkpt lat="45.77299" lon="3.01701">
        <ele>779</ele>
        <time>2020-07-11T13:34:48.062Z</time>
      </trkpt>
      <trkpt lat="45.77297" lon="3.01698">
        <ele>779</ele>
        <time>2020-07-11T13:34:49.062Z</time>
      </trkpt>
      <trkpt lat="45.77295" lon="3.01696">
        <ele>779</ele>
        <time>2020-07-11T13:34:50.062Z</time>
      </trkpt>
      <trkpt lat="45.77294" lon="3.01693">
        <ele>780</ele>
        <time>2020-07-11T13:34:51.062Z</time>
      </trkpt>
      <trkpt lat="45.77292" lon="3.0169">
        <ele>780</ele>
        <time>2020-07-11T13:34:52.062Z</time>
      </trkpt>
      <trkpt lat="45.7729" lon="3.01687">
        <ele>780</ele>
        <time>2020-07-11T13:34:53.062Z</time>
      </trkpt>
      <trkpt lat="45.77288" lon="3.01684">
        <ele>780</ele>
        <time>2020-07-11T13:34:54.062Z</time>
      </trkpt>
      <trkpt lat="45.77287" lon="3.01681">
        <ele>781</ele>
        <time>2020-07-11T13:34:55.062Z</time>
      </trkpt>
      <trkpt lat="45.77285" lon="3.01678">
        <ele>781</ele>
        <time>2020-07-11T13:34:56.062Z</time>
      </trkpt>
      <trkpt lat="45.77283" lon="3.01674">
        <ele>781</ele>
        <time>2020-07-11T13:34:57.062Z</time>
      </trkpt>
      <trkpt lat="45.77282" lon="3.01671">
        <ele>781</ele>
        <time>2020-07-11T13:34:58.062Z</time>
      </trkpt>
      <trkpt lat="45.7728" lon="3.01668">
        <ele>781</ele>
        <time>2020-07-11T13:34:59.062Z</time>
      </trkpt>
      <trkpt lat="45.77279" lon="3.01665">
        <ele>781</ele>
        <time>2020-07-11T13:35:00.062Z</time>
      </trkpt>
      <trkpt lat="45.77277" lon="3.01662">
        <ele>780</ele>
        <time>2020-07-11T13:35:01.062Z</time>
      </trkpt>
      <trkpt lat="45.77276" lon="3.01659">
        <ele>780</ele>
        <time>2020-07-11T13:35:02.062Z</time>
      </trkpt>
      <trkpt lat="45.77275" lon="3.01656">
        <ele>780</ele>
        <time>2020-07-11T13:35:03.062Z</time>
      </trkpt>
      <trkpt lat="45.77273" lon="3.01653">
        <ele>781</ele>
        <time>2020-07-11T13:35:04.062Z</time>
      </trkpt>
      <trkpt lat="45.77272" lon="3.01651">
        <ele>781</ele>
        <time>2020-07-11T13:35:05.062Z</time>
      </trkpt>
      <trkpt lat="45.7727" lon="3.01648">
        <ele>781</ele>
        <time>2020-07-11T13:35:06.062Z</time>
      </trkpt>
      <trkpt lat="45.77269" lon="3.01645">
        <ele>781</ele>
        <time>2020-07-11T13:35:07.062Z</time>
      </trkpt>
      <trkpt lat="45.77267" lon="3.01643">
        <ele>781</ele>
        <time>2020-07-11T13:35:08.062Z</time>
      </trkpt>
      <trkpt lat="45.77266" lon="3.0164">
        <ele>781</ele>
        <time>2020-07-11T13:35:09.062Z</time>
      </trkpt>
      <trkpt lat="45.77264" lon="3.01637">
        <ele>781</ele>
        <time>2020-07-11T13:35:10.062Z</time>
      </trkpt>
      <trkpt lat="45.77263" lon="3.01635">
        <ele>782</ele>
        <time>2020-07-11T13:35:11.062Z</time>
      </trkpt>
      <trkpt lat="45.77261" lon="3.01632">
        <ele>782</ele>
        <time>2020-07-11T13:35:12.062Z</time>
      </trkpt>
      <trkpt lat="45.7726" lon="3.0163">
        <ele>782</ele>
        <time>2020-07-11T13:35:13.062Z</time>
      </trkpt>
      <trkpt lat="45.77258" lon="3.01628">
        <ele>782</ele>
        <time>2020-07-11T13:35:14.062Z</time>
      </trkpt>
      <trkpt lat="45.77257" lon="3.01625">
        <ele>783</ele>
        <time>2020-07-11T13:35:15.062Z</time>
      </trkpt>
      <trkpt lat="45.77255" lon="3.01623">
        <ele>783</ele>
        <time>2020-07-11T13:35:16.062Z</time>
      </trkpt>
      <trkpt lat="45.77253" lon="3.01621">
        <ele>783</ele>
        <time>2020-07-11T13:35:17.062Z</time>
      </trkpt>
      <trkpt lat="45.77251" lon="3.01618">
        <ele>784</ele>
        <time>2020-07-11T13:35:18.062Z</time>
      </trkpt>
      <trkpt lat="45.7725" lon="3.01616">
        <ele>784</ele>
        <time>2020-07-11T13:35:19.062Z</time>
      </trkpt>
      <trkpt lat="45.77248" lon="3.01613">
        <ele>784</ele>
        <time>2020-07-11T13:35:20.062Z</time>
      </trkpt>
      <trkpt lat="45.77246" lon="3.0161">
        <ele>784</ele>
        <time>2020-07-11T13:35:21.062Z</time>
      </trkpt>
      <trkpt lat="45.77244" lon="3.01608">
        <ele>785</ele>
        <time>2020-07-11T13:35:22.062Z</time>
      </trkpt>
      <trkpt lat="45.77242" lon="3.01606">
        <ele>785</ele>
        <time>2020-07-11T13:35:23.062Z</time>
      </trkpt>
      <trkpt lat="45.77241" lon="3.01603">
        <ele>784</ele>
        <time>2020-07-11T13:35:24.062Z</time>
      </trkpt>
      <trkpt lat="45.77239" lon="3.01601">
        <ele>784</ele>
        <time>2020-07-11T13:35:25.062Z</time>
      </trkpt>
      <trkpt lat="45.77238" lon="3.01598">
        <ele>784</ele>
        <time>2020-07-11T13:35:26.062Z</time>
      </trkpt>
      <trkpt lat="45.77237" lon="3.01596">
        <ele>783</ele>
        <time>2020-07-11T13:35:27.062Z</time>
      </trkpt>
      <trkpt lat="45.77235" lon="3.01593">
        <ele>783</ele>
        <time>2020-07-11T13:35:28.062Z</time>
      </trkpt>
      <trkpt lat="45.77234" lon="3.01591">
        <ele>783</ele>
        <time>2020-07-11T13:35:29.062Z</time>
      </trkpt>
      <trkpt lat="45.77232" lon="3.01588">
        <ele>783</ele>
        <time>2020-07-11T13:35:30.062Z</time>
      </trkpt>
      <trkpt lat="45.77231" lon="3.01586">
        <ele>783</ele>
        <time>2020-07-11T13:35:31.062Z</time>
      </trkpt>
      <trkpt lat="45.7723" lon="3.01583">
        <ele>783</ele>
        <time>2020-07-11T13:35:32.062Z</time>
      </trkpt>
      <trkpt lat="45.77228" lon="3.01581">
        <ele>783</ele>
        <time>2020-07-11T13:35:33.062Z</time>
      </trkpt>
      <trkpt lat="45.77226" lon="3.01579">
        <ele>783</ele>
        <time>2020-07-11T13:35:34.062Z</time>
      </trkpt>
      <trkpt lat="45.77225" lon="3.01576">
        <ele>783</ele>
        <time>2020-07-11T13:35:35.062Z</time>
      </trkpt>
      <trkpt lat="45.77223" lon="3.01574">
        <ele>783</ele>
        <time>2020-07-11T13:35:36.062Z</time>
      </trkpt>
      <trkpt lat="45.77222" lon="3.01572">
        <ele>783</ele>
        <time>2020-07-11T13:35:37.062Z</time>
      </trkpt>
      <trkpt lat="45.7722" lon="3.0157">
        <ele>783</ele>
        <time>2020-07-11T13:35:38.062Z</time>
      </trkpt>
      <trkpt lat="45.77219" lon="3.01567">
        <ele>783</ele>
        <time>2020-07-11T13:35:39.062Z</time>
      </trkpt>
      <trkpt lat="45.77217" lon="3.01565">
        <ele>783</ele>
        <time>2020-07-11T13:35:40.062Z</time>
      </trkpt>
      <trkpt lat="45.77215" lon="3.01563">
        <ele>783</ele>
        <time>2020-07-11T13:35:41.062Z</time>
      </trkpt>
      <trkpt lat="45.77214" lon="3.0156">
        <ele>783</ele>
        <time>2020-07-11T13:35:42.062Z</time>
      </trkpt>
      <trkpt lat="45.77212" lon="3.01558">
        <ele>783</ele>
        <time>2020-07-11T13:35:43.062Z</time>
      </trkpt>
      <trkpt lat="45.77211" lon="3.01556">
        <ele>783</ele>
        <time>2020-07-11T13:35:44.062Z</time>
      </trkpt>
      <trkpt lat="45.77209" lon="3.01554">
        <ele>783</ele>
        <time>2020-07-11T13:35:45.062Z</time>
      </trkpt>
      <trkpt lat="45.77208" lon="3.01552">
        <ele>784</ele>
        <time>2020-07-11T13:35:46.062Z</time>
      </trkpt>
      <trkpt lat="45.77207" lon="3.01549">
        <ele>784</ele>
        <time>2020-07-11T13:35:47.062Z</time>
      </trkpt>
      <trkpt lat="45.77205" lon="3.01547">
        <ele>784</ele>
        <time>2020-07-11T13:35:48.062Z</time>
      </trkpt>
      <trkpt lat="45.77204" lon="3.01544">
        <ele>784</ele>
        <time>2020-07-11T13:35:49.062Z</time>
      </trkpt>
      <trkpt lat="45.77202" lon="3.01542">
        <ele>784</ele>
        <time>2020-07-11T13:35:50.062Z</time>
      </trkpt>
      <trkpt lat="45.772" lon="3.0154">
        <ele>784</ele>
        <time>2020-07-11T13:35:51.062Z</time>
      </trkpt>
      <trkpt lat="45.77198" lon="3.01538">
        <ele>784</ele>
        <time>2020-07-11T13:35:52.062Z</time>
      </trkpt>
      <trkpt lat="45.77196" lon="3.01536">
        <ele>784</ele>
        <time>2020-07-11T13:35:53.062Z</time>
      </trkpt>
      <trkpt lat="45.77195" lon="3.01534">
        <ele>785</ele>
        <time>2020-07-11T13:35:54.062Z</time>
      </trkpt>
      <trkpt lat="45.77193" lon="3.01532">
        <ele>785</ele>
        <time>2020-07-11T13:35:55.062Z</time>
      </trkpt>
      <trkpt lat="45.77191" lon="3.0153">
        <ele>786</ele>
        <time>2020-07-11T13:35:56.062Z</time>
      </trkpt>
      <trkpt lat="45.77189" lon="3.01528">
        <ele>786</ele>
        <time>2020-07-11T13:35:57.062Z</time>
      </trkpt>
      <trkpt lat="45.77187" lon="3.01526">
        <ele>786</ele>
        <time>2020-07-11T13:35:58.062Z</time>
      </trkpt>
      <trkpt lat="45.77185" lon="3.01523">
        <ele>786</ele>
        <time>2020-07-11T13:35:59.062Z</time>
      </trkpt>
      <trkpt lat="45.77183" lon="3.01521">
        <ele>786</ele>
        <time>2020-07-11T13:36:00.062Z</time>
      </trkpt>
      <trkpt lat="45.77182" lon="3.01519">
        <ele>786</ele>
        <time>2020-07-11T13:36:01.062Z</time>
      </trkpt>
      <trkpt lat="45.7718" lon="3.01517">
        <ele>787</ele>
        <time>2020-07-11T13:36:02.062Z</time>
      </trkpt>
      <trkpt lat="45.77178" lon="3.01515">
        <ele>787</ele>
        <time>2020-07-11T13:36:03.062Z</time>
      </trkpt>
      <trkpt lat="45.77177" lon="3.01513">
        <ele>787</ele>
        <time>2020-07-11T13:36:04.062Z</time>
      </trkpt>
      <trkpt lat="45.77175" lon="3.0151">
        <ele>787</ele>
        <time>2020-07-11T13:36:05.062Z</time>
      </trkpt>
      <trkpt lat="45.77174" lon="3.01507">
        <ele>788</ele>
        <time>2020-07-11T13:36:06.062Z</time>
      </trkpt>
      <trkpt lat="45.77172" lon="3.01505">
        <ele>788</ele>
        <time>2020-07-11T13:36:07.062Z</time>
      </trkpt>
      <trkpt lat="45.77171" lon="3.01503">
        <ele>788</ele>
        <time>2020-07-11T13:36:08.062Z</time>
      </trkpt>
      <trkpt lat="45.7717" lon="3.015">
        <ele>789</ele>
        <time>2020-07-11T13:36:09.062Z</time>
      </trkpt>
      <trkpt lat="45.77168" lon="3.01498">
        <ele>789</ele>
        <time>2020-07-11T13:36:10.062Z</time>
      </trkpt>
      <trkpt lat="45.77168" lon="3.01495">
        <ele>789</ele>
        <time>2020-07-11T13:36:11.062Z</time>
      </trkpt>
      <trkpt lat="45.77167" lon="3.01493">
        <ele>789</ele>
        <time>2020-07-11T13:36:12.062Z</time>
      </trkpt>
      <trkpt lat="45.77166" lon="3.0149">
        <ele>789</ele>
        <time>2020-07-11T13:36:13.062Z</time>
      </trkpt>
      <trkpt lat="45.77165" lon="3.01487">
        <ele>790</ele>
        <time>2020-07-11T13:36:14.062Z</time>
      </trkpt>
      <trkpt lat="45.77164" lon="3.01485">
        <ele>790</ele>
        <time>2020-07-11T13:36:15.062Z</time>
      </trkpt>
      <trkpt lat="45.77162" lon="3.01482">
        <ele>789</ele>
        <time>2020-07-11T13:36:16.062Z</time>
      </trkpt>
      <trkpt lat="45.7716" lon="3.0148">
        <ele>790</ele>
        <time>2020-07-11T13:36:17.062Z</time>
      </trkpt>
      <trkpt lat="45.77158" lon="3.01477">
        <ele>790</ele>
        <time>2020-07-11T13:36:18.062Z</time>
      </trkpt>
      <trkpt lat="45.77156" lon="3.01475">
        <ele>790</ele>
        <time>2020-07-11T13:36:19.062Z</time>
      </trkpt>
      <trkpt lat="45.77155" lon="3.01473">
        <ele>791</ele>
        <time>2020-07-11T13:36:20.062Z</time>
      </trkpt>
      <trkpt lat="45.77153" lon="3.0147">
        <ele>791</ele>
        <time>2020-07-11T13:36:21.062Z</time>
      </trkpt>
      <trkpt lat="45.77151" lon="3.01467">
        <ele>791</ele>
        <time>2020-07-11T13:36:22.062Z</time>
      </trkpt>
      <trkpt lat="45.7715" lon="3.01464">
        <ele>791</ele>
        <time>2020-07-11T13:36:23.062Z</time>
      </trkpt>
      <trkpt lat="45.77149" lon="3.01461">
        <ele>791</ele>
        <time>2020-07-11T13:36:24.062Z</time>
      </trkpt>
      <trkpt lat="45.77148" lon="3.01458">
        <ele>791</ele>
        <time>2020-07-11T13:36:25.062Z</time>
      </trkpt>
      <trkpt lat="45.77147" lon="3.01455">
        <ele>791</ele>
        <time>2020-07-11T13:36:26.062Z</time>
      </trkpt>
      <trkpt lat="45.77145" lon="3.01452">
        <ele>791</ele>
        <time>2020-07-11T13:36:27.062Z</time>
      </trkpt>
      <trkpt lat="45.77144" lon="3.01449">
        <ele>791</ele>
        <time>2020-07-11T13:36:28.062Z</time>
      </trkpt>
      <trkpt lat="45.77143" lon="3.01446">
        <ele>791</ele>
        <time>2020-07-11T13:36:29.062Z</time>
      </trkpt>
      <trkpt lat="45.77142" lon="3.01443">
        <ele>791</ele>
        <time>2020-07-11T13:36:30.062Z</time>
      </trkpt>
      <trkpt lat="45.77141" lon="3.0144">
        <ele>791</ele>
        <time>2020-07-11T13:36:31.062Z</time>
      </trkpt>
      <trkpt lat="45.7714" lon="3.01436">
        <ele>792</ele>
        <time>2020-07-11T13:36:32.062Z</time>
      </trkpt>
      <trkpt lat="45.77139" lon="3.01433">
        <ele>792</ele>
        <time>2020-07-11T13:36:33.062Z</time>
      </trkpt>
      <trkpt lat="45.77138" lon="3.01429">
        <ele>792</ele>
        <time>2020-07-11T13:36:34.062Z</time>
      </trkpt>
      <trkpt lat="45.77137" lon="3.01426">
        <ele>792</ele>
        <time>2020-07-11T13:36:35.062Z</time>
      </trkpt>
      <trkpt lat="45.77136" lon="3.01423">
        <ele>792</ele>
        <time>2020-07-11T13:36:36.062Z</time>
      </trkpt>
      <trkpt lat="45.77136" lon="3.01419">
        <ele>792</ele>
        <time>2020-07-11T13:36:37.062Z</time>
      </trkpt>
      <trkpt lat="45.77135" lon="3.01416">
        <ele>792</ele>
        <time>2020-07-11T13:36:38.062Z</time>
      </trkpt>
      <trkpt lat="45.77133" lon="3.01413">
        <ele>792</ele>
        <time>2020-07-11T13:36:39.062Z</time>
      </trkpt>
      <trkpt lat="45.77132" lon="3.01409">
        <ele>792</ele>
        <time>2020-07-11T13:36:40.062Z</time>
      </trkpt>
      <trkpt lat="45.77131" lon="3.01406">
        <ele>791</ele>
        <time>2020-07-11T13:36:41.062Z</time>
      </trkpt>
      <trkpt lat="45.7713" lon="3.01402">
        <ele>792</ele>
        <time>2020-07-11T13:36:42.062Z</time>
      </trkpt>
      <trkpt lat="45.77129" lon="3.01399">
        <ele>792</ele>
        <time>2020-07-11T13:36:43.062Z</time>
      </trkpt>
      <trkpt lat="45.77127" lon="3.01396">
        <ele>791</ele>
        <time>2020-07-11T13:36:44.062Z</time>
      </trkpt>
      <trkpt lat="45.77126" lon="3.01393">
        <ele>791</ele>
        <time>2020-07-11T13:36:45.062Z</time>
      </trkpt>
      <trkpt lat="45.77124" lon="3.0139">
        <ele>791</ele>
        <time>2020-07-11T13:36:46.062Z</time>
      </trkpt>
      <trkpt lat="45.77123" lon="3.01387">
        <ele>791</ele>
        <time>2020-07-11T13:36:47.062Z</time>
      </trkpt>
      <trkpt lat="45.77121" lon="3.01384">
        <ele>792</ele>
        <time>2020-07-11T13:36:48.062Z</time>
      </trkpt>
      <trkpt lat="45.7712" lon="3.01381">
        <ele>792</ele>
        <time>2020-07-11T13:36:49.062Z</time>
      </trkpt>
      <trkpt lat="45.77118" lon="3.01378">
        <ele>792</ele>
        <time>2020-07-11T13:36:50.062Z</time>
      </trkpt>
      <trkpt lat="45.77117" lon="3.01375">
        <ele>792</ele>
        <time>2020-07-11T13:36:51.062Z</time>
      </trkpt>
      <trkpt lat="45.77116" lon="3.01372">
        <ele>793</ele>
        <time>2020-07-11T13:36:52.062Z</time>
      </trkpt>
      <trkpt lat="45.77114" lon="3.01369">
        <ele>792</ele>
        <time>2020-07-11T13:36:53.062Z</time>
      </trkpt>
      <trkpt lat="45.77113" lon="3.01366">
        <ele>792</ele>
        <time>2020-07-11T13:36:54.062Z</time>
      </trkpt>
      <trkpt lat="45.77111" lon="3.01363">
        <ele>792</ele>
        <time>2020-07-11T13:36:55.062Z</time>
      </trkpt>
      <trkpt lat="45.7711" lon="3.0136">
        <ele>792</ele>
        <time>2020-07-11T13:36:56.062Z</time>
      </trkpt>
      <trkpt lat="45.77108" lon="3.01357">
        <ele>792</ele>
        <time>2020-07-11T13:36:57.062Z</time>
      </trkpt>
      <trkpt lat="45.77107" lon="3.01354">
        <ele>792</ele>
        <time>2020-07-11T13:36:58.062Z</time>
      </trkpt>
      <trkpt lat="45.77106" lon="3.01351">
        <ele>792</ele>
        <time>2020-07-11T13:36:59.062Z</time>
      </trkpt>
      <trkpt lat="45.77104" lon="3.01348">
        <ele>792</ele>
        <time>2020-07-11T13:37:00.062Z</time>
      </trkpt>
      <trkpt lat="45.77102" lon="3.01346">
        <ele>792</ele>
        <time>2020-07-11T13:37:01.062Z</time>
      </trkpt>
      <trkpt lat="45.771" lon="3.01343">
        <ele>792</ele>
        <time>2020-07-11T13:37:02.062Z</time>
      </trkpt>
      <trkpt lat="45.77099" lon="3.0134">
        <ele>792</ele>
        <time>2020-07-11T13:37:03.062Z</time>
      </trkpt>
      <trkpt lat="45.77097" lon="3.01337">
        <ele>792</ele>
        <time>2020-07-11T13:37:04.062Z</time>
      </trkpt>
      <trkpt lat="45.77095" lon="3.01334">
        <ele>793</ele>
        <time>2020-07-11T13:37:05.062Z</time>
      </trkpt>
      <trkpt lat="45.77094" lon="3.01331">
        <ele>793</ele>
        <time>2020-07-11T13:37:06.062Z</time>
      </trkpt>
      <trkpt lat="45.77092" lon="3.01328">
        <ele>793</ele>
        <time>2020-07-11T13:37:07.062Z</time>
      </trkpt>
      <trkpt lat="45.7709" lon="3.01326">
        <ele>793</ele>
        <time>2020-07-11T13:37:08.062Z</time>
      </trkpt>
      <trkpt lat="45.77089" lon="3.01323">
        <ele>793</ele>
        <time>2020-07-11T13:37:09.062Z</time>
      </trkpt>
      <trkpt lat="45.77087" lon="3.0132">
        <ele>794</ele>
        <time>2020-07-11T13:37:10.062Z</time>
      </trkpt>
      <trkpt lat="45.77085" lon="3.01317">
        <ele>794</ele>
        <time>2020-07-11T13:37:11.062Z</time>
      </trkpt>
      <trkpt lat="45.77083" lon="3.01315">
        <ele>794</ele>
        <time>2020-07-11T13:37:12.062Z</time>
      </trkpt>
      <trkpt lat="45.77081" lon="3.01312">
        <ele>794</ele>
        <time>2020-07-11T13:37:13.062Z</time>
      </trkpt>
      <trkpt lat="45.7708" lon="3.01309">
        <ele>794</ele>
        <time>2020-07-11T13:37:14.062Z</time>
      </trkpt>
      <trkpt lat="45.77078" lon="3.01306">
        <ele>794</ele>
        <time>2020-07-11T13:37:15.062Z</time>
      </trkpt>
      <trkpt lat="45.77077" lon="3.01302">
        <ele>794</ele>
        <time>2020-07-11T13:37:16.062Z</time>
      </trkpt>
      <trkpt lat="45.77076" lon="3.01299">
        <ele>794</ele>
        <time>2020-07-11T13:37:17.062Z</time>
      </trkpt>
      <trkpt lat="45.77074" lon="3.01296">
        <ele>794</ele>
        <time>2020-07-11T13:37:18.062Z</time>
      </trkpt>
      <trkpt lat="45.77073" lon="3.01293">
        <ele>794</ele>
        <time>2020-07-11T13:37:19.062Z</time>
      </trkpt>
      <trkpt lat="45.77072" lon="3.01289">
        <ele>795</ele>
        <time>2020-07-11T13:37:20.062Z</time>
      </trkpt>
      <trkpt lat="45.7707" lon="3.01286">
        <ele>796</ele>
        <time>2020-07-11T13:37:21.062Z</time>
      </trkpt>
      <trkpt lat="45.77069" lon="3.01283">
        <ele>796</ele>
        <time>2020-07-11T13:37:22.062Z</time>
      </trkpt>
      <trkpt lat="45.77068" lon="3.0128">
        <ele>796</ele>
        <time>2020-07-11T13:37:23.062Z</time>
      </trkpt>
      <trkpt lat="45.77067" lon="3.01277">
        <ele>795</ele>
        <time>2020-07-11T13:37:24.062Z</time>
      </trkpt>
      <trkpt lat="45.77066" lon="3.01273">
        <ele>795</ele>
        <time>2020-07-11T13:37:25.062Z</time>
      </trkpt>
      <trkpt lat="45.77065" lon="3.0127">
        <ele>795</ele>
        <time>2020-07-11T13:37:26.062Z</time>
      </trkpt>
      <trkpt lat="45.77064" lon="3.01267">
        <ele>795</ele>
        <time>2020-07-11T13:37:27.062Z</time>
      </trkpt>
      <trkpt lat="45.77063" lon="3.01264">
        <ele>795</ele>
        <time>2020-07-11T13:37:28.062Z</time>
      </trkpt>
      <trkpt lat="45.77061" lon="3.01261">
        <ele>795</ele>
        <time>2020-07-11T13:37:29.062Z</time>
      </trkpt>
      <trkpt lat="45.7706" lon="3.01258">
        <ele>795</ele>
        <time>2020-07-11T13:37:30.062Z</time>
      </trkpt>
      <trkpt lat="45.77059" lon="3.01255">
        <ele>795</ele>
        <time>2020-07-11T13:37:31.062Z</time>
      </trkpt>
      <trkpt lat="45.77057" lon="3.01252">
        <ele>795</ele>
        <time>2020-07-11T13:37:32.062Z</time>
      </trkpt>
      <trkpt lat="45.77056" lon="3.01248">
        <ele>795</ele>
        <time>2020-07-11T13:37:33.062Z</time>
      </trkpt>
      <trkpt lat="45.77055" lon="3.01245">
        <ele>795</ele>
        <time>2020-07-11T13:37:34.062Z</time>
      </trkpt>
      <trkpt lat="45.77053" lon="3.01242">
        <ele>795</ele>
        <time>2020-07-11T13:37:35.062Z</time>
      </trkpt>
      <trkpt lat="45.77052" lon="3.01239">
        <ele>795</ele>
        <time>2020-07-11T13:37:36.062Z</time>
      </trkpt>
      <trkpt lat="45.77051" lon="3.01236">
        <ele>795</ele>
        <time>2020-07-11T13:37:37.062Z</time>
      </trkpt>
      <trkpt lat="45.77049" lon="3.01233">
        <ele>796</ele>
        <time>2020-07-11T13:37:38.062Z</time>
      </trkpt>
      <trkpt lat="45.77047" lon="3.0123">
        <ele>796</ele>
        <time>2020-07-11T13:37:39.062Z</time>
      </trkpt>
      <trkpt lat="45.77046" lon="3.01227">
        <ele>796</ele>
        <time>2020-07-11T13:37:40.062Z</time>
      </trkpt>
      <trkpt lat="45.77044" lon="3.01223">
        <ele>797</ele>
        <time>2020-07-11T13:37:41.062Z</time>
      </trkpt>
      <trkpt lat="45.77043" lon="3.0122">
        <ele>797</ele>
        <time>2020-07-11T13:37:42.062Z</time>
      </trkpt>
      <trkpt lat="45.77041" lon="3.01217">
        <ele>797</ele>
        <time>2020-07-11T13:37:43.062Z</time>
      </trkpt>
      <trkpt lat="45.7704" lon="3.01214">
        <ele>797</ele>
        <time>2020-07-11T13:37:44.062Z</time>
      </trkpt>
      <trkpt lat="45.77038" lon="3.01211">
        <ele>797</ele>
        <time>2020-07-11T13:37:45.062Z</time>
      </trkpt>
      <trkpt lat="45.77037" lon="3.01208">
        <ele>797</ele>
        <time>2020-07-11T13:37:46.062Z</time>
      </trkpt>
      <trkpt lat="45.77035" lon="3.01205">
        <ele>798</ele>
        <time>2020-07-11T13:37:47.062Z</time>
      </trkpt>
      <trkpt lat="45.77034" lon="3.01202">
        <ele>798</ele>
        <time>2020-07-11T13:37:48.062Z</time>
      </trkpt>
      <trkpt lat="45.77032" lon="3.01199">
        <ele>798</ele>
        <time>2020-07-11T13:37:49.062Z</time>
      </trkpt>
      <trkpt lat="45.77031" lon="3.01197">
        <ele>797</ele>
        <time>2020-07-11T13:37:50.062Z</time>
      </trkpt>
      <trkpt lat="45.77029" lon="3.01194">
        <ele>798</ele>
        <time>2020-07-11T13:37:51.062Z</time>
      </trkpt>
      <trkpt lat="45.77028" lon="3.0119">
        <ele>798</ele>
        <time>2020-07-11T13:37:52.062Z</time>
      </trkpt>
      <trkpt lat="45.77026" lon="3.01187">
        <ele>798</ele>
        <time>2020-07-11T13:37:53.062Z</time>
      </trkpt>
      <trkpt lat="45.77025" lon="3.01184">
        <ele>798</ele>
        <time>2020-07-11T13:37:54.062Z</time>
      </trkpt>
      <trkpt lat="45.77023" lon="3.01181">
        <ele>798</ele>
        <time>2020-07-11T13:37:55.062Z</time>
      </trkpt>
      <trkpt lat="45.77022" lon="3.01178">
        <ele>799</ele>
        <time>2020-07-11T13:37:56.062Z</time>
      </trkpt>
      <trkpt lat="45.7702" lon="3.01175">
        <ele>799</ele>
        <time>2020-07-11T13:37:57.062Z</time>
      </trkpt>
      <trkpt lat="45.77018" lon="3.01172">
        <ele>800</ele>
        <time>2020-07-11T13:37:58.062Z</time>
      </trkpt>
      <trkpt lat="45.77016" lon="3.0117">
        <ele>800</ele>
        <time>2020-07-11T13:37:59.062Z</time>
      </trkpt>
      <trkpt lat="45.77014" lon="3.01167">
        <ele>800</ele>
        <time>2020-07-11T13:38:00.062Z</time>
      </trkpt>
      <trkpt lat="45.77013" lon="3.01164">
        <ele>802</ele>
        <time>2020-07-11T13:38:01.062Z</time>
      </trkpt>
      <trkpt lat="45.77011" lon="3.01161">
        <ele>802</ele>
        <time>2020-07-11T13:38:02.062Z</time>
      </trkpt>
      <trkpt lat="45.7701" lon="3.01157">
        <ele>803</ele>
        <time>2020-07-11T13:38:03.062Z</time>
      </trkpt>
      <trkpt lat="45.77008" lon="3.01154">
        <ele>803</ele>
        <time>2020-07-11T13:38:04.062Z</time>
      </trkpt>
      <trkpt lat="45.77006" lon="3.0115">
        <ele>803</ele>
        <time>2020-07-11T13:38:05.062Z</time>
      </trkpt>
      <trkpt lat="45.77005" lon="3.01147">
        <ele>803</ele>
        <time>2020-07-11T13:38:06.062Z</time>
      </trkpt>
      <trkpt lat="45.77003" lon="3.01144">
        <ele>803</ele>
        <time>2020-07-11T13:38:07.062Z</time>
      </trkpt>
      <trkpt lat="45.77001" lon="3.0114">
        <ele>803</ele>
        <time>2020-07-11T13:38:08.062Z</time>
      </trkpt>
      <trkpt lat="45.77" lon="3.01136">
        <ele>804</ele>
        <time>2020-07-11T13:38:09.062Z</time>
      </trkpt>
      <trkpt lat="45.76998" lon="3.01133">
        <ele>803</ele>
        <time>2020-07-11T13:38:10.062Z</time>
      </trkpt>
      <trkpt lat="45.76997" lon="3.01129">
        <ele>803</ele>
        <time>2020-07-11T13:38:11.062Z</time>
      </trkpt>
      <trkpt lat="45.76996" lon="3.01126">
        <ele>803</ele>
        <time>2020-07-11T13:38:12.062Z</time>
      </trkpt>
      <trkpt lat="45.76994" lon="3.01122">
        <ele>803</ele>
        <time>2020-07-11T13:38:13.062Z</time>
      </trkpt>
      <trkpt lat="45.76993" lon="3.01118">
        <ele>802</ele>
        <time>2020-07-11T13:38:14.062Z</time>
      </trkpt>
      <trkpt lat="45.76992" lon="3.01115">
        <ele>801</ele>
        <time>2020-07-11T13:38:15.062Z</time>
      </trkpt>
      <trkpt lat="45.76991" lon="3.01111">
        <ele>800</ele>
        <time>2020-07-11T13:38:16.062Z</time>
      </trkpt>
      <trkpt lat="45.7699" lon="3.01107">
        <ele>800</ele>
        <time>2020-07-11T13:38:17.062Z</time>
      </trkpt>
      <trkpt lat="45.76989" lon="3.01104">
        <ele>800</ele>
        <time>2020-07-11T13:38:18.062Z</time>
      </trkpt>
      <trkpt lat="45.76988" lon="3.011">
        <ele>799</ele>
        <time>2020-07-11T13:38:19.062Z</time>
      </trkpt>
      <trkpt lat="45.76987" lon="3.01097">
        <ele>799</ele>
        <time>2020-07-11T13:38:20.062Z</time>
      </trkpt>
      <trkpt lat="45.76985" lon="3.01093">
        <ele>799</ele>
        <time>2020-07-11T13:38:21.062Z</time>
      </trkpt>
      <trkpt lat="45.76984" lon="3.0109">
        <ele>799</ele>
        <time>2020-07-11T13:38:22.062Z</time>
      </trkpt>
      <trkpt lat="45.76983" lon="3.01086">
        <ele>799</ele>
        <time>2020-07-11T13:38:23.062Z</time>
      </trkpt>
      <trkpt lat="45.76982" lon="3.01083">
        <ele>799</ele>
        <time>2020-07-11T13:38:24.062Z</time>
      </trkpt>
      <trkpt lat="45.7698" lon="3.01079">
        <ele>799</ele>
        <time>2020-07-11T13:38:25.062Z</time>
      </trkpt>
      <trkpt lat="45.76979" lon="3.01076">
        <ele>799</ele>
        <time>2020-07-11T13:38:26.062Z</time>
      </trkpt>
      <trkpt lat="45.76978" lon="3.01072">
        <ele>799</ele>
        <time>2020-07-11T13:38:27.062Z</time>
      </trkpt>
      <trkpt lat="45.76976" lon="3.01069">
        <ele>799</ele>
        <time>2020-07-11T13:38:28.062Z</time>
      </trkpt>
      <trkpt lat="45.76975" lon="3.01065">
        <ele>799</ele>
        <time>2020-07-11T13:38:29.062Z</time>
      </trkpt>
      <trkpt lat="45.76974" lon="3.01061">
        <ele>799</ele>
        <time>2020-07-11T13:38:30.062Z</time>
      </trkpt>
      <trkpt lat="45.76973" lon="3.01058">
        <ele>799</ele>
        <time>2020-07-11T13:38:31.062Z</time>
      </trkpt>
      <trkpt lat="45.76972" lon="3.01054">
        <ele>799</ele>
        <time>2020-07-11T13:38:32.062Z</time>
      </trkpt>
      <trkpt lat="45.7697" lon="3.0105">
        <ele>799</ele>
        <time>2020-07-11T13:38:33.062Z</time>
      </trkpt>
      <trkpt lat="45.76969" lon="3.01047">
        <ele>799</ele>
        <time>2020-07-11T13:38:34.062Z</time>
      </trkpt>
      <trkpt lat="45.76968" lon="3.01044">
        <ele>799</ele>
        <time>2020-07-11T13:38:35.062Z</time>
      </trkpt>
      <trkpt lat="45.76967" lon="3.0104">
        <ele>799</ele>
        <time>2020-07-11T13:38:36.062Z</time>
      </trkpt>
      <trkpt lat="45.76966" lon="3.01037">
        <ele>798</ele>
        <time>2020-07-11T13:38:37.062Z</time>
      </trkpt>
      <trkpt lat="45.76965" lon="3.01033">
        <ele>799</ele>
        <time>2020-07-11T13:38:38.062Z</time>
      </trkpt>
      <trkpt lat="45.76963" lon="3.0103">
        <ele>799</ele>
        <time>2020-07-11T13:38:39.062Z</time>
      </trkpt>
      <trkpt lat="45.76962" lon="3.01026">
        <ele>799</ele>
        <time>2020-07-11T13:38:40.062Z</time>
      </trkpt>
      <trkpt lat="45.76961" lon="3.01022">
        <ele>799</ele>
        <time>2020-07-11T13:38:41.062Z</time>
      </trkpt>
      <trkpt lat="45.7696" lon="3.01018">
        <ele>798</ele>
        <time>2020-07-11T13:38:42.062Z</time>
      </trkpt>
      <trkpt lat="45.7696" lon="3.01014">
        <ele>798</ele>
        <time>2020-07-11T13:38:43.062Z</time>
      </trkpt>
      <trkpt lat="45.76959" lon="3.0101">
        <ele>798</ele>
        <time>2020-07-11T13:38:44.062Z</time>
      </trkpt>
      <trkpt lat="45.76959" lon="3.01007">
        <ele>798</ele>
        <time>2020-07-11T13:38:45.062Z</time>
      </trkpt>
      <trkpt lat="45.76958" lon="3.01003">
        <ele>798</ele>
        <time>2020-07-11T13:38:46.062Z</time>
      </trkpt>
      <trkpt lat="45.76957" lon="3.00999">
        <ele>798</ele>
        <time>2020-07-11T13:38:47.062Z</time>
      </trkpt>
      <trkpt lat="45.76957" lon="3.00996">
        <ele>799</ele>
        <time>2020-07-11T13:38:48.062Z</time>
      </trkpt>
      <trkpt lat="45.76957" lon="3.00992">
        <ele>799</ele>
        <time>2020-07-11T13:38:49.062Z</time>
      </trkpt>
      <trkpt lat="45.76957" lon="3.00988">
        <ele>799</ele>
        <time>2020-07-11T13:38:50.062Z</time>
      </trkpt>
      <trkpt lat="45.76956" lon="3.00985">
        <ele>799</ele>
        <time>2020-07-11T13:38:51.062Z</time>
      </trkpt>
      <trkpt lat="45.76956" lon="3.00981">
        <ele>798</ele>
        <time>2020-07-11T13:38:52.062Z</time>
      </trkpt>
      <trkpt lat="45.76956" lon="3.00978">
        <ele>799</ele>
        <time>2020-07-11T13:38:53.062Z</time>
      </trkpt>
      <trkpt lat="45.76956" lon="3.00974">
        <ele>799</ele>
        <time>2020-07-11T13:38:54.062Z</time>
      </trkpt>
      <trkpt lat="45.76956" lon="3.00969">
        <ele>799</ele>
        <time>2020-07-11T13:38:55.062Z</time>
      </trkpt>
      <trkpt lat="45.76956" lon="3.00965">
        <ele>799</ele>
        <time>2020-07-11T13:38:56.062Z</time>
      </trkpt>
      <trkpt lat="45.76956" lon="3.00961">
        <ele>798</ele>
        <time>2020-07-11T13:38:57.062Z</time>
      </trkpt>
      <trkpt lat="45.76956" lon="3.00958">
        <ele>799</ele>
        <time>2020-07-11T13:38:58.062Z</time>
      </trkpt>
      <trkpt lat="45.76955" lon="3.00954">
        <ele>799</ele>
        <time>2020-07-11T13:38:59.062Z</time>
      </trkpt>
      <trkpt lat="45.76955" lon="3.0095">
        <ele>799</ele>
        <time>2020-07-11T13:39:00.062Z</time>
      </trkpt>
      <trkpt lat="45.76955" lon="3.00946">
        <ele>799</ele>
        <time>2020-07-11T13:39:01.062Z</time>
      </trkpt>
      <trkpt lat="45.76956" lon="3.00943">
        <ele>800</ele>
        <time>2020-07-11T13:39:02.062Z</time>
      </trkpt>
      <trkpt lat="45.76956" lon="3.00939">
        <ele>799</ele>
        <time>2020-07-11T13:39:03.062Z</time>
      </trkpt>
      <trkpt lat="45.76956" lon="3.00935">
        <ele>799</ele>
        <time>2020-07-11T13:39:04.062Z</time>
      </trkpt>
      <trkpt lat="45.76955" lon="3.00931">
        <ele>799</ele>
        <time>2020-07-11T13:39:05.062Z</time>
      </trkpt>
      <trkpt lat="45.76955" lon="3.00928">
        <ele>799</ele>
        <time>2020-07-11T13:39:06.062Z</time>
      </trkpt>
      <trkpt lat="45.76955" lon="3.00924">
        <ele>798</ele>
        <time>2020-07-11T13:39:07.062Z</time>
      </trkpt>
      <trkpt lat="45.76955" lon="3.0092">
        <ele>799</ele>
        <time>2020-07-11T13:39:08.062Z</time>
      </trkpt>
      <trkpt lat="45.76954" lon="3.00917">
        <ele>799</ele>
        <time>2020-07-11T13:39:09.062Z</time>
      </trkpt>
      <trkpt lat="45.76954" lon="3.00913">
        <ele>799</ele>
        <time>2020-07-11T13:39:10.062Z</time>
      </trkpt>
      <trkpt lat="45.76953" lon="3.00909">
        <ele>799</ele>
        <time>2020-07-11T13:39:11.062Z</time>
      </trkpt>
      <trkpt lat="45.76953" lon="3.00906">
        <ele>799</ele>
        <time>2020-07-11T13:39:12.062Z</time>
      </trkpt>
      <trkpt lat="45.76952" lon="3.00902">
        <ele>799</ele>
        <time>2020-07-11T13:39:13.062Z</time>
      </trkpt>
      <trkpt lat="45.76952" lon="3.00898">
        <ele>799</ele>
        <time>2020-07-11T13:39:14.062Z</time>
      </trkpt>
      <trkpt lat="45.76951" lon="3.00895">
        <ele>800</ele>
        <time>2020-07-11T13:39:15.062Z</time>
      </trkpt>
      <trkpt lat="45.76949" lon="3.00892">
        <ele>800</ele>
        <time>2020-07-11T13:39:16.062Z</time>
      </trkpt>
      <trkpt lat="45.76948" lon="3.00888">
        <ele>801</ele>
        <time>2020-07-11T13:39:17.062Z</time>
      </trkpt>
      <trkpt lat="45.76947" lon="3.00885">
        <ele>801</ele>
        <time>2020-07-11T13:39:18.062Z</time>
      </trkpt>
      <trkpt lat="45.76946" lon="3.00882">
        <ele>801</ele>
        <time>2020-07-11T13:39:19.062Z</time>
      </trkpt>
      <trkpt lat="45.76945" lon="3.00878">
        <ele>801</ele>
        <time>2020-07-11T13:39:20.062Z</time>
      </trkpt>
      <trkpt lat="45.76944" lon="3.00875">
        <ele>801</ele>
        <time>2020-07-11T13:39:21.062Z</time>
      </trkpt>
      <trkpt lat="45.76943" lon="3.00872">
        <ele>802</ele>
        <time>2020-07-11T13:39:22.062Z</time>
      </trkpt>
      <trkpt lat="45.76942" lon="3.00868">
        <ele>802</ele>
        <time>2020-07-11T13:39:23.062Z</time>
      </trkpt>
      <trkpt lat="45.76941" lon="3.00865">
        <ele>802</ele>
        <time>2020-07-11T13:39:24.062Z</time>
      </trkpt>
      <trkpt lat="45.7694" lon="3.00862">
        <ele>802</ele>
        <time>2020-07-11T13:39:25.062Z</time>
      </trkpt>
      <trkpt lat="45.76939" lon="3.00858">
        <ele>802</ele>
        <time>2020-07-11T13:39:26.062Z</time>
      </trkpt>
      <trkpt lat="45.76938" lon="3.00855">
        <ele>803</ele>
        <time>2020-07-11T13:39:27.062Z</time>
      </trkpt>
      <trkpt lat="45.76937" lon="3.00852">
        <ele>804</ele>
        <time>2020-07-11T13:39:28.062Z</time>
      </trkpt>
      <trkpt lat="45.76936" lon="3.00849">
        <ele>804</ele>
        <time>2020-07-11T13:39:29.062Z</time>
      </trkpt>
      <trkpt lat="45.76935" lon="3.00846">
        <ele>804</ele>
        <time>2020-07-11T13:39:30.062Z</time>
      </trkpt>
      <trkpt lat="45.76933" lon="3.00843">
        <ele>804</ele>
        <time>2020-07-11T13:39:31.062Z</time>
      </trkpt>
      <trkpt lat="45.76932" lon="3.0084">
        <ele>804</ele>
        <time>2020-07-11T13:39:32.062Z</time>
      </trkpt>
      <trkpt lat="45.7693" lon="3.00837">
        <ele>804</ele>
        <time>2020-07-11T13:39:33.062Z</time>
      </trkpt>
      <trkpt lat="45.76929" lon="3.00834">
        <ele>804</ele>
        <time>2020-07-11T13:39:34.062Z</time>
      </trkpt>
      <trkpt lat="45.76927" lon="3.00831">
        <ele>804</ele>
        <time>2020-07-11T13:39:35.062Z</time>
      </trkpt>
      <trkpt lat="45.76926" lon="3.00828">
        <ele>805</ele>
        <time>2020-07-11T13:39:36.062Z</time>
      </trkpt>
      <trkpt lat="45.76924" lon="3.00825">
        <ele>805</ele>
        <time>2020-07-11T13:39:37.062Z</time>
      </trkpt>
      <trkpt lat="45.76923" lon="3.00821">
        <ele>805</ele>
        <time>2020-07-11T13:39:38.062Z</time>
      </trkpt>
      <trkpt lat="45.76922" lon="3.00818">
        <ele>805</ele>
        <time>2020-07-11T13:39:39.062Z</time>
      </trkpt>
      <trkpt lat="45.7692" lon="3.00815">
        <ele>806</ele>
        <time>2020-07-11T13:39:40.062Z</time>
      </trkpt>
      <trkpt lat="45.76919" lon="3.00812">
        <ele>806</ele>
        <time>2020-07-11T13:39:41.062Z</time>
      </trkpt>
      <trkpt lat="45.76918" lon="3.00809">
        <ele>807</ele>
        <time>2020-07-11T13:39:42.062Z</time>
      </trkpt>
      <trkpt lat="45.76917" lon="3.00806">
        <ele>807</ele>
        <time>2020-07-11T13:39:43.062Z</time>
      </trkpt>
      <trkpt lat="45.76916" lon="3.00803">
        <ele>807</ele>
        <time>2020-07-11T13:39:44.062Z</time>
      </trkpt>
      <trkpt lat="45.76915" lon="3.00799">
        <ele>806</ele>
        <time>2020-07-11T13:39:45.062Z</time>
      </trkpt>
      <trkpt lat="45.76913" lon="3.00796">
        <ele>806</ele>
        <time>2020-07-11T13:39:46.062Z</time>
      </trkpt>
      <trkpt lat="45.76912" lon="3.00793">
        <ele>806</ele>
        <time>2020-07-11T13:39:47.062Z</time>
      </trkpt>
      <trkpt lat="45.76911" lon="3.00789">
        <ele>806</ele>
        <time>2020-07-11T13:39:48.062Z</time>
      </trkpt>
      <trkpt lat="45.7691" lon="3.00786">
        <ele>805</ele>
        <time>2020-07-11T13:39:49.062Z</time>
      </trkpt>
      <trkpt lat="45.76908" lon="3.00782">
        <ele>805</ele>
        <time>2020-07-11T13:39:50.062Z</time>
      </trkpt>
      <trkpt lat="45.76907" lon="3.00779">
        <ele>805</ele>
        <time>2020-07-11T13:39:51.062Z</time>
      </trkpt>
      <trkpt lat="45.76906" lon="3.00775">
        <ele>805</ele>
        <time>2020-07-11T13:39:52.062Z</time>
      </trkpt>
      <trkpt lat="45.76905" lon="3.00772">
        <ele>805</ele>
        <time>2020-07-11T13:39:53.062Z</time>
      </trkpt>
      <trkpt lat="45.76904" lon="3.00768">
        <ele>805</ele>
        <time>2020-07-11T13:39:54.062Z</time>
      </trkpt>
      <trkpt lat="45.76903" lon="3.00765">
        <ele>806</ele>
        <time>2020-07-11T13:39:55.062Z</time>
      </trkpt>
      <trkpt lat="45.76902" lon="3.00762">
        <ele>805</ele>
        <time>2020-07-11T13:39:56.062Z</time>
      </trkpt>
      <trkpt lat="45.76901" lon="3.00759">
        <ele>805</ele>
        <time>2020-07-11T13:39:57.062Z</time>
      </trkpt>
      <trkpt lat="45.769" lon="3.00755">
        <ele>806</ele>
        <time>2020-07-11T13:39:58.062Z</time>
      </trkpt>
      <trkpt lat="45.76899" lon="3.00752">
        <ele>806</ele>
        <time>2020-07-11T13:39:59.062Z</time>
      </trkpt>
      <trkpt lat="45.76898" lon="3.00749">
        <ele>807</ele>
        <time>2020-07-11T13:40:00.062Z</time>
      </trkpt>
      <trkpt lat="45.76897" lon="3.00745">
        <ele>807</ele>
        <time>2020-07-11T13:40:01.062Z</time>
      </trkpt>
      <trkpt lat="45.76896" lon="3.00742">
        <ele>807</ele>
        <time>2020-07-11T13:40:02.062Z</time>
      </trkpt>
      <trkpt lat="45.76895" lon="3.00738">
        <ele>806</ele>
        <time>2020-07-11T13:40:03.062Z</time>
      </trkpt>
      <trkpt lat="45.76895" lon="3.00735">
        <ele>806</ele>
        <time>2020-07-11T13:40:04.062Z</time>
      </trkpt>
      <trkpt lat="45.76894" lon="3.00731">
        <ele>805</ele>
        <time>2020-07-11T13:40:05.062Z</time>
      </trkpt>
      <trkpt lat="45.76893" lon="3.00728">
        <ele>805</ele>
        <time>2020-07-11T13:40:06.062Z</time>
      </trkpt>
      <trkpt lat="45.76892" lon="3.00725">
        <ele>806</ele>
        <time>2020-07-11T13:40:07.062Z</time>
      </trkpt>
      <trkpt lat="45.76891" lon="3.00721">
        <ele>807</ele>
        <time>2020-07-11T13:40:08.062Z</time>
      </trkpt>
      <trkpt lat="45.76891" lon="3.00718">
        <ele>807</ele>
        <time>2020-07-11T13:40:09.062Z</time>
      </trkpt>
      <trkpt lat="45.7689" lon="3.00714">
        <ele>807</ele>
        <time>2020-07-11T13:40:10.062Z</time>
      </trkpt>
      <trkpt lat="45.76889" lon="3.0071">
        <ele>808</ele>
        <time>2020-07-11T13:40:11.062Z</time>
      </trkpt>
      <trkpt lat="45.76888" lon="3.00706">
        <ele>807</ele>
        <time>2020-07-11T13:40:12.062Z</time>
      </trkpt>
      <trkpt lat="45.76887" lon="3.00703">
        <ele>808</ele>
        <time>2020-07-11T13:40:13.062Z</time>
      </trkpt>
      <trkpt lat="45.76885" lon="3.00699">
        <ele>808</ele>
        <time>2020-07-11T13:40:14.062Z</time>
      </trkpt>
      <trkpt lat="45.76884" lon="3.00696">
        <ele>808</ele>
        <time>2020-07-11T13:40:15.062Z</time>
      </trkpt>
      <trkpt lat="45.76883" lon="3.00692">
        <ele>808</ele>
        <time>2020-07-11T13:40:16.062Z</time>
      </trkpt>
      <trkpt lat="45.76882" lon="3.00688">
        <ele>808</ele>
        <time>2020-07-11T13:40:17.062Z</time>
      </trkpt>
      <trkpt lat="45.76882" lon="3.00684">
        <ele>807</ele>
        <time>2020-07-11T13:40:18.062Z</time>
      </trkpt>
      <trkpt lat="45.76882" lon="3.0068">
        <ele>807</ele>
        <time>2020-07-11T13:40:19.062Z</time>
      </trkpt>
      <trkpt lat="45.76882" lon="3.00677">
        <ele>807</ele>
        <time>2020-07-11T13:40:20.062Z</time>
      </trkpt>
      <trkpt lat="45.76881" lon="3.00673">
        <ele>807</ele>
        <time>2020-07-11T13:40:21.062Z</time>
      </trkpt>
      <trkpt lat="45.76881" lon="3.00669">
        <ele>807</ele>
        <time>2020-07-11T13:40:22.062Z</time>
      </trkpt>
      <trkpt lat="45.7688" lon="3.00665">
        <ele>807</ele>
        <time>2020-07-11T13:40:23.062Z</time>
      </trkpt>
      <trkpt lat="45.76879" lon="3.00662">
        <ele>807</ele>
        <time>2020-07-11T13:40:24.062Z</time>
      </trkpt>
      <trkpt lat="45.76879" lon="3.00658">
        <ele>807</ele>
        <time>2020-07-11T13:40:25.062Z</time>
      </trkpt>
      <trkpt lat="45.76878" lon="3.00655">
        <ele>807</ele>
        <time>2020-07-11T13:40:26.062Z</time>
      </trkpt>
      <trkpt lat="45.76877" lon="3.00651">
        <ele>807</ele>
        <time>2020-07-11T13:40:27.062Z</time>
      </trkpt>
      <trkpt lat="45.76876" lon="3.00648">
        <ele>807</ele>
        <time>2020-07-11T13:40:28.062Z</time>
      </trkpt>
      <trkpt lat="45.76875" lon="3.00645">
        <ele>808</ele>
        <time>2020-07-11T13:40:29.062Z</time>
      </trkpt>
      <trkpt lat="45.76874" lon="3.00641">
        <ele>808</ele>
        <time>2020-07-11T13:40:30.062Z</time>
      </trkpt>
      <trkpt lat="45.76873" lon="3.00638">
        <ele>808</ele>
        <time>2020-07-11T13:40:31.062Z</time>
      </trkpt>
      <trkpt lat="45.76872" lon="3.00635">
        <ele>809</ele>
        <time>2020-07-11T13:40:32.062Z</time>
      </trkpt>
      <trkpt lat="45.76871" lon="3.00631">
        <ele>808</ele>
        <time>2020-07-11T13:40:33.062Z</time>
      </trkpt>
      <trkpt lat="45.76871" lon="3.00627">
        <ele>808</ele>
        <time>2020-07-11T13:40:34.062Z</time>
      </trkpt>
      <trkpt lat="45.76871" lon="3.00624">
        <ele>808</ele>
        <time>2020-07-11T13:40:35.062Z</time>
      </trkpt>
      <trkpt lat="45.76871" lon="3.0062">
        <ele>808</ele>
        <time>2020-07-11T13:40:36.062Z</time>
      </trkpt>
      <trkpt lat="45.7687" lon="3.00617">
        <ele>808</ele>
        <time>2020-07-11T13:40:37.062Z</time>
      </trkpt>
      <trkpt lat="45.7687" lon="3.00613">
        <ele>808</ele>
        <time>2020-07-11T13:40:38.062Z</time>
      </trkpt>
      <trkpt lat="45.7687" lon="3.00609">
        <ele>808</ele>
        <time>2020-07-11T13:40:39.062Z</time>
      </trkpt>
      <trkpt lat="45.7687" lon="3.00605">
        <ele>808</ele>
        <time>2020-07-11T13:40:40.062Z</time>
      </trkpt>
      <trkpt lat="45.7687" lon="3.00602">
        <ele>808</ele>
        <time>2020-07-11T13:40:41.062Z</time>
      </trkpt>
      <trkpt lat="45.7687" lon="3.00598">
        <ele>808</ele>
        <time>2020-07-11T13:40:42.062Z</time>
      </trkpt>
      <trkpt lat="45.7687" lon="3.00594">
        <ele>809</ele>
        <time>2020-07-11T13:40:43.062Z</time>
      </trkpt>
      <trkpt lat="45.7687" lon="3.0059">
        <ele>810</ele>
        <time>2020-07-11T13:40:44.062Z</time>
      </trkpt>
      <trkpt lat="45.7687" lon="3.00587">
        <ele>810</ele>
        <time>2020-07-11T13:40:45.062Z</time>
      </trkpt>
      <trkpt lat="45.7687" lon="3.00583">
        <ele>809</ele>
        <time>2020-07-11T13:40:46.062Z</time>
      </trkpt>
      <trkpt lat="45.76871" lon="3.00579">
        <ele>810</ele>
        <time>2020-07-11T13:40:47.062Z</time>
      </trkpt>
      <trkpt lat="45.76871" lon="3.00575">
        <ele>810</ele>
        <time>2020-07-11T13:40:48.062Z</time>
      </trkpt>
      <trkpt lat="45.76872" lon="3.00571">
        <ele>810</ele>
        <time>2020-07-11T13:40:49.062Z</time>
      </trkpt>
      <trkpt lat="45.76872" lon="3.00568">
        <ele>810</ele>
        <time>2020-07-11T13:40:50.062Z</time>
      </trkpt>
      <trkpt lat="45.76873" lon="3.00564">
        <ele>811</ele>
        <time>2020-07-11T13:40:51.062Z</time>
      </trkpt>
      <trkpt lat="45.76873" lon="3.0056">
        <ele>810</ele>
        <time>2020-07-11T13:40:52.062Z</time>
      </trkpt>
      <trkpt lat="45.76874" lon="3.00557">
        <ele>810</ele>
        <time>2020-07-11T13:40:53.062Z</time>
      </trkpt>
      <trkpt lat="45.76875" lon="3.00554">
        <ele>811</ele>
        <time>2020-07-11T13:40:54.062Z</time>
      </trkpt>
      <trkpt lat="45.76876" lon="3.00551">
        <ele>811</ele>
        <time>2020-07-11T13:40:55.062Z</time>
      </trkpt>
      <trkpt lat="45.76876" lon="3.00548">
        <ele>812</ele>
        <time>2020-07-11T13:40:56.062Z</time>
      </trkpt>
      <trkpt lat="45.76876" lon="3.00545">
        <ele>813</ele>
        <time>2020-07-11T13:40:57.062Z</time>
      </trkpt>
      <trkpt lat="45.76877" lon="3.00541">
        <ele>813</ele>
        <time>2020-07-11T13:40:58.062Z</time>
      </trkpt>
      <trkpt lat="45.76877" lon="3.00538">
        <ele>814</ele>
        <time>2020-07-11T13:40:59.062Z</time>
      </trkpt>
      <trkpt lat="45.76877" lon="3.00535">
        <ele>814</ele>
        <time>2020-07-11T13:41:00.062Z</time>
      </trkpt>
      <trkpt lat="45.76877" lon="3.00531">
        <ele>814</ele>
        <time>2020-07-11T13:41:01.062Z</time>
      </trkpt>
      <trkpt lat="45.76878" lon="3.00527">
        <ele>815</ele>
        <time>2020-07-11T13:41:02.062Z</time>
      </trkpt>
      <trkpt lat="45.76878" lon="3.00524">
        <ele>814</ele>
        <time>2020-07-11T13:41:03.062Z</time>
      </trkpt>
      <trkpt lat="45.76878" lon="3.0052">
        <ele>816</ele>
        <time>2020-07-11T13:41:04.062Z</time>
      </trkpt>
      <trkpt lat="45.76878" lon="3.00517">
        <ele>817</ele>
        <time>2020-07-11T13:41:05.062Z</time>
      </trkpt>
      <trkpt lat="45.76878" lon="3.00513">
        <ele>818</ele>
        <time>2020-07-11T13:41:06.062Z</time>
      </trkpt>
      <trkpt lat="45.76879" lon="3.0051">
        <ele>819</ele>
        <time>2020-07-11T13:41:07.062Z</time>
      </trkpt>
      <trkpt lat="45.76879" lon="3.00506">
        <ele>821</ele>
        <time>2020-07-11T13:41:08.062Z</time>
      </trkpt>
      <trkpt lat="45.7688" lon="3.00503">
        <ele>821</ele>
        <time>2020-07-11T13:41:09.062Z</time>
      </trkpt>
      <trkpt lat="45.76881" lon="3.00499">
        <ele>821</ele>
        <time>2020-07-11T13:41:10.062Z</time>
      </trkpt>
      <trkpt lat="45.76882" lon="3.00496">
        <ele>821</ele>
        <time>2020-07-11T13:41:11.062Z</time>
      </trkpt>
      <trkpt lat="45.76883" lon="3.00493">
        <ele>821</ele>
        <time>2020-07-11T13:41:12.062Z</time>
      </trkpt>
      <trkpt lat="45.76883" lon="3.00489">
        <ele>821</ele>
        <time>2020-07-11T13:41:13.062Z</time>
      </trkpt>
      <trkpt lat="45.76884" lon="3.00486">
        <ele>822</ele>
        <time>2020-07-11T13:41:14.062Z</time>
      </trkpt>
      <trkpt lat="45.76884" lon="3.00482">
        <ele>822</ele>
        <time>2020-07-11T13:41:15.062Z</time>
      </trkpt>
      <trkpt lat="45.76885" lon="3.00479">
        <ele>822</ele>
        <time>2020-07-11T13:41:16.062Z</time>
      </trkpt>
      <trkpt lat="45.76886" lon="3.00475">
        <ele>822</ele>
        <time>2020-07-11T13:41:17.062Z</time>
      </trkpt>
      <trkpt lat="45.76886" lon="3.00471">
        <ele>821</ele>
        <time>2020-07-11T13:41:18.062Z</time>
      </trkpt>
      <trkpt lat="45.76887" lon="3.00468">
        <ele>823</ele>
        <time>2020-07-11T13:41:19.062Z</time>
      </trkpt>
      <trkpt lat="45.76888" lon="3.00465">
        <ele>824</ele>
        <time>2020-07-11T13:41:20.062Z</time>
      </trkpt>
      <trkpt lat="45.76888" lon="3.00462">
        <ele>824</ele>
        <time>2020-07-11T13:41:21.062Z</time>
      </trkpt>
      <trkpt lat="45.76889" lon="3.00458">
        <ele>825</ele>
        <time>2020-07-11T13:41:22.062Z</time>
      </trkpt>
      <trkpt lat="45.76889" lon="3.00455">
        <ele>824</ele>
        <time>2020-07-11T13:41:23.062Z</time>
      </trkpt>
      <trkpt lat="45.7689" lon="3.00451">
        <ele>824</ele>
        <time>2020-07-11T13:41:24.062Z</time>
      </trkpt>
      <trkpt lat="45.7689" lon="3.00448">
        <ele>825</ele>
        <time>2020-07-11T13:41:25.062Z</time>
      </trkpt>
      <trkpt lat="45.76891" lon="3.00444">
        <ele>825</ele>
        <time>2020-07-11T13:41:26.062Z</time>
      </trkpt>
      <trkpt lat="45.76891" lon="3.00441">
        <ele>825</ele>
        <time>2020-07-11T13:41:27.062Z</time>
      </trkpt>
      <trkpt lat="45.76891" lon="3.00437">
        <ele>825</ele>
        <time>2020-07-11T13:41:28.062Z</time>
      </trkpt>
      <trkpt lat="45.76892" lon="3.00434">
        <ele>825</ele>
        <time>2020-07-11T13:41:29.062Z</time>
      </trkpt>
      <trkpt lat="45.76892" lon="3.0043">
        <ele>826</ele>
        <time>2020-07-11T13:41:30.062Z</time>
      </trkpt>
      <trkpt lat="45.76892" lon="3.00426">
        <ele>825</ele>
        <time>2020-07-11T13:41:31.062Z</time>
      </trkpt>
      <trkpt lat="45.76892" lon="3.00422">
        <ele>826</ele>
        <time>2020-07-11T13:41:32.062Z</time>
      </trkpt>
      <trkpt lat="45.76892" lon="3.00419">
        <ele>826</ele>
        <time>2020-07-11T13:41:33.062Z</time>
      </trkpt>
      <trkpt lat="45.76893" lon="3.00415">
        <ele>826</ele>
        <time>2020-07-11T13:41:34.062Z</time>
      </trkpt>
      <trkpt lat="45.76892" lon="3.00411">
        <ele>825</ele>
        <time>2020-07-11T13:41:35.062Z</time>
      </trkpt>
      <trkpt lat="45.76892" lon="3.00407">
        <ele>824</ele>
        <time>2020-07-11T13:41:36.062Z</time>
      </trkpt>
      <trkpt lat="45.76893" lon="3.00404">
        <ele>823</ele>
        <time>2020-07-11T13:41:37.062Z</time>
      </trkpt>
      <trkpt lat="45.76893" lon="3.004">
        <ele>823</ele>
        <time>2020-07-11T13:41:38.062Z</time>
      </trkpt>
      <trkpt lat="45.76893" lon="3.00396">
        <ele>823</ele>
        <time>2020-07-11T13:41:39.062Z</time>
      </trkpt>
      <trkpt lat="45.76893" lon="3.00392">
        <ele>823</ele>
        <time>2020-07-11T13:41:40.062Z</time>
      </trkpt>
      <trkpt lat="45.76893" lon="3.00389">
        <ele>824</ele>
        <time>2020-07-11T13:41:41.062Z</time>
      </trkpt>
      <trkpt lat="45.76893" lon="3.00385">
        <ele>824</ele>
        <time>2020-07-11T13:41:42.062Z</time>
      </trkpt>
      <trkpt lat="45.76892" lon="3.00381">
        <ele>823</ele>
        <time>2020-07-11T13:41:43.062Z</time>
      </trkpt>
      <trkpt lat="45.76892" lon="3.00378">
        <ele>823</ele>
        <time>2020-07-11T13:41:44.062Z</time>
      </trkpt>
      <trkpt lat="45.76891" lon="3.00374">
        <ele>824</ele>
        <time>2020-07-11T13:41:45.062Z</time>
      </trkpt>
      <trkpt lat="45.7689" lon="3.00371">
        <ele>824</ele>
        <time>2020-07-11T13:41:46.062Z</time>
      </trkpt>
      <trkpt lat="45.76889" lon="3.00367">
        <ele>825</ele>
        <time>2020-07-11T13:41:47.062Z</time>
      </trkpt>
      <trkpt lat="45.76889" lon="3.00364">
        <ele>825</ele>
        <time>2020-07-11T13:41:48.062Z</time>
      </trkpt>
      <trkpt lat="45.76888" lon="3.0036">
        <ele>824</ele>
        <time>2020-07-11T13:41:49.062Z</time>
      </trkpt>
      <trkpt lat="45.76888" lon="3.00356">
        <ele>824</ele>
        <time>2020-07-11T13:41:50.062Z</time>
      </trkpt>
      <trkpt lat="45.76887" lon="3.00352">
        <ele>824</ele>
        <time>2020-07-11T13:41:51.062Z</time>
      </trkpt>
      <trkpt lat="45.76887" lon="3.00349">
        <ele>824</ele>
        <time>2020-07-11T13:41:52.062Z</time>
      </trkpt>
      <trkpt lat="45.76886" lon="3.00345">
        <ele>824</ele>
        <time>2020-07-11T13:41:53.062Z</time>
      </trkpt>
      <trkpt lat="45.76886" lon="3.00342">
        <ele>824</ele>
        <time>2020-07-11T13:41:54.062Z</time>
      </trkpt>
      <trkpt lat="45.76885" lon="3.00338">
        <ele>825</ele>
        <time>2020-07-11T13:41:55.062Z</time>
      </trkpt>
      <trkpt lat="45.76884" lon="3.00335">
        <ele>826</ele>
        <time>2020-07-11T13:41:56.062Z</time>
      </trkpt>
      <trkpt lat="45.76883" lon="3.00331">
        <ele>826</ele>
        <time>2020-07-11T13:41:57.062Z</time>
      </trkpt>
      <trkpt lat="45.76881" lon="3.00328">
        <ele>827</ele>
        <time>2020-07-11T13:41:58.062Z</time>
      </trkpt>
      <trkpt lat="45.7688" lon="3.00325">
        <ele>827</ele>
        <time>2020-07-11T13:41:59.062Z</time>
      </trkpt>
      <trkpt lat="45.76879" lon="3.00321">
        <ele>827</ele>
        <time>2020-07-11T13:42:00.062Z</time>
      </trkpt>
      <trkpt lat="45.76878" lon="3.00318">
        <ele>827</ele>
        <time>2020-07-11T13:42:01.062Z</time>
      </trkpt>
      <trkpt lat="45.76877" lon="3.00315">
        <ele>827</ele>
        <time>2020-07-11T13:42:02.062Z</time>
      </trkpt>
      <trkpt lat="45.76876" lon="3.00312">
        <ele>827</ele>
        <time>2020-07-11T13:42:03.062Z</time>
      </trkpt>
      <trkpt lat="45.76874" lon="3.00308">
        <ele>827</ele>
        <time>2020-07-11T13:42:04.062Z</time>
      </trkpt>
      <trkpt lat="45.76873" lon="3.00305">
        <ele>828</ele>
        <time>2020-07-11T13:42:05.062Z</time>
      </trkpt>
      <trkpt lat="45.76871" lon="3.00302">
        <ele>827</ele>
        <time>2020-07-11T13:42:06.062Z</time>
      </trkpt>
      <trkpt lat="45.7687" lon="3.00299">
        <ele>827</ele>
        <time>2020-07-11T13:42:07.062Z</time>
      </trkpt>
      <trkpt lat="45.76869" lon="3.00295">
        <ele>827</ele>
        <time>2020-07-11T13:42:08.062Z</time>
      </trkpt>
      <trkpt lat="45.76867" lon="3.00292">
        <ele>826</ele>
        <time>2020-07-11T13:42:09.062Z</time>
      </trkpt>
      <trkpt lat="45.76866" lon="3.00289">
        <ele>826</ele>
        <time>2020-07-11T13:42:10.062Z</time>
      </trkpt>
      <trkpt lat="45.76864" lon="3.00286">
        <ele>826</ele>
        <time>2020-07-11T13:42:11.062Z</time>
      </trkpt>
      <trkpt lat="45.76862" lon="3.00284">
        <ele>826</ele>
        <time>2020-07-11T13:42:12.062Z</time>
      </trkpt>
      <trkpt lat="45.7686" lon="3.00281">
        <ele>826</ele>
        <time>2020-07-11T13:42:13.062Z</time>
      </trkpt>
      <trkpt lat="45.76858" lon="3.00278">
        <ele>826</ele>
        <time>2020-07-11T13:42:14.062Z</time>
      </trkpt>
      <trkpt lat="45.76856" lon="3.00274">
        <ele>826</ele>
        <time>2020-07-11T13:42:15.062Z</time>
      </trkpt>
      <trkpt lat="45.76854" lon="3.00271">
        <ele>827</ele>
        <time>2020-07-11T13:42:16.062Z</time>
      </trkpt>
      <trkpt lat="45.76853" lon="3.00266">
        <ele>828</ele>
        <time>2020-07-11T13:42:17.062Z</time>
      </trkpt>
      <trkpt lat="45.76852" lon="3.00262">
        <ele>828</ele>
        <time>2020-07-11T13:42:18.062Z</time>
      </trkpt>
      <trkpt lat="45.76851" lon="3.00258">
        <ele>827</ele>
        <time>2020-07-11T13:42:19.062Z</time>
      </trkpt>
      <trkpt lat="45.76851" lon="3.00254">
        <ele>827</ele>
        <time>2020-07-11T13:42:20.062Z</time>
      </trkpt>
      <trkpt lat="45.76851" lon="3.00249">
        <ele>827</ele>
        <time>2020-07-11T13:42:21.062Z</time>
      </trkpt>
      <trkpt lat="45.76851" lon="3.00245">
        <ele>828</ele>
        <time>2020-07-11T13:42:22.062Z</time>
      </trkpt>
      <trkpt lat="45.76851" lon="3.00241">
        <ele>829</ele>
        <time>2020-07-11T13:42:23.062Z</time>
      </trkpt>
      <trkpt lat="45.76852" lon="3.00237">
        <ele>829</ele>
        <time>2020-07-11T13:42:24.062Z</time>
      </trkpt>
      <trkpt lat="45.76853" lon="3.00233">
        <ele>829</ele>
        <time>2020-07-11T13:42:25.062Z</time>
      </trkpt>
      <trkpt lat="45.76855" lon="3.00229">
        <ele>829</ele>
        <time>2020-07-11T13:42:26.062Z</time>
      </trkpt>
      <trkpt lat="45.76856" lon="3.00226">
        <ele>830</ele>
        <time>2020-07-11T13:42:27.062Z</time>
      </trkpt>
      <trkpt lat="45.76858" lon="3.00223">
        <ele>830</ele>
        <time>2020-07-11T13:42:28.062Z</time>
      </trkpt>
      <trkpt lat="45.76859" lon="3.0022">
        <ele>831</ele>
        <time>2020-07-11T13:42:29.062Z</time>
      </trkpt>
      <trkpt lat="45.76861" lon="3.00217">
        <ele>830</ele>
        <time>2020-07-11T13:42:30.062Z</time>
      </trkpt>
      <trkpt lat="45.76863" lon="3.00215">
        <ele>831</ele>
        <time>2020-07-11T13:42:31.062Z</time>
      </trkpt>
      <trkpt lat="45.76866" lon="3.00212">
        <ele>831</ele>
        <time>2020-07-11T13:42:32.062Z</time>
      </trkpt>
      <trkpt lat="45.76867" lon="3.0021">
        <ele>831</ele>
        <time>2020-07-11T13:42:33.062Z</time>
      </trkpt>
      <trkpt lat="45.76868" lon="3.00207">
        <ele>831</ele>
        <time>2020-07-11T13:42:34.062Z</time>
      </trkpt>
      <trkpt lat="45.76868" lon="3.00203">
        <ele>831</ele>
        <time>2020-07-11T13:42:35.062Z</time>
      </trkpt>
      <trkpt lat="45.76868" lon="3.002">
        <ele>831</ele>
        <time>2020-07-11T13:42:36.062Z</time>
      </trkpt>
      <trkpt lat="45.76867" lon="3.00196">
        <ele>830</ele>
        <time>2020-07-11T13:42:37.062Z</time>
      </trkpt>
      <trkpt lat="45.76866" lon="3.00193">
        <ele>830</ele>
        <time>2020-07-11T13:42:38.062Z</time>
      </trkpt>
      <trkpt lat="45.76865" lon="3.0019">
        <ele>830</ele>
        <time>2020-07-11T13:42:39.062Z</time>
      </trkpt>
      <trkpt lat="45.76864" lon="3.00187">
        <ele>829</ele>
        <time>2020-07-11T13:42:40.062Z</time>
      </trkpt>
      <trkpt lat="45.76863" lon="3.00184">
        <ele>829</ele>
        <time>2020-07-11T13:42:41.062Z</time>
      </trkpt>
      <trkpt lat="45.76862" lon="3.00181">
        <ele>829</ele>
        <time>2020-07-11T13:42:42.062Z</time>
      </trkpt>
      <trkpt lat="45.7686" lon="3.00178">
        <ele>828</ele>
        <time>2020-07-11T13:42:43.062Z</time>
      </trkpt>
      <trkpt lat="45.76859" lon="3.00175">
        <ele>828</ele>
        <time>2020-07-11T13:42:44.062Z</time>
      </trkpt>
      <trkpt lat="45.76858" lon="3.00171">
        <ele>828</ele>
        <time>2020-07-11T13:42:45.062Z</time>
      </trkpt>
      <trkpt lat="45.76856" lon="3.00168">
        <ele>828</ele>
        <time>2020-07-11T13:42:46.062Z</time>
      </trkpt>
      <trkpt lat="45.76855" lon="3.00165">
        <ele>828</ele>
        <time>2020-07-11T13:42:47.062Z</time>
      </trkpt>
      <trkpt lat="45.76854" lon="3.00162">
        <ele>827</ele>
        <time>2020-07-11T13:42:48.062Z</time>
      </trkpt>
      <trkpt lat="45.76852" lon="3.00159">
        <ele>827</ele>
        <time>2020-07-11T13:42:49.062Z</time>
      </trkpt>
      <trkpt lat="45.76851" lon="3.00156">
        <ele>827</ele>
        <time>2020-07-11T13:42:50.062Z</time>
      </trkpt>
      <trkpt lat="45.7685" lon="3.00152">
        <ele>827</ele>
        <time>2020-07-11T13:42:51.062Z</time>
      </trkpt>
      <trkpt lat="45.76851" lon="3.00148">
        <ele>826</ele>
        <time>2020-07-11T13:42:52.062Z</time>
      </trkpt>
      <trkpt lat="45.76852" lon="3.00144">
        <ele>826</ele>
        <time>2020-07-11T13:42:53.062Z</time>
      </trkpt>
      <trkpt lat="45.76855" lon="3.00141">
        <ele>826</ele>
        <time>2020-07-11T13:42:54.062Z</time>
      </trkpt>
      <trkpt lat="45.76856" lon="3.00139">
        <ele>826</ele>
        <time>2020-07-11T13:42:55.062Z</time>
      </trkpt>
      <trkpt lat="45.76858" lon="3.00136">
        <ele>827</ele>
        <time>2020-07-11T13:42:56.062Z</time>
      </trkpt>
      <trkpt lat="45.7686" lon="3.00134">
        <ele>827</ele>
        <time>2020-07-11T13:42:57.062Z</time>
      </trkpt>
      <trkpt lat="45.76861" lon="3.00131">
        <ele>827</ele>
        <time>2020-07-11T13:42:58.062Z</time>
      </trkpt>
      <trkpt lat="45.76863" lon="3.00129">
        <ele>827</ele>
        <time>2020-07-11T13:42:59.062Z</time>
      </trkpt>
      <trkpt lat="45.76864" lon="3.00126">
        <ele>826</ele>
        <time>2020-07-11T13:43:00.062Z</time>
      </trkpt>
      <trkpt lat="45.76864" lon="3.00123">
        <ele>826</ele>
        <time>2020-07-11T13:43:01.062Z</time>
      </trkpt>
      <trkpt lat="45.76865" lon="3.0012">
        <ele>826</ele>
        <time>2020-07-11T13:43:02.062Z</time>
      </trkpt>
      <trkpt lat="45.76866" lon="3.00117">
        <ele>827</ele>
        <time>2020-07-11T13:43:03.062Z</time>
      </trkpt>
      <trkpt lat="45.76867" lon="3.00113">
        <ele>827</ele>
        <time>2020-07-11T13:43:04.062Z</time>
      </trkpt>
      <trkpt lat="45.76867" lon="3.0011">
        <ele>826</ele>
        <time>2020-07-11T13:43:05.062Z</time>
      </trkpt>
      <trkpt lat="45.76867" lon="3.00107">
        <ele>827</ele>
        <time>2020-07-11T13:43:06.062Z</time>
      </trkpt>
      <trkpt lat="45.76867" lon="3.00103">
        <ele>827</ele>
        <time>2020-07-11T13:43:07.062Z</time>
      </trkpt>
      <trkpt lat="45.76867" lon="3.001">
        <ele>827</ele>
        <time>2020-07-11T13:43:08.062Z</time>
      </trkpt>
      <trkpt lat="45.76867" lon="3.00096">
        <ele>826</ele>
        <time>2020-07-11T13:43:09.062Z</time>
      </trkpt>
      <trkpt lat="45.76867" lon="3.00093">
        <ele>826</ele>
        <time>2020-07-11T13:43:10.062Z</time>
      </trkpt>
      <trkpt lat="45.76866" lon="3.00089">
        <ele>826</ele>
        <time>2020-07-11T13:43:11.062Z</time>
      </trkpt>
      <trkpt lat="45.76865" lon="3.00085">
        <ele>826</ele>
        <time>2020-07-11T13:43:12.062Z</time>
      </trkpt>
      <trkpt lat="45.76865" lon="3.00081">
        <ele>826</ele>
        <time>2020-07-11T13:43:13.062Z</time>
      </trkpt>
      <trkpt lat="45.76864" lon="3.00078">
        <ele>826</ele>
        <time>2020-07-11T13:43:14.062Z</time>
      </trkpt>
      <trkpt lat="45.76864" lon="3.00074">
        <ele>826</ele>
        <time>2020-07-11T13:43:15.062Z</time>
      </trkpt>
      <trkpt lat="45.76864" lon="3.00071">
        <ele>826</ele>
        <time>2020-07-11T13:43:16.062Z</time>
      </trkpt>
      <trkpt lat="45.76864" lon="3.00067">
        <ele>827</ele>
        <time>2020-07-11T13:43:17.062Z</time>
      </trkpt>
      <trkpt lat="45.76864" lon="3.00064">
        <ele>827</ele>
        <time>2020-07-11T13:43:18.062Z</time>
      </trkpt>
      <trkpt lat="45.76865" lon="3.0006">
        <ele>827</ele>
        <time>2020-07-11T13:43:19.062Z</time>
      </trkpt>
      <trkpt lat="45.76865" lon="3.00057">
        <ele>827</ele>
        <time>2020-07-11T13:43:20.062Z</time>
      </trkpt>
      <trkpt lat="45.76865" lon="3.00053">
        <ele>828</ele>
        <time>2020-07-11T13:43:21.062Z</time>
      </trkpt>
      <trkpt lat="45.76865" lon="3.00049">
        <ele>828</ele>
        <time>2020-07-11T13:43:22.062Z</time>
      </trkpt>
      <trkpt lat="45.76866" lon="3.00046">
        <ele>828</ele>
        <time>2020-07-11T13:43:23.062Z</time>
      </trkpt>
      <trkpt lat="45.76866" lon="3.00042">
        <ele>828</ele>
        <time>2020-07-11T13:43:24.062Z</time>
      </trkpt>
      <trkpt lat="45.76866" lon="3.00038">
        <ele>829</ele>
        <time>2020-07-11T13:43:25.062Z</time>
      </trkpt>
      <trkpt lat="45.76867" lon="3.00035">
        <ele>829</ele>
        <time>2020-07-11T13:43:26.062Z</time>
      </trkpt>
      <trkpt lat="45.76867" lon="3.00031">
        <ele>828</ele>
        <time>2020-07-11T13:43:27.062Z</time>
      </trkpt>
      <trkpt lat="45.76867" lon="3.00028">
        <ele>829</ele>
        <time>2020-07-11T13:43:28.062Z</time>
      </trkpt>
      <trkpt lat="45.76867" lon="3.00025">
        <ele>829</ele>
        <time>2020-07-11T13:43:29.062Z</time>
      </trkpt>
      <trkpt lat="45.76867" lon="3.00021">
        <ele>829</ele>
        <time>2020-07-11T13:43:30.062Z</time>
      </trkpt>
      <trkpt lat="45.76867" lon="3.00018">
        <ele>828</ele>
        <time>2020-07-11T13:43:31.062Z</time>
      </trkpt>
      <trkpt lat="45.76867" lon="3.00014">
        <ele>828</ele>
        <time>2020-07-11T13:43:32.062Z</time>
      </trkpt>
      <trkpt lat="45.76867" lon="3.00011">
        <ele>829</ele>
        <time>2020-07-11T13:43:33.062Z</time>
      </trkpt>
      <trkpt lat="45.76867" lon="3.00007">
        <ele>829</ele>
        <time>2020-07-11T13:43:34.062Z</time>
      </trkpt>
      <trkpt lat="45.76866" lon="3.00003">
        <ele>829</ele>
        <time>2020-07-11T13:43:35.062Z</time>
      </trkpt>
      <trkpt lat="45.76865" lon="3">
        <ele>829</ele>
        <time>2020-07-11T13:43:36.062Z</time>
      </trkpt>
      <trkpt lat="45.76864" lon="2.99997">
        <ele>828</ele>
        <time>2020-07-11T13:43:37.062Z</time>
      </trkpt>
      <trkpt lat="45.76864" lon="2.99994">
        <ele>829</ele>
        <time>2020-07-11T13:43:38.062Z</time>
      </trkpt>
      <trkpt lat="45.76863" lon="2.9999">
        <ele>828</ele>
        <time>2020-07-11T13:43:39.062Z</time>
      </trkpt>
      <trkpt lat="45.76863" lon="2.99987">
        <ele>829</ele>
        <time>2020-07-11T13:43:40.062Z</time>
      </trkpt>
      <trkpt lat="45.76863" lon="2.99983">
        <ele>829</ele>
        <time>2020-07-11T13:43:41.062Z</time>
      </trkpt>
      <trkpt lat="45.76865" lon="2.9998">
        <ele>828</ele>
        <time>2020-07-11T13:43:42.062Z</time>
      </trkpt>
      <trkpt lat="45.76867" lon="2.99977">
        <ele>828</ele>
        <time>2020-07-11T13:43:43.062Z</time>
      </trkpt>
      <trkpt lat="45.76869" lon="2.99975">
        <ele>828</ele>
        <time>2020-07-11T13:43:44.062Z</time>
      </trkpt>
      <trkpt lat="45.76871" lon="2.99973">
        <ele>828</ele>
        <time>2020-07-11T13:43:45.062Z</time>
      </trkpt>
      <trkpt lat="45.76873" lon="2.9997">
        <ele>828</ele>
        <time>2020-07-11T13:43:46.062Z</time>
      </trkpt>
      <trkpt lat="45.76874" lon="2.99968">
        <ele>829</ele>
        <time>2020-07-11T13:43:47.062Z</time>
      </trkpt>
      <trkpt lat="45.76876" lon="2.99965">
        <ele>829</ele>
        <time>2020-07-11T13:43:48.062Z</time>
      </trkpt>
      <trkpt lat="45.76878" lon="2.99963">
        <ele>830</ele>
        <time>2020-07-11T13:43:49.062Z</time>
      </trkpt>
      <trkpt lat="45.7688" lon="2.99961">
        <ele>830</ele>
        <time>2020-07-11T13:43:50.062Z</time>
      </trkpt>
      <trkpt lat="45.76882" lon="2.99959">
        <ele>830</ele>
        <time>2020-07-11T13:43:51.062Z</time>
      </trkpt>
      <trkpt lat="45.76884" lon="2.99957">
        <ele>830</ele>
        <time>2020-07-11T13:43:52.062Z</time>
      </trkpt>
      <trkpt lat="45.76885" lon="2.99954">
        <ele>831</ele>
        <time>2020-07-11T13:43:53.062Z</time>
      </trkpt>
      <trkpt lat="45.76887" lon="2.99952">
        <ele>831</ele>
        <time>2020-07-11T13:43:54.062Z</time>
      </trkpt>
      <trkpt lat="45.76889" lon="2.9995">
        <ele>831</ele>
        <time>2020-07-11T13:43:55.062Z</time>
      </trkpt>
      <trkpt lat="45.76891" lon="2.99948">
        <ele>831</ele>
        <time>2020-07-11T13:43:56.062Z</time>
      </trkpt>
      <trkpt lat="45.76893" lon="2.99946">
        <ele>832</ele>
        <time>2020-07-11T13:43:57.062Z</time>
      </trkpt>
      <trkpt lat="45.76895" lon="2.99944">
        <ele>832</ele>
        <time>2020-07-11T13:43:58.062Z</time>
      </trkpt>
      <trkpt lat="45.76897" lon="2.99941">
        <ele>832</ele>
        <time>2020-07-11T13:43:59.062Z</time>
      </trkpt>
      <trkpt lat="45.76899" lon="2.99939">
        <ele>833</ele>
        <time>2020-07-11T13:44:00.062Z</time>
      </trkpt>
      <trkpt lat="45.76901" lon="2.99937">
        <ele>833</ele>
        <time>2020-07-11T13:44:01.062Z</time>
      </trkpt>
      <trkpt lat="45.76903" lon="2.99935">
        <ele>834</ele>
        <time>2020-07-11T13:44:02.062Z</time>
      </trkpt>
      <trkpt lat="45.76905" lon="2.99933">
        <ele>834</ele>
        <time>2020-07-11T13:44:03.062Z</time>
      </trkpt>
      <trkpt lat="45.76907" lon="2.99931">
        <ele>834</ele>
        <time>2020-07-11T13:44:04.062Z</time>
      </trkpt>
      <trkpt lat="45.76909" lon="2.99929">
        <ele>834</ele>
        <time>2020-07-11T13:44:05.062Z</time>
      </trkpt>
      <trkpt lat="45.76911" lon="2.99928">
        <ele>834</ele>
        <time>2020-07-11T13:44:06.062Z</time>
      </trkpt>
      <trkpt lat="45.76913" lon="2.99926">
        <ele>834</ele>
        <time>2020-07-11T13:44:07.062Z</time>
      </trkpt>
      <trkpt lat="45.76915" lon="2.99923">
        <ele>835</ele>
        <time>2020-07-11T13:44:08.062Z</time>
      </trkpt>
      <trkpt lat="45.76918" lon="2.99921">
        <ele>834</ele>
        <time>2020-07-11T13:44:09.062Z</time>
      </trkpt>
      <trkpt lat="45.7692" lon="2.9992">
        <ele>835</ele>
        <time>2020-07-11T13:44:10.062Z</time>
      </trkpt>
      <trkpt lat="45.76922" lon="2.99918">
        <ele>837</ele>
        <time>2020-07-11T13:44:11.062Z</time>
      </trkpt>
      <trkpt lat="45.76925" lon="2.99916">
        <ele>837</ele>
        <time>2020-07-11T13:44:12.062Z</time>
      </trkpt>
      <trkpt lat="45.76927" lon="2.99914">
        <ele>837</ele>
        <time>2020-07-11T13:44:13.062Z</time>
      </trkpt>
      <trkpt lat="45.76929" lon="2.99912">
        <ele>837</ele>
        <time>2020-07-11T13:44:14.062Z</time>
      </trkpt>
      <trkpt lat="45.76931" lon="2.9991">
        <ele>838</ele>
        <time>2020-07-11T13:44:15.062Z</time>
      </trkpt>
      <trkpt lat="45.76933" lon="2.99907">
        <ele>838</ele>
        <time>2020-07-11T13:44:16.062Z</time>
      </trkpt>
      <trkpt lat="45.76935" lon="2.99905">
        <ele>838</ele>
        <time>2020-07-11T13:44:17.062Z</time>
      </trkpt>
      <trkpt lat="45.76937" lon="2.99902">
        <ele>838</ele>
        <time>2020-07-11T13:44:18.062Z</time>
      </trkpt>
      <trkpt lat="45.76939" lon="2.999">
        <ele>839</ele>
        <time>2020-07-11T13:44:19.062Z</time>
      </trkpt>
      <trkpt lat="45.7694" lon="2.99897">
        <ele>840</ele>
        <time>2020-07-11T13:44:20.062Z</time>
      </trkpt>
      <trkpt lat="45.76942" lon="2.99894">
        <ele>840</ele>
        <time>2020-07-11T13:44:21.062Z</time>
      </trkpt>
      <trkpt lat="45.76943" lon="2.9989">
        <ele>840</ele>
        <time>2020-07-11T13:44:22.062Z</time>
      </trkpt>
      <trkpt lat="45.76945" lon="2.99887">
        <ele>840</ele>
        <time>2020-07-11T13:44:23.062Z</time>
      </trkpt>
      <trkpt lat="45.76946" lon="2.99883">
        <ele>840</ele>
        <time>2020-07-11T13:44:24.062Z</time>
      </trkpt>
      <trkpt lat="45.76947" lon="2.9988">
        <ele>841</ele>
        <time>2020-07-11T13:44:25.062Z</time>
      </trkpt>
      <trkpt lat="45.76947" lon="2.99876">
        <ele>841</ele>
        <time>2020-07-11T13:44:26.062Z</time>
      </trkpt>
      <trkpt lat="45.76948" lon="2.99872">
        <ele>841</ele>
        <time>2020-07-11T13:44:27.062Z</time>
      </trkpt>
      <trkpt lat="45.76949" lon="2.99869">
        <ele>841</ele>
        <time>2020-07-11T13:44:28.062Z</time>
      </trkpt>
      <trkpt lat="45.7695" lon="2.99866">
        <ele>841</ele>
        <time>2020-07-11T13:44:29.062Z</time>
      </trkpt>
      <trkpt lat="45.76951" lon="2.99862">
        <ele>841</ele>
        <time>2020-07-11T13:44:30.062Z</time>
      </trkpt>
      <trkpt lat="45.76952" lon="2.99859">
        <ele>842</ele>
        <time>2020-07-11T13:44:31.062Z</time>
      </trkpt>
      <trkpt lat="45.76953" lon="2.99855">
        <ele>842</ele>
        <time>2020-07-11T13:44:32.062Z</time>
      </trkpt>
      <trkpt lat="45.76954" lon="2.99852">
        <ele>842</ele>
        <time>2020-07-11T13:44:33.062Z</time>
      </trkpt>
      <trkpt lat="45.76955" lon="2.99848">
        <ele>841</ele>
        <time>2020-07-11T13:44:34.062Z</time>
      </trkpt>
      <trkpt lat="45.76957" lon="2.99845">
        <ele>841</ele>
        <time>2020-07-11T13:44:35.062Z</time>
      </trkpt>
      <trkpt lat="45.76958" lon="2.99841">
        <ele>841</ele>
        <time>2020-07-11T13:44:36.062Z</time>
      </trkpt>
      <trkpt lat="45.76959" lon="2.99838">
        <ele>841</ele>
        <time>2020-07-11T13:44:37.062Z</time>
      </trkpt>
      <trkpt lat="45.7696" lon="2.99834">
        <ele>841</ele>
        <time>2020-07-11T13:44:38.062Z</time>
      </trkpt>
      <trkpt lat="45.76961" lon="2.99831">
        <ele>841</ele>
        <time>2020-07-11T13:44:39.062Z</time>
      </trkpt>
      <trkpt lat="45.76963" lon="2.99827">
        <ele>842</ele>
        <time>2020-07-11T13:44:40.062Z</time>
      </trkpt>
      <trkpt lat="45.76964" lon="2.99824">
        <ele>842</ele>
        <time>2020-07-11T13:44:41.062Z</time>
      </trkpt>
      <trkpt lat="45.76965" lon="2.99821">
        <ele>842</ele>
        <time>2020-07-11T13:44:42.062Z</time>
      </trkpt>
      <trkpt lat="45.76966" lon="2.99817">
        <ele>841</ele>
        <time>2020-07-11T13:44:43.062Z</time>
      </trkpt>
      <trkpt lat="45.76967" lon="2.99814">
        <ele>841</ele>
        <time>2020-07-11T13:44:44.062Z</time>
      </trkpt>
      <trkpt lat="45.76968" lon="2.99811">
        <ele>841</ele>
        <time>2020-07-11T13:44:45.062Z</time>
      </trkpt>
      <trkpt lat="45.76969" lon="2.99807">
        <ele>841</ele>
        <time>2020-07-11T13:44:46.062Z</time>
      </trkpt>
      <trkpt lat="45.7697" lon="2.99804">
        <ele>841</ele>
        <time>2020-07-11T13:44:47.062Z</time>
      </trkpt>
      <trkpt lat="45.76971" lon="2.99801">
        <ele>841</ele>
        <time>2020-07-11T13:44:48.062Z</time>
      </trkpt>
      <trkpt lat="45.76973" lon="2.99798">
        <ele>841</ele>
        <time>2020-07-11T13:44:49.062Z</time>
      </trkpt>
      <trkpt lat="45.76974" lon="2.99795">
        <ele>841</ele>
        <time>2020-07-11T13:44:50.062Z</time>
      </trkpt>
      <trkpt lat="45.76975" lon="2.99792">
        <ele>841</ele>
        <time>2020-07-11T13:44:51.062Z</time>
      </trkpt>
      <trkpt lat="45.76977" lon="2.99789">
        <ele>841</ele>
        <time>2020-07-11T13:44:52.062Z</time>
      </trkpt>
      <trkpt lat="45.76979" lon="2.99787">
        <ele>842</ele>
        <time>2020-07-11T13:44:53.062Z</time>
      </trkpt>
      <trkpt lat="45.76981" lon="2.99784">
        <ele>842</ele>
        <time>2020-07-11T13:44:54.062Z</time>
      </trkpt>
      <trkpt lat="45.76983" lon="2.99782">
        <ele>842</ele>
        <time>2020-07-11T13:44:55.062Z</time>
      </trkpt>
      <trkpt lat="45.76984" lon="2.99779">
        <ele>843</ele>
        <time>2020-07-11T13:44:56.062Z</time>
      </trkpt>
      <trkpt lat="45.76986" lon="2.99777">
        <ele>843</ele>
        <time>2020-07-11T13:44:57.062Z</time>
      </trkpt>
      <trkpt lat="45.76988" lon="2.99774">
        <ele>843</ele>
        <time>2020-07-11T13:44:58.062Z</time>
      </trkpt>
      <trkpt lat="45.7699" lon="2.99772">
        <ele>843</ele>
        <time>2020-07-11T13:44:59.062Z</time>
      </trkpt>
      <trkpt lat="45.76992" lon="2.99769">
        <ele>843</ele>
        <time>2020-07-11T13:45:00.062Z</time>
      </trkpt>
      <trkpt lat="45.76994" lon="2.99767">
        <ele>843</ele>
        <time>2020-07-11T13:45:01.062Z</time>
      </trkpt>
      <trkpt lat="45.76995" lon="2.99764">
        <ele>842</ele>
        <time>2020-07-11T13:45:02.062Z</time>
      </trkpt>
      <trkpt lat="45.76997" lon="2.99762">
        <ele>842</ele>
        <time>2020-07-11T13:45:03.062Z</time>
      </trkpt>
      <trkpt lat="45.76999" lon="2.99759">
        <ele>841</ele>
        <time>2020-07-11T13:45:04.062Z</time>
      </trkpt>
      <trkpt lat="45.77001" lon="2.99757">
        <ele>841</ele>
        <time>2020-07-11T13:45:05.062Z</time>
      </trkpt>
      <trkpt lat="45.77003" lon="2.99754">
        <ele>840</ele>
        <time>2020-07-11T13:45:06.062Z</time>
      </trkpt>
      <trkpt lat="45.77005" lon="2.99752">
        <ele>840</ele>
        <time>2020-07-11T13:45:07.062Z</time>
      </trkpt>
      <trkpt lat="45.77006" lon="2.99749">
        <ele>840</ele>
        <time>2020-07-11T13:45:08.062Z</time>
      </trkpt>
      <trkpt lat="45.77008" lon="2.99746">
        <ele>841</ele>
        <time>2020-07-11T13:45:09.062Z</time>
      </trkpt>
      <trkpt lat="45.77009" lon="2.99742">
        <ele>841</ele>
        <time>2020-07-11T13:45:10.062Z</time>
      </trkpt>
      <trkpt lat="45.77011" lon="2.99739">
        <ele>840</ele>
        <time>2020-07-11T13:45:11.062Z</time>
      </trkpt>
      <trkpt lat="45.77012" lon="2.99735">
        <ele>840</ele>
        <time>2020-07-11T13:45:12.062Z</time>
      </trkpt>
      <trkpt lat="45.77014" lon="2.99732">
        <ele>840</ele>
        <time>2020-07-11T13:45:13.062Z</time>
      </trkpt>
      <trkpt lat="45.77015" lon="2.99729">
        <ele>841</ele>
        <time>2020-07-11T13:45:14.062Z</time>
      </trkpt>
      <trkpt lat="45.77016" lon="2.99726">
        <ele>841</ele>
        <time>2020-07-11T13:45:15.062Z</time>
      </trkpt>
      <trkpt lat="45.77017" lon="2.99723">
        <ele>841</ele>
        <time>2020-07-11T13:45:16.062Z</time>
      </trkpt>
      <trkpt lat="45.77019" lon="2.99719">
        <ele>841</ele>
        <time>2020-07-11T13:45:17.062Z</time>
      </trkpt>
      <trkpt lat="45.7702" lon="2.99716">
        <ele>841</ele>
        <time>2020-07-11T13:45:18.062Z</time>
      </trkpt>
      <trkpt lat="45.77021" lon="2.99713">
        <ele>841</ele>
        <time>2020-07-11T13:45:19.062Z</time>
      </trkpt>
      <trkpt lat="45.77022" lon="2.9971">
        <ele>840</ele>
        <time>2020-07-11T13:45:20.062Z</time>
      </trkpt>
      <trkpt lat="45.77023" lon="2.99706">
        <ele>840</ele>
        <time>2020-07-11T13:45:21.062Z</time>
      </trkpt>
      <trkpt lat="45.77025" lon="2.99703">
        <ele>840</ele>
        <time>2020-07-11T13:45:22.062Z</time>
      </trkpt>
      <trkpt lat="45.77027" lon="2.997">
        <ele>839</ele>
        <time>2020-07-11T13:45:23.062Z</time>
      </trkpt>
      <trkpt lat="45.77029" lon="2.99698">
        <ele>837</ele>
        <time>2020-07-11T13:45:24.062Z</time>
      </trkpt>
      <trkpt lat="45.77031" lon="2.99696">
        <ele>837</ele>
        <time>2020-07-11T13:45:25.062Z</time>
      </trkpt>
      <trkpt lat="45.77033" lon="2.99693">
        <ele>836</ele>
        <time>2020-07-11T13:45:26.062Z</time>
      </trkpt>
      <trkpt lat="45.77035" lon="2.99691">
        <ele>836</ele>
        <time>2020-07-11T13:45:27.062Z</time>
      </trkpt>
      <trkpt lat="45.77036" lon="2.99689">
        <ele>836</ele>
        <time>2020-07-11T13:45:28.062Z</time>
      </trkpt>
      <trkpt lat="45.77037" lon="2.99686">
        <ele>836</ele>
        <time>2020-07-11T13:45:29.062Z</time>
      </trkpt>
      <trkpt lat="45.77038" lon="2.99683">
        <ele>836</ele>
        <time>2020-07-11T13:45:30.062Z</time>
      </trkpt>
      <trkpt lat="45.7704" lon="2.9968">
        <ele>835</ele>
        <time>2020-07-11T13:45:31.062Z</time>
      </trkpt>
      <trkpt lat="45.77041" lon="2.99677">
        <ele>834</ele>
        <time>2020-07-11T13:45:32.062Z</time>
      </trkpt>
      <trkpt lat="45.77043" lon="2.99674">
        <ele>834</ele>
        <time>2020-07-11T13:45:33.062Z</time>
      </trkpt>
      <trkpt lat="45.77044" lon="2.99672">
        <ele>834</ele>
        <time>2020-07-11T13:45:34.062Z</time>
      </trkpt>
      <trkpt lat="45.77045" lon="2.99669">
        <ele>833</ele>
        <time>2020-07-11T13:45:35.062Z</time>
      </trkpt>
      <trkpt lat="45.77047" lon="2.99667">
        <ele>833</ele>
        <time>2020-07-11T13:45:36.062Z</time>
      </trkpt>
      <trkpt lat="45.77049" lon="2.99664">
        <ele>833</ele>
        <time>2020-07-11T13:45:37.062Z</time>
      </trkpt>
      <trkpt lat="45.7705" lon="2.99661">
        <ele>833</ele>
        <time>2020-07-11T13:45:38.062Z</time>
      </trkpt>
      <trkpt lat="45.77052" lon="2.99659">
        <ele>832</ele>
        <time>2020-07-11T13:45:39.062Z</time>
      </trkpt>
      <trkpt lat="45.77054" lon="2.99656">
        <ele>830</ele>
        <time>2020-07-11T13:45:40.062Z</time>
      </trkpt>
      <trkpt lat="45.77056" lon="2.99653">
        <ele>830</ele>
        <time>2020-07-11T13:45:41.062Z</time>
      </trkpt>
      <trkpt lat="45.77058" lon="2.9965">
        <ele>830</ele>
        <time>2020-07-11T13:45:42.062Z</time>
      </trkpt>
      <trkpt lat="45.77059" lon="2.99647">
        <ele>832</ele>
        <time>2020-07-11T13:45:43.062Z</time>
      </trkpt>
      <trkpt lat="45.77059" lon="2.99643">
        <ele>834</ele>
        <time>2020-07-11T13:45:44.062Z</time>
      </trkpt>
      <trkpt lat="45.7706" lon="2.9964">
        <ele>834</ele>
        <time>2020-07-11T13:45:45.062Z</time>
      </trkpt>
      <trkpt lat="45.77061" lon="2.99636">
        <ele>834</ele>
        <time>2020-07-11T13:45:46.062Z</time>
      </trkpt>
      <trkpt lat="45.77062" lon="2.99633">
        <ele>834</ele>
        <time>2020-07-11T13:45:47.062Z</time>
      </trkpt>
      <trkpt lat="45.77063" lon="2.9963">
        <ele>834</ele>
        <time>2020-07-11T13:45:48.062Z</time>
      </trkpt>
      <trkpt lat="45.77064" lon="2.99626">
        <ele>834</ele>
        <time>2020-07-11T13:45:49.062Z</time>
      </trkpt>
      <trkpt lat="45.77065" lon="2.99623">
        <ele>835</ele>
        <time>2020-07-11T13:45:50.062Z</time>
      </trkpt>
      <trkpt lat="45.77066" lon="2.9962">
        <ele>836</ele>
        <time>2020-07-11T13:45:51.062Z</time>
      </trkpt>
      <trkpt lat="45.77067" lon="2.99616">
        <ele>835</ele>
        <time>2020-07-11T13:45:52.062Z</time>
      </trkpt>
      <trkpt lat="45.77067" lon="2.99613">
        <ele>836</ele>
        <time>2020-07-11T13:45:53.062Z</time>
      </trkpt>
      <trkpt lat="45.77068" lon="2.9961">
        <ele>836</ele>
        <time>2020-07-11T13:45:54.062Z</time>
      </trkpt>
      <trkpt lat="45.77069" lon="2.99607">
        <ele>837</ele>
        <time>2020-07-11T13:45:55.062Z</time>
      </trkpt>
      <trkpt lat="45.7707" lon="2.99605">
        <ele>838</ele>
        <time>2020-07-11T13:45:56.062Z</time>
      </trkpt>
      <trkpt lat="45.77071" lon="2.99602">
        <ele>839</ele>
        <time>2020-07-11T13:45:57.062Z</time>
      </trkpt>
      <trkpt lat="45.77073" lon="2.99599">
        <ele>839</ele>
        <time>2020-07-11T13:45:58.062Z</time>
      </trkpt>
      <trkpt lat="45.77074" lon="2.99596">
        <ele>840</ele>
        <time>2020-07-11T13:45:59.062Z</time>
      </trkpt>
      <trkpt lat="45.77075" lon="2.99593">
        <ele>840</ele>
        <time>2020-07-11T13:46:00.062Z</time>
      </trkpt>
      <trkpt lat="45.77076" lon="2.99591">
        <ele>841</ele>
        <time>2020-07-11T13:46:01.062Z</time>
      </trkpt>
      <trkpt lat="45.77077" lon="2.99589">
        <ele>842</ele>
        <time>2020-07-11T13:46:02.062Z</time>
      </trkpt>
      <trkpt lat="45.77079" lon="2.99587">
        <ele>843</ele>
        <time>2020-07-11T13:46:03.062Z</time>
      </trkpt>
      <trkpt lat="45.7708" lon="2.99585">
        <ele>845</ele>
        <time>2020-07-11T13:46:04.062Z</time>
      </trkpt>
      <trkpt lat="45.77081" lon="2.99583">
        <ele>846</ele>
        <time>2020-07-11T13:46:05.062Z</time>
      </trkpt>
      <trkpt lat="45.77082" lon="2.99581">
        <ele>846</ele>
        <time>2020-07-11T13:46:06.062Z</time>
      </trkpt>
      <trkpt lat="45.77084" lon="2.99579">
        <ele>847</ele>
        <time>2020-07-11T13:46:07.062Z</time>
      </trkpt>
      <trkpt lat="45.77085" lon="2.99576">
        <ele>847</ele>
        <time>2020-07-11T13:46:08.062Z</time>
      </trkpt>
      <trkpt lat="45.77087" lon="2.99573">
        <ele>847</ele>
        <time>2020-07-11T13:46:09.062Z</time>
      </trkpt>
      <trkpt lat="45.77088" lon="2.9957">
        <ele>848</ele>
        <time>2020-07-11T13:46:10.062Z</time>
      </trkpt>
      <trkpt lat="45.77089" lon="2.99568">
        <ele>848</ele>
        <time>2020-07-11T13:46:11.062Z</time>
      </trkpt>
      <trkpt lat="45.77091" lon="2.99566">
        <ele>848</ele>
        <time>2020-07-11T13:46:12.062Z</time>
      </trkpt>
      <trkpt lat="45.77093" lon="2.99564">
        <ele>848</ele>
        <time>2020-07-11T13:46:13.062Z</time>
      </trkpt>
      <trkpt lat="45.77094" lon="2.99562">
        <ele>849</ele>
        <time>2020-07-11T13:46:14.062Z</time>
      </trkpt>
      <trkpt lat="45.77096" lon="2.9956">
        <ele>849</ele>
        <time>2020-07-11T13:46:15.062Z</time>
      </trkpt>
      <trkpt lat="45.77098" lon="2.99558">
        <ele>849</ele>
        <time>2020-07-11T13:46:16.062Z</time>
      </trkpt>
      <trkpt lat="45.77099" lon="2.99556">
        <ele>848</ele>
        <time>2020-07-11T13:46:17.062Z</time>
      </trkpt>
      <trkpt lat="45.77101" lon="2.99554">
        <ele>848</ele>
        <time>2020-07-11T13:46:18.062Z</time>
      </trkpt>
      <trkpt lat="45.77103" lon="2.99552">
        <ele>848</ele>
        <time>2020-07-11T13:46:19.062Z</time>
      </trkpt>
      <trkpt lat="45.77105" lon="2.99551">
        <ele>848</ele>
        <time>2020-07-11T13:46:20.062Z</time>
      </trkpt>
      <trkpt lat="45.77107" lon="2.9955">
        <ele>849</ele>
        <time>2020-07-11T13:46:21.062Z</time>
      </trkpt>
      <trkpt lat="45.77109" lon="2.99549">
        <ele>849</ele>
        <time>2020-07-11T13:46:22.062Z</time>
      </trkpt>
      <trkpt lat="45.77111" lon="2.99548">
        <ele>850</ele>
        <time>2020-07-11T13:46:23.062Z</time>
      </trkpt>
      <trkpt lat="45.77113" lon="2.99547">
        <ele>850</ele>
        <time>2020-07-11T13:46:24.062Z</time>
      </trkpt>
      <trkpt lat="45.77115" lon="2.99546">
        <ele>850</ele>
        <time>2020-07-11T13:46:25.062Z</time>
      </trkpt>
      <trkpt lat="45.77117" lon="2.99545">
        <ele>850</ele>
        <time>2020-07-11T13:46:26.062Z</time>
      </trkpt>
      <trkpt lat="45.77119" lon="2.99544">
        <ele>850</ele>
        <time>2020-07-11T13:46:27.062Z</time>
      </trkpt>
      <trkpt lat="45.77121" lon="2.99543">
        <ele>850</ele>
        <time>2020-07-11T13:46:28.062Z</time>
      </trkpt>
      <trkpt lat="45.77123" lon="2.99541">
        <ele>850</ele>
        <time>2020-07-11T13:46:29.062Z</time>
      </trkpt>
      <trkpt lat="45.77125" lon="2.9954">
        <ele>850</ele>
        <time>2020-07-11T13:46:30.062Z</time>
      </trkpt>
      <trkpt lat="45.77126" lon="2.99538">
        <ele>851</ele>
        <time>2020-07-11T13:46:31.062Z</time>
      </trkpt>
      <trkpt lat="45.77128" lon="2.99536">
        <ele>851</ele>
        <time>2020-07-11T13:46:32.062Z</time>
      </trkpt>
      <trkpt lat="45.7713" lon="2.99534">
        <ele>851</ele>
        <time>2020-07-11T13:46:33.062Z</time>
      </trkpt>
      <trkpt lat="45.77131" lon="2.99532">
        <ele>852</ele>
        <time>2020-07-11T13:46:34.062Z</time>
      </trkpt>
      <trkpt lat="45.77133" lon="2.99529">
        <ele>852</ele>
        <time>2020-07-11T13:46:35.062Z</time>
      </trkpt>
      <trkpt lat="45.77134" lon="2.99527">
        <ele>853</ele>
        <time>2020-07-11T13:46:36.062Z</time>
      </trkpt>
      <trkpt lat="45.77136" lon="2.99525">
        <ele>854</ele>
        <time>2020-07-11T13:46:37.062Z</time>
      </trkpt>
      <trkpt lat="45.77137" lon="2.99523">
        <ele>856</ele>
        <time>2020-07-11T13:46:38.062Z</time>
      </trkpt>
      <trkpt lat="45.77139" lon="2.99521">
        <ele>856</ele>
        <time>2020-07-11T13:46:39.062Z</time>
      </trkpt>
      <trkpt lat="45.7714" lon="2.9952">
        <ele>856</ele>
        <time>2020-07-11T13:46:40.062Z</time>
      </trkpt>
      <trkpt lat="45.77141" lon="2.99519">
        <ele>856</ele>
        <time>2020-07-11T13:46:41.062Z</time>
      </trkpt>
      <trkpt lat="45.77143" lon="2.99517">
        <ele>856</ele>
        <time>2020-07-11T13:46:42.062Z</time>
      </trkpt>
      <trkpt lat="45.77144" lon="2.99516">
        <ele>856</ele>
        <time>2020-07-11T13:46:43.062Z</time>
      </trkpt>
      <trkpt lat="45.77145" lon="2.99515">
        <ele>857</ele>
        <time>2020-07-11T13:46:44.062Z</time>
      </trkpt>
      <trkpt lat="45.77147" lon="2.99514">
        <ele>857</ele>
        <time>2020-07-11T13:46:45.062Z</time>
      </trkpt>
      <trkpt lat="45.77148" lon="2.99513">
        <ele>859</ele>
        <time>2020-07-11T13:46:46.062Z</time>
      </trkpt>
      <trkpt lat="45.77149" lon="2.99512">
        <ele>859</ele>
        <time>2020-07-11T13:46:47.062Z</time>
      </trkpt>
      <trkpt lat="45.7715" lon="2.99511">
        <ele>859</ele>
        <time>2020-07-11T13:46:48.062Z</time>
      </trkpt>
      <trkpt lat="45.77152" lon="2.9951">
        <ele>858</ele>
        <time>2020-07-11T13:46:49.062Z</time>
      </trkpt>
      <trkpt lat="45.77154" lon="2.99509">
        <ele>858</ele>
        <time>2020-07-11T13:46:50.062Z</time>
      </trkpt>
      <trkpt lat="45.77155" lon="2.99507">
        <ele>858</ele>
        <time>2020-07-11T13:46:51.062Z</time>
      </trkpt>
      <trkpt lat="45.77157" lon="2.99505">
        <ele>859</ele>
        <time>2020-07-11T13:46:52.062Z</time>
      </trkpt>
      <trkpt lat="45.77159" lon="2.99504">
        <ele>860</ele>
        <time>2020-07-11T13:46:53.062Z</time>
      </trkpt>
      <trkpt lat="45.77161" lon="2.99502">
        <ele>861</ele>
        <time>2020-07-11T13:46:54.062Z</time>
      </trkpt>
      <trkpt lat="45.77162" lon="2.995">
        <ele>861</ele>
        <time>2020-07-11T13:46:55.062Z</time>
      </trkpt>
      <trkpt lat="45.77164" lon="2.99498">
        <ele>862</ele>
        <time>2020-07-11T13:46:56.062Z</time>
      </trkpt>
      <trkpt lat="45.77166" lon="2.99496">
        <ele>862</ele>
        <time>2020-07-11T13:46:57.062Z</time>
      </trkpt>
      <trkpt lat="45.77168" lon="2.99494">
        <ele>862</ele>
        <time>2020-07-11T13:46:58.062Z</time>
      </trkpt>
      <trkpt lat="45.7717" lon="2.99492">
        <ele>863</ele>
        <time>2020-07-11T13:46:59.062Z</time>
      </trkpt>
      <trkpt lat="45.77172" lon="2.99489">
        <ele>863</ele>
        <time>2020-07-11T13:47:00.062Z</time>
      </trkpt>
      <trkpt lat="45.77174" lon="2.99487">
        <ele>864</ele>
        <time>2020-07-11T13:47:01.062Z</time>
      </trkpt>
      <trkpt lat="45.77176" lon="2.99484">
        <ele>863</ele>
        <time>2020-07-11T13:47:02.062Z</time>
      </trkpt>
      <trkpt lat="45.77178" lon="2.99482">
        <ele>863</ele>
        <time>2020-07-11T13:47:03.062Z</time>
      </trkpt>
      <trkpt lat="45.7718" lon="2.99479">
        <ele>864</ele>
        <time>2020-07-11T13:47:04.062Z</time>
      </trkpt>
      <trkpt lat="45.77182" lon="2.99476">
        <ele>863</ele>
        <time>2020-07-11T13:47:05.062Z</time>
      </trkpt>
      <trkpt lat="45.77183" lon="2.99474">
        <ele>864</ele>
        <time>2020-07-11T13:47:06.062Z</time>
      </trkpt>
      <trkpt lat="45.77184" lon="2.99471">
        <ele>864</ele>
        <time>2020-07-11T13:47:07.062Z</time>
      </trkpt>
      <trkpt lat="45.77185" lon="2.99468">
        <ele>864</ele>
        <time>2020-07-11T13:47:08.062Z</time>
      </trkpt>
      <trkpt lat="45.77187" lon="2.99465">
        <ele>863</ele>
        <time>2020-07-11T13:47:09.062Z</time>
      </trkpt>
      <trkpt lat="45.77188" lon="2.99461">
        <ele>862</ele>
        <time>2020-07-11T13:47:10.062Z</time>
      </trkpt>
      <trkpt lat="45.7719" lon="2.99458">
        <ele>862</ele>
        <time>2020-07-11T13:47:11.062Z</time>
      </trkpt>
      <trkpt lat="45.77192" lon="2.99455">
        <ele>863</ele>
        <time>2020-07-11T13:47:12.062Z</time>
      </trkpt>
      <trkpt lat="45.77193" lon="2.99452">
        <ele>864</ele>
        <time>2020-07-11T13:47:13.062Z</time>
      </trkpt>
      <trkpt lat="45.77193" lon="2.99448">
        <ele>866</ele>
        <time>2020-07-11T13:47:14.062Z</time>
      </trkpt>
      <trkpt lat="45.77194" lon="2.99445">
        <ele>866</ele>
        <time>2020-07-11T13:47:15.062Z</time>
      </trkpt>
      <trkpt lat="45.77195" lon="2.99441">
        <ele>866</ele>
        <time>2020-07-11T13:47:16.062Z</time>
      </trkpt>
      <trkpt lat="45.77195" lon="2.99438">
        <ele>866</ele>
        <time>2020-07-11T13:47:17.062Z</time>
      </trkpt>
      <trkpt lat="45.77197" lon="2.99434">
        <ele>866</ele>
        <time>2020-07-11T13:47:18.062Z</time>
      </trkpt>
      <trkpt lat="45.77198" lon="2.99431">
        <ele>866</ele>
        <time>2020-07-11T13:47:19.062Z</time>
      </trkpt>
      <trkpt lat="45.77199" lon="2.99428">
        <ele>866</ele>
        <time>2020-07-11T13:47:20.062Z</time>
      </trkpt>
      <trkpt lat="45.772" lon="2.99425">
        <ele>867</ele>
        <time>2020-07-11T13:47:21.062Z</time>
      </trkpt>
      <trkpt lat="45.77201" lon="2.99421">
        <ele>867</ele>
        <time>2020-07-11T13:47:22.062Z</time>
      </trkpt>
      <trkpt lat="45.77202" lon="2.99418">
        <ele>867</ele>
        <time>2020-07-11T13:47:23.062Z</time>
      </trkpt>
      <trkpt lat="45.77204" lon="2.99414">
        <ele>867</ele>
        <time>2020-07-11T13:47:24.062Z</time>
      </trkpt>
      <trkpt lat="45.77204" lon="2.99411">
        <ele>868</ele>
        <time>2020-07-11T13:47:25.062Z</time>
      </trkpt>
      <trkpt lat="45.77205" lon="2.99407">
        <ele>868</ele>
        <time>2020-07-11T13:47:26.062Z</time>
      </trkpt>
      <trkpt lat="45.77207" lon="2.99404">
        <ele>869</ele>
        <time>2020-07-11T13:47:27.062Z</time>
      </trkpt>
      <trkpt lat="45.77208" lon="2.994">
        <ele>869</ele>
        <time>2020-07-11T13:47:28.062Z</time>
      </trkpt>
      <trkpt lat="45.77209" lon="2.99397">
        <ele>870</ele>
        <time>2020-07-11T13:47:29.062Z</time>
      </trkpt>
      <trkpt lat="45.7721" lon="2.99394">
        <ele>870</ele>
        <time>2020-07-11T13:47:30.062Z</time>
      </trkpt>
      <trkpt lat="45.77211" lon="2.99391">
        <ele>870</ele>
        <time>2020-07-11T13:47:31.062Z</time>
      </trkpt>
      <trkpt lat="45.77212" lon="2.99387">
        <ele>871</ele>
        <time>2020-07-11T13:47:32.062Z</time>
      </trkpt>
      <trkpt lat="45.77213" lon="2.99384">
        <ele>871</ele>
        <time>2020-07-11T13:47:33.062Z</time>
      </trkpt>
      <trkpt lat="45.77214" lon="2.99381">
        <ele>871</ele>
        <time>2020-07-11T13:47:34.062Z</time>
      </trkpt>
      <trkpt lat="45.77215" lon="2.99378">
        <ele>871</ele>
        <time>2020-07-11T13:47:35.062Z</time>
      </trkpt>
      <trkpt lat="45.77216" lon="2.99374">
        <ele>871</ele>
        <time>2020-07-11T13:47:36.062Z</time>
      </trkpt>
      <trkpt lat="45.77217" lon="2.99371">
        <ele>871</ele>
        <time>2020-07-11T13:47:37.062Z</time>
      </trkpt>
      <trkpt lat="45.77218" lon="2.99367">
        <ele>871</ele>
        <time>2020-07-11T13:47:38.062Z</time>
      </trkpt>
      <trkpt lat="45.77219" lon="2.99364">
        <ele>871</ele>
        <time>2020-07-11T13:47:39.062Z</time>
      </trkpt>
      <trkpt lat="45.7722" lon="2.99361">
        <ele>871</ele>
        <time>2020-07-11T13:47:40.062Z</time>
      </trkpt>
      <trkpt lat="45.77221" lon="2.99357">
        <ele>871</ele>
        <time>2020-07-11T13:47:41.062Z</time>
      </trkpt>
      <trkpt lat="45.77222" lon="2.99354">
        <ele>871</ele>
        <time>2020-07-11T13:47:42.062Z</time>
      </trkpt>
      <trkpt lat="45.77223" lon="2.9935">
        <ele>872</ele>
        <time>2020-07-11T13:47:43.062Z</time>
      </trkpt>
      <trkpt lat="45.77224" lon="2.99347">
        <ele>871</ele>
        <time>2020-07-11T13:47:44.062Z</time>
      </trkpt>
      <trkpt lat="45.77225" lon="2.99343">
        <ele>871</ele>
        <time>2020-07-11T13:47:45.062Z</time>
      </trkpt>
      <trkpt lat="45.77226" lon="2.9934">
        <ele>871</ele>
        <time>2020-07-11T13:47:46.062Z</time>
      </trkpt>
      <trkpt lat="45.77227" lon="2.99337">
        <ele>871</ele>
        <time>2020-07-11T13:47:47.062Z</time>
      </trkpt>
      <trkpt lat="45.77228" lon="2.99334">
        <ele>871</ele>
        <time>2020-07-11T13:47:48.062Z</time>
      </trkpt>
      <trkpt lat="45.77229" lon="2.9933">
        <ele>871</ele>
        <time>2020-07-11T13:47:49.062Z</time>
      </trkpt>
      <trkpt lat="45.7723" lon="2.99327">
        <ele>871</ele>
        <time>2020-07-11T13:47:50.062Z</time>
      </trkpt>
      <trkpt lat="45.77231" lon="2.99323">
        <ele>872</ele>
        <time>2020-07-11T13:47:51.062Z</time>
      </trkpt>
      <trkpt lat="45.77231" lon="2.9932">
        <ele>872</ele>
        <time>2020-07-11T13:47:52.062Z</time>
      </trkpt>
      <trkpt lat="45.77232" lon="2.99316">
        <ele>872</ele>
        <time>2020-07-11T13:47:53.062Z</time>
      </trkpt>
      <trkpt lat="45.77233" lon="2.99313">
        <ele>872</ele>
        <time>2020-07-11T13:47:54.062Z</time>
      </trkpt>
      <trkpt lat="45.77234" lon="2.99309">
        <ele>872</ele>
        <time>2020-07-11T13:47:55.062Z</time>
      </trkpt>
      <trkpt lat="45.77235" lon="2.99306">
        <ele>872</ele>
        <time>2020-07-11T13:47:56.062Z</time>
      </trkpt>
      <trkpt lat="45.77235" lon="2.99303">
        <ele>873</ele>
        <time>2020-07-11T13:47:57.062Z</time>
      </trkpt>
      <trkpt lat="45.77237" lon="2.99299">
        <ele>872</ele>
        <time>2020-07-11T13:47:58.062Z</time>
      </trkpt>
      <trkpt lat="45.77238" lon="2.99296">
        <ele>873</ele>
        <time>2020-07-11T13:47:59.062Z</time>
      </trkpt>
      <trkpt lat="45.77238" lon="2.99292">
        <ele>873</ele>
        <time>2020-07-11T13:48:00.062Z</time>
      </trkpt>
      <trkpt lat="45.77239" lon="2.99289">
        <ele>873</ele>
        <time>2020-07-11T13:48:01.062Z</time>
      </trkpt>
      <trkpt lat="45.7724" lon="2.99285">
        <ele>873</ele>
        <time>2020-07-11T13:48:02.062Z</time>
      </trkpt>
      <trkpt lat="45.77241" lon="2.99282">
        <ele>873</ele>
        <time>2020-07-11T13:48:03.062Z</time>
      </trkpt>
      <trkpt lat="45.77242" lon="2.99278">
        <ele>873</ele>
        <time>2020-07-11T13:48:04.062Z</time>
      </trkpt>
      <trkpt lat="45.77243" lon="2.99275">
        <ele>873</ele>
        <time>2020-07-11T13:48:05.062Z</time>
      </trkpt>
      <trkpt lat="45.77245" lon="2.99272">
        <ele>873</ele>
        <time>2020-07-11T13:48:06.062Z</time>
      </trkpt>
      <trkpt lat="45.77246" lon="2.99269">
        <ele>873</ele>
        <time>2020-07-11T13:48:07.062Z</time>
      </trkpt>
      <trkpt lat="45.77247" lon="2.99266">
        <ele>873</ele>
        <time>2020-07-11T13:48:08.062Z</time>
      </trkpt>
      <trkpt lat="45.77249" lon="2.99263">
        <ele>874</ele>
        <time>2020-07-11T13:48:09.062Z</time>
      </trkpt>
      <trkpt lat="45.7725" lon="2.9926">
        <ele>874</ele>
        <time>2020-07-11T13:48:10.062Z</time>
      </trkpt>
      <trkpt lat="45.77251" lon="2.99257">
        <ele>874</ele>
        <time>2020-07-11T13:48:11.062Z</time>
      </trkpt>
      <trkpt lat="45.77252" lon="2.99254">
        <ele>874</ele>
        <time>2020-07-11T13:48:12.062Z</time>
      </trkpt>
      <trkpt lat="45.77253" lon="2.99251">
        <ele>874</ele>
        <time>2020-07-11T13:48:13.062Z</time>
      </trkpt>
      <trkpt lat="45.77254" lon="2.99248">
        <ele>875</ele>
        <time>2020-07-11T13:48:14.062Z</time>
      </trkpt>
      <trkpt lat="45.77256" lon="2.99245">
        <ele>875</ele>
        <time>2020-07-11T13:48:15.062Z</time>
      </trkpt>
      <trkpt lat="45.77258" lon="2.99242">
        <ele>875</ele>
        <time>2020-07-11T13:48:16.062Z</time>
      </trkpt>
      <trkpt lat="45.77259" lon="2.99239">
        <ele>876</ele>
        <time>2020-07-11T13:48:17.062Z</time>
      </trkpt>
      <trkpt lat="45.77261" lon="2.99236">
        <ele>876</ele>
        <time>2020-07-11T13:48:18.062Z</time>
      </trkpt>
      <trkpt lat="45.77263" lon="2.99233">
        <ele>876</ele>
        <time>2020-07-11T13:48:19.062Z</time>
      </trkpt>
      <trkpt lat="45.77265" lon="2.9923">
        <ele>876</ele>
        <time>2020-07-11T13:48:20.062Z</time>
      </trkpt>
      <trkpt lat="45.77266" lon="2.99226">
        <ele>876</ele>
        <time>2020-07-11T13:48:21.062Z</time>
      </trkpt>
      <trkpt lat="45.77267" lon="2.99223">
        <ele>876</ele>
        <time>2020-07-11T13:48:22.062Z</time>
      </trkpt>
      <trkpt lat="45.77269" lon="2.99219">
        <ele>877</ele>
        <time>2020-07-11T13:48:23.062Z</time>
      </trkpt>
      <trkpt lat="45.7727" lon="2.99216">
        <ele>877</ele>
        <time>2020-07-11T13:48:24.062Z</time>
      </trkpt>
      <trkpt lat="45.77272" lon="2.99212">
        <ele>877</ele>
        <time>2020-07-11T13:48:25.062Z</time>
      </trkpt>
      <trkpt lat="45.77273" lon="2.99209">
        <ele>877</ele>
        <time>2020-07-11T13:48:26.062Z</time>
      </trkpt>
      <trkpt lat="45.77274" lon="2.99206">
        <ele>877</ele>
        <time>2020-07-11T13:48:27.062Z</time>
      </trkpt>
      <trkpt lat="45.77275" lon="2.99202">
        <ele>877</ele>
        <time>2020-07-11T13:48:28.062Z</time>
      </trkpt>
      <trkpt lat="45.77276" lon="2.99199">
        <ele>877</ele>
        <time>2020-07-11T13:48:29.062Z</time>
      </trkpt>
      <trkpt lat="45.77277" lon="2.99195">
        <ele>877</ele>
        <time>2020-07-11T13:48:30.062Z</time>
      </trkpt>
      <trkpt lat="45.77278" lon="2.99192">
        <ele>877</ele>
        <time>2020-07-11T13:48:31.062Z</time>
      </trkpt>
      <trkpt lat="45.77279" lon="2.99188">
        <ele>877</ele>
        <time>2020-07-11T13:48:32.062Z</time>
      </trkpt>
      <trkpt lat="45.77279" lon="2.99185">
        <ele>879</ele>
        <time>2020-07-11T13:48:33.062Z</time>
      </trkpt>
      <trkpt lat="45.7728" lon="2.99181">
        <ele>879</ele>
        <time>2020-07-11T13:48:34.062Z</time>
      </trkpt>
      <trkpt lat="45.77281" lon="2.99178">
        <ele>879</ele>
        <time>2020-07-11T13:48:35.062Z</time>
      </trkpt>
      <trkpt lat="45.77282" lon="2.99175">
        <ele>879</ele>
        <time>2020-07-11T13:48:36.062Z</time>
      </trkpt>
      <trkpt lat="45.77283" lon="2.99171">
        <ele>879</ele>
        <time>2020-07-11T13:48:37.062Z</time>
      </trkpt>
      <trkpt lat="45.77283" lon="2.99168">
        <ele>880</ele>
        <time>2020-07-11T13:48:38.062Z</time>
      </trkpt>
      <trkpt lat="45.77284" lon="2.99164">
        <ele>880</ele>
        <time>2020-07-11T13:48:39.062Z</time>
      </trkpt>
      <trkpt lat="45.77284" lon="2.99161">
        <ele>880</ele>
        <time>2020-07-11T13:48:40.062Z</time>
      </trkpt>
      <trkpt lat="45.77285" lon="2.99157">
        <ele>880</ele>
        <time>2020-07-11T13:48:41.062Z</time>
      </trkpt>
      <trkpt lat="45.77286" lon="2.99154">
        <ele>880</ele>
        <time>2020-07-11T13:48:42.062Z</time>
      </trkpt>
      <trkpt lat="45.77286" lon="2.9915">
        <ele>881</ele>
        <time>2020-07-11T13:48:43.062Z</time>
      </trkpt>
      <trkpt lat="45.77287" lon="2.99147">
        <ele>881</ele>
        <time>2020-07-11T13:48:44.062Z</time>
      </trkpt>
      <trkpt lat="45.77287" lon="2.99144">
        <ele>881</ele>
        <time>2020-07-11T13:48:45.062Z</time>
      </trkpt>
      <trkpt lat="45.77288" lon="2.9914">
        <ele>881</ele>
        <time>2020-07-11T13:48:46.062Z</time>
      </trkpt>
      <trkpt lat="45.77288" lon="2.99137">
        <ele>881</ele>
        <time>2020-07-11T13:48:47.062Z</time>
      </trkpt>
      <trkpt lat="45.77289" lon="2.99134">
        <ele>881</ele>
        <time>2020-07-11T13:48:48.062Z</time>
      </trkpt>
      <trkpt lat="45.7729" lon="2.9913">
        <ele>880</ele>
        <time>2020-07-11T13:48:49.062Z</time>
      </trkpt>
      <trkpt lat="45.7729" lon="2.99127">
        <ele>880</ele>
        <time>2020-07-11T13:48:50.062Z</time>
      </trkpt>
      <trkpt lat="45.77291" lon="2.99124">
        <ele>880</ele>
        <time>2020-07-11T13:48:51.062Z</time>
      </trkpt>
      <trkpt lat="45.77292" lon="2.99121">
        <ele>880</ele>
        <time>2020-07-11T13:48:52.062Z</time>
      </trkpt>
      <trkpt lat="45.77292" lon="2.99118">
        <ele>880</ele>
        <time>2020-07-11T13:48:53.062Z</time>
      </trkpt>
      <trkpt lat="45.77293" lon="2.99115">
        <ele>880</ele>
        <time>2020-07-11T13:48:54.062Z</time>
      </trkpt>
      <trkpt lat="45.77294" lon="2.99112">
        <ele>880</ele>
        <time>2020-07-11T13:48:55.062Z</time>
      </trkpt>
      <trkpt lat="45.77294" lon="2.99109">
        <ele>880</ele>
        <time>2020-07-11T13:48:56.062Z</time>
      </trkpt>
      <trkpt lat="45.77295" lon="2.99107">
        <ele>881</ele>
        <time>2020-07-11T13:48:57.062Z</time>
      </trkpt>
      <trkpt lat="45.77295" lon="2.99104">
        <ele>881</ele>
        <time>2020-07-11T13:48:58.062Z</time>
      </trkpt>
      <trkpt lat="45.77296" lon="2.99101">
        <ele>881</ele>
        <time>2020-07-11T13:48:59.062Z</time>
      </trkpt>
      <trkpt lat="45.77297" lon="2.99098">
        <ele>881</ele>
        <time>2020-07-11T13:49:00.062Z</time>
      </trkpt>
      <trkpt lat="45.77297" lon="2.99095">
        <ele>881</ele>
        <time>2020-07-11T13:49:01.062Z</time>
      </trkpt>
      <trkpt lat="45.77298" lon="2.99092">
        <ele>882</ele>
        <time>2020-07-11T13:49:02.062Z</time>
      </trkpt>
      <trkpt lat="45.77298" lon="2.99089">
        <ele>882</ele>
        <time>2020-07-11T13:49:03.062Z</time>
      </trkpt>
      <trkpt lat="45.77298" lon="2.99086">
        <ele>882</ele>
        <time>2020-07-11T13:49:04.062Z</time>
      </trkpt>
      <trkpt lat="45.77299" lon="2.99083">
        <ele>882</ele>
        <time>2020-07-11T13:49:05.062Z</time>
      </trkpt>
      <trkpt lat="45.77301" lon="2.9908">
        <ele>882</ele>
        <time>2020-07-11T13:49:06.062Z</time>
      </trkpt>
      <trkpt lat="45.77302" lon="2.99077">
        <ele>883</ele>
        <time>2020-07-11T13:49:07.062Z</time>
      </trkpt>
      <trkpt lat="45.77303" lon="2.99074">
        <ele>884</ele>
        <time>2020-07-11T13:49:08.062Z</time>
      </trkpt>
      <trkpt lat="45.77303" lon="2.99071">
        <ele>884</ele>
        <time>2020-07-11T13:49:09.062Z</time>
      </trkpt>
      <trkpt lat="45.77304" lon="2.99068">
        <ele>885</ele>
        <time>2020-07-11T13:49:10.062Z</time>
      </trkpt>
      <trkpt lat="45.77305" lon="2.99066">
        <ele>884</ele>
        <time>2020-07-11T13:49:11.062Z</time>
      </trkpt>
      <trkpt lat="45.77306" lon="2.99063">
        <ele>885</ele>
        <time>2020-07-11T13:49:12.062Z</time>
      </trkpt>
      <trkpt lat="45.77307" lon="2.9906">
        <ele>884</ele>
        <time>2020-07-11T13:49:13.062Z</time>
      </trkpt>
      <trkpt lat="45.77308" lon="2.99057">
        <ele>885</ele>
        <time>2020-07-11T13:49:14.062Z</time>
      </trkpt>
      <trkpt lat="45.77309" lon="2.99054">
        <ele>884</ele>
        <time>2020-07-11T13:49:15.062Z</time>
      </trkpt>
      <trkpt lat="45.7731" lon="2.99051">
        <ele>885</ele>
        <time>2020-07-11T13:49:16.062Z</time>
      </trkpt>
      <trkpt lat="45.77311" lon="2.99048">
        <ele>884</ele>
        <time>2020-07-11T13:49:17.062Z</time>
      </trkpt>
      <trkpt lat="45.77311" lon="2.99046">
        <ele>884</ele>
        <time>2020-07-11T13:49:18.062Z</time>
      </trkpt>
      <trkpt lat="45.77312" lon="2.99043">
        <ele>884</ele>
        <time>2020-07-11T13:49:19.062Z</time>
      </trkpt>
      <trkpt lat="45.77313" lon="2.9904">
        <ele>884</ele>
        <time>2020-07-11T13:49:20.062Z</time>
      </trkpt>
      <trkpt lat="45.77313" lon="2.99036">
        <ele>885</ele>
        <time>2020-07-11T13:49:21.062Z</time>
      </trkpt>
      <trkpt lat="45.77313" lon="2.99033">
        <ele>884</ele>
        <time>2020-07-11T13:49:22.062Z</time>
      </trkpt>
      <trkpt lat="45.77314" lon="2.9903">
        <ele>884</ele>
        <time>2020-07-11T13:49:23.062Z</time>
      </trkpt>
      <trkpt lat="45.77314" lon="2.99027">
        <ele>884</ele>
        <time>2020-07-11T13:49:24.062Z</time>
      </trkpt>
      <trkpt lat="45.77315" lon="2.99024">
        <ele>884</ele>
        <time>2020-07-11T13:49:25.062Z</time>
      </trkpt>
      <trkpt lat="45.77315" lon="2.9902">
        <ele>885</ele>
        <time>2020-07-11T13:49:26.062Z</time>
      </trkpt>
      <trkpt lat="45.77315" lon="2.99017">
        <ele>885</ele>
        <time>2020-07-11T13:49:27.062Z</time>
      </trkpt>
      <trkpt lat="45.77315" lon="2.99014">
        <ele>885</ele>
        <time>2020-07-11T13:49:28.062Z</time>
      </trkpt>
      <trkpt lat="45.77315" lon="2.9901">
        <ele>885</ele>
        <time>2020-07-11T13:49:29.062Z</time>
      </trkpt>
      <trkpt lat="45.77316" lon="2.99007">
        <ele>885</ele>
        <time>2020-07-11T13:49:30.062Z</time>
      </trkpt>
      <trkpt lat="45.77316" lon="2.99004">
        <ele>885</ele>
        <time>2020-07-11T13:49:31.062Z</time>
      </trkpt>
      <trkpt lat="45.77316" lon="2.99">
        <ele>885</ele>
        <time>2020-07-11T13:49:32.062Z</time>
      </trkpt>
      <trkpt lat="45.77316" lon="2.98997">
        <ele>886</ele>
        <time>2020-07-11T13:49:33.062Z</time>
      </trkpt>
      <trkpt lat="45.77316" lon="2.98994">
        <ele>886</ele>
        <time>2020-07-11T13:49:34.062Z</time>
      </trkpt>
      <trkpt lat="45.77316" lon="2.98991">
        <ele>887</ele>
        <time>2020-07-11T13:49:35.062Z</time>
      </trkpt>
      <trkpt lat="45.77316" lon="2.98987">
        <ele>887</ele>
        <time>2020-07-11T13:49:36.062Z</time>
      </trkpt>
      <trkpt lat="45.77316" lon="2.98984">
        <ele>886</ele>
        <time>2020-07-11T13:49:37.062Z</time>
      </trkpt>
      <trkpt lat="45.77316" lon="2.98981">
        <ele>886</ele>
        <time>2020-07-11T13:49:38.062Z</time>
      </trkpt>
      <trkpt lat="45.77316" lon="2.98977">
        <ele>885</ele>
        <time>2020-07-11T13:49:39.062Z</time>
      </trkpt>
      <trkpt lat="45.77316" lon="2.98974">
        <ele>886</ele>
        <time>2020-07-11T13:49:40.062Z</time>
      </trkpt>
      <trkpt lat="45.77317" lon="2.9897">
        <ele>886</ele>
        <time>2020-07-11T13:49:41.062Z</time>
      </trkpt>
      <trkpt lat="45.77317" lon="2.98967">
        <ele>886</ele>
        <time>2020-07-11T13:49:42.062Z</time>
      </trkpt>
      <trkpt lat="45.77317" lon="2.98964">
        <ele>886</ele>
        <time>2020-07-11T13:49:43.062Z</time>
      </trkpt>
      <trkpt lat="45.77317" lon="2.9896">
        <ele>886</ele>
        <time>2020-07-11T13:49:44.062Z</time>
      </trkpt>
      <trkpt lat="45.77318" lon="2.98957">
        <ele>886</ele>
        <time>2020-07-11T13:49:45.062Z</time>
      </trkpt>
      <trkpt lat="45.77318" lon="2.98954">
        <ele>886</ele>
        <time>2020-07-11T13:49:46.062Z</time>
      </trkpt>
      <trkpt lat="45.77319" lon="2.9895">
        <ele>887</ele>
        <time>2020-07-11T13:49:47.062Z</time>
      </trkpt>
      <trkpt lat="45.77319" lon="2.98947">
        <ele>887</ele>
        <time>2020-07-11T13:49:48.062Z</time>
      </trkpt>
      <trkpt lat="45.7732" lon="2.98944">
        <ele>887</ele>
        <time>2020-07-11T13:49:49.062Z</time>
      </trkpt>
      <trkpt lat="45.77321" lon="2.98941">
        <ele>888</ele>
        <time>2020-07-11T13:49:50.062Z</time>
      </trkpt>
      <trkpt lat="45.77321" lon="2.98938">
        <ele>888</ele>
        <time>2020-07-11T13:49:51.062Z</time>
      </trkpt>
      <trkpt lat="45.77322" lon="2.98934">
        <ele>888</ele>
        <time>2020-07-11T13:49:52.062Z</time>
      </trkpt>
      <trkpt lat="45.77323" lon="2.98931">
        <ele>889</ele>
        <time>2020-07-11T13:49:53.062Z</time>
      </trkpt>
      <trkpt lat="45.77323" lon="2.98928">
        <ele>889</ele>
        <time>2020-07-11T13:49:54.062Z</time>
      </trkpt>
      <trkpt lat="45.77324" lon="2.98925">
        <ele>889</ele>
        <time>2020-07-11T13:49:55.062Z</time>
      </trkpt>
      <trkpt lat="45.77325" lon="2.98922">
        <ele>889</ele>
        <time>2020-07-11T13:49:56.062Z</time>
      </trkpt>
      <trkpt lat="45.77326" lon="2.98919">
        <ele>890</ele>
        <time>2020-07-11T13:49:57.062Z</time>
      </trkpt>
      <trkpt lat="45.77327" lon="2.98916">
        <ele>890</ele>
        <time>2020-07-11T13:49:58.062Z</time>
      </trkpt>
      <trkpt lat="45.77328" lon="2.98913">
        <ele>891</ele>
        <time>2020-07-11T13:49:59.062Z</time>
      </trkpt>
      <trkpt lat="45.77328" lon="2.9891">
        <ele>891</ele>
        <time>2020-07-11T13:50:00.062Z</time>
      </trkpt>
      <trkpt lat="45.7733" lon="2.98907">
        <ele>891</ele>
        <time>2020-07-11T13:50:01.062Z</time>
      </trkpt>
      <trkpt lat="45.77331" lon="2.98904">
        <ele>891</ele>
        <time>2020-07-11T13:50:02.062Z</time>
      </trkpt>
      <trkpt lat="45.77332" lon="2.98901">
        <ele>891</ele>
        <time>2020-07-11T13:50:03.062Z</time>
      </trkpt>
      <trkpt lat="45.77333" lon="2.98898">
        <ele>891</ele>
        <time>2020-07-11T13:50:04.062Z</time>
      </trkpt>
      <trkpt lat="45.77335" lon="2.98895">
        <ele>891</ele>
        <time>2020-07-11T13:50:05.062Z</time>
      </trkpt>
      <trkpt lat="45.77336" lon="2.98892">
        <ele>891</ele>
        <time>2020-07-11T13:50:06.062Z</time>
      </trkpt>
      <trkpt lat="45.77337" lon="2.98889">
        <ele>891</ele>
        <time>2020-07-11T13:50:07.062Z</time>
      </trkpt>
      <trkpt lat="45.77339" lon="2.98886">
        <ele>891</ele>
        <time>2020-07-11T13:50:08.062Z</time>
      </trkpt>
      <trkpt lat="45.7734" lon="2.98884">
        <ele>891</ele>
        <time>2020-07-11T13:50:09.062Z</time>
      </trkpt>
      <trkpt lat="45.77342" lon="2.98881">
        <ele>891</ele>
        <time>2020-07-11T13:50:10.062Z</time>
      </trkpt>
      <trkpt lat="45.77343" lon="2.98879">
        <ele>891</ele>
        <time>2020-07-11T13:50:11.062Z</time>
      </trkpt>
      <trkpt lat="45.77345" lon="2.98877">
        <ele>890</ele>
        <time>2020-07-11T13:50:12.062Z</time>
      </trkpt>
      <trkpt lat="45.77347" lon="2.98874">
        <ele>890</ele>
        <time>2020-07-11T13:50:13.062Z</time>
      </trkpt>
      <trkpt lat="45.77348" lon="2.98872">
        <ele>891</ele>
        <time>2020-07-11T13:50:14.062Z</time>
      </trkpt>
      <trkpt lat="45.77349" lon="2.9887">
        <ele>892</ele>
        <time>2020-07-11T13:50:15.062Z</time>
      </trkpt>
      <trkpt lat="45.7735" lon="2.98868">
        <ele>894</ele>
        <time>2020-07-11T13:50:16.062Z</time>
      </trkpt>
      <trkpt lat="45.7735" lon="2.98866">
        <ele>894</ele>
        <time>2020-07-11T13:50:17.062Z</time>
      </trkpt>
      <trkpt lat="45.77351" lon="2.98864">
        <ele>894</ele>
        <time>2020-07-11T13:50:18.062Z</time>
      </trkpt>
      <trkpt lat="45.77352" lon="2.98861">
        <ele>895</ele>
        <time>2020-07-11T13:50:19.062Z</time>
      </trkpt>
      <trkpt lat="45.77353" lon="2.98859">
        <ele>896</ele>
        <time>2020-07-11T13:50:20.062Z</time>
      </trkpt>
      <trkpt lat="45.77353" lon="2.98857">
        <ele>897</ele>
        <time>2020-07-11T13:50:21.062Z</time>
      </trkpt>
      <trkpt lat="45.77354" lon="2.98855">
        <ele>898</ele>
        <time>2020-07-11T13:50:22.062Z</time>
      </trkpt>
      <trkpt lat="45.77355" lon="2.98852">
        <ele>898</ele>
        <time>2020-07-11T13:50:23.062Z</time>
      </trkpt>
      <trkpt lat="45.77357" lon="2.9885">
        <ele>899</ele>
        <time>2020-07-11T13:50:24.062Z</time>
      </trkpt>
      <trkpt lat="45.77358" lon="2.98847">
        <ele>899</ele>
        <time>2020-07-11T13:50:25.062Z</time>
      </trkpt>
      <trkpt lat="45.7736" lon="2.98845">
        <ele>900</ele>
        <time>2020-07-11T13:50:26.062Z</time>
      </trkpt>
      <trkpt lat="45.77361" lon="2.98843">
        <ele>901</ele>
        <time>2020-07-11T13:50:27.062Z</time>
      </trkpt>
      <trkpt lat="45.77362" lon="2.98841">
        <ele>900</ele>
        <time>2020-07-11T13:50:28.062Z</time>
      </trkpt>
      <trkpt lat="45.77363" lon="2.98839">
        <ele>901</ele>
        <time>2020-07-11T13:50:29.062Z</time>
      </trkpt>
      <trkpt lat="45.77364" lon="2.98837">
        <ele>902</ele>
        <time>2020-07-11T13:50:30.062Z</time>
      </trkpt>
      <trkpt lat="45.77366" lon="2.98835">
        <ele>902</ele>
        <time>2020-07-11T13:50:31.062Z</time>
      </trkpt>
      <trkpt lat="45.77368" lon="2.98833">
        <ele>901</ele>
        <time>2020-07-11T13:50:32.062Z</time>
      </trkpt>
      <trkpt lat="45.77369" lon="2.9883">
        <ele>901</ele>
        <time>2020-07-11T13:50:33.062Z</time>
      </trkpt>
      <trkpt lat="45.77371" lon="2.98828">
        <ele>903</ele>
        <time>2020-07-11T13:50:34.062Z</time>
      </trkpt>
      <trkpt lat="45.77372" lon="2.98825">
        <ele>902</ele>
        <time>2020-07-11T13:50:35.062Z</time>
      </trkpt>
      <trkpt lat="45.77374" lon="2.98823">
        <ele>902</ele>
        <time>2020-07-11T13:50:36.062Z</time>
      </trkpt>
      <trkpt lat="45.77375" lon="2.98821">
        <ele>901</ele>
        <time>2020-07-11T13:50:37.062Z</time>
      </trkpt>
      <trkpt lat="45.77377" lon="2.98818">
        <ele>901</ele>
        <time>2020-07-11T13:50:38.062Z</time>
      </trkpt>
      <trkpt lat="45.77378" lon="2.98816">
        <ele>901</ele>
        <time>2020-07-11T13:50:39.062Z</time>
      </trkpt>
      <trkpt lat="45.7738" lon="2.98813">
        <ele>902</ele>
        <time>2020-07-11T13:50:40.062Z</time>
      </trkpt>
      <trkpt lat="45.77381" lon="2.98811">
        <ele>903</ele>
        <time>2020-07-11T13:50:41.062Z</time>
      </trkpt>
      <trkpt lat="45.77382" lon="2.98808">
        <ele>903</ele>
        <time>2020-07-11T13:50:42.062Z</time>
      </trkpt>
      <trkpt lat="45.77383" lon="2.98804">
        <ele>903</ele>
        <time>2020-07-11T13:50:43.062Z</time>
      </trkpt>
      <trkpt lat="45.77384" lon="2.98801">
        <ele>903</ele>
        <time>2020-07-11T13:50:44.062Z</time>
      </trkpt>
      <trkpt lat="45.77385" lon="2.98798">
        <ele>904</ele>
        <time>2020-07-11T13:50:45.062Z</time>
      </trkpt>
      <trkpt lat="45.77391" lon="2.98783">
        <ele>902</ele>
        <time>2020-07-11T13:50:46.109Z</time>
      </trkpt>
      <trkpt lat="45.77392" lon="2.98782">
        <ele>902</ele>
        <time>2020-07-11T13:50:47.109Z</time>
      </trkpt>
      <trkpt lat="45.77393" lon="2.98781">
        <ele>902</ele>
        <time>2020-07-11T13:50:48.109Z</time>
      </trkpt>
      <trkpt lat="45.77394" lon="2.9878">
        <ele>902</ele>
        <time>2020-07-11T13:50:49.109Z</time>
      </trkpt>
      <trkpt lat="45.77395" lon="2.98778">
        <ele>903</ele>
        <time>2020-07-11T13:50:50.109Z</time>
      </trkpt>
      <trkpt lat="45.77396" lon="2.98777">
        <ele>903</ele>
        <time>2020-07-11T13:50:51.109Z</time>
      </trkpt>
      <trkpt lat="45.77398" lon="2.98775">
        <ele>902</ele>
        <time>2020-07-11T13:50:52.109Z</time>
      </trkpt>
      <trkpt lat="45.774" lon="2.98772">
        <ele>902</ele>
        <time>2020-07-11T13:50:53.109Z</time>
      </trkpt>
      <trkpt lat="45.77402" lon="2.9877">
        <ele>902</ele>
        <time>2020-07-11T13:50:54.109Z</time>
      </trkpt>
      <trkpt lat="45.77404" lon="2.98768">
        <ele>902</ele>
        <time>2020-07-11T13:50:55.109Z</time>
      </trkpt>
      <trkpt lat="45.77405" lon="2.98765">
        <ele>903</ele>
        <time>2020-07-11T13:50:56.109Z</time>
      </trkpt>
      <trkpt lat="45.77407" lon="2.98763">
        <ele>903</ele>
        <time>2020-07-11T13:50:57.109Z</time>
      </trkpt>
      <trkpt lat="45.77409" lon="2.9876">
        <ele>903</ele>
        <time>2020-07-11T13:50:58.109Z</time>
      </trkpt>
      <trkpt lat="45.77411" lon="2.98757">
        <ele>904</ele>
        <time>2020-07-11T13:50:59.109Z</time>
      </trkpt>
      <trkpt lat="45.77412" lon="2.98755">
        <ele>904</ele>
        <time>2020-07-11T13:51:00.109Z</time>
      </trkpt>
      <trkpt lat="45.77414" lon="2.98752">
        <ele>903</ele>
        <time>2020-07-11T13:51:01.109Z</time>
      </trkpt>
      <trkpt lat="45.77416" lon="2.9875">
        <ele>904</ele>
        <time>2020-07-11T13:51:02.109Z</time>
      </trkpt>
      <trkpt lat="45.77417" lon="2.98747">
        <ele>904</ele>
        <time>2020-07-11T13:51:03.109Z</time>
      </trkpt>
      <trkpt lat="45.77419" lon="2.98744">
        <ele>904</ele>
        <time>2020-07-11T13:51:04.109Z</time>
      </trkpt>
      <trkpt lat="45.77421" lon="2.98741">
        <ele>905</ele>
        <time>2020-07-11T13:51:05.109Z</time>
      </trkpt>
      <trkpt lat="45.77423" lon="2.98738">
        <ele>905</ele>
        <time>2020-07-11T13:51:06.109Z</time>
      </trkpt>
      <trkpt lat="45.77424" lon="2.98735">
        <ele>905</ele>
        <time>2020-07-11T13:51:07.109Z</time>
      </trkpt>
      <trkpt lat="45.77426" lon="2.98732">
        <ele>905</ele>
        <time>2020-07-11T13:51:08.109Z</time>
      </trkpt>
      <trkpt lat="45.77427" lon="2.9873">
        <ele>905</ele>
        <time>2020-07-11T13:51:09.109Z</time>
      </trkpt>
      <trkpt lat="45.77429" lon="2.98729">
        <ele>905</ele>
        <time>2020-07-11T13:51:10.109Z</time>
      </trkpt>
      <trkpt lat="45.7743" lon="2.98727">
        <ele>905</ele>
        <time>2020-07-11T13:51:11.109Z</time>
      </trkpt>
      <trkpt lat="45.77431" lon="2.98725">
        <ele>905</ele>
        <time>2020-07-11T13:51:12.109Z</time>
      </trkpt>
      <trkpt lat="45.77432" lon="2.98723">
        <ele>906</ele>
        <time>2020-07-11T13:51:13.109Z</time>
      </trkpt>
      <trkpt lat="45.77433" lon="2.98721">
        <ele>905</ele>
        <time>2020-07-11T13:51:14.109Z</time>
      </trkpt>
      <trkpt lat="45.77434" lon="2.98718">
        <ele>904</ele>
        <time>2020-07-11T13:51:15.109Z</time>
      </trkpt>
      <trkpt lat="45.77436" lon="2.98716">
        <ele>904</ele>
        <time>2020-07-11T13:51:16.109Z</time>
      </trkpt>
      <trkpt lat="45.77438" lon="2.98714">
        <ele>904</ele>
        <time>2020-07-11T13:51:17.109Z</time>
      </trkpt>
      <trkpt lat="45.77439" lon="2.98711">
        <ele>904</ele>
        <time>2020-07-11T13:51:18.109Z</time>
      </trkpt>
      <trkpt lat="45.77441" lon="2.98709">
        <ele>904</ele>
        <time>2020-07-11T13:51:19.109Z</time>
      </trkpt>
      <trkpt lat="45.77443" lon="2.98706">
        <ele>904</ele>
        <time>2020-07-11T13:51:20.109Z</time>
      </trkpt>
      <trkpt lat="45.77444" lon="2.98703">
        <ele>903</ele>
        <time>2020-07-11T13:51:21.078Z</time>
      </trkpt>
      <trkpt lat="45.77443" lon="2.98705">
        <ele>903</ele>
        <time>2020-07-11T13:51:22.078Z</time>
      </trkpt>
      <trkpt lat="45.77442" lon="2.98707">
        <ele>902</ele>
        <time>2020-07-11T13:51:23.078Z</time>
      </trkpt>
      <trkpt lat="45.7744" lon="2.98709">
        <ele>903</ele>
        <time>2020-07-11T13:51:24.078Z</time>
      </trkpt>
      <trkpt lat="45.77438" lon="2.98712">
        <ele>903</ele>
        <time>2020-07-11T13:51:25.078Z</time>
      </trkpt>
      <trkpt lat="45.77436" lon="2.98714">
        <ele>903</ele>
        <time>2020-07-11T13:51:26.078Z</time>
      </trkpt>
      <trkpt lat="45.77433" lon="2.98715">
        <ele>903</ele>
        <time>2020-07-11T13:51:27.078Z</time>
      </trkpt>
      <trkpt lat="45.7743" lon="2.98714">
        <ele>903</ele>
        <time>2020-07-11T13:51:28.078Z</time>
      </trkpt>
      <trkpt lat="45.77427" lon="2.98712">
        <ele>902</ele>
        <time>2020-07-11T13:51:29.078Z</time>
      </trkpt>
      <trkpt lat="45.77424" lon="2.98709">
        <ele>901</ele>
        <time>2020-07-11T13:51:30.078Z</time>
      </trkpt>
      <trkpt lat="45.77422" lon="2.98706">
        <ele>902</ele>
        <time>2020-07-11T13:51:31.078Z</time>
      </trkpt>
      <trkpt lat="45.77419" lon="2.98703">
        <ele>901</ele>
        <time>2020-07-11T13:51:32.078Z</time>
      </trkpt>
      <trkpt lat="45.77417" lon="2.987">
        <ele>901</ele>
        <time>2020-07-11T13:51:33.078Z</time>
      </trkpt>
      <trkpt lat="45.77415" lon="2.98697">
        <ele>900</ele>
        <time>2020-07-11T13:51:34.078Z</time>
      </trkpt>
      <trkpt lat="45.77413" lon="2.98694">
        <ele>900</ele>
        <time>2020-07-11T13:51:35.078Z</time>
      </trkpt>
      <trkpt lat="45.77412" lon="2.98691">
        <ele>901</ele>
        <time>2020-07-11T13:51:36.078Z</time>
      </trkpt>
      <trkpt lat="45.77411" lon="2.98687">
        <ele>900</ele>
        <time>2020-07-11T13:51:37.078Z</time>
      </trkpt>
      <trkpt lat="45.77409" lon="2.98684">
        <ele>900</ele>
        <time>2020-07-11T13:51:38.078Z</time>
      </trkpt>
      <trkpt lat="45.77409" lon="2.9868">
        <ele>901</ele>
        <time>2020-07-11T13:51:39.078Z</time>
      </trkpt>
      <trkpt lat="45.77408" lon="2.98676">
        <ele>901</ele>
        <time>2020-07-11T13:51:40.078Z</time>
      </trkpt>
      <trkpt lat="45.77407" lon="2.98673">
        <ele>901</ele>
        <time>2020-07-11T13:51:41.078Z</time>
      </trkpt>
      <trkpt lat="45.77406" lon="2.9867">
        <ele>901</ele>
        <time>2020-07-11T13:51:42.078Z</time>
      </trkpt>
      <trkpt lat="45.77406" lon="2.98667">
        <ele>901</ele>
        <time>2020-07-11T13:51:43.078Z</time>
      </trkpt>
      <trkpt lat="45.77405" lon="2.98664">
        <ele>901</ele>
        <time>2020-07-11T13:51:44.078Z</time>
      </trkpt>
      <trkpt lat="45.77404" lon="2.98661">
        <ele>901</ele>
        <time>2020-07-11T13:51:45.078Z</time>
      </trkpt>
      <trkpt lat="45.77403" lon="2.98658">
        <ele>901</ele>
        <time>2020-07-11T13:51:46.078Z</time>
      </trkpt>
      <trkpt lat="45.77403" lon="2.98655">
        <ele>901</ele>
        <time>2020-07-11T13:51:47.078Z</time>
      </trkpt>
      <trkpt lat="45.77402" lon="2.98652">
        <ele>901</ele>
        <time>2020-07-11T13:51:48.078Z</time>
      </trkpt>
      <trkpt lat="45.77401" lon="2.98648">
        <ele>900</ele>
        <time>2020-07-11T13:51:49.078Z</time>
      </trkpt>
      <trkpt lat="45.77399" lon="2.98645">
        <ele>900</ele>
        <time>2020-07-11T13:51:50.078Z</time>
      </trkpt>
      <trkpt lat="45.77398" lon="2.98641">
        <ele>900</ele>
        <time>2020-07-11T13:51:51.078Z</time>
      </trkpt>
      <trkpt lat="45.77397" lon="2.98637">
        <ele>900</ele>
        <time>2020-07-11T13:51:52.078Z</time>
      </trkpt>
      <trkpt lat="45.77396" lon="2.98634">
        <ele>900</ele>
        <time>2020-07-11T13:51:53.078Z</time>
      </trkpt>
      <trkpt lat="45.77396" lon="2.9863">
        <ele>899</ele>
        <time>2020-07-11T13:51:54.078Z</time>
      </trkpt>
      <trkpt lat="45.77395" lon="2.98626">
        <ele>899</ele>
        <time>2020-07-11T13:51:55.078Z</time>
      </trkpt>
      <trkpt lat="45.77394" lon="2.98622">
        <ele>899</ele>
        <time>2020-07-11T13:51:56.078Z</time>
      </trkpt>
      <trkpt lat="45.77393" lon="2.98618">
        <ele>899</ele>
        <time>2020-07-11T13:51:57.078Z</time>
      </trkpt>
      <trkpt lat="45.77393" lon="2.98614">
        <ele>899</ele>
        <time>2020-07-11T13:51:58.078Z</time>
      </trkpt>
      <trkpt lat="45.77392" lon="2.98611">
        <ele>899</ele>
        <time>2020-07-11T13:51:59.078Z</time>
      </trkpt>
      <trkpt lat="45.77391" lon="2.98607">
        <ele>899</ele>
        <time>2020-07-11T13:52:00.078Z</time>
      </trkpt>
      <trkpt lat="45.7739" lon="2.98603">
        <ele>899</ele>
        <time>2020-07-11T13:52:01.078Z</time>
      </trkpt>
      <trkpt lat="45.7739" lon="2.98599">
        <ele>899</ele>
        <time>2020-07-11T13:52:02.078Z</time>
      </trkpt>
      <trkpt lat="45.77389" lon="2.98595">
        <ele>899</ele>
        <time>2020-07-11T13:52:03.078Z</time>
      </trkpt>
      <trkpt lat="45.77389" lon="2.98591">
        <ele>899</ele>
        <time>2020-07-11T13:52:04.078Z</time>
      </trkpt>
      <trkpt lat="45.77388" lon="2.98588">
        <ele>899</ele>
        <time>2020-07-11T13:52:05.078Z</time>
      </trkpt>
      <trkpt lat="45.77388" lon="2.98584">
        <ele>899</ele>
        <time>2020-07-11T13:52:06.078Z</time>
      </trkpt>
      <trkpt lat="45.77387" lon="2.9858">
        <ele>899</ele>
        <time>2020-07-11T13:52:07.078Z</time>
      </trkpt>
      <trkpt lat="45.77386" lon="2.98576">
        <ele>900</ele>
        <time>2020-07-11T13:52:08.078Z</time>
      </trkpt>
      <trkpt lat="45.77386" lon="2.98573">
        <ele>900</ele>
        <time>2020-07-11T13:52:09.078Z</time>
      </trkpt>
      <trkpt lat="45.77385" lon="2.98569">
        <ele>900</ele>
        <time>2020-07-11T13:52:10.078Z</time>
      </trkpt>
      <trkpt lat="45.77385" lon="2.98565">
        <ele>900</ele>
        <time>2020-07-11T13:52:11.078Z</time>
      </trkpt>
      <trkpt lat="45.77385" lon="2.98561">
        <ele>900</ele>
        <time>2020-07-11T13:52:12.078Z</time>
      </trkpt>
      <trkpt lat="45.77385" lon="2.98557">
        <ele>900</ele>
        <time>2020-07-11T13:52:13.078Z</time>
      </trkpt>
      <trkpt lat="45.77384" lon="2.98553">
        <ele>900</ele>
        <time>2020-07-11T13:52:14.078Z</time>
      </trkpt>
      <trkpt lat="45.77384" lon="2.98549">
        <ele>900</ele>
        <time>2020-07-11T13:52:15.078Z</time>
      </trkpt>
      <trkpt lat="45.77383" lon="2.98546">
        <ele>901</ele>
        <time>2020-07-11T13:52:16.078Z</time>
      </trkpt>
      <trkpt lat="45.77383" lon="2.98542">
        <ele>900</ele>
        <time>2020-07-11T13:52:17.078Z</time>
      </trkpt>
      <trkpt lat="45.77382" lon="2.98538">
        <ele>900</ele>
        <time>2020-07-11T13:52:18.078Z</time>
      </trkpt>
      <trkpt lat="45.77382" lon="2.98535">
        <ele>901</ele>
        <time>2020-07-11T13:52:19.078Z</time>
      </trkpt>
      <trkpt lat="45.77382" lon="2.98531">
        <ele>901</ele>
        <time>2020-07-11T13:52:20.078Z</time>
      </trkpt>
      <trkpt lat="45.77381" lon="2.98528">
        <ele>901</ele>
        <time>2020-07-11T13:52:21.078Z</time>
      </trkpt>
      <trkpt lat="45.77381" lon="2.98524">
        <ele>901</ele>
        <time>2020-07-11T13:52:22.078Z</time>
      </trkpt>
      <trkpt lat="45.7738" lon="2.9852">
        <ele>902</ele>
        <time>2020-07-11T13:52:23.078Z</time>
      </trkpt>
      <trkpt lat="45.7738" lon="2.98517">
        <ele>902</ele>
        <time>2020-07-11T13:52:24.078Z</time>
      </trkpt>
      <trkpt lat="45.77381" lon="2.98513">
        <ele>902</ele>
        <time>2020-07-11T13:52:25.078Z</time>
      </trkpt>
      <trkpt lat="45.77382" lon="2.9851">
        <ele>903</ele>
        <time>2020-07-11T13:52:26.078Z</time>
      </trkpt>
      <trkpt lat="45.77383" lon="2.98507">
        <ele>903</ele>
        <time>2020-07-11T13:52:27.078Z</time>
      </trkpt>
      <trkpt lat="45.77385" lon="2.98504">
        <ele>902</ele>
        <time>2020-07-11T13:52:28.078Z</time>
      </trkpt>
      <trkpt lat="45.77388" lon="2.98501">
        <ele>902</ele>
        <time>2020-07-11T13:52:29.078Z</time>
      </trkpt>
      <trkpt lat="45.7739" lon="2.98499">
        <ele>903</ele>
        <time>2020-07-11T13:52:30.078Z</time>
      </trkpt>
      <trkpt lat="45.77392" lon="2.98496">
        <ele>903</ele>
        <time>2020-07-11T13:52:31.078Z</time>
      </trkpt>
      <trkpt lat="45.77394" lon="2.98494">
        <ele>904</ele>
        <time>2020-07-11T13:52:32.078Z</time>
      </trkpt>
      <trkpt lat="45.77395" lon="2.98491">
        <ele>904</ele>
        <time>2020-07-11T13:52:33.078Z</time>
      </trkpt>
      <trkpt lat="45.77397" lon="2.98489">
        <ele>904</ele>
        <time>2020-07-11T13:52:34.078Z</time>
      </trkpt>
      <trkpt lat="45.77399" lon="2.98487">
        <ele>905</ele>
        <time>2020-07-11T13:52:35.078Z</time>
      </trkpt>
      <trkpt lat="45.77401" lon="2.98485">
        <ele>905</ele>
        <time>2020-07-11T13:52:36.078Z</time>
      </trkpt>
      <trkpt lat="45.77403" lon="2.98482">
        <ele>905</ele>
        <time>2020-07-11T13:52:37.078Z</time>
      </trkpt>
      <trkpt lat="45.77404" lon="2.9848">
        <ele>905</ele>
        <time>2020-07-11T13:52:38.078Z</time>
      </trkpt>
      <trkpt lat="45.77406" lon="2.98478">
        <ele>905</ele>
        <time>2020-07-11T13:52:39.078Z</time>
      </trkpt>
      <trkpt lat="45.77408" lon="2.98476">
        <ele>906</ele>
        <time>2020-07-11T13:52:40.078Z</time>
      </trkpt>
      <trkpt lat="45.7741" lon="2.98474">
        <ele>906</ele>
        <time>2020-07-11T13:52:41.078Z</time>
      </trkpt>
      <trkpt lat="45.77412" lon="2.98471">
        <ele>906</ele>
        <time>2020-07-11T13:52:42.078Z</time>
      </trkpt>
      <trkpt lat="45.77414" lon="2.98469">
        <ele>907</ele>
        <time>2020-07-11T13:52:43.078Z</time>
      </trkpt>
      <trkpt lat="45.77416" lon="2.98466">
        <ele>907</ele>
        <time>2020-07-11T13:52:44.078Z</time>
      </trkpt>
      <trkpt lat="45.77417" lon="2.98464">
        <ele>907</ele>
        <time>2020-07-11T13:52:45.078Z</time>
      </trkpt>
      <trkpt lat="45.77419" lon="2.98461">
        <ele>907</ele>
        <time>2020-07-11T13:52:46.078Z</time>
      </trkpt>
      <trkpt lat="45.77421" lon="2.98459">
        <ele>908</ele>
        <time>2020-07-11T13:52:47.078Z</time>
      </trkpt>
      <trkpt lat="45.77423" lon="2.98457">
        <ele>908</ele>
        <time>2020-07-11T13:52:48.078Z</time>
      </trkpt>
      <trkpt lat="45.77425" lon="2.98454">
        <ele>908</ele>
        <time>2020-07-11T13:52:49.078Z</time>
      </trkpt>
      <trkpt lat="45.77427" lon="2.98451">
        <ele>909</ele>
        <time>2020-07-11T13:52:50.078Z</time>
      </trkpt>
      <trkpt lat="45.77429" lon="2.98449">
        <ele>908</ele>
        <time>2020-07-11T13:52:51.078Z</time>
      </trkpt>
      <trkpt lat="45.77431" lon="2.98447">
        <ele>908</ele>
        <time>2020-07-11T13:52:52.078Z</time>
      </trkpt>
      <trkpt lat="45.77433" lon="2.98445">
        <ele>908</ele>
        <time>2020-07-11T13:52:53.078Z</time>
      </trkpt>
      <trkpt lat="45.77435" lon="2.98444">
        <ele>909</ele>
        <time>2020-07-11T13:52:54.078Z</time>
      </trkpt>
      <trkpt lat="45.77437" lon="2.98442">
        <ele>909</ele>
        <time>2020-07-11T13:52:55.078Z</time>
      </trkpt>
      <trkpt lat="45.77438" lon="2.98439">
        <ele>909</ele>
        <time>2020-07-11T13:52:56.078Z</time>
      </trkpt>
      <trkpt lat="45.7744" lon="2.98437">
        <ele>909</ele>
        <time>2020-07-11T13:52:57.078Z</time>
      </trkpt>
      <trkpt lat="45.77442" lon="2.98435">
        <ele>909</ele>
        <time>2020-07-11T13:52:58.078Z</time>
      </trkpt>
      <trkpt lat="45.77444" lon="2.98433">
        <ele>909</ele>
        <time>2020-07-11T13:52:59.078Z</time>
      </trkpt>
      <trkpt lat="45.77446" lon="2.98431">
        <ele>909</ele>
        <time>2020-07-11T13:53:00.078Z</time>
      </trkpt>
      <trkpt lat="45.77448" lon="2.98429">
        <ele>909</ele>
        <time>2020-07-11T13:53:01.078Z</time>
      </trkpt>
      <trkpt lat="45.7745" lon="2.98427">
        <ele>909</ele>
        <time>2020-07-11T13:53:02.078Z</time>
      </trkpt>
      <trkpt lat="45.77452" lon="2.98425">
        <ele>910</ele>
        <time>2020-07-11T13:53:03.078Z</time>
      </trkpt>
      <trkpt lat="45.77454" lon="2.98423">
        <ele>910</ele>
        <time>2020-07-11T13:53:04.078Z</time>
      </trkpt>
      <trkpt lat="45.77456" lon="2.9842">
        <ele>910</ele>
        <time>2020-07-11T13:53:05.078Z</time>
      </trkpt>
      <trkpt lat="45.77458" lon="2.98418">
        <ele>910</ele>
        <time>2020-07-11T13:53:06.078Z</time>
      </trkpt>
      <trkpt lat="45.7746" lon="2.98416">
        <ele>910</ele>
        <time>2020-07-11T13:53:07.078Z</time>
      </trkpt>
      <trkpt lat="45.77462" lon="2.98413">
        <ele>911</ele>
        <time>2020-07-11T13:53:08.078Z</time>
      </trkpt>
      <trkpt lat="45.77464" lon="2.98411">
        <ele>911</ele>
        <time>2020-07-11T13:53:09.078Z</time>
      </trkpt>
      <trkpt lat="45.77466" lon="2.98408">
        <ele>911</ele>
        <time>2020-07-11T13:53:10.078Z</time>
      </trkpt>
      <trkpt lat="45.77468" lon="2.98406">
        <ele>911</ele>
        <time>2020-07-11T13:53:11.078Z</time>
      </trkpt>
      <trkpt lat="45.7747" lon="2.98404">
        <ele>911</ele>
        <time>2020-07-11T13:53:12.078Z</time>
      </trkpt>
      <trkpt lat="45.77472" lon="2.98402">
        <ele>911</ele>
        <time>2020-07-11T13:53:13.078Z</time>
      </trkpt>
      <trkpt lat="45.77473" lon="2.98401">
        <ele>911</ele>
        <time>2020-07-11T13:53:14.078Z</time>
      </trkpt>
      <trkpt lat="45.77476" lon="2.98399">
        <ele>911</ele>
        <time>2020-07-11T13:53:15.078Z</time>
      </trkpt>
      <trkpt lat="45.77478" lon="2.98397">
        <ele>911</ele>
        <time>2020-07-11T13:53:16.078Z</time>
      </trkpt>
      <trkpt lat="45.7748" lon="2.98395">
        <ele>911</ele>
        <time>2020-07-11T13:53:17.078Z</time>
      </trkpt>
      <trkpt lat="45.77482" lon="2.98393">
        <ele>911</ele>
        <time>2020-07-11T13:53:18.078Z</time>
      </trkpt>
      <trkpt lat="45.77484" lon="2.9839">
        <ele>912</ele>
        <time>2020-07-11T13:53:19.078Z</time>
      </trkpt>
      <trkpt lat="45.77486" lon="2.98388">
        <ele>912</ele>
        <time>2020-07-11T13:53:20.078Z</time>
      </trkpt>
      <trkpt lat="45.77488" lon="2.98386">
        <ele>913</ele>
        <time>2020-07-11T13:53:21.078Z</time>
      </trkpt>
      <trkpt lat="45.7749" lon="2.98384">
        <ele>912</ele>
        <time>2020-07-11T13:53:22.078Z</time>
      </trkpt>
      <trkpt lat="45.77492" lon="2.98382">
        <ele>912</ele>
        <time>2020-07-11T13:53:23.078Z</time>
      </trkpt>
      <trkpt lat="45.77494" lon="2.98381">
        <ele>912</ele>
        <time>2020-07-11T13:53:24.078Z</time>
      </trkpt>
      <trkpt lat="45.77495" lon="2.98379">
        <ele>913</ele>
        <time>2020-07-11T13:53:25.078Z</time>
      </trkpt>
      <trkpt lat="45.77497" lon="2.98377">
        <ele>913</ele>
        <time>2020-07-11T13:53:26.078Z</time>
      </trkpt>
      <trkpt lat="45.77499" lon="2.98375">
        <ele>913</ele>
        <time>2020-07-11T13:53:27.078Z</time>
      </trkpt>
      <trkpt lat="45.77502" lon="2.98373">
        <ele>914</ele>
        <time>2020-07-11T13:53:28.078Z</time>
      </trkpt>
      <trkpt lat="45.77504" lon="2.98371">
        <ele>914</ele>
        <time>2020-07-11T13:53:29.078Z</time>
      </trkpt>
      <trkpt lat="45.77505" lon="2.98369">
        <ele>914</ele>
        <time>2020-07-11T13:53:30.078Z</time>
      </trkpt>
      <trkpt lat="45.77507" lon="2.98367">
        <ele>914</ele>
        <time>2020-07-11T13:53:31.078Z</time>
      </trkpt>
      <trkpt lat="45.77509" lon="2.98366">
        <ele>914</ele>
        <time>2020-07-11T13:53:32.078Z</time>
      </trkpt>
      <trkpt lat="45.77511" lon="2.98364">
        <ele>914</ele>
        <time>2020-07-11T13:53:33.078Z</time>
      </trkpt>
      <trkpt lat="45.77513" lon="2.98363">
        <ele>914</ele>
        <time>2020-07-11T13:53:34.078Z</time>
      </trkpt>
      <trkpt lat="45.77515" lon="2.98361">
        <ele>914</ele>
        <time>2020-07-11T13:53:35.078Z</time>
      </trkpt>
      <trkpt lat="45.77517" lon="2.98359">
        <ele>915</ele>
        <time>2020-07-11T13:53:36.078Z</time>
      </trkpt>
      <trkpt lat="45.77519" lon="2.98357">
        <ele>915</ele>
        <time>2020-07-11T13:53:37.078Z</time>
      </trkpt>
      <trkpt lat="45.77521" lon="2.98355">
        <ele>915</ele>
        <time>2020-07-11T13:53:38.078Z</time>
      </trkpt>
      <trkpt lat="45.77523" lon="2.98353">
        <ele>915</ele>
        <time>2020-07-11T13:53:39.078Z</time>
      </trkpt>
      <trkpt lat="45.77526" lon="2.98351">
        <ele>915</ele>
        <time>2020-07-11T13:53:40.078Z</time>
      </trkpt>
      <trkpt lat="45.77528" lon="2.98349">
        <ele>915</ele>
        <time>2020-07-11T13:53:41.078Z</time>
      </trkpt>
      <trkpt lat="45.7753" lon="2.98347">
        <ele>915</ele>
        <time>2020-07-11T13:53:42.078Z</time>
      </trkpt>
      <trkpt lat="45.77533" lon="2.98345">
        <ele>915</ele>
        <time>2020-07-11T13:53:43.078Z</time>
      </trkpt>
      <trkpt lat="45.77535" lon="2.98342">
        <ele>915</ele>
        <time>2020-07-11T13:53:44.078Z</time>
      </trkpt>
      <trkpt lat="45.77537" lon="2.98339">
        <ele>915</ele>
        <time>2020-07-11T13:53:45.078Z</time>
      </trkpt>
      <trkpt lat="45.77538" lon="2.98336">
        <ele>915</ele>
        <time>2020-07-11T13:53:46.078Z</time>
      </trkpt>
      <trkpt lat="45.7754" lon="2.98332">
        <ele>916</ele>
        <time>2020-07-11T13:53:47.078Z</time>
      </trkpt>
      <trkpt lat="45.7754" lon="2.98327">
        <ele>920</ele>
        <time>2020-07-11T13:53:48.078Z</time>
      </trkpt>
      <trkpt lat="45.77539" lon="2.98322">
        <ele>921</ele>
        <time>2020-07-11T13:53:49.078Z</time>
      </trkpt>
      <trkpt lat="45.77536" lon="2.98319">
        <ele>922</ele>
        <time>2020-07-11T13:53:50.078Z</time>
      </trkpt>
      <trkpt lat="45.77533" lon="2.98318">
        <ele>923</ele>
        <time>2020-07-11T13:53:51.078Z</time>
      </trkpt>
      <trkpt lat="45.77529" lon="2.98317">
        <ele>923</ele>
        <time>2020-07-11T13:53:52.078Z</time>
      </trkpt>
      <trkpt lat="45.77525" lon="2.98316">
        <ele>923</ele>
        <time>2020-07-11T13:53:53.078Z</time>
      </trkpt>
      <trkpt lat="45.77523" lon="2.98315">
        <ele>924</ele>
        <time>2020-07-11T13:53:54.078Z</time>
      </trkpt>
      <trkpt lat="45.7752" lon="2.98314">
        <ele>925</ele>
        <time>2020-07-11T13:53:55.078Z</time>
      </trkpt>
      <trkpt lat="45.77518" lon="2.98313">
        <ele>924</ele>
        <time>2020-07-11T13:53:56.078Z</time>
      </trkpt>
      <trkpt lat="45.77516" lon="2.98312">
        <ele>924</ele>
        <time>2020-07-11T13:53:57.078Z</time>
      </trkpt>
      <trkpt lat="45.77514" lon="2.98311">
        <ele>924</ele>
        <time>2020-07-11T13:53:58.078Z</time>
      </trkpt>
      <trkpt lat="45.77511" lon="2.98309">
        <ele>924</ele>
        <time>2020-07-11T13:53:59.078Z</time>
      </trkpt>
      <trkpt lat="45.77509" lon="2.98308">
        <ele>924</ele>
        <time>2020-07-11T13:54:00.078Z</time>
      </trkpt>
      <trkpt lat="45.77507" lon="2.98307">
        <ele>924</ele>
        <time>2020-07-11T13:54:01.078Z</time>
      </trkpt>
      <trkpt lat="45.77504" lon="2.98306">
        <ele>924</ele>
        <time>2020-07-11T13:54:02.078Z</time>
      </trkpt>
      <trkpt lat="45.77502" lon="2.98305">
        <ele>924</ele>
        <time>2020-07-11T13:54:03.078Z</time>
      </trkpt>
      <trkpt lat="45.77499" lon="2.98303">
        <ele>924</ele>
        <time>2020-07-11T13:54:04.078Z</time>
      </trkpt>
      <trkpt lat="45.77497" lon="2.98302">
        <ele>924</ele>
        <time>2020-07-11T13:54:05.078Z</time>
      </trkpt>
      <trkpt lat="45.77495" lon="2.983">
        <ele>923</ele>
        <time>2020-07-11T13:54:06.078Z</time>
      </trkpt>
      <trkpt lat="45.77492" lon="2.98299">
        <ele>924</ele>
        <time>2020-07-11T13:54:07.078Z</time>
      </trkpt>
      <trkpt lat="45.7749" lon="2.98297">
        <ele>923</ele>
        <time>2020-07-11T13:54:08.078Z</time>
      </trkpt>
      <trkpt lat="45.77487" lon="2.98294">
        <ele>922</ele>
        <time>2020-07-11T13:54:09.078Z</time>
      </trkpt>
      <trkpt lat="45.77485" lon="2.98292">
        <ele>922</ele>
        <time>2020-07-11T13:54:10.078Z</time>
      </trkpt>
      <trkpt lat="45.77483" lon="2.9829">
        <ele>922</ele>
        <time>2020-07-11T13:54:11.078Z</time>
      </trkpt>
      <trkpt lat="45.77481" lon="2.98289">
        <ele>922</ele>
        <time>2020-07-11T13:54:12.078Z</time>
      </trkpt>
      <trkpt lat="45.77479" lon="2.98288">
        <ele>922</ele>
        <time>2020-07-11T13:54:13.078Z</time>
      </trkpt>
      <trkpt lat="45.77476" lon="2.98288">
        <ele>922</ele>
        <time>2020-07-11T13:54:14.078Z</time>
      </trkpt>
      <trkpt lat="45.77474" lon="2.98286">
        <ele>922</ele>
        <time>2020-07-11T13:54:15.078Z</time>
      </trkpt>
      <trkpt lat="45.77472" lon="2.98285">
        <ele>923</ele>
        <time>2020-07-11T13:54:16.078Z</time>
      </trkpt>
      <trkpt lat="45.7747" lon="2.98284">
        <ele>923</ele>
        <time>2020-07-11T13:54:17.078Z</time>
      </trkpt>
      <trkpt lat="45.77467" lon="2.98282">
        <ele>924</ele>
        <time>2020-07-11T13:54:18.078Z</time>
      </trkpt>
      <trkpt lat="45.77465" lon="2.98281">
        <ele>923</ele>
        <time>2020-07-11T13:54:19.078Z</time>
      </trkpt>
      <trkpt lat="45.77463" lon="2.98281">
        <ele>924</ele>
        <time>2020-07-11T13:54:20.078Z</time>
      </trkpt>
      <trkpt lat="45.77462" lon="2.98279">
        <ele>923</ele>
        <time>2020-07-11T13:54:21.078Z</time>
      </trkpt>
      <trkpt lat="45.7746" lon="2.98278">
        <ele>923</ele>
        <time>2020-07-11T13:54:22.078Z</time>
      </trkpt>
      <trkpt lat="45.77458" lon="2.98277">
        <ele>923</ele>
        <time>2020-07-11T13:54:23.078Z</time>
      </trkpt>
      <trkpt lat="45.77456" lon="2.98276">
        <ele>923</ele>
        <time>2020-07-11T13:54:24.078Z</time>
      </trkpt>
      <trkpt lat="45.77453" lon="2.98275">
        <ele>923</ele>
        <time>2020-07-11T13:54:25.078Z</time>
      </trkpt>
      <trkpt lat="45.7745" lon="2.98274">
        <ele>922</ele>
        <time>2020-07-11T13:54:26.078Z</time>
      </trkpt>
      <trkpt lat="45.77447" lon="2.98273">
        <ele>923</ele>
        <time>2020-07-11T13:54:27.078Z</time>
      </trkpt>
      <trkpt lat="45.77444" lon="2.98273">
        <ele>923</ele>
        <time>2020-07-11T13:54:28.078Z</time>
      </trkpt>
      <trkpt lat="45.77441" lon="2.98272">
        <ele>924</ele>
        <time>2020-07-11T13:54:29.078Z</time>
      </trkpt>
      <trkpt lat="45.77438" lon="2.98271">
        <ele>923</ele>
        <time>2020-07-11T13:54:30.078Z</time>
      </trkpt>
      <trkpt lat="45.77435" lon="2.98271">
        <ele>922</ele>
        <time>2020-07-11T13:54:31.078Z</time>
      </trkpt>
      <trkpt lat="45.77432" lon="2.9827">
        <ele>921</ele>
        <time>2020-07-11T13:54:32.078Z</time>
      </trkpt>
      <trkpt lat="45.77429" lon="2.9827">
        <ele>921</ele>
        <time>2020-07-11T13:54:33.078Z</time>
      </trkpt>
      <trkpt lat="45.77426" lon="2.9827">
        <ele>921</ele>
        <time>2020-07-11T13:54:34.078Z</time>
      </trkpt>
      <trkpt lat="45.77423" lon="2.98269">
        <ele>921</ele>
        <time>2020-07-11T13:54:35.078Z</time>
      </trkpt>
      <trkpt lat="45.7742" lon="2.98269">
        <ele>921</ele>
        <time>2020-07-11T13:54:36.078Z</time>
      </trkpt>
      <trkpt lat="45.77417" lon="2.98268">
        <ele>921</ele>
        <time>2020-07-11T13:54:37.078Z</time>
      </trkpt>
      <trkpt lat="45.77414" lon="2.98268">
        <ele>921</ele>
        <time>2020-07-11T13:54:38.078Z</time>
      </trkpt>
      <trkpt lat="45.77412" lon="2.98267">
        <ele>921</ele>
        <time>2020-07-11T13:54:39.078Z</time>
      </trkpt>
      <trkpt lat="45.77409" lon="2.98265">
        <ele>921</ele>
        <time>2020-07-11T13:54:40.078Z</time>
      </trkpt>
      <trkpt lat="45.77406" lon="2.98264">
        <ele>921</ele>
        <time>2020-07-11T13:54:41.078Z</time>
      </trkpt>
      <trkpt lat="45.77404" lon="2.98263">
        <ele>921</ele>
        <time>2020-07-11T13:54:42.078Z</time>
      </trkpt>
      <trkpt lat="45.77401" lon="2.98261">
        <ele>920</ele>
        <time>2020-07-11T13:54:43.078Z</time>
      </trkpt>
      <trkpt lat="45.77398" lon="2.98259">
        <ele>920</ele>
        <time>2020-07-11T13:54:44.078Z</time>
      </trkpt>
      <trkpt lat="45.77395" lon="2.98257">
        <ele>920</ele>
        <time>2020-07-11T13:54:45.078Z</time>
      </trkpt>
      <trkpt lat="45.77393" lon="2.98256">
        <ele>920</ele>
        <time>2020-07-11T13:54:46.078Z</time>
      </trkpt>
      <trkpt lat="45.7739" lon="2.98254">
        <ele>920</ele>
        <time>2020-07-11T13:54:47.078Z</time>
      </trkpt>
      <trkpt lat="45.77387" lon="2.98252">
        <ele>919</ele>
        <time>2020-07-11T13:54:48.078Z</time>
      </trkpt>
      <trkpt lat="45.77385" lon="2.98251">
        <ele>919</ele>
        <time>2020-07-11T13:54:49.078Z</time>
      </trkpt>
      <trkpt lat="45.77382" lon="2.98249">
        <ele>919</ele>
        <time>2020-07-11T13:54:50.078Z</time>
      </trkpt>
      <trkpt lat="45.7738" lon="2.98247">
        <ele>919</ele>
        <time>2020-07-11T13:54:51.078Z</time>
      </trkpt>
      <trkpt lat="45.77378" lon="2.98246">
        <ele>919</ele>
        <time>2020-07-11T13:54:52.078Z</time>
      </trkpt>
      <trkpt lat="45.77375" lon="2.98244">
        <ele>920</ele>
        <time>2020-07-11T13:54:53.078Z</time>
      </trkpt>
      <trkpt lat="45.77373" lon="2.98243">
        <ele>920</ele>
        <time>2020-07-11T13:54:54.078Z</time>
      </trkpt>
      <trkpt lat="45.7737" lon="2.98242">
        <ele>921</ele>
        <time>2020-07-11T13:54:55.078Z</time>
      </trkpt>
      <trkpt lat="45.77368" lon="2.98241">
        <ele>922</ele>
        <time>2020-07-11T13:54:56.078Z</time>
      </trkpt>
      <trkpt lat="45.77366" lon="2.9824">
        <ele>922</ele>
        <time>2020-07-11T13:54:57.078Z</time>
      </trkpt>
      <trkpt lat="45.77364" lon="2.98239">
        <ele>921</ele>
        <time>2020-07-11T13:54:58.078Z</time>
      </trkpt>
      <trkpt lat="45.77362" lon="2.98238">
        <ele>921</ele>
        <time>2020-07-11T13:54:59.078Z</time>
      </trkpt>
      <trkpt lat="45.7736" lon="2.98236">
        <ele>921</ele>
        <time>2020-07-11T13:55:00.078Z</time>
      </trkpt>
      <trkpt lat="45.77358" lon="2.98235">
        <ele>921</ele>
        <time>2020-07-11T13:55:01.078Z</time>
      </trkpt>
      <trkpt lat="45.77356" lon="2.98233">
        <ele>921</ele>
        <time>2020-07-11T13:55:02.078Z</time>
      </trkpt>
      <trkpt lat="45.77353" lon="2.98231">
        <ele>920</ele>
        <time>2020-07-11T13:55:03.078Z</time>
      </trkpt>
      <trkpt lat="45.77351" lon="2.9823">
        <ele>920</ele>
        <time>2020-07-11T13:55:04.078Z</time>
      </trkpt>
      <trkpt lat="45.77348" lon="2.98228">
        <ele>920</ele>
        <time>2020-07-11T13:55:05.078Z</time>
      </trkpt>
      <trkpt lat="45.77346" lon="2.98227">
        <ele>921</ele>
        <time>2020-07-11T13:55:06.078Z</time>
      </trkpt>
      <trkpt lat="45.77344" lon="2.98225">
        <ele>921</ele>
        <time>2020-07-11T13:55:07.078Z</time>
      </trkpt>
      <trkpt lat="45.77342" lon="2.98224">
        <ele>922</ele>
        <time>2020-07-11T13:55:08.078Z</time>
      </trkpt>
      <trkpt lat="45.7734" lon="2.98223">
        <ele>923</ele>
        <time>2020-07-11T13:55:09.078Z</time>
      </trkpt>
      <trkpt lat="45.77337" lon="2.98223">
        <ele>924</ele>
        <time>2020-07-11T13:55:10.078Z</time>
      </trkpt>
      <trkpt lat="45.77335" lon="2.98222">
        <ele>924</ele>
        <time>2020-07-11T13:55:11.078Z</time>
      </trkpt>
      <trkpt lat="45.77333" lon="2.98221">
        <ele>923</ele>
        <time>2020-07-11T13:55:12.078Z</time>
      </trkpt>
      <trkpt lat="45.77331" lon="2.98219">
        <ele>923</ele>
        <time>2020-07-11T13:55:13.078Z</time>
      </trkpt>
      <trkpt lat="45.77328" lon="2.98218">
        <ele>924</ele>
        <time>2020-07-11T13:55:14.078Z</time>
      </trkpt>
      <trkpt lat="45.77326" lon="2.98218">
        <ele>926</ele>
        <time>2020-07-11T13:55:15.078Z</time>
      </trkpt>
      <trkpt lat="45.77323" lon="2.98217">
        <ele>925</ele>
        <time>2020-07-11T13:55:16.078Z</time>
      </trkpt>
      <trkpt lat="45.7732" lon="2.98216">
        <ele>926</ele>
        <time>2020-07-11T13:55:17.078Z</time>
      </trkpt>
      <trkpt lat="45.77318" lon="2.98216">
        <ele>927</ele>
        <time>2020-07-11T13:55:18.078Z</time>
      </trkpt>
      <trkpt lat="45.77316" lon="2.98214">
        <ele>928</ele>
        <time>2020-07-11T13:55:19.078Z</time>
      </trkpt>
      <trkpt lat="45.77313" lon="2.98213">
        <ele>929</ele>
        <time>2020-07-11T13:55:20.078Z</time>
      </trkpt>
      <trkpt lat="45.7731" lon="2.98212">
        <ele>930</ele>
        <time>2020-07-11T13:55:21.078Z</time>
      </trkpt>
      <trkpt lat="45.77306" lon="2.98211">
        <ele>931</ele>
        <time>2020-07-11T13:55:22.078Z</time>
      </trkpt>
      <trkpt lat="45.77303" lon="2.9821">
        <ele>933</ele>
        <time>2020-07-11T13:55:23.078Z</time>
      </trkpt>
      <trkpt lat="45.773" lon="2.98209">
        <ele>934</ele>
        <time>2020-07-11T13:55:24.078Z</time>
      </trkpt>
      <trkpt lat="45.77298" lon="2.98208">
        <ele>935</ele>
        <time>2020-07-11T13:55:25.078Z</time>
      </trkpt>
      <trkpt lat="45.77295" lon="2.98207">
        <ele>935</ele>
        <time>2020-07-11T13:55:26.078Z</time>
      </trkpt>
      <trkpt lat="45.77293" lon="2.98206">
        <ele>935</ele>
        <time>2020-07-11T13:55:27.078Z</time>
      </trkpt>
      <trkpt lat="45.7729" lon="2.98205">
        <ele>937</ele>
        <time>2020-07-11T13:55:28.078Z</time>
      </trkpt>
      <trkpt lat="45.77287" lon="2.98204">
        <ele>936</ele>
        <time>2020-07-11T13:55:29.078Z</time>
      </trkpt>
      <trkpt lat="45.77284" lon="2.98203">
        <ele>937</ele>
        <time>2020-07-11T13:55:30.078Z</time>
      </trkpt>
      <trkpt lat="45.77282" lon="2.98201">
        <ele>937</ele>
        <time>2020-07-11T13:55:31.078Z</time>
      </trkpt>
      <trkpt lat="45.77279" lon="2.982">
        <ele>937</ele>
        <time>2020-07-11T13:55:32.078Z</time>
      </trkpt>
      <trkpt lat="45.77277" lon="2.98198">
        <ele>937</ele>
        <time>2020-07-11T13:55:33.078Z</time>
      </trkpt>
      <trkpt lat="45.77275" lon="2.98196">
        <ele>936</ele>
        <time>2020-07-11T13:55:34.078Z</time>
      </trkpt>
      <trkpt lat="45.77272" lon="2.98194">
        <ele>936</ele>
        <time>2020-07-11T13:55:35.078Z</time>
      </trkpt>
      <trkpt lat="45.77269" lon="2.98192">
        <ele>934</ele>
        <time>2020-07-11T13:55:36.078Z</time>
      </trkpt>
      <trkpt lat="45.77267" lon="2.98189">
        <ele>933</ele>
        <time>2020-07-11T13:55:37.078Z</time>
      </trkpt>
      <trkpt lat="45.77264" lon="2.98187">
        <ele>934</ele>
        <time>2020-07-11T13:55:38.078Z</time>
      </trkpt>
      <trkpt lat="45.77262" lon="2.98185">
        <ele>934</ele>
        <time>2020-07-11T13:55:39.078Z</time>
      </trkpt>
      <trkpt lat="45.77259" lon="2.98184">
        <ele>935</ele>
        <time>2020-07-11T13:55:40.078Z</time>
      </trkpt>
      <trkpt lat="45.77257" lon="2.98184">
        <ele>936</ele>
        <time>2020-07-11T13:55:41.078Z</time>
      </trkpt>
      <trkpt lat="45.77255" lon="2.98183">
        <ele>936</ele>
        <time>2020-07-11T13:55:42.078Z</time>
      </trkpt>
      <trkpt lat="45.77253" lon="2.98182">
        <ele>937</ele>
        <time>2020-07-11T13:55:43.078Z</time>
      </trkpt>
      <trkpt lat="45.77251" lon="2.98181">
        <ele>938</ele>
        <time>2020-07-11T13:55:44.078Z</time>
      </trkpt>
      <trkpt lat="45.77249" lon="2.9818">
        <ele>938</ele>
        <time>2020-07-11T13:55:45.078Z</time>
      </trkpt>
      <trkpt lat="45.77246" lon="2.98179">
        <ele>939</ele>
        <time>2020-07-11T13:55:46.078Z</time>
      </trkpt>
      <trkpt lat="45.77244" lon="2.98178">
        <ele>940</ele>
        <time>2020-07-11T13:55:47.078Z</time>
      </trkpt>
      <trkpt lat="45.77241" lon="2.98176">
        <ele>940</ele>
        <time>2020-07-11T13:55:48.078Z</time>
      </trkpt>
      <trkpt lat="45.77238" lon="2.98174">
        <ele>939</ele>
        <time>2020-07-11T13:55:49.078Z</time>
      </trkpt>
      <trkpt lat="45.77235" lon="2.98171">
        <ele>938</ele>
        <time>2020-07-11T13:55:50.078Z</time>
      </trkpt>
      <trkpt lat="45.77232" lon="2.98168">
        <ele>937</ele>
        <time>2020-07-11T13:55:51.078Z</time>
      </trkpt>
      <trkpt lat="45.77229" lon="2.98166">
        <ele>936</ele>
        <time>2020-07-11T13:55:52.078Z</time>
      </trkpt>
      <trkpt lat="45.77226" lon="2.98164">
        <ele>935</ele>
        <time>2020-07-11T13:55:53.078Z</time>
      </trkpt>
      <trkpt lat="45.77224" lon="2.98161">
        <ele>934</ele>
        <time>2020-07-11T13:55:54.078Z</time>
      </trkpt>
      <trkpt lat="45.77221" lon="2.98159">
        <ele>932</ele>
        <time>2020-07-11T13:55:55.078Z</time>
      </trkpt>
      <trkpt lat="45.77219" lon="2.98156">
        <ele>930</ele>
        <time>2020-07-11T13:55:56.078Z</time>
      </trkpt>
      <trkpt lat="45.77216" lon="2.98153">
        <ele>929</ele>
        <time>2020-07-11T13:55:57.078Z</time>
      </trkpt>
      <trkpt lat="45.77213" lon="2.9815">
        <ele>928</ele>
        <time>2020-07-11T13:55:58.078Z</time>
      </trkpt>
      <trkpt lat="45.77211" lon="2.98147">
        <ele>928</ele>
        <time>2020-07-11T13:55:59.078Z</time>
      </trkpt>
      <trkpt lat="45.77208" lon="2.98144">
        <ele>928</ele>
        <time>2020-07-11T13:56:00.078Z</time>
      </trkpt>
      <trkpt lat="45.77205" lon="2.98142">
        <ele>927</ele>
        <time>2020-07-11T13:56:01.078Z</time>
      </trkpt>
      <trkpt lat="45.77203" lon="2.9814">
        <ele>926</ele>
        <time>2020-07-11T13:56:02.078Z</time>
      </trkpt>
      <trkpt lat="45.772" lon="2.98138">
        <ele>925</ele>
        <time>2020-07-11T13:56:03.078Z</time>
      </trkpt>
      <trkpt lat="45.77197" lon="2.98135">
        <ele>925</ele>
        <time>2020-07-11T13:56:04.078Z</time>
      </trkpt>
      <trkpt lat="45.77193" lon="2.98133">
        <ele>927</ele>
        <time>2020-07-11T13:56:05.078Z</time>
      </trkpt>
      <trkpt lat="45.7719" lon="2.98131">
        <ele>928</ele>
        <time>2020-07-11T13:56:06.078Z</time>
      </trkpt>
      <trkpt lat="45.77187" lon="2.98129">
        <ele>928</ele>
        <time>2020-07-11T13:56:07.078Z</time>
      </trkpt>
      <trkpt lat="45.77185" lon="2.98127">
        <ele>928</ele>
        <time>2020-07-11T13:56:08.078Z</time>
      </trkpt>
      <trkpt lat="45.77182" lon="2.98125">
        <ele>927</ele>
        <time>2020-07-11T13:56:09.078Z</time>
      </trkpt>
      <trkpt lat="45.77179" lon="2.98122">
        <ele>927</ele>
        <time>2020-07-11T13:56:10.078Z</time>
      </trkpt>
      <trkpt lat="45.77176" lon="2.98119">
        <ele>925</ele>
        <time>2020-07-11T13:56:11.078Z</time>
      </trkpt>
      <trkpt lat="45.77174" lon="2.98116">
        <ele>926</ele>
        <time>2020-07-11T13:56:12.078Z</time>
      </trkpt>
      <trkpt lat="45.77172" lon="2.98114">
        <ele>927</ele>
        <time>2020-07-11T13:56:13.078Z</time>
      </trkpt>
      <trkpt lat="45.77169" lon="2.98111">
        <ele>927</ele>
        <time>2020-07-11T13:56:14.078Z</time>
      </trkpt>
      <trkpt lat="45.77167" lon="2.98109">
        <ele>927</ele>
        <time>2020-07-11T13:56:15.078Z</time>
      </trkpt>
      <trkpt lat="45.77165" lon="2.98107">
        <ele>927</ele>
        <time>2020-07-11T13:56:16.078Z</time>
      </trkpt>
      <trkpt lat="45.77163" lon="2.98105">
        <ele>927</ele>
        <time>2020-07-11T13:56:17.078Z</time>
      </trkpt>
      <trkpt lat="45.77161" lon="2.98103">
        <ele>927</ele>
        <time>2020-07-11T13:56:18.078Z</time>
      </trkpt>
      <trkpt lat="45.77158" lon="2.98101">
        <ele>927</ele>
        <time>2020-07-11T13:56:19.078Z</time>
      </trkpt>
      <trkpt lat="45.77156" lon="2.98099">
        <ele>926</ele>
        <time>2020-07-11T13:56:20.078Z</time>
      </trkpt>
      <trkpt lat="45.77153" lon="2.98098">
        <ele>926</ele>
        <time>2020-07-11T13:56:21.078Z</time>
      </trkpt>
      <trkpt lat="45.7715" lon="2.98096">
        <ele>925</ele>
        <time>2020-07-11T13:56:22.078Z</time>
      </trkpt>
      <trkpt lat="45.77148" lon="2.98093">
        <ele>924</ele>
        <time>2020-07-11T13:56:23.078Z</time>
      </trkpt>
      <trkpt lat="45.77145" lon="2.98091">
        <ele>923</ele>
        <time>2020-07-11T13:56:24.078Z</time>
      </trkpt>
      <trkpt lat="45.77142" lon="2.98089">
        <ele>922</ele>
        <time>2020-07-11T13:56:25.078Z</time>
      </trkpt>
      <trkpt lat="45.7714" lon="2.98087">
        <ele>920</ele>
        <time>2020-07-11T13:56:26.078Z</time>
      </trkpt>
      <trkpt lat="45.77138" lon="2.98085">
        <ele>920</ele>
        <time>2020-07-11T13:56:27.078Z</time>
      </trkpt>
      <trkpt lat="45.77135" lon="2.98084">
        <ele>919</ele>
        <time>2020-07-11T13:56:28.078Z</time>
      </trkpt>
      <trkpt lat="45.77134" lon="2.98082">
        <ele>918</ele>
        <time>2020-07-11T13:56:29.078Z</time>
      </trkpt>
      <trkpt lat="45.77131" lon="2.9808">
        <ele>917</ele>
        <time>2020-07-11T13:56:30.078Z</time>
      </trkpt>
      <trkpt lat="45.77129" lon="2.98078">
        <ele>917</ele>
        <time>2020-07-11T13:56:31.078Z</time>
      </trkpt>
      <trkpt lat="45.77127" lon="2.98076">
        <ele>916</ele>
        <time>2020-07-11T13:56:32.078Z</time>
      </trkpt>
      <trkpt lat="45.77125" lon="2.98074">
        <ele>914</ele>
        <time>2020-07-11T13:56:33.078Z</time>
      </trkpt>
      <trkpt lat="45.77123" lon="2.98072">
        <ele>916</ele>
        <time>2020-07-11T13:56:34.078Z</time>
      </trkpt>
      <trkpt lat="45.77121" lon="2.9807">
        <ele>916</ele>
        <time>2020-07-11T13:56:35.078Z</time>
      </trkpt>
      <trkpt lat="45.77119" lon="2.98068">
        <ele>917</ele>
        <time>2020-07-11T13:56:36.078Z</time>
      </trkpt>
      <trkpt lat="45.77116" lon="2.98066">
        <ele>917</ele>
        <time>2020-07-11T13:56:37.078Z</time>
      </trkpt>
      <trkpt lat="45.77114" lon="2.98064">
        <ele>918</ele>
        <time>2020-07-11T13:56:38.078Z</time>
      </trkpt>
      <trkpt lat="45.77111" lon="2.98062">
        <ele>918</ele>
        <time>2020-07-11T13:56:39.078Z</time>
      </trkpt>
      <trkpt lat="45.77109" lon="2.9806">
        <ele>918</ele>
        <time>2020-07-11T13:56:40.078Z</time>
      </trkpt>
      <trkpt lat="45.77107" lon="2.98058">
        <ele>918</ele>
        <time>2020-07-11T13:56:41.078Z</time>
      </trkpt>
      <trkpt lat="45.77104" lon="2.98056">
        <ele>919</ele>
        <time>2020-07-11T13:56:42.078Z</time>
      </trkpt>
      <trkpt lat="45.77102" lon="2.98054">
        <ele>919</ele>
        <time>2020-07-11T13:56:43.078Z</time>
      </trkpt>
      <trkpt lat="45.771" lon="2.98051">
        <ele>919</ele>
        <time>2020-07-11T13:56:44.078Z</time>
      </trkpt>
      <trkpt lat="45.77098" lon="2.98049">
        <ele>920</ele>
        <time>2020-07-11T13:56:45.078Z</time>
      </trkpt>
      <trkpt lat="45.77095" lon="2.98047">
        <ele>920</ele>
        <time>2020-07-11T13:56:46.078Z</time>
      </trkpt>
      <trkpt lat="45.77093" lon="2.98045">
        <ele>920</ele>
        <time>2020-07-11T13:56:47.078Z</time>
      </trkpt>
      <trkpt lat="45.77091" lon="2.98044">
        <ele>921</ele>
        <time>2020-07-11T13:56:48.078Z</time>
      </trkpt>
      <trkpt lat="45.77089" lon="2.98042">
        <ele>922</ele>
        <time>2020-07-11T13:56:49.078Z</time>
      </trkpt>
      <trkpt lat="45.77086" lon="2.98039">
        <ele>922</ele>
        <time>2020-07-11T13:56:50.078Z</time>
      </trkpt>
      <trkpt lat="45.77084" lon="2.98037">
        <ele>922</ele>
        <time>2020-07-11T13:56:51.078Z</time>
      </trkpt>
      <trkpt lat="45.77082" lon="2.98035">
        <ele>923</ele>
        <time>2020-07-11T13:56:52.078Z</time>
      </trkpt>
      <trkpt lat="45.77075" lon="2.9803">
        <ele>929</ele>
        <time>2020-07-11T13:56:53.109Z</time>
      </trkpt>
      <trkpt lat="45.77074" lon="2.9803">
        <ele>928</ele>
        <time>2020-07-11T13:56:54.109Z</time>
      </trkpt>
      <trkpt lat="45.77072" lon="2.98029">
        <ele>927</ele>
        <time>2020-07-11T13:56:55.109Z</time>
      </trkpt>
      <trkpt lat="45.77071" lon="2.98028">
        <ele>927</ele>
        <time>2020-07-11T13:56:56.109Z</time>
      </trkpt>
      <trkpt lat="45.77069" lon="2.98026">
        <ele>926</ele>
        <time>2020-07-11T13:56:57.109Z</time>
      </trkpt>
      <trkpt lat="45.77067" lon="2.98025">
        <ele>925</ele>
        <time>2020-07-11T13:56:58.109Z</time>
      </trkpt>
      <trkpt lat="45.77065" lon="2.98023">
        <ele>925</ele>
        <time>2020-07-11T13:56:59.109Z</time>
      </trkpt>
      <trkpt lat="45.77062" lon="2.9802">
        <ele>924</ele>
        <time>2020-07-11T13:57:00.109Z</time>
      </trkpt>
      <trkpt lat="45.7706" lon="2.98018">
        <ele>924</ele>
        <time>2020-07-11T13:57:01.109Z</time>
      </trkpt>
      <trkpt lat="45.77057" lon="2.98017">
        <ele>924</ele>
        <time>2020-07-11T13:57:02.109Z</time>
      </trkpt>
      <trkpt lat="45.77054" lon="2.98015">
        <ele>923</ele>
        <time>2020-07-11T13:57:03.109Z</time>
      </trkpt>
      <trkpt lat="45.77052" lon="2.98013">
        <ele>923</ele>
        <time>2020-07-11T13:57:04.109Z</time>
      </trkpt>
      <trkpt lat="45.77049" lon="2.98012">
        <ele>923</ele>
        <time>2020-07-11T13:57:05.109Z</time>
      </trkpt>
      <trkpt lat="45.77046" lon="2.9801">
        <ele>923</ele>
        <time>2020-07-11T13:57:06.109Z</time>
      </trkpt>
      <trkpt lat="45.77043" lon="2.98008">
        <ele>923</ele>
        <time>2020-07-11T13:57:07.109Z</time>
      </trkpt>
      <trkpt lat="45.7704" lon="2.98006">
        <ele>923</ele>
        <time>2020-07-11T13:57:08.109Z</time>
      </trkpt>
      <trkpt lat="45.77037" lon="2.98003">
        <ele>924</ele>
        <time>2020-07-11T13:57:09.109Z</time>
      </trkpt>
      <trkpt lat="45.77035" lon="2.98001">
        <ele>924</ele>
        <time>2020-07-11T13:57:10.109Z</time>
      </trkpt>
      <trkpt lat="45.77032" lon="2.97999">
        <ele>924</ele>
        <time>2020-07-11T13:57:11.109Z</time>
      </trkpt>
      <trkpt lat="45.77029" lon="2.97997">
        <ele>925</ele>
        <time>2020-07-11T13:57:12.109Z</time>
      </trkpt>
      <trkpt lat="45.77026" lon="2.97995">
        <ele>925</ele>
        <time>2020-07-11T13:57:13.109Z</time>
      </trkpt>
      <trkpt lat="45.77023" lon="2.97993">
        <ele>925</ele>
        <time>2020-07-11T13:57:14.109Z</time>
      </trkpt>
      <trkpt lat="45.7702" lon="2.97991">
        <ele>925</ele>
        <time>2020-07-11T13:57:15.109Z</time>
      </trkpt>
      <trkpt lat="45.77017" lon="2.97989">
        <ele>925</ele>
        <time>2020-07-11T13:57:16.109Z</time>
      </trkpt>
      <trkpt lat="45.77014" lon="2.97987">
        <ele>925</ele>
        <time>2020-07-11T13:57:17.109Z</time>
      </trkpt>
      <trkpt lat="45.77012" lon="2.97985">
        <ele>925</ele>
        <time>2020-07-11T13:57:18.109Z</time>
      </trkpt>
      <trkpt lat="45.77009" lon="2.97983">
        <ele>925</ele>
        <time>2020-07-11T13:57:19.109Z</time>
      </trkpt>
      <trkpt lat="45.77007" lon="2.97981">
        <ele>925</ele>
        <time>2020-07-11T13:57:20.109Z</time>
      </trkpt>
      <trkpt lat="45.77004" lon="2.9798">
        <ele>925</ele>
        <time>2020-07-11T13:57:21.109Z</time>
      </trkpt>
      <trkpt lat="45.77001" lon="2.97978">
        <ele>925</ele>
        <time>2020-07-11T13:57:22.109Z</time>
      </trkpt>
      <trkpt lat="45.76999" lon="2.97976">
        <ele>925</ele>
        <time>2020-07-11T13:57:23.109Z</time>
      </trkpt>
      <trkpt lat="45.76997" lon="2.97974">
        <ele>926</ele>
        <time>2020-07-11T13:57:24.109Z</time>
      </trkpt>
      <trkpt lat="45.76994" lon="2.97972">
        <ele>926</ele>
        <time>2020-07-11T13:57:25.109Z</time>
      </trkpt>
      <trkpt lat="45.76992" lon="2.97971">
        <ele>926</ele>
        <time>2020-07-11T13:57:26.109Z</time>
      </trkpt>
      <trkpt lat="45.76989" lon="2.97969">
        <ele>926</ele>
        <time>2020-07-11T13:57:27.109Z</time>
      </trkpt>
      <trkpt lat="45.76987" lon="2.97967">
        <ele>927</ele>
        <time>2020-07-11T13:57:28.109Z</time>
      </trkpt>
      <trkpt lat="45.76984" lon="2.97966">
        <ele>927</ele>
        <time>2020-07-11T13:57:29.109Z</time>
      </trkpt>
      <trkpt lat="45.76982" lon="2.97965">
        <ele>926</ele>
        <time>2020-07-11T13:57:30.109Z</time>
      </trkpt>
      <trkpt lat="45.7698" lon="2.97964">
        <ele>927</ele>
        <time>2020-07-11T13:57:31.109Z</time>
      </trkpt>
      <trkpt lat="45.76977" lon="2.97963">
        <ele>927</ele>
        <time>2020-07-11T13:57:32.109Z</time>
      </trkpt>
      <trkpt lat="45.76975" lon="2.97962">
        <ele>926</ele>
        <time>2020-07-11T13:57:33.109Z</time>
      </trkpt>
      <trkpt lat="45.76973" lon="2.97961">
        <ele>926</ele>
        <time>2020-07-11T13:57:34.109Z</time>
      </trkpt>
      <trkpt lat="45.76971" lon="2.9796">
        <ele>926</ele>
        <time>2020-07-11T13:57:35.109Z</time>
      </trkpt>
      <trkpt lat="45.76968" lon="2.97959">
        <ele>926</ele>
        <time>2020-07-11T13:57:36.109Z</time>
      </trkpt>
      <trkpt lat="45.76966" lon="2.97958">
        <ele>926</ele>
        <time>2020-07-11T13:57:37.109Z</time>
      </trkpt>
      <trkpt lat="45.76964" lon="2.97957">
        <ele>926</ele>
        <time>2020-07-11T13:57:38.109Z</time>
      </trkpt>
      <trkpt lat="45.76961" lon="2.97956">
        <ele>926</ele>
        <time>2020-07-11T13:57:39.109Z</time>
      </trkpt>
      <trkpt lat="45.76959" lon="2.97955">
        <ele>926</ele>
        <time>2020-07-11T13:57:40.109Z</time>
      </trkpt>
      <trkpt lat="45.76956" lon="2.97954">
        <ele>927</ele>
        <time>2020-07-11T13:57:41.109Z</time>
      </trkpt>
      <trkpt lat="45.76954" lon="2.97954">
        <ele>926</ele>
        <time>2020-07-11T13:57:42.109Z</time>
      </trkpt>
      <trkpt lat="45.76952" lon="2.97953">
        <ele>926</ele>
        <time>2020-07-11T13:57:43.109Z</time>
      </trkpt>
      <trkpt lat="45.76949" lon="2.97953">
        <ele>926</ele>
        <time>2020-07-11T13:57:44.109Z</time>
      </trkpt>
      <trkpt lat="45.76947" lon="2.97953">
        <ele>927</ele>
        <time>2020-07-11T13:57:45.109Z</time>
      </trkpt>
      <trkpt lat="45.76944" lon="2.97953">
        <ele>927</ele>
        <time>2020-07-11T13:57:46.109Z</time>
      </trkpt>
      <trkpt lat="45.76942" lon="2.97953">
        <ele>928</ele>
        <time>2020-07-11T13:57:47.109Z</time>
      </trkpt>
      <trkpt lat="45.76939" lon="2.97954">
        <ele>928</ele>
        <time>2020-07-11T13:57:48.109Z</time>
      </trkpt>
      <trkpt lat="45.76936" lon="2.97954">
        <ele>929</ele>
        <time>2020-07-11T13:57:49.109Z</time>
      </trkpt>
      <trkpt lat="45.76934" lon="2.97954">
        <ele>929</ele>
        <time>2020-07-11T13:57:50.109Z</time>
      </trkpt>
      <trkpt lat="45.76931" lon="2.97954">
        <ele>930</ele>
        <time>2020-07-11T13:57:51.109Z</time>
      </trkpt>
      <trkpt lat="45.76929" lon="2.97954">
        <ele>930</ele>
        <time>2020-07-11T13:57:52.109Z</time>
      </trkpt>
      <trkpt lat="45.76926" lon="2.97955">
        <ele>930</ele>
        <time>2020-07-11T13:57:53.109Z</time>
      </trkpt>
      <trkpt lat="45.76924" lon="2.97954">
        <ele>930</ele>
        <time>2020-07-11T13:57:54.109Z</time>
      </trkpt>
      <trkpt lat="45.76921" lon="2.97955">
        <ele>930</ele>
        <time>2020-07-11T13:57:55.109Z</time>
      </trkpt>
      <trkpt lat="45.76919" lon="2.97955">
        <ele>930</ele>
        <time>2020-07-11T13:57:56.109Z</time>
      </trkpt>
      <trkpt lat="45.76916" lon="2.97955">
        <ele>930</ele>
        <time>2020-07-11T13:57:57.109Z</time>
      </trkpt>
      <trkpt lat="45.76914" lon="2.97955">
        <ele>931</ele>
        <time>2020-07-11T13:57:58.109Z</time>
      </trkpt>
      <trkpt lat="45.76911" lon="2.97955">
        <ele>930</ele>
        <time>2020-07-11T13:57:59.109Z</time>
      </trkpt>
      <trkpt lat="45.76909" lon="2.97955">
        <ele>930</ele>
        <time>2020-07-11T13:58:00.109Z</time>
      </trkpt>
      <trkpt lat="45.76907" lon="2.97955">
        <ele>930</ele>
        <time>2020-07-11T13:58:01.109Z</time>
      </trkpt>
      <trkpt lat="45.76904" lon="2.97955">
        <ele>931</ele>
        <time>2020-07-11T13:58:02.109Z</time>
      </trkpt>
      <trkpt lat="45.76902" lon="2.97955">
        <ele>932</ele>
        <time>2020-07-11T13:58:03.109Z</time>
      </trkpt>
      <trkpt lat="45.769" lon="2.97954">
        <ele>932</ele>
        <time>2020-07-11T13:58:04.109Z</time>
      </trkpt>
      <trkpt lat="45.76898" lon="2.97954">
        <ele>931</ele>
        <time>2020-07-11T13:58:05.109Z</time>
      </trkpt>
      <trkpt lat="45.76896" lon="2.97954">
        <ele>932</ele>
        <time>2020-07-11T13:58:06.109Z</time>
      </trkpt>
      <trkpt lat="45.76893" lon="2.97954">
        <ele>932</ele>
        <time>2020-07-11T13:58:07.109Z</time>
      </trkpt>
      <trkpt lat="45.76891" lon="2.97953">
        <ele>932</ele>
        <time>2020-07-11T13:58:08.109Z</time>
      </trkpt>
      <trkpt lat="45.76888" lon="2.97953">
        <ele>933</ele>
        <time>2020-07-11T13:58:09.109Z</time>
      </trkpt>
      <trkpt lat="45.76886" lon="2.97952">
        <ele>933</ele>
        <time>2020-07-11T13:58:10.109Z</time>
      </trkpt>
      <trkpt lat="45.76884" lon="2.97951">
        <ele>933</ele>
        <time>2020-07-11T13:58:11.109Z</time>
      </trkpt>
      <trkpt lat="45.76881" lon="2.9795">
        <ele>933</ele>
        <time>2020-07-11T13:58:12.109Z</time>
      </trkpt>
      <trkpt lat="45.76878" lon="2.97949">
        <ele>934</ele>
        <time>2020-07-11T13:58:13.109Z</time>
      </trkpt>
      <trkpt lat="45.76875" lon="2.97948">
        <ele>935</ele>
        <time>2020-07-11T13:58:14.109Z</time>
      </trkpt>
      <trkpt lat="45.76872" lon="2.97948">
        <ele>935</ele>
        <time>2020-07-11T13:58:15.109Z</time>
      </trkpt>
      <trkpt lat="45.76869" lon="2.97947">
        <ele>935</ele>
        <time>2020-07-11T13:58:16.109Z</time>
      </trkpt>
      <trkpt lat="45.76865" lon="2.97946">
        <ele>935</ele>
        <time>2020-07-11T13:58:17.109Z</time>
      </trkpt>
      <trkpt lat="45.76862" lon="2.97945">
        <ele>935</ele>
        <time>2020-07-11T13:58:18.109Z</time>
      </trkpt>
      <trkpt lat="45.7686" lon="2.97944">
        <ele>935</ele>
        <time>2020-07-11T13:58:19.109Z</time>
      </trkpt>
      <trkpt lat="45.76857" lon="2.97944">
        <ele>935</ele>
        <time>2020-07-11T13:58:20.109Z</time>
      </trkpt>
      <trkpt lat="45.76855" lon="2.97943">
        <ele>935</ele>
        <time>2020-07-11T13:58:21.109Z</time>
      </trkpt>
      <trkpt lat="45.76852" lon="2.97942">
        <ele>936</ele>
        <time>2020-07-11T13:58:22.109Z</time>
      </trkpt>
      <trkpt lat="45.7685" lon="2.97942">
        <ele>936</ele>
        <time>2020-07-11T13:58:23.109Z</time>
      </trkpt>
      <trkpt lat="45.76847" lon="2.97942">
        <ele>936</ele>
        <time>2020-07-11T13:58:24.109Z</time>
      </trkpt>
      <trkpt lat="45.76845" lon="2.97941">
        <ele>935</ele>
        <time>2020-07-11T13:58:25.109Z</time>
      </trkpt>
      <trkpt lat="45.76842" lon="2.9794">
        <ele>935</ele>
        <time>2020-07-11T13:58:26.109Z</time>
      </trkpt>
      <trkpt lat="45.7684" lon="2.97939">
        <ele>935</ele>
        <time>2020-07-11T13:58:27.109Z</time>
      </trkpt>
      <trkpt lat="45.76837" lon="2.97938">
        <ele>934</ele>
        <time>2020-07-11T13:58:28.109Z</time>
      </trkpt>
      <trkpt lat="45.76834" lon="2.97938">
        <ele>934</ele>
        <time>2020-07-11T13:58:29.109Z</time>
      </trkpt>
      <trkpt lat="45.76831" lon="2.97937">
        <ele>935</ele>
        <time>2020-07-11T13:58:30.109Z</time>
      </trkpt>
      <trkpt lat="45.76828" lon="2.97936">
        <ele>934</ele>
        <time>2020-07-11T13:58:31.109Z</time>
      </trkpt>
      <trkpt lat="45.76826" lon="2.97935">
        <ele>934</ele>
        <time>2020-07-11T13:58:32.109Z</time>
      </trkpt>
      <trkpt lat="45.76823" lon="2.97934">
        <ele>934</ele>
        <time>2020-07-11T13:58:33.109Z</time>
      </trkpt>
      <trkpt lat="45.76821" lon="2.97934">
        <ele>933</ele>
        <time>2020-07-11T13:58:34.109Z</time>
      </trkpt>
      <trkpt lat="45.76818" lon="2.97934">
        <ele>933</ele>
        <time>2020-07-11T13:58:35.109Z</time>
      </trkpt>
      <trkpt lat="45.76816" lon="2.97933">
        <ele>933</ele>
        <time>2020-07-11T13:58:36.109Z</time>
      </trkpt>
      <trkpt lat="45.76814" lon="2.97933">
        <ele>934</ele>
        <time>2020-07-11T13:58:37.109Z</time>
      </trkpt>
      <trkpt lat="45.76812" lon="2.97933">
        <ele>934</ele>
        <time>2020-07-11T13:58:38.109Z</time>
      </trkpt>
      <trkpt lat="45.7681" lon="2.97932">
        <ele>934</ele>
        <time>2020-07-11T13:58:39.109Z</time>
      </trkpt>
      <trkpt lat="45.76807" lon="2.97931">
        <ele>934</ele>
        <time>2020-07-11T13:58:40.109Z</time>
      </trkpt>
      <trkpt lat="45.76804" lon="2.9793">
        <ele>935</ele>
        <time>2020-07-11T13:58:41.109Z</time>
      </trkpt>
      <trkpt lat="45.76801" lon="2.97929">
        <ele>935</ele>
        <time>2020-07-11T13:58:42.109Z</time>
      </trkpt>
      <trkpt lat="45.76798" lon="2.97929">
        <ele>935</ele>
        <time>2020-07-11T13:58:43.109Z</time>
      </trkpt>
      <trkpt lat="45.76795" lon="2.97929">
        <ele>935</ele>
        <time>2020-07-11T13:58:44.109Z</time>
      </trkpt>
      <trkpt lat="45.76792" lon="2.97929">
        <ele>935</ele>
        <time>2020-07-11T13:58:45.109Z</time>
      </trkpt>
      <trkpt lat="45.76789" lon="2.97928">
        <ele>936</ele>
        <time>2020-07-11T13:58:46.109Z</time>
      </trkpt>
      <trkpt lat="45.76786" lon="2.97928">
        <ele>937</ele>
        <time>2020-07-11T13:58:47.109Z</time>
      </trkpt>
      <trkpt lat="45.76783" lon="2.97928">
        <ele>936</ele>
        <time>2020-07-11T13:58:48.109Z</time>
      </trkpt>
      <trkpt lat="45.7678" lon="2.97927">
        <ele>936</ele>
        <time>2020-07-11T13:58:49.109Z</time>
      </trkpt>
      <trkpt lat="45.76777" lon="2.97927">
        <ele>936</ele>
        <time>2020-07-11T13:58:50.109Z</time>
      </trkpt>
      <trkpt lat="45.76775" lon="2.97925">
        <ele>935</ele>
        <time>2020-07-11T13:58:51.109Z</time>
      </trkpt>
      <trkpt lat="45.76772" lon="2.97924">
        <ele>934</ele>
        <time>2020-07-11T13:58:52.109Z</time>
      </trkpt>
      <trkpt lat="45.7677" lon="2.97922">
        <ele>934</ele>
        <time>2020-07-11T13:58:53.109Z</time>
      </trkpt>
      <trkpt lat="45.76767" lon="2.97921">
        <ele>935</ele>
        <time>2020-07-11T13:58:54.109Z</time>
      </trkpt>
      <trkpt lat="45.76765" lon="2.9792">
        <ele>935</ele>
        <time>2020-07-11T13:58:55.109Z</time>
      </trkpt>
      <trkpt lat="45.76762" lon="2.97919">
        <ele>935</ele>
        <time>2020-07-11T13:58:56.109Z</time>
      </trkpt>
      <trkpt lat="45.76759" lon="2.97918">
        <ele>934</ele>
        <time>2020-07-11T13:58:57.109Z</time>
      </trkpt>
      <trkpt lat="45.76756" lon="2.97917">
        <ele>934</ele>
        <time>2020-07-11T13:58:58.109Z</time>
      </trkpt>
      <trkpt lat="45.76753" lon="2.97916">
        <ele>933</ele>
        <time>2020-07-11T13:58:59.109Z</time>
      </trkpt>
      <trkpt lat="45.76749" lon="2.97914">
        <ele>932</ele>
        <time>2020-07-11T13:59:00.109Z</time>
      </trkpt>
      <trkpt lat="45.76746" lon="2.97912">
        <ele>932</ele>
        <time>2020-07-11T13:59:01.109Z</time>
      </trkpt>
      <trkpt lat="45.76743" lon="2.97911">
        <ele>932</ele>
        <time>2020-07-11T13:59:02.109Z</time>
      </trkpt>
      <trkpt lat="45.7674" lon="2.97909">
        <ele>933</ele>
        <time>2020-07-11T13:59:03.109Z</time>
      </trkpt>
      <trkpt lat="45.76737" lon="2.97908">
        <ele>933</ele>
        <time>2020-07-11T13:59:04.109Z</time>
      </trkpt>
      <trkpt lat="45.76734" lon="2.97907">
        <ele>934</ele>
        <time>2020-07-11T13:59:05.109Z</time>
      </trkpt>
      <trkpt lat="45.76731" lon="2.97907">
        <ele>934</ele>
        <time>2020-07-11T13:59:06.109Z</time>
      </trkpt>
      <trkpt lat="45.76729" lon="2.97906">
        <ele>934</ele>
        <time>2020-07-11T13:59:07.109Z</time>
      </trkpt>
      <trkpt lat="45.76726" lon="2.97906">
        <ele>933</ele>
        <time>2020-07-11T13:59:08.109Z</time>
      </trkpt>
      <trkpt lat="45.76723" lon="2.97905">
        <ele>933</ele>
        <time>2020-07-11T13:59:09.109Z</time>
      </trkpt>
      <trkpt lat="45.7672" lon="2.97904">
        <ele>931</ele>
        <time>2020-07-11T13:59:10.109Z</time>
      </trkpt>
      <trkpt lat="45.76718" lon="2.97904">
        <ele>930</ele>
        <time>2020-07-11T13:59:11.109Z</time>
      </trkpt>
      <trkpt lat="45.76715" lon="2.97903">
        <ele>929</ele>
        <time>2020-07-11T13:59:12.109Z</time>
      </trkpt>
      <trkpt lat="45.76713" lon="2.97903">
        <ele>930</ele>
        <time>2020-07-11T13:59:13.109Z</time>
      </trkpt>
      <trkpt lat="45.7671" lon="2.97902">
        <ele>930</ele>
        <time>2020-07-11T13:59:14.109Z</time>
      </trkpt>
      <trkpt lat="45.76708" lon="2.97902">
        <ele>930</ele>
        <time>2020-07-11T13:59:15.109Z</time>
      </trkpt>
      <trkpt lat="45.76705" lon="2.979">
        <ele>930</ele>
        <time>2020-07-11T13:59:16.109Z</time>
      </trkpt>
      <trkpt lat="45.76702" lon="2.97899">
        <ele>929</ele>
        <time>2020-07-11T13:59:17.109Z</time>
      </trkpt>
      <trkpt lat="45.76699" lon="2.97898">
        <ele>929</ele>
        <time>2020-07-11T13:59:18.109Z</time>
      </trkpt>
      <trkpt lat="45.76696" lon="2.97897">
        <ele>928</ele>
        <time>2020-07-11T13:59:19.109Z</time>
      </trkpt>
      <trkpt lat="45.76694" lon="2.97897">
        <ele>928</ele>
        <time>2020-07-11T13:59:20.109Z</time>
      </trkpt>
      <trkpt lat="45.76691" lon="2.97895">
        <ele>926</ele>
        <time>2020-07-11T13:59:21.109Z</time>
      </trkpt>
      <trkpt lat="45.76688" lon="2.97895">
        <ele>926</ele>
        <time>2020-07-11T13:59:22.109Z</time>
      </trkpt>
      <trkpt lat="45.76685" lon="2.97894">
        <ele>926</ele>
        <time>2020-07-11T13:59:23.109Z</time>
      </trkpt>
      <trkpt lat="45.76682" lon="2.97893">
        <ele>926</ele>
        <time>2020-07-11T13:59:24.109Z</time>
      </trkpt>
      <trkpt lat="45.76679" lon="2.97893">
        <ele>925</ele>
        <time>2020-07-11T13:59:25.109Z</time>
      </trkpt>
      <trkpt lat="45.76676" lon="2.97892">
        <ele>924</ele>
        <time>2020-07-11T13:59:26.109Z</time>
      </trkpt>
      <trkpt lat="45.76673" lon="2.97891">
        <ele>924</ele>
        <time>2020-07-11T13:59:27.109Z</time>
      </trkpt>
      <trkpt lat="45.7667" lon="2.97889">
        <ele>924</ele>
        <time>2020-07-11T13:59:28.109Z</time>
      </trkpt>
      <trkpt lat="45.76668" lon="2.97888">
        <ele>924</ele>
        <time>2020-07-11T13:59:29.109Z</time>
      </trkpt>
      <trkpt lat="45.76665" lon="2.97887">
        <ele>923</ele>
        <time>2020-07-11T13:59:30.109Z</time>
      </trkpt>
      <trkpt lat="45.76661" lon="2.97885">
        <ele>924</ele>
        <time>2020-07-11T13:59:31.109Z</time>
      </trkpt>
      <trkpt lat="45.76658" lon="2.97884">
        <ele>925</ele>
        <time>2020-07-11T13:59:32.109Z</time>
      </trkpt>
      <trkpt lat="45.76655" lon="2.97884">
        <ele>924</ele>
        <time>2020-07-11T13:59:33.109Z</time>
      </trkpt>
      <trkpt lat="45.76652" lon="2.97884">
        <ele>925</ele>
        <time>2020-07-11T13:59:34.109Z</time>
      </trkpt>
      <trkpt lat="45.76649" lon="2.97884">
        <ele>926</ele>
        <time>2020-07-11T13:59:35.109Z</time>
      </trkpt>
      <trkpt lat="45.76646" lon="2.97885">
        <ele>926</ele>
        <time>2020-07-11T13:59:36.109Z</time>
      </trkpt>
      <trkpt lat="45.76643" lon="2.97885">
        <ele>926</ele>
        <time>2020-07-11T13:59:37.109Z</time>
      </trkpt>
      <trkpt lat="45.7664" lon="2.97885">
        <ele>926</ele>
        <time>2020-07-11T13:59:38.109Z</time>
      </trkpt>
      <trkpt lat="45.76637" lon="2.97885">
        <ele>927</ele>
        <time>2020-07-11T13:59:39.109Z</time>
      </trkpt>
      <trkpt lat="45.76635" lon="2.97884">
        <ele>926</ele>
        <time>2020-07-11T13:59:40.109Z</time>
      </trkpt>
      <trkpt lat="45.76632" lon="2.97884">
        <ele>926</ele>
        <time>2020-07-11T13:59:41.109Z</time>
      </trkpt>
      <trkpt lat="45.7663" lon="2.97883">
        <ele>926</ele>
        <time>2020-07-11T13:59:42.109Z</time>
      </trkpt>
      <trkpt lat="45.76627" lon="2.97883">
        <ele>926</ele>
        <time>2020-07-11T13:59:43.109Z</time>
      </trkpt>
      <trkpt lat="45.76625" lon="2.97882">
        <ele>926</ele>
        <time>2020-07-11T13:59:44.109Z</time>
      </trkpt>
      <trkpt lat="45.76622" lon="2.97883">
        <ele>925</ele>
        <time>2020-07-11T13:59:45.109Z</time>
      </trkpt>
      <trkpt lat="45.7662" lon="2.97883">
        <ele>925</ele>
        <time>2020-07-11T13:59:46.109Z</time>
      </trkpt>
      <trkpt lat="45.76618" lon="2.97883">
        <ele>925</ele>
        <time>2020-07-11T13:59:47.109Z</time>
      </trkpt>
      <trkpt lat="45.76615" lon="2.97883">
        <ele>925</ele>
        <time>2020-07-11T13:59:48.109Z</time>
      </trkpt>
      <trkpt lat="45.76613" lon="2.97883">
        <ele>925</ele>
        <time>2020-07-11T13:59:49.109Z</time>
      </trkpt>
      <trkpt lat="45.7661" lon="2.97883">
        <ele>925</ele>
        <time>2020-07-11T13:59:50.109Z</time>
      </trkpt>
      <trkpt lat="45.76607" lon="2.97883">
        <ele>924</ele>
        <time>2020-07-11T13:59:51.109Z</time>
      </trkpt>
      <trkpt lat="45.76604" lon="2.97884">
        <ele>925</ele>
        <time>2020-07-11T13:59:52.109Z</time>
      </trkpt>
      <trkpt lat="45.766" lon="2.97885">
        <ele>924</ele>
        <time>2020-07-11T13:59:53.109Z</time>
      </trkpt>
      <trkpt lat="45.76595" lon="2.97887">
        <ele>926</ele>
        <time>2020-07-11T13:59:54.109Z</time>
      </trkpt>
      <trkpt lat="45.7659" lon="2.97888">
        <ele>926</ele>
        <time>2020-07-11T13:59:55.109Z</time>
      </trkpt>
      <trkpt lat="45.76587" lon="2.97888">
        <ele>928</ele>
        <time>2020-07-11T13:59:56.109Z</time>
      </trkpt>
      <trkpt lat="45.76584" lon="2.97889">
        <ele>929</ele>
        <time>2020-07-11T13:59:57.109Z</time>
      </trkpt>
      <trkpt lat="45.76581" lon="2.9789">
        <ele>930</ele>
        <time>2020-07-11T13:59:58.109Z</time>
      </trkpt>
      <trkpt lat="45.76578" lon="2.97891">
        <ele>931</ele>
        <time>2020-07-11T13:59:59.109Z</time>
      </trkpt>
      <trkpt lat="45.76575" lon="2.97891">
        <ele>932</ele>
        <time>2020-07-11T14:00:00.109Z</time>
      </trkpt>
      <trkpt lat="45.76573" lon="2.97892">
        <ele>934</ele>
        <time>2020-07-11T14:00:01.109Z</time>
      </trkpt>
      <trkpt lat="45.7657" lon="2.97892">
        <ele>935</ele>
        <time>2020-07-11T14:00:02.109Z</time>
      </trkpt>
      <trkpt lat="45.76568" lon="2.97892">
        <ele>935</ele>
        <time>2020-07-11T14:00:03.109Z</time>
      </trkpt>
      <trkpt lat="45.76566" lon="2.97891">
        <ele>935</ele>
        <time>2020-07-11T14:00:04.109Z</time>
      </trkpt>
      <trkpt lat="45.76563" lon="2.9789">
        <ele>935</ele>
        <time>2020-07-11T14:00:05.109Z</time>
      </trkpt>
      <trkpt lat="45.76561" lon="2.97889">
        <ele>936</ele>
        <time>2020-07-11T14:00:06.109Z</time>
      </trkpt>
      <trkpt lat="45.76558" lon="2.97888">
        <ele>936</ele>
        <time>2020-07-11T14:00:07.109Z</time>
      </trkpt>
      <trkpt lat="45.76556" lon="2.97888">
        <ele>936</ele>
        <time>2020-07-11T14:00:08.109Z</time>
      </trkpt>
      <trkpt lat="45.76553" lon="2.97886">
        <ele>937</ele>
        <time>2020-07-11T14:00:09.109Z</time>
      </trkpt>
      <trkpt lat="45.76551" lon="2.97885">
        <ele>937</ele>
        <time>2020-07-11T14:00:10.109Z</time>
      </trkpt>
      <trkpt lat="45.76549" lon="2.97883">
        <ele>937</ele>
        <time>2020-07-11T14:00:11.109Z</time>
      </trkpt>
      <trkpt lat="45.76546" lon="2.97881">
        <ele>936</ele>
        <time>2020-07-11T14:00:12.109Z</time>
      </trkpt>
      <trkpt lat="45.76543" lon="2.9788">
        <ele>936</ele>
        <time>2020-07-11T14:00:13.109Z</time>
      </trkpt>
      <trkpt lat="45.76541" lon="2.97878">
        <ele>936</ele>
        <time>2020-07-11T14:00:14.109Z</time>
      </trkpt>
      <trkpt lat="45.76538" lon="2.97877">
        <ele>935</ele>
        <time>2020-07-11T14:00:15.109Z</time>
      </trkpt>
      <trkpt lat="45.76536" lon="2.97876">
        <ele>935</ele>
        <time>2020-07-11T14:00:16.109Z</time>
      </trkpt>
      <trkpt lat="45.76534" lon="2.97874">
        <ele>936</ele>
        <time>2020-07-11T14:00:17.109Z</time>
      </trkpt>
      <trkpt lat="45.76531" lon="2.97872">
        <ele>935</ele>
        <time>2020-07-11T14:00:18.109Z</time>
      </trkpt>
      <trkpt lat="45.76529" lon="2.97871">
        <ele>934</ele>
        <time>2020-07-11T14:00:19.109Z</time>
      </trkpt>
      <trkpt lat="45.76526" lon="2.9787">
        <ele>934</ele>
        <time>2020-07-11T14:00:20.109Z</time>
      </trkpt>
      <trkpt lat="45.76524" lon="2.97869">
        <ele>935</ele>
        <time>2020-07-11T14:00:21.109Z</time>
      </trkpt>
      <trkpt lat="45.76521" lon="2.97867">
        <ele>935</ele>
        <time>2020-07-11T14:00:22.109Z</time>
      </trkpt>
      <trkpt lat="45.76519" lon="2.97866">
        <ele>936</ele>
        <time>2020-07-11T14:00:23.109Z</time>
      </trkpt>
      <trkpt lat="45.76516" lon="2.97865">
        <ele>937</ele>
        <time>2020-07-11T14:00:24.109Z</time>
      </trkpt>
      <trkpt lat="45.76514" lon="2.97864">
        <ele>936</ele>
        <time>2020-07-11T14:00:25.109Z</time>
      </trkpt>
      <trkpt lat="45.76511" lon="2.97863">
        <ele>937</ele>
        <time>2020-07-11T14:00:26.109Z</time>
      </trkpt>
      <trkpt lat="45.76508" lon="2.97862">
        <ele>937</ele>
        <time>2020-07-11T14:00:27.109Z</time>
      </trkpt>
      <trkpt lat="45.76505" lon="2.9786">
        <ele>937</ele>
        <time>2020-07-11T14:00:28.109Z</time>
      </trkpt>
      <trkpt lat="45.76502" lon="2.97858">
        <ele>936</ele>
        <time>2020-07-11T14:00:29.109Z</time>
      </trkpt>
      <trkpt lat="45.765" lon="2.97857">
        <ele>936</ele>
        <time>2020-07-11T14:00:30.109Z</time>
      </trkpt>
      <trkpt lat="45.76497" lon="2.97855">
        <ele>936</ele>
        <time>2020-07-11T14:00:31.109Z</time>
      </trkpt>
      <trkpt lat="45.76494" lon="2.97854">
        <ele>937</ele>
        <time>2020-07-11T14:00:32.109Z</time>
      </trkpt>
      <trkpt lat="45.7649" lon="2.97852">
        <ele>937</ele>
        <time>2020-07-11T14:00:33.109Z</time>
      </trkpt>
      <trkpt lat="45.76487" lon="2.9785">
        <ele>937</ele>
        <time>2020-07-11T14:00:34.109Z</time>
      </trkpt>
      <trkpt lat="45.76484" lon="2.97848">
        <ele>937</ele>
        <time>2020-07-11T14:00:35.109Z</time>
      </trkpt>
      <trkpt lat="45.7648" lon="2.97847">
        <ele>938</ele>
        <time>2020-07-11T14:00:36.109Z</time>
      </trkpt>
      <trkpt lat="45.76477" lon="2.97845">
        <ele>939</ele>
        <time>2020-07-11T14:00:37.109Z</time>
      </trkpt>
      <trkpt lat="45.76474" lon="2.97844">
        <ele>939</ele>
        <time>2020-07-11T14:00:38.109Z</time>
      </trkpt>
      <trkpt lat="45.76472" lon="2.97843">
        <ele>938</ele>
        <time>2020-07-11T14:00:39.109Z</time>
      </trkpt>
      <trkpt lat="45.76469" lon="2.97841">
        <ele>938</ele>
        <time>2020-07-11T14:00:40.109Z</time>
      </trkpt>
      <trkpt lat="45.76467" lon="2.97839">
        <ele>937</ele>
        <time>2020-07-11T14:00:41.109Z</time>
      </trkpt>
      <trkpt lat="45.76465" lon="2.97837">
        <ele>938</ele>
        <time>2020-07-11T14:00:42.109Z</time>
      </trkpt>
      <trkpt lat="45.76462" lon="2.97835">
        <ele>937</ele>
        <time>2020-07-11T14:00:43.109Z</time>
      </trkpt>
      <trkpt lat="45.76459" lon="2.97833">
        <ele>937</ele>
        <time>2020-07-11T14:00:44.109Z</time>
      </trkpt>
      <trkpt lat="45.76456" lon="2.97831">
        <ele>937</ele>
        <time>2020-07-11T14:00:45.109Z</time>
      </trkpt>
      <trkpt lat="45.76453" lon="2.97829">
        <ele>937</ele>
        <time>2020-07-11T14:00:46.109Z</time>
      </trkpt>
      <trkpt lat="45.76451" lon="2.97828">
        <ele>937</ele>
        <time>2020-07-11T14:00:47.109Z</time>
      </trkpt>
      <trkpt lat="45.76448" lon="2.97826">
        <ele>936</ele>
        <time>2020-07-11T14:00:48.109Z</time>
      </trkpt>
      <trkpt lat="45.76445" lon="2.97825">
        <ele>935</ele>
        <time>2020-07-11T14:00:49.109Z</time>
      </trkpt>
      <trkpt lat="45.76442" lon="2.97823">
        <ele>935</ele>
        <time>2020-07-11T14:00:50.109Z</time>
      </trkpt>
      <trkpt lat="45.7644" lon="2.97821">
        <ele>934</ele>
        <time>2020-07-11T14:00:51.109Z</time>
      </trkpt>
      <trkpt lat="45.76437" lon="2.97819">
        <ele>933</ele>
        <time>2020-07-11T14:00:52.109Z</time>
      </trkpt>
      <trkpt lat="45.76434" lon="2.97817">
        <ele>931</ele>
        <time>2020-07-11T14:00:53.109Z</time>
      </trkpt>
      <trkpt lat="45.76432" lon="2.97814">
        <ele>928</ele>
        <time>2020-07-11T14:00:54.109Z</time>
      </trkpt>
      <trkpt lat="45.76429" lon="2.97812">
        <ele>928</ele>
        <time>2020-07-11T14:00:55.109Z</time>
      </trkpt>
      <trkpt lat="45.76426" lon="2.9781">
        <ele>927</ele>
        <time>2020-07-11T14:00:56.109Z</time>
      </trkpt>
      <trkpt lat="45.76423" lon="2.97807">
        <ele>926</ele>
        <time>2020-07-11T14:00:57.109Z</time>
      </trkpt>
      <trkpt lat="45.76421" lon="2.97804">
        <ele>926</ele>
        <time>2020-07-11T14:00:58.109Z</time>
      </trkpt>
      <trkpt lat="45.76418" lon="2.97801">
        <ele>926</ele>
        <time>2020-07-11T14:00:59.109Z</time>
      </trkpt>
      <trkpt lat="45.76416" lon="2.97798">
        <ele>927</ele>
        <time>2020-07-11T14:01:00.109Z</time>
      </trkpt>
      <trkpt lat="45.76413" lon="2.97795">
        <ele>926</ele>
        <time>2020-07-11T14:01:01.109Z</time>
      </trkpt>
      <trkpt lat="45.76411" lon="2.97792">
        <ele>926</ele>
        <time>2020-07-11T14:01:02.109Z</time>
      </trkpt>
      <trkpt lat="45.76408" lon="2.97789">
        <ele>926</ele>
        <time>2020-07-11T14:01:03.109Z</time>
      </trkpt>
      <trkpt lat="45.76406" lon="2.97786">
        <ele>925</ele>
        <time>2020-07-11T14:01:04.109Z</time>
      </trkpt>
      <trkpt lat="45.76404" lon="2.97783">
        <ele>924</ele>
        <time>2020-07-11T14:01:05.109Z</time>
      </trkpt>
      <trkpt lat="45.76401" lon="2.9778">
        <ele>924</ele>
        <time>2020-07-11T14:01:06.109Z</time>
      </trkpt>
      <trkpt lat="45.76399" lon="2.97777">
        <ele>925</ele>
        <time>2020-07-11T14:01:07.109Z</time>
      </trkpt>
      <trkpt lat="45.76396" lon="2.97774">
        <ele>925</ele>
        <time>2020-07-11T14:01:08.109Z</time>
      </trkpt>
      <trkpt lat="45.76394" lon="2.97772">
        <ele>925</ele>
        <time>2020-07-11T14:01:09.109Z</time>
      </trkpt>
      <trkpt lat="45.76392" lon="2.9777">
        <ele>926</ele>
        <time>2020-07-11T14:01:10.109Z</time>
      </trkpt>
      <trkpt lat="45.7639" lon="2.97768">
        <ele>926</ele>
        <time>2020-07-11T14:01:11.109Z</time>
      </trkpt>
      <trkpt lat="45.76388" lon="2.97766">
        <ele>927</ele>
        <time>2020-07-11T14:01:12.109Z</time>
      </trkpt>
      <trkpt lat="45.76386" lon="2.97764">
        <ele>927</ele>
        <time>2020-07-11T14:01:13.109Z</time>
      </trkpt>
      <trkpt lat="45.76384" lon="2.97762">
        <ele>928</ele>
        <time>2020-07-11T14:01:14.109Z</time>
      </trkpt>
      <trkpt lat="45.76382" lon="2.9776">
        <ele>928</ele>
        <time>2020-07-11T14:01:15.109Z</time>
      </trkpt>
      <trkpt lat="45.7638" lon="2.97758">
        <ele>929</ele>
        <time>2020-07-11T14:01:16.109Z</time>
      </trkpt>
      <trkpt lat="45.76378" lon="2.97756">
        <ele>929</ele>
        <time>2020-07-11T14:01:17.109Z</time>
      </trkpt>
      <trkpt lat="45.76376" lon="2.97754">
        <ele>928</ele>
        <time>2020-07-11T14:01:18.109Z</time>
      </trkpt>
      <trkpt lat="45.76374" lon="2.97751">
        <ele>928</ele>
        <time>2020-07-11T14:01:19.109Z</time>
      </trkpt>
      <trkpt lat="45.76372" lon="2.97749">
        <ele>928</ele>
        <time>2020-07-11T14:01:20.109Z</time>
      </trkpt>
      <trkpt lat="45.7637" lon="2.97747">
        <ele>928</ele>
        <time>2020-07-11T14:01:21.109Z</time>
      </trkpt>
      <trkpt lat="45.76367" lon="2.97745">
        <ele>928</ele>
        <time>2020-07-11T14:01:22.109Z</time>
      </trkpt>
      <trkpt lat="45.76365" lon="2.97744">
        <ele>928</ele>
        <time>2020-07-11T14:01:23.109Z</time>
      </trkpt>
      <trkpt lat="45.76362" lon="2.97743">
        <ele>928</ele>
        <time>2020-07-11T14:01:24.109Z</time>
      </trkpt>
      <trkpt lat="45.76359" lon="2.97741">
        <ele>927</ele>
        <time>2020-07-11T14:01:25.109Z</time>
      </trkpt>
      <trkpt lat="45.76356" lon="2.97739">
        <ele>928</ele>
        <time>2020-07-11T14:01:26.109Z</time>
      </trkpt>
      <trkpt lat="45.76354" lon="2.97737">
        <ele>927</ele>
        <time>2020-07-11T14:01:27.109Z</time>
      </trkpt>
      <trkpt lat="45.76352" lon="2.97735">
        <ele>927</ele>
        <time>2020-07-11T14:01:28.109Z</time>
      </trkpt>
      <trkpt lat="45.76349" lon="2.97732">
        <ele>927</ele>
        <time>2020-07-11T14:01:29.109Z</time>
      </trkpt>
      <trkpt lat="45.76347" lon="2.9773">
        <ele>926</ele>
        <time>2020-07-11T14:01:30.109Z</time>
      </trkpt>
      <trkpt lat="45.76345" lon="2.97728">
        <ele>926</ele>
        <time>2020-07-11T14:01:31.109Z</time>
      </trkpt>
      <trkpt lat="45.76342" lon="2.97726">
        <ele>925</ele>
        <time>2020-07-11T14:01:32.109Z</time>
      </trkpt>
      <trkpt lat="45.7634" lon="2.97723">
        <ele>925</ele>
        <time>2020-07-11T14:01:33.109Z</time>
      </trkpt>
      <trkpt lat="45.76337" lon="2.9772">
        <ele>925</ele>
        <time>2020-07-11T14:01:34.109Z</time>
      </trkpt>
      <trkpt lat="45.76334" lon="2.97717">
        <ele>925</ele>
        <time>2020-07-11T14:01:35.109Z</time>
      </trkpt>
      <trkpt lat="45.76331" lon="2.97714">
        <ele>926</ele>
        <time>2020-07-11T14:01:36.109Z</time>
      </trkpt>
      <trkpt lat="45.76328" lon="2.97711">
        <ele>926</ele>
        <time>2020-07-11T14:01:37.109Z</time>
      </trkpt>
      <trkpt lat="45.76325" lon="2.97709">
        <ele>926</ele>
        <time>2020-07-11T14:01:38.109Z</time>
      </trkpt>
      <trkpt lat="45.76323" lon="2.97706">
        <ele>926</ele>
        <time>2020-07-11T14:01:39.109Z</time>
      </trkpt>
      <trkpt lat="45.76321" lon="2.97704">
        <ele>927</ele>
        <time>2020-07-11T14:01:40.109Z</time>
      </trkpt>
      <trkpt lat="45.76318" lon="2.97701">
        <ele>926</ele>
        <time>2020-07-11T14:01:41.109Z</time>
      </trkpt>
      <trkpt lat="45.76316" lon="2.97699">
        <ele>927</ele>
        <time>2020-07-11T14:01:42.109Z</time>
      </trkpt>
      <trkpt lat="45.76313" lon="2.97697">
        <ele>926</ele>
        <time>2020-07-11T14:01:43.109Z</time>
      </trkpt>
      <trkpt lat="45.7631" lon="2.97695">
        <ele>925</ele>
        <time>2020-07-11T14:01:44.109Z</time>
      </trkpt>
      <trkpt lat="45.76308" lon="2.97693">
        <ele>924</ele>
        <time>2020-07-11T14:01:45.109Z</time>
      </trkpt>
      <trkpt lat="45.76305" lon="2.97691">
        <ele>924</ele>
        <time>2020-07-11T14:01:46.109Z</time>
      </trkpt>
      <trkpt lat="45.76303" lon="2.97689">
        <ele>924</ele>
        <time>2020-07-11T14:01:47.109Z</time>
      </trkpt>
      <trkpt lat="45.763" lon="2.97687">
        <ele>924</ele>
        <time>2020-07-11T14:01:48.109Z</time>
      </trkpt>
      <trkpt lat="45.76298" lon="2.97685">
        <ele>924</ele>
        <time>2020-07-11T14:01:49.109Z</time>
      </trkpt>
      <trkpt lat="45.76296" lon="2.97683">
        <ele>924</ele>
        <time>2020-07-11T14:01:50.109Z</time>
      </trkpt>
      <trkpt lat="45.76293" lon="2.97681">
        <ele>924</ele>
        <time>2020-07-11T14:01:51.109Z</time>
      </trkpt>
      <trkpt lat="45.76291" lon="2.97679">
        <ele>924</ele>
        <time>2020-07-11T14:01:52.109Z</time>
      </trkpt>
      <trkpt lat="45.76289" lon="2.97676">
        <ele>923</ele>
        <time>2020-07-11T14:01:53.109Z</time>
      </trkpt>
      <trkpt lat="45.76286" lon="2.97674">
        <ele>923</ele>
        <time>2020-07-11T14:01:54.109Z</time>
      </trkpt>
      <trkpt lat="45.76284" lon="2.97671">
        <ele>924</ele>
        <time>2020-07-11T14:01:55.109Z</time>
      </trkpt>
      <trkpt lat="45.76282" lon="2.97669">
        <ele>923</ele>
        <time>2020-07-11T14:01:56.109Z</time>
      </trkpt>
      <trkpt lat="45.76279" lon="2.97667">
        <ele>923</ele>
        <time>2020-07-11T14:01:57.109Z</time>
      </trkpt>
      <trkpt lat="45.76276" lon="2.97665">
        <ele>924</ele>
        <time>2020-07-11T14:01:58.109Z</time>
      </trkpt>
      <trkpt lat="45.76273" lon="2.97664">
        <ele>925</ele>
        <time>2020-07-11T14:01:59.109Z</time>
      </trkpt>
      <trkpt lat="45.7627" lon="2.97662">
        <ele>925</ele>
        <time>2020-07-11T14:02:00.109Z</time>
      </trkpt>
      <trkpt lat="45.76267" lon="2.9766">
        <ele>925</ele>
        <time>2020-07-11T14:02:01.109Z</time>
      </trkpt>
      <trkpt lat="45.76265" lon="2.97658">
        <ele>926</ele>
        <time>2020-07-11T14:02:02.109Z</time>
      </trkpt>
      <trkpt lat="45.76261" lon="2.97656">
        <ele>927</ele>
        <time>2020-07-11T14:02:03.109Z</time>
      </trkpt>
      <trkpt lat="45.76258" lon="2.97655">
        <ele>926</ele>
        <time>2020-07-11T14:02:04.109Z</time>
      </trkpt>
      <trkpt lat="45.76255" lon="2.97653">
        <ele>926</ele>
        <time>2020-07-11T14:02:05.109Z</time>
      </trkpt>
      <trkpt lat="45.76252" lon="2.97652">
        <ele>926</ele>
        <time>2020-07-11T14:02:06.109Z</time>
      </trkpt>
      <trkpt lat="45.76249" lon="2.97651">
        <ele>927</ele>
        <time>2020-07-11T14:02:07.109Z</time>
      </trkpt>
      <trkpt lat="45.76247" lon="2.97649">
        <ele>926</ele>
        <time>2020-07-11T14:02:08.109Z</time>
      </trkpt>
      <trkpt lat="45.76245" lon="2.97647">
        <ele>926</ele>
        <time>2020-07-11T14:02:09.109Z</time>
      </trkpt>
      <trkpt lat="45.76243" lon="2.97646">
        <ele>926</ele>
        <time>2020-07-11T14:02:10.109Z</time>
      </trkpt>
      <trkpt lat="45.76241" lon="2.97645">
        <ele>928</ele>
        <time>2020-07-11T14:02:11.109Z</time>
      </trkpt>
      <trkpt lat="45.76238" lon="2.97644">
        <ele>928</ele>
        <time>2020-07-11T14:02:12.109Z</time>
      </trkpt>
      <trkpt lat="45.76235" lon="2.97643">
        <ele>929</ele>
        <time>2020-07-11T14:02:13.109Z</time>
      </trkpt>
      <trkpt lat="45.76232" lon="2.97642">
        <ele>929</ele>
        <time>2020-07-11T14:02:14.109Z</time>
      </trkpt>
      <trkpt lat="45.76229" lon="2.97641">
        <ele>930</ele>
        <time>2020-07-11T14:02:15.109Z</time>
      </trkpt>
      <trkpt lat="45.76227" lon="2.97639">
        <ele>930</ele>
        <time>2020-07-11T14:02:16.109Z</time>
      </trkpt>
      <trkpt lat="45.76224" lon="2.97638">
        <ele>932</ele>
        <time>2020-07-11T14:02:17.109Z</time>
      </trkpt>
      <trkpt lat="45.76222" lon="2.97637">
        <ele>933</ele>
        <time>2020-07-11T14:02:18.109Z</time>
      </trkpt>
      <trkpt lat="45.7622" lon="2.97636">
        <ele>933</ele>
        <time>2020-07-11T14:02:19.109Z</time>
      </trkpt>
      <trkpt lat="45.76217" lon="2.97634">
        <ele>934</ele>
        <time>2020-07-11T14:02:20.109Z</time>
      </trkpt>
      <trkpt lat="45.76215" lon="2.97633">
        <ele>933</ele>
        <time>2020-07-11T14:02:21.109Z</time>
      </trkpt>
      <trkpt lat="45.76212" lon="2.97632">
        <ele>933</ele>
        <time>2020-07-11T14:02:22.109Z</time>
      </trkpt>
      <trkpt lat="45.7621" lon="2.9763">
        <ele>933</ele>
        <time>2020-07-11T14:02:23.109Z</time>
      </trkpt>
      <trkpt lat="45.76207" lon="2.97629">
        <ele>932</ele>
        <time>2020-07-11T14:02:24.109Z</time>
      </trkpt>
      <trkpt lat="45.76204" lon="2.97627">
        <ele>931</ele>
        <time>2020-07-11T14:02:25.109Z</time>
      </trkpt>
      <trkpt lat="45.76202" lon="2.97625">
        <ele>930</ele>
        <time>2020-07-11T14:02:26.109Z</time>
      </trkpt>
      <trkpt lat="45.762" lon="2.97623">
        <ele>930</ele>
        <time>2020-07-11T14:02:27.109Z</time>
      </trkpt>
      <trkpt lat="45.76198" lon="2.97621">
        <ele>931</ele>
        <time>2020-07-11T14:02:28.109Z</time>
      </trkpt>
      <trkpt lat="45.76196" lon="2.9762">
        <ele>931</ele>
        <time>2020-07-11T14:02:29.109Z</time>
      </trkpt>
      <trkpt lat="45.76194" lon="2.97619">
        <ele>931</ele>
        <time>2020-07-11T14:02:30.109Z</time>
      </trkpt>
      <trkpt lat="45.76192" lon="2.97618">
        <ele>931</ele>
        <time>2020-07-11T14:02:31.109Z</time>
      </trkpt>
      <trkpt lat="45.7619" lon="2.97616">
        <ele>930</ele>
        <time>2020-07-11T14:02:32.109Z</time>
      </trkpt>
      <trkpt lat="45.76187" lon="2.97615">
        <ele>930</ele>
        <time>2020-07-11T14:02:33.109Z</time>
      </trkpt>
      <trkpt lat="45.76184" lon="2.97614">
        <ele>930</ele>
        <time>2020-07-11T14:02:34.109Z</time>
      </trkpt>
      <trkpt lat="45.76182" lon="2.97613">
        <ele>930</ele>
        <time>2020-07-11T14:02:35.109Z</time>
      </trkpt>
      <trkpt lat="45.7618" lon="2.97613">
        <ele>930</ele>
        <time>2020-07-11T14:02:36.109Z</time>
      </trkpt>
      <trkpt lat="45.76177" lon="2.97612">
        <ele>929</ele>
        <time>2020-07-11T14:02:37.109Z</time>
      </trkpt>
      <trkpt lat="45.76175" lon="2.9761">
        <ele>930</ele>
        <time>2020-07-11T14:02:38.109Z</time>
      </trkpt>
      <trkpt lat="45.76173" lon="2.97609">
        <ele>931</ele>
        <time>2020-07-11T14:02:39.109Z</time>
      </trkpt>
      <trkpt lat="45.76171" lon="2.97608">
        <ele>930</ele>
        <time>2020-07-11T14:02:40.109Z</time>
      </trkpt>
      <trkpt lat="45.76169" lon="2.97606">
        <ele>930</ele>
        <time>2020-07-11T14:02:41.109Z</time>
      </trkpt>
      <trkpt lat="45.76168" lon="2.97604">
        <ele>930</ele>
        <time>2020-07-11T14:02:42.109Z</time>
      </trkpt>
      <trkpt lat="45.76166" lon="2.97602">
        <ele>930</ele>
        <time>2020-07-11T14:02:43.109Z</time>
      </trkpt>
      <trkpt lat="45.76163" lon="2.976">
        <ele>931</ele>
        <time>2020-07-11T14:02:44.109Z</time>
      </trkpt>
      <trkpt lat="45.76161" lon="2.97597">
        <ele>931</ele>
        <time>2020-07-11T14:02:45.109Z</time>
      </trkpt>
      <trkpt lat="45.76157" lon="2.97594">
        <ele>930</ele>
        <time>2020-07-11T14:02:46.109Z</time>
      </trkpt>
      <trkpt lat="45.76154" lon="2.97591">
        <ele>930</ele>
        <time>2020-07-11T14:02:47.109Z</time>
      </trkpt>
      <trkpt lat="45.76151" lon="2.97588">
        <ele>930</ele>
        <time>2020-07-11T14:02:48.109Z</time>
      </trkpt>
      <trkpt lat="45.76148" lon="2.97586">
        <ele>931</ele>
        <time>2020-07-11T14:02:49.109Z</time>
      </trkpt>
      <trkpt lat="45.76146" lon="2.97583">
        <ele>932</ele>
        <time>2020-07-11T14:02:50.109Z</time>
      </trkpt>
      <trkpt lat="45.76143" lon="2.97581">
        <ele>933</ele>
        <time>2020-07-11T14:02:51.109Z</time>
      </trkpt>
      <trkpt lat="45.76141" lon="2.97579">
        <ele>934</ele>
        <time>2020-07-11T14:02:52.109Z</time>
      </trkpt>
      <trkpt lat="45.76138" lon="2.97577">
        <ele>934</ele>
        <time>2020-07-11T14:02:53.109Z</time>
      </trkpt>
      <trkpt lat="45.76136" lon="2.97575">
        <ele>934</ele>
        <time>2020-07-11T14:02:54.109Z</time>
      </trkpt>
      <trkpt lat="45.76134" lon="2.97572">
        <ele>934</ele>
        <time>2020-07-11T14:02:55.109Z</time>
      </trkpt>
      <trkpt lat="45.76132" lon="2.9757">
        <ele>935</ele>
        <time>2020-07-11T14:02:56.109Z</time>
      </trkpt>
      <trkpt lat="45.7613" lon="2.97568">
        <ele>935</ele>
        <time>2020-07-11T14:02:57.109Z</time>
      </trkpt>
      <trkpt lat="45.76128" lon="2.97566">
        <ele>935</ele>
        <time>2020-07-11T14:02:58.109Z</time>
      </trkpt>
      <trkpt lat="45.76125" lon="2.97564">
        <ele>935</ele>
        <time>2020-07-11T14:02:59.109Z</time>
      </trkpt>
      <trkpt lat="45.76122" lon="2.97562">
        <ele>935</ele>
        <time>2020-07-11T14:03:00.109Z</time>
      </trkpt>
      <trkpt lat="45.7612" lon="2.9756">
        <ele>935</ele>
        <time>2020-07-11T14:03:01.109Z</time>
      </trkpt>
      <trkpt lat="45.76118" lon="2.97558">
        <ele>935</ele>
        <time>2020-07-11T14:03:02.109Z</time>
      </trkpt>
      <trkpt lat="45.76116" lon="2.97555">
        <ele>935</ele>
        <time>2020-07-11T14:03:03.109Z</time>
      </trkpt>
      <trkpt lat="45.76113" lon="2.97553">
        <ele>935</ele>
        <time>2020-07-11T14:03:04.109Z</time>
      </trkpt>
      <trkpt lat="45.76111" lon="2.97551">
        <ele>934</ele>
        <time>2020-07-11T14:03:05.109Z</time>
      </trkpt>
      <trkpt lat="45.76109" lon="2.97548">
        <ele>934</ele>
        <time>2020-07-11T14:03:06.109Z</time>
      </trkpt>
      <trkpt lat="45.76107" lon="2.97546">
        <ele>933</ele>
        <time>2020-07-11T14:03:07.109Z</time>
      </trkpt>
      <trkpt lat="45.76105" lon="2.97544">
        <ele>933</ele>
        <time>2020-07-11T14:03:08.109Z</time>
      </trkpt>
      <trkpt lat="45.76102" lon="2.97543">
        <ele>934</ele>
        <time>2020-07-11T14:03:09.109Z</time>
      </trkpt>
      <trkpt lat="45.76099" lon="2.97541">
        <ele>935</ele>
        <time>2020-07-11T14:03:10.109Z</time>
      </trkpt>
      <trkpt lat="45.76096" lon="2.9754">
        <ele>936</ele>
        <time>2020-07-11T14:03:11.109Z</time>
      </trkpt>
      <trkpt lat="45.76093" lon="2.97538">
        <ele>937</ele>
        <time>2020-07-11T14:03:12.109Z</time>
      </trkpt>
      <trkpt lat="45.76091" lon="2.97536">
        <ele>937</ele>
        <time>2020-07-11T14:03:13.109Z</time>
      </trkpt>
      <trkpt lat="45.76088" lon="2.97534">
        <ele>938</ele>
        <time>2020-07-11T14:03:14.109Z</time>
      </trkpt>
      <trkpt lat="45.76084" lon="2.97532">
        <ele>939</ele>
        <time>2020-07-11T14:03:15.109Z</time>
      </trkpt>
      <trkpt lat="45.76081" lon="2.9753">
        <ele>939</ele>
        <time>2020-07-11T14:03:16.109Z</time>
      </trkpt>
      <trkpt lat="45.76078" lon="2.97528">
        <ele>938</ele>
        <time>2020-07-11T14:03:17.109Z</time>
      </trkpt>
      <trkpt lat="45.76076" lon="2.97526">
        <ele>938</ele>
        <time>2020-07-11T14:03:18.109Z</time>
      </trkpt>
      <trkpt lat="45.76073" lon="2.97523">
        <ele>938</ele>
        <time>2020-07-11T14:03:19.109Z</time>
      </trkpt>
      <trkpt lat="45.76071" lon="2.97522">
        <ele>938</ele>
        <time>2020-07-11T14:03:20.109Z</time>
      </trkpt>
      <trkpt lat="45.76069" lon="2.9752">
        <ele>937</ele>
        <time>2020-07-11T14:03:21.109Z</time>
      </trkpt>
      <trkpt lat="45.76066" lon="2.97518">
        <ele>937</ele>
        <time>2020-07-11T14:03:22.109Z</time>
      </trkpt>
      <trkpt lat="45.76064" lon="2.97516">
        <ele>938</ele>
        <time>2020-07-11T14:03:23.109Z</time>
      </trkpt>
      <trkpt lat="45.76062" lon="2.97514">
        <ele>937</ele>
        <time>2020-07-11T14:03:24.109Z</time>
      </trkpt>
      <trkpt lat="45.7606" lon="2.97512">
        <ele>937</ele>
        <time>2020-07-11T14:03:25.109Z</time>
      </trkpt>
      <trkpt lat="45.76058" lon="2.9751">
        <ele>937</ele>
        <time>2020-07-11T14:03:26.109Z</time>
      </trkpt>
      <trkpt lat="45.76056" lon="2.97508">
        <ele>936</ele>
        <time>2020-07-11T14:03:27.109Z</time>
      </trkpt>
      <trkpt lat="45.76053" lon="2.97507">
        <ele>937</ele>
        <time>2020-07-11T14:03:28.109Z</time>
      </trkpt>
      <trkpt lat="45.76051" lon="2.97505">
        <ele>937</ele>
        <time>2020-07-11T14:03:29.109Z</time>
      </trkpt>
      <trkpt lat="45.76049" lon="2.97504">
        <ele>937</ele>
        <time>2020-07-11T14:03:30.109Z</time>
      </trkpt>
      <trkpt lat="45.76047" lon="2.97502">
        <ele>937</ele>
        <time>2020-07-11T14:03:31.109Z</time>
      </trkpt>
      <trkpt lat="45.76045" lon="2.97501">
        <ele>937</ele>
        <time>2020-07-11T14:03:32.109Z</time>
      </trkpt>
      <trkpt lat="45.76043" lon="2.97498">
        <ele>937</ele>
        <time>2020-07-11T14:03:33.109Z</time>
      </trkpt>
      <trkpt lat="45.7604" lon="2.97496">
        <ele>936</ele>
        <time>2020-07-11T14:03:34.109Z</time>
      </trkpt>
      <trkpt lat="45.76038" lon="2.97494">
        <ele>935</ele>
        <time>2020-07-11T14:03:35.109Z</time>
      </trkpt>
      <trkpt lat="45.76035" lon="2.97491">
        <ele>934</ele>
        <time>2020-07-11T14:03:36.109Z</time>
      </trkpt>
      <trkpt lat="45.76032" lon="2.97489">
        <ele>934</ele>
        <time>2020-07-11T14:03:37.109Z</time>
      </trkpt>
      <trkpt lat="45.7603" lon="2.97487">
        <ele>934</ele>
        <time>2020-07-11T14:03:38.109Z</time>
      </trkpt>
      <trkpt lat="45.76028" lon="2.97485">
        <ele>934</ele>
        <time>2020-07-11T14:03:39.109Z</time>
      </trkpt>
      <trkpt lat="45.76026" lon="2.97483">
        <ele>934</ele>
        <time>2020-07-11T14:03:40.109Z</time>
      </trkpt>
      <trkpt lat="45.76023" lon="2.97481">
        <ele>934</ele>
        <time>2020-07-11T14:03:41.109Z</time>
      </trkpt>
      <trkpt lat="45.76021" lon="2.97479">
        <ele>934</ele>
        <time>2020-07-11T14:03:42.109Z</time>
      </trkpt>
      <trkpt lat="45.7602" lon="2.97477">
        <ele>934</ele>
        <time>2020-07-11T14:03:43.109Z</time>
      </trkpt>
      <trkpt lat="45.76018" lon="2.97475">
        <ele>934</ele>
        <time>2020-07-11T14:03:44.109Z</time>
      </trkpt>
      <trkpt lat="45.76017" lon="2.97474">
        <ele>935</ele>
        <time>2020-07-11T14:03:45.109Z</time>
      </trkpt>
      <trkpt lat="45.76015" lon="2.97472">
        <ele>935</ele>
        <time>2020-07-11T14:03:46.109Z</time>
      </trkpt>
      <trkpt lat="45.76013" lon="2.9747">
        <ele>935</ele>
        <time>2020-07-11T14:03:47.109Z</time>
      </trkpt>
      <trkpt lat="45.76012" lon="2.97468">
        <ele>935</ele>
        <time>2020-07-11T14:03:48.109Z</time>
      </trkpt>
      <trkpt lat="45.7601" lon="2.97466">
        <ele>934</ele>
        <time>2020-07-11T14:03:49.109Z</time>
      </trkpt>
      <trkpt lat="45.76008" lon="2.97463">
        <ele>935</ele>
        <time>2020-07-11T14:03:50.109Z</time>
      </trkpt>
      <trkpt lat="45.76006" lon="2.97461">
        <ele>936</ele>
        <time>2020-07-11T14:03:51.109Z</time>
      </trkpt>
      <trkpt lat="45.76004" lon="2.97459">
        <ele>936</ele>
        <time>2020-07-11T14:03:52.109Z</time>
      </trkpt>
      <trkpt lat="45.76002" lon="2.97457">
        <ele>936</ele>
        <time>2020-07-11T14:03:53.109Z</time>
      </trkpt>
      <trkpt lat="45.76" lon="2.97455">
        <ele>936</ele>
        <time>2020-07-11T14:03:54.109Z</time>
      </trkpt>
      <trkpt lat="45.75999" lon="2.97453">
        <ele>937</ele>
        <time>2020-07-11T14:03:55.109Z</time>
      </trkpt>
      <trkpt lat="45.75997" lon="2.97451">
        <ele>937</ele>
        <time>2020-07-11T14:03:56.109Z</time>
      </trkpt>
      <trkpt lat="45.75995" lon="2.97449">
        <ele>938</ele>
        <time>2020-07-11T14:03:57.109Z</time>
      </trkpt>
      <trkpt lat="45.75993" lon="2.97448">
        <ele>938</ele>
        <time>2020-07-11T14:03:58.109Z</time>
      </trkpt>
      <trkpt lat="45.7599" lon="2.97446">
        <ele>938</ele>
        <time>2020-07-11T14:03:59.109Z</time>
      </trkpt>
      <trkpt lat="45.75988" lon="2.97444">
        <ele>939</ele>
        <time>2020-07-11T14:04:00.109Z</time>
      </trkpt>
      <trkpt lat="45.75986" lon="2.97443">
        <ele>938</ele>
        <time>2020-07-11T14:04:01.109Z</time>
      </trkpt>
      <trkpt lat="45.75984" lon="2.97441">
        <ele>939</ele>
        <time>2020-07-11T14:04:02.109Z</time>
      </trkpt>
      <trkpt lat="45.75981" lon="2.9744">
        <ele>939</ele>
        <time>2020-07-11T14:04:03.109Z</time>
      </trkpt>
      <trkpt lat="45.75978" lon="2.97438">
        <ele>939</ele>
        <time>2020-07-11T14:04:04.109Z</time>
      </trkpt>
      <trkpt lat="45.75976" lon="2.97437">
        <ele>939</ele>
        <time>2020-07-11T14:04:05.109Z</time>
      </trkpt>
      <trkpt lat="45.75973" lon="2.97435">
        <ele>938</ele>
        <time>2020-07-11T14:04:06.109Z</time>
      </trkpt>
      <trkpt lat="45.75971" lon="2.97433">
        <ele>939</ele>
        <time>2020-07-11T14:04:07.109Z</time>
      </trkpt>
      <trkpt lat="45.75968" lon="2.9743">
        <ele>939</ele>
        <time>2020-07-11T14:04:08.109Z</time>
      </trkpt>
      <trkpt lat="45.75966" lon="2.97429">
        <ele>939</ele>
        <time>2020-07-11T14:04:09.109Z</time>
      </trkpt>
      <trkpt lat="45.75964" lon="2.97427">
        <ele>939</ele>
        <time>2020-07-11T14:04:10.109Z</time>
      </trkpt>
      <trkpt lat="45.75961" lon="2.97426">
        <ele>939</ele>
        <time>2020-07-11T14:04:11.109Z</time>
      </trkpt>
      <trkpt lat="45.75959" lon="2.97425">
        <ele>939</ele>
        <time>2020-07-11T14:04:12.109Z</time>
      </trkpt>
      <trkpt lat="45.75957" lon="2.97423">
        <ele>938</ele>
        <time>2020-07-11T14:04:13.109Z</time>
      </trkpt>
      <trkpt lat="45.75954" lon="2.97422">
        <ele>939</ele>
        <time>2020-07-11T14:04:14.109Z</time>
      </trkpt>
      <trkpt lat="45.75951" lon="2.97421">
        <ele>939</ele>
        <time>2020-07-11T14:04:15.109Z</time>
      </trkpt>
      <trkpt lat="45.75948" lon="2.97419">
        <ele>939</ele>
        <time>2020-07-11T14:04:16.109Z</time>
      </trkpt>
      <trkpt lat="45.75946" lon="2.97418">
        <ele>939</ele>
        <time>2020-07-11T14:04:17.109Z</time>
      </trkpt>
      <trkpt lat="45.75943" lon="2.97417">
        <ele>939</ele>
        <time>2020-07-11T14:04:18.109Z</time>
      </trkpt>
      <trkpt lat="45.75941" lon="2.97417">
        <ele>939</ele>
        <time>2020-07-11T14:04:19.109Z</time>
      </trkpt>
      <trkpt lat="45.75938" lon="2.97416">
        <ele>940</ele>
        <time>2020-07-11T14:04:20.109Z</time>
      </trkpt>
      <trkpt lat="45.75935" lon="2.97414">
        <ele>940</ele>
        <time>2020-07-11T14:04:21.109Z</time>
      </trkpt>
      <trkpt lat="45.75932" lon="2.97413">
        <ele>941</ele>
        <time>2020-07-11T14:04:22.109Z</time>
      </trkpt>
      <trkpt lat="45.75929" lon="2.97412">
        <ele>942</ele>
        <time>2020-07-11T14:04:23.109Z</time>
      </trkpt>
      <trkpt lat="45.75926" lon="2.97411">
        <ele>941</ele>
        <time>2020-07-11T14:04:24.109Z</time>
      </trkpt>
      <trkpt lat="45.75923" lon="2.9741">
        <ele>941</ele>
        <time>2020-07-11T14:04:25.109Z</time>
      </trkpt>
      <trkpt lat="45.7592" lon="2.97409">
        <ele>941</ele>
        <time>2020-07-11T14:04:26.109Z</time>
      </trkpt>
      <trkpt lat="45.75918" lon="2.97407">
        <ele>942</ele>
        <time>2020-07-11T14:04:27.109Z</time>
      </trkpt>
      <trkpt lat="45.75915" lon="2.97406">
        <ele>942</ele>
        <time>2020-07-11T14:04:28.109Z</time>
      </trkpt>
      <trkpt lat="45.75913" lon="2.97404">
        <ele>943</ele>
        <time>2020-07-11T14:04:29.109Z</time>
      </trkpt>
      <trkpt lat="45.7591" lon="2.97402">
        <ele>943</ele>
        <time>2020-07-11T14:04:30.109Z</time>
      </trkpt>
      <trkpt lat="45.75909" lon="2.974">
        <ele>943</ele>
        <time>2020-07-11T14:04:31.109Z</time>
      </trkpt>
      <trkpt lat="45.75908" lon="2.97397">
        <ele>943</ele>
        <time>2020-07-11T14:04:32.109Z</time>
      </trkpt>
      <trkpt lat="45.75908" lon="2.97393">
        <ele>943</ele>
        <time>2020-07-11T14:04:33.109Z</time>
      </trkpt>
      <trkpt lat="45.75908" lon="2.9739">
        <ele>943</ele>
        <time>2020-07-11T14:04:34.109Z</time>
      </trkpt>
      <trkpt lat="45.75908" lon="2.97386">
        <ele>943</ele>
        <time>2020-07-11T14:04:35.109Z</time>
      </trkpt>
      <trkpt lat="45.75908" lon="2.97383">
        <ele>942</ele>
        <time>2020-07-11T14:04:36.109Z</time>
      </trkpt>
      <trkpt lat="45.75909" lon="2.9738">
        <ele>942</ele>
        <time>2020-07-11T14:04:37.109Z</time>
      </trkpt>
      <trkpt lat="45.75909" lon="2.97377">
        <ele>942</ele>
        <time>2020-07-11T14:04:38.109Z</time>
      </trkpt>
      <trkpt lat="45.7591" lon="2.97373">
        <ele>943</ele>
        <time>2020-07-11T14:04:39.109Z</time>
      </trkpt>
      <trkpt lat="45.7591" lon="2.97369">
        <ele>943</ele>
        <time>2020-07-11T14:04:40.109Z</time>
      </trkpt>
      <trkpt lat="45.75911" lon="2.97365">
        <ele>943</ele>
        <time>2020-07-11T14:04:41.109Z</time>
      </trkpt>
      <trkpt lat="45.75911" lon="2.97361">
        <ele>943</ele>
        <time>2020-07-11T14:04:42.109Z</time>
      </trkpt>
      <trkpt lat="45.75911" lon="2.97358">
        <ele>943</ele>
        <time>2020-07-11T14:04:43.109Z</time>
      </trkpt>
      <trkpt lat="45.75912" lon="2.97354">
        <ele>943</ele>
        <time>2020-07-11T14:04:44.109Z</time>
      </trkpt>
      <trkpt lat="45.75913" lon="2.9735">
        <ele>943</ele>
        <time>2020-07-11T14:04:45.109Z</time>
      </trkpt>
      <trkpt lat="45.75913" lon="2.97347">
        <ele>943</ele>
        <time>2020-07-11T14:04:46.109Z</time>
      </trkpt>
      <trkpt lat="45.75914" lon="2.97344">
        <ele>943</ele>
        <time>2020-07-11T14:04:47.109Z</time>
      </trkpt>
      <trkpt lat="45.75914" lon="2.9734">
        <ele>943</ele>
        <time>2020-07-11T14:04:48.109Z</time>
      </trkpt>
      <trkpt lat="45.75915" lon="2.97336">
        <ele>943</ele>
        <time>2020-07-11T14:04:49.109Z</time>
      </trkpt>
      <trkpt lat="45.75915" lon="2.97332">
        <ele>944</ele>
        <time>2020-07-11T14:04:50.109Z</time>
      </trkpt>
      <trkpt lat="45.75916" lon="2.97329">
        <ele>944</ele>
        <time>2020-07-11T14:04:51.109Z</time>
      </trkpt>
      <trkpt lat="45.75917" lon="2.97325">
        <ele>944</ele>
        <time>2020-07-11T14:04:52.109Z</time>
      </trkpt>
      <trkpt lat="45.75917" lon="2.97321">
        <ele>944</ele>
        <time>2020-07-11T14:04:53.109Z</time>
      </trkpt>
      <trkpt lat="45.75917" lon="2.97317">
        <ele>943</ele>
        <time>2020-07-11T14:04:54.109Z</time>
      </trkpt>
      <trkpt lat="45.75918" lon="2.97313">
        <ele>942</ele>
        <time>2020-07-11T14:04:55.109Z</time>
      </trkpt>
      <trkpt lat="45.75918" lon="2.97308">
        <ele>941</ele>
        <time>2020-07-11T14:04:56.109Z</time>
      </trkpt>
      <trkpt lat="45.75919" lon="2.97304">
        <ele>940</ele>
        <time>2020-07-11T14:04:57.109Z</time>
      </trkpt>
      <trkpt lat="45.7592" lon="2.973">
        <ele>941</ele>
        <time>2020-07-11T14:04:58.109Z</time>
      </trkpt>
      <trkpt lat="45.75921" lon="2.97296">
        <ele>940</ele>
        <time>2020-07-11T14:04:59.109Z</time>
      </trkpt>
      <trkpt lat="45.75922" lon="2.97292">
        <ele>941</ele>
        <time>2020-07-11T14:05:00.109Z</time>
      </trkpt>
      <trkpt lat="45.75923" lon="2.97288">
        <ele>941</ele>
        <time>2020-07-11T14:05:01.109Z</time>
      </trkpt>
      <trkpt lat="45.75924" lon="2.97284">
        <ele>940</ele>
        <time>2020-07-11T14:05:02.109Z</time>
      </trkpt>
      <trkpt lat="45.75925" lon="2.9728">
        <ele>941</ele>
        <time>2020-07-11T14:05:03.109Z</time>
      </trkpt>
      <trkpt lat="45.75926" lon="2.97276">
        <ele>942</ele>
        <time>2020-07-11T14:05:04.109Z</time>
      </trkpt>
      <trkpt lat="45.75926" lon="2.97273">
        <ele>942</ele>
        <time>2020-07-11T14:05:05.109Z</time>
      </trkpt>
      <trkpt lat="45.75927" lon="2.97269">
        <ele>943</ele>
        <time>2020-07-11T14:05:06.109Z</time>
      </trkpt>
      <trkpt lat="45.75927" lon="2.97265">
        <ele>944</ele>
        <time>2020-07-11T14:05:07.109Z</time>
      </trkpt>
      <trkpt lat="45.75928" lon="2.97262">
        <ele>944</ele>
        <time>2020-07-11T14:05:08.109Z</time>
      </trkpt>
      <trkpt lat="45.75928" lon="2.97258">
        <ele>944</ele>
        <time>2020-07-11T14:05:09.109Z</time>
      </trkpt>
      <trkpt lat="45.75929" lon="2.97254">
        <ele>945</ele>
        <time>2020-07-11T14:05:10.109Z</time>
      </trkpt>
      <trkpt lat="45.7593" lon="2.97251">
        <ele>946</ele>
        <time>2020-07-11T14:05:11.109Z</time>
      </trkpt>
      <trkpt lat="45.7593" lon="2.97248">
        <ele>946</ele>
        <time>2020-07-11T14:05:12.109Z</time>
      </trkpt>
      <trkpt lat="45.7593" lon="2.97244">
        <ele>947</ele>
        <time>2020-07-11T14:05:13.109Z</time>
      </trkpt>
      <trkpt lat="45.7593" lon="2.97241">
        <ele>948</ele>
        <time>2020-07-11T14:05:14.109Z</time>
      </trkpt>
      <trkpt lat="45.75931" lon="2.97238">
        <ele>949</ele>
        <time>2020-07-11T14:05:15.109Z</time>
      </trkpt>
      <trkpt lat="45.75931" lon="2.97235">
        <ele>949</ele>
        <time>2020-07-11T14:05:16.109Z</time>
      </trkpt>
      <trkpt lat="45.75931" lon="2.97232">
        <ele>950</ele>
        <time>2020-07-11T14:05:17.109Z</time>
      </trkpt>
      <trkpt lat="45.75932" lon="2.97228">
        <ele>950</ele>
        <time>2020-07-11T14:05:18.109Z</time>
      </trkpt>
      <trkpt lat="45.75932" lon="2.97225">
        <ele>950</ele>
        <time>2020-07-11T14:05:19.109Z</time>
      </trkpt>
      <trkpt lat="45.75932" lon="2.97221">
        <ele>949</ele>
        <time>2020-07-11T14:05:20.109Z</time>
      </trkpt>
      <trkpt lat="45.75932" lon="2.97218">
        <ele>949</ele>
        <time>2020-07-11T14:05:21.109Z</time>
      </trkpt>
      <trkpt lat="45.75933" lon="2.97215">
        <ele>949</ele>
        <time>2020-07-11T14:05:22.109Z</time>
      </trkpt>
      <trkpt lat="45.75934" lon="2.97211">
        <ele>949</ele>
        <time>2020-07-11T14:05:23.109Z</time>
      </trkpt>
      <trkpt lat="45.75935" lon="2.97208">
        <ele>949</ele>
        <time>2020-07-11T14:05:24.109Z</time>
      </trkpt>
      <trkpt lat="45.75936" lon="2.97204">
        <ele>949</ele>
        <time>2020-07-11T14:05:25.109Z</time>
      </trkpt>
      <trkpt lat="45.75938" lon="2.972">
        <ele>949</ele>
        <time>2020-07-11T14:05:26.109Z</time>
      </trkpt>
      <trkpt lat="45.75938" lon="2.97197">
        <ele>949</ele>
        <time>2020-07-11T14:05:27.109Z</time>
      </trkpt>
      <trkpt lat="45.75939" lon="2.97194">
        <ele>951</ele>
        <time>2020-07-11T14:05:28.109Z</time>
      </trkpt>
      <trkpt lat="45.7594" lon="2.97191">
        <ele>952</ele>
        <time>2020-07-11T14:05:29.109Z</time>
      </trkpt>
      <trkpt lat="45.7594" lon="2.97187">
        <ele>953</ele>
        <time>2020-07-11T14:05:30.109Z</time>
      </trkpt>
      <trkpt lat="45.75941" lon="2.97183">
        <ele>955</ele>
        <time>2020-07-11T14:05:31.109Z</time>
      </trkpt>
      <trkpt lat="45.75942" lon="2.9718">
        <ele>955</ele>
        <time>2020-07-11T14:05:32.109Z</time>
      </trkpt>
      <trkpt lat="45.75943" lon="2.97177">
        <ele>956</ele>
        <time>2020-07-11T14:05:33.109Z</time>
      </trkpt>
      <trkpt lat="45.75944" lon="2.97173">
        <ele>957</ele>
        <time>2020-07-11T14:05:34.109Z</time>
      </trkpt>
      <trkpt lat="45.75944" lon="2.97169">
        <ele>957</ele>
        <time>2020-07-11T14:05:35.109Z</time>
      </trkpt>
      <trkpt lat="45.75945" lon="2.97165">
        <ele>958</ele>
        <time>2020-07-11T14:05:36.109Z</time>
      </trkpt>
      <trkpt lat="45.75946" lon="2.97161">
        <ele>959</ele>
        <time>2020-07-11T14:05:37.109Z</time>
      </trkpt>
      <trkpt lat="45.75947" lon="2.97157">
        <ele>959</ele>
        <time>2020-07-11T14:05:38.109Z</time>
      </trkpt>
      <trkpt lat="45.75948" lon="2.97154">
        <ele>959</ele>
        <time>2020-07-11T14:05:39.109Z</time>
      </trkpt>
      <trkpt lat="45.75948" lon="2.9715">
        <ele>959</ele>
        <time>2020-07-11T14:05:40.109Z</time>
      </trkpt>
      <trkpt lat="45.75948" lon="2.97146">
        <ele>958</ele>
        <time>2020-07-11T14:05:41.109Z</time>
      </trkpt>
      <trkpt lat="45.75949" lon="2.97142">
        <ele>958</ele>
        <time>2020-07-11T14:05:42.109Z</time>
      </trkpt>
      <trkpt lat="45.75949" lon="2.97138">
        <ele>958</ele>
        <time>2020-07-11T14:05:43.109Z</time>
      </trkpt>
      <trkpt lat="45.7595" lon="2.97134">
        <ele>957</ele>
        <time>2020-07-11T14:05:44.109Z</time>
      </trkpt>
      <trkpt lat="45.75951" lon="2.9713">
        <ele>956</ele>
        <time>2020-07-11T14:05:45.109Z</time>
      </trkpt>
      <trkpt lat="45.75952" lon="2.97125">
        <ele>956</ele>
        <time>2020-07-11T14:05:46.109Z</time>
      </trkpt>
      <trkpt lat="45.75953" lon="2.97121">
        <ele>956</ele>
        <time>2020-07-11T14:05:47.109Z</time>
      </trkpt>
      <trkpt lat="45.75953" lon="2.97116">
        <ele>956</ele>
        <time>2020-07-11T14:05:48.109Z</time>
      </trkpt>
      <trkpt lat="45.75954" lon="2.97111">
        <ele>956</ele>
        <time>2020-07-11T14:05:49.109Z</time>
      </trkpt>
      <trkpt lat="45.75956" lon="2.97107">
        <ele>956</ele>
        <time>2020-07-11T14:05:50.109Z</time>
      </trkpt>
      <trkpt lat="45.75957" lon="2.97104">
        <ele>957</ele>
        <time>2020-07-11T14:05:51.109Z</time>
      </trkpt>
      <trkpt lat="45.75958" lon="2.97101">
        <ele>957</ele>
        <time>2020-07-11T14:05:52.109Z</time>
      </trkpt>
      <trkpt lat="45.75958" lon="2.97098">
        <ele>957</ele>
        <time>2020-07-11T14:05:53.109Z</time>
      </trkpt>
      <trkpt lat="45.75959" lon="2.97094">
        <ele>957</ele>
        <time>2020-07-11T14:05:54.109Z</time>
      </trkpt>
      <trkpt lat="45.7596" lon="2.9709">
        <ele>957</ele>
        <time>2020-07-11T14:05:55.109Z</time>
      </trkpt>
      <trkpt lat="45.75961" lon="2.97086">
        <ele>958</ele>
        <time>2020-07-11T14:05:56.109Z</time>
      </trkpt>
      <trkpt lat="45.75962" lon="2.97083">
        <ele>959</ele>
        <time>2020-07-11T14:05:57.109Z</time>
      </trkpt>
      <trkpt lat="45.75962" lon="2.9708">
        <ele>958</ele>
        <time>2020-07-11T14:05:58.109Z</time>
      </trkpt>
      <trkpt lat="45.75963" lon="2.97076">
        <ele>958</ele>
        <time>2020-07-11T14:05:59.109Z</time>
      </trkpt>
      <trkpt lat="45.75964" lon="2.97072">
        <ele>958</ele>
        <time>2020-07-11T14:06:00.109Z</time>
      </trkpt>
      <trkpt lat="45.75965" lon="2.97068">
        <ele>958</ele>
        <time>2020-07-11T14:06:01.109Z</time>
      </trkpt>
      <trkpt lat="45.75966" lon="2.97064">
        <ele>958</ele>
        <time>2020-07-11T14:06:02.109Z</time>
      </trkpt>
      <trkpt lat="45.75967" lon="2.97061">
        <ele>959</ele>
        <time>2020-07-11T14:06:03.109Z</time>
      </trkpt>
      <trkpt lat="45.75968" lon="2.97058">
        <ele>959</ele>
        <time>2020-07-11T14:06:04.109Z</time>
      </trkpt>
      <trkpt lat="45.75968" lon="2.97054">
        <ele>959</ele>
        <time>2020-07-11T14:06:05.109Z</time>
      </trkpt>
      <trkpt lat="45.75969" lon="2.97051">
        <ele>959</ele>
        <time>2020-07-11T14:06:06.109Z</time>
      </trkpt>
      <trkpt lat="45.75969" lon="2.97048">
        <ele>958</ele>
        <time>2020-07-11T14:06:07.109Z</time>
      </trkpt>
      <trkpt lat="45.7597" lon="2.97045">
        <ele>958</ele>
        <time>2020-07-11T14:06:08.109Z</time>
      </trkpt>
      <trkpt lat="45.7597" lon="2.97043">
        <ele>958</ele>
        <time>2020-07-11T14:06:09.109Z</time>
      </trkpt>
      <trkpt lat="45.75971" lon="2.9704">
        <ele>957</ele>
        <time>2020-07-11T14:06:10.109Z</time>
      </trkpt>
      <trkpt lat="45.75972" lon="2.97037">
        <ele>957</ele>
        <time>2020-07-11T14:06:11.109Z</time>
      </trkpt>
      <trkpt lat="45.75973" lon="2.97034">
        <ele>957</ele>
        <time>2020-07-11T14:06:12.109Z</time>
      </trkpt>
      <trkpt lat="45.75974" lon="2.97032">
        <ele>956</ele>
        <time>2020-07-11T14:06:13.109Z</time>
      </trkpt>
      <trkpt lat="45.75975" lon="2.9703">
        <ele>956</ele>
        <time>2020-07-11T14:06:14.109Z</time>
      </trkpt>
      <trkpt lat="45.75976" lon="2.97027">
        <ele>956</ele>
        <time>2020-07-11T14:06:15.109Z</time>
      </trkpt>
      <trkpt lat="45.75976" lon="2.97025">
        <ele>956</ele>
        <time>2020-07-11T14:06:16.109Z</time>
      </trkpt>
      <trkpt lat="45.75976" lon="2.97022">
        <ele>956</ele>
        <time>2020-07-11T14:06:17.109Z</time>
      </trkpt>
      <trkpt lat="45.75976" lon="2.97019">
        <ele>956</ele>
        <time>2020-07-11T14:06:18.109Z</time>
      </trkpt>
      <trkpt lat="45.75977" lon="2.97016">
        <ele>956</ele>
        <time>2020-07-11T14:06:19.109Z</time>
      </trkpt>
      <trkpt lat="45.75977" lon="2.97012">
        <ele>956</ele>
        <time>2020-07-11T14:06:20.109Z</time>
      </trkpt>
      <trkpt lat="45.75978" lon="2.97008">
        <ele>956</ele>
        <time>2020-07-11T14:06:21.109Z</time>
      </trkpt>
      <trkpt lat="45.75979" lon="2.97005">
        <ele>957</ele>
        <time>2020-07-11T14:06:22.109Z</time>
      </trkpt>
      <trkpt lat="45.7598" lon="2.97001">
        <ele>957</ele>
        <time>2020-07-11T14:06:23.109Z</time>
      </trkpt>
      <trkpt lat="45.75981" lon="2.96997">
        <ele>957</ele>
        <time>2020-07-11T14:06:24.109Z</time>
      </trkpt>
      <trkpt lat="45.75982" lon="2.96994">
        <ele>957</ele>
        <time>2020-07-11T14:06:25.109Z</time>
      </trkpt>
      <trkpt lat="45.75982" lon="2.9699">
        <ele>957</ele>
        <time>2020-07-11T14:06:26.109Z</time>
      </trkpt>
      <trkpt lat="45.75983" lon="2.96986">
        <ele>957</ele>
        <time>2020-07-11T14:06:27.109Z</time>
      </trkpt>
      <trkpt lat="45.75984" lon="2.96981">
        <ele>957</ele>
        <time>2020-07-11T14:06:28.109Z</time>
      </trkpt>
      <trkpt lat="45.75985" lon="2.96976">
        <ele>957</ele>
        <time>2020-07-11T14:06:29.109Z</time>
      </trkpt>
      <trkpt lat="45.75986" lon="2.9697">
        <ele>958</ele>
        <time>2020-07-11T14:06:30.109Z</time>
      </trkpt>
      <trkpt lat="45.75986" lon="2.96965">
        <ele>957</ele>
        <time>2020-07-11T14:06:31.109Z</time>
      </trkpt>
      <trkpt lat="45.75987" lon="2.9696">
        <ele>957</ele>
        <time>2020-07-11T14:06:32.109Z</time>
      </trkpt>
      <trkpt lat="45.75988" lon="2.96955">
        <ele>957</ele>
        <time>2020-07-11T14:06:33.109Z</time>
      </trkpt>
      <trkpt lat="45.75988" lon="2.96951">
        <ele>958</ele>
        <time>2020-07-11T14:06:34.109Z</time>
      </trkpt>
      <trkpt lat="45.75989" lon="2.96947">
        <ele>958</ele>
        <time>2020-07-11T14:06:35.109Z</time>
      </trkpt>
      <trkpt lat="45.7599" lon="2.96943">
        <ele>959</ele>
        <time>2020-07-11T14:06:36.109Z</time>
      </trkpt>
      <trkpt lat="45.75992" lon="2.96939">
        <ele>959</ele>
        <time>2020-07-11T14:06:37.109Z</time>
      </trkpt>
      <trkpt lat="45.75993" lon="2.96935">
        <ele>960</ele>
        <time>2020-07-11T14:06:38.109Z</time>
      </trkpt>
      <trkpt lat="45.75995" lon="2.9693">
        <ele>960</ele>
        <time>2020-07-11T14:06:39.109Z</time>
      </trkpt>
      <trkpt lat="45.75996" lon="2.96927">
        <ele>961</ele>
        <time>2020-07-11T14:06:40.109Z</time>
      </trkpt>
      <trkpt lat="45.75997" lon="2.96923">
        <ele>961</ele>
        <time>2020-07-11T14:06:41.109Z</time>
      </trkpt>
      <trkpt lat="45.75998" lon="2.96919">
        <ele>962</ele>
        <time>2020-07-11T14:06:42.109Z</time>
      </trkpt>
      <trkpt lat="45.75999" lon="2.96916">
        <ele>962</ele>
        <time>2020-07-11T14:06:43.109Z</time>
      </trkpt>
      <trkpt lat="45.76" lon="2.96913">
        <ele>963</ele>
        <time>2020-07-11T14:06:44.109Z</time>
      </trkpt>
      <trkpt lat="45.76001" lon="2.9691">
        <ele>963</ele>
        <time>2020-07-11T14:06:45.109Z</time>
      </trkpt>
      <trkpt lat="45.76001" lon="2.96907">
        <ele>963</ele>
        <time>2020-07-11T14:06:46.109Z</time>
      </trkpt>
      <trkpt lat="45.76002" lon="2.96905">
        <ele>963</ele>
        <time>2020-07-11T14:06:47.109Z</time>
      </trkpt>
      <trkpt lat="45.76003" lon="2.96902">
        <ele>964</ele>
        <time>2020-07-11T14:06:48.109Z</time>
      </trkpt>
      <trkpt lat="45.76005" lon="2.96899">
        <ele>964</ele>
        <time>2020-07-11T14:06:49.109Z</time>
      </trkpt>
      <trkpt lat="45.76006" lon="2.96895">
        <ele>964</ele>
        <time>2020-07-11T14:06:50.109Z</time>
      </trkpt>
      <trkpt lat="45.76006" lon="2.96892">
        <ele>965</ele>
        <time>2020-07-11T14:06:51.109Z</time>
      </trkpt>
      <trkpt lat="45.76007" lon="2.96889">
        <ele>965</ele>
        <time>2020-07-11T14:06:52.109Z</time>
      </trkpt>
      <trkpt lat="45.76008" lon="2.96885">
        <ele>965</ele>
        <time>2020-07-11T14:06:53.109Z</time>
      </trkpt>
      <trkpt lat="45.76009" lon="2.96881">
        <ele>966</ele>
        <time>2020-07-11T14:06:54.109Z</time>
      </trkpt>
      <trkpt lat="45.76009" lon="2.96878">
        <ele>966</ele>
        <time>2020-07-11T14:06:55.109Z</time>
      </trkpt>
      <trkpt lat="45.7601" lon="2.96874">
        <ele>967</ele>
        <time>2020-07-11T14:06:56.109Z</time>
      </trkpt>
      <trkpt lat="45.76011" lon="2.9687">
        <ele>967</ele>
        <time>2020-07-11T14:06:57.109Z</time>
      </trkpt>
      <trkpt lat="45.76011" lon="2.96866">
        <ele>968</ele>
        <time>2020-07-11T14:06:58.109Z</time>
      </trkpt>
      <trkpt lat="45.76012" lon="2.96862">
        <ele>968</ele>
        <time>2020-07-11T14:06:59.109Z</time>
      </trkpt>
      <trkpt lat="45.76013" lon="2.96859">
        <ele>968</ele>
        <time>2020-07-11T14:07:00.109Z</time>
      </trkpt>
      <trkpt lat="45.76014" lon="2.96855">
        <ele>968</ele>
        <time>2020-07-11T14:07:01.109Z</time>
      </trkpt>
      <trkpt lat="45.76015" lon="2.96852">
        <ele>969</ele>
        <time>2020-07-11T14:07:02.109Z</time>
      </trkpt>
      <trkpt lat="45.76016" lon="2.96849">
        <ele>968</ele>
        <time>2020-07-11T14:07:03.109Z</time>
      </trkpt>
      <trkpt lat="45.76016" lon="2.96846">
        <ele>969</ele>
        <time>2020-07-11T14:07:04.109Z</time>
      </trkpt>
      <trkpt lat="45.76017" lon="2.96843">
        <ele>969</ele>
        <time>2020-07-11T14:07:05.109Z</time>
      </trkpt>
      <trkpt lat="45.76018" lon="2.9684">
        <ele>969</ele>
        <time>2020-07-11T14:07:06.109Z</time>
      </trkpt>
      <trkpt lat="45.76019" lon="2.96837">
        <ele>969</ele>
        <time>2020-07-11T14:07:07.109Z</time>
      </trkpt>
      <trkpt lat="45.76021" lon="2.96834">
        <ele>969</ele>
        <time>2020-07-11T14:07:08.109Z</time>
      </trkpt>
      <trkpt lat="45.76022" lon="2.9683">
        <ele>969</ele>
        <time>2020-07-11T14:07:09.109Z</time>
      </trkpt>
      <trkpt lat="45.76023" lon="2.96826">
        <ele>969</ele>
        <time>2020-07-11T14:07:10.109Z</time>
      </trkpt>
      <trkpt lat="45.76025" lon="2.96821">
        <ele>969</ele>
        <time>2020-07-11T14:07:11.109Z</time>
      </trkpt>
      <trkpt lat="45.76027" lon="2.96818">
        <ele>969</ele>
        <time>2020-07-11T14:07:12.109Z</time>
      </trkpt>
      <trkpt lat="45.76028" lon="2.96814">
        <ele>969</ele>
        <time>2020-07-11T14:07:13.109Z</time>
      </trkpt>
      <trkpt lat="45.7603" lon="2.96811">
        <ele>969</ele>
        <time>2020-07-11T14:07:14.109Z</time>
      </trkpt>
      <trkpt lat="45.76031" lon="2.96808">
        <ele>969</ele>
        <time>2020-07-11T14:07:15.109Z</time>
      </trkpt>
      <trkpt lat="45.76032" lon="2.96805">
        <ele>969</ele>
        <time>2020-07-11T14:07:16.109Z</time>
      </trkpt>
      <trkpt lat="45.76034" lon="2.96802">
        <ele>969</ele>
        <time>2020-07-11T14:07:17.109Z</time>
      </trkpt>
      <trkpt lat="45.76035" lon="2.968">
        <ele>970</ele>
        <time>2020-07-11T14:07:18.109Z</time>
      </trkpt>
      <trkpt lat="45.76036" lon="2.96797">
        <ele>971</ele>
        <time>2020-07-11T14:07:19.109Z</time>
      </trkpt>
      <trkpt lat="45.76037" lon="2.96794">
        <ele>971</ele>
        <time>2020-07-11T14:07:20.109Z</time>
      </trkpt>
      <trkpt lat="45.76038" lon="2.96791">
        <ele>971</ele>
        <time>2020-07-11T14:07:21.109Z</time>
      </trkpt>
      <trkpt lat="45.7604" lon="2.96789">
        <ele>971</ele>
        <time>2020-07-11T14:07:22.109Z</time>
      </trkpt>
      <trkpt lat="45.76042" lon="2.96786">
        <ele>971</ele>
        <time>2020-07-11T14:07:23.109Z</time>
      </trkpt>
      <trkpt lat="45.76043" lon="2.96783">
        <ele>971</ele>
        <time>2020-07-11T14:07:24.109Z</time>
      </trkpt>
      <trkpt lat="45.76046" lon="2.96781">
        <ele>969</ele>
        <time>2020-07-11T14:07:25.109Z</time>
      </trkpt>
      <trkpt lat="45.76048" lon="2.96777">
        <ele>967</ele>
        <time>2020-07-11T14:07:26.109Z</time>
      </trkpt>
      <trkpt lat="45.76051" lon="2.96774">
        <ele>968</ele>
        <time>2020-07-11T14:07:27.109Z</time>
      </trkpt>
      <trkpt lat="45.76053" lon="2.96771">
        <ele>967</ele>
        <time>2020-07-11T14:07:28.109Z</time>
      </trkpt>
      <trkpt lat="45.76055" lon="2.96768">
        <ele>966</ele>
        <time>2020-07-11T14:07:29.109Z</time>
      </trkpt>
      <trkpt lat="45.76057" lon="2.96765">
        <ele>966</ele>
        <time>2020-07-11T14:07:30.109Z</time>
      </trkpt>
      <trkpt lat="45.76059" lon="2.96762">
        <ele>966</ele>
        <time>2020-07-11T14:07:31.109Z</time>
      </trkpt>
      <trkpt lat="45.76061" lon="2.96759">
        <ele>966</ele>
        <time>2020-07-11T14:07:32.109Z</time>
      </trkpt>
      <trkpt lat="45.76062" lon="2.96757">
        <ele>966</ele>
        <time>2020-07-11T14:07:33.109Z</time>
      </trkpt>
      <trkpt lat="45.76064" lon="2.96754">
        <ele>966</ele>
        <time>2020-07-11T14:07:34.109Z</time>
      </trkpt>
      <trkpt lat="45.76065" lon="2.96751">
        <ele>967</ele>
        <time>2020-07-11T14:07:35.109Z</time>
      </trkpt>
      <trkpt lat="45.76066" lon="2.96749">
        <ele>966</ele>
        <time>2020-07-11T14:07:36.109Z</time>
      </trkpt>
      <trkpt lat="45.76067" lon="2.96746">
        <ele>966</ele>
        <time>2020-07-11T14:07:37.109Z</time>
      </trkpt>
      <trkpt lat="45.76069" lon="2.96743">
        <ele>967</ele>
        <time>2020-07-11T14:07:38.109Z</time>
      </trkpt>
      <trkpt lat="45.7607" lon="2.96741">
        <ele>967</ele>
        <time>2020-07-11T14:07:39.109Z</time>
      </trkpt>
      <trkpt lat="45.76072" lon="2.96738">
        <ele>968</ele>
        <time>2020-07-11T14:07:40.109Z</time>
      </trkpt>
      <trkpt lat="45.76074" lon="2.96734">
        <ele>968</ele>
        <time>2020-07-11T14:07:41.109Z</time>
      </trkpt>
      <trkpt lat="45.76076" lon="2.96731">
        <ele>968</ele>
        <time>2020-07-11T14:07:42.109Z</time>
      </trkpt>
      <trkpt lat="45.76077" lon="2.96726">
        <ele>969</ele>
        <time>2020-07-11T14:07:43.109Z</time>
      </trkpt>
      <trkpt lat="45.76079" lon="2.96723">
        <ele>969</ele>
        <time>2020-07-11T14:07:44.109Z</time>
      </trkpt>
      <trkpt lat="45.7608" lon="2.96719">
        <ele>969</ele>
        <time>2020-07-11T14:07:45.109Z</time>
      </trkpt>
      <trkpt lat="45.76082" lon="2.96716">
        <ele>970</ele>
        <time>2020-07-11T14:07:46.109Z</time>
      </trkpt>
      <trkpt lat="45.76083" lon="2.96713">
        <ele>970</ele>
        <time>2020-07-11T14:07:47.109Z</time>
      </trkpt>
      <trkpt lat="45.76084" lon="2.9671">
        <ele>971</ele>
        <time>2020-07-11T14:07:48.109Z</time>
      </trkpt>
      <trkpt lat="45.76085" lon="2.96707">
        <ele>971</ele>
        <time>2020-07-11T14:07:49.109Z</time>
      </trkpt>
      <trkpt lat="45.76087" lon="2.96704">
        <ele>971</ele>
        <time>2020-07-11T14:07:50.109Z</time>
      </trkpt>
      <trkpt lat="45.76088" lon="2.96702">
        <ele>972</ele>
        <time>2020-07-11T14:07:51.109Z</time>
      </trkpt>
      <trkpt lat="45.76089" lon="2.967">
        <ele>972</ele>
        <time>2020-07-11T14:07:52.109Z</time>
      </trkpt>
      <trkpt lat="45.76091" lon="2.96698">
        <ele>972</ele>
        <time>2020-07-11T14:07:53.109Z</time>
      </trkpt>
      <trkpt lat="45.76093" lon="2.96695">
        <ele>973</ele>
        <time>2020-07-11T14:07:54.109Z</time>
      </trkpt>
      <trkpt lat="45.76094" lon="2.96693">
        <ele>973</ele>
        <time>2020-07-11T14:07:55.109Z</time>
      </trkpt>
      <trkpt lat="45.76096" lon="2.9669">
        <ele>973</ele>
        <time>2020-07-11T14:07:56.109Z</time>
      </trkpt>
      <trkpt lat="45.76098" lon="2.96687">
        <ele>974</ele>
        <time>2020-07-11T14:07:57.109Z</time>
      </trkpt>
      <trkpt lat="45.76101" lon="2.96685">
        <ele>974</ele>
        <time>2020-07-11T14:07:58.109Z</time>
      </trkpt>
      <trkpt lat="45.76103" lon="2.96682">
        <ele>975</ele>
        <time>2020-07-11T14:07:59.109Z</time>
      </trkpt>
      <trkpt lat="45.76105" lon="2.9668">
        <ele>975</ele>
        <time>2020-07-11T14:08:00.109Z</time>
      </trkpt>
      <trkpt lat="45.76107" lon="2.96678">
        <ele>975</ele>
        <time>2020-07-11T14:08:01.109Z</time>
      </trkpt>
      <trkpt lat="45.76109" lon="2.96676">
        <ele>975</ele>
        <time>2020-07-11T14:08:02.109Z</time>
      </trkpt>
      <trkpt lat="45.76111" lon="2.96674">
        <ele>975</ele>
        <time>2020-07-11T14:08:03.109Z</time>
      </trkpt>
      <trkpt lat="45.76112" lon="2.96673">
        <ele>975</ele>
        <time>2020-07-11T14:08:04.109Z</time>
      </trkpt>
      <trkpt lat="45.76114" lon="2.96671">
        <ele>975</ele>
        <time>2020-07-11T14:08:05.109Z</time>
      </trkpt>
      <trkpt lat="45.76116" lon="2.96668">
        <ele>975</ele>
        <time>2020-07-11T14:08:06.109Z</time>
      </trkpt>
      <trkpt lat="45.76118" lon="2.96666">
        <ele>976</ele>
        <time>2020-07-11T14:08:07.109Z</time>
      </trkpt>
      <trkpt lat="45.7612" lon="2.96664">
        <ele>976</ele>
        <time>2020-07-11T14:08:08.109Z</time>
      </trkpt>
      <trkpt lat="45.76122" lon="2.96662">
        <ele>977</ele>
        <time>2020-07-11T14:08:09.109Z</time>
      </trkpt>
      <trkpt lat="45.76124" lon="2.9666">
        <ele>977</ele>
        <time>2020-07-11T14:08:10.109Z</time>
      </trkpt>
      <trkpt lat="45.76126" lon="2.96657">
        <ele>977</ele>
        <time>2020-07-11T14:08:11.109Z</time>
      </trkpt>
      <trkpt lat="45.76129" lon="2.96655">
        <ele>978</ele>
        <time>2020-07-11T14:08:12.109Z</time>
      </trkpt>
      <trkpt lat="45.76131" lon="2.96653">
        <ele>978</ele>
        <time>2020-07-11T14:08:13.109Z</time>
      </trkpt>
      <trkpt lat="45.76133" lon="2.9665">
        <ele>978</ele>
        <time>2020-07-11T14:08:14.109Z</time>
      </trkpt>
      <trkpt lat="45.76135" lon="2.96648">
        <ele>978</ele>
        <time>2020-07-11T14:08:15.109Z</time>
      </trkpt>
      <trkpt lat="45.76138" lon="2.96646">
        <ele>979</ele>
        <time>2020-07-11T14:08:16.109Z</time>
      </trkpt>
      <trkpt lat="45.7614" lon="2.96644">
        <ele>979</ele>
        <time>2020-07-11T14:08:17.109Z</time>
      </trkpt>
      <trkpt lat="45.76143" lon="2.96642">
        <ele>980</ele>
        <time>2020-07-11T14:08:18.109Z</time>
      </trkpt>
      <trkpt lat="45.76146" lon="2.9664">
        <ele>980</ele>
        <time>2020-07-11T14:08:19.109Z</time>
      </trkpt>
      <trkpt lat="45.76148" lon="2.96638">
        <ele>980</ele>
        <time>2020-07-11T14:08:20.109Z</time>
      </trkpt>
      <trkpt lat="45.7615" lon="2.96637">
        <ele>981</ele>
        <time>2020-07-11T14:08:21.109Z</time>
      </trkpt>
      <trkpt lat="45.76153" lon="2.96635">
        <ele>980</ele>
        <time>2020-07-11T14:08:22.109Z</time>
      </trkpt>
      <trkpt lat="45.76155" lon="2.96634">
        <ele>981</ele>
        <time>2020-07-11T14:08:23.109Z</time>
      </trkpt>
      <trkpt lat="45.76157" lon="2.96633">
        <ele>981</ele>
        <time>2020-07-11T14:08:24.109Z</time>
      </trkpt>
      <trkpt lat="45.76159" lon="2.96632">
        <ele>980</ele>
        <time>2020-07-11T14:08:25.109Z</time>
      </trkpt>
      <trkpt lat="45.76161" lon="2.9663">
        <ele>980</ele>
        <time>2020-07-11T14:08:26.109Z</time>
      </trkpt>
      <trkpt lat="45.76162" lon="2.96627">
        <ele>979</ele>
        <time>2020-07-11T14:08:27.109Z</time>
      </trkpt>
      <trkpt lat="45.76164" lon="2.96625">
        <ele>979</ele>
        <time>2020-07-11T14:08:28.109Z</time>
      </trkpt>
      <trkpt lat="45.76166" lon="2.96623">
        <ele>979</ele>
        <time>2020-07-11T14:08:29.109Z</time>
      </trkpt>
      <trkpt lat="45.76168" lon="2.96622">
        <ele>978</ele>
        <time>2020-07-11T14:08:30.109Z</time>
      </trkpt>
      <trkpt lat="45.7617" lon="2.9662">
        <ele>978</ele>
        <time>2020-07-11T14:08:31.109Z</time>
      </trkpt>
      <trkpt lat="45.76172" lon="2.96618">
        <ele>979</ele>
        <time>2020-07-11T14:08:32.109Z</time>
      </trkpt>
      <trkpt lat="45.76174" lon="2.96616">
        <ele>979</ele>
        <time>2020-07-11T14:08:33.109Z</time>
      </trkpt>
      <trkpt lat="45.76176" lon="2.96614">
        <ele>979</ele>
        <time>2020-07-11T14:08:34.109Z</time>
      </trkpt>
      <trkpt lat="45.76177" lon="2.96612">
        <ele>979</ele>
        <time>2020-07-11T14:08:35.109Z</time>
      </trkpt>
      <trkpt lat="45.76179" lon="2.96611">
        <ele>979</ele>
        <time>2020-07-11T14:08:36.109Z</time>
      </trkpt>
      <trkpt lat="45.76182" lon="2.96609">
        <ele>979</ele>
        <time>2020-07-11T14:08:37.109Z</time>
      </trkpt>
      <trkpt lat="45.76184" lon="2.96608">
        <ele>979</ele>
        <time>2020-07-11T14:08:38.109Z</time>
      </trkpt>
      <trkpt lat="45.76186" lon="2.96606">
        <ele>979</ele>
        <time>2020-07-11T14:08:39.109Z</time>
      </trkpt>
      <trkpt lat="45.76188" lon="2.96604">
        <ele>979</ele>
        <time>2020-07-11T14:08:40.109Z</time>
      </trkpt>
      <trkpt lat="45.7619" lon="2.96603">
        <ele>979</ele>
        <time>2020-07-11T14:08:41.109Z</time>
      </trkpt>
      <trkpt lat="45.76192" lon="2.96601">
        <ele>979</ele>
        <time>2020-07-11T14:08:42.109Z</time>
      </trkpt>
      <trkpt lat="45.76194" lon="2.966">
        <ele>980</ele>
        <time>2020-07-11T14:08:43.109Z</time>
      </trkpt>
      <trkpt lat="45.76196" lon="2.96598">
        <ele>980</ele>
        <time>2020-07-11T14:08:44.109Z</time>
      </trkpt>
      <trkpt lat="45.76198" lon="2.96595">
        <ele>980</ele>
        <time>2020-07-11T14:08:45.109Z</time>
      </trkpt>
      <trkpt lat="45.76199" lon="2.96593">
        <ele>980</ele>
        <time>2020-07-11T14:08:46.109Z</time>
      </trkpt>
      <trkpt lat="45.76201" lon="2.96591">
        <ele>980</ele>
        <time>2020-07-11T14:08:47.109Z</time>
      </trkpt>
      <trkpt lat="45.76202" lon="2.96589">
        <ele>981</ele>
        <time>2020-07-11T14:08:48.109Z</time>
      </trkpt>
      <trkpt lat="45.76204" lon="2.96586">
        <ele>981</ele>
        <time>2020-07-11T14:08:49.109Z</time>
      </trkpt>
      <trkpt lat="45.76205" lon="2.96584">
        <ele>981</ele>
        <time>2020-07-11T14:08:50.109Z</time>
      </trkpt>
      <trkpt lat="45.76207" lon="2.96582">
        <ele>981</ele>
        <time>2020-07-11T14:08:51.109Z</time>
      </trkpt>
      <trkpt lat="45.76208" lon="2.96581">
        <ele>981</ele>
        <time>2020-07-11T14:08:52.109Z</time>
      </trkpt>
      <trkpt lat="45.76209" lon="2.96579">
        <ele>980</ele>
        <time>2020-07-11T14:08:53.109Z</time>
      </trkpt>
      <trkpt lat="45.76211" lon="2.96576">
        <ele>980</ele>
        <time>2020-07-11T14:08:54.109Z</time>
      </trkpt>
      <trkpt lat="45.76213" lon="2.96574">
        <ele>980</ele>
        <time>2020-07-11T14:08:55.109Z</time>
      </trkpt>
      <trkpt lat="45.76214" lon="2.96571">
        <ele>980</ele>
        <time>2020-07-11T14:08:56.109Z</time>
      </trkpt>
      <trkpt lat="45.76216" lon="2.96569">
        <ele>980</ele>
        <time>2020-07-11T14:08:57.109Z</time>
      </trkpt>
      <trkpt lat="45.76218" lon="2.96567">
        <ele>980</ele>
        <time>2020-07-11T14:08:58.109Z</time>
      </trkpt>
      <trkpt lat="45.7622" lon="2.96565">
        <ele>980</ele>
        <time>2020-07-11T14:08:59.109Z</time>
      </trkpt>
      <trkpt lat="45.76222" lon="2.96563">
        <ele>980</ele>
        <time>2020-07-11T14:09:00.109Z</time>
      </trkpt>
      <trkpt lat="45.76224" lon="2.96561">
        <ele>980</ele>
        <time>2020-07-11T14:09:01.109Z</time>
      </trkpt>
      <trkpt lat="45.76226" lon="2.96558">
        <ele>980</ele>
        <time>2020-07-11T14:09:02.109Z</time>
      </trkpt>
      <trkpt lat="45.76228" lon="2.96556">
        <ele>981</ele>
        <time>2020-07-11T14:09:03.109Z</time>
      </trkpt>
      <trkpt lat="45.76229" lon="2.96554">
        <ele>981</ele>
        <time>2020-07-11T14:09:04.109Z</time>
      </trkpt>
      <trkpt lat="45.7623" lon="2.96553">
        <ele>981</ele>
        <time>2020-07-11T14:09:05.109Z</time>
      </trkpt>
      <trkpt lat="45.76231" lon="2.96552">
        <ele>982</ele>
        <time>2020-07-11T14:09:06.109Z</time>
      </trkpt>
      <trkpt lat="45.76232" lon="2.9655">
        <ele>982</ele>
        <time>2020-07-11T14:09:07.109Z</time>
      </trkpt>
      <trkpt lat="45.76234" lon="2.96548">
        <ele>982</ele>
        <time>2020-07-11T14:09:08.109Z</time>
      </trkpt>
      <trkpt lat="45.76235" lon="2.96546">
        <ele>982</ele>
        <time>2020-07-11T14:09:09.109Z</time>
      </trkpt>
      <trkpt lat="45.76237" lon="2.96544">
        <ele>982</ele>
        <time>2020-07-11T14:09:10.109Z</time>
      </trkpt>
      <trkpt lat="45.76239" lon="2.96542">
        <ele>983</ele>
        <time>2020-07-11T14:09:11.109Z</time>
      </trkpt>
      <trkpt lat="45.7624" lon="2.9654">
        <ele>983</ele>
        <time>2020-07-11T14:09:12.109Z</time>
      </trkpt>
      <trkpt lat="45.76242" lon="2.96539">
        <ele>983</ele>
        <time>2020-07-11T14:09:13.109Z</time>
      </trkpt>
      <trkpt lat="45.76244" lon="2.96537">
        <ele>983</ele>
        <time>2020-07-11T14:09:14.109Z</time>
      </trkpt>
      <trkpt lat="45.76246" lon="2.96534">
        <ele>983</ele>
        <time>2020-07-11T14:09:15.109Z</time>
      </trkpt>
      <trkpt lat="45.76248" lon="2.96532">
        <ele>983</ele>
        <time>2020-07-11T14:09:16.109Z</time>
      </trkpt>
      <trkpt lat="45.7625" lon="2.96529">
        <ele>983</ele>
        <time>2020-07-11T14:09:17.109Z</time>
      </trkpt>
      <trkpt lat="45.76252" lon="2.96527">
        <ele>983</ele>
        <time>2020-07-11T14:09:18.109Z</time>
      </trkpt>
      <trkpt lat="45.76253" lon="2.96525">
        <ele>982</ele>
        <time>2020-07-11T14:09:19.109Z</time>
      </trkpt>
      <trkpt lat="45.76255" lon="2.96523">
        <ele>983</ele>
        <time>2020-07-11T14:09:20.109Z</time>
      </trkpt>
      <trkpt lat="45.76257" lon="2.96521">
        <ele>984</ele>
        <time>2020-07-11T14:09:21.109Z</time>
      </trkpt>
      <trkpt lat="45.7626" lon="2.96519">
        <ele>985</ele>
        <time>2020-07-11T14:09:22.109Z</time>
      </trkpt>
      <trkpt lat="45.76262" lon="2.96518">
        <ele>985</ele>
        <time>2020-07-11T14:09:23.109Z</time>
      </trkpt>
      <trkpt lat="45.76264" lon="2.96516">
        <ele>985</ele>
        <time>2020-07-11T14:09:24.109Z</time>
      </trkpt>
      <trkpt lat="45.76266" lon="2.96514">
        <ele>986</ele>
        <time>2020-07-11T14:09:25.109Z</time>
      </trkpt>
      <trkpt lat="45.76267" lon="2.96513">
        <ele>986</ele>
        <time>2020-07-11T14:09:26.109Z</time>
      </trkpt>
      <trkpt lat="45.76269" lon="2.96511">
        <ele>987</ele>
        <time>2020-07-11T14:09:27.109Z</time>
      </trkpt>
      <trkpt lat="45.76271" lon="2.9651">
        <ele>988</ele>
        <time>2020-07-11T14:09:28.109Z</time>
      </trkpt>
      <trkpt lat="45.76273" lon="2.96508">
        <ele>988</ele>
        <time>2020-07-11T14:09:29.109Z</time>
      </trkpt>
      <trkpt lat="45.76275" lon="2.96506">
        <ele>988</ele>
        <time>2020-07-11T14:09:30.109Z</time>
      </trkpt>
      <trkpt lat="45.76277" lon="2.96504">
        <ele>988</ele>
        <time>2020-07-11T14:09:31.109Z</time>
      </trkpt>
      <trkpt lat="45.76278" lon="2.96502">
        <ele>989</ele>
        <time>2020-07-11T14:09:32.109Z</time>
      </trkpt>
      <trkpt lat="45.7628" lon="2.965">
        <ele>989</ele>
        <time>2020-07-11T14:09:33.109Z</time>
      </trkpt>
      <trkpt lat="45.76282" lon="2.96498">
        <ele>990</ele>
        <time>2020-07-11T14:09:34.109Z</time>
      </trkpt>
      <trkpt lat="45.76283" lon="2.96496">
        <ele>992</ele>
        <time>2020-07-11T14:09:35.109Z</time>
      </trkpt>
      <trkpt lat="45.76284" lon="2.96493">
        <ele>993</ele>
        <time>2020-07-11T14:09:36.109Z</time>
      </trkpt>
      <trkpt lat="45.76285" lon="2.9649">
        <ele>993</ele>
        <time>2020-07-11T14:09:37.109Z</time>
      </trkpt>
      <trkpt lat="45.76286" lon="2.96487">
        <ele>993</ele>
        <time>2020-07-11T14:09:38.109Z</time>
      </trkpt>
      <trkpt lat="45.76287" lon="2.96484">
        <ele>993</ele>
        <time>2020-07-11T14:09:39.109Z</time>
      </trkpt>
      <trkpt lat="45.76287" lon="2.9648">
        <ele>993</ele>
        <time>2020-07-11T14:09:40.109Z</time>
      </trkpt>
      <trkpt lat="45.76287" lon="2.96477">
        <ele>994</ele>
        <time>2020-07-11T14:09:41.109Z</time>
      </trkpt>
      <trkpt lat="45.76288" lon="2.96474">
        <ele>994</ele>
        <time>2020-07-11T14:09:42.109Z</time>
      </trkpt>
      <trkpt lat="45.76288" lon="2.96471">
        <ele>994</ele>
        <time>2020-07-11T14:09:43.109Z</time>
      </trkpt>
      <trkpt lat="45.76288" lon="2.96468">
        <ele>994</ele>
        <time>2020-07-11T14:09:44.109Z</time>
      </trkpt>
      <trkpt lat="45.76288" lon="2.96465">
        <ele>994</ele>
        <time>2020-07-11T14:09:45.109Z</time>
      </trkpt>
      <trkpt lat="45.76289" lon="2.96462">
        <ele>993</ele>
        <time>2020-07-11T14:09:46.109Z</time>
      </trkpt>
      <trkpt lat="45.76289" lon="2.96458">
        <ele>994</ele>
        <time>2020-07-11T14:09:47.109Z</time>
      </trkpt>
      <trkpt lat="45.7629" lon="2.96455">
        <ele>994</ele>
        <time>2020-07-11T14:09:48.109Z</time>
      </trkpt>
      <trkpt lat="45.76291" lon="2.96452">
        <ele>995</ele>
        <time>2020-07-11T14:09:49.109Z</time>
      </trkpt>
      <trkpt lat="45.76292" lon="2.96449">
        <ele>996</ele>
        <time>2020-07-11T14:09:50.109Z</time>
      </trkpt>
      <trkpt lat="45.76292" lon="2.96446">
        <ele>995</ele>
        <time>2020-07-11T14:09:51.109Z</time>
      </trkpt>
      <trkpt lat="45.76293" lon="2.96444">
        <ele>996</ele>
        <time>2020-07-11T14:09:52.109Z</time>
      </trkpt>
      <trkpt lat="45.76294" lon="2.96441">
        <ele>995</ele>
        <time>2020-07-11T14:09:53.109Z</time>
      </trkpt>
      <trkpt lat="45.76294" lon="2.96438">
        <ele>996</ele>
        <time>2020-07-11T14:09:54.109Z</time>
      </trkpt>
      <trkpt lat="45.76294" lon="2.96435">
        <ele>996</ele>
        <time>2020-07-11T14:09:55.109Z</time>
      </trkpt>
      <trkpt lat="45.76294" lon="2.96433">
        <ele>996</ele>
        <time>2020-07-11T14:09:56.109Z</time>
      </trkpt>
      <trkpt lat="45.76295" lon="2.96429">
        <ele>996</ele>
        <time>2020-07-11T14:09:57.109Z</time>
      </trkpt>
      <trkpt lat="45.76295" lon="2.96426">
        <ele>996</ele>
        <time>2020-07-11T14:09:58.109Z</time>
      </trkpt>
      <trkpt lat="45.76296" lon="2.96423">
        <ele>995</ele>
        <time>2020-07-11T14:09:59.109Z</time>
      </trkpt>
      <trkpt lat="45.76296" lon="2.96421">
        <ele>997</ele>
        <time>2020-07-11T14:10:00.109Z</time>
      </trkpt>
      <trkpt lat="45.76296" lon="2.96418">
        <ele>998</ele>
        <time>2020-07-11T14:10:01.109Z</time>
      </trkpt>
      <trkpt lat="45.76297" lon="2.96415">
        <ele>998</ele>
        <time>2020-07-11T14:10:02.109Z</time>
      </trkpt>
      <trkpt lat="45.76297" lon="2.96412">
        <ele>997</ele>
        <time>2020-07-11T14:10:03.109Z</time>
      </trkpt>
      <trkpt lat="45.76297" lon="2.9641">
        <ele>998</ele>
        <time>2020-07-11T14:10:04.109Z</time>
      </trkpt>
      <trkpt lat="45.76297" lon="2.96407">
        <ele>999</ele>
        <time>2020-07-11T14:10:05.109Z</time>
      </trkpt>
      <trkpt lat="45.76298" lon="2.96404">
        <ele>999</ele>
        <time>2020-07-11T14:10:06.109Z</time>
      </trkpt>
      <trkpt lat="45.76298" lon="2.96401">
        <ele>999</ele>
        <time>2020-07-11T14:10:07.109Z</time>
      </trkpt>
      <trkpt lat="45.76299" lon="2.96398">
        <ele>999</ele>
        <time>2020-07-11T14:10:08.109Z</time>
      </trkpt>
      <trkpt lat="45.76299" lon="2.96395">
        <ele>999</ele>
        <time>2020-07-11T14:10:09.109Z</time>
      </trkpt>
      <trkpt lat="45.763" lon="2.96391">
        <ele>999</ele>
        <time>2020-07-11T14:10:10.109Z</time>
      </trkpt>
      <trkpt lat="45.76301" lon="2.96388">
        <ele>999</ele>
        <time>2020-07-11T14:10:11.109Z</time>
      </trkpt>
      <trkpt lat="45.76302" lon="2.96384">
        <ele>999</ele>
        <time>2020-07-11T14:10:12.109Z</time>
      </trkpt>
      <trkpt lat="45.76303" lon="2.96381">
        <ele>999</ele>
        <time>2020-07-11T14:10:13.109Z</time>
      </trkpt>
      <trkpt lat="45.76304" lon="2.96378">
        <ele>1000</ele>
        <time>2020-07-11T14:10:14.109Z</time>
      </trkpt>
      <trkpt lat="45.76305" lon="2.96375">
        <ele>1000</ele>
        <time>2020-07-11T14:10:15.109Z</time>
      </trkpt>
      <trkpt lat="45.76305" lon="2.96372">
        <ele>999</ele>
        <time>2020-07-11T14:10:16.109Z</time>
      </trkpt>
      <trkpt lat="45.76306" lon="2.96368">
        <ele>999</ele>
        <time>2020-07-11T14:10:17.109Z</time>
      </trkpt>
      <trkpt lat="45.76306" lon="2.96365">
        <ele>999</ele>
        <time>2020-07-11T14:10:18.109Z</time>
      </trkpt>
      <trkpt lat="45.76307" lon="2.96362">
        <ele>998</ele>
        <time>2020-07-11T14:10:19.109Z</time>
      </trkpt>
      <trkpt lat="45.76308" lon="2.96358">
        <ele>997</ele>
        <time>2020-07-11T14:10:20.109Z</time>
      </trkpt>
      <trkpt lat="45.76309" lon="2.96355">
        <ele>996</ele>
        <time>2020-07-11T14:10:21.109Z</time>
      </trkpt>
      <trkpt lat="45.76309" lon="2.96351">
        <ele>996</ele>
        <time>2020-07-11T14:10:22.109Z</time>
      </trkpt>
      <trkpt lat="45.76311" lon="2.96347">
        <ele>996</ele>
        <time>2020-07-11T14:10:23.109Z</time>
      </trkpt>
      <trkpt lat="45.76312" lon="2.96343">
        <ele>996</ele>
        <time>2020-07-11T14:10:24.109Z</time>
      </trkpt>
      <trkpt lat="45.76313" lon="2.96338">
        <ele>996</ele>
        <time>2020-07-11T14:10:25.109Z</time>
      </trkpt>
      <trkpt lat="45.76314" lon="2.96334">
        <ele>996</ele>
        <time>2020-07-11T14:10:26.109Z</time>
      </trkpt>
      <trkpt lat="45.76316" lon="2.9633">
        <ele>996</ele>
        <time>2020-07-11T14:10:27.109Z</time>
      </trkpt>
      <trkpt lat="45.76316" lon="2.96326">
        <ele>996</ele>
        <time>2020-07-11T14:10:28.109Z</time>
      </trkpt>
      <trkpt lat="45.76317" lon="2.96322">
        <ele>996</ele>
        <time>2020-07-11T14:10:29.109Z</time>
      </trkpt>
      <trkpt lat="45.76318" lon="2.96318">
        <ele>997</ele>
        <time>2020-07-11T14:10:30.109Z</time>
      </trkpt>
      <trkpt lat="45.76319" lon="2.96313">
        <ele>998</ele>
        <time>2020-07-11T14:10:31.109Z</time>
      </trkpt>
      <trkpt lat="45.7632" lon="2.96309">
        <ele>998</ele>
        <time>2020-07-11T14:10:32.109Z</time>
      </trkpt>
      <trkpt lat="45.7632" lon="2.96304">
        <ele>1000</ele>
        <time>2020-07-11T14:10:33.109Z</time>
      </trkpt>
      <trkpt lat="45.76321" lon="2.963">
        <ele>1001</ele>
        <time>2020-07-11T14:10:34.109Z</time>
      </trkpt>
      <trkpt lat="45.76321" lon="2.96296">
        <ele>1002</ele>
        <time>2020-07-11T14:10:35.109Z</time>
      </trkpt>
      <trkpt lat="45.76321" lon="2.96292">
        <ele>1001</ele>
        <time>2020-07-11T14:10:36.109Z</time>
      </trkpt>
      <trkpt lat="45.76322" lon="2.96288">
        <ele>1001</ele>
        <time>2020-07-11T14:10:37.109Z</time>
      </trkpt>
      <trkpt lat="45.76324" lon="2.96284">
        <ele>1001</ele>
        <time>2020-07-11T14:10:38.109Z</time>
      </trkpt>
      <trkpt lat="45.76325" lon="2.96279">
        <ele>1002</ele>
        <time>2020-07-11T14:10:39.109Z</time>
      </trkpt>
      <trkpt lat="45.76327" lon="2.96275">
        <ele>1002</ele>
        <time>2020-07-11T14:10:40.109Z</time>
      </trkpt>
      <trkpt lat="45.76327" lon="2.9627">
        <ele>1002</ele>
        <time>2020-07-11T14:10:41.109Z</time>
      </trkpt>
      <trkpt lat="45.76328" lon="2.96266">
        <ele>1003</ele>
        <time>2020-07-11T14:10:42.109Z</time>
      </trkpt>
      <trkpt lat="45.76329" lon="2.96262">
        <ele>1003</ele>
        <time>2020-07-11T14:10:43.109Z</time>
      </trkpt>
      <trkpt lat="45.7633" lon="2.96258">
        <ele>1004</ele>
        <time>2020-07-11T14:10:44.109Z</time>
      </trkpt>
      <trkpt lat="45.76331" lon="2.96254">
        <ele>1005</ele>
        <time>2020-07-11T14:10:45.109Z</time>
      </trkpt>
      <trkpt lat="45.76332" lon="2.9625">
        <ele>1005</ele>
        <time>2020-07-11T14:10:46.109Z</time>
      </trkpt>
      <trkpt lat="45.76333" lon="2.96246">
        <ele>1006</ele>
        <time>2020-07-11T14:10:47.109Z</time>
      </trkpt>
      <trkpt lat="45.76334" lon="2.96242">
        <ele>1005</ele>
        <time>2020-07-11T14:10:48.109Z</time>
      </trkpt>
      <trkpt lat="45.76335" lon="2.96239">
        <ele>1005</ele>
        <time>2020-07-11T14:10:49.109Z</time>
      </trkpt>
      <trkpt lat="45.76335" lon="2.96235">
        <ele>1005</ele>
        <time>2020-07-11T14:10:50.109Z</time>
      </trkpt>
      <trkpt lat="45.76336" lon="2.96231">
        <ele>1006</ele>
        <time>2020-07-11T14:10:51.109Z</time>
      </trkpt>
      <trkpt lat="45.76336" lon="2.96227">
        <ele>1006</ele>
        <time>2020-07-11T14:10:52.109Z</time>
      </trkpt>
      <trkpt lat="45.76336" lon="2.96223">
        <ele>1007</ele>
        <time>2020-07-11T14:10:53.109Z</time>
      </trkpt>
      <trkpt lat="45.76336" lon="2.96219">
        <ele>1006</ele>
        <time>2020-07-11T14:10:54.109Z</time>
      </trkpt>
      <trkpt lat="45.76335" lon="2.96215">
        <ele>1006</ele>
        <time>2020-07-11T14:10:55.109Z</time>
      </trkpt>
      <trkpt lat="45.76335" lon="2.96211">
        <ele>1006</ele>
        <time>2020-07-11T14:10:56.109Z</time>
      </trkpt>
      <trkpt lat="45.76335" lon="2.96208">
        <ele>1005</ele>
        <time>2020-07-11T14:10:57.109Z</time>
      </trkpt>
      <trkpt lat="45.76335" lon="2.96204">
        <ele>1005</ele>
        <time>2020-07-11T14:10:58.109Z</time>
      </trkpt>
      <trkpt lat="45.76335" lon="2.96201">
        <ele>1006</ele>
        <time>2020-07-11T14:10:59.109Z</time>
      </trkpt>
      <trkpt lat="45.76336" lon="2.96198">
        <ele>1006</ele>
        <time>2020-07-11T14:11:00.109Z</time>
      </trkpt>
      <trkpt lat="45.76336" lon="2.96194">
        <ele>1007</ele>
        <time>2020-07-11T14:11:01.109Z</time>
      </trkpt>
      <trkpt lat="45.76336" lon="2.9619">
        <ele>1007</ele>
        <time>2020-07-11T14:11:02.109Z</time>
      </trkpt>
      <trkpt lat="45.76335" lon="2.96186">
        <ele>1007</ele>
        <time>2020-07-11T14:11:03.109Z</time>
      </trkpt>
      <trkpt lat="45.76335" lon="2.96182">
        <ele>1008</ele>
        <time>2020-07-11T14:11:04.109Z</time>
      </trkpt>
      <trkpt lat="45.76335" lon="2.96179">
        <ele>1008</ele>
        <time>2020-07-11T14:11:05.109Z</time>
      </trkpt>
      <trkpt lat="45.76335" lon="2.96174">
        <ele>1009</ele>
        <time>2020-07-11T14:11:06.109Z</time>
      </trkpt>
      <trkpt lat="45.76335" lon="2.9617">
        <ele>1008</ele>
        <time>2020-07-11T14:11:07.109Z</time>
      </trkpt>
      <trkpt lat="45.76335" lon="2.96165">
        <ele>1007</ele>
        <time>2020-07-11T14:11:08.109Z</time>
      </trkpt>
      <trkpt lat="45.76335" lon="2.96161">
        <ele>1008</ele>
        <time>2020-07-11T14:11:09.109Z</time>
      </trkpt>
      <trkpt lat="45.76335" lon="2.96157">
        <ele>1008</ele>
        <time>2020-07-11T14:11:10.109Z</time>
      </trkpt>
      <trkpt lat="45.76335" lon="2.96153">
        <ele>1008</ele>
        <time>2020-07-11T14:11:11.109Z</time>
      </trkpt>
      <trkpt lat="45.76336" lon="2.96149">
        <ele>1009</ele>
        <time>2020-07-11T14:11:12.109Z</time>
      </trkpt>
      <trkpt lat="45.76336" lon="2.96146">
        <ele>1009</ele>
        <time>2020-07-11T14:11:13.109Z</time>
      </trkpt>
      <trkpt lat="45.76336" lon="2.96143">
        <ele>1009</ele>
        <time>2020-07-11T14:11:14.109Z</time>
      </trkpt>
      <trkpt lat="45.76336" lon="2.9614">
        <ele>1009</ele>
        <time>2020-07-11T14:11:15.109Z</time>
      </trkpt>
      <trkpt lat="45.76336" lon="2.96137">
        <ele>1009</ele>
        <time>2020-07-11T14:11:16.109Z</time>
      </trkpt>
      <trkpt lat="45.76337" lon="2.96134">
        <ele>1009</ele>
        <time>2020-07-11T14:11:17.109Z</time>
      </trkpt>
      <trkpt lat="45.76337" lon="2.9613">
        <ele>1010</ele>
        <time>2020-07-11T14:11:18.109Z</time>
      </trkpt>
      <trkpt lat="45.76338" lon="2.96127">
        <ele>1010</ele>
        <time>2020-07-11T14:11:19.109Z</time>
      </trkpt>
      <trkpt lat="45.76339" lon="2.96124">
        <ele>1010</ele>
        <time>2020-07-11T14:11:20.109Z</time>
      </trkpt>
      <trkpt lat="45.7634" lon="2.9612">
        <ele>1010</ele>
        <time>2020-07-11T14:11:21.109Z</time>
      </trkpt>
      <trkpt lat="45.7634" lon="2.96116">
        <ele>1009</ele>
        <time>2020-07-11T14:11:22.109Z</time>
      </trkpt>
      <trkpt lat="45.76341" lon="2.96112">
        <ele>1010</ele>
        <time>2020-07-11T14:11:23.109Z</time>
      </trkpt>
      <trkpt lat="45.76342" lon="2.96108">
        <ele>1010</ele>
        <time>2020-07-11T14:11:24.109Z</time>
      </trkpt>
      <trkpt lat="45.76343" lon="2.96105">
        <ele>1009</ele>
        <time>2020-07-11T14:11:25.109Z</time>
      </trkpt>
      <trkpt lat="45.76344" lon="2.96102">
        <ele>1009</ele>
        <time>2020-07-11T14:11:26.109Z</time>
      </trkpt>
      <trkpt lat="45.76345" lon="2.96099">
        <ele>1008</ele>
        <time>2020-07-11T14:11:27.109Z</time>
      </trkpt>
      <trkpt lat="45.76346" lon="2.96096">
        <ele>1008</ele>
        <time>2020-07-11T14:11:28.109Z</time>
      </trkpt>
      <trkpt lat="45.76347" lon="2.96092">
        <ele>1007</ele>
        <time>2020-07-11T14:11:29.109Z</time>
      </trkpt>
      <trkpt lat="45.76347" lon="2.96089">
        <ele>1007</ele>
        <time>2020-07-11T14:11:30.109Z</time>
      </trkpt>
      <trkpt lat="45.76348" lon="2.96086">
        <ele>1008</ele>
        <time>2020-07-11T14:11:31.109Z</time>
      </trkpt>
      <trkpt lat="45.76347" lon="2.96082">
        <ele>1008</ele>
        <time>2020-07-11T14:11:32.109Z</time>
      </trkpt>
      <trkpt lat="45.76347" lon="2.96079">
        <ele>1009</ele>
        <time>2020-07-11T14:11:33.109Z</time>
      </trkpt>
      <trkpt lat="45.76347" lon="2.96075">
        <ele>1010</ele>
        <time>2020-07-11T14:11:34.109Z</time>
      </trkpt>
      <trkpt lat="45.76348" lon="2.96071">
        <ele>1010</ele>
        <time>2020-07-11T14:11:35.109Z</time>
      </trkpt>
      <trkpt lat="45.76349" lon="2.96067">
        <ele>1011</ele>
        <time>2020-07-11T14:11:36.109Z</time>
      </trkpt>
      <trkpt lat="45.7635" lon="2.96063">
        <ele>1011</ele>
        <time>2020-07-11T14:11:37.109Z</time>
      </trkpt>
      <trkpt lat="45.7635" lon="2.96059">
        <ele>1013</ele>
        <time>2020-07-11T14:11:38.109Z</time>
      </trkpt>
      <trkpt lat="45.7635" lon="2.96056">
        <ele>1014</ele>
        <time>2020-07-11T14:11:39.109Z</time>
      </trkpt>
      <trkpt lat="45.7635" lon="2.96052">
        <ele>1015</ele>
        <time>2020-07-11T14:11:40.109Z</time>
      </trkpt>
      <trkpt lat="45.7635" lon="2.96049">
        <ele>1016</ele>
        <time>2020-07-11T14:11:41.109Z</time>
      </trkpt>
      <trkpt lat="45.7635" lon="2.96045">
        <ele>1017</ele>
        <time>2020-07-11T14:11:42.109Z</time>
      </trkpt>
      <trkpt lat="45.7635" lon="2.96042">
        <ele>1017</ele>
        <time>2020-07-11T14:11:43.109Z</time>
      </trkpt>
      <trkpt lat="45.76349" lon="2.96039">
        <ele>1017</ele>
        <time>2020-07-11T14:11:44.109Z</time>
      </trkpt>
      <trkpt lat="45.76349" lon="2.96036">
        <ele>1018</ele>
        <time>2020-07-11T14:11:45.109Z</time>
      </trkpt>
      <trkpt lat="45.76348" lon="2.96033">
        <ele>1020</ele>
        <time>2020-07-11T14:11:46.109Z</time>
      </trkpt>
      <trkpt lat="45.76347" lon="2.9603">
        <ele>1020</ele>
        <time>2020-07-11T14:11:47.109Z</time>
      </trkpt>
      <trkpt lat="45.76347" lon="2.96027">
        <ele>1020</ele>
        <time>2020-07-11T14:11:48.109Z</time>
      </trkpt>
      <trkpt lat="45.76347" lon="2.96024">
        <ele>1020</ele>
        <time>2020-07-11T14:11:49.109Z</time>
      </trkpt>
      <trkpt lat="45.76347" lon="2.96021">
        <ele>1021</ele>
        <time>2020-07-11T14:11:50.109Z</time>
      </trkpt>
      <trkpt lat="45.76347" lon="2.96018">
        <ele>1022</ele>
        <time>2020-07-11T14:11:51.109Z</time>
      </trkpt>
      <trkpt lat="45.76347" lon="2.96014">
        <ele>1022</ele>
        <time>2020-07-11T14:11:52.109Z</time>
      </trkpt>
      <trkpt lat="45.76347" lon="2.96011">
        <ele>1023</ele>
        <time>2020-07-11T14:11:53.109Z</time>
      </trkpt>
      <trkpt lat="45.76347" lon="2.96007">
        <ele>1023</ele>
        <time>2020-07-11T14:11:54.109Z</time>
      </trkpt>
      <trkpt lat="45.76347" lon="2.96004">
        <ele>1025</ele>
        <time>2020-07-11T14:11:55.109Z</time>
      </trkpt>
      <trkpt lat="45.76347" lon="2.96001">
        <ele>1026</ele>
        <time>2020-07-11T14:11:56.109Z</time>
      </trkpt>
      <trkpt lat="45.76346" lon="2.95997">
        <ele>1026</ele>
        <time>2020-07-11T14:11:57.109Z</time>
      </trkpt>
      <trkpt lat="45.76346" lon="2.95995">
        <ele>1027</ele>
        <time>2020-07-11T14:11:58.109Z</time>
      </trkpt>
      <trkpt lat="45.76346" lon="2.95992">
        <ele>1028</ele>
        <time>2020-07-11T14:11:59.109Z</time>
      </trkpt>
      <trkpt lat="45.76346" lon="2.95989">
        <ele>1029</ele>
        <time>2020-07-11T14:12:00.109Z</time>
      </trkpt>
      <trkpt lat="45.76346" lon="2.95986">
        <ele>1030</ele>
        <time>2020-07-11T14:12:01.109Z</time>
      </trkpt>
      <trkpt lat="45.76347" lon="2.95983">
        <ele>1029</ele>
        <time>2020-07-11T14:12:02.109Z</time>
      </trkpt>
      <trkpt lat="45.76347" lon="2.95979">
        <ele>1030</ele>
        <time>2020-07-11T14:12:03.109Z</time>
      </trkpt>
      <trkpt lat="45.76347" lon="2.95975">
        <ele>1030</ele>
        <time>2020-07-11T14:12:04.109Z</time>
      </trkpt>
      <trkpt lat="45.76347" lon="2.95972">
        <ele>1030</ele>
        <time>2020-07-11T14:12:05.109Z</time>
      </trkpt>
      <trkpt lat="45.76347" lon="2.95968">
        <ele>1033</ele>
        <time>2020-07-11T14:12:06.109Z</time>
      </trkpt>
      <trkpt lat="45.76346" lon="2.95965">
        <ele>1035</ele>
        <time>2020-07-11T14:12:07.109Z</time>
      </trkpt>
      <trkpt lat="45.76346" lon="2.95961">
        <ele>1036</ele>
        <time>2020-07-11T14:12:08.109Z</time>
      </trkpt>
      <trkpt lat="45.76346" lon="2.95958">
        <ele>1038</ele>
        <time>2020-07-11T14:12:09.109Z</time>
      </trkpt>
      <trkpt lat="45.76345" lon="2.95955">
        <ele>1040</ele>
        <time>2020-07-11T14:12:10.109Z</time>
      </trkpt>
      <trkpt lat="45.76345" lon="2.95952">
        <ele>1041</ele>
        <time>2020-07-11T14:12:11.109Z</time>
      </trkpt>
      <trkpt lat="45.76345" lon="2.95949">
        <ele>1043</ele>
        <time>2020-07-11T14:12:12.109Z</time>
      </trkpt>
      <trkpt lat="45.76345" lon="2.95946">
        <ele>1044</ele>
        <time>2020-07-11T14:12:13.109Z</time>
      </trkpt>
      <trkpt lat="45.76344" lon="2.95944">
        <ele>1046</ele>
        <time>2020-07-11T14:12:14.109Z</time>
      </trkpt>
      <trkpt lat="45.76344" lon="2.95941">
        <ele>1048</ele>
        <time>2020-07-11T14:12:15.109Z</time>
      </trkpt>
      <trkpt lat="45.76343" lon="2.95939">
        <ele>1050</ele>
        <time>2020-07-11T14:12:16.109Z</time>
      </trkpt>
      <trkpt lat="45.76343" lon="2.95936">
        <ele>1051</ele>
        <time>2020-07-11T14:12:17.109Z</time>
      </trkpt>
      <trkpt lat="45.76343" lon="2.95933">
        <ele>1052</ele>
        <time>2020-07-11T14:12:18.109Z</time>
      </trkpt>
      <trkpt lat="45.76343" lon="2.95931">
        <ele>1052</ele>
        <time>2020-07-11T14:12:19.109Z</time>
      </trkpt>
      <trkpt lat="45.76343" lon="2.95927">
        <ele>1053</ele>
        <time>2020-07-11T14:12:20.109Z</time>
      </trkpt>
      <trkpt lat="45.76344" lon="2.95924">
        <ele>1053</ele>
        <time>2020-07-11T14:12:21.109Z</time>
      </trkpt>
      <trkpt lat="45.76345" lon="2.95921">
        <ele>1053</ele>
        <time>2020-07-11T14:12:22.109Z</time>
      </trkpt>
      <trkpt lat="45.76346" lon="2.95918">
        <ele>1053</ele>
        <time>2020-07-11T14:12:23.109Z</time>
      </trkpt>
      <trkpt lat="45.76345" lon="2.95915">
        <ele>1054</ele>
        <time>2020-07-11T14:12:24.109Z</time>
      </trkpt>
      <trkpt lat="45.76344" lon="2.95912">
        <ele>1054</ele>
        <time>2020-07-11T14:12:25.109Z</time>
      </trkpt>
      <trkpt lat="45.76343" lon="2.9591">
        <ele>1055</ele>
        <time>2020-07-11T14:12:26.109Z</time>
      </trkpt>
      <trkpt lat="45.76343" lon="2.95907">
        <ele>1056</ele>
        <time>2020-07-11T14:12:27.109Z</time>
      </trkpt>
      <trkpt lat="45.76342" lon="2.95905">
        <ele>1057</ele>
        <time>2020-07-11T14:12:28.109Z</time>
      </trkpt>
      <trkpt lat="45.76342" lon="2.95903">
        <ele>1058</ele>
        <time>2020-07-11T14:12:29.109Z</time>
      </trkpt>
      <trkpt lat="45.76341" lon="2.95901">
        <ele>1059</ele>
        <time>2020-07-11T14:12:30.109Z</time>
      </trkpt>
      <trkpt lat="45.76341" lon="2.95898">
        <ele>1060</ele>
        <time>2020-07-11T14:12:31.109Z</time>
      </trkpt>
      <trkpt lat="45.76342" lon="2.95896">
        <ele>1062</ele>
        <time>2020-07-11T14:12:32.109Z</time>
      </trkpt>
      <trkpt lat="45.76342" lon="2.95893">
        <ele>1063</ele>
        <time>2020-07-11T14:12:33.109Z</time>
      </trkpt>
      <trkpt lat="45.76342" lon="2.95891">
        <ele>1065</ele>
        <time>2020-07-11T14:12:34.109Z</time>
      </trkpt>
      <trkpt lat="45.76343" lon="2.95888">
        <ele>1066</ele>
        <time>2020-07-11T14:12:35.109Z</time>
      </trkpt>
      <trkpt lat="45.76343" lon="2.95885">
        <ele>1067</ele>
        <time>2020-07-11T14:12:36.109Z</time>
      </trkpt>
      <trkpt lat="45.76344" lon="2.95881">
        <ele>1067</ele>
        <time>2020-07-11T14:12:37.109Z</time>
      </trkpt>
      <trkpt lat="45.76344" lon="2.95878">
        <ele>1068</ele>
        <time>2020-07-11T14:12:38.109Z</time>
      </trkpt>
      <trkpt lat="45.76344" lon="2.95874">
        <ele>1067</ele>
        <time>2020-07-11T14:12:39.109Z</time>
      </trkpt>
      <trkpt lat="45.76344" lon="2.9587">
        <ele>1068</ele>
        <time>2020-07-11T14:12:40.109Z</time>
      </trkpt>
      <trkpt lat="45.76345" lon="2.95866">
        <ele>1068</ele>
        <time>2020-07-11T14:12:41.109Z</time>
      </trkpt>
      <trkpt lat="45.76345" lon="2.95863">
        <ele>1067</ele>
        <time>2020-07-11T14:12:42.109Z</time>
      </trkpt>
      <trkpt lat="45.76344" lon="2.9586">
        <ele>1065</ele>
        <time>2020-07-11T14:12:43.109Z</time>
      </trkpt>
      <trkpt lat="45.76344" lon="2.95857">
        <ele>1066</ele>
        <time>2020-07-11T14:12:44.109Z</time>
      </trkpt>
      <trkpt lat="45.76344" lon="2.95854">
        <ele>1066</ele>
        <time>2020-07-11T14:12:45.109Z</time>
      </trkpt>
      <trkpt lat="45.76344" lon="2.95851">
        <ele>1068</ele>
        <time>2020-07-11T14:12:46.109Z</time>
      </trkpt>
      <trkpt lat="45.76344" lon="2.95849">
        <ele>1069</ele>
        <time>2020-07-11T14:12:47.109Z</time>
      </trkpt>
      <trkpt lat="45.76344" lon="2.95846">
        <ele>1071</ele>
        <time>2020-07-11T14:12:48.109Z</time>
      </trkpt>
      <trkpt lat="45.76345" lon="2.95843">
        <ele>1071</ele>
        <time>2020-07-11T14:12:49.109Z</time>
      </trkpt>
      <trkpt lat="45.76345" lon="2.95841">
        <ele>1072</ele>
        <time>2020-07-11T14:12:50.109Z</time>
      </trkpt>
      <trkpt lat="45.76346" lon="2.95838">
        <ele>1073</ele>
        <time>2020-07-11T14:12:51.109Z</time>
      </trkpt>
      <trkpt lat="45.76346" lon="2.95836">
        <ele>1073</ele>
        <time>2020-07-11T14:12:52.109Z</time>
      </trkpt>
      <trkpt lat="45.76346" lon="2.95833">
        <ele>1074</ele>
        <time>2020-07-11T14:12:53.109Z</time>
      </trkpt>
      <trkpt lat="45.76346" lon="2.95831">
        <ele>1074</ele>
        <time>2020-07-11T14:12:54.109Z</time>
      </trkpt>
      <trkpt lat="45.76346" lon="2.95828">
        <ele>1074</ele>
        <time>2020-07-11T14:12:55.109Z</time>
      </trkpt>
      <trkpt lat="45.76346" lon="2.95825">
        <ele>1075</ele>
        <time>2020-07-11T14:12:56.109Z</time>
      </trkpt>
      <trkpt lat="45.76345" lon="2.95823">
        <ele>1076</ele>
        <time>2020-07-11T14:12:57.109Z</time>
      </trkpt>
      <trkpt lat="45.76345" lon="2.95821">
        <ele>1077</ele>
        <time>2020-07-11T14:12:58.109Z</time>
      </trkpt>
      <trkpt lat="45.76346" lon="2.95818">
        <ele>1077</ele>
        <time>2020-07-11T14:12:59.109Z</time>
      </trkpt>
      <trkpt lat="45.76346" lon="2.95815">
        <ele>1078</ele>
        <time>2020-07-11T14:13:00.109Z</time>
      </trkpt>
      <trkpt lat="45.76346" lon="2.95812">
        <ele>1078</ele>
        <time>2020-07-11T14:13:01.109Z</time>
      </trkpt>
      <trkpt lat="45.76347" lon="2.95809">
        <ele>1078</ele>
        <time>2020-07-11T14:13:02.109Z</time>
      </trkpt>
      <trkpt lat="45.76347" lon="2.95806">
        <ele>1078</ele>
        <time>2020-07-11T14:13:03.109Z</time>
      </trkpt>
      <trkpt lat="45.76348" lon="2.95803">
        <ele>1078</ele>
        <time>2020-07-11T14:13:04.109Z</time>
      </trkpt>
      <trkpt lat="45.76348" lon="2.95799">
        <ele>1078</ele>
        <time>2020-07-11T14:13:05.109Z</time>
      </trkpt>
      <trkpt lat="45.76349" lon="2.95796">
        <ele>1078</ele>
        <time>2020-07-11T14:13:06.109Z</time>
      </trkpt>
      <trkpt lat="45.76349" lon="2.95793">
        <ele>1077</ele>
        <time>2020-07-11T14:13:07.109Z</time>
      </trkpt>
      <trkpt lat="45.76349" lon="2.95789">
        <ele>1077</ele>
        <time>2020-07-11T14:13:08.109Z</time>
      </trkpt>
      <trkpt lat="45.76349" lon="2.95785">
        <ele>1076</ele>
        <time>2020-07-11T14:13:09.109Z</time>
      </trkpt>
      <trkpt lat="45.76349" lon="2.95781">
        <ele>1076</ele>
        <time>2020-07-11T14:13:10.109Z</time>
      </trkpt>
      <trkpt lat="45.7635" lon="2.95777">
        <ele>1076</ele>
        <time>2020-07-11T14:13:11.109Z</time>
      </trkpt>
      <trkpt lat="45.7635" lon="2.95774">
        <ele>1077</ele>
        <time>2020-07-11T14:13:12.109Z</time>
      </trkpt>
      <trkpt lat="45.76352" lon="2.9577">
        <ele>1075</ele>
        <time>2020-07-11T14:13:13.109Z</time>
      </trkpt>
      <trkpt lat="45.76353" lon="2.95767">
        <ele>1075</ele>
        <time>2020-07-11T14:13:14.109Z</time>
      </trkpt>
      <trkpt lat="45.76355" lon="2.95763">
        <ele>1076</ele>
        <time>2020-07-11T14:13:15.109Z</time>
      </trkpt>
      <trkpt lat="45.76356" lon="2.9576">
        <ele>1075</ele>
        <time>2020-07-11T14:13:16.109Z</time>
      </trkpt>
      <trkpt lat="45.76358" lon="2.95757">
        <ele>1076</ele>
        <time>2020-07-11T14:13:17.109Z</time>
      </trkpt>
      <trkpt lat="45.76359" lon="2.95755">
        <ele>1075</ele>
        <time>2020-07-11T14:13:18.109Z</time>
      </trkpt>
      <trkpt lat="45.76361" lon="2.95753">
        <ele>1074</ele>
        <time>2020-07-11T14:13:19.109Z</time>
      </trkpt>
      <trkpt lat="45.76362" lon="2.95752">
        <ele>1073</ele>
        <time>2020-07-11T14:13:20.109Z</time>
      </trkpt>
      <trkpt lat="45.76363" lon="2.95751">
        <ele>1073</ele>
        <time>2020-07-11T14:13:21.109Z</time>
      </trkpt>
      <trkpt lat="45.76365" lon="2.9575">
        <ele>1072</ele>
        <time>2020-07-11T14:13:22.109Z</time>
      </trkpt>
      <trkpt lat="45.76366" lon="2.95749">
        <ele>1072</ele>
        <time>2020-07-11T14:13:23.109Z</time>
      </trkpt>
      <trkpt lat="45.76368" lon="2.95747">
        <ele>1072</ele>
        <time>2020-07-11T14:13:24.109Z</time>
      </trkpt>
      <trkpt lat="45.7637" lon="2.95746">
        <ele>1072</ele>
        <time>2020-07-11T14:13:25.109Z</time>
      </trkpt>
      <trkpt lat="45.76371" lon="2.95744">
        <ele>1072</ele>
        <time>2020-07-11T14:13:26.109Z</time>
      </trkpt>
      <trkpt lat="45.76373" lon="2.95742">
        <ele>1073</ele>
        <time>2020-07-11T14:13:27.109Z</time>
      </trkpt>
      <trkpt lat="45.76374" lon="2.9574">
        <ele>1073</ele>
        <time>2020-07-11T14:13:28.109Z</time>
      </trkpt>
      <trkpt lat="45.76375" lon="2.95738">
        <ele>1073</ele>
        <time>2020-07-11T14:13:29.109Z</time>
      </trkpt>
      <trkpt lat="45.76377" lon="2.95736">
        <ele>1073</ele>
        <time>2020-07-11T14:13:30.109Z</time>
      </trkpt>
      <trkpt lat="45.76378" lon="2.95735">
        <ele>1073</ele>
        <time>2020-07-11T14:13:31.109Z</time>
      </trkpt>
      <trkpt lat="45.7638" lon="2.95734">
        <ele>1073</ele>
        <time>2020-07-11T14:13:32.109Z</time>
      </trkpt>
      <trkpt lat="45.76382" lon="2.95734">
        <ele>1073</ele>
        <time>2020-07-11T14:13:33.109Z</time>
      </trkpt>
      <trkpt lat="45.76383" lon="2.95733">
        <ele>1073</ele>
        <time>2020-07-11T14:13:34.109Z</time>
      </trkpt>
      <trkpt lat="45.76385" lon="2.95732">
        <ele>1073</ele>
        <time>2020-07-11T14:13:35.109Z</time>
      </trkpt>
      <trkpt lat="45.76386" lon="2.95732">
        <ele>1073</ele>
        <time>2020-07-11T14:13:36.109Z</time>
      </trkpt>
      <trkpt lat="45.76387" lon="2.95731">
        <ele>1072</ele>
        <time>2020-07-11T14:13:37.109Z</time>
      </trkpt>
      <trkpt lat="45.76388" lon="2.95729">
        <ele>1072</ele>
        <time>2020-07-11T14:13:38.109Z</time>
      </trkpt>
      <trkpt lat="45.76389" lon="2.95728">
        <ele>1072</ele>
        <time>2020-07-11T14:13:39.109Z</time>
      </trkpt>
      <trkpt lat="45.7639" lon="2.95726">
        <ele>1072</ele>
        <time>2020-07-11T14:13:40.109Z</time>
      </trkpt>
      <trkpt lat="45.76391" lon="2.95724">
        <ele>1072</ele>
        <time>2020-07-11T14:13:41.109Z</time>
      </trkpt>
      <trkpt lat="45.76392" lon="2.95723">
        <ele>1072</ele>
        <time>2020-07-11T14:13:42.109Z</time>
      </trkpt>
      <trkpt lat="45.76394" lon="2.95722">
        <ele>1072</ele>
        <time>2020-07-11T14:13:43.109Z</time>
      </trkpt>
      <trkpt lat="45.76395" lon="2.95721">
        <ele>1073</ele>
        <time>2020-07-11T14:13:44.109Z</time>
      </trkpt>
      <trkpt lat="45.76396" lon="2.95719">
        <ele>1074</ele>
        <time>2020-07-11T14:13:45.109Z</time>
      </trkpt>
      <trkpt lat="45.76397" lon="2.95718">
        <ele>1075</ele>
        <time>2020-07-11T14:13:46.109Z</time>
      </trkpt>
      <trkpt lat="45.76398" lon="2.95718">
        <ele>1076</ele>
        <time>2020-07-11T14:13:47.109Z</time>
      </trkpt>
      <trkpt lat="45.76399" lon="2.95717">
        <ele>1077</ele>
        <time>2020-07-11T14:13:48.109Z</time>
      </trkpt>
      <trkpt lat="45.76399" lon="2.95716">
        <ele>1078</ele>
        <time>2020-07-11T14:13:49.109Z</time>
      </trkpt>
      <trkpt lat="45.764" lon="2.95715">
        <ele>1078</ele>
        <time>2020-07-11T14:13:50.109Z</time>
      </trkpt>
      <trkpt lat="45.76401" lon="2.95714">
        <ele>1079</ele>
        <time>2020-07-11T14:13:51.109Z</time>
      </trkpt>
      <trkpt lat="45.76402" lon="2.95713">
        <ele>1079</ele>
        <time>2020-07-11T14:13:52.109Z</time>
      </trkpt>
      <trkpt lat="45.76403" lon="2.95711">
        <ele>1079</ele>
        <time>2020-07-11T14:13:53.109Z</time>
      </trkpt>
      <trkpt lat="45.76404" lon="2.95709">
        <ele>1080</ele>
        <time>2020-07-11T14:13:54.109Z</time>
      </trkpt>
      <trkpt lat="45.76406" lon="2.95707">
        <ele>1080</ele>
        <time>2020-07-11T14:13:55.109Z</time>
      </trkpt>
      <trkpt lat="45.76407" lon="2.95705">
        <ele>1079</ele>
        <time>2020-07-11T14:13:56.109Z</time>
      </trkpt>
      <trkpt lat="45.76408" lon="2.95703">
        <ele>1078</ele>
        <time>2020-07-11T14:13:57.109Z</time>
      </trkpt>
      <trkpt lat="45.7641" lon="2.95701">
        <ele>1078</ele>
        <time>2020-07-11T14:13:58.109Z</time>
      </trkpt>
      <trkpt lat="45.76411" lon="2.95699">
        <ele>1078</ele>
        <time>2020-07-11T14:13:59.109Z</time>
      </trkpt>
      <trkpt lat="45.76412" lon="2.95698">
        <ele>1078</ele>
        <time>2020-07-11T14:14:00.109Z</time>
      </trkpt>
      <trkpt lat="45.76413" lon="2.95695">
        <ele>1078</ele>
        <time>2020-07-11T14:14:01.109Z</time>
      </trkpt>
      <trkpt lat="45.76414" lon="2.95692">
        <ele>1079</ele>
        <time>2020-07-11T14:14:02.109Z</time>
      </trkpt>
      <trkpt lat="45.76415" lon="2.9569">
        <ele>1080</ele>
        <time>2020-07-11T14:14:03.109Z</time>
      </trkpt>
      <trkpt lat="45.76417" lon="2.95687">
        <ele>1082</ele>
        <time>2020-07-11T14:14:04.109Z</time>
      </trkpt>
      <trkpt lat="45.76418" lon="2.95684">
        <ele>1082</ele>
        <time>2020-07-11T14:14:05.109Z</time>
      </trkpt>
      <trkpt lat="45.76419" lon="2.95681">
        <ele>1083</ele>
        <time>2020-07-11T14:14:06.109Z</time>
      </trkpt>
      <trkpt lat="45.7642" lon="2.95678">
        <ele>1084</ele>
        <time>2020-07-11T14:14:07.109Z</time>
      </trkpt>
      <trkpt lat="45.76422" lon="2.95675">
        <ele>1085</ele>
        <time>2020-07-11T14:14:08.109Z</time>
      </trkpt>
      <trkpt lat="45.76423" lon="2.95672">
        <ele>1084</ele>
        <time>2020-07-11T14:14:09.109Z</time>
      </trkpt>
      <trkpt lat="45.76423" lon="2.95668">
        <ele>1083</ele>
        <time>2020-07-11T14:14:10.109Z</time>
      </trkpt>
      <trkpt lat="45.76424" lon="2.95663">
        <ele>1080</ele>
        <time>2020-07-11T14:14:11.109Z</time>
      </trkpt>
      <trkpt lat="45.76423" lon="2.95657">
        <ele>1080</ele>
        <time>2020-07-11T14:14:12.109Z</time>
      </trkpt>
      <trkpt lat="45.76423" lon="2.95651">
        <ele>1082</ele>
        <time>2020-07-11T14:14:13.109Z</time>
      </trkpt>
      <trkpt lat="45.76423" lon="2.95646">
        <ele>1082</ele>
        <time>2020-07-11T14:14:14.109Z</time>
      </trkpt>
      <trkpt lat="45.76423" lon="2.95641">
        <ele>1083</ele>
        <time>2020-07-11T14:14:15.109Z</time>
      </trkpt>
      <trkpt lat="45.76423" lon="2.95636">
        <ele>1083</ele>
        <time>2020-07-11T14:14:16.109Z</time>
      </trkpt>
      <trkpt lat="45.76422" lon="2.95631">
        <ele>1083</ele>
        <time>2020-07-11T14:14:17.109Z</time>
      </trkpt>
      <trkpt lat="45.76423" lon="2.95627">
        <ele>1084</ele>
        <time>2020-07-11T14:14:18.109Z</time>
      </trkpt>
      <trkpt lat="45.76423" lon="2.95622">
        <ele>1084</ele>
        <time>2020-07-11T14:14:19.109Z</time>
      </trkpt>
      <trkpt lat="45.76424" lon="2.95618">
        <ele>1082</ele>
        <time>2020-07-11T14:14:20.109Z</time>
      </trkpt>
      <trkpt lat="45.76426" lon="2.95614">
        <ele>1083</ele>
        <time>2020-07-11T14:14:21.109Z</time>
      </trkpt>
      <trkpt lat="45.76427" lon="2.9561">
        <ele>1084</ele>
        <time>2020-07-11T14:14:22.109Z</time>
      </trkpt>
      <trkpt lat="45.76428" lon="2.95607">
        <ele>1084</ele>
        <time>2020-07-11T14:14:23.109Z</time>
      </trkpt>
      <trkpt lat="45.7643" lon="2.95604">
        <ele>1085</ele>
        <time>2020-07-11T14:14:24.109Z</time>
      </trkpt>
      <trkpt lat="45.76431" lon="2.95602">
        <ele>1084</ele>
        <time>2020-07-11T14:14:25.109Z</time>
      </trkpt>
      <trkpt lat="45.76433" lon="2.95599">
        <ele>1085</ele>
        <time>2020-07-11T14:14:26.109Z</time>
      </trkpt>
      <trkpt lat="45.76435" lon="2.95597">
        <ele>1085</ele>
        <time>2020-07-11T14:14:27.109Z</time>
      </trkpt>
      <trkpt lat="45.76436" lon="2.95595">
        <ele>1086</ele>
        <time>2020-07-11T14:14:28.109Z</time>
      </trkpt>
      <trkpt lat="45.76437" lon="2.95593">
        <ele>1086</ele>
        <time>2020-07-11T14:14:29.109Z</time>
      </trkpt>
      <trkpt lat="45.76439" lon="2.95591">
        <ele>1086</ele>
        <time>2020-07-11T14:14:30.109Z</time>
      </trkpt>
      <trkpt lat="45.7644" lon="2.95589">
        <ele>1085</ele>
        <time>2020-07-11T14:14:31.109Z</time>
      </trkpt>
      <trkpt lat="45.76441" lon="2.95586">
        <ele>1086</ele>
        <time>2020-07-11T14:14:32.109Z</time>
      </trkpt>
      <trkpt lat="45.76442" lon="2.95583">
        <ele>1086</ele>
        <time>2020-07-11T14:14:33.109Z</time>
      </trkpt>
      <trkpt lat="45.76442" lon="2.9558">
        <ele>1085</ele>
        <time>2020-07-11T14:14:34.109Z</time>
      </trkpt>
      <trkpt lat="45.76442" lon="2.95576">
        <ele>1083</ele>
        <time>2020-07-11T14:14:35.109Z</time>
      </trkpt>
      <trkpt lat="45.76442" lon="2.95572">
        <ele>1082</ele>
        <time>2020-07-11T14:14:36.109Z</time>
      </trkpt>
      <trkpt lat="45.76443" lon="2.95569">
        <ele>1082</ele>
        <time>2020-07-11T14:14:37.109Z</time>
      </trkpt>
      <trkpt lat="45.76445" lon="2.95566">
        <ele>1081</ele>
        <time>2020-07-11T14:14:38.109Z</time>
      </trkpt>
      <trkpt lat="45.76448" lon="2.95565">
        <ele>1080</ele>
        <time>2020-07-11T14:14:39.109Z</time>
      </trkpt>
      <trkpt lat="45.76449" lon="2.95566">
        <ele>1078</ele>
        <time>2020-07-11T14:14:40.109Z</time>
      </trkpt>
      <trkpt lat="45.76451" lon="2.95568">
        <ele>1078</ele>
        <time>2020-07-11T14:14:41.109Z</time>
      </trkpt>
      <trkpt lat="45.76453" lon="2.9557">
        <ele>1078</ele>
        <time>2020-07-11T14:14:42.109Z</time>
      </trkpt>
      <trkpt lat="45.76454" lon="2.95571">
        <ele>1078</ele>
        <time>2020-07-11T14:14:43.109Z</time>
      </trkpt>
      <trkpt lat="45.76457" lon="2.95572">
        <ele>1078</ele>
        <time>2020-07-11T14:14:44.109Z</time>
      </trkpt>
      <trkpt lat="45.76459" lon="2.95573">
        <ele>1078</ele>
        <time>2020-07-11T14:14:45.109Z</time>
      </trkpt>
      <trkpt lat="45.76461" lon="2.95574">
        <ele>1078</ele>
        <time>2020-07-11T14:14:46.109Z</time>
      </trkpt>
      <trkpt lat="45.76463" lon="2.95575">
        <ele>1078</ele>
        <time>2020-07-11T14:14:47.109Z</time>
      </trkpt>
      <trkpt lat="45.76465" lon="2.95576">
        <ele>1078</ele>
        <time>2020-07-11T14:14:48.109Z</time>
      </trkpt>
      <trkpt lat="45.76467" lon="2.95577">
        <ele>1078</ele>
        <time>2020-07-11T14:14:49.109Z</time>
      </trkpt>
      <trkpt lat="45.76469" lon="2.95578">
        <ele>1080</ele>
        <time>2020-07-11T14:14:50.109Z</time>
      </trkpt>
      <trkpt lat="45.76471" lon="2.95579">
        <ele>1081</ele>
        <time>2020-07-11T14:14:51.109Z</time>
      </trkpt>
      <trkpt lat="45.76473" lon="2.95581">
        <ele>1082</ele>
        <time>2020-07-11T14:14:52.109Z</time>
      </trkpt>
      <trkpt lat="45.76474" lon="2.95583">
        <ele>1084</ele>
        <time>2020-07-11T14:14:53.109Z</time>
      </trkpt>
      <trkpt lat="45.76476" lon="2.95585">
        <ele>1085</ele>
        <time>2020-07-11T14:14:54.109Z</time>
      </trkpt>
      <trkpt lat="45.76478" lon="2.95586">
        <ele>1086</ele>
        <time>2020-07-11T14:14:55.109Z</time>
      </trkpt>
      <trkpt lat="45.7648" lon="2.9559">
        <ele>1086</ele>
        <time>2020-07-11T14:14:56.109Z</time>
      </trkpt>
      <trkpt lat="45.76481" lon="2.95593">
        <ele>1086</ele>
        <time>2020-07-11T14:14:57.109Z</time>
      </trkpt>
      <trkpt lat="45.76483" lon="2.95597">
        <ele>1088</ele>
        <time>2020-07-11T14:14:58.109Z</time>
      </trkpt>
      <trkpt lat="45.76484" lon="2.956">
        <ele>1089</ele>
        <time>2020-07-11T14:14:59.109Z</time>
      </trkpt>
      <trkpt lat="45.76486" lon="2.95603">
        <ele>1089</ele>
        <time>2020-07-11T14:15:00.109Z</time>
      </trkpt>
      <trkpt lat="45.76487" lon="2.95606">
        <ele>1090</ele>
        <time>2020-07-11T14:15:01.109Z</time>
      </trkpt>
      <trkpt lat="45.76488" lon="2.95608">
        <ele>1089</ele>
        <time>2020-07-11T14:15:02.109Z</time>
      </trkpt>
      <trkpt lat="45.76488" lon="2.95611">
        <ele>1089</ele>
        <time>2020-07-11T14:15:03.109Z</time>
      </trkpt>
      <trkpt lat="45.76489" lon="2.95614">
        <ele>1090</ele>
        <time>2020-07-11T14:15:04.109Z</time>
      </trkpt>
      <trkpt lat="45.76489" lon="2.95616">
        <ele>1090</ele>
        <time>2020-07-11T14:15:05.109Z</time>
      </trkpt>
      <trkpt lat="45.7649" lon="2.95619">
        <ele>1090</ele>
        <time>2020-07-11T14:15:06.109Z</time>
      </trkpt>
      <trkpt lat="45.7649" lon="2.95621">
        <ele>1091</ele>
        <time>2020-07-11T14:15:07.109Z</time>
      </trkpt>
      <trkpt lat="45.76491" lon="2.95624">
        <ele>1090</ele>
        <time>2020-07-11T14:15:08.109Z</time>
      </trkpt>
      <trkpt lat="45.76492" lon="2.95627">
        <ele>1090</ele>
        <time>2020-07-11T14:15:09.109Z</time>
      </trkpt>
      <trkpt lat="45.76493" lon="2.95629">
        <ele>1089</ele>
        <time>2020-07-11T14:15:10.109Z</time>
      </trkpt>
      <trkpt lat="45.76493" lon="2.95631">
        <ele>1089</ele>
        <time>2020-07-11T14:15:11.109Z</time>
      </trkpt>
      <trkpt lat="45.76494" lon="2.95633">
        <ele>1089</ele>
        <time>2020-07-11T14:15:12.109Z</time>
      </trkpt>
      <trkpt lat="45.76494" lon="2.95636">
        <ele>1089</ele>
        <time>2020-07-11T14:15:13.109Z</time>
      </trkpt>
      <trkpt lat="45.76494" lon="2.95639">
        <ele>1088</ele>
        <time>2020-07-11T14:15:14.109Z</time>
      </trkpt>
      <trkpt lat="45.76495" lon="2.95641">
        <ele>1089</ele>
        <time>2020-07-11T14:15:15.109Z</time>
      </trkpt>
      <trkpt lat="45.76496" lon="2.95645">
        <ele>1088</ele>
        <time>2020-07-11T14:15:16.109Z</time>
      </trkpt>
      <trkpt lat="45.76496" lon="2.95648">
        <ele>1087</ele>
        <time>2020-07-11T14:15:17.109Z</time>
      </trkpt>
      <trkpt lat="45.76497" lon="2.95651">
        <ele>1087</ele>
        <time>2020-07-11T14:15:18.109Z</time>
      </trkpt>
      <trkpt lat="45.76497" lon="2.95655">
        <ele>1086</ele>
        <time>2020-07-11T14:15:19.109Z</time>
      </trkpt>
      <trkpt lat="45.76497" lon="2.95659">
        <ele>1085</ele>
        <time>2020-07-11T14:15:20.109Z</time>
      </trkpt>
      <trkpt lat="45.76497" lon="2.95662">
        <ele>1085</ele>
        <time>2020-07-11T14:15:21.109Z</time>
      </trkpt>
      <trkpt lat="45.76497" lon="2.95665">
        <ele>1085</ele>
        <time>2020-07-11T14:15:22.109Z</time>
      </trkpt>
      <trkpt lat="45.76498" lon="2.95668">
        <ele>1085</ele>
        <time>2020-07-11T14:15:23.109Z</time>
      </trkpt>
      <trkpt lat="45.76498" lon="2.95671">
        <ele>1086</ele>
        <time>2020-07-11T14:15:24.109Z</time>
      </trkpt>
      <trkpt lat="45.76499" lon="2.95674">
        <ele>1087</ele>
        <time>2020-07-11T14:15:25.109Z</time>
      </trkpt>
      <trkpt lat="45.76499" lon="2.95677">
        <ele>1088</ele>
        <time>2020-07-11T14:15:26.109Z</time>
      </trkpt>
      <trkpt lat="45.765" lon="2.9568">
        <ele>1088</ele>
        <time>2020-07-11T14:15:27.109Z</time>
      </trkpt>
      <trkpt lat="45.765" lon="2.95682">
        <ele>1088</ele>
        <time>2020-07-11T14:15:28.109Z</time>
      </trkpt>
      <trkpt lat="45.76501" lon="2.95685">
        <ele>1088</ele>
        <time>2020-07-11T14:15:29.109Z</time>
      </trkpt>
      <trkpt lat="45.76502" lon="2.95688">
        <ele>1088</ele>
        <time>2020-07-11T14:15:30.109Z</time>
      </trkpt>
      <trkpt lat="45.76503" lon="2.95691">
        <ele>1089</ele>
        <time>2020-07-11T14:15:31.109Z</time>
      </trkpt>
      <trkpt lat="45.76503" lon="2.95693">
        <ele>1090</ele>
        <time>2020-07-11T14:15:32.109Z</time>
      </trkpt>
      <trkpt lat="45.76503" lon="2.95695">
        <ele>1090</ele>
        <time>2020-07-11T14:15:33.109Z</time>
      </trkpt>
      <trkpt lat="45.76503" lon="2.95697">
        <ele>1091</ele>
        <time>2020-07-11T14:15:34.109Z</time>
      </trkpt>
      <trkpt lat="45.76503" lon="2.95699">
        <ele>1092</ele>
        <time>2020-07-11T14:15:35.109Z</time>
      </trkpt>
      <trkpt lat="45.76504" lon="2.95702">
        <ele>1093</ele>
        <time>2020-07-11T14:15:36.109Z</time>
      </trkpt>
      <trkpt lat="45.76504" lon="2.95705">
        <ele>1094</ele>
        <time>2020-07-11T14:15:37.109Z</time>
      </trkpt>
      <trkpt lat="45.76504" lon="2.95709">
        <ele>1094</ele>
        <time>2020-07-11T14:15:38.109Z</time>
      </trkpt>
      <trkpt lat="45.76505" lon="2.95711">
        <ele>1095</ele>
        <time>2020-07-11T14:15:39.109Z</time>
      </trkpt>
      <trkpt lat="45.76506" lon="2.95715">
        <ele>1095</ele>
        <time>2020-07-11T14:15:40.109Z</time>
      </trkpt>
      <trkpt lat="45.76507" lon="2.95718">
        <ele>1095</ele>
        <time>2020-07-11T14:15:41.109Z</time>
      </trkpt>
      <trkpt lat="45.76508" lon="2.95721">
        <ele>1096</ele>
        <time>2020-07-11T14:15:42.109Z</time>
      </trkpt>
      <trkpt lat="45.76508" lon="2.95724">
        <ele>1097</ele>
        <time>2020-07-11T14:15:43.109Z</time>
      </trkpt>
      <trkpt lat="45.76509" lon="2.95727">
        <ele>1097</ele>
        <time>2020-07-11T14:15:44.109Z</time>
      </trkpt>
      <trkpt lat="45.7651" lon="2.9573">
        <ele>1098</ele>
        <time>2020-07-11T14:15:45.109Z</time>
      </trkpt>
      <trkpt lat="45.76511" lon="2.95734">
        <ele>1098</ele>
        <time>2020-07-11T14:15:46.109Z</time>
      </trkpt>
      <trkpt lat="45.76513" lon="2.95737">
        <ele>1099</ele>
        <time>2020-07-11T14:15:47.109Z</time>
      </trkpt>
      <trkpt lat="45.76514" lon="2.9574">
        <ele>1101</ele>
        <time>2020-07-11T14:15:48.109Z</time>
      </trkpt>
      <trkpt lat="45.76515" lon="2.95742">
        <ele>1101</ele>
        <time>2020-07-11T14:15:49.109Z</time>
      </trkpt>
      <trkpt lat="45.76516" lon="2.95745">
        <ele>1102</ele>
        <time>2020-07-11T14:15:50.109Z</time>
      </trkpt>
      <trkpt lat="45.76517" lon="2.95748">
        <ele>1103</ele>
        <time>2020-07-11T14:15:51.109Z</time>
      </trkpt>
      <trkpt lat="45.76518" lon="2.95751">
        <ele>1103</ele>
        <time>2020-07-11T14:15:52.109Z</time>
      </trkpt>
      <trkpt lat="45.7652" lon="2.95753">
        <ele>1103</ele>
        <time>2020-07-11T14:15:53.109Z</time>
      </trkpt>
      <trkpt lat="45.76521" lon="2.95755">
        <ele>1105</ele>
        <time>2020-07-11T14:15:54.109Z</time>
      </trkpt>
      <trkpt lat="45.76523" lon="2.95757">
        <ele>1106</ele>
        <time>2020-07-11T14:15:55.109Z</time>
      </trkpt>
      <trkpt lat="45.76524" lon="2.95759">
        <ele>1108</ele>
        <time>2020-07-11T14:15:56.109Z</time>
      </trkpt>
      <trkpt lat="45.76526" lon="2.95762">
        <ele>1111</ele>
        <time>2020-07-11T14:15:57.109Z</time>
      </trkpt>
      <trkpt lat="45.76527" lon="2.95764">
        <ele>1113</ele>
        <time>2020-07-11T14:15:58.109Z</time>
      </trkpt>
      <trkpt lat="45.76528" lon="2.95765">
        <ele>1114</ele>
        <time>2020-07-11T14:15:59.109Z</time>
      </trkpt>
      <trkpt lat="45.7653" lon="2.95766">
        <ele>1117</ele>
        <time>2020-07-11T14:16:00.109Z</time>
      </trkpt>
      <trkpt lat="45.76532" lon="2.95767">
        <ele>1118</ele>
        <time>2020-07-11T14:16:01.109Z</time>
      </trkpt>
      <trkpt lat="45.76534" lon="2.95768">
        <ele>1119</ele>
        <time>2020-07-11T14:16:02.109Z</time>
      </trkpt>
      <trkpt lat="45.76536" lon="2.95768">
        <ele>1119</ele>
        <time>2020-07-11T14:16:03.109Z</time>
      </trkpt>
      <trkpt lat="45.76537" lon="2.95769">
        <ele>1120</ele>
        <time>2020-07-11T14:16:04.109Z</time>
      </trkpt>
      <trkpt lat="45.76539" lon="2.95769">
        <ele>1121</ele>
        <time>2020-07-11T14:16:05.109Z</time>
      </trkpt>
      <trkpt lat="45.7654" lon="2.9577">
        <ele>1122</ele>
        <time>2020-07-11T14:16:06.109Z</time>
      </trkpt>
      <trkpt lat="45.76542" lon="2.9577">
        <ele>1125</ele>
        <time>2020-07-11T14:16:07.109Z</time>
      </trkpt>
      <trkpt lat="45.76543" lon="2.95771">
        <ele>1126</ele>
        <time>2020-07-11T14:16:08.109Z</time>
      </trkpt>
      <trkpt lat="45.76545" lon="2.95771">
        <ele>1127</ele>
        <time>2020-07-11T14:16:09.109Z</time>
      </trkpt>
      <trkpt lat="45.76546" lon="2.95772">
        <ele>1127</ele>
        <time>2020-07-11T14:16:10.109Z</time>
      </trkpt>
      <trkpt lat="45.76548" lon="2.95773">
        <ele>1129</ele>
        <time>2020-07-11T14:16:11.109Z</time>
      </trkpt>
      <trkpt lat="45.7655" lon="2.95775">
        <ele>1131</ele>
        <time>2020-07-11T14:16:12.109Z</time>
      </trkpt>
      <trkpt lat="45.76551" lon="2.95776">
        <ele>1132</ele>
        <time>2020-07-11T14:16:13.109Z</time>
      </trkpt>
      <trkpt lat="45.76553" lon="2.95778">
        <ele>1132</ele>
        <time>2020-07-11T14:16:14.109Z</time>
      </trkpt>
      <trkpt lat="45.76555" lon="2.95779">
        <ele>1133</ele>
        <time>2020-07-11T14:16:15.109Z</time>
      </trkpt>
      <trkpt lat="45.76558" lon="2.95781">
        <ele>1134</ele>
        <time>2020-07-11T14:16:16.109Z</time>
      </trkpt>
      <trkpt lat="45.76561" lon="2.95782">
        <ele>1134</ele>
        <time>2020-07-11T14:16:17.109Z</time>
      </trkpt>
      <trkpt lat="45.76564" lon="2.95783">
        <ele>1134</ele>
        <time>2020-07-11T14:16:18.109Z</time>
      </trkpt>
      <trkpt lat="45.76566" lon="2.95784">
        <ele>1135</ele>
        <time>2020-07-11T14:16:19.109Z</time>
      </trkpt>
      <trkpt lat="45.76568" lon="2.95786">
        <ele>1136</ele>
        <time>2020-07-11T14:16:20.109Z</time>
      </trkpt>
      <trkpt lat="45.76571" lon="2.95787">
        <ele>1136</ele>
        <time>2020-07-11T14:16:21.109Z</time>
      </trkpt>
      <trkpt lat="45.76574" lon="2.95789">
        <ele>1137</ele>
        <time>2020-07-11T14:16:22.109Z</time>
      </trkpt>
      <trkpt lat="45.76577" lon="2.95791">
        <ele>1138</ele>
        <time>2020-07-11T14:16:23.109Z</time>
      </trkpt>
      <trkpt lat="45.7658" lon="2.95793">
        <ele>1138</ele>
        <time>2020-07-11T14:16:24.109Z</time>
      </trkpt>
      <trkpt lat="45.76582" lon="2.95796">
        <ele>1137</ele>
        <time>2020-07-11T14:16:25.109Z</time>
      </trkpt>
      <trkpt lat="45.76584" lon="2.95798">
        <ele>1137</ele>
        <time>2020-07-11T14:16:26.109Z</time>
      </trkpt>
      <trkpt lat="45.76587" lon="2.958">
        <ele>1138</ele>
        <time>2020-07-11T14:16:27.109Z</time>
      </trkpt>
      <trkpt lat="45.76589" lon="2.95801">
        <ele>1139</ele>
        <time>2020-07-11T14:16:28.109Z</time>
      </trkpt>
      <trkpt lat="45.76591" lon="2.95803">
        <ele>1139</ele>
        <time>2020-07-11T14:16:29.109Z</time>
      </trkpt>
      <trkpt lat="45.76593" lon="2.95805">
        <ele>1140</ele>
        <time>2020-07-11T14:16:30.109Z</time>
      </trkpt>
      <trkpt lat="45.76595" lon="2.95807">
        <ele>1140</ele>
        <time>2020-07-11T14:16:31.109Z</time>
      </trkpt>
      <trkpt lat="45.76597" lon="2.95809">
        <ele>1141</ele>
        <time>2020-07-11T14:16:32.109Z</time>
      </trkpt>
      <trkpt lat="45.76599" lon="2.95811">
        <ele>1141</ele>
        <time>2020-07-11T14:16:33.109Z</time>
      </trkpt>
      <trkpt lat="45.766" lon="2.95814">
        <ele>1141</ele>
        <time>2020-07-11T14:16:34.109Z</time>
      </trkpt>
      <trkpt lat="45.76601" lon="2.95816">
        <ele>1142</ele>
        <time>2020-07-11T14:16:35.109Z</time>
      </trkpt>
      <trkpt lat="45.76602" lon="2.95819">
        <ele>1143</ele>
        <time>2020-07-11T14:16:36.109Z</time>
      </trkpt>
      <trkpt lat="45.76604" lon="2.95822">
        <ele>1142</ele>
        <time>2020-07-11T14:16:37.109Z</time>
      </trkpt>
      <trkpt lat="45.76605" lon="2.95825">
        <ele>1141</ele>
        <time>2020-07-11T14:16:38.109Z</time>
      </trkpt>
      <trkpt lat="45.76607" lon="2.95829">
        <ele>1141</ele>
        <time>2020-07-11T14:16:39.109Z</time>
      </trkpt>
      <trkpt lat="45.76608" lon="2.95833">
        <ele>1140</ele>
        <time>2020-07-11T14:16:40.109Z</time>
      </trkpt>
      <trkpt lat="45.7661" lon="2.95837">
        <ele>1140</ele>
        <time>2020-07-11T14:16:41.109Z</time>
      </trkpt>
      <trkpt lat="45.76611" lon="2.9584">
        <ele>1139</ele>
        <time>2020-07-11T14:16:42.109Z</time>
      </trkpt>
      <trkpt lat="45.76613" lon="2.95843">
        <ele>1139</ele>
        <time>2020-07-11T14:16:43.109Z</time>
      </trkpt>
      <trkpt lat="45.76615" lon="2.95845">
        <ele>1138</ele>
        <time>2020-07-11T14:16:44.109Z</time>
      </trkpt>
      <trkpt lat="45.76617" lon="2.95845">
        <ele>1137</ele>
        <time>2020-07-11T14:16:45.109Z</time>
      </trkpt>
      <trkpt lat="45.76619" lon="2.95844">
        <ele>1135</ele>
        <time>2020-07-11T14:16:46.109Z</time>
      </trkpt>
      <trkpt lat="45.76622" lon="2.95843">
        <ele>1133</ele>
        <time>2020-07-11T14:16:47.109Z</time>
      </trkpt>
      <trkpt lat="45.76624" lon="2.95842">
        <ele>1133</ele>
        <time>2020-07-11T14:16:48.109Z</time>
      </trkpt>
      <trkpt lat="45.76626" lon="2.9584">
        <ele>1133</ele>
        <time>2020-07-11T14:16:49.109Z</time>
      </trkpt>
      <trkpt lat="45.76628" lon="2.95839">
        <ele>1133</ele>
        <time>2020-07-11T14:16:50.109Z</time>
      </trkpt>
      <trkpt lat="45.76629" lon="2.95838">
        <ele>1134</ele>
        <time>2020-07-11T14:16:51.109Z</time>
      </trkpt>
      <trkpt lat="45.7663" lon="2.95836">
        <ele>1134</ele>
        <time>2020-07-11T14:16:52.109Z</time>
      </trkpt>
      <trkpt lat="45.76631" lon="2.95835">
        <ele>1135</ele>
        <time>2020-07-11T14:16:53.109Z</time>
      </trkpt>
      <trkpt lat="45.76632" lon="2.95833">
        <ele>1136</ele>
        <time>2020-07-11T14:16:54.109Z</time>
      </trkpt>
      <trkpt lat="45.76634" lon="2.9583">
        <ele>1137</ele>
        <time>2020-07-11T14:16:55.109Z</time>
      </trkpt>
      <trkpt lat="45.76635" lon="2.95828">
        <ele>1137</ele>
        <time>2020-07-11T14:16:56.109Z</time>
      </trkpt>
      <trkpt lat="45.76637" lon="2.95825">
        <ele>1138</ele>
        <time>2020-07-11T14:16:57.109Z</time>
      </trkpt>
      <trkpt lat="45.76638" lon="2.95823">
        <ele>1139</ele>
        <time>2020-07-11T14:16:58.109Z</time>
      </trkpt>
      <trkpt lat="45.7664" lon="2.9582">
        <ele>1139</ele>
        <time>2020-07-11T14:16:59.109Z</time>
      </trkpt>
      <trkpt lat="45.76642" lon="2.95818">
        <ele>1139</ele>
        <time>2020-07-11T14:17:00.109Z</time>
      </trkpt>
      <trkpt lat="45.76643" lon="2.95815">
        <ele>1139</ele>
        <time>2020-07-11T14:17:01.109Z</time>
      </trkpt>
      <trkpt lat="45.76645" lon="2.95812">
        <ele>1140</ele>
        <time>2020-07-11T14:17:02.109Z</time>
      </trkpt>
      <trkpt lat="45.76646" lon="2.9581">
        <ele>1141</ele>
        <time>2020-07-11T14:17:03.109Z</time>
      </trkpt>
      <trkpt lat="45.76647" lon="2.95807">
        <ele>1141</ele>
        <time>2020-07-11T14:17:04.109Z</time>
      </trkpt>
      <trkpt lat="45.76648" lon="2.95804">
        <ele>1142</ele>
        <time>2020-07-11T14:17:05.109Z</time>
      </trkpt>
      <trkpt lat="45.76649" lon="2.95802">
        <ele>1143</ele>
        <time>2020-07-11T14:17:06.109Z</time>
      </trkpt>
      <trkpt lat="45.7665" lon="2.95799">
        <ele>1145</ele>
        <time>2020-07-11T14:17:07.109Z</time>
      </trkpt>
      <trkpt lat="45.7665" lon="2.95796">
        <ele>1146</ele>
        <time>2020-07-11T14:17:08.109Z</time>
      </trkpt>
      <trkpt lat="45.7665" lon="2.95794">
        <ele>1148</ele>
        <time>2020-07-11T14:17:09.109Z</time>
      </trkpt>
      <trkpt lat="45.7665" lon="2.95791">
        <ele>1150</ele>
        <time>2020-07-11T14:17:10.109Z</time>
      </trkpt>
      <trkpt lat="45.7665" lon="2.95787">
        <ele>1150</ele>
        <time>2020-07-11T14:17:11.109Z</time>
      </trkpt>
      <trkpt lat="45.76649" lon="2.95784">
        <ele>1151</ele>
        <time>2020-07-11T14:17:12.109Z</time>
      </trkpt>
      <trkpt lat="45.76649" lon="2.9578">
        <ele>1152</ele>
        <time>2020-07-11T14:17:13.109Z</time>
      </trkpt>
      <trkpt lat="45.76649" lon="2.95776">
        <ele>1153</ele>
        <time>2020-07-11T14:17:14.109Z</time>
      </trkpt>
      <trkpt lat="45.76648" lon="2.95772">
        <ele>1153</ele>
        <time>2020-07-11T14:17:15.109Z</time>
      </trkpt>
      <trkpt lat="45.76648" lon="2.95769">
        <ele>1153</ele>
        <time>2020-07-11T14:17:16.109Z</time>
      </trkpt>
      <trkpt lat="45.76648" lon="2.95766">
        <ele>1151</ele>
        <time>2020-07-11T14:17:17.109Z</time>
      </trkpt>
      <trkpt lat="45.76649" lon="2.95763">
        <ele>1152</ele>
        <time>2020-07-11T14:17:18.109Z</time>
      </trkpt>
      <trkpt lat="45.7665" lon="2.9576">
        <ele>1152</ele>
        <time>2020-07-11T14:17:19.109Z</time>
      </trkpt>
      <trkpt lat="45.76652" lon="2.95757">
        <ele>1151</ele>
        <time>2020-07-11T14:17:20.109Z</time>
      </trkpt>
      <trkpt lat="45.76655" lon="2.95755">
        <ele>1151</ele>
        <time>2020-07-11T14:17:21.109Z</time>
      </trkpt>
      <trkpt lat="45.76658" lon="2.95753">
        <ele>1152</ele>
        <time>2020-07-11T14:17:22.109Z</time>
      </trkpt>
      <trkpt lat="45.76659" lon="2.95752">
        <ele>1154</ele>
        <time>2020-07-11T14:17:23.109Z</time>
      </trkpt>
      <trkpt lat="45.76661" lon="2.95752">
        <ele>1153</ele>
        <time>2020-07-11T14:17:24.109Z</time>
      </trkpt>
      <trkpt lat="45.76663" lon="2.95751">
        <ele>1154</ele>
        <time>2020-07-11T14:17:25.109Z</time>
      </trkpt>
      <trkpt lat="45.76664" lon="2.95751">
        <ele>1154</ele>
        <time>2020-07-11T14:17:26.109Z</time>
      </trkpt>
      <trkpt lat="45.76666" lon="2.9575">
        <ele>1154</ele>
        <time>2020-07-11T14:17:27.109Z</time>
      </trkpt>
      <trkpt lat="45.76669" lon="2.9575">
        <ele>1154</ele>
        <time>2020-07-11T14:17:28.109Z</time>
      </trkpt>
      <trkpt lat="45.76671" lon="2.95749">
        <ele>1154</ele>
        <time>2020-07-11T14:17:29.109Z</time>
      </trkpt>
      <trkpt lat="45.76672" lon="2.95749">
        <ele>1154</ele>
        <time>2020-07-11T14:17:30.109Z</time>
      </trkpt>
      <trkpt lat="45.76674" lon="2.95749">
        <ele>1154</ele>
        <time>2020-07-11T14:17:31.109Z</time>
      </trkpt>
      <trkpt lat="45.76676" lon="2.95749">
        <ele>1154</ele>
        <time>2020-07-11T14:17:32.109Z</time>
      </trkpt>
      <trkpt lat="45.76678" lon="2.9575">
        <ele>1154</ele>
        <time>2020-07-11T14:17:33.109Z</time>
      </trkpt>
      <trkpt lat="45.7668" lon="2.9575">
        <ele>1154</ele>
        <time>2020-07-11T14:17:34.109Z</time>
      </trkpt>
      <trkpt lat="45.76682" lon="2.9575">
        <ele>1155</ele>
        <time>2020-07-11T14:17:35.109Z</time>
      </trkpt>
      <trkpt lat="45.76684" lon="2.9575">
        <ele>1154</ele>
        <time>2020-07-11T14:17:36.109Z</time>
      </trkpt>
      <trkpt lat="45.76686" lon="2.9575">
        <ele>1154</ele>
        <time>2020-07-11T14:17:37.109Z</time>
      </trkpt>
      <trkpt lat="45.76689" lon="2.9575">
        <ele>1153</ele>
        <time>2020-07-11T14:17:38.109Z</time>
      </trkpt>
      <trkpt lat="45.76691" lon="2.95751">
        <ele>1154</ele>
        <time>2020-07-11T14:17:39.109Z</time>
      </trkpt>
      <trkpt lat="45.76693" lon="2.95752">
        <ele>1155</ele>
        <time>2020-07-11T14:17:40.109Z</time>
      </trkpt>
      <trkpt lat="45.76695" lon="2.95753">
        <ele>1155</ele>
        <time>2020-07-11T14:17:41.109Z</time>
      </trkpt>
      <trkpt lat="45.76697" lon="2.95754">
        <ele>1155</ele>
        <time>2020-07-11T14:17:42.109Z</time>
      </trkpt>
      <trkpt lat="45.76699" lon="2.95755">
        <ele>1156</ele>
        <time>2020-07-11T14:17:43.109Z</time>
      </trkpt>
      <trkpt lat="45.767" lon="2.95756">
        <ele>1157</ele>
        <time>2020-07-11T14:17:44.109Z</time>
      </trkpt>
      <trkpt lat="45.76702" lon="2.95758">
        <ele>1159</ele>
        <time>2020-07-11T14:17:45.109Z</time>
      </trkpt>
      <trkpt lat="45.76703" lon="2.9576">
        <ele>1159</ele>
        <time>2020-07-11T14:17:46.109Z</time>
      </trkpt>
      <trkpt lat="45.76705" lon="2.95761">
        <ele>1160</ele>
        <time>2020-07-11T14:17:47.109Z</time>
      </trkpt>
      <trkpt lat="45.76706" lon="2.95762">
        <ele>1161</ele>
        <time>2020-07-11T14:17:48.109Z</time>
      </trkpt>
      <trkpt lat="45.76708" lon="2.95763">
        <ele>1162</ele>
        <time>2020-07-11T14:17:49.109Z</time>
      </trkpt>
      <trkpt lat="45.76709" lon="2.95765">
        <ele>1162</ele>
        <time>2020-07-11T14:17:50.109Z</time>
      </trkpt>
      <trkpt lat="45.76711" lon="2.95768">
        <ele>1162</ele>
        <time>2020-07-11T14:17:51.109Z</time>
      </trkpt>
      <trkpt lat="45.76712" lon="2.9577">
        <ele>1162</ele>
        <time>2020-07-11T14:17:52.109Z</time>
      </trkpt>
      <trkpt lat="45.76713" lon="2.95773">
        <ele>1162</ele>
        <time>2020-07-11T14:17:53.109Z</time>
      </trkpt>
      <trkpt lat="45.76714" lon="2.95775">
        <ele>1162</ele>
        <time>2020-07-11T14:17:54.109Z</time>
      </trkpt>
      <trkpt lat="45.76715" lon="2.95778">
        <ele>1162</ele>
        <time>2020-07-11T14:17:55.109Z</time>
      </trkpt>
      <trkpt lat="45.76715" lon="2.95781">
        <ele>1162</ele>
        <time>2020-07-11T14:17:56.109Z</time>
      </trkpt>
      <trkpt lat="45.76716" lon="2.95784">
        <ele>1163</ele>
        <time>2020-07-11T14:17:57.109Z</time>
      </trkpt>
      <trkpt lat="45.76716" lon="2.95787">
        <ele>1163</ele>
        <time>2020-07-11T14:17:58.109Z</time>
      </trkpt>
      <trkpt lat="45.76716" lon="2.9579">
        <ele>1163</ele>
        <time>2020-07-11T14:17:59.109Z</time>
      </trkpt>
      <trkpt lat="45.76717" lon="2.95792">
        <ele>1164</ele>
        <time>2020-07-11T14:18:00.109Z</time>
      </trkpt>
      <trkpt lat="45.76718" lon="2.95794">
        <ele>1164</ele>
        <time>2020-07-11T14:18:01.109Z</time>
      </trkpt>
      <trkpt lat="45.76719" lon="2.95796">
        <ele>1164</ele>
        <time>2020-07-11T14:18:02.109Z</time>
      </trkpt>
      <trkpt lat="45.7672" lon="2.95798">
        <ele>1163</ele>
        <time>2020-07-11T14:18:03.109Z</time>
      </trkpt>
      <trkpt lat="45.76722" lon="2.958">
        <ele>1163</ele>
        <time>2020-07-11T14:18:04.109Z</time>
      </trkpt>
      <trkpt lat="45.76723" lon="2.95801">
        <ele>1160</ele>
        <time>2020-07-11T14:18:05.109Z</time>
      </trkpt>
      <trkpt lat="45.76725" lon="2.95802">
        <ele>1161</ele>
        <time>2020-07-11T14:18:06.109Z</time>
      </trkpt>
      <trkpt lat="45.76726" lon="2.95803">
        <ele>1161</ele>
        <time>2020-07-11T14:18:07.109Z</time>
      </trkpt>
      <trkpt lat="45.76728" lon="2.95804">
        <ele>1162</ele>
        <time>2020-07-11T14:18:08.109Z</time>
      </trkpt>
      <trkpt lat="45.7673" lon="2.95806">
        <ele>1162</ele>
        <time>2020-07-11T14:18:09.109Z</time>
      </trkpt>
      <trkpt lat="45.76732" lon="2.95807">
        <ele>1163</ele>
        <time>2020-07-11T14:18:10.109Z</time>
      </trkpt>
      <trkpt lat="45.76734" lon="2.95807">
        <ele>1163</ele>
        <time>2020-07-11T14:18:11.109Z</time>
      </trkpt>
      <trkpt lat="45.76736" lon="2.95808">
        <ele>1164</ele>
        <time>2020-07-11T14:18:12.109Z</time>
      </trkpt>
      <trkpt lat="45.76738" lon="2.95808">
        <ele>1163</ele>
        <time>2020-07-11T14:18:13.109Z</time>
      </trkpt>
      <trkpt lat="45.7674" lon="2.95809">
        <ele>1163</ele>
        <time>2020-07-11T14:18:14.109Z</time>
      </trkpt>
      <trkpt lat="45.76742" lon="2.95809">
        <ele>1164</ele>
        <time>2020-07-11T14:18:15.109Z</time>
      </trkpt>
      <trkpt lat="45.76744" lon="2.9581">
        <ele>1163</ele>
        <time>2020-07-11T14:18:16.109Z</time>
      </trkpt>
      <trkpt lat="45.76745" lon="2.9581">
        <ele>1164</ele>
        <time>2020-07-11T14:18:17.109Z</time>
      </trkpt>
      <trkpt lat="45.76747" lon="2.9581">
        <ele>1164</ele>
        <time>2020-07-11T14:18:18.109Z</time>
      </trkpt>
      <trkpt lat="45.76749" lon="2.95809">
        <ele>1164</ele>
        <time>2020-07-11T14:18:19.109Z</time>
      </trkpt>
      <trkpt lat="45.7675" lon="2.95809">
        <ele>1164</ele>
        <time>2020-07-11T14:18:20.109Z</time>
      </trkpt>
      <trkpt lat="45.76752" lon="2.95808">
        <ele>1165</ele>
        <time>2020-07-11T14:18:21.109Z</time>
      </trkpt>
      <trkpt lat="45.76753" lon="2.95807">
        <ele>1166</ele>
        <time>2020-07-11T14:18:22.109Z</time>
      </trkpt>
      <trkpt lat="45.76755" lon="2.95806">
        <ele>1167</ele>
        <time>2020-07-11T14:18:23.109Z</time>
      </trkpt>
      <trkpt lat="45.76756" lon="2.95804">
        <ele>1167</ele>
        <time>2020-07-11T14:18:24.109Z</time>
      </trkpt>
      <trkpt lat="45.76757" lon="2.95802">
        <ele>1167</ele>
        <time>2020-07-11T14:18:25.109Z</time>
      </trkpt>
      <trkpt lat="45.76758" lon="2.958">
        <ele>1168</ele>
        <time>2020-07-11T14:18:26.109Z</time>
      </trkpt>
      <trkpt lat="45.7676" lon="2.95798">
        <ele>1169</ele>
        <time>2020-07-11T14:18:27.109Z</time>
      </trkpt>
      <trkpt lat="45.76761" lon="2.95796">
        <ele>1169</ele>
        <time>2020-07-11T14:18:28.109Z</time>
      </trkpt>
      <trkpt lat="45.76763" lon="2.95795">
        <ele>1170</ele>
        <time>2020-07-11T14:18:29.109Z</time>
      </trkpt>
      <trkpt lat="45.76764" lon="2.95793">
        <ele>1170</ele>
        <time>2020-07-11T14:18:30.109Z</time>
      </trkpt>
      <trkpt lat="45.76766" lon="2.95792">
        <ele>1170</ele>
        <time>2020-07-11T14:18:31.109Z</time>
      </trkpt>
      <trkpt lat="45.76767" lon="2.95791">
        <ele>1170</ele>
        <time>2020-07-11T14:18:32.109Z</time>
      </trkpt>
      <trkpt lat="45.76769" lon="2.95789">
        <ele>1170</ele>
        <time>2020-07-11T14:18:33.109Z</time>
      </trkpt>
      <trkpt lat="45.76771" lon="2.95788">
        <ele>1171</ele>
        <time>2020-07-11T14:18:34.109Z</time>
      </trkpt>
      <trkpt lat="45.76773" lon="2.95787">
        <ele>1172</ele>
        <time>2020-07-11T14:18:35.109Z</time>
      </trkpt>
      <trkpt lat="45.76774" lon="2.95787">
        <ele>1172</ele>
        <time>2020-07-11T14:18:36.109Z</time>
      </trkpt>
      <trkpt lat="45.76775" lon="2.95788">
        <ele>1173</ele>
        <time>2020-07-11T14:18:37.109Z</time>
      </trkpt>
      <trkpt lat="45.76776" lon="2.95789">
        <ele>1174</ele>
        <time>2020-07-11T14:18:38.109Z</time>
      </trkpt>
      <trkpt lat="45.76777" lon="2.95791">
        <ele>1175</ele>
        <time>2020-07-11T14:18:39.109Z</time>
      </trkpt>
      <trkpt lat="45.76777" lon="2.95792">
        <ele>1176</ele>
        <time>2020-07-11T14:18:40.109Z</time>
      </trkpt>
      <trkpt lat="45.76777" lon="2.95794">
        <ele>1176</ele>
        <time>2020-07-11T14:18:41.109Z</time>
      </trkpt>
      <trkpt lat="45.76777" lon="2.95796">
        <ele>1177</ele>
        <time>2020-07-11T14:18:42.109Z</time>
      </trkpt>
      <trkpt lat="45.76777" lon="2.95798">
        <ele>1178</ele>
        <time>2020-07-11T14:18:43.109Z</time>
      </trkpt>
      <trkpt lat="45.76777" lon="2.958">
        <ele>1178</ele>
        <time>2020-07-11T14:18:44.109Z</time>
      </trkpt>
      <trkpt lat="45.76777" lon="2.95802">
        <ele>1179</ele>
        <time>2020-07-11T14:18:45.109Z</time>
      </trkpt>
      <trkpt lat="45.76776" lon="2.95804">
        <ele>1180</ele>
        <time>2020-07-11T14:18:46.109Z</time>
      </trkpt>
      <trkpt lat="45.76775" lon="2.95805">
        <ele>1181</ele>
        <time>2020-07-11T14:18:47.109Z</time>
      </trkpt>
      <trkpt lat="45.76775" lon="2.95807">
        <ele>1181</ele>
        <time>2020-07-11T14:18:48.109Z</time>
      </trkpt>
      <trkpt lat="45.76775" lon="2.95809">
        <ele>1182</ele>
        <time>2020-07-11T14:18:49.109Z</time>
      </trkpt>
      <trkpt lat="45.76774" lon="2.95811">
        <ele>1183</ele>
        <time>2020-07-11T14:18:50.109Z</time>
      </trkpt>
      <trkpt lat="45.76774" lon="2.95813">
        <ele>1183</ele>
        <time>2020-07-11T14:18:51.109Z</time>
      </trkpt>
      <trkpt lat="45.76774" lon="2.95815">
        <ele>1183</ele>
        <time>2020-07-11T14:18:52.109Z</time>
      </trkpt>
      <trkpt lat="45.76773" lon="2.95817">
        <ele>1184</ele>
        <time>2020-07-11T14:18:53.109Z</time>
      </trkpt>
      <trkpt lat="45.76773" lon="2.95819">
        <ele>1185</ele>
        <time>2020-07-11T14:18:54.109Z</time>
      </trkpt>
      <trkpt lat="45.76772" lon="2.95821">
        <ele>1185</ele>
        <time>2020-07-11T14:18:55.109Z</time>
      </trkpt>
      <trkpt lat="45.76772" lon="2.95823">
        <ele>1185</ele>
        <time>2020-07-11T14:18:56.109Z</time>
      </trkpt>
      <trkpt lat="45.76771" lon="2.95825">
        <ele>1185</ele>
        <time>2020-07-11T14:18:57.109Z</time>
      </trkpt>
      <trkpt lat="45.76771" lon="2.95827">
        <ele>1187</ele>
        <time>2020-07-11T14:18:58.109Z</time>
      </trkpt>
      <trkpt lat="45.7677" lon="2.95829">
        <ele>1187</ele>
        <time>2020-07-11T14:18:59.109Z</time>
      </trkpt>
      <trkpt lat="45.76769" lon="2.95832">
        <ele>1189</ele>
        <time>2020-07-11T14:19:00.109Z</time>
      </trkpt>
      <trkpt lat="45.76768" lon="2.95834">
        <ele>1190</ele>
        <time>2020-07-11T14:19:01.109Z</time>
      </trkpt>
      <trkpt lat="45.76767" lon="2.95836">
        <ele>1191</ele>
        <time>2020-07-11T14:19:02.109Z</time>
      </trkpt>
      <trkpt lat="45.76766" lon="2.95839">
        <ele>1192</ele>
        <time>2020-07-11T14:19:03.109Z</time>
      </trkpt>
      <trkpt lat="45.76765" lon="2.95841">
        <ele>1193</ele>
        <time>2020-07-11T14:19:04.109Z</time>
      </trkpt>
      <trkpt lat="45.76765" lon="2.95843">
        <ele>1194</ele>
        <time>2020-07-11T14:19:05.109Z</time>
      </trkpt>
      <trkpt lat="45.76764" lon="2.95846">
        <ele>1195</ele>
        <time>2020-07-11T14:19:06.109Z</time>
      </trkpt>
      <trkpt lat="45.76763" lon="2.95847">
        <ele>1195</ele>
        <time>2020-07-11T14:19:07.109Z</time>
      </trkpt>
      <trkpt lat="45.76762" lon="2.95849">
        <ele>1196</ele>
        <time>2020-07-11T14:19:08.109Z</time>
      </trkpt>
      <trkpt lat="45.76762" lon="2.95851">
        <ele>1195</ele>
        <time>2020-07-11T14:19:09.109Z</time>
      </trkpt>
      <trkpt lat="45.76761" lon="2.95854">
        <ele>1195</ele>
        <time>2020-07-11T14:19:10.109Z</time>
      </trkpt>
      <trkpt lat="45.76761" lon="2.95856">
        <ele>1196</ele>
        <time>2020-07-11T14:19:11.109Z</time>
      </trkpt>
      <trkpt lat="45.76761" lon="2.95859">
        <ele>1197</ele>
        <time>2020-07-11T14:19:12.109Z</time>
      </trkpt>
      <trkpt lat="45.7676" lon="2.95862">
        <ele>1197</ele>
        <time>2020-07-11T14:19:13.109Z</time>
      </trkpt>
      <trkpt lat="45.76759" lon="2.95864">
        <ele>1196</ele>
        <time>2020-07-11T14:19:14.109Z</time>
      </trkpt>
      <trkpt lat="45.76759" lon="2.95867">
        <ele>1197</ele>
        <time>2020-07-11T14:19:15.109Z</time>
      </trkpt>
      <trkpt lat="45.76758" lon="2.95869">
        <ele>1198</ele>
        <time>2020-07-11T14:19:16.109Z</time>
      </trkpt>
      <trkpt lat="45.76757" lon="2.95871">
        <ele>1198</ele>
        <time>2020-07-11T14:19:17.109Z</time>
      </trkpt>
      <trkpt lat="45.76756" lon="2.95874">
        <ele>1198</ele>
        <time>2020-07-11T14:19:18.109Z</time>
      </trkpt>
      <trkpt lat="45.76754" lon="2.95876">
        <ele>1198</ele>
        <time>2020-07-11T14:19:19.109Z</time>
      </trkpt>
      <trkpt lat="45.76753" lon="2.95879">
        <ele>1198</ele>
        <time>2020-07-11T14:19:20.109Z</time>
      </trkpt>
      <trkpt lat="45.76752" lon="2.95881">
        <ele>1198</ele>
        <time>2020-07-11T14:19:21.109Z</time>
      </trkpt>
      <trkpt lat="45.76751" lon="2.95884">
        <ele>1200</ele>
        <time>2020-07-11T14:19:22.109Z</time>
      </trkpt>
      <trkpt lat="45.7675" lon="2.95886">
        <ele>1199</ele>
        <time>2020-07-11T14:19:23.109Z</time>
      </trkpt>
      <trkpt lat="45.76749" lon="2.95889">
        <ele>1200</ele>
        <time>2020-07-11T14:19:24.109Z</time>
      </trkpt>
      <trkpt lat="45.76748" lon="2.95892">
        <ele>1200</ele>
        <time>2020-07-11T14:19:25.109Z</time>
      </trkpt>
      <trkpt lat="45.76746" lon="2.95896">
        <ele>1201</ele>
        <time>2020-07-11T14:19:26.109Z</time>
      </trkpt>
      <trkpt lat="45.76745" lon="2.95899">
        <ele>1201</ele>
        <time>2020-07-11T14:19:27.109Z</time>
      </trkpt>
      <trkpt lat="45.76745" lon="2.95903">
        <ele>1200</ele>
        <time>2020-07-11T14:19:28.109Z</time>
      </trkpt>
      <trkpt lat="45.76744" lon="2.95906">
        <ele>1199</ele>
        <time>2020-07-11T14:19:29.109Z</time>
      </trkpt>
      <trkpt lat="45.76744" lon="2.95911">
        <ele>1198</ele>
        <time>2020-07-11T14:19:30.109Z</time>
      </trkpt>
      <trkpt lat="45.76745" lon="2.95915">
        <ele>1198</ele>
        <time>2020-07-11T14:19:31.109Z</time>
      </trkpt>
      <trkpt lat="45.76745" lon="2.9592">
        <ele>1197</ele>
        <time>2020-07-11T14:19:32.109Z</time>
      </trkpt>
      <trkpt lat="45.76744" lon="2.95923">
        <ele>1198</ele>
        <time>2020-07-11T14:19:33.109Z</time>
      </trkpt>
      <trkpt lat="45.76743" lon="2.95926">
        <ele>1198</ele>
        <time>2020-07-11T14:19:34.109Z</time>
      </trkpt>
      <trkpt lat="45.76743" lon="2.95929">
        <ele>1198</ele>
        <time>2020-07-11T14:19:35.109Z</time>
      </trkpt>
      <trkpt lat="45.76742" lon="2.95932">
        <ele>1199</ele>
        <time>2020-07-11T14:19:36.109Z</time>
      </trkpt>
      <trkpt lat="45.76742" lon="2.95935">
        <ele>1199</ele>
        <time>2020-07-11T14:19:37.109Z</time>
      </trkpt>
      <trkpt lat="45.76742" lon="2.95938">
        <ele>1199</ele>
        <time>2020-07-11T14:19:38.109Z</time>
      </trkpt>
      <trkpt lat="45.76742" lon="2.95942">
        <ele>1199</ele>
        <time>2020-07-11T14:19:39.109Z</time>
      </trkpt>
      <trkpt lat="45.76742" lon="2.95945">
        <ele>1199</ele>
        <time>2020-07-11T14:19:40.109Z</time>
      </trkpt>
      <trkpt lat="45.76742" lon="2.95947">
        <ele>1199</ele>
        <time>2020-07-11T14:19:41.109Z</time>
      </trkpt>
      <trkpt lat="45.76741" lon="2.9595">
        <ele>1199</ele>
        <time>2020-07-11T14:19:42.109Z</time>
      </trkpt>
      <trkpt lat="45.76741" lon="2.95952">
        <ele>1199</ele>
        <time>2020-07-11T14:19:43.109Z</time>
      </trkpt>
      <trkpt lat="45.76741" lon="2.95955">
        <ele>1199</ele>
        <time>2020-07-11T14:19:44.109Z</time>
      </trkpt>
      <trkpt lat="45.76741" lon="2.95957">
        <ele>1199</ele>
        <time>2020-07-11T14:19:45.109Z</time>
      </trkpt>
      <trkpt lat="45.76741" lon="2.95959">
        <ele>1199</ele>
        <time>2020-07-11T14:19:46.109Z</time>
      </trkpt>
      <trkpt lat="45.76741" lon="2.9596">
        <ele>1199</ele>
        <time>2020-07-11T14:19:47.109Z</time>
      </trkpt>
      <trkpt lat="45.76741" lon="2.95962">
        <ele>1198</ele>
        <time>2020-07-11T14:19:48.109Z</time>
      </trkpt>
      <trkpt lat="45.7674" lon="2.95963">
        <ele>1198</ele>
        <time>2020-07-11T14:19:49.109Z</time>
      </trkpt>
      <trkpt lat="45.7674" lon="2.95965">
        <ele>1198</ele>
        <time>2020-07-11T14:19:50.109Z</time>
      </trkpt>
      <trkpt lat="45.7674" lon="2.95966">
        <ele>1197</ele>
        <time>2020-07-11T14:19:51.109Z</time>
      </trkpt>
      <trkpt lat="45.7674" lon="2.95968">
        <ele>1198</ele>
        <time>2020-07-11T14:19:52.109Z</time>
      </trkpt>
      <trkpt lat="45.76739" lon="2.9597">
        <ele>1198</ele>
        <time>2020-07-11T14:19:53.109Z</time>
      </trkpt>
      <trkpt lat="45.76739" lon="2.95972">
        <ele>1198</ele>
        <time>2020-07-11T14:19:54.109Z</time>
      </trkpt>
      <trkpt lat="45.76738" lon="2.95974">
        <ele>1198</ele>
        <time>2020-07-11T14:19:55.109Z</time>
      </trkpt>
      <trkpt lat="45.76738" lon="2.95976">
        <ele>1198</ele>
        <time>2020-07-11T14:19:56.109Z</time>
      </trkpt>
      <trkpt lat="45.76738" lon="2.95977">
        <ele>1198</ele>
        <time>2020-07-11T14:19:57.109Z</time>
      </trkpt>
      <trkpt lat="45.76737" lon="2.95979">
        <ele>1199</ele>
        <time>2020-07-11T14:19:58.109Z</time>
      </trkpt>
      <trkpt lat="45.76737" lon="2.95981">
        <ele>1199</ele>
        <time>2020-07-11T14:19:59.109Z</time>
      </trkpt>
      <trkpt lat="45.76736" lon="2.95983">
        <ele>1199</ele>
        <time>2020-07-11T14:20:00.109Z</time>
      </trkpt>
      <trkpt lat="45.76735" lon="2.95985">
        <ele>1200</ele>
        <time>2020-07-11T14:20:01.109Z</time>
      </trkpt>
      <trkpt lat="45.76734" lon="2.95987">
        <ele>1201</ele>
        <time>2020-07-11T14:20:02.109Z</time>
      </trkpt>
      <trkpt lat="45.76732" lon="2.95988">
        <ele>1202</ele>
        <time>2020-07-11T14:20:03.109Z</time>
      </trkpt>
      <trkpt lat="45.76731" lon="2.95991">
        <ele>1202</ele>
        <time>2020-07-11T14:20:04.109Z</time>
      </trkpt>
      <trkpt lat="45.7673" lon="2.95993">
        <ele>1202</ele>
        <time>2020-07-11T14:20:05.109Z</time>
      </trkpt>
      <trkpt lat="45.76729" lon="2.95995">
        <ele>1203</ele>
        <time>2020-07-11T14:20:06.109Z</time>
      </trkpt>
      <trkpt lat="45.76729" lon="2.95998">
        <ele>1202</ele>
        <time>2020-07-11T14:20:07.109Z</time>
      </trkpt>
      <trkpt lat="45.76729" lon="2.96002">
        <ele>1202</ele>
        <time>2020-07-11T14:20:08.109Z</time>
      </trkpt>
      <trkpt lat="45.76729" lon="2.96006">
        <ele>1201</ele>
        <time>2020-07-11T14:20:09.109Z</time>
      </trkpt>
      <trkpt lat="45.76729" lon="2.9601">
        <ele>1202</ele>
        <time>2020-07-11T14:20:10.109Z</time>
      </trkpt>
      <trkpt lat="45.76729" lon="2.96013">
        <ele>1202</ele>
        <time>2020-07-11T14:20:11.109Z</time>
      </trkpt>
      <trkpt lat="45.76729" lon="2.96016">
        <ele>1203</ele>
        <time>2020-07-11T14:20:12.109Z</time>
      </trkpt>
      <trkpt lat="45.76728" lon="2.96019">
        <ele>1202</ele>
        <time>2020-07-11T14:20:13.109Z</time>
      </trkpt>
      <trkpt lat="45.76728" lon="2.96021">
        <ele>1203</ele>
        <time>2020-07-11T14:20:14.109Z</time>
      </trkpt>
      <trkpt lat="45.76728" lon="2.96024">
        <ele>1204</ele>
        <time>2020-07-11T14:20:15.109Z</time>
      </trkpt>
      <trkpt lat="45.76727" lon="2.96026">
        <ele>1205</ele>
        <time>2020-07-11T14:20:16.109Z</time>
      </trkpt>
      <trkpt lat="45.76727" lon="2.96029">
        <ele>1206</ele>
        <time>2020-07-11T14:20:17.109Z</time>
      </trkpt>
      <trkpt lat="45.76727" lon="2.96031">
        <ele>1207</ele>
        <time>2020-07-11T14:20:18.109Z</time>
      </trkpt>
      <trkpt lat="45.76727" lon="2.96033">
        <ele>1208</ele>
        <time>2020-07-11T14:20:19.109Z</time>
      </trkpt>
      <trkpt lat="45.76728" lon="2.96035">
        <ele>1209</ele>
        <time>2020-07-11T14:20:20.109Z</time>
      </trkpt>
      <trkpt lat="45.76729" lon="2.96036">
        <ele>1209</ele>
        <time>2020-07-11T14:20:21.109Z</time>
      </trkpt>
      <trkpt lat="45.7673" lon="2.96036">
        <ele>1206</ele>
        <time>2020-07-11T14:20:22.109Z</time>
      </trkpt>
      <trkpt lat="45.76733" lon="2.96037">
        <ele>1207</ele>
        <time>2020-07-11T14:20:23.109Z</time>
      </trkpt>
      <trkpt lat="45.76734" lon="2.96038">
        <ele>1210</ele>
        <time>2020-07-11T14:20:24.109Z</time>
      </trkpt>
      <trkpt lat="45.76735" lon="2.96039">
        <ele>1211</ele>
        <time>2020-07-11T14:20:25.109Z</time>
      </trkpt>
      <trkpt lat="45.76735" lon="2.96039">
        <ele>1212</ele>
        <time>2020-07-11T14:20:26.109Z</time>
      </trkpt>
      <trkpt lat="45.76736" lon="2.96038">
        <ele>1212</ele>
        <time>2020-07-11T14:20:27.109Z</time>
      </trkpt>
      <trkpt lat="45.76737" lon="2.96037">
        <ele>1214</ele>
        <time>2020-07-11T14:20:28.109Z</time>
      </trkpt>
      <trkpt lat="45.76738" lon="2.96035">
        <ele>1215</ele>
        <time>2020-07-11T14:20:29.109Z</time>
      </trkpt>
      <trkpt lat="45.76739" lon="2.96033">
        <ele>1216</ele>
        <time>2020-07-11T14:20:30.109Z</time>
      </trkpt>
      <trkpt lat="45.7674" lon="2.96031">
        <ele>1216</ele>
        <time>2020-07-11T14:20:31.109Z</time>
      </trkpt>
      <trkpt lat="45.76741" lon="2.96029">
        <ele>1216</ele>
        <time>2020-07-11T14:20:32.109Z</time>
      </trkpt>
      <trkpt lat="45.76743" lon="2.96027">
        <ele>1216</ele>
        <time>2020-07-11T14:20:33.109Z</time>
      </trkpt>
      <trkpt lat="45.76744" lon="2.96025">
        <ele>1217</ele>
        <time>2020-07-11T14:20:34.109Z</time>
      </trkpt>
      <trkpt lat="45.76745" lon="2.96024">
        <ele>1216</ele>
        <time>2020-07-11T14:20:35.109Z</time>
      </trkpt>
      <trkpt lat="45.76746" lon="2.96022">
        <ele>1216</ele>
        <time>2020-07-11T14:20:36.109Z</time>
      </trkpt>
      <trkpt lat="45.76747" lon="2.9602">
        <ele>1216</ele>
        <time>2020-07-11T14:20:37.109Z</time>
      </trkpt>
      <trkpt lat="45.76748" lon="2.96018">
        <ele>1216</ele>
        <time>2020-07-11T14:20:38.109Z</time>
      </trkpt>
      <trkpt lat="45.76749" lon="2.96016">
        <ele>1217</ele>
        <time>2020-07-11T14:20:39.109Z</time>
      </trkpt>
      <trkpt lat="45.76751" lon="2.96014">
        <ele>1217</ele>
        <time>2020-07-11T14:20:40.109Z</time>
      </trkpt>
      <trkpt lat="45.76752" lon="2.96012">
        <ele>1217</ele>
        <time>2020-07-11T14:20:41.109Z</time>
      </trkpt>
      <trkpt lat="45.76753" lon="2.9601">
        <ele>1218</ele>
        <time>2020-07-11T14:20:42.109Z</time>
      </trkpt>
      <trkpt lat="45.76754" lon="2.96007">
        <ele>1218</ele>
        <time>2020-07-11T14:20:43.109Z</time>
      </trkpt>
      <trkpt lat="45.76755" lon="2.96005">
        <ele>1219</ele>
        <time>2020-07-11T14:20:44.109Z</time>
      </trkpt>
      <trkpt lat="45.76756" lon="2.96003">
        <ele>1219</ele>
        <time>2020-07-11T14:20:45.109Z</time>
      </trkpt>
      <trkpt lat="45.76757" lon="2.96001">
        <ele>1219</ele>
        <time>2020-07-11T14:20:46.109Z</time>
      </trkpt>
      <trkpt lat="45.76757" lon="2.95998">
        <ele>1220</ele>
        <time>2020-07-11T14:20:47.109Z</time>
      </trkpt>
      <trkpt lat="45.76758" lon="2.95996">
        <ele>1220</ele>
        <time>2020-07-11T14:20:48.109Z</time>
      </trkpt>
      <trkpt lat="45.76758" lon="2.95993">
        <ele>1220</ele>
        <time>2020-07-11T14:20:49.109Z</time>
      </trkpt>
      <trkpt lat="45.76759" lon="2.95991">
        <ele>1221</ele>
        <time>2020-07-11T14:20:50.109Z</time>
      </trkpt>
      <trkpt lat="45.7676" lon="2.95989">
        <ele>1221</ele>
        <time>2020-07-11T14:20:51.109Z</time>
      </trkpt>
      <trkpt lat="45.76761" lon="2.95987">
        <ele>1221</ele>
        <time>2020-07-11T14:20:52.109Z</time>
      </trkpt>
      <trkpt lat="45.76762" lon="2.95984">
        <ele>1221</ele>
        <time>2020-07-11T14:20:53.109Z</time>
      </trkpt>
      <trkpt lat="45.76763" lon="2.95982">
        <ele>1222</ele>
        <time>2020-07-11T14:20:54.109Z</time>
      </trkpt>
      <trkpt lat="45.76764" lon="2.9598">
        <ele>1223</ele>
        <time>2020-07-11T14:20:55.109Z</time>
      </trkpt>
      <trkpt lat="45.76765" lon="2.95978">
        <ele>1223</ele>
        <time>2020-07-11T14:20:56.109Z</time>
      </trkpt>
      <trkpt lat="45.76767" lon="2.95976">
        <ele>1224</ele>
        <time>2020-07-11T14:20:57.109Z</time>
      </trkpt>
      <trkpt lat="45.76768" lon="2.95975">
        <ele>1224</ele>
        <time>2020-07-11T14:20:58.109Z</time>
      </trkpt>
      <trkpt lat="45.7677" lon="2.95973">
        <ele>1224</ele>
        <time>2020-07-11T14:20:59.109Z</time>
      </trkpt>
      <trkpt lat="45.76771" lon="2.9597">
        <ele>1225</ele>
        <time>2020-07-11T14:21:00.109Z</time>
      </trkpt>
      <trkpt lat="45.76773" lon="2.95968">
        <ele>1224</ele>
        <time>2020-07-11T14:21:01.109Z</time>
      </trkpt>
      <trkpt lat="45.76775" lon="2.95965">
        <ele>1224</ele>
        <time>2020-07-11T14:21:02.109Z</time>
      </trkpt>
      <trkpt lat="45.76776" lon="2.95963">
        <ele>1224</ele>
        <time>2020-07-11T14:21:03.109Z</time>
      </trkpt>
      <trkpt lat="45.76778" lon="2.95961">
        <ele>1224</ele>
        <time>2020-07-11T14:21:04.109Z</time>
      </trkpt>
      <trkpt lat="45.76779" lon="2.95958">
        <ele>1225</ele>
        <time>2020-07-11T14:21:05.109Z</time>
      </trkpt>
      <trkpt lat="45.76781" lon="2.95955">
        <ele>1226</ele>
        <time>2020-07-11T14:21:06.109Z</time>
      </trkpt>
      <trkpt lat="45.76783" lon="2.95952">
        <ele>1226</ele>
        <time>2020-07-11T14:21:07.109Z</time>
      </trkpt>
      <trkpt lat="45.76784" lon="2.9595">
        <ele>1226</ele>
        <time>2020-07-11T14:21:08.109Z</time>
      </trkpt>
      <trkpt lat="45.76786" lon="2.95948">
        <ele>1226</ele>
        <time>2020-07-11T14:21:09.109Z</time>
      </trkpt>
      <trkpt lat="45.76788" lon="2.95947">
        <ele>1227</ele>
        <time>2020-07-11T14:21:10.109Z</time>
      </trkpt>
      <trkpt lat="45.76791" lon="2.95947">
        <ele>1227</ele>
        <time>2020-07-11T14:21:11.109Z</time>
      </trkpt>
      <trkpt lat="45.76792" lon="2.95947">
        <ele>1226</ele>
        <time>2020-07-11T14:21:12.109Z</time>
      </trkpt>
      <trkpt lat="45.76794" lon="2.95948">
        <ele>1226</ele>
        <time>2020-07-11T14:21:13.109Z</time>
      </trkpt>
      <trkpt lat="45.76795" lon="2.9595">
        <ele>1226</ele>
        <time>2020-07-11T14:21:14.109Z</time>
      </trkpt>
      <trkpt lat="45.76796" lon="2.9595">
        <ele>1226</ele>
        <time>2020-07-11T14:21:15.109Z</time>
      </trkpt>
      <trkpt lat="45.76797" lon="2.95952">
        <ele>1225</ele>
        <time>2020-07-11T14:21:16.109Z</time>
      </trkpt>
      <trkpt lat="45.76797" lon="2.95953">
        <ele>1223</ele>
        <time>2020-07-11T14:21:17.109Z</time>
      </trkpt>
      <trkpt lat="45.76798" lon="2.95955">
        <ele>1222</ele>
        <time>2020-07-11T14:21:18.109Z</time>
      </trkpt>
      <trkpt lat="45.76798" lon="2.95958">
        <ele>1220</ele>
        <time>2020-07-11T14:21:19.109Z</time>
      </trkpt>
      <trkpt lat="45.76798" lon="2.95961">
        <ele>1219</ele>
        <time>2020-07-11T14:21:20.109Z</time>
      </trkpt>
      <trkpt lat="45.76797" lon="2.95964">
        <ele>1219</ele>
        <time>2020-07-11T14:21:21.109Z</time>
      </trkpt>
      <trkpt lat="45.76797" lon="2.95966">
        <ele>1218</ele>
        <time>2020-07-11T14:21:22.109Z</time>
      </trkpt>
      <trkpt lat="45.76797" lon="2.95968">
        <ele>1217</ele>
        <time>2020-07-11T14:21:23.109Z</time>
      </trkpt>
      <trkpt lat="45.76796" lon="2.9597">
        <ele>1218</ele>
        <time>2020-07-11T14:21:24.109Z</time>
      </trkpt>
      <trkpt lat="45.76795" lon="2.95972">
        <ele>1217</ele>
        <time>2020-07-11T14:21:25.109Z</time>
      </trkpt>
      <trkpt lat="45.76795" lon="2.95974">
        <ele>1218</ele>
        <time>2020-07-11T14:21:26.109Z</time>
      </trkpt>
      <trkpt lat="45.76794" lon="2.95976">
        <ele>1218</ele>
        <time>2020-07-11T14:21:27.109Z</time>
      </trkpt>
      <trkpt lat="45.76793" lon="2.95977">
        <ele>1216</ele>
        <time>2020-07-11T14:21:28.109Z</time>
      </trkpt>
      <trkpt lat="45.76793" lon="2.95979">
        <ele>1214</ele>
        <time>2020-07-11T14:21:29.109Z</time>
      </trkpt>
      <trkpt lat="45.76793" lon="2.9598">
        <ele>1214</ele>
        <time>2020-07-11T14:21:30.109Z</time>
      </trkpt>
      <trkpt lat="45.76792" lon="2.95982">
        <ele>1213</ele>
        <time>2020-07-11T14:21:31.109Z</time>
      </trkpt>
      <trkpt lat="45.76791" lon="2.95983">
        <ele>1214</ele>
        <time>2020-07-11T14:21:32.109Z</time>
      </trkpt>
      <trkpt lat="45.7679" lon="2.95985">
        <ele>1213</ele>
        <time>2020-07-11T14:21:33.109Z</time>
      </trkpt>
      <trkpt lat="45.76788" lon="2.95987">
        <ele>1215</ele>
        <time>2020-07-11T14:21:34.109Z</time>
      </trkpt>
      <trkpt lat="45.76786" lon="2.9599">
        <ele>1215</ele>
        <time>2020-07-11T14:21:35.109Z</time>
      </trkpt>
      <trkpt lat="45.76784" lon="2.95993">
        <ele>1216</ele>
        <time>2020-07-11T14:21:36.109Z</time>
      </trkpt>
      <trkpt lat="45.76783" lon="2.95997">
        <ele>1216</ele>
        <time>2020-07-11T14:21:37.109Z</time>
      </trkpt>
      <trkpt lat="45.76782" lon="2.96">
        <ele>1217</ele>
        <time>2020-07-11T14:21:38.109Z</time>
      </trkpt>
      <trkpt lat="45.76781" lon="2.96003">
        <ele>1217</ele>
        <time>2020-07-11T14:21:39.109Z</time>
      </trkpt>
      <trkpt lat="45.7678" lon="2.96006">
        <ele>1218</ele>
        <time>2020-07-11T14:21:40.109Z</time>
      </trkpt>
      <trkpt lat="45.76779" lon="2.96009">
        <ele>1219</ele>
        <time>2020-07-11T14:21:41.109Z</time>
      </trkpt>
      <trkpt lat="45.76778" lon="2.96012">
        <ele>1220</ele>
        <time>2020-07-11T14:21:42.109Z</time>
      </trkpt>
      <trkpt lat="45.76777" lon="2.96017">
        <ele>1220</ele>
        <time>2020-07-11T14:21:43.109Z</time>
      </trkpt>
      <trkpt lat="45.76776" lon="2.96021">
        <ele>1221</ele>
        <time>2020-07-11T14:21:44.109Z</time>
      </trkpt>
      <trkpt lat="45.76776" lon="2.96025">
        <ele>1221</ele>
        <time>2020-07-11T14:21:45.109Z</time>
      </trkpt>
      <trkpt lat="45.76776" lon="2.96029">
        <ele>1221</ele>
        <time>2020-07-11T14:21:46.109Z</time>
      </trkpt>
      <trkpt lat="45.76775" lon="2.96032">
        <ele>1222</ele>
        <time>2020-07-11T14:21:47.109Z</time>
      </trkpt>
      <trkpt lat="45.76775" lon="2.96036">
        <ele>1223</ele>
        <time>2020-07-11T14:21:48.109Z</time>
      </trkpt>
      <trkpt lat="45.76774" lon="2.96039">
        <ele>1224</ele>
        <time>2020-07-11T14:21:49.109Z</time>
      </trkpt>
      <trkpt lat="45.76773" lon="2.96042">
        <ele>1224</ele>
        <time>2020-07-11T14:21:50.109Z</time>
      </trkpt>
      <trkpt lat="45.76773" lon="2.96044">
        <ele>1226</ele>
        <time>2020-07-11T14:21:51.109Z</time>
      </trkpt>
      <trkpt lat="45.76772" lon="2.96047">
        <ele>1228</ele>
        <time>2020-07-11T14:21:52.109Z</time>
      </trkpt>
      <trkpt lat="45.76772" lon="2.9605">
        <ele>1230</ele>
        <time>2020-07-11T14:21:53.109Z</time>
      </trkpt>
      <trkpt lat="45.76772" lon="2.96053">
        <ele>1233</ele>
        <time>2020-07-11T14:21:54.109Z</time>
      </trkpt>
      <trkpt lat="45.76772" lon="2.96056">
        <ele>1234</ele>
        <time>2020-07-11T14:21:55.109Z</time>
      </trkpt>
      <trkpt lat="45.76773" lon="2.96058">
        <ele>1235</ele>
        <time>2020-07-11T14:21:56.109Z</time>
      </trkpt>
      <trkpt lat="45.76775" lon="2.9606">
        <ele>1236</ele>
        <time>2020-07-11T14:21:57.109Z</time>
      </trkpt>
      <trkpt lat="45.76776" lon="2.96061">
        <ele>1237</ele>
        <time>2020-07-11T14:21:58.109Z</time>
      </trkpt>
      <trkpt lat="45.76777" lon="2.96061">
        <ele>1238</ele>
        <time>2020-07-11T14:21:59.109Z</time>
      </trkpt>
      <trkpt lat="45.76778" lon="2.9606">
        <ele>1238</ele>
        <time>2020-07-11T14:22:00.109Z</time>
      </trkpt>
      <trkpt lat="45.76779" lon="2.96059">
        <ele>1238</ele>
        <time>2020-07-11T14:22:01.109Z</time>
      </trkpt>
      <trkpt lat="45.7678" lon="2.96058">
        <ele>1239</ele>
        <time>2020-07-11T14:22:02.109Z</time>
      </trkpt>
      <trkpt lat="45.76781" lon="2.96056">
        <ele>1239</ele>
        <time>2020-07-11T14:22:03.109Z</time>
      </trkpt>
      <trkpt lat="45.76782" lon="2.96054">
        <ele>1240</ele>
        <time>2020-07-11T14:22:04.109Z</time>
      </trkpt>
      <trkpt lat="45.76783" lon="2.96052">
        <ele>1239</ele>
        <time>2020-07-11T14:22:05.109Z</time>
      </trkpt>
      <trkpt lat="45.76784" lon="2.9605">
        <ele>1240</ele>
        <time>2020-07-11T14:22:06.109Z</time>
      </trkpt>
      <trkpt lat="45.76785" lon="2.96047">
        <ele>1241</ele>
        <time>2020-07-11T14:22:07.109Z</time>
      </trkpt>
      <trkpt lat="45.76786" lon="2.96044">
        <ele>1241</ele>
        <time>2020-07-11T14:22:08.109Z</time>
      </trkpt>
      <trkpt lat="45.76787" lon="2.96042">
        <ele>1242</ele>
        <time>2020-07-11T14:22:09.109Z</time>
      </trkpt>
      <trkpt lat="45.76788" lon="2.9604">
        <ele>1242</ele>
        <time>2020-07-11T14:22:10.109Z</time>
      </trkpt>
      <trkpt lat="45.76788" lon="2.96037">
        <ele>1243</ele>
        <time>2020-07-11T14:22:11.109Z</time>
      </trkpt>
      <trkpt lat="45.76789" lon="2.96034">
        <ele>1243</ele>
        <time>2020-07-11T14:22:12.109Z</time>
      </trkpt>
      <trkpt lat="45.76789" lon="2.96032">
        <ele>1245</ele>
        <time>2020-07-11T14:22:13.109Z</time>
      </trkpt>
      <trkpt lat="45.76789" lon="2.96029">
        <ele>1246</ele>
        <time>2020-07-11T14:22:14.109Z</time>
      </trkpt>
      <trkpt lat="45.7679" lon="2.96026">
        <ele>1246</ele>
        <time>2020-07-11T14:22:15.109Z</time>
      </trkpt>
      <trkpt lat="45.76791" lon="2.96024">
        <ele>1246</ele>
        <time>2020-07-11T14:22:16.109Z</time>
      </trkpt>
      <trkpt lat="45.76792" lon="2.96021">
        <ele>1248</ele>
        <time>2020-07-11T14:22:17.109Z</time>
      </trkpt>
      <trkpt lat="45.76793" lon="2.96019">
        <ele>1248</ele>
        <time>2020-07-11T14:22:18.109Z</time>
      </trkpt>
      <trkpt lat="45.76795" lon="2.96017">
        <ele>1248</ele>
        <time>2020-07-11T14:22:19.109Z</time>
      </trkpt>
      <trkpt lat="45.76796" lon="2.96015">
        <ele>1249</ele>
        <time>2020-07-11T14:22:20.109Z</time>
      </trkpt>
      <trkpt lat="45.76797" lon="2.96013">
        <ele>1249</ele>
        <time>2020-07-11T14:22:21.109Z</time>
      </trkpt>
      <trkpt lat="45.76798" lon="2.96011">
        <ele>1250</ele>
        <time>2020-07-11T14:22:22.109Z</time>
      </trkpt>
      <trkpt lat="45.76799" lon="2.96009">
        <ele>1251</ele>
        <time>2020-07-11T14:22:23.109Z</time>
      </trkpt>
      <trkpt lat="45.768" lon="2.96007">
        <ele>1251</ele>
        <time>2020-07-11T14:22:24.109Z</time>
      </trkpt>
      <trkpt lat="45.76801" lon="2.96005">
        <ele>1252</ele>
        <time>2020-07-11T14:22:25.109Z</time>
      </trkpt>
      <trkpt lat="45.76802" lon="2.96003">
        <ele>1252</ele>
        <time>2020-07-11T14:22:26.109Z</time>
      </trkpt>
      <trkpt lat="45.76804" lon="2.96001">
        <ele>1252</ele>
        <time>2020-07-11T14:22:27.109Z</time>
      </trkpt>
      <trkpt lat="45.76805" lon="2.95999">
        <ele>1253</ele>
        <time>2020-07-11T14:22:28.109Z</time>
      </trkpt>
      <trkpt lat="45.76807" lon="2.95998">
        <ele>1254</ele>
        <time>2020-07-11T14:22:29.109Z</time>
      </trkpt>
      <trkpt lat="45.76808" lon="2.95996">
        <ele>1254</ele>
        <time>2020-07-11T14:22:30.109Z</time>
      </trkpt>
      <trkpt lat="45.76809" lon="2.95995">
        <ele>1254</ele>
        <time>2020-07-11T14:22:31.109Z</time>
      </trkpt>
      <trkpt lat="45.76811" lon="2.95993">
        <ele>1256</ele>
        <time>2020-07-11T14:22:32.109Z</time>
      </trkpt>
      <trkpt lat="45.76812" lon="2.95991">
        <ele>1256</ele>
        <time>2020-07-11T14:22:33.109Z</time>
      </trkpt>
      <trkpt lat="45.76813" lon="2.9599">
        <ele>1256</ele>
        <time>2020-07-11T14:22:34.109Z</time>
      </trkpt>
      <trkpt lat="45.76815" lon="2.95988">
        <ele>1257</ele>
        <time>2020-07-11T14:22:35.109Z</time>
      </trkpt>
      <trkpt lat="45.76816" lon="2.95986">
        <ele>1257</ele>
        <time>2020-07-11T14:22:36.109Z</time>
      </trkpt>
      <trkpt lat="45.76817" lon="2.95985">
        <ele>1258</ele>
        <time>2020-07-11T14:22:37.109Z</time>
      </trkpt>
      <trkpt lat="45.76819" lon="2.95984">
        <ele>1259</ele>
        <time>2020-07-11T14:22:38.109Z</time>
      </trkpt>
      <trkpt lat="45.7682" lon="2.95983">
        <ele>1260</ele>
        <time>2020-07-11T14:22:39.109Z</time>
      </trkpt>
      <trkpt lat="45.76821" lon="2.95981">
        <ele>1260</ele>
        <time>2020-07-11T14:22:40.109Z</time>
      </trkpt>
      <trkpt lat="45.76823" lon="2.9598">
        <ele>1261</ele>
        <time>2020-07-11T14:22:41.109Z</time>
      </trkpt>
      <trkpt lat="45.76824" lon="2.95978">
        <ele>1263</ele>
        <time>2020-07-11T14:22:42.109Z</time>
      </trkpt>
      <trkpt lat="45.76826" lon="2.95976">
        <ele>1264</ele>
        <time>2020-07-11T14:22:43.109Z</time>
      </trkpt>
      <trkpt lat="45.76827" lon="2.95974">
        <ele>1265</ele>
        <time>2020-07-11T14:22:44.109Z</time>
      </trkpt>
      <trkpt lat="45.76829" lon="2.95972">
        <ele>1267</ele>
        <time>2020-07-11T14:22:45.109Z</time>
      </trkpt>
      <trkpt lat="45.76831" lon="2.9597">
        <ele>1268</ele>
        <time>2020-07-11T14:22:46.109Z</time>
      </trkpt>
      <trkpt lat="45.76833" lon="2.95968">
        <ele>1269</ele>
        <time>2020-07-11T14:22:47.109Z</time>
      </trkpt>
      <trkpt lat="45.76835" lon="2.95967">
        <ele>1268</ele>
        <time>2020-07-11T14:22:48.109Z</time>
      </trkpt>
      <trkpt lat="45.76837" lon="2.95965">
        <ele>1268</ele>
        <time>2020-07-11T14:22:49.109Z</time>
      </trkpt>
      <trkpt lat="45.76838" lon="2.95963">
        <ele>1269</ele>
        <time>2020-07-11T14:22:50.109Z</time>
      </trkpt>
      <trkpt lat="45.76839" lon="2.95961">
        <ele>1270</ele>
        <time>2020-07-11T14:22:51.109Z</time>
      </trkpt>
      <trkpt lat="45.7684" lon="2.9596">
        <ele>1272</ele>
        <time>2020-07-11T14:22:52.109Z</time>
      </trkpt>
      <trkpt lat="45.76841" lon="2.95958">
        <ele>1273</ele>
        <time>2020-07-11T14:22:53.109Z</time>
      </trkpt>
      <trkpt lat="45.76842" lon="2.95957">
        <ele>1273</ele>
        <time>2020-07-11T14:22:54.109Z</time>
      </trkpt>
      <trkpt lat="45.76843" lon="2.95956">
        <ele>1274</ele>
        <time>2020-07-11T14:22:55.109Z</time>
      </trkpt>
      <trkpt lat="45.76845" lon="2.95955">
        <ele>1274</ele>
        <time>2020-07-11T14:22:56.109Z</time>
      </trkpt>
      <trkpt lat="45.76846" lon="2.95954">
        <ele>1274</ele>
        <time>2020-07-11T14:22:57.109Z</time>
      </trkpt>
      <trkpt lat="45.76848" lon="2.95953">
        <ele>1271</ele>
        <time>2020-07-11T14:22:58.109Z</time>
      </trkpt>
      <trkpt lat="45.76851" lon="2.95951">
        <ele>1272</ele>
        <time>2020-07-11T14:22:59.109Z</time>
      </trkpt>
      <trkpt lat="45.76853" lon="2.9595">
        <ele>1272</ele>
        <time>2020-07-11T14:23:00.109Z</time>
      </trkpt>
      <trkpt lat="45.76855" lon="2.95948">
        <ele>1272</ele>
        <time>2020-07-11T14:23:01.109Z</time>
      </trkpt>
      <trkpt lat="45.76856" lon="2.95946">
        <ele>1272</ele>
        <time>2020-07-11T14:23:02.109Z</time>
      </trkpt>
      <trkpt lat="45.76858" lon="2.95944">
        <ele>1272</ele>
        <time>2020-07-11T14:23:03.109Z</time>
      </trkpt>
      <trkpt lat="45.7686" lon="2.95943">
        <ele>1272</ele>
        <time>2020-07-11T14:23:04.109Z</time>
      </trkpt>
      <trkpt lat="45.76861" lon="2.95941">
        <ele>1272</ele>
        <time>2020-07-11T14:23:05.109Z</time>
      </trkpt>
      <trkpt lat="45.76863" lon="2.95939">
        <ele>1272</ele>
        <time>2020-07-11T14:23:06.109Z</time>
      </trkpt>
      <trkpt lat="45.76865" lon="2.95939">
        <ele>1274</ele>
        <time>2020-07-11T14:23:07.109Z</time>
      </trkpt>
      <trkpt lat="45.76867" lon="2.95938">
        <ele>1274</ele>
        <time>2020-07-11T14:23:08.109Z</time>
      </trkpt>
      <trkpt lat="45.76869" lon="2.95938">
        <ele>1274</ele>
        <time>2020-07-11T14:23:09.109Z</time>
      </trkpt>
      <trkpt lat="45.76871" lon="2.95937">
        <ele>1275</ele>
        <time>2020-07-11T14:23:10.109Z</time>
      </trkpt>
      <trkpt lat="45.76873" lon="2.95937">
        <ele>1275</ele>
        <time>2020-07-11T14:23:11.109Z</time>
      </trkpt>
      <trkpt lat="45.76874" lon="2.95936">
        <ele>1276</ele>
        <time>2020-07-11T14:23:12.109Z</time>
      </trkpt>
      <trkpt lat="45.76876" lon="2.95936">
        <ele>1276</ele>
        <time>2020-07-11T14:23:13.109Z</time>
      </trkpt>
      <trkpt lat="45.76878" lon="2.95935">
        <ele>1276</ele>
        <time>2020-07-11T14:23:14.109Z</time>
      </trkpt>
      <trkpt lat="45.7688" lon="2.95935">
        <ele>1277</ele>
        <time>2020-07-11T14:23:15.109Z</time>
      </trkpt>
      <trkpt lat="45.76882" lon="2.95935">
        <ele>1277</ele>
        <time>2020-07-11T14:23:16.109Z</time>
      </trkpt>
      <trkpt lat="45.76883" lon="2.95934">
        <ele>1278</ele>
        <time>2020-07-11T14:23:17.109Z</time>
      </trkpt>
      <trkpt lat="45.76885" lon="2.95934">
        <ele>1278</ele>
        <time>2020-07-11T14:23:18.109Z</time>
      </trkpt>
      <trkpt lat="45.76887" lon="2.95933">
        <ele>1279</ele>
        <time>2020-07-11T14:23:19.109Z</time>
      </trkpt>
      <trkpt lat="45.76888" lon="2.95932">
        <ele>1279</ele>
        <time>2020-07-11T14:23:20.109Z</time>
      </trkpt>
      <trkpt lat="45.7689" lon="2.95931">
        <ele>1280</ele>
        <time>2020-07-11T14:23:21.109Z</time>
      </trkpt>
      <trkpt lat="45.76892" lon="2.95931">
        <ele>1280</ele>
        <time>2020-07-11T14:23:22.109Z</time>
      </trkpt>
      <trkpt lat="45.76893" lon="2.95932">
        <ele>1279</ele>
        <time>2020-07-11T14:23:23.109Z</time>
      </trkpt>
      <trkpt lat="45.76894" lon="2.95933">
        <ele>1279</ele>
        <time>2020-07-11T14:23:24.109Z</time>
      </trkpt>
      <trkpt lat="45.76896" lon="2.95934">
        <ele>1279</ele>
        <time>2020-07-11T14:23:25.109Z</time>
      </trkpt>
      <trkpt lat="45.76896" lon="2.95936">
        <ele>1278</ele>
        <time>2020-07-11T14:23:26.109Z</time>
      </trkpt>
      <trkpt lat="45.76897" lon="2.95938">
        <ele>1277</ele>
        <time>2020-07-11T14:23:27.109Z</time>
      </trkpt>
      <trkpt lat="45.76896" lon="2.95941">
        <ele>1275</ele>
        <time>2020-07-11T14:23:28.109Z</time>
      </trkpt>
      <trkpt lat="45.76896" lon="2.95944">
        <ele>1275</ele>
        <time>2020-07-11T14:23:29.109Z</time>
      </trkpt>
      <trkpt lat="45.76896" lon="2.95946">
        <ele>1275</ele>
        <time>2020-07-11T14:23:30.109Z</time>
      </trkpt>
      <trkpt lat="45.76895" lon="2.95948">
        <ele>1274</ele>
        <time>2020-07-11T14:23:31.109Z</time>
      </trkpt>
      <trkpt lat="45.76895" lon="2.9595">
        <ele>1275</ele>
        <time>2020-07-11T14:23:32.109Z</time>
      </trkpt>
      <trkpt lat="45.76894" lon="2.95952">
        <ele>1274</ele>
        <time>2020-07-11T14:23:33.109Z</time>
      </trkpt>
      <trkpt lat="45.76893" lon="2.95954">
        <ele>1275</ele>
        <time>2020-07-11T14:23:34.109Z</time>
      </trkpt>
      <trkpt lat="45.76893" lon="2.95957">
        <ele>1275</ele>
        <time>2020-07-11T14:23:35.109Z</time>
      </trkpt>
      <trkpt lat="45.76892" lon="2.95959">
        <ele>1275</ele>
        <time>2020-07-11T14:23:36.109Z</time>
      </trkpt>
      <trkpt lat="45.76891" lon="2.95961">
        <ele>1275</ele>
        <time>2020-07-11T14:23:37.109Z</time>
      </trkpt>
      <trkpt lat="45.7689" lon="2.95964">
        <ele>1275</ele>
        <time>2020-07-11T14:23:38.109Z</time>
      </trkpt>
      <trkpt lat="45.76889" lon="2.95966">
        <ele>1275</ele>
        <time>2020-07-11T14:23:39.109Z</time>
      </trkpt>
      <trkpt lat="45.76888" lon="2.95969">
        <ele>1276</ele>
        <time>2020-07-11T14:23:40.109Z</time>
      </trkpt>
      <trkpt lat="45.76887" lon="2.9597">
        <ele>1276</ele>
        <time>2020-07-11T14:23:41.109Z</time>
      </trkpt>
      <trkpt lat="45.76886" lon="2.95972">
        <ele>1276</ele>
        <time>2020-07-11T14:23:42.109Z</time>
      </trkpt>
      <trkpt lat="45.76886" lon="2.95974">
        <ele>1278</ele>
        <time>2020-07-11T14:23:43.109Z</time>
      </trkpt>
      <trkpt lat="45.76885" lon="2.95976">
        <ele>1279</ele>
        <time>2020-07-11T14:23:44.109Z</time>
      </trkpt>
      <trkpt lat="45.76883" lon="2.95978">
        <ele>1280</ele>
        <time>2020-07-11T14:23:45.109Z</time>
      </trkpt>
      <trkpt lat="45.76882" lon="2.95979">
        <ele>1281</ele>
        <time>2020-07-11T14:23:46.109Z</time>
      </trkpt>
      <trkpt lat="45.7688" lon="2.95981">
        <ele>1281</ele>
        <time>2020-07-11T14:23:47.109Z</time>
      </trkpt>
      <trkpt lat="45.76879" lon="2.95982">
        <ele>1281</ele>
        <time>2020-07-11T14:23:48.109Z</time>
      </trkpt>
      <trkpt lat="45.76878" lon="2.95983">
        <ele>1281</ele>
        <time>2020-07-11T14:23:49.109Z</time>
      </trkpt>
      <trkpt lat="45.76877" lon="2.95984">
        <ele>1282</ele>
        <time>2020-07-11T14:23:50.109Z</time>
      </trkpt>
      <trkpt lat="45.76876" lon="2.95986">
        <ele>1282</ele>
        <time>2020-07-11T14:23:51.109Z</time>
      </trkpt>
      <trkpt lat="45.76876" lon="2.95988">
        <ele>1284</ele>
        <time>2020-07-11T14:23:52.109Z</time>
      </trkpt>
      <trkpt lat="45.76876" lon="2.95989">
        <ele>1285</ele>
        <time>2020-07-11T14:23:53.109Z</time>
      </trkpt>
      <trkpt lat="45.76876" lon="2.9599">
        <ele>1287</ele>
        <time>2020-07-11T14:23:54.109Z</time>
      </trkpt>
      <trkpt lat="45.76878" lon="2.95991">
        <ele>1288</ele>
        <time>2020-07-11T14:23:55.109Z</time>
      </trkpt>
      <trkpt lat="45.76879" lon="2.95992">
        <ele>1286</ele>
        <time>2020-07-11T14:23:56.109Z</time>
      </trkpt>
      <trkpt lat="45.76881" lon="2.95991">
        <ele>1287</ele>
        <time>2020-07-11T14:23:57.109Z</time>
      </trkpt>
      <trkpt lat="45.76882" lon="2.95991">
        <ele>1286</ele>
        <time>2020-07-11T14:23:58.109Z</time>
      </trkpt>
      <trkpt lat="45.76884" lon="2.95989">
        <ele>1287</ele>
        <time>2020-07-11T14:23:59.109Z</time>
      </trkpt>
      <trkpt lat="45.76885" lon="2.95988">
        <ele>1288</ele>
        <time>2020-07-11T14:24:00.109Z</time>
      </trkpt>
      <trkpt lat="45.76887" lon="2.95987">
        <ele>1288</ele>
        <time>2020-07-11T14:24:01.109Z</time>
      </trkpt>
      <trkpt lat="45.76888" lon="2.95987">
        <ele>1288</ele>
        <time>2020-07-11T14:24:02.109Z</time>
      </trkpt>
      <trkpt lat="45.76889" lon="2.95986">
        <ele>1288</ele>
        <time>2020-07-11T14:24:03.109Z</time>
      </trkpt>
      <trkpt lat="45.76891" lon="2.95985">
        <ele>1289</ele>
        <time>2020-07-11T14:24:04.109Z</time>
      </trkpt>
      <trkpt lat="45.76892" lon="2.95984">
        <ele>1290</ele>
        <time>2020-07-11T14:24:05.109Z</time>
      </trkpt>
      <trkpt lat="45.76894" lon="2.95984">
        <ele>1290</ele>
        <time>2020-07-11T14:24:06.109Z</time>
      </trkpt>
      <trkpt lat="45.76896" lon="2.95983">
        <ele>1290</ele>
        <time>2020-07-11T14:24:07.109Z</time>
      </trkpt>
      <trkpt lat="45.76898" lon="2.95983">
        <ele>1290</ele>
        <time>2020-07-11T14:24:08.109Z</time>
      </trkpt>
      <trkpt lat="45.769" lon="2.95982">
        <ele>1290</ele>
        <time>2020-07-11T14:24:09.109Z</time>
      </trkpt>
      <trkpt lat="45.76901" lon="2.9598">
        <ele>1291</ele>
        <time>2020-07-11T14:24:10.109Z</time>
      </trkpt>
      <trkpt lat="45.76903" lon="2.95979">
        <ele>1291</ele>
        <time>2020-07-11T14:24:11.109Z</time>
      </trkpt>
      <trkpt lat="45.76904" lon="2.95977">
        <ele>1291</ele>
        <time>2020-07-11T14:24:12.109Z</time>
      </trkpt>
      <trkpt lat="45.76906" lon="2.95975">
        <ele>1291</ele>
        <time>2020-07-11T14:24:13.109Z</time>
      </trkpt>
      <trkpt lat="45.76907" lon="2.95973">
        <ele>1292</ele>
        <time>2020-07-11T14:24:14.109Z</time>
      </trkpt>
      <trkpt lat="45.76908" lon="2.95971">
        <ele>1294</ele>
        <time>2020-07-11T14:24:15.109Z</time>
      </trkpt>
      <trkpt lat="45.7691" lon="2.95968">
        <ele>1295</ele>
        <time>2020-07-11T14:24:16.109Z</time>
      </trkpt>
      <trkpt lat="45.76911" lon="2.95966">
        <ele>1295</ele>
        <time>2020-07-11T14:24:17.109Z</time>
      </trkpt>
      <trkpt lat="45.76912" lon="2.95965">
        <ele>1295</ele>
        <time>2020-07-11T14:24:18.109Z</time>
      </trkpt>
      <trkpt lat="45.76914" lon="2.95964">
        <ele>1296</ele>
        <time>2020-07-11T14:24:19.109Z</time>
      </trkpt>
      <trkpt lat="45.76916" lon="2.95962">
        <ele>1296</ele>
        <time>2020-07-11T14:24:20.109Z</time>
      </trkpt>
      <trkpt lat="45.76917" lon="2.9596">
        <ele>1296</ele>
        <time>2020-07-11T14:24:21.109Z</time>
      </trkpt>
      <trkpt lat="45.76918" lon="2.95959">
        <ele>1297</ele>
        <time>2020-07-11T14:24:22.109Z</time>
      </trkpt>
      <trkpt lat="45.7692" lon="2.95958">
        <ele>1297</ele>
        <time>2020-07-11T14:24:23.109Z</time>
      </trkpt>
      <trkpt lat="45.76922" lon="2.95957">
        <ele>1297</ele>
        <time>2020-07-11T14:24:24.109Z</time>
      </trkpt>
      <trkpt lat="45.76923" lon="2.95956">
        <ele>1298</ele>
        <time>2020-07-11T14:24:25.109Z</time>
      </trkpt>
      <trkpt lat="45.76925" lon="2.95955">
        <ele>1298</ele>
        <time>2020-07-11T14:24:26.109Z</time>
      </trkpt>
      <trkpt lat="45.76926" lon="2.95954">
        <ele>1298</ele>
        <time>2020-07-11T14:24:27.109Z</time>
      </trkpt>
      <trkpt lat="45.76927" lon="2.95952">
        <ele>1299</ele>
        <time>2020-07-11T14:24:28.109Z</time>
      </trkpt>
      <trkpt lat="45.76928" lon="2.95951">
        <ele>1299</ele>
        <time>2020-07-11T14:24:29.109Z</time>
      </trkpt>
      <trkpt lat="45.7693" lon="2.9595">
        <ele>1300</ele>
        <time>2020-07-11T14:24:30.109Z</time>
      </trkpt>
      <trkpt lat="45.76932" lon="2.95949">
        <ele>1300</ele>
        <time>2020-07-11T14:24:31.109Z</time>
      </trkpt>
      <trkpt lat="45.76933" lon="2.95948">
        <ele>1301</ele>
        <time>2020-07-11T14:24:32.109Z</time>
      </trkpt>
      <trkpt lat="45.76935" lon="2.95946">
        <ele>1301</ele>
        <time>2020-07-11T14:24:33.109Z</time>
      </trkpt>
      <trkpt lat="45.76936" lon="2.95945">
        <ele>1302</ele>
        <time>2020-07-11T14:24:34.109Z</time>
      </trkpt>
      <trkpt lat="45.76938" lon="2.95944">
        <ele>1302</ele>
        <time>2020-07-11T14:24:35.109Z</time>
      </trkpt>
      <trkpt lat="45.76939" lon="2.95943">
        <ele>1303</ele>
        <time>2020-07-11T14:24:36.109Z</time>
      </trkpt>
      <trkpt lat="45.76941" lon="2.95941">
        <ele>1303</ele>
        <time>2020-07-11T14:24:37.109Z</time>
      </trkpt>
      <trkpt lat="45.76942" lon="2.9594">
        <ele>1304</ele>
        <time>2020-07-11T14:24:38.109Z</time>
      </trkpt>
      <trkpt lat="45.76944" lon="2.95939">
        <ele>1305</ele>
        <time>2020-07-11T14:24:39.109Z</time>
      </trkpt>
      <trkpt lat="45.76945" lon="2.95938">
        <ele>1305</ele>
        <time>2020-07-11T14:24:40.109Z</time>
      </trkpt>
      <trkpt lat="45.76947" lon="2.95937">
        <ele>1305</ele>
        <time>2020-07-11T14:24:41.109Z</time>
      </trkpt>
      <trkpt lat="45.76949" lon="2.95937">
        <ele>1305</ele>
        <time>2020-07-11T14:24:42.109Z</time>
      </trkpt>
      <trkpt lat="45.7695" lon="2.95936">
        <ele>1305</ele>
        <time>2020-07-11T14:24:43.109Z</time>
      </trkpt>
      <trkpt lat="45.76952" lon="2.95936">
        <ele>1305</ele>
        <time>2020-07-11T14:24:44.109Z</time>
      </trkpt>
      <trkpt lat="45.76954" lon="2.95937">
        <ele>1306</ele>
        <time>2020-07-11T14:24:45.109Z</time>
      </trkpt>
      <trkpt lat="45.76955" lon="2.95938">
        <ele>1305</ele>
        <time>2020-07-11T14:24:46.109Z</time>
      </trkpt>
      <trkpt lat="45.76957" lon="2.95939">
        <ele>1305</ele>
        <time>2020-07-11T14:24:47.109Z</time>
      </trkpt>
      <trkpt lat="45.76958" lon="2.95941">
        <ele>1305</ele>
        <time>2020-07-11T14:24:48.109Z</time>
      </trkpt>
      <trkpt lat="45.76958" lon="2.95944">
        <ele>1305</ele>
        <time>2020-07-11T14:24:49.109Z</time>
      </trkpt>
      <trkpt lat="45.76959" lon="2.95947">
        <ele>1305</ele>
        <time>2020-07-11T14:24:50.109Z</time>
      </trkpt>
      <trkpt lat="45.76959" lon="2.9595">
        <ele>1305</ele>
        <time>2020-07-11T14:24:51.109Z</time>
      </trkpt>
      <trkpt lat="45.76958" lon="2.95952">
        <ele>1305</ele>
        <time>2020-07-11T14:24:52.109Z</time>
      </trkpt>
      <trkpt lat="45.76958" lon="2.95954">
        <ele>1305</ele>
        <time>2020-07-11T14:24:53.109Z</time>
      </trkpt>
      <trkpt lat="45.76957" lon="2.95957">
        <ele>1305</ele>
        <time>2020-07-11T14:24:54.109Z</time>
      </trkpt>
      <trkpt lat="45.76957" lon="2.95959">
        <ele>1305</ele>
        <time>2020-07-11T14:24:55.109Z</time>
      </trkpt>
      <trkpt lat="45.76956" lon="2.95961">
        <ele>1305</ele>
        <time>2020-07-11T14:24:56.109Z</time>
      </trkpt>
      <trkpt lat="45.76955" lon="2.95963">
        <ele>1304</ele>
        <time>2020-07-11T14:24:57.109Z</time>
      </trkpt>
      <trkpt lat="45.76954" lon="2.95965">
        <ele>1304</ele>
        <time>2020-07-11T14:24:58.109Z</time>
      </trkpt>
      <trkpt lat="45.76953" lon="2.95967">
        <ele>1305</ele>
        <time>2020-07-11T14:24:59.109Z</time>
      </trkpt>
      <trkpt lat="45.76951" lon="2.95968">
        <ele>1306</ele>
        <time>2020-07-11T14:25:00.109Z</time>
      </trkpt>
      <trkpt lat="45.76949" lon="2.9597">
        <ele>1305</ele>
        <time>2020-07-11T14:25:01.109Z</time>
      </trkpt>
      <trkpt lat="45.76948" lon="2.95971">
        <ele>1306</ele>
        <time>2020-07-11T14:25:02.109Z</time>
      </trkpt>
      <trkpt lat="45.76946" lon="2.95973">
        <ele>1307</ele>
        <time>2020-07-11T14:25:03.109Z</time>
      </trkpt>
      <trkpt lat="45.76944" lon="2.95974">
        <ele>1307</ele>
        <time>2020-07-11T14:25:04.109Z</time>
      </trkpt>
      <trkpt lat="45.76943" lon="2.95976">
        <ele>1307</ele>
        <time>2020-07-11T14:25:05.109Z</time>
      </trkpt>
      <trkpt lat="45.76941" lon="2.95978">
        <ele>1308</ele>
        <time>2020-07-11T14:25:06.109Z</time>
      </trkpt>
      <trkpt lat="45.7694" lon="2.9598">
        <ele>1309</ele>
        <time>2020-07-11T14:25:07.109Z</time>
      </trkpt>
      <trkpt lat="45.76939" lon="2.95983">
        <ele>1310</ele>
        <time>2020-07-11T14:25:08.109Z</time>
      </trkpt>
      <trkpt lat="45.76938" lon="2.95985">
        <ele>1310</ele>
        <time>2020-07-11T14:25:09.109Z</time>
      </trkpt>
      <trkpt lat="45.76937" lon="2.95987">
        <ele>1311</ele>
        <time>2020-07-11T14:25:10.109Z</time>
      </trkpt>
      <trkpt lat="45.76936" lon="2.95989">
        <ele>1311</ele>
        <time>2020-07-11T14:25:11.109Z</time>
      </trkpt>
      <trkpt lat="45.76935" lon="2.95991">
        <ele>1311</ele>
        <time>2020-07-11T14:25:12.109Z</time>
      </trkpt>
      <trkpt lat="45.76934" lon="2.95993">
        <ele>1312</ele>
        <time>2020-07-11T14:25:13.109Z</time>
      </trkpt>
      <trkpt lat="45.76933" lon="2.95995">
        <ele>1313</ele>
        <time>2020-07-11T14:25:14.109Z</time>
      </trkpt>
      <trkpt lat="45.76931" lon="2.95997">
        <ele>1314</ele>
        <time>2020-07-11T14:25:15.109Z</time>
      </trkpt>
      <trkpt lat="45.7693" lon="2.95999">
        <ele>1314</ele>
        <time>2020-07-11T14:25:16.109Z</time>
      </trkpt>
      <trkpt lat="45.76929" lon="2.96002">
        <ele>1315</ele>
        <time>2020-07-11T14:25:17.109Z</time>
      </trkpt>
      <trkpt lat="45.76928" lon="2.96004">
        <ele>1315</ele>
        <time>2020-07-11T14:25:18.109Z</time>
      </trkpt>
      <trkpt lat="45.76927" lon="2.96007">
        <ele>1315</ele>
        <time>2020-07-11T14:25:19.109Z</time>
      </trkpt>
      <trkpt lat="45.76927" lon="2.96009">
        <ele>1315</ele>
        <time>2020-07-11T14:25:20.109Z</time>
      </trkpt>
      <trkpt lat="45.76928" lon="2.96012">
        <ele>1316</ele>
        <time>2020-07-11T14:25:21.109Z</time>
      </trkpt>
      <trkpt lat="45.76929" lon="2.96014">
        <ele>1317</ele>
        <time>2020-07-11T14:25:22.109Z</time>
      </trkpt>
      <trkpt lat="45.7693" lon="2.96015">
        <ele>1317</ele>
        <time>2020-07-11T14:25:23.109Z</time>
      </trkpt>
      <trkpt lat="45.76931" lon="2.96014">
        <ele>1316</ele>
        <time>2020-07-11T14:25:24.109Z</time>
      </trkpt>
      <trkpt lat="45.76932" lon="2.96013">
        <ele>1316</ele>
        <time>2020-07-11T14:25:25.109Z</time>
      </trkpt>
      <trkpt lat="45.76933" lon="2.96012">
        <ele>1316</ele>
        <time>2020-07-11T14:25:26.109Z</time>
      </trkpt>
      <trkpt lat="45.76934" lon="2.96009">
        <ele>1316</ele>
        <time>2020-07-11T14:25:27.109Z</time>
      </trkpt>
      <trkpt lat="45.76936" lon="2.96007">
        <ele>1317</ele>
        <time>2020-07-11T14:25:28.109Z</time>
      </trkpt>
      <trkpt lat="45.76938" lon="2.96006">
        <ele>1318</ele>
        <time>2020-07-11T14:25:29.109Z</time>
      </trkpt>
      <trkpt lat="45.76939" lon="2.96005">
        <ele>1319</ele>
        <time>2020-07-11T14:25:30.109Z</time>
      </trkpt>
      <trkpt lat="45.7694" lon="2.96003">
        <ele>1318</ele>
        <time>2020-07-11T14:25:31.109Z</time>
      </trkpt>
      <trkpt lat="45.76941" lon="2.95999">
        <ele>1320</ele>
        <time>2020-07-11T14:25:32.109Z</time>
      </trkpt>
      <trkpt lat="45.76941" lon="2.95996">
        <ele>1322</ele>
        <time>2020-07-11T14:25:33.109Z</time>
      </trkpt>
      <trkpt lat="45.76942" lon="2.95993">
        <ele>1322</ele>
        <time>2020-07-11T14:25:34.109Z</time>
      </trkpt>
      <trkpt lat="45.76943" lon="2.95991">
        <ele>1322</ele>
        <time>2020-07-11T14:25:35.109Z</time>
      </trkpt>
      <trkpt lat="45.76944" lon="2.95989">
        <ele>1322</ele>
        <time>2020-07-11T14:25:36.109Z</time>
      </trkpt>
      <trkpt lat="45.76946" lon="2.95987">
        <ele>1323</ele>
        <time>2020-07-11T14:25:37.109Z</time>
      </trkpt>
      <trkpt lat="45.76947" lon="2.95986">
        <ele>1323</ele>
        <time>2020-07-11T14:25:38.109Z</time>
      </trkpt>
      <trkpt lat="45.76949" lon="2.95985">
        <ele>1324</ele>
        <time>2020-07-11T14:25:39.109Z</time>
      </trkpt>
      <trkpt lat="45.76951" lon="2.95984">
        <ele>1324</ele>
        <time>2020-07-11T14:25:40.109Z</time>
      </trkpt>
      <trkpt lat="45.76953" lon="2.95984">
        <ele>1325</ele>
        <time>2020-07-11T14:25:41.109Z</time>
      </trkpt>
      <trkpt lat="45.76954" lon="2.95985">
        <ele>1325</ele>
        <time>2020-07-11T14:25:42.109Z</time>
      </trkpt>
      <trkpt lat="45.76955" lon="2.95986">
        <ele>1325</ele>
        <time>2020-07-11T14:25:43.109Z</time>
      </trkpt>
      <trkpt lat="45.76955" lon="2.95988">
        <ele>1325</ele>
        <time>2020-07-11T14:25:44.109Z</time>
      </trkpt>
      <trkpt lat="45.76956" lon="2.9599">
        <ele>1325</ele>
        <time>2020-07-11T14:25:45.109Z</time>
      </trkpt>
      <trkpt lat="45.76956" lon="2.95991">
        <ele>1325</ele>
        <time>2020-07-11T14:25:46.109Z</time>
      </trkpt>
      <trkpt lat="45.76956" lon="2.95993">
        <ele>1324</ele>
        <time>2020-07-11T14:25:47.109Z</time>
      </trkpt>
      <trkpt lat="45.76956" lon="2.95995">
        <ele>1323</ele>
        <time>2020-07-11T14:25:48.109Z</time>
      </trkpt>
      <trkpt lat="45.76955" lon="2.95997">
        <ele>1323</ele>
        <time>2020-07-11T14:25:49.109Z</time>
      </trkpt>
      <trkpt lat="45.76954" lon="2.95998">
        <ele>1324</ele>
        <time>2020-07-11T14:25:50.109Z</time>
      </trkpt>
      <trkpt lat="45.76953" lon="2.96">
        <ele>1324</ele>
        <time>2020-07-11T14:25:51.109Z</time>
      </trkpt>
      <trkpt lat="45.76952" lon="2.96002">
        <ele>1325</ele>
        <time>2020-07-11T14:25:52.109Z</time>
      </trkpt>
      <trkpt lat="45.76951" lon="2.96003">
        <ele>1325</ele>
        <time>2020-07-11T14:25:53.109Z</time>
      </trkpt>
      <trkpt lat="45.76951" lon="2.96005">
        <ele>1326</ele>
        <time>2020-07-11T14:25:54.109Z</time>
      </trkpt>
      <trkpt lat="45.7695" lon="2.96007">
        <ele>1327</ele>
        <time>2020-07-11T14:25:55.109Z</time>
      </trkpt>
      <trkpt lat="45.76949" lon="2.96009">
        <ele>1327</ele>
        <time>2020-07-11T14:25:56.109Z</time>
      </trkpt>
      <trkpt lat="45.76948" lon="2.96011">
        <ele>1328</ele>
        <time>2020-07-11T14:25:57.109Z</time>
      </trkpt>
      <trkpt lat="45.76946" lon="2.96013">
        <ele>1329</ele>
        <time>2020-07-11T14:25:58.109Z</time>
      </trkpt>
      <trkpt lat="45.76945" lon="2.96014">
        <ele>1330</ele>
        <time>2020-07-11T14:25:59.109Z</time>
      </trkpt>
      <trkpt lat="45.76944" lon="2.96016">
        <ele>1331</ele>
        <time>2020-07-11T14:26:00.109Z</time>
      </trkpt>
      <trkpt lat="45.76944" lon="2.96017">
        <ele>1331</ele>
        <time>2020-07-11T14:26:01.109Z</time>
      </trkpt>
      <trkpt lat="45.76943" lon="2.96019">
        <ele>1333</ele>
        <time>2020-07-11T14:26:02.109Z</time>
      </trkpt>
      <trkpt lat="45.76944" lon="2.96021">
        <ele>1334</ele>
        <time>2020-07-11T14:26:03.109Z</time>
      </trkpt>
      <trkpt lat="45.76944" lon="2.96023">
        <ele>1335</ele>
        <time>2020-07-11T14:26:04.109Z</time>
      </trkpt>
      <trkpt lat="45.76945" lon="2.96024">
        <ele>1335</ele>
        <time>2020-07-11T14:26:05.109Z</time>
      </trkpt>
      <trkpt lat="45.76945" lon="2.96025">
        <ele>1336</ele>
        <time>2020-07-11T14:26:06.109Z</time>
      </trkpt>
      <trkpt lat="45.76946" lon="2.96025">
        <ele>1337</ele>
        <time>2020-07-11T14:26:07.109Z</time>
      </trkpt>
      <trkpt lat="45.76948" lon="2.96025">
        <ele>1335</ele>
        <time>2020-07-11T14:26:08.109Z</time>
      </trkpt>
      <trkpt lat="45.7695" lon="2.96025">
        <ele>1336</ele>
        <time>2020-07-11T14:26:09.109Z</time>
      </trkpt>
      <trkpt lat="45.76951" lon="2.96025">
        <ele>1335</ele>
        <time>2020-07-11T14:26:10.109Z</time>
      </trkpt>
      <trkpt lat="45.76952" lon="2.96024">
        <ele>1336</ele>
        <time>2020-07-11T14:26:11.109Z</time>
      </trkpt>
      <trkpt lat="45.76953" lon="2.96023">
        <ele>1337</ele>
        <time>2020-07-11T14:26:12.109Z</time>
      </trkpt>
      <trkpt lat="45.76954" lon="2.96022">
        <ele>1337</ele>
        <time>2020-07-11T14:26:13.109Z</time>
      </trkpt>
      <trkpt lat="45.76956" lon="2.9602">
        <ele>1337</ele>
        <time>2020-07-11T14:26:14.109Z</time>
      </trkpt>
      <trkpt lat="45.76957" lon="2.96019">
        <ele>1339</ele>
        <time>2020-07-11T14:26:15.109Z</time>
      </trkpt>
      <trkpt lat="45.76958" lon="2.96018">
        <ele>1339</ele>
        <time>2020-07-11T14:26:16.109Z</time>
      </trkpt>
      <trkpt lat="45.76959" lon="2.96017">
        <ele>1339</ele>
        <time>2020-07-11T14:26:17.109Z</time>
      </trkpt>
      <trkpt lat="45.7696" lon="2.96016">
        <ele>1340</ele>
        <time>2020-07-11T14:26:18.109Z</time>
      </trkpt>
      <trkpt lat="45.76961" lon="2.96014">
        <ele>1341</ele>
        <time>2020-07-11T14:26:19.109Z</time>
      </trkpt>
      <trkpt lat="45.76962" lon="2.96013">
        <ele>1342</ele>
        <time>2020-07-11T14:26:20.109Z</time>
      </trkpt>
      <trkpt lat="45.76964" lon="2.96012">
        <ele>1342</ele>
        <time>2020-07-11T14:26:21.109Z</time>
      </trkpt>
      <trkpt lat="45.76965" lon="2.96011">
        <ele>1342</ele>
        <time>2020-07-11T14:26:22.109Z</time>
      </trkpt>
      <trkpt lat="45.76966" lon="2.96009">
        <ele>1342</ele>
        <time>2020-07-11T14:26:23.109Z</time>
      </trkpt>
      <trkpt lat="45.76967" lon="2.96008">
        <ele>1342</ele>
        <time>2020-07-11T14:26:24.109Z</time>
      </trkpt>
      <trkpt lat="45.76967" lon="2.96007">
        <ele>1342</ele>
        <time>2020-07-11T14:26:25.109Z</time>
      </trkpt>
      <trkpt lat="45.76968" lon="2.96005">
        <ele>1342</ele>
        <time>2020-07-11T14:26:26.109Z</time>
      </trkpt>
      <trkpt lat="45.76969" lon="2.96004">
        <ele>1342</ele>
        <time>2020-07-11T14:26:27.109Z</time>
      </trkpt>
      <trkpt lat="45.7697" lon="2.96002">
        <ele>1343</ele>
        <time>2020-07-11T14:26:28.109Z</time>
      </trkpt>
      <trkpt lat="45.76971" lon="2.96001">
        <ele>1343</ele>
        <time>2020-07-11T14:26:29.109Z</time>
      </trkpt>
      <trkpt lat="45.76972" lon="2.96">
        <ele>1344</ele>
        <time>2020-07-11T14:26:30.109Z</time>
      </trkpt>
      <trkpt lat="45.76973" lon="2.95999">
        <ele>1344</ele>
        <time>2020-07-11T14:26:31.109Z</time>
      </trkpt>
      <trkpt lat="45.76974" lon="2.95998">
        <ele>1345</ele>
        <time>2020-07-11T14:26:32.109Z</time>
      </trkpt>
      <trkpt lat="45.76979" lon="2.95997">
        <ele>1346</ele>
        <time>2020-07-11T14:26:33.078Z</time>
      </trkpt>
      <trkpt lat="45.76979" lon="2.95997">
        <ele>1347</ele>
        <time>2020-07-11T14:26:34.078Z</time>
      </trkpt>
      <trkpt lat="45.76979" lon="2.95998">
        <ele>1347</ele>
        <time>2020-07-11T14:26:35.078Z</time>
      </trkpt>
      <trkpt lat="45.76979" lon="2.95999">
        <ele>1348</ele>
        <time>2020-07-11T14:26:36.078Z</time>
      </trkpt>
      <trkpt lat="45.76979" lon="2.96">
        <ele>1349</ele>
        <time>2020-07-11T14:26:37.078Z</time>
      </trkpt>
      <trkpt lat="45.76979" lon="2.96001">
        <ele>1350</ele>
        <time>2020-07-11T14:26:38.078Z</time>
      </trkpt>
      <trkpt lat="45.76979" lon="2.96002">
        <ele>1350</ele>
        <time>2020-07-11T14:26:39.078Z</time>
      </trkpt>
      <trkpt lat="45.76979" lon="2.96004">
        <ele>1350</ele>
        <time>2020-07-11T14:26:40.078Z</time>
      </trkpt>
      <trkpt lat="45.7698" lon="2.96005">
        <ele>1351</ele>
        <time>2020-07-11T14:26:41.078Z</time>
      </trkpt>
      <trkpt lat="45.76979" lon="2.96006">
        <ele>1351</ele>
        <time>2020-07-11T14:26:42.078Z</time>
      </trkpt>
      <trkpt lat="45.76979" lon="2.96007">
        <ele>1352</ele>
        <time>2020-07-11T14:26:43.078Z</time>
      </trkpt>
      <trkpt lat="45.76979" lon="2.96008">
        <ele>1352</ele>
        <time>2020-07-11T14:26:44.078Z</time>
      </trkpt>
      <trkpt lat="45.76979" lon="2.96009">
        <ele>1353</ele>
        <time>2020-07-11T14:26:45.078Z</time>
      </trkpt>
      <trkpt lat="45.7698" lon="2.9601">
        <ele>1354</ele>
        <time>2020-07-11T14:26:46.078Z</time>
      </trkpt>
      <trkpt lat="45.7698" lon="2.96011">
        <ele>1355</ele>
        <time>2020-07-11T14:26:47.078Z</time>
      </trkpt>
      <trkpt lat="45.7698" lon="2.96012">
        <ele>1355</ele>
        <time>2020-07-11T14:26:48.078Z</time>
      </trkpt>
      <trkpt lat="45.7698" lon="2.96013">
        <ele>1356</ele>
        <time>2020-07-11T14:26:49.078Z</time>
      </trkpt>
      <trkpt lat="45.7698" lon="2.96014">
        <ele>1356</ele>
        <time>2020-07-11T14:26:50.078Z</time>
      </trkpt>
      <trkpt lat="45.7698" lon="2.96015">
        <ele>1356</ele>
        <time>2020-07-11T14:26:51.078Z</time>
      </trkpt>
      <trkpt lat="45.76979" lon="2.96016">
        <ele>1357</ele>
        <time>2020-07-11T14:26:52.078Z</time>
      </trkpt>
      <trkpt lat="45.76979" lon="2.96018">
        <ele>1358</ele>
        <time>2020-07-11T14:26:53.078Z</time>
      </trkpt>
      <trkpt lat="45.76978" lon="2.9602">
        <ele>1359</ele>
        <time>2020-07-11T14:26:54.078Z</time>
      </trkpt>
      <trkpt lat="45.76977" lon="2.96021">
        <ele>1359</ele>
        <time>2020-07-11T14:26:55.078Z</time>
      </trkpt>
      <trkpt lat="45.76977" lon="2.96023">
        <ele>1358</ele>
        <time>2020-07-11T14:26:56.078Z</time>
      </trkpt>
      <trkpt lat="45.76976" lon="2.96024">
        <ele>1359</ele>
        <time>2020-07-11T14:26:57.078Z</time>
      </trkpt>
      <trkpt lat="45.76976" lon="2.96027">
        <ele>1360</ele>
        <time>2020-07-11T14:26:58.078Z</time>
      </trkpt>
      <trkpt lat="45.76976" lon="2.96029">
        <ele>1360</ele>
        <time>2020-07-11T14:26:59.078Z</time>
      </trkpt>
      <trkpt lat="45.76976" lon="2.96031">
        <ele>1361</ele>
        <time>2020-07-11T14:27:00.078Z</time>
      </trkpt>
      <trkpt lat="45.76976" lon="2.96033">
        <ele>1361</ele>
        <time>2020-07-11T14:27:01.078Z</time>
      </trkpt>
      <trkpt lat="45.76975" lon="2.96034">
        <ele>1361</ele>
        <time>2020-07-11T14:27:02.078Z</time>
      </trkpt>
      <trkpt lat="45.76975" lon="2.96036">
        <ele>1361</ele>
        <time>2020-07-11T14:27:03.078Z</time>
      </trkpt>
      <trkpt lat="45.76975" lon="2.96038">
        <ele>1360</ele>
        <time>2020-07-11T14:27:04.078Z</time>
      </trkpt>
      <trkpt lat="45.76974" lon="2.96041">
        <ele>1360</ele>
        <time>2020-07-11T14:27:05.078Z</time>
      </trkpt>
      <trkpt lat="45.76973" lon="2.96043">
        <ele>1360</ele>
        <time>2020-07-11T14:27:06.078Z</time>
      </trkpt>
      <trkpt lat="45.76972" lon="2.96046">
        <ele>1359</ele>
        <time>2020-07-11T14:27:07.078Z</time>
      </trkpt>
      <trkpt lat="45.76971" lon="2.96048">
        <ele>1359</ele>
        <time>2020-07-11T14:27:08.078Z</time>
      </trkpt>
      <trkpt lat="45.7697" lon="2.9605">
        <ele>1359</ele>
        <time>2020-07-11T14:27:09.078Z</time>
      </trkpt>
      <trkpt lat="45.76969" lon="2.96052">
        <ele>1359</ele>
        <time>2020-07-11T14:27:10.078Z</time>
      </trkpt>
      <trkpt lat="45.76967" lon="2.96053">
        <ele>1359</ele>
        <time>2020-07-11T14:27:11.078Z</time>
      </trkpt>
      <trkpt lat="45.76966" lon="2.96055">
        <ele>1359</ele>
        <time>2020-07-11T14:27:12.078Z</time>
      </trkpt>
      <trkpt lat="45.76964" lon="2.96057">
        <ele>1359</ele>
        <time>2020-07-11T14:27:13.078Z</time>
      </trkpt>
      <trkpt lat="45.76962" lon="2.96059">
        <ele>1360</ele>
        <time>2020-07-11T14:27:14.078Z</time>
      </trkpt>
      <trkpt lat="45.7696" lon="2.9606">
        <ele>1360</ele>
        <time>2020-07-11T14:27:15.078Z</time>
      </trkpt>
      <trkpt lat="45.76958" lon="2.96062">
        <ele>1361</ele>
        <time>2020-07-11T14:27:16.078Z</time>
      </trkpt>
      <trkpt lat="45.76956" lon="2.96063">
        <ele>1362</ele>
        <time>2020-07-11T14:27:17.078Z</time>
      </trkpt>
      <trkpt lat="45.76955" lon="2.96064">
        <ele>1362</ele>
        <time>2020-07-11T14:27:18.078Z</time>
      </trkpt>
      <trkpt lat="45.76954" lon="2.96066">
        <ele>1363</ele>
        <time>2020-07-11T14:27:19.078Z</time>
      </trkpt>
      <trkpt lat="45.76952" lon="2.96068">
        <ele>1364</ele>
        <time>2020-07-11T14:27:20.078Z</time>
      </trkpt>
      <trkpt lat="45.76951" lon="2.96069">
        <ele>1364</ele>
        <time>2020-07-11T14:27:21.078Z</time>
      </trkpt>
      <trkpt lat="45.76949" lon="2.96071">
        <ele>1365</ele>
        <time>2020-07-11T14:27:22.078Z</time>
      </trkpt>
      <trkpt lat="45.76948" lon="2.96073">
        <ele>1366</ele>
        <time>2020-07-11T14:27:23.078Z</time>
      </trkpt>
      <trkpt lat="45.76946" lon="2.96075">
        <ele>1367</ele>
        <time>2020-07-11T14:27:24.078Z</time>
      </trkpt>
      <trkpt lat="45.76945" lon="2.96076">
        <ele>1367</ele>
        <time>2020-07-11T14:27:25.078Z</time>
      </trkpt>
      <trkpt lat="45.76943" lon="2.96078">
        <ele>1368</ele>
        <time>2020-07-11T14:27:26.078Z</time>
      </trkpt>
      <trkpt lat="45.76941" lon="2.9608">
        <ele>1368</ele>
        <time>2020-07-11T14:27:27.078Z</time>
      </trkpt>
      <trkpt lat="45.7694" lon="2.96082">
        <ele>1368</ele>
        <time>2020-07-11T14:27:28.078Z</time>
      </trkpt>
      <trkpt lat="45.76938" lon="2.96083">
        <ele>1369</ele>
        <time>2020-07-11T14:27:29.078Z</time>
      </trkpt>
      <trkpt lat="45.76937" lon="2.96085">
        <ele>1369</ele>
        <time>2020-07-11T14:27:30.078Z</time>
      </trkpt>
      <trkpt lat="45.76935" lon="2.96087">
        <ele>1369</ele>
        <time>2020-07-11T14:27:31.078Z</time>
      </trkpt>
      <trkpt lat="45.76934" lon="2.96089">
        <ele>1370</ele>
        <time>2020-07-11T14:27:32.078Z</time>
      </trkpt>
      <trkpt lat="45.76932" lon="2.96091">
        <ele>1369</ele>
        <time>2020-07-11T14:27:33.078Z</time>
      </trkpt>
      <trkpt lat="45.76931" lon="2.96093">
        <ele>1369</ele>
        <time>2020-07-11T14:27:34.078Z</time>
      </trkpt>
      <trkpt lat="45.7693" lon="2.96095">
        <ele>1370</ele>
        <time>2020-07-11T14:27:35.078Z</time>
      </trkpt>
      <trkpt lat="45.76928" lon="2.96098">
        <ele>1369</ele>
        <time>2020-07-11T14:27:36.078Z</time>
      </trkpt>
      <trkpt lat="45.76927" lon="2.961">
        <ele>1370</ele>
        <time>2020-07-11T14:27:37.078Z</time>
      </trkpt>
      <trkpt lat="45.76927" lon="2.96102">
        <ele>1369</ele>
        <time>2020-07-11T14:27:38.078Z</time>
      </trkpt>
      <trkpt lat="45.76927" lon="2.96104">
        <ele>1369</ele>
        <time>2020-07-11T14:27:39.078Z</time>
      </trkpt>
      <trkpt lat="45.76926" lon="2.96106">
        <ele>1368</ele>
        <time>2020-07-11T14:27:40.078Z</time>
      </trkpt>
      <trkpt lat="45.76926" lon="2.96109">
        <ele>1368</ele>
        <time>2020-07-11T14:27:41.078Z</time>
      </trkpt>
      <trkpt lat="45.76926" lon="2.96111">
        <ele>1368</ele>
        <time>2020-07-11T14:27:42.078Z</time>
      </trkpt>
      <trkpt lat="45.76926" lon="2.96113">
        <ele>1369</ele>
        <time>2020-07-11T14:27:43.078Z</time>
      </trkpt>
      <trkpt lat="45.76926" lon="2.96114">
        <ele>1370</ele>
        <time>2020-07-11T14:27:44.078Z</time>
      </trkpt>
      <trkpt lat="45.76927" lon="2.96115">
        <ele>1371</ele>
        <time>2020-07-11T14:27:45.078Z</time>
      </trkpt>
      <trkpt lat="45.76928" lon="2.96116">
        <ele>1371</ele>
        <time>2020-07-11T14:27:46.078Z</time>
      </trkpt>
      <trkpt lat="45.76929" lon="2.96116">
        <ele>1372</ele>
        <time>2020-07-11T14:27:47.078Z</time>
      </trkpt>
      <trkpt lat="45.7693" lon="2.96117">
        <ele>1372</ele>
        <time>2020-07-11T14:27:48.078Z</time>
      </trkpt>
      <trkpt lat="45.76931" lon="2.96118">
        <ele>1372</ele>
        <time>2020-07-11T14:27:49.078Z</time>
      </trkpt>
      <trkpt lat="45.76932" lon="2.96118">
        <ele>1372</ele>
        <time>2020-07-11T14:27:50.078Z</time>
      </trkpt>
      <trkpt lat="45.76933" lon="2.96119">
        <ele>1372</ele>
        <time>2020-07-11T14:27:51.078Z</time>
      </trkpt>
      <trkpt lat="45.76934" lon="2.96119">
        <ele>1371</ele>
        <time>2020-07-11T14:27:52.078Z</time>
      </trkpt>
      <trkpt lat="45.76934" lon="2.96119">
        <ele>1372</ele>
        <time>2020-07-11T14:27:53.078Z</time>
      </trkpt>
      <trkpt lat="45.76934" lon="2.96119">
        <ele>1372</ele>
        <time>2020-07-11T14:27:54.078Z</time>
      </trkpt>
      <trkpt lat="45.76935" lon="2.9612">
        <ele>1372</ele>
        <time>2020-07-11T14:27:55.078Z</time>
      </trkpt>
      <trkpt lat="45.76935" lon="2.9612">
        <ele>1372</ele>
        <time>2020-07-11T14:27:56.078Z</time>
      </trkpt>
      <trkpt lat="45.76936" lon="2.9612">
        <ele>1373</ele>
        <time>2020-07-11T14:27:57.078Z</time>
      </trkpt>
      <trkpt lat="45.76937" lon="2.9612">
        <ele>1372</ele>
        <time>2020-07-11T14:27:58.078Z</time>
      </trkpt>
      <trkpt lat="45.76938" lon="2.9612">
        <ele>1373</ele>
        <time>2020-07-11T14:27:59.078Z</time>
      </trkpt>
      <trkpt lat="45.76938" lon="2.96119">
        <ele>1373</ele>
        <time>2020-07-11T14:28:00.078Z</time>
      </trkpt>
      <trkpt lat="45.76939" lon="2.96118">
        <ele>1373</ele>
        <time>2020-07-11T14:28:01.078Z</time>
      </trkpt>
      <trkpt lat="45.7694" lon="2.96117">
        <ele>1373</ele>
        <time>2020-07-11T14:28:02.078Z</time>
      </trkpt>
      <trkpt lat="45.76941" lon="2.96117">
        <ele>1373</ele>
        <time>2020-07-11T14:28:03.078Z</time>
      </trkpt>
      <trkpt lat="45.76942" lon="2.96117">
        <ele>1374</ele>
        <time>2020-07-11T14:28:04.078Z</time>
      </trkpt>
      <trkpt lat="45.76942" lon="2.96116">
        <ele>1374</ele>
        <time>2020-07-11T14:28:05.078Z</time>
      </trkpt>
      <trkpt lat="45.76943" lon="2.96116">
        <ele>1374</ele>
        <time>2020-07-11T14:28:06.078Z</time>
      </trkpt>
      <trkpt lat="45.76943" lon="2.96115">
        <ele>1374</ele>
        <time>2020-07-11T14:28:07.078Z</time>
      </trkpt>
      <trkpt lat="45.76943" lon="2.96115">
        <ele>1374</ele>
        <time>2020-07-11T14:28:08.078Z</time>
      </trkpt>
      <trkpt lat="45.76943" lon="2.96115">
        <ele>1374</ele>
        <time>2020-07-11T14:28:09.078Z</time>
      </trkpt>
      <trkpt lat="45.76943" lon="2.96115">
        <ele>1374</ele>
        <time>2020-07-11T14:28:10.078Z</time>
      </trkpt>
      <trkpt lat="45.76943" lon="2.96115">
        <ele>1375</ele>
        <time>2020-07-11T14:28:11.078Z</time>
      </trkpt>
      <trkpt lat="45.76943" lon="2.96115">
        <ele>1374</ele>
        <time>2020-07-11T14:28:12.078Z</time>
      </trkpt>
      <trkpt lat="45.76944" lon="2.96115">
        <ele>1374</ele>
        <time>2020-07-11T14:28:13.078Z</time>
      </trkpt>
      <trkpt lat="45.76944" lon="2.96114">
        <ele>1375</ele>
        <time>2020-07-11T14:28:14.078Z</time>
      </trkpt>
      <trkpt lat="45.76945" lon="2.96114">
        <ele>1375</ele>
        <time>2020-07-11T14:28:15.078Z</time>
      </trkpt>
      <trkpt lat="45.76946" lon="2.96114">
        <ele>1375</ele>
        <time>2020-07-11T14:28:16.078Z</time>
      </trkpt>
      <trkpt lat="45.76947" lon="2.96113">
        <ele>1375</ele>
        <time>2020-07-11T14:28:17.078Z</time>
      </trkpt>
      <trkpt lat="45.76948" lon="2.96113">
        <ele>1376</ele>
        <time>2020-07-11T14:28:18.078Z</time>
      </trkpt>
      <trkpt lat="45.76949" lon="2.96113">
        <ele>1376</ele>
        <time>2020-07-11T14:28:19.078Z</time>
      </trkpt>
      <trkpt lat="45.7695" lon="2.96112">
        <ele>1376</ele>
        <time>2020-07-11T14:28:20.078Z</time>
      </trkpt>
      <trkpt lat="45.76951" lon="2.96112">
        <ele>1376</ele>
        <time>2020-07-11T14:28:21.078Z</time>
      </trkpt>
      <trkpt lat="45.76951" lon="2.96112">
        <ele>1377</ele>
        <time>2020-07-11T14:28:22.078Z</time>
      </trkpt>
      <trkpt lat="45.76952" lon="2.96111">
        <ele>1376</ele>
        <time>2020-07-11T14:28:23.078Z</time>
      </trkpt>
      <trkpt lat="45.76953" lon="2.96111">
        <ele>1376</ele>
        <time>2020-07-11T14:28:24.078Z</time>
      </trkpt>
      <trkpt lat="45.76954" lon="2.96111">
        <ele>1376</ele>
        <time>2020-07-11T14:28:25.078Z</time>
      </trkpt>
      <trkpt lat="45.76955" lon="2.9611">
        <ele>1377</ele>
        <time>2020-07-11T14:28:26.078Z</time>
      </trkpt>
      <trkpt lat="45.76956" lon="2.9611">
        <ele>1377</ele>
        <time>2020-07-11T14:28:27.078Z</time>
      </trkpt>
      <trkpt lat="45.76957" lon="2.9611">
        <ele>1377</ele>
        <time>2020-07-11T14:28:28.078Z</time>
      </trkpt>
      <trkpt lat="45.76958" lon="2.96109">
        <ele>1377</ele>
        <time>2020-07-11T14:28:29.078Z</time>
      </trkpt>
      <trkpt lat="45.76959" lon="2.96109">
        <ele>1377</ele>
        <time>2020-07-11T14:28:30.078Z</time>
      </trkpt>
      <trkpt lat="45.7696" lon="2.96109">
        <ele>1378</ele>
        <time>2020-07-11T14:28:31.078Z</time>
      </trkpt>
      <trkpt lat="45.7696" lon="2.96108">
        <ele>1378</ele>
        <time>2020-07-11T14:28:32.078Z</time>
      </trkpt>
      <trkpt lat="45.76961" lon="2.96108">
        <ele>1378</ele>
        <time>2020-07-11T14:28:33.078Z</time>
      </trkpt>
      <trkpt lat="45.76962" lon="2.96107">
        <ele>1379</ele>
        <time>2020-07-11T14:28:34.078Z</time>
      </trkpt>
      <trkpt lat="45.76962" lon="2.96107">
        <ele>1378</ele>
        <time>2020-07-11T14:28:35.078Z</time>
      </trkpt>
      <trkpt lat="45.76963" lon="2.96106">
        <ele>1379</ele>
        <time>2020-07-11T14:28:36.078Z</time>
      </trkpt>
      <trkpt lat="45.76964" lon="2.96106">
        <ele>1379</ele>
        <time>2020-07-11T14:28:37.078Z</time>
      </trkpt>
      <trkpt lat="45.76965" lon="2.96106">
        <ele>1379</ele>
        <time>2020-07-11T14:28:38.078Z</time>
      </trkpt>
      <trkpt lat="45.76965" lon="2.96106">
        <ele>1379</ele>
        <time>2020-07-11T14:28:39.078Z</time>
      </trkpt>
      <trkpt lat="45.76966" lon="2.96105">
        <ele>1379</ele>
        <time>2020-07-11T14:28:40.078Z</time>
      </trkpt>
      <trkpt lat="45.76967" lon="2.96105">
        <ele>1379</ele>
        <time>2020-07-11T14:28:41.078Z</time>
      </trkpt>
      <trkpt lat="45.76967" lon="2.96104">
        <ele>1380</ele>
        <time>2020-07-11T14:28:42.078Z</time>
      </trkpt>
      <trkpt lat="45.76968" lon="2.96104">
        <ele>1379</ele>
        <time>2020-07-11T14:28:43.078Z</time>
      </trkpt>
      <trkpt lat="45.7697" lon="2.96103">
        <ele>1380</ele>
        <time>2020-07-11T14:28:44.078Z</time>
      </trkpt>
      <trkpt lat="45.76971" lon="2.96103">
        <ele>1380</ele>
        <time>2020-07-11T14:28:45.078Z</time>
      </trkpt>
      <trkpt lat="45.76972" lon="2.96102">
        <ele>1380</ele>
        <time>2020-07-11T14:28:46.078Z</time>
      </trkpt>
      <trkpt lat="45.76974" lon="2.96101">
        <ele>1381</ele>
        <time>2020-07-11T14:28:47.078Z</time>
      </trkpt>
      <trkpt lat="45.76975" lon="2.961">
        <ele>1382</ele>
        <time>2020-07-11T14:28:48.078Z</time>
      </trkpt>
      <trkpt lat="45.76977" lon="2.96099">
        <ele>1382</ele>
        <time>2020-07-11T14:28:49.078Z</time>
      </trkpt>
      <trkpt lat="45.76978" lon="2.96099">
        <ele>1382</ele>
        <time>2020-07-11T14:28:50.078Z</time>
      </trkpt>
      <trkpt lat="45.7698" lon="2.96098">
        <ele>1383</ele>
        <time>2020-07-11T14:28:51.078Z</time>
      </trkpt>
      <trkpt lat="45.76981" lon="2.96097">
        <ele>1383</ele>
        <time>2020-07-11T14:28:52.078Z</time>
      </trkpt>
      <trkpt lat="45.76982" lon="2.96095">
        <ele>1384</ele>
        <time>2020-07-11T14:28:53.078Z</time>
      </trkpt>
      <trkpt lat="45.76984" lon="2.96094">
        <ele>1384</ele>
        <time>2020-07-11T14:28:54.078Z</time>
      </trkpt>
      <trkpt lat="45.76985" lon="2.96092">
        <ele>1385</ele>
        <time>2020-07-11T14:28:55.078Z</time>
      </trkpt>
      <trkpt lat="45.76986" lon="2.96091">
        <ele>1386</ele>
        <time>2020-07-11T14:28:56.078Z</time>
      </trkpt>
      <trkpt lat="45.76987" lon="2.9609">
        <ele>1386</ele>
        <time>2020-07-11T14:28:57.078Z</time>
      </trkpt>
      <trkpt lat="45.76989" lon="2.96088">
        <ele>1386</ele>
        <time>2020-07-11T14:28:58.078Z</time>
      </trkpt>
      <trkpt lat="45.76989" lon="2.96087">
        <ele>1386</ele>
        <time>2020-07-11T14:28:59.078Z</time>
      </trkpt>
      <trkpt lat="45.7699" lon="2.96086">
        <ele>1387</ele>
        <time>2020-07-11T14:29:00.078Z</time>
      </trkpt>
      <trkpt lat="45.76991" lon="2.96085">
        <ele>1387</ele>
        <time>2020-07-11T14:29:01.078Z</time>
      </trkpt>
      <trkpt lat="45.76992" lon="2.96084">
        <ele>1388</ele>
        <time>2020-07-11T14:29:02.078Z</time>
      </trkpt>
      <trkpt lat="45.76993" lon="2.96084">
        <ele>1388</ele>
        <time>2020-07-11T14:29:03.078Z</time>
      </trkpt>
      <trkpt lat="45.76994" lon="2.96084">
        <ele>1388</ele>
        <time>2020-07-11T14:29:04.078Z</time>
      </trkpt>
      <trkpt lat="45.76995" lon="2.96083">
        <ele>1389</ele>
        <time>2020-07-11T14:29:05.078Z</time>
      </trkpt>
      <trkpt lat="45.76996" lon="2.96083">
        <ele>1389</ele>
        <time>2020-07-11T14:29:06.078Z</time>
      </trkpt>
      <trkpt lat="45.76997" lon="2.96083">
        <ele>1389</ele>
        <time>2020-07-11T14:29:07.078Z</time>
      </trkpt>
      <trkpt lat="45.76998" lon="2.96082">
        <ele>1390</ele>
        <time>2020-07-11T14:29:08.078Z</time>
      </trkpt>
      <trkpt lat="45.76998" lon="2.96082">
        <ele>1390</ele>
        <time>2020-07-11T14:29:09.078Z</time>
      </trkpt>
      <trkpt lat="45.76999" lon="2.96081">
        <ele>1391</ele>
        <time>2020-07-11T14:29:10.078Z</time>
      </trkpt>
      <trkpt lat="45.77" lon="2.9608">
        <ele>1391</ele>
        <time>2020-07-11T14:29:11.078Z</time>
      </trkpt>
      <trkpt lat="45.77001" lon="2.9608">
        <ele>1391</ele>
        <time>2020-07-11T14:29:12.078Z</time>
      </trkpt>
      <trkpt lat="45.77002" lon="2.9608">
        <ele>1391</ele>
        <time>2020-07-11T14:29:13.078Z</time>
      </trkpt>
      <trkpt lat="45.77003" lon="2.9608">
        <ele>1392</ele>
        <time>2020-07-11T14:29:14.078Z</time>
      </trkpt>
      <trkpt lat="45.77005" lon="2.96081">
        <ele>1392</ele>
        <time>2020-07-11T14:29:15.078Z</time>
      </trkpt>
      <trkpt lat="45.77006" lon="2.96081">
        <ele>1392</ele>
        <time>2020-07-11T14:29:16.078Z</time>
      </trkpt>
      <trkpt lat="45.77008" lon="2.96083">
        <ele>1392</ele>
        <time>2020-07-11T14:29:17.078Z</time>
      </trkpt>
      <trkpt lat="45.77009" lon="2.96085">
        <ele>1392</ele>
        <time>2020-07-11T14:29:18.078Z</time>
      </trkpt>
      <trkpt lat="45.7701" lon="2.96087">
        <ele>1392</ele>
        <time>2020-07-11T14:29:19.078Z</time>
      </trkpt>
      <trkpt lat="45.77011" lon="2.9609">
        <ele>1393</ele>
        <time>2020-07-11T14:29:20.078Z</time>
      </trkpt>
      <trkpt lat="45.77012" lon="2.96092">
        <ele>1393</ele>
        <time>2020-07-11T14:29:21.078Z</time>
      </trkpt>
      <trkpt lat="45.77013" lon="2.96095">
        <ele>1393</ele>
        <time>2020-07-11T14:29:22.078Z</time>
      </trkpt>
      <trkpt lat="45.77014" lon="2.96097">
        <ele>1393</ele>
        <time>2020-07-11T14:29:23.078Z</time>
      </trkpt>
      <trkpt lat="45.77015" lon="2.96099">
        <ele>1393</ele>
        <time>2020-07-11T14:29:24.078Z</time>
      </trkpt>
      <trkpt lat="45.77017" lon="2.96102">
        <ele>1393</ele>
        <time>2020-07-11T14:29:25.078Z</time>
      </trkpt>
      <trkpt lat="45.77018" lon="2.96104">
        <ele>1394</ele>
        <time>2020-07-11T14:29:26.078Z</time>
      </trkpt>
      <trkpt lat="45.77018" lon="2.96106">
        <ele>1394</ele>
        <time>2020-07-11T14:29:27.078Z</time>
      </trkpt>
      <trkpt lat="45.77019" lon="2.96108">
        <ele>1394</ele>
        <time>2020-07-11T14:29:28.078Z</time>
      </trkpt>
      <trkpt lat="45.7702" lon="2.96111">
        <ele>1395</ele>
        <time>2020-07-11T14:29:29.078Z</time>
      </trkpt>
      <trkpt lat="45.77021" lon="2.96113">
        <ele>1394</ele>
        <time>2020-07-11T14:29:30.078Z</time>
      </trkpt>
      <trkpt lat="45.77021" lon="2.96116">
        <ele>1396</ele>
        <time>2020-07-11T14:29:31.078Z</time>
      </trkpt>
      <trkpt lat="45.77022" lon="2.96118">
        <ele>1396</ele>
        <time>2020-07-11T14:29:32.078Z</time>
      </trkpt>
      <trkpt lat="45.77023" lon="2.96121">
        <ele>1396</ele>
        <time>2020-07-11T14:29:33.078Z</time>
      </trkpt>
      <trkpt lat="45.77024" lon="2.96123">
        <ele>1396</ele>
        <time>2020-07-11T14:29:34.078Z</time>
      </trkpt>
      <trkpt lat="45.77025" lon="2.96125">
        <ele>1397</ele>
        <time>2020-07-11T14:29:35.078Z</time>
      </trkpt>
      <trkpt lat="45.77026" lon="2.96127">
        <ele>1397</ele>
        <time>2020-07-11T14:29:36.078Z</time>
      </trkpt>
      <trkpt lat="45.77027" lon="2.96129">
        <ele>1397</ele>
        <time>2020-07-11T14:29:37.078Z</time>
      </trkpt>
      <trkpt lat="45.77028" lon="2.96132">
        <ele>1399</ele>
        <time>2020-07-11T14:29:38.078Z</time>
      </trkpt>
      <trkpt lat="45.7703" lon="2.96134">
        <ele>1400</ele>
        <time>2020-07-11T14:29:39.078Z</time>
      </trkpt>
      <trkpt lat="45.77031" lon="2.96136">
        <ele>1401</ele>
        <time>2020-07-11T14:29:40.078Z</time>
      </trkpt>
      <trkpt lat="45.77033" lon="2.96138">
        <ele>1402</ele>
        <time>2020-07-11T14:29:41.078Z</time>
      </trkpt>
      <trkpt lat="45.77034" lon="2.9614">
        <ele>1402</ele>
        <time>2020-07-11T14:29:42.078Z</time>
      </trkpt>
      <trkpt lat="45.77035" lon="2.96142">
        <ele>1402</ele>
        <time>2020-07-11T14:29:43.078Z</time>
      </trkpt>
      <trkpt lat="45.77037" lon="2.96144">
        <ele>1402</ele>
        <time>2020-07-11T14:29:44.078Z</time>
      </trkpt>
      <trkpt lat="45.77038" lon="2.96147">
        <ele>1403</ele>
        <time>2020-07-11T14:29:45.078Z</time>
      </trkpt>
      <trkpt lat="45.77038" lon="2.96147">
        <ele>1403</ele>
        <time>2020-07-11T14:29:46.078Z</time>
      </trkpt>
      <trkpt lat="45.7704" lon="2.96149">
        <ele>1404</ele>
        <time>2020-07-11T14:29:47.078Z</time>
      </trkpt>
      <trkpt lat="45.77041" lon="2.96152">
        <ele>1404</ele>
        <time>2020-07-11T14:29:48.078Z</time>
      </trkpt>
      <trkpt lat="45.77043" lon="2.96155">
        <ele>1405</ele>
        <time>2020-07-11T14:29:49.078Z</time>
      </trkpt>
      <trkpt lat="45.77044" lon="2.96158">
        <ele>1405</ele>
        <time>2020-07-11T14:29:50.078Z</time>
      </trkpt>
      <trkpt lat="45.77045" lon="2.96159">
        <ele>1405</ele>
        <time>2020-07-11T14:29:51.078Z</time>
      </trkpt>
      <trkpt lat="45.77047" lon="2.96161">
        <ele>1405</ele>
        <time>2020-07-11T14:29:52.078Z</time>
      </trkpt>
      <trkpt lat="45.77048" lon="2.96162">
        <ele>1406</ele>
        <time>2020-07-11T14:29:53.078Z</time>
      </trkpt>
      <trkpt lat="45.7705" lon="2.96163">
        <ele>1406</ele>
        <time>2020-07-11T14:29:54.078Z</time>
      </trkpt>
      <trkpt lat="45.77052" lon="2.96165">
        <ele>1407</ele>
        <time>2020-07-11T14:29:55.078Z</time>
      </trkpt>
      <trkpt lat="45.77053" lon="2.96167">
        <ele>1407</ele>
        <time>2020-07-11T14:29:56.078Z</time>
      </trkpt>
      <trkpt lat="45.77055" lon="2.96169">
        <ele>1408</ele>
        <time>2020-07-11T14:29:57.078Z</time>
      </trkpt>
      <trkpt lat="45.77056" lon="2.96172">
        <ele>1409</ele>
        <time>2020-07-11T14:29:58.078Z</time>
      </trkpt>
      <trkpt lat="45.77058" lon="2.96174">
        <ele>1410</ele>
        <time>2020-07-11T14:29:59.078Z</time>
      </trkpt>
      <trkpt lat="45.77059" lon="2.96176">
        <ele>1410</ele>
        <time>2020-07-11T14:30:00.078Z</time>
      </trkpt>
      <trkpt lat="45.7706" lon="2.96178">
        <ele>1410</ele>
        <time>2020-07-11T14:30:01.078Z</time>
      </trkpt>
      <trkpt lat="45.77061" lon="2.96179">
        <ele>1411</ele>
        <time>2020-07-11T14:30:02.078Z</time>
      </trkpt>
      <trkpt lat="45.77063" lon="2.96181">
        <ele>1411</ele>
        <time>2020-07-11T14:30:03.078Z</time>
      </trkpt>
      <trkpt lat="45.77064" lon="2.96182">
        <ele>1411</ele>
        <time>2020-07-11T14:30:04.078Z</time>
      </trkpt>
      <trkpt lat="45.77065" lon="2.96184">
        <ele>1411</ele>
        <time>2020-07-11T14:30:05.078Z</time>
      </trkpt>
      <trkpt lat="45.77066" lon="2.96185">
        <ele>1412</ele>
        <time>2020-07-11T14:30:06.078Z</time>
      </trkpt>
      <trkpt lat="45.77067" lon="2.96187">
        <ele>1412</ele>
        <time>2020-07-11T14:30:07.078Z</time>
      </trkpt>
      <trkpt lat="45.77068" lon="2.96188">
        <ele>1413</ele>
        <time>2020-07-11T14:30:08.078Z</time>
      </trkpt>
      <trkpt lat="45.77069" lon="2.96189">
        <ele>1413</ele>
        <time>2020-07-11T14:30:09.078Z</time>
      </trkpt>
      <trkpt lat="45.7707" lon="2.9619">
        <ele>1413</ele>
        <time>2020-07-11T14:30:10.078Z</time>
      </trkpt>
      <trkpt lat="45.77071" lon="2.96191">
        <ele>1413</ele>
        <time>2020-07-11T14:30:11.078Z</time>
      </trkpt>
      <trkpt lat="45.77073" lon="2.96193">
        <ele>1414</ele>
        <time>2020-07-11T14:30:12.078Z</time>
      </trkpt>
      <trkpt lat="45.77074" lon="2.96194">
        <ele>1414</ele>
        <time>2020-07-11T14:30:13.078Z</time>
      </trkpt>
      <trkpt lat="45.77075" lon="2.96195">
        <ele>1414</ele>
        <time>2020-07-11T14:30:14.078Z</time>
      </trkpt>
      <trkpt lat="45.77076" lon="2.96197">
        <ele>1415</ele>
        <time>2020-07-11T14:30:15.078Z</time>
      </trkpt>
      <trkpt lat="45.77077" lon="2.96198">
        <ele>1416</ele>
        <time>2020-07-11T14:30:16.078Z</time>
      </trkpt>
      <trkpt lat="45.77078" lon="2.96199">
        <ele>1416</ele>
        <time>2020-07-11T14:30:17.078Z</time>
      </trkpt>
      <trkpt lat="45.7708" lon="2.962">
        <ele>1416</ele>
        <time>2020-07-11T14:30:18.078Z</time>
      </trkpt>
      <trkpt lat="45.77081" lon="2.96201">
        <ele>1416</ele>
        <time>2020-07-11T14:30:19.078Z</time>
      </trkpt>
      <trkpt lat="45.77079" lon="2.96203">
        <ele>1417</ele>
        <time>2020-07-11T14:30:20.015Z</time>
      </trkpt>
      <trkpt lat="45.77078" lon="2.96202">
        <ele>1417</ele>
        <time>2020-07-11T14:30:21.015Z</time>
      </trkpt>
      <trkpt lat="45.77077" lon="2.96201">
        <ele>1416</ele>
        <time>2020-07-11T14:30:22.015Z</time>
      </trkpt>
      <trkpt lat="45.77076" lon="2.962">
        <ele>1416</ele>
        <time>2020-07-11T14:30:23.015Z</time>
      </trkpt>
      <trkpt lat="45.77075" lon="2.96199">
        <ele>1415</ele>
        <time>2020-07-11T14:30:24.015Z</time>
      </trkpt>
      <trkpt lat="45.77074" lon="2.96197">
        <ele>1415</ele>
        <time>2020-07-11T14:30:25.015Z</time>
      </trkpt>
      <trkpt lat="45.77073" lon="2.96196">
        <ele>1413</ele>
        <time>2020-07-11T14:30:26.015Z</time>
      </trkpt>
      <trkpt lat="45.77071" lon="2.96195">
        <ele>1413</ele>
        <time>2020-07-11T14:30:27.015Z</time>
      </trkpt>
      <trkpt lat="45.77069" lon="2.96194">
        <ele>1412</ele>
        <time>2020-07-11T14:30:28.015Z</time>
      </trkpt>
      <trkpt lat="45.77067" lon="2.96192">
        <ele>1411</ele>
        <time>2020-07-11T14:30:29.015Z</time>
      </trkpt>
      <trkpt lat="45.77066" lon="2.96191">
        <ele>1410</ele>
        <time>2020-07-11T14:30:30.015Z</time>
      </trkpt>
      <trkpt lat="45.77065" lon="2.96189">
        <ele>1409</ele>
        <time>2020-07-11T14:30:31.015Z</time>
      </trkpt>
      <trkpt lat="45.77064" lon="2.96188">
        <ele>1408</ele>
        <time>2020-07-11T14:30:32.015Z</time>
      </trkpt>
      <trkpt lat="45.77062" lon="2.96185">
        <ele>1407</ele>
        <time>2020-07-11T14:30:33.015Z</time>
      </trkpt>
      <trkpt lat="45.7706" lon="2.96183">
        <ele>1407</ele>
        <time>2020-07-11T14:30:34.015Z</time>
      </trkpt>
      <trkpt lat="45.77059" lon="2.9618">
        <ele>1407</ele>
        <time>2020-07-11T14:30:35.015Z</time>
      </trkpt>
      <trkpt lat="45.77057" lon="2.96177">
        <ele>1406</ele>
        <time>2020-07-11T14:30:36.015Z</time>
      </trkpt>
      <trkpt lat="45.77055" lon="2.96173">
        <ele>1405</ele>
        <time>2020-07-11T14:30:37.015Z</time>
      </trkpt>
      <trkpt lat="45.77054" lon="2.9617">
        <ele>1404</ele>
        <time>2020-07-11T14:30:38.015Z</time>
      </trkpt>
      <trkpt lat="45.77052" lon="2.96167">
        <ele>1404</ele>
        <time>2020-07-11T14:30:39.015Z</time>
      </trkpt>
      <trkpt lat="45.77051" lon="2.96165">
        <ele>1404</ele>
        <time>2020-07-11T14:30:40.015Z</time>
      </trkpt>
      <trkpt lat="45.77049" lon="2.96163">
        <ele>1403</ele>
        <time>2020-07-11T14:30:41.015Z</time>
      </trkpt>
      <trkpt lat="45.77047" lon="2.96161">
        <ele>1403</ele>
        <time>2020-07-11T14:30:42.015Z</time>
      </trkpt>
      <trkpt lat="45.77046" lon="2.9616">
        <ele>1402</ele>
        <time>2020-07-11T14:30:43.015Z</time>
      </trkpt>
      <trkpt lat="45.77044" lon="2.96158">
        <ele>1402</ele>
        <time>2020-07-11T14:30:44.015Z</time>
      </trkpt>
      <trkpt lat="45.77042" lon="2.96156">
        <ele>1402</ele>
        <time>2020-07-11T14:30:45.015Z</time>
      </trkpt>
      <trkpt lat="45.7704" lon="2.96154">
        <ele>1400</ele>
        <time>2020-07-11T14:30:46.015Z</time>
      </trkpt>
      <trkpt lat="45.77039" lon="2.96151">
        <ele>1400</ele>
        <time>2020-07-11T14:30:47.015Z</time>
      </trkpt>
      <trkpt lat="45.77037" lon="2.96148">
        <ele>1399</ele>
        <time>2020-07-11T14:30:48.015Z</time>
      </trkpt>
      <trkpt lat="45.77035" lon="2.96146">
        <ele>1399</ele>
        <time>2020-07-11T14:30:49.015Z</time>
      </trkpt>
      <trkpt lat="45.77033" lon="2.96143">
        <ele>1398</ele>
        <time>2020-07-11T14:30:50.015Z</time>
      </trkpt>
      <trkpt lat="45.77031" lon="2.9614">
        <ele>1397</ele>
        <time>2020-07-11T14:30:51.015Z</time>
      </trkpt>
      <trkpt lat="45.77029" lon="2.96137">
        <ele>1395</ele>
        <time>2020-07-11T14:30:52.015Z</time>
      </trkpt>
      <trkpt lat="45.77027" lon="2.96134">
        <ele>1395</ele>
        <time>2020-07-11T14:30:53.015Z</time>
      </trkpt>
      <trkpt lat="45.77025" lon="2.96131">
        <ele>1395</ele>
        <time>2020-07-11T14:30:54.015Z</time>
      </trkpt>
      <trkpt lat="45.77022" lon="2.96128">
        <ele>1393</ele>
        <time>2020-07-11T14:30:55.015Z</time>
      </trkpt>
      <trkpt lat="45.7702" lon="2.96125">
        <ele>1392</ele>
        <time>2020-07-11T14:30:56.015Z</time>
      </trkpt>
      <trkpt lat="45.77019" lon="2.96121">
        <ele>1392</ele>
        <time>2020-07-11T14:30:57.015Z</time>
      </trkpt>
      <trkpt lat="45.77017" lon="2.96118">
        <ele>1392</ele>
        <time>2020-07-11T14:30:58.015Z</time>
      </trkpt>
      <trkpt lat="45.77016" lon="2.96114">
        <ele>1391</ele>
        <time>2020-07-11T14:30:59.015Z</time>
      </trkpt>
      <trkpt lat="45.77015" lon="2.9611">
        <ele>1391</ele>
        <time>2020-07-11T14:31:00.015Z</time>
      </trkpt>
      <trkpt lat="45.77014" lon="2.96106">
        <ele>1390</ele>
        <time>2020-07-11T14:31:01.015Z</time>
      </trkpt>
      <trkpt lat="45.77013" lon="2.96102">
        <ele>1390</ele>
        <time>2020-07-11T14:31:02.015Z</time>
      </trkpt>
      <trkpt lat="45.77011" lon="2.96099">
        <ele>1390</ele>
        <time>2020-07-11T14:31:03.015Z</time>
      </trkpt>
      <trkpt lat="45.7701" lon="2.96095">
        <ele>1390</ele>
        <time>2020-07-11T14:31:04.015Z</time>
      </trkpt>
      <trkpt lat="45.77009" lon="2.96092">
        <ele>1389</ele>
        <time>2020-07-11T14:31:05.015Z</time>
      </trkpt>
      <trkpt lat="45.77008" lon="2.96089">
        <ele>1389</ele>
        <time>2020-07-11T14:31:06.015Z</time>
      </trkpt>
      <trkpt lat="45.77007" lon="2.96086">
        <ele>1388</ele>
        <time>2020-07-11T14:31:07.015Z</time>
      </trkpt>
      <trkpt lat="45.77005" lon="2.96084">
        <ele>1388</ele>
        <time>2020-07-11T14:31:08.015Z</time>
      </trkpt>
      <trkpt lat="45.77003" lon="2.96082">
        <ele>1387</ele>
        <time>2020-07-11T14:31:09.015Z</time>
      </trkpt>
      <trkpt lat="45.77001" lon="2.96081">
        <ele>1385</ele>
        <time>2020-07-11T14:31:10.015Z</time>
      </trkpt>
      <trkpt lat="45.76998" lon="2.96081">
        <ele>1385</ele>
        <time>2020-07-11T14:31:11.015Z</time>
      </trkpt>
      <trkpt lat="45.76996" lon="2.96081">
        <ele>1385</ele>
        <time>2020-07-11T14:31:12.015Z</time>
      </trkpt>
      <trkpt lat="45.76993" lon="2.96082">
        <ele>1385</ele>
        <time>2020-07-11T14:31:13.015Z</time>
      </trkpt>
      <trkpt lat="45.76991" lon="2.96084">
        <ele>1385</ele>
        <time>2020-07-11T14:31:14.015Z</time>
      </trkpt>
      <trkpt lat="45.76989" lon="2.96086">
        <ele>1384</ele>
        <time>2020-07-11T14:31:15.015Z</time>
      </trkpt>
      <trkpt lat="45.76987" lon="2.96088">
        <ele>1383</ele>
        <time>2020-07-11T14:31:16.015Z</time>
      </trkpt>
      <trkpt lat="45.76984" lon="2.9609">
        <ele>1382</ele>
        <time>2020-07-11T14:31:17.015Z</time>
      </trkpt>
      <trkpt lat="45.76982" lon="2.96093">
        <ele>1382</ele>
        <time>2020-07-11T14:31:18.015Z</time>
      </trkpt>
      <trkpt lat="45.7698" lon="2.96096">
        <ele>1381</ele>
        <time>2020-07-11T14:31:19.015Z</time>
      </trkpt>
      <trkpt lat="45.76977" lon="2.96099">
        <ele>1381</ele>
        <time>2020-07-11T14:31:20.015Z</time>
      </trkpt>
      <trkpt lat="45.76975" lon="2.96102">
        <ele>1380</ele>
        <time>2020-07-11T14:31:21.015Z</time>
      </trkpt>
      <trkpt lat="45.76972" lon="2.96104">
        <ele>1380</ele>
        <time>2020-07-11T14:31:22.015Z</time>
      </trkpt>
      <trkpt lat="45.7697" lon="2.96106">
        <ele>1380</ele>
        <time>2020-07-11T14:31:23.015Z</time>
      </trkpt>
      <trkpt lat="45.76967" lon="2.96108">
        <ele>1379</ele>
        <time>2020-07-11T14:31:24.015Z</time>
      </trkpt>
      <trkpt lat="45.76964" lon="2.9611">
        <ele>1378</ele>
        <time>2020-07-11T14:31:25.015Z</time>
      </trkpt>
      <trkpt lat="45.76961" lon="2.96112">
        <ele>1378</ele>
        <time>2020-07-11T14:31:26.015Z</time>
      </trkpt>
      <trkpt lat="45.76959" lon="2.96113">
        <ele>1377</ele>
        <time>2020-07-11T14:31:27.015Z</time>
      </trkpt>
      <trkpt lat="45.76956" lon="2.96115">
        <ele>1376</ele>
        <time>2020-07-11T14:31:28.015Z</time>
      </trkpt>
      <trkpt lat="45.76953" lon="2.96117">
        <ele>1375</ele>
        <time>2020-07-11T14:31:29.015Z</time>
      </trkpt>
      <trkpt lat="45.7695" lon="2.96118">
        <ele>1374</ele>
        <time>2020-07-11T14:31:30.015Z</time>
      </trkpt>
      <trkpt lat="45.76947" lon="2.96119">
        <ele>1372</ele>
        <time>2020-07-11T14:31:31.015Z</time>
      </trkpt>
      <trkpt lat="45.76944" lon="2.9612">
        <ele>1372</ele>
        <time>2020-07-11T14:31:32.015Z</time>
      </trkpt>
      <trkpt lat="45.76942" lon="2.96121">
        <ele>1371</ele>
        <time>2020-07-11T14:31:33.015Z</time>
      </trkpt>
      <trkpt lat="45.76939" lon="2.96122">
        <ele>1371</ele>
        <time>2020-07-11T14:31:34.015Z</time>
      </trkpt>
      <trkpt lat="45.76938" lon="2.96122">
        <ele>1369</ele>
        <time>2020-07-11T14:31:35.015Z</time>
      </trkpt>
      <trkpt lat="45.76937" lon="2.96121">
        <ele>1371</ele>
        <time>2020-07-11T14:31:36.015Z</time>
      </trkpt>
      <trkpt lat="45.76937" lon="2.9612">
        <ele>1372</ele>
        <time>2020-07-11T14:31:37.015Z</time>
      </trkpt>
      <trkpt lat="45.76936" lon="2.9612">
        <ele>1372</ele>
        <time>2020-07-11T14:31:38.015Z</time>
      </trkpt>
      <trkpt lat="45.76935" lon="2.9612">
        <ele>1372</ele>
        <time>2020-07-11T14:31:39.015Z</time>
      </trkpt>
      <trkpt lat="45.76935" lon="2.96119">
        <ele>1372</ele>
        <time>2020-07-11T14:31:40.015Z</time>
      </trkpt>
      <trkpt lat="45.76934" lon="2.96119">
        <ele>1372</ele>
        <time>2020-07-11T14:31:41.015Z</time>
      </trkpt>
      <trkpt lat="45.76933" lon="2.96117">
        <ele>1371</ele>
        <time>2020-07-11T14:31:42.015Z</time>
      </trkpt>
      <trkpt lat="45.76931" lon="2.96115">
        <ele>1371</ele>
        <time>2020-07-11T14:31:43.015Z</time>
      </trkpt>
      <trkpt lat="45.7693" lon="2.96112">
        <ele>1370</ele>
        <time>2020-07-11T14:31:44.015Z</time>
      </trkpt>
      <trkpt lat="45.76929" lon="2.9611">
        <ele>1370</ele>
        <time>2020-07-11T14:31:45.015Z</time>
      </trkpt>
      <trkpt lat="45.76928" lon="2.96106">
        <ele>1369</ele>
        <time>2020-07-11T14:31:46.015Z</time>
      </trkpt>
      <trkpt lat="45.76927" lon="2.96103">
        <ele>1369</ele>
        <time>2020-07-11T14:31:47.015Z</time>
      </trkpt>
      <trkpt lat="45.76927" lon="2.96099">
        <ele>1368</ele>
        <time>2020-07-11T14:31:48.015Z</time>
      </trkpt>
      <trkpt lat="45.76927" lon="2.96095">
        <ele>1368</ele>
        <time>2020-07-11T14:31:49.015Z</time>
      </trkpt>
      <trkpt lat="45.76928" lon="2.96091">
        <ele>1367</ele>
        <time>2020-07-11T14:31:50.015Z</time>
      </trkpt>
      <trkpt lat="45.76929" lon="2.96087">
        <ele>1366</ele>
        <time>2020-07-11T14:31:51.015Z</time>
      </trkpt>
      <trkpt lat="45.7693" lon="2.96083">
        <ele>1366</ele>
        <time>2020-07-11T14:31:52.015Z</time>
      </trkpt>
      <trkpt lat="45.76932" lon="2.96081">
        <ele>1365</ele>
        <time>2020-07-11T14:31:53.015Z</time>
      </trkpt>
      <trkpt lat="45.76933" lon="2.96078">
        <ele>1365</ele>
        <time>2020-07-11T14:31:54.015Z</time>
      </trkpt>
      <trkpt lat="45.76934" lon="2.96078">
        <ele>1367</ele>
        <time>2020-07-11T14:31:55.015Z</time>
      </trkpt>
      <trkpt lat="45.76935" lon="2.96079">
        <ele>1366</ele>
        <time>2020-07-11T14:31:56.015Z</time>
      </trkpt>
      <trkpt lat="45.76935" lon="2.96079">
        <ele>1367</ele>
        <time>2020-07-11T14:31:57.015Z</time>
      </trkpt>
      <trkpt lat="45.76935" lon="2.96079">
        <ele>1367</ele>
        <time>2020-07-11T14:31:58.015Z</time>
      </trkpt>
      <trkpt lat="45.76935" lon="2.96079">
        <ele>1367</ele>
        <time>2020-07-11T14:31:59.015Z</time>
      </trkpt>
      <trkpt lat="45.76934" lon="2.96079">
        <ele>1367</ele>
        <time>2020-07-11T14:32:00.015Z</time>
      </trkpt>
      <trkpt lat="45.76934" lon="2.96081">
        <ele>1366</ele>
        <time>2020-07-11T14:32:01.015Z</time>
      </trkpt>
      <trkpt lat="45.76934" lon="2.96082">
        <ele>1367</ele>
        <time>2020-07-11T14:32:02.015Z</time>
      </trkpt>
      <trkpt lat="45.76935" lon="2.96082">
        <ele>1366</ele>
        <time>2020-07-11T14:32:03.015Z</time>
      </trkpt>
      <trkpt lat="45.76937" lon="2.96081">
        <ele>1365</ele>
        <time>2020-07-11T14:32:04.015Z</time>
      </trkpt>
      <trkpt lat="45.76939" lon="2.9608">
        <ele>1364</ele>
        <time>2020-07-11T14:32:05.015Z</time>
      </trkpt>
      <trkpt lat="45.76941" lon="2.96078">
        <ele>1364</ele>
        <time>2020-07-11T14:32:06.015Z</time>
      </trkpt>
      <trkpt lat="45.76943" lon="2.96076">
        <ele>1364</ele>
        <time>2020-07-11T14:32:07.015Z</time>
      </trkpt>
      <trkpt lat="45.76945" lon="2.96074">
        <ele>1363</ele>
        <time>2020-07-11T14:32:08.015Z</time>
      </trkpt>
      <trkpt lat="45.76948" lon="2.96071">
        <ele>1362</ele>
        <time>2020-07-11T14:32:09.015Z</time>
      </trkpt>
      <trkpt lat="45.7695" lon="2.96068">
        <ele>1362</ele>
        <time>2020-07-11T14:32:10.015Z</time>
      </trkpt>
      <trkpt lat="45.76952" lon="2.96066">
        <ele>1361</ele>
        <time>2020-07-11T14:32:11.015Z</time>
      </trkpt>
      <trkpt lat="45.76955" lon="2.96063">
        <ele>1362</ele>
        <time>2020-07-11T14:32:12.015Z</time>
      </trkpt>
      <trkpt lat="45.76957" lon="2.96059">
        <ele>1361</ele>
        <time>2020-07-11T14:32:13.015Z</time>
      </trkpt>
      <trkpt lat="45.7696" lon="2.96056">
        <ele>1361</ele>
        <time>2020-07-11T14:32:14.015Z</time>
      </trkpt>
      <trkpt lat="45.76962" lon="2.96053">
        <ele>1360</ele>
        <time>2020-07-11T14:32:15.015Z</time>
      </trkpt>
      <trkpt lat="45.76965" lon="2.9605">
        <ele>1360</ele>
        <time>2020-07-11T14:32:16.015Z</time>
      </trkpt>
      <trkpt lat="45.76968" lon="2.96047">
        <ele>1358</ele>
        <time>2020-07-11T14:32:17.015Z</time>
      </trkpt>
      <trkpt lat="45.76969" lon="2.96043">
        <ele>1357</ele>
        <time>2020-07-11T14:32:18.015Z</time>
      </trkpt>
      <trkpt lat="45.76971" lon="2.96039">
        <ele>1356</ele>
        <time>2020-07-11T14:32:19.015Z</time>
      </trkpt>
      <trkpt lat="45.76972" lon="2.96036">
        <ele>1356</ele>
        <time>2020-07-11T14:32:20.015Z</time>
      </trkpt>
      <trkpt lat="45.76973" lon="2.96032">
        <ele>1356</ele>
        <time>2020-07-11T14:32:21.015Z</time>
      </trkpt>
      <trkpt lat="45.76974" lon="2.9603">
        <ele>1355</ele>
        <time>2020-07-11T14:32:22.015Z</time>
      </trkpt>
      <trkpt lat="45.76974" lon="2.96027">
        <ele>1354</ele>
        <time>2020-07-11T14:32:23.015Z</time>
      </trkpt>
      <trkpt lat="45.76974" lon="2.96024">
        <ele>1353</ele>
        <time>2020-07-11T14:32:24.015Z</time>
      </trkpt>
      <trkpt lat="45.76974" lon="2.9602">
        <ele>1352</ele>
        <time>2020-07-11T14:32:25.015Z</time>
      </trkpt>
      <trkpt lat="45.76975" lon="2.96016">
        <ele>1351</ele>
        <time>2020-07-11T14:32:26.015Z</time>
      </trkpt>
      <trkpt lat="45.76975" lon="2.96012">
        <ele>1350</ele>
        <time>2020-07-11T14:32:27.015Z</time>
      </trkpt>
      <trkpt lat="45.76976" lon="2.96008">
        <ele>1350</ele>
        <time>2020-07-11T14:32:28.015Z</time>
      </trkpt>
      <trkpt lat="45.76977" lon="2.96005">
        <ele>1348</ele>
        <time>2020-07-11T14:32:29.015Z</time>
      </trkpt>
      <trkpt lat="45.76977" lon="2.96002">
        <ele>1347</ele>
        <time>2020-07-11T14:32:30.015Z</time>
      </trkpt>
      <trkpt lat="45.76976" lon="2.96">
        <ele>1345</ele>
        <time>2020-07-11T14:32:31.015Z</time>
      </trkpt>
      <trkpt lat="45.76975" lon="2.95999">
        <ele>1344</ele>
        <time>2020-07-11T14:32:32.015Z</time>
      </trkpt>
      <trkpt lat="45.76974" lon="2.95999">
        <ele>1343</ele>
        <time>2020-07-11T14:32:33.015Z</time>
      </trkpt>
      <trkpt lat="45.76972" lon="2.95999">
        <ele>1341</ele>
        <time>2020-07-11T14:32:34.015Z</time>
      </trkpt>
      <trkpt lat="45.7697" lon="2.96">
        <ele>1341</ele>
        <time>2020-07-11T14:32:35.015Z</time>
      </trkpt>
      <trkpt lat="45.76968" lon="2.96001">
        <ele>1340</ele>
        <time>2020-07-11T14:32:36.015Z</time>
      </trkpt>
      <trkpt lat="45.76966" lon="2.96002">
        <ele>1339</ele>
        <time>2020-07-11T14:32:37.015Z</time>
      </trkpt>
      <trkpt lat="45.76964" lon="2.96004">
        <ele>1340</ele>
        <time>2020-07-11T14:32:38.015Z</time>
      </trkpt>
      <trkpt lat="45.76962" lon="2.96005">
        <ele>1340</ele>
        <time>2020-07-11T14:32:39.015Z</time>
      </trkpt>
      <trkpt lat="45.76959" lon="2.96007">
        <ele>1339</ele>
        <time>2020-07-11T14:32:40.015Z</time>
      </trkpt>
      <trkpt lat="45.76957" lon="2.96009">
        <ele>1340</ele>
        <time>2020-07-11T14:32:41.015Z</time>
      </trkpt>
      <trkpt lat="45.76954" lon="2.96011">
        <ele>1339</ele>
        <time>2020-07-11T14:32:42.015Z</time>
      </trkpt>
      <trkpt lat="45.76951" lon="2.96013">
        <ele>1338</ele>
        <time>2020-07-11T14:32:43.015Z</time>
      </trkpt>
      <trkpt lat="45.76948" lon="2.96014">
        <ele>1337</ele>
        <time>2020-07-11T14:32:44.015Z</time>
      </trkpt>
      <trkpt lat="45.76945" lon="2.96015">
        <ele>1336</ele>
        <time>2020-07-11T14:32:45.015Z</time>
      </trkpt>
      <trkpt lat="45.76942" lon="2.96016">
        <ele>1334</ele>
        <time>2020-07-11T14:32:46.015Z</time>
      </trkpt>
      <trkpt lat="45.7694" lon="2.96017">
        <ele>1332</ele>
        <time>2020-07-11T14:32:47.015Z</time>
      </trkpt>
      <trkpt lat="45.76938" lon="2.96017">
        <ele>1330</ele>
        <time>2020-07-11T14:32:48.015Z</time>
      </trkpt>
      <trkpt lat="45.76938" lon="2.96018">
        <ele>1323</ele>
        <time>2020-07-11T14:32:49.015Z</time>
      </trkpt>
      <trkpt lat="45.76939" lon="2.96018">
        <ele>1321</ele>
        <time>2020-07-11T14:32:50.015Z</time>
      </trkpt>
      <trkpt lat="45.76941" lon="2.96018">
        <ele>1323</ele>
        <time>2020-07-11T14:32:51.015Z</time>
      </trkpt>
      <trkpt lat="45.76941" lon="2.96017">
        <ele>1322</ele>
        <time>2020-07-11T14:32:52.015Z</time>
      </trkpt>
      <trkpt lat="45.76942" lon="2.96017">
        <ele>1321</ele>
        <time>2020-07-11T14:32:53.015Z</time>
      </trkpt>
      <trkpt lat="45.76943" lon="2.96016">
        <ele>1321</ele>
        <time>2020-07-11T14:32:54.015Z</time>
      </trkpt>
      <trkpt lat="45.76944" lon="2.96017">
        <ele>1322</ele>
        <time>2020-07-11T14:32:55.015Z</time>
      </trkpt>
      <trkpt lat="45.76945" lon="2.96018">
        <ele>1322</ele>
        <time>2020-07-11T14:32:56.015Z</time>
      </trkpt>
      <trkpt lat="45.76945" lon="2.96019">
        <ele>1322</ele>
        <time>2020-07-11T14:32:57.015Z</time>
      </trkpt>
      <trkpt lat="45.76944" lon="2.96021">
        <ele>1322</ele>
        <time>2020-07-11T14:32:58.015Z</time>
      </trkpt>
      <trkpt lat="45.76944" lon="2.96021">
        <ele>1321</ele>
        <time>2020-07-11T14:32:59.015Z</time>
      </trkpt>
      <trkpt lat="45.76943" lon="2.96022">
        <ele>1321</ele>
        <time>2020-07-11T14:33:00.015Z</time>
      </trkpt>
      <trkpt lat="45.76943" lon="2.96023">
        <ele>1321</ele>
        <time>2020-07-11T14:33:01.015Z</time>
      </trkpt>
      <trkpt lat="45.76942" lon="2.96024">
        <ele>1321</ele>
        <time>2020-07-11T14:33:02.015Z</time>
      </trkpt>
      <trkpt lat="45.76942" lon="2.96024">
        <ele>1321</ele>
        <time>2020-07-11T14:33:03.015Z</time>
      </trkpt>
      <trkpt lat="45.76942" lon="2.96025">
        <ele>1321</ele>
        <time>2020-07-11T14:33:04.015Z</time>
      </trkpt>
      <trkpt lat="45.76941" lon="2.96026">
        <ele>1322</ele>
        <time>2020-07-11T14:33:05.015Z</time>
      </trkpt>
      <trkpt lat="45.76941" lon="2.96027">
        <ele>1323</ele>
        <time>2020-07-11T14:33:06.015Z</time>
      </trkpt>
      <trkpt lat="45.7694" lon="2.96027">
        <ele>1324</ele>
        <time>2020-07-11T14:33:07.015Z</time>
      </trkpt>
      <trkpt lat="45.7694" lon="2.96028">
        <ele>1324</ele>
        <time>2020-07-11T14:33:08.015Z</time>
      </trkpt>
      <trkpt lat="45.76939" lon="2.96029">
        <ele>1324</ele>
        <time>2020-07-11T14:33:09.015Z</time>
      </trkpt>
      <trkpt lat="45.76939" lon="2.96029">
        <ele>1326</ele>
        <time>2020-07-11T14:33:10.015Z</time>
      </trkpt>
      <trkpt lat="45.76939" lon="2.96031">
        <ele>1327</ele>
        <time>2020-07-11T14:33:11.015Z</time>
      </trkpt>
      <trkpt lat="45.7694" lon="2.96032">
        <ele>1327</ele>
        <time>2020-07-11T14:33:12.015Z</time>
      </trkpt>
      <trkpt lat="45.76941" lon="2.96034">
        <ele>1328</ele>
        <time>2020-07-11T14:33:13.015Z</time>
      </trkpt>
      <trkpt lat="45.76943" lon="2.96035">
        <ele>1329</ele>
        <time>2020-07-11T14:33:14.015Z</time>
      </trkpt>
      <trkpt lat="45.76943" lon="2.96035">
        <ele>1329</ele>
        <time>2020-07-11T14:33:15.015Z</time>
      </trkpt>
      <trkpt lat="45.76944" lon="2.96035">
        <ele>1331</ele>
        <time>2020-07-11T14:33:16.015Z</time>
      </trkpt>
      <trkpt lat="45.76945" lon="2.96034">
        <ele>1332</ele>
        <time>2020-07-11T14:33:17.015Z</time>
      </trkpt>
      <trkpt lat="45.76946" lon="2.96033">
        <ele>1334</ele>
        <time>2020-07-11T14:33:18.015Z</time>
      </trkpt>
      <trkpt lat="45.76947" lon="2.96031">
        <ele>1335</ele>
        <time>2020-07-11T14:33:19.015Z</time>
      </trkpt>
      <trkpt lat="45.76948" lon="2.96029">
        <ele>1336</ele>
        <time>2020-07-11T14:33:20.015Z</time>
      </trkpt>
      <trkpt lat="45.76949" lon="2.96028">
        <ele>1337</ele>
        <time>2020-07-11T14:33:21.015Z</time>
      </trkpt>
      <trkpt lat="45.7695" lon="2.96027">
        <ele>1339</ele>
        <time>2020-07-11T14:33:22.015Z</time>
      </trkpt>
      <trkpt lat="45.7695" lon="2.96026">
        <ele>1339</ele>
        <time>2020-07-11T14:33:23.015Z</time>
      </trkpt>
      <trkpt lat="45.76951" lon="2.96025">
        <ele>1340</ele>
        <time>2020-07-11T14:33:24.015Z</time>
      </trkpt>
      <trkpt lat="45.76952" lon="2.96025">
        <ele>1338</ele>
        <time>2020-07-11T14:33:25.015Z</time>
      </trkpt>
      <trkpt lat="45.76954" lon="2.96024">
        <ele>1338</ele>
        <time>2020-07-11T14:33:26.015Z</time>
      </trkpt>
      <trkpt lat="45.76955" lon="2.96023">
        <ele>1339</ele>
        <time>2020-07-11T14:33:27.015Z</time>
      </trkpt>
      <trkpt lat="45.76955" lon="2.96022">
        <ele>1339</ele>
        <time>2020-07-11T14:33:28.015Z</time>
      </trkpt>
      <trkpt lat="45.76957" lon="2.96022">
        <ele>1339</ele>
        <time>2020-07-11T14:33:29.015Z</time>
      </trkpt>
      <trkpt lat="45.76958" lon="2.96021">
        <ele>1340</ele>
        <time>2020-07-11T14:33:30.015Z</time>
      </trkpt>
      <trkpt lat="45.76959" lon="2.9602">
        <ele>1340</ele>
        <time>2020-07-11T14:33:31.015Z</time>
      </trkpt>
      <trkpt lat="45.7696" lon="2.96018">
        <ele>1340</ele>
        <time>2020-07-11T14:33:32.015Z</time>
      </trkpt>
      <trkpt lat="45.76961" lon="2.96017">
        <ele>1341</ele>
        <time>2020-07-11T14:33:33.015Z</time>
      </trkpt>
      <trkpt lat="45.76961" lon="2.96016">
        <ele>1341</ele>
        <time>2020-07-11T14:33:34.015Z</time>
      </trkpt>
      <trkpt lat="45.76962" lon="2.96015">
        <ele>1341</ele>
        <time>2020-07-11T14:33:35.015Z</time>
      </trkpt>
      <trkpt lat="45.76963" lon="2.96014">
        <ele>1342</ele>
        <time>2020-07-11T14:33:36.015Z</time>
      </trkpt>
      <trkpt lat="45.76964" lon="2.96013">
        <ele>1343</ele>
        <time>2020-07-11T14:33:37.015Z</time>
      </trkpt>
      <trkpt lat="45.76964" lon="2.96011">
        <ele>1343</ele>
        <time>2020-07-11T14:33:38.015Z</time>
      </trkpt>
      <trkpt lat="45.76964" lon="2.9601">
        <ele>1344</ele>
        <time>2020-07-11T14:33:39.015Z</time>
      </trkpt>
      <trkpt lat="45.76965" lon="2.96008">
        <ele>1344</ele>
        <time>2020-07-11T14:33:40.015Z</time>
      </trkpt>
      <trkpt lat="45.76965" lon="2.96007">
        <ele>1344</ele>
        <time>2020-07-11T14:33:41.015Z</time>
      </trkpt>
      <trkpt lat="45.76965" lon="2.96006">
        <ele>1345</ele>
        <time>2020-07-11T14:33:42.015Z</time>
      </trkpt>
      <trkpt lat="45.76966" lon="2.96005">
        <ele>1345</ele>
        <time>2020-07-11T14:33:43.015Z</time>
      </trkpt>
      <trkpt lat="45.76967" lon="2.96004">
        <ele>1345</ele>
        <time>2020-07-11T14:33:44.015Z</time>
      </trkpt>
      <trkpt lat="45.76968" lon="2.96004">
        <ele>1346</ele>
        <time>2020-07-11T14:33:45.015Z</time>
      </trkpt>
      <trkpt lat="45.76968" lon="2.96003">
        <ele>1346</ele>
        <time>2020-07-11T14:33:46.015Z</time>
      </trkpt>
      <trkpt lat="45.76969" lon="2.96002">
        <ele>1346</ele>
        <time>2020-07-11T14:33:47.015Z</time>
      </trkpt>
      <trkpt lat="45.7697" lon="2.96001">
        <ele>1347</ele>
        <time>2020-07-11T14:33:48.015Z</time>
      </trkpt>
      <trkpt lat="45.7697" lon="2.96">
        <ele>1347</ele>
        <time>2020-07-11T14:33:49.015Z</time>
      </trkpt>
      <trkpt lat="45.76971" lon="2.95999">
        <ele>1347</ele>
        <time>2020-07-11T14:33:50.015Z</time>
      </trkpt>
      <trkpt lat="45.76972" lon="2.95998">
        <ele>1347</ele>
        <time>2020-07-11T14:33:51.015Z</time>
      </trkpt>
      <trkpt lat="45.76973" lon="2.95997">
        <ele>1347</ele>
        <time>2020-07-11T14:33:52.015Z</time>
      </trkpt>
      <trkpt lat="45.76974" lon="2.95996">
        <ele>1348</ele>
        <time>2020-07-11T14:33:53.015Z</time>
      </trkpt>
      <trkpt lat="45.76975" lon="2.95995">
        <ele>1348</ele>
        <time>2020-07-11T14:33:54.015Z</time>
      </trkpt>
      <trkpt lat="45.76976" lon="2.95995">
        <ele>1348</ele>
        <time>2020-07-11T14:33:55.015Z</time>
      </trkpt>
      <trkpt lat="45.76977" lon="2.95995">
        <ele>1349</ele>
        <time>2020-07-11T14:33:56.015Z</time>
      </trkpt>
      <trkpt lat="45.76978" lon="2.95996">
        <ele>1349</ele>
        <time>2020-07-11T14:33:57.015Z</time>
      </trkpt>
      <trkpt lat="45.76979" lon="2.95997">
        <ele>1349</ele>
        <time>2020-07-11T14:33:58.015Z</time>
      </trkpt>
      <trkpt lat="45.7698" lon="2.95998">
        <ele>1349</ele>
        <time>2020-07-11T14:33:59.015Z</time>
      </trkpt>
      <trkpt lat="45.76981" lon="2.95999">
        <ele>1349</ele>
        <time>2020-07-11T14:34:00.015Z</time>
      </trkpt>
      <trkpt lat="45.76981" lon="2.96">
        <ele>1350</ele>
        <time>2020-07-11T14:34:01.015Z</time>
      </trkpt>
      <trkpt lat="45.76981" lon="2.96001">
        <ele>1350</ele>
        <time>2020-07-11T14:34:02.015Z</time>
      </trkpt>
      <trkpt lat="45.76982" lon="2.96002">
        <ele>1351</ele>
        <time>2020-07-11T14:34:03.015Z</time>
      </trkpt>
      <trkpt lat="45.76981" lon="2.96003">
        <ele>1351</ele>
        <time>2020-07-11T14:34:04.015Z</time>
      </trkpt>
      <trkpt lat="45.76981" lon="2.96004">
        <ele>1351</ele>
        <time>2020-07-11T14:34:05.015Z</time>
      </trkpt>
      <trkpt lat="45.76981" lon="2.96005">
        <ele>1352</ele>
        <time>2020-07-11T14:34:06.015Z</time>
      </trkpt>
      <trkpt lat="45.76981" lon="2.96007">
        <ele>1353</ele>
        <time>2020-07-11T14:34:07.015Z</time>
      </trkpt>
      <trkpt lat="45.7698" lon="2.96008">
        <ele>1353</ele>
        <time>2020-07-11T14:34:08.015Z</time>
      </trkpt>
      <trkpt lat="45.7698" lon="2.96009">
        <ele>1353</ele>
        <time>2020-07-11T14:34:09.015Z</time>
      </trkpt>
      <trkpt lat="45.7698" lon="2.9601">
        <ele>1353</ele>
        <time>2020-07-11T14:34:10.015Z</time>
      </trkpt>
      <trkpt lat="45.7698" lon="2.96011">
        <ele>1353</ele>
        <time>2020-07-11T14:34:11.015Z</time>
      </trkpt>
      <trkpt lat="45.7698" lon="2.96012">
        <ele>1354</ele>
        <time>2020-07-11T14:34:12.015Z</time>
      </trkpt>
      <trkpt lat="45.7698" lon="2.96013">
        <ele>1355</ele>
        <time>2020-07-11T14:34:13.015Z</time>
      </trkpt>
      <trkpt lat="45.76979" lon="2.96014">
        <ele>1355</ele>
        <time>2020-07-11T14:34:14.015Z</time>
      </trkpt>
      <trkpt lat="45.76978" lon="2.96014">
        <ele>1356</ele>
        <time>2020-07-11T14:34:15.015Z</time>
      </trkpt>
      <trkpt lat="45.76978" lon="2.96016">
        <ele>1357</ele>
        <time>2020-07-11T14:34:16.015Z</time>
      </trkpt>
      <trkpt lat="45.76977" lon="2.96017">
        <ele>1358</ele>
        <time>2020-07-11T14:34:17.015Z</time>
      </trkpt>
      <trkpt lat="45.76977" lon="2.96018">
        <ele>1357</ele>
        <time>2020-07-11T14:34:18.015Z</time>
      </trkpt>
      <trkpt lat="45.76977" lon="2.9602">
        <ele>1357</ele>
        <time>2020-07-11T14:34:19.015Z</time>
      </trkpt>
      <trkpt lat="45.76977" lon="2.96022">
        <ele>1358</ele>
        <time>2020-07-11T14:34:20.015Z</time>
      </trkpt>
      <trkpt lat="45.76977" lon="2.96023">
        <ele>1359</ele>
        <time>2020-07-11T14:34:21.015Z</time>
      </trkpt>
      <trkpt lat="45.76977" lon="2.96025">
        <ele>1359</ele>
        <time>2020-07-11T14:34:22.015Z</time>
      </trkpt>
      <trkpt lat="45.76977" lon="2.96027">
        <ele>1360</ele>
        <time>2020-07-11T14:34:23.015Z</time>
      </trkpt>
      <trkpt lat="45.76978" lon="2.96028">
        <ele>1359</ele>
        <time>2020-07-11T14:34:24.015Z</time>
      </trkpt>
      <trkpt lat="45.76978" lon="2.9603">
        <ele>1360</ele>
        <time>2020-07-11T14:34:25.015Z</time>
      </trkpt>
      <trkpt lat="45.76977" lon="2.96031">
        <ele>1361</ele>
        <time>2020-07-11T14:34:26.015Z</time>
      </trkpt>
      <trkpt lat="45.76977" lon="2.96032">
        <ele>1361</ele>
        <time>2020-07-11T14:34:27.015Z</time>
      </trkpt>
      <trkpt lat="45.76976" lon="2.96033">
        <ele>1362</ele>
        <time>2020-07-11T14:34:28.015Z</time>
      </trkpt>
      <trkpt lat="45.76976" lon="2.96035">
        <ele>1360</ele>
        <time>2020-07-11T14:34:29.015Z</time>
      </trkpt>
      <trkpt lat="45.76976" lon="2.96037">
        <ele>1360</ele>
        <time>2020-07-11T14:34:30.015Z</time>
      </trkpt>
      <trkpt lat="45.76975" lon="2.96039">
        <ele>1361</ele>
        <time>2020-07-11T14:34:31.015Z</time>
      </trkpt>
      <trkpt lat="45.76974" lon="2.96041">
        <ele>1362</ele>
        <time>2020-07-11T14:34:32.015Z</time>
      </trkpt>
      <trkpt lat="45.76973" lon="2.96043">
        <ele>1362</ele>
        <time>2020-07-11T14:34:33.015Z</time>
      </trkpt>
      <trkpt lat="45.76972" lon="2.96045">
        <ele>1361</ele>
        <time>2020-07-11T14:34:34.015Z</time>
      </trkpt>
      <trkpt lat="45.76971" lon="2.96046">
        <ele>1361</ele>
        <time>2020-07-11T14:34:35.015Z</time>
      </trkpt>
      <trkpt lat="45.7697" lon="2.96048">
        <ele>1361</ele>
        <time>2020-07-11T14:34:36.015Z</time>
      </trkpt>
      <trkpt lat="45.7697" lon="2.96049">
        <ele>1361</ele>
        <time>2020-07-11T14:34:37.015Z</time>
      </trkpt>
      <trkpt lat="45.76969" lon="2.96051">
        <ele>1361</ele>
        <time>2020-07-11T14:34:38.015Z</time>
      </trkpt>
      <trkpt lat="45.76968" lon="2.96053">
        <ele>1362</ele>
        <time>2020-07-11T14:34:39.015Z</time>
      </trkpt>
      <trkpt lat="45.76968" lon="2.96054">
        <ele>1362</ele>
        <time>2020-07-11T14:34:40.015Z</time>
      </trkpt>
      <trkpt lat="45.76966" lon="2.96055">
        <ele>1363</ele>
        <time>2020-07-11T14:34:41.015Z</time>
      </trkpt>
      <trkpt lat="45.76965" lon="2.96056">
        <ele>1362</ele>
        <time>2020-07-11T14:34:42.015Z</time>
      </trkpt>
      <trkpt lat="45.76964" lon="2.96057">
        <ele>1362</ele>
        <time>2020-07-11T14:34:43.015Z</time>
      </trkpt>
      <trkpt lat="45.76963" lon="2.96058">
        <ele>1363</ele>
        <time>2020-07-11T14:34:44.015Z</time>
      </trkpt>
      <trkpt lat="45.76961" lon="2.9606">
        <ele>1363</ele>
        <time>2020-07-11T14:34:45.015Z</time>
      </trkpt>
      <trkpt lat="45.7696" lon="2.96061">
        <ele>1363</ele>
        <time>2020-07-11T14:34:46.015Z</time>
      </trkpt>
      <trkpt lat="45.76959" lon="2.96062">
        <ele>1362</ele>
        <time>2020-07-11T14:34:47.015Z</time>
      </trkpt>
      <trkpt lat="45.76958" lon="2.96063">
        <ele>1363</ele>
        <time>2020-07-11T14:34:48.015Z</time>
      </trkpt>
      <trkpt lat="45.76957" lon="2.96064">
        <ele>1363</ele>
        <time>2020-07-11T14:34:49.015Z</time>
      </trkpt>
      <trkpt lat="45.76956" lon="2.96065">
        <ele>1363</ele>
        <time>2020-07-11T14:34:50.015Z</time>
      </trkpt>
      <trkpt lat="45.76955" lon="2.96066">
        <ele>1363</ele>
        <time>2020-07-11T14:34:51.015Z</time>
      </trkpt>
      <trkpt lat="45.76954" lon="2.96067">
        <ele>1363</ele>
        <time>2020-07-11T14:34:52.015Z</time>
      </trkpt>
      <trkpt lat="45.76953" lon="2.96069">
        <ele>1364</ele>
        <time>2020-07-11T14:34:53.015Z</time>
      </trkpt>
      <trkpt lat="45.76951" lon="2.9607">
        <ele>1365</ele>
        <time>2020-07-11T14:34:54.015Z</time>
      </trkpt>
      <trkpt lat="45.7695" lon="2.96072">
        <ele>1365</ele>
        <time>2020-07-11T14:34:55.015Z</time>
      </trkpt>
      <trkpt lat="45.76948" lon="2.96074">
        <ele>1366</ele>
        <time>2020-07-11T14:34:56.015Z</time>
      </trkpt>
      <trkpt lat="45.76947" lon="2.96075">
        <ele>1366</ele>
        <time>2020-07-11T14:34:57.015Z</time>
      </trkpt>
      <trkpt lat="45.76946" lon="2.96076">
        <ele>1366</ele>
        <time>2020-07-11T14:34:58.015Z</time>
      </trkpt>
      <trkpt lat="45.76944" lon="2.96078">
        <ele>1366</ele>
        <time>2020-07-11T14:34:59.015Z</time>
      </trkpt>
      <trkpt lat="45.76943" lon="2.96079">
        <ele>1366</ele>
        <time>2020-07-11T14:35:00.015Z</time>
      </trkpt>
      <trkpt lat="45.76942" lon="2.9608">
        <ele>1367</ele>
        <time>2020-07-11T14:35:01.015Z</time>
      </trkpt>
      <trkpt lat="45.7694" lon="2.96082">
        <ele>1368</ele>
        <time>2020-07-11T14:35:02.015Z</time>
      </trkpt>
      <trkpt lat="45.76939" lon="2.96083">
        <ele>1367</ele>
        <time>2020-07-11T14:35:03.015Z</time>
      </trkpt>
      <trkpt lat="45.76937" lon="2.96085">
        <ele>1367</ele>
        <time>2020-07-11T14:35:04.015Z</time>
      </trkpt>
      <trkpt lat="45.76936" lon="2.96087">
        <ele>1368</ele>
        <time>2020-07-11T14:35:05.015Z</time>
      </trkpt>
      <trkpt lat="45.76934" lon="2.96089">
        <ele>1368</ele>
        <time>2020-07-11T14:35:06.015Z</time>
      </trkpt>
      <trkpt lat="45.76933" lon="2.96091">
        <ele>1367</ele>
        <time>2020-07-11T14:35:07.015Z</time>
      </trkpt>
      <trkpt lat="45.76932" lon="2.96094">
        <ele>1368</ele>
        <time>2020-07-11T14:35:08.015Z</time>
      </trkpt>
      <trkpt lat="45.76931" lon="2.96095">
        <ele>1368</ele>
        <time>2020-07-11T14:35:09.015Z</time>
      </trkpt>
      <trkpt lat="45.7693" lon="2.96098">
        <ele>1369</ele>
        <time>2020-07-11T14:35:10.015Z</time>
      </trkpt>
      <trkpt lat="45.7693" lon="2.961">
        <ele>1370</ele>
        <time>2020-07-11T14:35:11.015Z</time>
      </trkpt>
      <trkpt lat="45.76929" lon="2.96102">
        <ele>1370</ele>
        <time>2020-07-11T14:35:12.015Z</time>
      </trkpt>
      <trkpt lat="45.76929" lon="2.96105">
        <ele>1370</ele>
        <time>2020-07-11T14:35:13.015Z</time>
      </trkpt>
      <trkpt lat="45.76928" lon="2.96107">
        <ele>1370</ele>
        <time>2020-07-11T14:35:14.015Z</time>
      </trkpt>
      <trkpt lat="45.76928" lon="2.96109">
        <ele>1370</ele>
        <time>2020-07-11T14:35:15.015Z</time>
      </trkpt>
      <trkpt lat="45.76928" lon="2.9611">
        <ele>1371</ele>
        <time>2020-07-11T14:35:16.015Z</time>
      </trkpt>
      <trkpt lat="45.76928" lon="2.96112">
        <ele>1372</ele>
        <time>2020-07-11T14:35:17.015Z</time>
      </trkpt>
      <trkpt lat="45.76929" lon="2.96114">
        <ele>1373</ele>
        <time>2020-07-11T14:35:18.015Z</time>
      </trkpt>
      <trkpt lat="45.7693" lon="2.96116">
        <ele>1373</ele>
        <time>2020-07-11T14:35:19.015Z</time>
      </trkpt>
      <trkpt lat="45.76932" lon="2.96118">
        <ele>1374</ele>
        <time>2020-07-11T14:35:20.015Z</time>
      </trkpt>
      <trkpt lat="45.76933" lon="2.9612">
        <ele>1374</ele>
        <time>2020-07-11T14:35:21.015Z</time>
      </trkpt>
      <trkpt lat="45.76934" lon="2.96121">
        <ele>1374</ele>
        <time>2020-07-11T14:35:22.015Z</time>
      </trkpt>
      <trkpt lat="45.76934" lon="2.96122">
        <ele>1374</ele>
        <time>2020-07-11T14:35:23.015Z</time>
      </trkpt>
      <trkpt lat="45.76935" lon="2.96123">
        <ele>1374</ele>
        <time>2020-07-11T14:35:24.015Z</time>
      </trkpt>
      <trkpt lat="45.76936" lon="2.96123">
        <ele>1374</ele>
        <time>2020-07-11T14:35:25.015Z</time>
      </trkpt>
      <trkpt lat="45.76937" lon="2.96123">
        <ele>1374</ele>
        <time>2020-07-11T14:35:26.015Z</time>
      </trkpt>
      <trkpt lat="45.76938" lon="2.96124">
        <ele>1373</ele>
        <time>2020-07-11T14:35:27.015Z</time>
      </trkpt>
      <trkpt lat="45.76939" lon="2.96124">
        <ele>1373</ele>
        <time>2020-07-11T14:35:28.015Z</time>
      </trkpt>
      <trkpt lat="45.7694" lon="2.96123">
        <ele>1373</ele>
        <time>2020-07-11T14:35:29.015Z</time>
      </trkpt>
      <trkpt lat="45.76941" lon="2.96123">
        <ele>1373</ele>
        <time>2020-07-11T14:35:30.015Z</time>
      </trkpt>
      <trkpt lat="45.76942" lon="2.96123">
        <ele>1373</ele>
        <time>2020-07-11T14:35:31.015Z</time>
      </trkpt>
      <trkpt lat="45.76942" lon="2.96122">
        <ele>1373</ele>
        <time>2020-07-11T14:35:32.015Z</time>
      </trkpt>
      <trkpt lat="45.76943" lon="2.96121">
        <ele>1373</ele>
        <time>2020-07-11T14:35:33.015Z</time>
      </trkpt>
      <trkpt lat="45.76944" lon="2.96121">
        <ele>1374</ele>
        <time>2020-07-11T14:35:34.015Z</time>
      </trkpt>
      <trkpt lat="45.76945" lon="2.9612">
        <ele>1373</ele>
        <time>2020-07-11T14:35:35.015Z</time>
      </trkpt>
      <trkpt lat="45.76946" lon="2.9612">
        <ele>1374</ele>
        <time>2020-07-11T14:35:36.015Z</time>
      </trkpt>
      <trkpt lat="45.76947" lon="2.96119">
        <ele>1374</ele>
        <time>2020-07-11T14:35:37.015Z</time>
      </trkpt>
      <trkpt lat="45.76948" lon="2.96119">
        <ele>1374</ele>
        <time>2020-07-11T14:35:38.015Z</time>
      </trkpt>
      <trkpt lat="45.76949" lon="2.96118">
        <ele>1375</ele>
        <time>2020-07-11T14:35:39.015Z</time>
      </trkpt>
      <trkpt lat="45.76949" lon="2.96118">
        <ele>1375</ele>
        <time>2020-07-11T14:35:40.015Z</time>
      </trkpt>
      <trkpt lat="45.7695" lon="2.96117">
        <ele>1375</ele>
        <time>2020-07-11T14:35:41.015Z</time>
      </trkpt>
      <trkpt lat="45.76951" lon="2.96117">
        <ele>1376</ele>
        <time>2020-07-11T14:35:42.015Z</time>
      </trkpt>
      <trkpt lat="45.76952" lon="2.96116">
        <ele>1376</ele>
        <time>2020-07-11T14:35:43.015Z</time>
      </trkpt>
      <trkpt lat="45.76953" lon="2.96115">
        <ele>1376</ele>
        <time>2020-07-11T14:35:44.015Z</time>
      </trkpt>
      <trkpt lat="45.76954" lon="2.96115">
        <ele>1376</ele>
        <time>2020-07-11T14:35:45.015Z</time>
      </trkpt>
      <trkpt lat="45.76955" lon="2.96115">
        <ele>1377</ele>
        <time>2020-07-11T14:35:46.015Z</time>
      </trkpt>
      <trkpt lat="45.76956" lon="2.96114">
        <ele>1377</ele>
        <time>2020-07-11T14:35:47.015Z</time>
      </trkpt>
      <trkpt lat="45.76957" lon="2.96114">
        <ele>1378</ele>
        <time>2020-07-11T14:35:48.015Z</time>
      </trkpt>
      <trkpt lat="45.76958" lon="2.96113">
        <ele>1378</ele>
        <time>2020-07-11T14:35:49.015Z</time>
      </trkpt>
      <trkpt lat="45.76959" lon="2.96113">
        <ele>1378</ele>
        <time>2020-07-11T14:35:50.015Z</time>
      </trkpt>
      <trkpt lat="45.76959" lon="2.96113">
        <ele>1379</ele>
        <time>2020-07-11T14:35:51.015Z</time>
      </trkpt>
      <trkpt lat="45.7696" lon="2.96113">
        <ele>1379</ele>
        <time>2020-07-11T14:35:52.015Z</time>
      </trkpt>
      <trkpt lat="45.76961" lon="2.96112">
        <ele>1380</ele>
        <time>2020-07-11T14:35:53.015Z</time>
      </trkpt>
      <trkpt lat="45.76962" lon="2.96112">
        <ele>1380</ele>
        <time>2020-07-11T14:35:54.015Z</time>
      </trkpt>
      <trkpt lat="45.76963" lon="2.96111">
        <ele>1380</ele>
        <time>2020-07-11T14:35:55.015Z</time>
      </trkpt>
      <trkpt lat="45.76963" lon="2.96111">
        <ele>1380</ele>
        <time>2020-07-11T14:35:56.015Z</time>
      </trkpt>
      <trkpt lat="45.76964" lon="2.9611">
        <ele>1380</ele>
        <time>2020-07-11T14:35:57.015Z</time>
      </trkpt>
      <trkpt lat="45.76965" lon="2.96109">
        <ele>1380</ele>
        <time>2020-07-11T14:35:58.015Z</time>
      </trkpt>
      <trkpt lat="45.76966" lon="2.96108">
        <ele>1381</ele>
        <time>2020-07-11T14:35:59.015Z</time>
      </trkpt>
      <trkpt lat="45.76966" lon="2.96107">
        <ele>1381</ele>
        <time>2020-07-11T14:36:00.015Z</time>
      </trkpt>
      <trkpt lat="45.76967" lon="2.96107">
        <ele>1381</ele>
        <time>2020-07-11T14:36:01.015Z</time>
      </trkpt>
      <trkpt lat="45.76968" lon="2.96106">
        <ele>1382</ele>
        <time>2020-07-11T14:36:02.015Z</time>
      </trkpt>
      <trkpt lat="45.76969" lon="2.96105">
        <ele>1382</ele>
        <time>2020-07-11T14:36:03.015Z</time>
      </trkpt>
      <trkpt lat="45.7697" lon="2.96105">
        <ele>1382</ele>
        <time>2020-07-11T14:36:04.015Z</time>
      </trkpt>
      <trkpt lat="45.7697" lon="2.96104">
        <ele>1383</ele>
        <time>2020-07-11T14:36:05.015Z</time>
      </trkpt>
      <trkpt lat="45.76971" lon="2.96103">
        <ele>1383</ele>
        <time>2020-07-11T14:36:06.015Z</time>
      </trkpt>
      <trkpt lat="45.76972" lon="2.96102">
        <ele>1383</ele>
        <time>2020-07-11T14:36:07.015Z</time>
      </trkpt>
      <trkpt lat="45.76973" lon="2.96102">
        <ele>1385</ele>
        <time>2020-07-11T14:36:08.015Z</time>
      </trkpt>
      <trkpt lat="45.76974" lon="2.96101">
        <ele>1385</ele>
        <time>2020-07-11T14:36:09.015Z</time>
      </trkpt>
      <trkpt lat="45.76975" lon="2.961">
        <ele>1386</ele>
        <time>2020-07-11T14:36:10.015Z</time>
      </trkpt>
      <trkpt lat="45.76976" lon="2.961">
        <ele>1386</ele>
        <time>2020-07-11T14:36:11.015Z</time>
      </trkpt>
      <trkpt lat="45.76977" lon="2.961">
        <ele>1386</ele>
        <time>2020-07-11T14:36:12.015Z</time>
      </trkpt>
      <trkpt lat="45.76978" lon="2.961">
        <ele>1386</ele>
        <time>2020-07-11T14:36:13.015Z</time>
      </trkpt>
      <trkpt lat="45.76979" lon="2.96099">
        <ele>1386</ele>
        <time>2020-07-11T14:36:14.015Z</time>
      </trkpt>
      <trkpt lat="45.7698" lon="2.96099">
        <ele>1387</ele>
        <time>2020-07-11T14:36:15.015Z</time>
      </trkpt>
      <trkpt lat="45.76981" lon="2.96098">
        <ele>1387</ele>
        <time>2020-07-11T14:36:16.015Z</time>
      </trkpt>
      <trkpt lat="45.76982" lon="2.96097">
        <ele>1387</ele>
        <time>2020-07-11T14:36:17.015Z</time>
      </trkpt>
      <trkpt lat="45.76983" lon="2.96096">
        <ele>1388</ele>
        <time>2020-07-11T14:36:18.015Z</time>
      </trkpt>
      <trkpt lat="45.76985" lon="2.96096">
        <ele>1389</ele>
        <time>2020-07-11T14:36:19.015Z</time>
      </trkpt>
      <trkpt lat="45.76986" lon="2.96095">
        <ele>1389</ele>
        <time>2020-07-11T14:36:20.015Z</time>
      </trkpt>
      <trkpt lat="45.76986" lon="2.96094">
        <ele>1389</ele>
        <time>2020-07-11T14:36:21.015Z</time>
      </trkpt>
      <trkpt lat="45.76987" lon="2.96093">
        <ele>1389</ele>
        <time>2020-07-11T14:36:22.015Z</time>
      </trkpt>
      <trkpt lat="45.76988" lon="2.96092">
        <ele>1389</ele>
        <time>2020-07-11T14:36:23.015Z</time>
      </trkpt>
      <trkpt lat="45.76988" lon="2.96091">
        <ele>1390</ele>
        <time>2020-07-11T14:36:24.015Z</time>
      </trkpt>
      <trkpt lat="45.76989" lon="2.9609">
        <ele>1390</ele>
        <time>2020-07-11T14:36:25.015Z</time>
      </trkpt>
      <trkpt lat="45.7699" lon="2.96089">
        <ele>1390</ele>
        <time>2020-07-11T14:36:26.015Z</time>
      </trkpt>
      <trkpt lat="45.7699" lon="2.96088">
        <ele>1390</ele>
        <time>2020-07-11T14:36:27.015Z</time>
      </trkpt>
      <trkpt lat="45.76991" lon="2.96087">
        <ele>1390</ele>
        <time>2020-07-11T14:36:28.015Z</time>
      </trkpt>
      <trkpt lat="45.76993" lon="2.96086">
        <ele>1390</ele>
        <time>2020-07-11T14:36:29.015Z</time>
      </trkpt>
      <trkpt lat="45.76994" lon="2.96086">
        <ele>1391</ele>
        <time>2020-07-11T14:36:30.015Z</time>
      </trkpt>
      <trkpt lat="45.76995" lon="2.96086">
        <ele>1392</ele>
        <time>2020-07-11T14:36:31.015Z</time>
      </trkpt>
      <trkpt lat="45.76996" lon="2.96085">
        <ele>1392</ele>
        <time>2020-07-11T14:36:32.015Z</time>
      </trkpt>
      <trkpt lat="45.76996" lon="2.96085">
        <ele>1393</ele>
        <time>2020-07-11T14:36:33.015Z</time>
      </trkpt>
      <trkpt lat="45.76997" lon="2.96085">
        <ele>1393</ele>
        <time>2020-07-11T14:36:34.015Z</time>
      </trkpt>
      <trkpt lat="45.76998" lon="2.96084">
        <ele>1393</ele>
        <time>2020-07-11T14:36:35.015Z</time>
      </trkpt>
      <trkpt lat="45.76999" lon="2.96084">
        <ele>1393</ele>
        <time>2020-07-11T14:36:36.015Z</time>
      </trkpt>
      <trkpt lat="45.76999" lon="2.96083">
        <ele>1393</ele>
        <time>2020-07-11T14:36:37.015Z</time>
      </trkpt>
      <trkpt lat="45.77" lon="2.96083">
        <ele>1394</ele>
        <time>2020-07-11T14:36:38.015Z</time>
      </trkpt>
      <trkpt lat="45.77001" lon="2.96082">
        <ele>1394</ele>
        <time>2020-07-11T14:36:39.015Z</time>
      </trkpt>
      <trkpt lat="45.77002" lon="2.96082">
        <ele>1395</ele>
        <time>2020-07-11T14:36:40.015Z</time>
      </trkpt>
      <trkpt lat="45.77003" lon="2.96082">
        <ele>1394</ele>
        <time>2020-07-11T14:36:41.015Z</time>
      </trkpt>
      <trkpt lat="45.77004" lon="2.96083">
        <ele>1394</ele>
        <time>2020-07-11T14:36:42.015Z</time>
      </trkpt>
      <trkpt lat="45.77005" lon="2.96084">
        <ele>1393</ele>
        <time>2020-07-11T14:36:43.015Z</time>
      </trkpt>
      <trkpt lat="45.77006" lon="2.96085">
        <ele>1393</ele>
        <time>2020-07-11T14:36:44.015Z</time>
      </trkpt>
      <trkpt lat="45.77007" lon="2.96086">
        <ele>1393</ele>
        <time>2020-07-11T14:36:45.015Z</time>
      </trkpt>
      <trkpt lat="45.77008" lon="2.96087">
        <ele>1393</ele>
        <time>2020-07-11T14:36:46.015Z</time>
      </trkpt>
      <trkpt lat="45.77009" lon="2.96089">
        <ele>1394</ele>
        <time>2020-07-11T14:36:47.015Z</time>
      </trkpt>
      <trkpt lat="45.7701" lon="2.9609">
        <ele>1394</ele>
        <time>2020-07-11T14:36:48.015Z</time>
      </trkpt>
      <trkpt lat="45.77011" lon="2.96091">
        <ele>1394</ele>
        <time>2020-07-11T14:36:49.015Z</time>
      </trkpt>
      <trkpt lat="45.77011" lon="2.96092">
        <ele>1396</ele>
        <time>2020-07-11T14:36:50.015Z</time>
      </trkpt>
      <trkpt lat="45.77012" lon="2.96093">
        <ele>1396</ele>
        <time>2020-07-11T14:36:51.015Z</time>
      </trkpt>
      <trkpt lat="45.77013" lon="2.96095">
        <ele>1396</ele>
        <time>2020-07-11T14:36:52.015Z</time>
      </trkpt>
      <trkpt lat="45.77013" lon="2.96097">
        <ele>1396</ele>
        <time>2020-07-11T14:36:53.015Z</time>
      </trkpt>
      <trkpt lat="45.77014" lon="2.96099">
        <ele>1396</ele>
        <time>2020-07-11T14:36:54.015Z</time>
      </trkpt>
      <trkpt lat="45.77015" lon="2.96102">
        <ele>1396</ele>
        <time>2020-07-11T14:36:55.015Z</time>
      </trkpt>
      <trkpt lat="45.77015" lon="2.96104">
        <ele>1397</ele>
        <time>2020-07-11T14:36:56.015Z</time>
      </trkpt>
      <trkpt lat="45.77016" lon="2.96106">
        <ele>1397</ele>
        <time>2020-07-11T14:36:57.015Z</time>
      </trkpt>
      <trkpt lat="45.77017" lon="2.96108">
        <ele>1398</ele>
        <time>2020-07-11T14:36:58.015Z</time>
      </trkpt>
      <trkpt lat="45.77017" lon="2.9611">
        <ele>1399</ele>
        <time>2020-07-11T14:36:59.015Z</time>
      </trkpt>
      <trkpt lat="45.77018" lon="2.96113">
        <ele>1399</ele>
        <time>2020-07-11T14:37:00.015Z</time>
      </trkpt>
      <trkpt lat="45.77019" lon="2.96115">
        <ele>1399</ele>
        <time>2020-07-11T14:37:01.015Z</time>
      </trkpt>
      <trkpt lat="45.7702" lon="2.96117">
        <ele>1400</ele>
        <time>2020-07-11T14:37:02.015Z</time>
      </trkpt>
      <trkpt lat="45.77021" lon="2.96119">
        <ele>1400</ele>
        <time>2020-07-11T14:37:03.015Z</time>
      </trkpt>
      <trkpt lat="45.77022" lon="2.96122">
        <ele>1400</ele>
        <time>2020-07-11T14:37:04.015Z</time>
      </trkpt>
      <trkpt lat="45.77023" lon="2.96124">
        <ele>1400</ele>
        <time>2020-07-11T14:37:05.015Z</time>
      </trkpt>
      <trkpt lat="45.77024" lon="2.96126">
        <ele>1400</ele>
        <time>2020-07-11T14:37:06.015Z</time>
      </trkpt>
      <trkpt lat="45.77025" lon="2.96128">
        <ele>1400</ele>
        <time>2020-07-11T14:37:07.015Z</time>
      </trkpt>
      <trkpt lat="45.77026" lon="2.96129">
        <ele>1400</ele>
        <time>2020-07-11T14:37:08.015Z</time>
      </trkpt>
      <trkpt lat="45.77027" lon="2.96131">
        <ele>1400</ele>
        <time>2020-07-11T14:37:09.015Z</time>
      </trkpt>
      <trkpt lat="45.77028" lon="2.96132">
        <ele>1400</ele>
        <time>2020-07-11T14:37:10.015Z</time>
      </trkpt>
      <trkpt lat="45.77029" lon="2.96134">
        <ele>1400</ele>
        <time>2020-07-11T14:37:11.015Z</time>
      </trkpt>
      <trkpt lat="45.7703" lon="2.96136">
        <ele>1400</ele>
        <time>2020-07-11T14:37:12.015Z</time>
      </trkpt>
      <trkpt lat="45.77031" lon="2.96138">
        <ele>1401</ele>
        <time>2020-07-11T14:37:13.015Z</time>
      </trkpt>
      <trkpt lat="45.77032" lon="2.96139">
        <ele>1403</ele>
        <time>2020-07-11T14:37:14.015Z</time>
      </trkpt>
      <trkpt lat="45.77033" lon="2.96141">
        <ele>1403</ele>
        <time>2020-07-11T14:37:15.015Z</time>
      </trkpt>
      <trkpt lat="45.77034" lon="2.96143">
        <ele>1404</ele>
        <time>2020-07-11T14:37:16.015Z</time>
      </trkpt>
      <trkpt lat="45.77036" lon="2.96144">
        <ele>1404</ele>
        <time>2020-07-11T14:37:17.015Z</time>
      </trkpt>
      <trkpt lat="45.77037" lon="2.96146">
        <ele>1404</ele>
        <time>2020-07-11T14:37:18.015Z</time>
      </trkpt>
      <trkpt lat="45.77038" lon="2.96148">
        <ele>1405</ele>
        <time>2020-07-11T14:37:19.015Z</time>
      </trkpt>
      <trkpt lat="45.77039" lon="2.9615">
        <ele>1406</ele>
        <time>2020-07-11T14:37:20.015Z</time>
      </trkpt>
      <trkpt lat="45.7704" lon="2.96152">
        <ele>1406</ele>
        <time>2020-07-11T14:37:21.015Z</time>
      </trkpt>
      <trkpt lat="45.77041" lon="2.96155">
        <ele>1407</ele>
        <time>2020-07-11T14:37:22.015Z</time>
      </trkpt>
      <trkpt lat="45.77043" lon="2.96157">
        <ele>1407</ele>
        <time>2020-07-11T14:37:23.015Z</time>
      </trkpt>
      <trkpt lat="45.77045" lon="2.96159">
        <ele>1408</ele>
        <time>2020-07-11T14:37:24.015Z</time>
      </trkpt>
      <trkpt lat="45.77046" lon="2.96161">
        <ele>1408</ele>
        <time>2020-07-11T14:37:25.015Z</time>
      </trkpt>
      <trkpt lat="45.77048" lon="2.96163">
        <ele>1408</ele>
        <time>2020-07-11T14:37:26.015Z</time>
      </trkpt>
      <trkpt lat="45.77049" lon="2.96164">
        <ele>1407</ele>
        <time>2020-07-11T14:37:27.015Z</time>
      </trkpt>
      <trkpt lat="45.77051" lon="2.96166">
        <ele>1407</ele>
        <time>2020-07-11T14:37:28.015Z</time>
      </trkpt>
      <trkpt lat="45.77053" lon="2.96168">
        <ele>1407</ele>
        <time>2020-07-11T14:37:29.015Z</time>
      </trkpt>
      <trkpt lat="45.77054" lon="2.9617">
        <ele>1408</ele>
        <time>2020-07-11T14:37:30.015Z</time>
      </trkpt>
      <trkpt lat="45.77056" lon="2.96172">
        <ele>1409</ele>
        <time>2020-07-11T14:37:31.015Z</time>
      </trkpt>
      <trkpt lat="45.77057" lon="2.96174">
        <ele>1409</ele>
        <time>2020-07-11T14:37:32.015Z</time>
      </trkpt>
      <trkpt lat="45.77058" lon="2.96175">
        <ele>1410</ele>
        <time>2020-07-11T14:37:33.015Z</time>
      </trkpt>
      <trkpt lat="45.7706" lon="2.96177">
        <ele>1410</ele>
        <time>2020-07-11T14:37:34.015Z</time>
      </trkpt>
      <trkpt lat="45.77061" lon="2.96179">
        <ele>1411</ele>
        <time>2020-07-11T14:37:35.015Z</time>
      </trkpt>
      <trkpt lat="45.77063" lon="2.96181">
        <ele>1410</ele>
        <time>2020-07-11T14:37:36.015Z</time>
      </trkpt>
      <trkpt lat="45.77064" lon="2.96182">
        <ele>1411</ele>
        <time>2020-07-11T14:37:37.015Z</time>
      </trkpt>
      <trkpt lat="45.77065" lon="2.96184">
        <ele>1411</ele>
        <time>2020-07-11T14:37:38.015Z</time>
      </trkpt>
      <trkpt lat="45.77067" lon="2.96185">
        <ele>1411</ele>
        <time>2020-07-11T14:37:39.015Z</time>
      </trkpt>
      <trkpt lat="45.77067" lon="2.96187">
        <ele>1411</ele>
        <time>2020-07-11T14:37:40.015Z</time>
      </trkpt>
      <trkpt lat="45.77068" lon="2.96188">
        <ele>1412</ele>
        <time>2020-07-11T14:37:41.015Z</time>
      </trkpt>
      <trkpt lat="45.77069" lon="2.96189">
        <ele>1412</ele>
        <time>2020-07-11T14:37:42.015Z</time>
      </trkpt>
      <trkpt lat="45.7707" lon="2.9619">
        <ele>1413</ele>
        <time>2020-07-11T14:37:43.015Z</time>
      </trkpt>
      <trkpt lat="45.77072" lon="2.96191">
        <ele>1413</ele>
        <time>2020-07-11T14:37:44.015Z</time>
      </trkpt>
      <trkpt lat="45.77073" lon="2.96192">
        <ele>1414</ele>
        <time>2020-07-11T14:37:45.015Z</time>
      </trkpt>
      <trkpt lat="45.77074" lon="2.96193">
        <ele>1415</ele>
        <time>2020-07-11T14:37:46.015Z</time>
      </trkpt>
      <trkpt lat="45.77076" lon="2.96194">
        <ele>1415</ele>
        <time>2020-07-11T14:37:47.015Z</time>
      </trkpt>
      <trkpt lat="45.77077" lon="2.96195">
        <ele>1416</ele>
        <time>2020-07-11T14:37:48.015Z</time>
      </trkpt>
      <trkpt lat="45.77078" lon="2.96196">
        <ele>1416</ele>
        <time>2020-07-11T14:37:49.015Z</time>
      </trkpt>
      <trkpt lat="45.77079" lon="2.96198">
        <ele>1416</ele>
        <time>2020-07-11T14:37:50.015Z</time>
      </trkpt>
      <trkpt lat="45.7708" lon="2.96199">
        <ele>1416</ele>
        <time>2020-07-11T14:37:51.015Z</time>
      </trkpt>
      <trkpt lat="45.7708" lon="2.96199">
        <ele>1416</ele>
        <time>2020-07-11T14:37:52.015Z</time>
      </trkpt>
      <trkpt lat="45.77081" lon="2.96199">
        <ele>1416</ele>
        <time>2020-07-11T14:37:53.015Z</time>
      </trkpt>
      <trkpt lat="45.77081" lon="2.96199">
        <ele>1417</ele>
        <time>2020-07-11T14:37:54.015Z</time>
      </trkpt>
      <trkpt lat="45.77081" lon="2.962">
        <ele>1416</ele>
        <time>2020-07-11T14:37:55.015Z</time>
      </trkpt>
      <trkpt lat="45.77081" lon="2.962">
        <ele>1416</ele>
        <time>2020-07-11T14:37:56.015Z</time>
      </trkpt>
      <trkpt lat="45.77081" lon="2.962">
        <ele>1417</ele>
        <time>2020-07-11T14:37:57.015Z</time>
      </trkpt>
      <trkpt lat="45.77081" lon="2.962">
        <ele>1417</ele>
        <time>2020-07-11T14:37:58.015Z</time>
      </trkpt>
      <trkpt lat="45.77081" lon="2.962">
        <ele>1416</ele>
        <time>2020-07-11T14:37:59.015Z</time>
      </trkpt>
      <trkpt lat="45.77081" lon="2.96199">
        <ele>1416</ele>
        <time>2020-07-11T14:38:00.015Z</time>
      </trkpt>
      <trkpt lat="45.77082" lon="2.96198">
        <ele>1416</ele>
        <time>2020-07-11T14:38:01.015Z</time>
      </trkpt>
      <trkpt lat="45.77082" lon="2.96197">
        <ele>1417</ele>
        <time>2020-07-11T14:38:02.015Z</time>
      </trkpt>
      <trkpt lat="45.77082" lon="2.96196">
        <ele>1417</ele>
        <time>2020-07-11T14:38:03.015Z</time>
      </trkpt>
      <trkpt lat="45.77083" lon="2.96196">
        <ele>1416</ele>
        <time>2020-07-11T14:38:04.015Z</time>
      </trkpt>
      <trkpt lat="45.77083" lon="2.96195">
        <ele>1416</ele>
        <time>2020-07-11T14:38:05.015Z</time>
      </trkpt>
      <trkpt lat="45.77083" lon="2.96195">
        <ele>1416</ele>
        <time>2020-07-11T14:38:06.015Z</time>
      </trkpt>
      <trkpt lat="45.77083" lon="2.96194">
        <ele>1416</ele>
        <time>2020-07-11T14:38:07.015Z</time>
      </trkpt>
      <trkpt lat="45.77082" lon="2.96192">
        <ele>1417</ele>
        <time>2020-07-11T14:38:08.015Z</time>
      </trkpt>
      <trkpt lat="45.77082" lon="2.9619">
        <ele>1416</ele>
        <time>2020-07-11T14:38:09.015Z</time>
      </trkpt>
      <trkpt lat="45.77082" lon="2.96188">
        <ele>1417</ele>
        <time>2020-07-11T14:38:10.015Z</time>
      </trkpt>
      <trkpt lat="45.77082" lon="2.96187">
        <ele>1417</ele>
        <time>2020-07-11T14:38:11.015Z</time>
      </trkpt>
      <trkpt lat="45.77081" lon="2.96185">
        <ele>1417</ele>
        <time>2020-07-11T14:38:12.015Z</time>
      </trkpt>
      <trkpt lat="45.77081" lon="2.96183">
        <ele>1417</ele>
        <time>2020-07-11T14:38:13.015Z</time>
      </trkpt>
      <trkpt lat="45.77081" lon="2.96181">
        <ele>1418</ele>
        <time>2020-07-11T14:38:14.015Z</time>
      </trkpt>
      <trkpt lat="45.7708" lon="2.96179">
        <ele>1418</ele>
        <time>2020-07-11T14:38:15.015Z</time>
      </trkpt>
      <trkpt lat="45.7708" lon="2.96176">
        <ele>1418</ele>
        <time>2020-07-11T14:38:16.015Z</time>
      </trkpt>
      <trkpt lat="45.7708" lon="2.96173">
        <ele>1417</ele>
        <time>2020-07-11T14:38:17.015Z</time>
      </trkpt>
      <trkpt lat="45.7708" lon="2.9617">
        <ele>1417</ele>
        <time>2020-07-11T14:38:18.015Z</time>
      </trkpt>
      <trkpt lat="45.7708" lon="2.96167">
        <ele>1417</ele>
        <time>2020-07-11T14:38:19.015Z</time>
      </trkpt>
      <trkpt lat="45.7708" lon="2.96164">
        <ele>1417</ele>
        <time>2020-07-11T14:38:20.015Z</time>
      </trkpt>
      <trkpt lat="45.7708" lon="2.96163">
        <ele>1418</ele>
        <time>2020-07-11T14:38:21.015Z</time>
      </trkpt>
      <trkpt lat="45.7708" lon="2.96162">
        <ele>1417</ele>
        <time>2020-07-11T14:38:22.015Z</time>
      </trkpt>
      <trkpt lat="45.77079" lon="2.96161">
        <ele>1418</ele>
        <time>2020-07-11T14:38:23.015Z</time>
      </trkpt>
      <trkpt lat="45.77079" lon="2.96159">
        <ele>1418</ele>
        <time>2020-07-11T14:38:24.015Z</time>
      </trkpt>
      <trkpt lat="45.77078" lon="2.96157">
        <ele>1418</ele>
        <time>2020-07-11T14:38:25.015Z</time>
      </trkpt>
      <trkpt lat="45.77077" lon="2.96154">
        <ele>1418</ele>
        <time>2020-07-11T14:38:26.015Z</time>
      </trkpt>
      <trkpt lat="45.77076" lon="2.96151">
        <ele>1419</ele>
        <time>2020-07-11T14:38:27.015Z</time>
      </trkpt>
      <trkpt lat="45.77075" lon="2.96147">
        <ele>1419</ele>
        <time>2020-07-11T14:38:28.015Z</time>
      </trkpt>
      <trkpt lat="45.77073" lon="2.96144">
        <ele>1420</ele>
        <time>2020-07-11T14:38:29.015Z</time>
      </trkpt>
      <trkpt lat="45.77072" lon="2.9614">
        <ele>1420</ele>
        <time>2020-07-11T14:38:30.015Z</time>
      </trkpt>
      <trkpt lat="45.77071" lon="2.96137">
        <ele>1420</ele>
        <time>2020-07-11T14:38:31.015Z</time>
      </trkpt>
      <trkpt lat="45.7707" lon="2.96134">
        <ele>1420</ele>
        <time>2020-07-11T14:38:32.015Z</time>
      </trkpt>
      <trkpt lat="45.77069" lon="2.96131">
        <ele>1420</ele>
        <time>2020-07-11T14:38:33.015Z</time>
      </trkpt>
      <trkpt lat="45.77068" lon="2.96128">
        <ele>1421</ele>
        <time>2020-07-11T14:38:34.015Z</time>
      </trkpt>
      <trkpt lat="45.77067" lon="2.96125">
        <ele>1420</ele>
        <time>2020-07-11T14:38:35.015Z</time>
      </trkpt>
      <trkpt lat="45.77066" lon="2.96122">
        <ele>1419</ele>
        <time>2020-07-11T14:38:36.015Z</time>
      </trkpt>
      <trkpt lat="45.77065" lon="2.96118">
        <ele>1419</ele>
        <time>2020-07-11T14:38:37.015Z</time>
      </trkpt>
      <trkpt lat="45.77064" lon="2.96115">
        <ele>1419</ele>
        <time>2020-07-11T14:38:38.015Z</time>
      </trkpt>
      <trkpt lat="45.77063" lon="2.96112">
        <ele>1420</ele>
        <time>2020-07-11T14:38:39.015Z</time>
      </trkpt>
      <trkpt lat="45.77063" lon="2.96108">
        <ele>1420</ele>
        <time>2020-07-11T14:38:40.015Z</time>
      </trkpt>
      <trkpt lat="45.77063" lon="2.96104">
        <ele>1420</ele>
        <time>2020-07-11T14:38:41.015Z</time>
      </trkpt>
      <trkpt lat="45.77063" lon="2.961">
        <ele>1421</ele>
        <time>2020-07-11T14:38:42.015Z</time>
      </trkpt>
      <trkpt lat="45.77062" lon="2.96096">
        <ele>1421</ele>
        <time>2020-07-11T14:38:43.015Z</time>
      </trkpt>
      <trkpt lat="45.77063" lon="2.96092">
        <ele>1420</ele>
        <time>2020-07-11T14:38:44.015Z</time>
      </trkpt>
      <trkpt lat="45.77063" lon="2.96088">
        <ele>1421</ele>
        <time>2020-07-11T14:38:45.015Z</time>
      </trkpt>
      <trkpt lat="45.77064" lon="2.96084">
        <ele>1420</ele>
        <time>2020-07-11T14:38:46.015Z</time>
      </trkpt>
      <trkpt lat="45.77065" lon="2.9608">
        <ele>1420</ele>
        <time>2020-07-11T14:38:47.015Z</time>
      </trkpt>
      <trkpt lat="45.77065" lon="2.96076">
        <ele>1419</ele>
        <time>2020-07-11T14:38:48.015Z</time>
      </trkpt>
      <trkpt lat="45.77066" lon="2.96072">
        <ele>1419</ele>
        <time>2020-07-11T14:38:49.015Z</time>
      </trkpt>
      <trkpt lat="45.77066" lon="2.96068">
        <ele>1419</ele>
        <time>2020-07-11T14:38:50.015Z</time>
      </trkpt>
      <trkpt lat="45.77067" lon="2.96065">
        <ele>1419</ele>
        <time>2020-07-11T14:38:51.015Z</time>
      </trkpt>
      <trkpt lat="45.77069" lon="2.96061">
        <ele>1418</ele>
        <time>2020-07-11T14:38:52.015Z</time>
      </trkpt>
      <trkpt lat="45.77071" lon="2.96058">
        <ele>1418</ele>
        <time>2020-07-11T14:38:53.015Z</time>
      </trkpt>
      <trkpt lat="45.77074" lon="2.96056">
        <ele>1418</ele>
        <time>2020-07-11T14:38:54.015Z</time>
      </trkpt>
      <trkpt lat="45.77077" lon="2.96055">
        <ele>1418</ele>
        <time>2020-07-11T14:38:55.015Z</time>
      </trkpt>
      <trkpt lat="45.7708" lon="2.96054">
        <ele>1418</ele>
        <time>2020-07-11T14:38:56.015Z</time>
      </trkpt>
      <trkpt lat="45.77083" lon="2.96054">
        <ele>1417</ele>
        <time>2020-07-11T14:38:57.015Z</time>
      </trkpt>
      <trkpt lat="45.77086" lon="2.96054">
        <ele>1417</ele>
        <time>2020-07-11T14:38:58.015Z</time>
      </trkpt>
      <trkpt lat="45.77089" lon="2.96055">
        <ele>1417</ele>
        <time>2020-07-11T14:38:59.015Z</time>
      </trkpt>
      <trkpt lat="45.77092" lon="2.96054">
        <ele>1416</ele>
        <time>2020-07-11T14:39:00.015Z</time>
      </trkpt>
      <trkpt lat="45.77094" lon="2.96052">
        <ele>1415</ele>
        <time>2020-07-11T14:39:01.015Z</time>
      </trkpt>
      <trkpt lat="45.77097" lon="2.96051">
        <ele>1415</ele>
        <time>2020-07-11T14:39:02.015Z</time>
      </trkpt>
      <trkpt lat="45.77099" lon="2.96049">
        <ele>1415</ele>
        <time>2020-07-11T14:39:03.015Z</time>
      </trkpt>
      <trkpt lat="45.77102" lon="2.96048">
        <ele>1415</ele>
        <time>2020-07-11T14:39:04.015Z</time>
      </trkpt>
      <trkpt lat="45.77105" lon="2.96047">
        <ele>1415</ele>
        <time>2020-07-11T14:39:05.015Z</time>
      </trkpt>
      <trkpt lat="45.77107" lon="2.96045">
        <ele>1415</ele>
        <time>2020-07-11T14:39:06.015Z</time>
      </trkpt>
      <trkpt lat="45.7711" lon="2.96043">
        <ele>1415</ele>
        <time>2020-07-11T14:39:07.015Z</time>
      </trkpt>
      <trkpt lat="45.77112" lon="2.96042">
        <ele>1416</ele>
        <time>2020-07-11T14:39:08.015Z</time>
      </trkpt>
      <trkpt lat="45.77114" lon="2.9604">
        <ele>1415</ele>
        <time>2020-07-11T14:39:09.015Z</time>
      </trkpt>
      <trkpt lat="45.77116" lon="2.96037">
        <ele>1415</ele>
        <time>2020-07-11T14:39:10.015Z</time>
      </trkpt>
      <trkpt lat="45.77118" lon="2.96035">
        <ele>1415</ele>
        <time>2020-07-11T14:39:11.015Z</time>
      </trkpt>
      <trkpt lat="45.7712" lon="2.96032">
        <ele>1415</ele>
        <time>2020-07-11T14:39:12.015Z</time>
      </trkpt>
      <trkpt lat="45.77122" lon="2.9603">
        <ele>1414</ele>
        <time>2020-07-11T14:39:13.015Z</time>
      </trkpt>
      <trkpt lat="45.77124" lon="2.96027">
        <ele>1413</ele>
        <time>2020-07-11T14:39:14.015Z</time>
      </trkpt>
      <trkpt lat="45.77126" lon="2.96024">
        <ele>1413</ele>
        <time>2020-07-11T14:39:15.015Z</time>
      </trkpt>
      <trkpt lat="45.77128" lon="2.96022">
        <ele>1414</ele>
        <time>2020-07-11T14:39:16.015Z</time>
      </trkpt>
      <trkpt lat="45.7713" lon="2.96019">
        <ele>1414</ele>
        <time>2020-07-11T14:39:17.015Z</time>
      </trkpt>
      <trkpt lat="45.77132" lon="2.96017">
        <ele>1414</ele>
        <time>2020-07-11T14:39:18.015Z</time>
      </trkpt>
      <trkpt lat="45.77134" lon="2.96014">
        <ele>1413</ele>
        <time>2020-07-11T14:39:19.015Z</time>
      </trkpt>
      <trkpt lat="45.77136" lon="2.96012">
        <ele>1413</ele>
        <time>2020-07-11T14:39:20.015Z</time>
      </trkpt>
      <trkpt lat="45.77138" lon="2.96009">
        <ele>1412</ele>
        <time>2020-07-11T14:39:21.015Z</time>
      </trkpt>
      <trkpt lat="45.7714" lon="2.96007">
        <ele>1413</ele>
        <time>2020-07-11T14:39:22.015Z</time>
      </trkpt>
      <trkpt lat="45.77142" lon="2.96005">
        <ele>1413</ele>
        <time>2020-07-11T14:39:23.015Z</time>
      </trkpt>
      <trkpt lat="45.77144" lon="2.96002">
        <ele>1413</ele>
        <time>2020-07-11T14:39:24.015Z</time>
      </trkpt>
      <trkpt lat="45.77146" lon="2.96">
        <ele>1412</ele>
        <time>2020-07-11T14:39:25.015Z</time>
      </trkpt>
      <trkpt lat="45.77148" lon="2.95997">
        <ele>1413</ele>
        <time>2020-07-11T14:39:26.015Z</time>
      </trkpt>
      <trkpt lat="45.7715" lon="2.95995">
        <ele>1414</ele>
        <time>2020-07-11T14:39:27.015Z</time>
      </trkpt>
      <trkpt lat="45.77152" lon="2.95993">
        <ele>1414</ele>
        <time>2020-07-11T14:39:28.015Z</time>
      </trkpt>
      <trkpt lat="45.77154" lon="2.9599">
        <ele>1414</ele>
        <time>2020-07-11T14:39:29.015Z</time>
      </trkpt>
      <trkpt lat="45.77156" lon="2.95988">
        <ele>1415</ele>
        <time>2020-07-11T14:39:30.015Z</time>
      </trkpt>
      <trkpt lat="45.77158" lon="2.95986">
        <ele>1415</ele>
        <time>2020-07-11T14:39:31.015Z</time>
      </trkpt>
      <trkpt lat="45.7716" lon="2.95983">
        <ele>1414</ele>
        <time>2020-07-11T14:39:32.015Z</time>
      </trkpt>
      <trkpt lat="45.77162" lon="2.95981">
        <ele>1414</ele>
        <time>2020-07-11T14:39:33.015Z</time>
      </trkpt>
      <trkpt lat="45.77164" lon="2.95978">
        <ele>1414</ele>
        <time>2020-07-11T14:39:34.015Z</time>
      </trkpt>
      <trkpt lat="45.77166" lon="2.95976">
        <ele>1413</ele>
        <time>2020-07-11T14:39:35.015Z</time>
      </trkpt>
      <trkpt lat="45.77168" lon="2.95973">
        <ele>1413</ele>
        <time>2020-07-11T14:39:36.015Z</time>
      </trkpt>
      <trkpt lat="45.7717" lon="2.95971">
        <ele>1413</ele>
        <time>2020-07-11T14:39:37.015Z</time>
      </trkpt>
      <trkpt lat="45.77173" lon="2.9597">
        <ele>1413</ele>
        <time>2020-07-11T14:39:38.015Z</time>
      </trkpt>
      <trkpt lat="45.77176" lon="2.95968">
        <ele>1413</ele>
        <time>2020-07-11T14:39:39.015Z</time>
      </trkpt>
      <trkpt lat="45.77179" lon="2.95968">
        <ele>1413</ele>
        <time>2020-07-11T14:39:40.015Z</time>
      </trkpt>
      <trkpt lat="45.77182" lon="2.95968">
        <ele>1413</ele>
        <time>2020-07-11T14:39:41.015Z</time>
      </trkpt>
      <trkpt lat="45.77185" lon="2.95968">
        <ele>1413</ele>
        <time>2020-07-11T14:39:42.015Z</time>
      </trkpt>
      <trkpt lat="45.77188" lon="2.95969">
        <ele>1413</ele>
        <time>2020-07-11T14:39:43.015Z</time>
      </trkpt>
      <trkpt lat="45.7719" lon="2.95969">
        <ele>1412</ele>
        <time>2020-07-11T14:39:44.015Z</time>
      </trkpt>
      <trkpt lat="45.77193" lon="2.95969">
        <ele>1412</ele>
        <time>2020-07-11T14:39:45.015Z</time>
      </trkpt>
      <trkpt lat="45.77195" lon="2.9597">
        <ele>1412</ele>
        <time>2020-07-11T14:39:46.015Z</time>
      </trkpt>
      <trkpt lat="45.77198" lon="2.95971">
        <ele>1411</ele>
        <time>2020-07-11T14:39:47.015Z</time>
      </trkpt>
      <trkpt lat="45.772" lon="2.95972">
        <ele>1410</ele>
        <time>2020-07-11T14:39:48.015Z</time>
      </trkpt>
      <trkpt lat="45.77203" lon="2.95974">
        <ele>1410</ele>
        <time>2020-07-11T14:39:49.015Z</time>
      </trkpt>
      <trkpt lat="45.77205" lon="2.95975">
        <ele>1410</ele>
        <time>2020-07-11T14:39:50.015Z</time>
      </trkpt>
      <trkpt lat="45.77208" lon="2.95975">
        <ele>1410</ele>
        <time>2020-07-11T14:39:51.015Z</time>
      </trkpt>
      <trkpt lat="45.7721" lon="2.95976">
        <ele>1409</ele>
        <time>2020-07-11T14:39:52.015Z</time>
      </trkpt>
      <trkpt lat="45.77213" lon="2.95977">
        <ele>1409</ele>
        <time>2020-07-11T14:39:53.015Z</time>
      </trkpt>
      <trkpt lat="45.77216" lon="2.95977">
        <ele>1409</ele>
        <time>2020-07-11T14:39:54.015Z</time>
      </trkpt>
      <trkpt lat="45.77219" lon="2.95978">
        <ele>1409</ele>
        <time>2020-07-11T14:39:55.015Z</time>
      </trkpt>
      <trkpt lat="45.77222" lon="2.95978">
        <ele>1409</ele>
        <time>2020-07-11T14:39:56.015Z</time>
      </trkpt>
      <trkpt lat="45.77225" lon="2.95979">
        <ele>1409</ele>
        <time>2020-07-11T14:39:57.015Z</time>
      </trkpt>
      <trkpt lat="45.77228" lon="2.95979">
        <ele>1409</ele>
        <time>2020-07-11T14:39:58.015Z</time>
      </trkpt>
      <trkpt lat="45.77231" lon="2.95979">
        <ele>1410</ele>
        <time>2020-07-11T14:39:59.015Z</time>
      </trkpt>
      <trkpt lat="45.77234" lon="2.9598">
        <ele>1410</ele>
        <time>2020-07-11T14:40:00.015Z</time>
      </trkpt>
      <trkpt lat="45.77237" lon="2.9598">
        <ele>1410</ele>
        <time>2020-07-11T14:40:01.015Z</time>
      </trkpt>
      <trkpt lat="45.77239" lon="2.9598">
        <ele>1410</ele>
        <time>2020-07-11T14:40:02.015Z</time>
      </trkpt>
      <trkpt lat="45.77242" lon="2.9598">
        <ele>1411</ele>
        <time>2020-07-11T14:40:03.015Z</time>
      </trkpt>
      <trkpt lat="45.77244" lon="2.9598">
        <ele>1411</ele>
        <time>2020-07-11T14:40:04.015Z</time>
      </trkpt>
      <trkpt lat="45.77246" lon="2.9598">
        <ele>1412</ele>
        <time>2020-07-11T14:40:05.015Z</time>
      </trkpt>
      <trkpt lat="45.77248" lon="2.95979">
        <ele>1412</ele>
        <time>2020-07-11T14:40:06.015Z</time>
      </trkpt>
      <trkpt lat="45.7725" lon="2.95979">
        <ele>1412</ele>
        <time>2020-07-11T14:40:07.015Z</time>
      </trkpt>
      <trkpt lat="45.77252" lon="2.95979">
        <ele>1412</ele>
        <time>2020-07-11T14:40:08.015Z</time>
      </trkpt>
      <trkpt lat="45.77254" lon="2.95979">
        <ele>1412</ele>
        <time>2020-07-11T14:40:09.015Z</time>
      </trkpt>
      <trkpt lat="45.77257" lon="2.9598">
        <ele>1411</ele>
        <time>2020-07-11T14:40:10.015Z</time>
      </trkpt>
      <trkpt lat="45.77259" lon="2.95981">
        <ele>1411</ele>
        <time>2020-07-11T14:40:11.015Z</time>
      </trkpt>
      <trkpt lat="45.77261" lon="2.95982">
        <ele>1412</ele>
        <time>2020-07-11T14:40:12.015Z</time>
      </trkpt>
      <trkpt lat="45.77264" lon="2.95984">
        <ele>1412</ele>
        <time>2020-07-11T14:40:13.015Z</time>
      </trkpt>
      <trkpt lat="45.77266" lon="2.95985">
        <ele>1413</ele>
        <time>2020-07-11T14:40:14.015Z</time>
      </trkpt>
      <trkpt lat="45.77268" lon="2.95988">
        <ele>1414</ele>
        <time>2020-07-11T14:40:15.015Z</time>
      </trkpt>
      <trkpt lat="45.7727" lon="2.9599">
        <ele>1414</ele>
        <time>2020-07-11T14:40:16.015Z</time>
      </trkpt>
      <trkpt lat="45.77272" lon="2.95992">
        <ele>1414</ele>
        <time>2020-07-11T14:40:17.015Z</time>
      </trkpt>
      <trkpt lat="45.77274" lon="2.95995">
        <ele>1415</ele>
        <time>2020-07-11T14:40:18.015Z</time>
      </trkpt>
      <trkpt lat="45.77276" lon="2.95998">
        <ele>1415</ele>
        <time>2020-07-11T14:40:19.015Z</time>
      </trkpt>
      <trkpt lat="45.77277" lon="2.96001">
        <ele>1415</ele>
        <time>2020-07-11T14:40:20.015Z</time>
      </trkpt>
      <trkpt lat="45.77279" lon="2.96004">
        <ele>1415</ele>
        <time>2020-07-11T14:40:21.015Z</time>
      </trkpt>
      <trkpt lat="45.77281" lon="2.96007">
        <ele>1415</ele>
        <time>2020-07-11T14:40:22.015Z</time>
      </trkpt>
      <trkpt lat="45.77283" lon="2.9601">
        <ele>1414</ele>
        <time>2020-07-11T14:40:23.015Z</time>
      </trkpt>
      <trkpt lat="45.77285" lon="2.96013">
        <ele>1414</ele>
        <time>2020-07-11T14:40:24.015Z</time>
      </trkpt>
      <trkpt lat="45.77287" lon="2.96015">
        <ele>1414</ele>
        <time>2020-07-11T14:40:25.015Z</time>
      </trkpt>
      <trkpt lat="45.7729" lon="2.96017">
        <ele>1414</ele>
        <time>2020-07-11T14:40:26.015Z</time>
      </trkpt>
      <trkpt lat="45.77292" lon="2.9602">
        <ele>1414</ele>
        <time>2020-07-11T14:40:27.015Z</time>
      </trkpt>
      <trkpt lat="45.77294" lon="2.96022">
        <ele>1415</ele>
        <time>2020-07-11T14:40:28.015Z</time>
      </trkpt>
      <trkpt lat="45.77296" lon="2.96024">
        <ele>1414</ele>
        <time>2020-07-11T14:40:29.015Z</time>
      </trkpt>
      <trkpt lat="45.77298" lon="2.96026">
        <ele>1414</ele>
        <time>2020-07-11T14:40:30.015Z</time>
      </trkpt>
      <trkpt lat="45.773" lon="2.96028">
        <ele>1414</ele>
        <time>2020-07-11T14:40:31.015Z</time>
      </trkpt>
      <trkpt lat="45.77302" lon="2.96031">
        <ele>1413</ele>
        <time>2020-07-11T14:40:32.015Z</time>
      </trkpt>
      <trkpt lat="45.77304" lon="2.96033">
        <ele>1413</ele>
        <time>2020-07-11T14:40:33.015Z</time>
      </trkpt>
      <trkpt lat="45.77306" lon="2.96035">
        <ele>1413</ele>
        <time>2020-07-11T14:40:34.015Z</time>
      </trkpt>
      <trkpt lat="45.77309" lon="2.96038">
        <ele>1413</ele>
        <time>2020-07-11T14:40:35.015Z</time>
      </trkpt>
      <trkpt lat="45.77311" lon="2.9604">
        <ele>1413</ele>
        <time>2020-07-11T14:40:36.015Z</time>
      </trkpt>
      <trkpt lat="45.77313" lon="2.96042">
        <ele>1412</ele>
        <time>2020-07-11T14:40:37.015Z</time>
      </trkpt>
      <trkpt lat="45.77315" lon="2.96044">
        <ele>1413</ele>
        <time>2020-07-11T14:40:38.015Z</time>
      </trkpt>
      <trkpt lat="45.77317" lon="2.96046">
        <ele>1413</ele>
        <time>2020-07-11T14:40:39.015Z</time>
      </trkpt>
      <trkpt lat="45.77319" lon="2.96049">
        <ele>1413</ele>
        <time>2020-07-11T14:40:40.015Z</time>
      </trkpt>
      <trkpt lat="45.7732" lon="2.96051">
        <ele>1413</ele>
        <time>2020-07-11T14:40:41.015Z</time>
      </trkpt>
      <trkpt lat="45.77322" lon="2.96054">
        <ele>1413</ele>
        <time>2020-07-11T14:40:42.015Z</time>
      </trkpt>
      <trkpt lat="45.77323" lon="2.96057">
        <ele>1413</ele>
        <time>2020-07-11T14:40:43.015Z</time>
      </trkpt>
      <trkpt lat="45.77325" lon="2.9606">
        <ele>1413</ele>
        <time>2020-07-11T14:40:44.015Z</time>
      </trkpt>
      <trkpt lat="45.77327" lon="2.96063">
        <ele>1413</ele>
        <time>2020-07-11T14:40:45.015Z</time>
      </trkpt>
      <trkpt lat="45.77328" lon="2.96065">
        <ele>1413</ele>
        <time>2020-07-11T14:40:46.015Z</time>
      </trkpt>
      <trkpt lat="45.7733" lon="2.96068">
        <ele>1413</ele>
        <time>2020-07-11T14:40:47.015Z</time>
      </trkpt>
      <trkpt lat="45.77333" lon="2.96071">
        <ele>1413</ele>
        <time>2020-07-11T14:40:48.015Z</time>
      </trkpt>
      <trkpt lat="45.77335" lon="2.96073">
        <ele>1413</ele>
        <time>2020-07-11T14:40:49.015Z</time>
      </trkpt>
      <trkpt lat="45.77337" lon="2.96075">
        <ele>1414</ele>
        <time>2020-07-11T14:40:50.015Z</time>
      </trkpt>
      <trkpt lat="45.77339" lon="2.96077">
        <ele>1414</ele>
        <time>2020-07-11T14:40:51.015Z</time>
      </trkpt>
      <trkpt lat="45.77342" lon="2.96079">
        <ele>1414</ele>
        <time>2020-07-11T14:40:52.015Z</time>
      </trkpt>
      <trkpt lat="45.77344" lon="2.9608">
        <ele>1414</ele>
        <time>2020-07-11T14:40:53.015Z</time>
      </trkpt>
      <trkpt lat="45.77346" lon="2.96083">
        <ele>1413</ele>
        <time>2020-07-11T14:40:54.015Z</time>
      </trkpt>
      <trkpt lat="45.77348" lon="2.96084">
        <ele>1413</ele>
        <time>2020-07-11T14:40:55.015Z</time>
      </trkpt>
      <trkpt lat="45.7735" lon="2.96087">
        <ele>1413</ele>
        <time>2020-07-11T14:40:56.015Z</time>
      </trkpt>
      <trkpt lat="45.77352" lon="2.96089">
        <ele>1414</ele>
        <time>2020-07-11T14:40:57.015Z</time>
      </trkpt>
      <trkpt lat="45.77353" lon="2.96092">
        <ele>1414</ele>
        <time>2020-07-11T14:40:58.015Z</time>
      </trkpt>
      <trkpt lat="45.77354" lon="2.96096">
        <ele>1413</ele>
        <time>2020-07-11T14:40:59.015Z</time>
      </trkpt>
      <trkpt lat="45.77356" lon="2.96099">
        <ele>1413</ele>
        <time>2020-07-11T14:41:00.015Z</time>
      </trkpt>
      <trkpt lat="45.77356" lon="2.96101">
        <ele>1413</ele>
        <time>2020-07-11T14:41:01.015Z</time>
      </trkpt>
      <trkpt lat="45.77357" lon="2.96104">
        <ele>1413</ele>
        <time>2020-07-11T14:41:02.015Z</time>
      </trkpt>
      <trkpt lat="45.77358" lon="2.96106">
        <ele>1413</ele>
        <time>2020-07-11T14:41:03.015Z</time>
      </trkpt>
      <trkpt lat="45.77359" lon="2.96109">
        <ele>1414</ele>
        <time>2020-07-11T14:41:04.015Z</time>
      </trkpt>
      <trkpt lat="45.7736" lon="2.96112">
        <ele>1414</ele>
        <time>2020-07-11T14:41:05.015Z</time>
      </trkpt>
      <trkpt lat="45.7736" lon="2.96115">
        <ele>1413</ele>
        <time>2020-07-11T14:41:06.015Z</time>
      </trkpt>
      <trkpt lat="45.77361" lon="2.96118">
        <ele>1414</ele>
        <time>2020-07-11T14:41:07.015Z</time>
      </trkpt>
      <trkpt lat="45.77361" lon="2.96121">
        <ele>1414</ele>
        <time>2020-07-11T14:41:08.015Z</time>
      </trkpt>
      <trkpt lat="45.77362" lon="2.96124">
        <ele>1413</ele>
        <time>2020-07-11T14:41:09.015Z</time>
      </trkpt>
      <trkpt lat="45.77363" lon="2.96127">
        <ele>1413</ele>
        <time>2020-07-11T14:41:10.015Z</time>
      </trkpt>
      <trkpt lat="45.77363" lon="2.96131">
        <ele>1414</ele>
        <time>2020-07-11T14:41:11.015Z</time>
      </trkpt>
      <trkpt lat="45.77364" lon="2.96135">
        <ele>1413</ele>
        <time>2020-07-11T14:41:12.015Z</time>
      </trkpt>
      <trkpt lat="45.77365" lon="2.96139">
        <ele>1413</ele>
        <time>2020-07-11T14:41:13.015Z</time>
      </trkpt>
      <trkpt lat="45.77366" lon="2.96144">
        <ele>1413</ele>
        <time>2020-07-11T14:41:14.015Z</time>
      </trkpt>
      <trkpt lat="45.77367" lon="2.96148">
        <ele>1414</ele>
        <time>2020-07-11T14:41:15.015Z</time>
      </trkpt>
      <trkpt lat="45.77368" lon="2.96153">
        <ele>1414</ele>
        <time>2020-07-11T14:41:16.015Z</time>
      </trkpt>
      <trkpt lat="45.77369" lon="2.96157">
        <ele>1414</ele>
        <time>2020-07-11T14:41:17.015Z</time>
      </trkpt>
      <trkpt lat="45.77371" lon="2.9616">
        <ele>1414</ele>
        <time>2020-07-11T14:41:18.015Z</time>
      </trkpt>
      <trkpt lat="45.77372" lon="2.96163">
        <ele>1415</ele>
        <time>2020-07-11T14:41:19.015Z</time>
      </trkpt>
      <trkpt lat="45.77373" lon="2.96166">
        <ele>1415</ele>
        <time>2020-07-11T14:41:20.015Z</time>
      </trkpt>
      <trkpt lat="45.77374" lon="2.9617">
        <ele>1415</ele>
        <time>2020-07-11T14:41:21.015Z</time>
      </trkpt>
      <trkpt lat="45.77375" lon="2.96173">
        <ele>1416</ele>
        <time>2020-07-11T14:41:22.015Z</time>
      </trkpt>
      <trkpt lat="45.77376" lon="2.96177">
        <ele>1416</ele>
        <time>2020-07-11T14:41:23.015Z</time>
      </trkpt>
      <trkpt lat="45.77376" lon="2.96181">
        <ele>1416</ele>
        <time>2020-07-11T14:41:24.015Z</time>
      </trkpt>
      <trkpt lat="45.77375" lon="2.96185">
        <ele>1416</ele>
        <time>2020-07-11T14:41:25.015Z</time>
      </trkpt>
      <trkpt lat="45.77374" lon="2.96188">
        <ele>1416</ele>
        <time>2020-07-11T14:41:26.015Z</time>
      </trkpt>
      <trkpt lat="45.77372" lon="2.96191">
        <ele>1414</ele>
        <time>2020-07-11T14:41:27.015Z</time>
      </trkpt>
      <trkpt lat="45.7737" lon="2.96194">
        <ele>1414</ele>
        <time>2020-07-11T14:41:28.015Z</time>
      </trkpt>
      <trkpt lat="45.77367" lon="2.96196">
        <ele>1415</ele>
        <time>2020-07-11T14:41:29.015Z</time>
      </trkpt>
      <trkpt lat="45.77364" lon="2.96197">
        <ele>1416</ele>
        <time>2020-07-11T14:41:30.015Z</time>
      </trkpt>
      <trkpt lat="45.77362" lon="2.96197">
        <ele>1416</ele>
        <time>2020-07-11T14:41:31.015Z</time>
      </trkpt>
      <trkpt lat="45.7736" lon="2.96197">
        <ele>1416</ele>
        <time>2020-07-11T14:41:32.015Z</time>
      </trkpt>
      <trkpt lat="45.77357" lon="2.96197">
        <ele>1417</ele>
        <time>2020-07-11T14:41:33.015Z</time>
      </trkpt>
      <trkpt lat="45.77355" lon="2.96198">
        <ele>1417</ele>
        <time>2020-07-11T14:41:34.015Z</time>
      </trkpt>
      <trkpt lat="45.77352" lon="2.96198">
        <ele>1417</ele>
        <time>2020-07-11T14:41:35.015Z</time>
      </trkpt>
      <trkpt lat="45.7735" lon="2.96198">
        <ele>1417</ele>
        <time>2020-07-11T14:41:36.015Z</time>
      </trkpt>
      <trkpt lat="45.77348" lon="2.96198">
        <ele>1417</ele>
        <time>2020-07-11T14:41:37.015Z</time>
      </trkpt>
      <trkpt lat="45.77345" lon="2.96199">
        <ele>1417</ele>
        <time>2020-07-11T14:41:38.015Z</time>
      </trkpt>
      <trkpt lat="45.77343" lon="2.962">
        <ele>1417</ele>
        <time>2020-07-11T14:41:39.015Z</time>
      </trkpt>
      <trkpt lat="45.7734" lon="2.96201">
        <ele>1417</ele>
        <time>2020-07-11T14:41:40.015Z</time>
      </trkpt>
      <trkpt lat="45.77339" lon="2.96203">
        <ele>1417</ele>
        <time>2020-07-11T14:41:41.015Z</time>
      </trkpt>
      <trkpt lat="45.77337" lon="2.96206">
        <ele>1417</ele>
        <time>2020-07-11T14:41:42.015Z</time>
      </trkpt>
      <trkpt lat="45.77335" lon="2.96209">
        <ele>1417</ele>
        <time>2020-07-11T14:41:43.015Z</time>
      </trkpt>
      <trkpt lat="45.77334" lon="2.96212">
        <ele>1417</ele>
        <time>2020-07-11T14:41:44.015Z</time>
      </trkpt>
      <trkpt lat="45.77333" lon="2.96216">
        <ele>1417</ele>
        <time>2020-07-11T14:41:45.015Z</time>
      </trkpt>
      <trkpt lat="45.77332" lon="2.9622">
        <ele>1417</ele>
        <time>2020-07-11T14:41:46.015Z</time>
      </trkpt>
      <trkpt lat="45.77331" lon="2.96223">
        <ele>1417</ele>
        <time>2020-07-11T14:41:47.015Z</time>
      </trkpt>
      <trkpt lat="45.77331" lon="2.96227">
        <ele>1416</ele>
        <time>2020-07-11T14:41:48.015Z</time>
      </trkpt>
      <trkpt lat="45.7733" lon="2.9623">
        <ele>1416</ele>
        <time>2020-07-11T14:41:49.015Z</time>
      </trkpt>
      <trkpt lat="45.7733" lon="2.96233">
        <ele>1416</ele>
        <time>2020-07-11T14:41:50.015Z</time>
      </trkpt>
      <trkpt lat="45.7733" lon="2.96236">
        <ele>1417</ele>
        <time>2020-07-11T14:41:51.015Z</time>
      </trkpt>
      <trkpt lat="45.7733" lon="2.96239">
        <ele>1417</ele>
        <time>2020-07-11T14:41:52.015Z</time>
      </trkpt>
      <trkpt lat="45.7733" lon="2.96241">
        <ele>1418</ele>
        <time>2020-07-11T14:41:53.015Z</time>
      </trkpt>
      <trkpt lat="45.7733" lon="2.96243">
        <ele>1418</ele>
        <time>2020-07-11T14:41:54.015Z</time>
      </trkpt>
      <trkpt lat="45.7733" lon="2.96246">
        <ele>1419</ele>
        <time>2020-07-11T14:41:55.015Z</time>
      </trkpt>
      <trkpt lat="45.77331" lon="2.96248">
        <ele>1418</ele>
        <time>2020-07-11T14:41:56.015Z</time>
      </trkpt>
      <trkpt lat="45.77331" lon="2.96251">
        <ele>1419</ele>
        <time>2020-07-11T14:41:57.015Z</time>
      </trkpt>
      <trkpt lat="45.77331" lon="2.96254">
        <ele>1419</ele>
        <time>2020-07-11T14:41:58.015Z</time>
      </trkpt>
      <trkpt lat="45.77331" lon="2.96256">
        <ele>1419</ele>
        <time>2020-07-11T14:41:59.015Z</time>
      </trkpt>
      <trkpt lat="45.77331" lon="2.96259">
        <ele>1420</ele>
        <time>2020-07-11T14:42:00.015Z</time>
      </trkpt>
      <trkpt lat="45.77331" lon="2.96263">
        <ele>1420</ele>
        <time>2020-07-11T14:42:01.015Z</time>
      </trkpt>
      <trkpt lat="45.77331" lon="2.96266">
        <ele>1421</ele>
        <time>2020-07-11T14:42:02.015Z</time>
      </trkpt>
      <trkpt lat="45.77329" lon="2.96269">
        <ele>1421</ele>
        <time>2020-07-11T14:42:03.015Z</time>
      </trkpt>
      <trkpt lat="45.77327" lon="2.96271">
        <ele>1420</ele>
        <time>2020-07-11T14:42:04.015Z</time>
      </trkpt>
      <trkpt lat="45.77324" lon="2.96274">
        <ele>1420</ele>
        <time>2020-07-11T14:42:05.015Z</time>
      </trkpt>
      <trkpt lat="45.77322" lon="2.96277">
        <ele>1421</ele>
        <time>2020-07-11T14:42:06.015Z</time>
      </trkpt>
      <trkpt lat="45.77321" lon="2.9628">
        <ele>1422</ele>
        <time>2020-07-11T14:42:07.015Z</time>
      </trkpt>
      <trkpt lat="45.77319" lon="2.96283">
        <ele>1422</ele>
        <time>2020-07-11T14:42:08.015Z</time>
      </trkpt>
      <trkpt lat="45.77318" lon="2.96286">
        <ele>1423</ele>
        <time>2020-07-11T14:42:09.015Z</time>
      </trkpt>
      <trkpt lat="45.77316" lon="2.96288">
        <ele>1424</ele>
        <time>2020-07-11T14:42:10.015Z</time>
      </trkpt>
      <trkpt lat="45.77315" lon="2.96291">
        <ele>1424</ele>
        <time>2020-07-11T14:42:11.015Z</time>
      </trkpt>
      <trkpt lat="45.77313" lon="2.96294">
        <ele>1424</ele>
        <time>2020-07-11T14:42:12.015Z</time>
      </trkpt>
      <trkpt lat="45.77313" lon="2.96296">
        <ele>1425</ele>
        <time>2020-07-11T14:42:13.015Z</time>
      </trkpt>
      <trkpt lat="45.77312" lon="2.96299">
        <ele>1426</ele>
        <time>2020-07-11T14:42:14.015Z</time>
      </trkpt>
      <trkpt lat="45.77312" lon="2.96302">
        <ele>1427</ele>
        <time>2020-07-11T14:42:15.015Z</time>
      </trkpt>
      <trkpt lat="45.77312" lon="2.96306">
        <ele>1427</ele>
        <time>2020-07-11T14:42:16.015Z</time>
      </trkpt>
      <trkpt lat="45.77312" lon="2.96309">
        <ele>1427</ele>
        <time>2020-07-11T14:42:17.015Z</time>
      </trkpt>
      <trkpt lat="45.77311" lon="2.96311">
        <ele>1427</ele>
        <time>2020-07-11T14:42:18.015Z</time>
      </trkpt>
      <trkpt lat="45.77311" lon="2.96314">
        <ele>1427</ele>
        <time>2020-07-11T14:42:19.015Z</time>
      </trkpt>
      <trkpt lat="45.7731" lon="2.96317">
        <ele>1427</ele>
        <time>2020-07-11T14:42:20.015Z</time>
      </trkpt>
      <trkpt lat="45.7731" lon="2.9632">
        <ele>1428</ele>
        <time>2020-07-11T14:42:21.015Z</time>
      </trkpt>
      <trkpt lat="45.7731" lon="2.96323">
        <ele>1428</ele>
        <time>2020-07-11T14:42:22.015Z</time>
      </trkpt>
      <trkpt lat="45.7731" lon="2.96325">
        <ele>1429</ele>
        <time>2020-07-11T14:42:23.015Z</time>
      </trkpt>
      <trkpt lat="45.77309" lon="2.96328">
        <ele>1429</ele>
        <time>2020-07-11T14:42:24.015Z</time>
      </trkpt>
      <trkpt lat="45.77308" lon="2.96331">
        <ele>1430</ele>
        <time>2020-07-11T14:42:25.015Z</time>
      </trkpt>
      <trkpt lat="45.77308" lon="2.96333">
        <ele>1431</ele>
        <time>2020-07-11T14:42:26.015Z</time>
      </trkpt>
      <trkpt lat="45.77307" lon="2.96335">
        <ele>1431</ele>
        <time>2020-07-11T14:42:27.015Z</time>
      </trkpt>
      <trkpt lat="45.77306" lon="2.96337">
        <ele>1432</ele>
        <time>2020-07-11T14:42:28.015Z</time>
      </trkpt>
      <trkpt lat="45.77306" lon="2.96339">
        <ele>1433</ele>
        <time>2020-07-11T14:42:29.015Z</time>
      </trkpt>
      <trkpt lat="45.77305" lon="2.96341">
        <ele>1433</ele>
        <time>2020-07-11T14:42:30.015Z</time>
      </trkpt>
      <trkpt lat="45.77304" lon="2.96343">
        <ele>1433</ele>
        <time>2020-07-11T14:42:31.015Z</time>
      </trkpt>
      <trkpt lat="45.77303" lon="2.96345">
        <ele>1434</ele>
        <time>2020-07-11T14:42:32.015Z</time>
      </trkpt>
      <trkpt lat="45.77302" lon="2.96346">
        <ele>1436</ele>
        <time>2020-07-11T14:42:33.015Z</time>
      </trkpt>
      <trkpt lat="45.77302" lon="2.96348">
        <ele>1437</ele>
        <time>2020-07-11T14:42:34.015Z</time>
      </trkpt>
      <trkpt lat="45.77301" lon="2.96349">
        <ele>1437</ele>
        <time>2020-07-11T14:42:35.015Z</time>
      </trkpt>
      <trkpt lat="45.773" lon="2.96351">
        <ele>1437</ele>
        <time>2020-07-11T14:42:36.015Z</time>
      </trkpt>
      <trkpt lat="45.773" lon="2.96352">
        <ele>1438</ele>
        <time>2020-07-11T14:42:37.015Z</time>
      </trkpt>
      <trkpt lat="45.77299" lon="2.96353">
        <ele>1439</ele>
        <time>2020-07-11T14:42:38.015Z</time>
      </trkpt>
      <trkpt lat="45.77299" lon="2.96355">
        <ele>1440</ele>
        <time>2020-07-11T14:42:39.015Z</time>
      </trkpt>
      <trkpt lat="45.77298" lon="2.96357">
        <ele>1440</ele>
        <time>2020-07-11T14:42:40.015Z</time>
      </trkpt>
      <trkpt lat="45.77298" lon="2.96359">
        <ele>1440</ele>
        <time>2020-07-11T14:42:41.015Z</time>
      </trkpt>
      <trkpt lat="45.77298" lon="2.96362">
        <ele>1441</ele>
        <time>2020-07-11T14:42:42.015Z</time>
      </trkpt>
      <trkpt lat="45.77297" lon="2.96364">
        <ele>1441</ele>
        <time>2020-07-11T14:42:43.015Z</time>
      </trkpt>
      <trkpt lat="45.77297" lon="2.96366">
        <ele>1442</ele>
        <time>2020-07-11T14:42:44.015Z</time>
      </trkpt>
      <trkpt lat="45.77297" lon="2.96368">
        <ele>1442</ele>
        <time>2020-07-11T14:42:45.015Z</time>
      </trkpt>
      <trkpt lat="45.77298" lon="2.9637">
        <ele>1442</ele>
        <time>2020-07-11T14:42:46.015Z</time>
      </trkpt>
      <trkpt lat="45.77298" lon="2.96372">
        <ele>1443</ele>
        <time>2020-07-11T14:42:47.015Z</time>
      </trkpt>
      <trkpt lat="45.77299" lon="2.96374">
        <ele>1443</ele>
        <time>2020-07-11T14:42:48.015Z</time>
      </trkpt>
      <trkpt lat="45.77299" lon="2.96376">
        <ele>1444</ele>
        <time>2020-07-11T14:42:49.015Z</time>
      </trkpt>
      <trkpt lat="45.77299" lon="2.96377">
        <ele>1443</ele>
        <time>2020-07-11T14:42:50.015Z</time>
      </trkpt>
      <trkpt lat="45.773" lon="2.96379">
        <ele>1443</ele>
        <time>2020-07-11T14:42:51.015Z</time>
      </trkpt>
      <trkpt lat="45.773" lon="2.96381">
        <ele>1443</ele>
        <time>2020-07-11T14:42:52.015Z</time>
      </trkpt>
      <trkpt lat="45.77301" lon="2.96383">
        <ele>1444</ele>
        <time>2020-07-11T14:42:53.015Z</time>
      </trkpt>
      <trkpt lat="45.77301" lon="2.96384">
        <ele>1445</ele>
        <time>2020-07-11T14:42:54.015Z</time>
      </trkpt>
      <trkpt lat="45.77301" lon="2.96386">
        <ele>1445</ele>
        <time>2020-07-11T14:42:55.015Z</time>
      </trkpt>
      <trkpt lat="45.77301" lon="2.96388">
        <ele>1445</ele>
        <time>2020-07-11T14:42:56.015Z</time>
      </trkpt>
      <trkpt lat="45.77301" lon="2.9639">
        <ele>1445</ele>
        <time>2020-07-11T14:42:57.015Z</time>
      </trkpt>
      <trkpt lat="45.77301" lon="2.96391">
        <ele>1445</ele>
        <time>2020-07-11T14:42:58.015Z</time>
      </trkpt>
      <trkpt lat="45.773" lon="2.96393">
        <ele>1446</ele>
        <time>2020-07-11T14:42:59.015Z</time>
      </trkpt>
    </trkseg>
  </trk>
</gpx>